<?xml version='1.0' encoding='UTF-8'?><gpx version="1.1" creator="JPX - https://github.com/jenetics/jpx" xmlns="http://www.topografix.com/GPX/1/1"><trk><trkseg><trkpt lat="42.86949425631492" lon="13.768396698773904"><ele>45.0</ele><time>2026-04-18T07:17:36.001Z</time></trkpt><trkpt lat="42.8694493240548" lon="13.768292025627192"><ele>45.0</ele><time>2026-04-18T07:17:38.001Z</time></trkpt><trkpt lat="42.869524484425575" lon="13.768203411824354"><ele>45.0</ele><time>2026-04-18T07:17:40.001Z</time></trkpt><trkpt lat="42.86958641901237" lon="13.768166484384377"><ele>45.0</ele><time>2026-04-18T07:17:41.001Z</time></trkpt><trkpt lat="42.869680921895814" lon="13.76815403426262"><ele>45.0</ele><time>2026-04-18T07:17:42.001Z</time></trkpt><trkpt lat="42.869741697756226" lon="13.768116769821415"><ele>45.0</ele><time>2026-04-18T07:17:43.001Z</time></trkpt><trkpt lat="42.86980468213236" lon="13.768078151316637"><ele>45.0</ele><time>2026-04-18T07:17:46.001Z</time></trkpt><trkpt lat="42.869752864444685" lon="13.767949582619012"><ele>45.0</ele><time>2026-04-18T07:17:47.001Z</time></trkpt><trkpt lat="42.869717145701735" lon="13.767871971940934"><ele>45.0</ele><time>2026-04-18T07:17:48.001Z</time></trkpt><trkpt lat="42.869650946124885" lon="13.767702678538175"><ele>45.0</ele><time>2026-04-18T07:17:50.001Z</time></trkpt><trkpt lat="42.86961648772642" lon="13.767609007301816"><ele>45.0</ele><time>2026-04-18T07:17:51.001Z</time></trkpt><trkpt lat="42.86958945654801" lon="13.767518945716976"><ele>45.0</ele><time>2026-04-18T07:17:52Z</time></trkpt><trkpt lat="42.8695601595338" lon="13.767426111522735"><ele>45.0</ele><time>2026-04-18T07:17:53Z</time></trkpt><trkpt lat="42.86953052925821" lon="13.767333432125897"><ele>45.0</ele><time>2026-04-18T07:17:54Z</time></trkpt><trkpt lat="42.869505774036476" lon="13.767251729457803"><ele>45.0</ele><time>2026-04-18T07:17:55Z</time></trkpt><trkpt lat="42.86945879995893" lon="13.767114348998614"><ele>45.0</ele><time>2026-04-18T07:17:57Z</time></trkpt><trkpt lat="42.86942602899265" lon="13.767018563707353"><ele>45.0</ele><time>2026-04-18T07:17:59Z</time></trkpt><trkpt lat="42.86937690635273" lon="13.766875224469782"><ele>45.0</ele><time>2026-04-18T07:18:00.999Z</time></trkpt><trkpt lat="42.86933490003865" lon="13.76675328572276"><ele>45.0</ele><time>2026-04-18T07:18:02.999Z</time></trkpt><trkpt lat="42.86930761255386" lon="13.766675262233232"><ele>45.0</ele><time>2026-04-18T07:18:04.999Z</time></trkpt><trkpt lat="42.86929465530759" lon="13.766573199160385"><ele>45.0</ele><time>2026-04-18T07:18:06.999Z</time></trkpt><trkpt lat="42.86936097458954" lon="13.766517150667969"><ele>45.0</ele><time>2026-04-18T07:18:08.999Z</time></trkpt><trkpt lat="42.86947423178212" lon="13.766532584380478"><ele>45.0</ele><time>2026-04-18T07:18:09.999Z</time></trkpt><trkpt lat="42.86952777238346" lon="13.766486212687811"><ele>45.0</ele><time>2026-04-18T07:18:10.999Z</time></trkpt><trkpt lat="42.869584185611096" lon="13.766437352988783"><ele>45.0</ele><time>2026-04-18T07:18:11.999Z</time></trkpt><trkpt lat="42.86964597153649" lon="13.766383839998953"><ele>45.0</ele><time>2026-04-18T07:18:12.999Z</time></trkpt><trkpt lat="42.86970892040025" lon="13.766329319746582"><ele>45.0</ele><time>2026-04-18T07:18:13.999Z</time></trkpt><trkpt lat="42.86977958948473" lon="13.766268113021498"><ele>45.0</ele><time>2026-04-18T07:18:15Z</time></trkpt><trkpt lat="42.86985078947144" lon="13.766206446453443"><ele>45.0</ele><time>2026-04-18T07:18:16Z</time></trkpt><trkpt lat="42.86991838627323" lon="13.766147900642364"><ele>45.0</ele><time>2026-04-18T07:18:17Z</time></trkpt><trkpt lat="42.869982276174255" lon="13.766092565375564"><ele>45.0</ele><time>2026-04-18T07:18:18Z</time></trkpt><trkpt lat="42.870037453255755" lon="13.7660447763153"><ele>45.0</ele><time>2026-04-18T07:18:19Z</time></trkpt><trkpt lat="42.870133635374934" lon="13.765961472644172"><ele>45.0</ele><time>2026-04-18T07:18:21Z</time></trkpt><trkpt lat="42.870189291761996" lon="13.765894734700474"><ele>45.0</ele><time>2026-04-18T07:18:23Z</time></trkpt><trkpt lat="42.870148499013226" lon="13.765741749096323"><ele>45.0</ele><time>2026-04-18T07:18:29Z</time></trkpt><trkpt lat="42.87010721958615" lon="13.765582956515878"><ele>46.0</ele><time>2026-04-18T07:18:31Z</time></trkpt><trkpt lat="42.87034262098002" lon="13.765567496391492"><ele>47.0</ele><time>2026-04-18T07:18:35Z</time></trkpt><trkpt lat="42.87041129125879" lon="13.765586112959307"><ele>48.0</ele><time>2026-04-18T07:18:36Z</time></trkpt><trkpt lat="42.87050248583131" lon="13.765584824650608"><ele>49.0</ele><time>2026-04-18T07:18:37Z</time></trkpt><trkpt lat="42.87059853462174" lon="13.765539119195612"><ele>49.0</ele><time>2026-04-18T07:18:38Z</time></trkpt><trkpt lat="42.8706993596808" lon="13.765519327253623"><ele>49.0</ele><time>2026-04-18T07:18:39Z</time></trkpt><trkpt lat="42.870806503912036" lon="13.765462884853276"><ele>49.0</ele><time>2026-04-18T07:18:40Z</time></trkpt><trkpt lat="42.87092611721397" lon="13.765378141472493"><ele>49.0</ele><time>2026-04-18T07:18:41Z</time></trkpt><trkpt lat="42.871058700705255" lon="13.765325806418458"><ele>49.0</ele><time>2026-04-18T07:18:42Z</time></trkpt><trkpt lat="42.8711778954312" lon="13.765266307205543"><ele>49.0</ele><time>2026-04-18T07:18:43Z</time></trkpt><trkpt lat="42.87129352196703" lon="13.765195987388015"><ele>49.0</ele><time>2026-04-18T07:18:44Z</time></trkpt><trkpt lat="42.87143148334411" lon="13.765129200406346"><ele>49.0</ele><time>2026-04-18T07:18:45Z</time></trkpt><trkpt lat="42.871563509392374" lon="13.765059113878632"><ele>49.0</ele><time>2026-04-18T07:18:46Z</time></trkpt><trkpt lat="42.871705149179704" lon="13.76498828665813"><ele>49.0</ele><time>2026-04-18T07:18:47Z</time></trkpt><trkpt lat="42.87184614681286" lon="13.764917485825897"><ele>49.0</ele><time>2026-04-18T07:18:48Z</time></trkpt><trkpt lat="42.87198346280696" lon="13.764847162237025"><ele>49.0</ele><time>2026-04-18T07:18:49Z</time></trkpt><trkpt lat="42.87210939551889" lon="13.764783401561505"><ele>49.166666666666664</ele><time>2026-04-18T07:18:50Z</time></trkpt><trkpt lat="42.87220818560522" lon="13.764729292740192"><ele>49.33333333333333</ele><time>2026-04-18T07:18:51Z</time></trkpt><trkpt lat="42.872292361156205" lon="13.764705601322897"><ele>49.5</ele><time>2026-04-18T07:18:52Z</time></trkpt><trkpt lat="42.87236271430361" lon="13.764658848864007"><ele>49.66666666666667</ele><time>2026-04-18T07:18:53Z</time></trkpt><trkpt lat="42.87242436922796" lon="13.76461600959353"><ele>49.833333333333336</ele><time>2026-04-18T07:18:54Z</time></trkpt><trkpt lat="42.872507136714646" lon="13.764529075888264"><ele>50.0</ele><time>2026-04-18T07:18:56Z</time></trkpt><trkpt lat="42.87258228043611" lon="13.764496314866058"><ele>50.333333333333336</ele><time>2026-04-18T07:18:58Z</time></trkpt><trkpt lat="42.8726456330185" lon="13.764445298888834"><ele>50.66666666666667</ele><time>2026-04-18T07:19:01Z</time></trkpt><trkpt lat="42.87269625218667" lon="13.764378736051079"><ele>51.0</ele><time>2026-04-18T07:19:35.001Z</time></trkpt><trkpt lat="42.87278492598773" lon="13.764312616064855"><ele>51.33333333333333</ele><time>2026-04-18T07:19:37.001Z</time></trkpt><trkpt lat="42.872866005927925" lon="13.764189708976005"><ele>51.666666666666664</ele><time>2026-04-18T07:19:39.001Z</time></trkpt><trkpt lat="42.872868284188435" lon="13.764088791577908"><ele>52.0</ele><time>2026-04-18T07:19:40.001Z</time></trkpt><trkpt lat="42.87284644903983" lon="13.763963982339098"><ele>52.0</ele><time>2026-04-18T07:19:41.001Z</time></trkpt><trkpt lat="42.87280954348792" lon="13.76385183689322"><ele>52.0</ele><time>2026-04-18T07:19:42.001Z</time></trkpt><trkpt lat="42.87277881261102" lon="13.763732093505613"><ele>52.0</ele><time>2026-04-18T07:19:43.001Z</time></trkpt><trkpt lat="42.87273995122763" lon="13.763612258686036"><ele>52.0</ele><time>2026-04-18T07:19:44.001Z</time></trkpt><trkpt lat="42.872700718084765" lon="13.763484655440193"><ele>52.0</ele><time>2026-04-18T07:19:45.001Z</time></trkpt><trkpt lat="42.87266409821381" lon="13.763349972270447"><ele>52.2</ele><time>2026-04-18T07:19:46.001Z</time></trkpt><trkpt lat="42.87263528344073" lon="13.763241713445048"><ele>52.400000000000006</ele><time>2026-04-18T07:19:47.001Z</time></trkpt><trkpt lat="42.87260346129359" lon="13.763131933526973"><ele>52.599999999999994</ele><time>2026-04-18T07:19:48.001Z</time></trkpt><trkpt lat="42.8725734824758" lon="13.763019391686823"><ele>52.8</ele><time>2026-04-18T07:19:49.001Z</time></trkpt><trkpt lat="42.87253505320118" lon="13.762884200453342"><ele>53.0</ele><time>2026-04-18T07:19:50.001Z</time></trkpt><trkpt lat="42.87249617276629" lon="13.762752750686209"><ele>53.2</ele><time>2026-04-18T07:19:51.001Z</time></trkpt><trkpt lat="42.87245782134469" lon="13.762634561885573"><ele>53.4</ele><time>2026-04-18T07:19:52.001Z</time></trkpt><trkpt lat="42.87242855265796" lon="13.762543489275716"><ele>53.60000000000001</ele><time>2026-04-18T07:19:53.001Z</time></trkpt><trkpt lat="42.87237761061145" lon="13.762393023361696"><ele>53.800000000000004</ele><time>2026-04-18T07:19:55.001Z</time></trkpt><trkpt lat="42.872342649780485" lon="13.762267869258984"><ele>54.0</ele><time>2026-04-18T07:19:56.001Z</time></trkpt><trkpt lat="42.87229059035343" lon="13.762083430133949"><ele>54.0</ele><time>2026-04-18T07:19:57.001Z</time></trkpt><trkpt lat="42.8722343252845" lon="13.761898443531802"><ele>54.0</ele><time>2026-04-18T07:19:57.996Z</time></trkpt><trkpt lat="42.87218366474124" lon="13.761743210734656"><ele>54.0</ele><time>2026-04-18T07:19:58.996Z</time></trkpt><trkpt lat="42.872137124784544" lon="13.761628450320481"><ele>54.0</ele><time>2026-04-18T07:19:59.996Z</time></trkpt><trkpt lat="42.8720747681298" lon="13.761475665473448"><ele>54.2</ele><time>2026-04-18T07:20:07.996Z</time></trkpt><trkpt lat="42.872034955943384" lon="13.761380182530226"><ele>54.400000000000006</ele><time>2026-04-18T07:20:08.996Z</time></trkpt><trkpt lat="42.8719768300342" lon="13.761262523931784"><ele>54.6</ele><time>2026-04-18T07:20:09.996Z</time></trkpt><trkpt lat="42.87192609416186" lon="13.761160894181755"><ele>54.8</ele><time>2026-04-18T07:20:10.996Z</time></trkpt><trkpt lat="42.87187995554932" lon="13.761063652732036"><ele>55.0</ele><time>2026-04-18T07:20:11.997Z</time></trkpt><trkpt lat="42.87183435538864" lon="13.760953845651217"><ele>55.166666666666664</ele><time>2026-04-18T07:20:12.997Z</time></trkpt><trkpt lat="42.871791133037256" lon="13.760859064210093"><ele>55.33333333333333</ele><time>2026-04-18T07:20:13.997Z</time></trkpt><trkpt lat="42.87175018934777" lon="13.760774003638957"><ele>55.5</ele><time>2026-04-18T07:20:14.997Z</time></trkpt><trkpt lat="42.871708919534235" lon="13.760694961435098"><ele>55.66666666666667</ele><time>2026-04-18T07:20:15.997Z</time></trkpt><trkpt lat="42.871673206223846" lon="13.760616926950103"><ele>55.833333333333336</ele><time>2026-04-18T07:20:16.997Z</time></trkpt><trkpt lat="42.871603391942585" lon="13.760489688720456"><ele>56.0</ele><time>2026-04-18T07:20:18.997Z</time></trkpt><trkpt lat="42.87152543533412" lon="13.760350009885869"><ele>55.50000000000001</ele><time>2026-04-18T07:20:20.998Z</time></trkpt><trkpt lat="42.87148041569015" lon="13.760262690902216"><ele>55.0</ele><time>2026-04-18T07:20:21.998Z</time></trkpt><trkpt lat="42.87143231448541" lon="13.760167923101887"><ele>54.5</ele><time>2026-04-18T07:20:22.998Z</time></trkpt><trkpt lat="42.871384780865206" lon="13.760074710037252"><ele>54.0</ele><time>2026-04-18T07:20:23.998Z</time></trkpt><trkpt lat="42.871337721864826" lon="13.759976401863716"><ele>53.50000000000001</ele><time>2026-04-18T07:20:24.998Z</time></trkpt><trkpt lat="42.871288455203064" lon="13.759878990142198"><ele>53.0</ele><time>2026-04-18T07:20:25.998Z</time></trkpt><trkpt lat="42.87123524831737" lon="13.759774074652865"><ele>53.0</ele><time>2026-04-18T07:20:26.998Z</time></trkpt><trkpt lat="42.87118113782007" lon="13.759656652303049"><ele>53.0</ele><time>2026-04-18T07:20:27.998Z</time></trkpt><trkpt lat="42.871125032341745" lon="13.759544435699164"><ele>53.0</ele><time>2026-04-18T07:20:28.998Z</time></trkpt><trkpt lat="42.87107220706009" lon="13.759441546414477"><ele>53.0</ele><time>2026-04-18T07:20:29.998Z</time></trkpt><trkpt lat="42.87102324412262" lon="13.759349072589062"><ele>53.0</ele><time>2026-04-18T07:20:30.998Z</time></trkpt><trkpt lat="42.87097373064491" lon="13.759250910547225"><ele>52.8</ele><time>2026-04-18T07:20:31.998Z</time></trkpt><trkpt lat="42.87091890856356" lon="13.759142321521342"><ele>52.599999999999994</ele><time>2026-04-18T07:20:32.998Z</time></trkpt><trkpt lat="42.87085877841778" lon="13.75901564569817"><ele>52.400000000000006</ele><time>2026-04-18T07:20:33.998Z</time></trkpt><trkpt lat="42.870795237413795" lon="13.75889442328481"><ele>52.2</ele><time>2026-04-18T07:20:34.998Z</time></trkpt><trkpt lat="42.87074021207791" lon="13.758784258318236"><ele>52.0</ele><time>2026-04-18T07:20:35.998Z</time></trkpt><trkpt lat="42.87068563501628" lon="13.758671890538293"><ele>52.0</ele><time>2026-04-18T07:20:36.999Z</time></trkpt><trkpt lat="42.870630076263154" lon="13.758560838683572"><ele>52.0</ele><time>2026-04-18T07:20:37.999Z</time></trkpt><trkpt lat="42.870573271533445" lon="13.758451140133568"><ele>52.0</ele><time>2026-04-18T07:20:38.999Z</time></trkpt><trkpt lat="42.870511563187605" lon="13.758332382977297"><ele>52.0</ele><time>2026-04-18T07:20:39.999Z</time></trkpt><trkpt lat="42.87044638355603" lon="13.758200527798797"><ele>52.0</ele><time>2026-04-18T07:20:40.999Z</time></trkpt><trkpt lat="42.870377730913546" lon="13.758068649252431"><ele>52.0</ele><time>2026-04-18T07:20:41.999Z</time></trkpt><trkpt lat="42.87031904821057" lon="13.757954508715256"><ele>52.0</ele><time>2026-04-18T07:20:42.999Z</time></trkpt><trkpt lat="42.870259920847424" lon="13.75784284385452"><ele>52.0</ele><time>2026-04-18T07:20:43.999Z</time></trkpt><trkpt lat="42.870198538623505" lon="13.757731196590264"><ele>52.0</ele><time>2026-04-18T07:20:44.999Z</time></trkpt><trkpt lat="42.87013095386801" lon="13.7576056657172"><ele>52.0</ele><time>2026-04-18T07:20:45.999Z</time></trkpt><trkpt lat="42.870069077848136" lon="13.757474640474054"><ele>52.400000000000006</ele><time>2026-04-18T07:20:46.999Z</time></trkpt><trkpt lat="42.87001296330447" lon="13.757342966545519"><ele>52.800000000000004</ele><time>2026-04-18T07:20:47.999Z</time></trkpt><trkpt lat="42.86997110811514" lon="13.757236725228523"><ele>53.2</ele><time>2026-04-18T07:20:48.999Z</time></trkpt><trkpt lat="42.869926834779235" lon="13.757121881880947"><ele>53.6</ele><time>2026-04-18T07:20:49.999Z</time></trkpt><trkpt lat="42.869880493284796" lon="13.756993819908534"><ele>54.0</ele><time>2026-04-18T07:20:50.999Z</time></trkpt><trkpt lat="42.86983696560548" lon="13.756829584861281"><ele>54.0</ele><time>2026-04-18T07:20:51.999Z</time></trkpt><trkpt lat="42.86980065092347" lon="13.756659293639709"><ele>54.00000000000001</ele><time>2026-04-18T07:20:52.999Z</time></trkpt><trkpt lat="42.86977475242972" lon="13.756505795736084"><ele>54.00000000000001</ele><time>2026-04-18T07:20:53.999Z</time></trkpt><trkpt lat="42.86975817847679" lon="13.756365663437482"><ele>54.0</ele><time>2026-04-18T07:20:54.999Z</time></trkpt><trkpt lat="42.86975440944512" lon="13.756243085441287"><ele>54.0</ele><time>2026-04-18T07:20:55.999Z</time></trkpt><trkpt lat="42.869750837994076" lon="13.75613449579222"><ele>53.75</ele><time>2026-04-18T07:20:56.999Z</time></trkpt><trkpt lat="42.869760065244634" lon="13.755971143482126"><ele>53.5</ele><time>2026-04-18T07:20:57.999Z</time></trkpt><trkpt lat="42.869768532628505" lon="13.755788862211118"><ele>53.25</ele><time>2026-04-18T07:20:58.999Z</time></trkpt><trkpt lat="42.86977902706962" lon="13.75554431861023"><ele>53.0</ele><time>2026-04-18T07:20:59.999Z</time></trkpt><trkpt lat="42.86977692273925" lon="13.755260016409768"><ele>52.0</ele><time>2026-04-18T07:21:00.999Z</time></trkpt><trkpt lat="42.8697754661698" lon="13.754951956726334"><ele>51.0</ele><time>2026-04-18T07:21:01.999Z</time></trkpt><trkpt lat="42.86977077978846" lon="13.754631891159123"><ele>52.5</ele><time>2026-04-18T07:21:02.999Z</time></trkpt><trkpt lat="42.86976639558151" lon="13.75433551355588"><ele>54.0</ele><time>2026-04-18T07:21:03.999Z</time></trkpt><trkpt lat="42.86975844107358" lon="13.753998258741712"><ele>54.0</ele><time>2026-04-18T07:21:04.999Z</time></trkpt><trkpt lat="42.869739766249126" lon="13.753657360017494"><ele>54.0</ele><time>2026-04-18T07:21:05.999Z</time></trkpt><trkpt lat="42.869709952168655" lon="13.753309654746072"><ele>55.0</ele><time>2026-04-18T07:21:06.999Z</time></trkpt><trkpt lat="42.869686853193414" lon="13.75300048194705"><ele>56.0</ele><time>2026-04-18T07:21:07.999Z</time></trkpt><trkpt lat="42.86965700269188" lon="13.752702736479613"><ele>57.0</ele><time>2026-04-18T07:21:09Z</time></trkpt><trkpt lat="42.86962500673617" lon="13.752407861504278"><ele>57.0</ele><time>2026-04-18T07:21:10Z</time></trkpt><trkpt lat="42.86959177969474" lon="13.752114170003095"><ele>57.0</ele><time>2026-04-18T07:21:11Z</time></trkpt><trkpt lat="42.869554447437274" lon="13.751831580421353"><ele>57.0</ele><time>2026-04-18T07:21:12Z</time></trkpt><trkpt lat="42.86951069671673" lon="13.751552546977894"><ele>57.0</ele><time>2026-04-18T07:21:13Z</time></trkpt><trkpt lat="42.86946603286373" lon="13.751292249097482"><ele>57.0</ele><time>2026-04-18T07:21:14Z</time></trkpt><trkpt lat="42.86941799980819" lon="13.75105852635918"><ele>57.0</ele><time>2026-04-18T07:21:15Z</time></trkpt><trkpt lat="42.86937120282854" lon="13.750836042623218"><ele>57.0</ele><time>2026-04-18T07:21:16Z</time></trkpt><trkpt lat="42.86933263225601" lon="13.750613960796368"><ele>57.0</ele><time>2026-04-18T07:21:17Z</time></trkpt><trkpt lat="42.86929708972432" lon="13.750393958845148"><ele>57.0</ele><time>2026-04-18T07:21:18Z</time></trkpt><trkpt lat="42.86926998847742" lon="13.750190288853311"><ele>57.2</ele><time>2026-04-18T07:21:19Z</time></trkpt><trkpt lat="42.869255127474524" lon="13.750018372565192"><ele>57.400000000000006</ele><time>2026-04-18T07:21:20Z</time></trkpt><trkpt lat="42.86924323673889" lon="13.749888287476454"><ele>57.599999999999994</ele><time>2026-04-18T07:21:21Z</time></trkpt><trkpt lat="42.86922677865025" lon="13.749754041849416"><ele>57.8</ele><time>2026-04-18T07:21:22Z</time></trkpt><trkpt lat="42.86922296900679" lon="13.749629096672205"><ele>58.0</ele><time>2026-04-18T07:21:23Z</time></trkpt><trkpt lat="42.8692631279717" lon="13.749543233269133"><ele>57.99999999999999</ele><time>2026-04-18T07:21:24Z</time></trkpt><trkpt lat="42.86931876444032" lon="13.749454625473437"><ele>58.0</ele><time>2026-04-18T07:21:25Z</time></trkpt><trkpt lat="42.86932273065174" lon="13.74936442897925"><ele>58.0</ele><time>2026-04-18T07:21:26Z</time></trkpt><trkpt lat="42.86927618218363" lon="13.749274743600902"><ele>58.0</ele><time>2026-04-18T07:21:27Z</time></trkpt><trkpt lat="42.869214494764954" lon="13.749205547869147"><ele>57.99999999999999</ele><time>2026-04-18T07:21:28Z</time></trkpt><trkpt lat="42.86916452857602" lon="13.749125530764534"><ele>58.0</ele><time>2026-04-18T07:21:29Z</time></trkpt><trkpt lat="42.869139042360956" lon="13.749016038874597"><ele>58.0</ele><time>2026-04-18T07:21:30Z</time></trkpt><trkpt lat="42.869115646981236" lon="13.748879398116049"><ele>58.0</ele><time>2026-04-18T07:21:31Z</time></trkpt><trkpt lat="42.869100660660095" lon="13.748742317605515"><ele>58.0</ele><time>2026-04-18T07:21:32Z</time></trkpt><trkpt lat="42.86907943427774" lon="13.748594258384378"><ele>58.0</ele><time>2026-04-18T07:21:33Z</time></trkpt><trkpt lat="42.869063014054205" lon="13.748439732028022"><ele>58.0</ele><time>2026-04-18T07:21:34Z</time></trkpt><trkpt lat="42.869052435412456" lon="13.748305969046548"><ele>58.166666666666664</ele><time>2026-04-18T07:21:35Z</time></trkpt><trkpt lat="42.86904730018559" lon="13.74817762723154"><ele>58.33333333333333</ele><time>2026-04-18T07:21:36Z</time></trkpt><trkpt lat="42.86904787883036" lon="13.748066870453194"><ele>58.5</ele><time>2026-04-18T07:21:37Z</time></trkpt><trkpt lat="42.86905203169116" lon="13.747958271523206"><ele>58.66666666666667</ele><time>2026-04-18T07:21:38Z</time></trkpt><trkpt lat="42.86906630120851" lon="13.747852069940556"><ele>58.833333333333336</ele><time>2026-04-18T07:21:39Z</time></trkpt><trkpt lat="42.869081735536504" lon="13.747742804402282"><ele>59.0</ele><time>2026-04-18T07:21:40Z</time></trkpt><trkpt lat="42.86909568584818" lon="13.747612969110547"><ele>59.400000000000006</ele><time>2026-04-18T07:21:41Z</time></trkpt><trkpt lat="42.8691065059207" lon="13.747482203683536"><ele>59.800000000000004</ele><time>2026-04-18T07:21:42Z</time></trkpt><trkpt lat="42.86911909199909" lon="13.747346615385919"><ele>60.199999999999996</ele><time>2026-04-18T07:21:43Z</time></trkpt><trkpt lat="42.86913563007816" lon="13.747204332740573"><ele>60.599999999999994</ele><time>2026-04-18T07:21:44Z</time></trkpt><trkpt lat="42.86915535412884" lon="13.747061877345093"><ele>61.0</ele><time>2026-04-18T07:21:45Z</time></trkpt><trkpt lat="42.869180053802836" lon="13.746914403340138"><ele>61.5</ele><time>2026-04-18T07:21:46Z</time></trkpt><trkpt lat="42.86920372412103" lon="13.746765806517491"><ele>62.0</ele><time>2026-04-18T07:21:47Z</time></trkpt><trkpt lat="42.869226177868974" lon="13.746610467560156"><ele>62.5</ele><time>2026-04-18T07:21:48Z</time></trkpt><trkpt lat="42.86924280471472" lon="13.746463024244848"><ele>63.0</ele><time>2026-04-18T07:21:49Z</time></trkpt><trkpt lat="42.8692652410199" lon="13.74629380696144"><ele>64.25</ele><time>2026-04-18T07:21:50Z</time></trkpt><trkpt lat="42.86928304110313" lon="13.746131585200224"><ele>65.5</ele><time>2026-04-18T07:21:51Z</time></trkpt><trkpt lat="42.86929881257037" lon="13.745972385267981"><ele>66.75</ele><time>2026-04-18T07:21:52.001Z</time></trkpt><trkpt lat="42.86931717520969" lon="13.745808666339332"><ele>68.0</ele><time>2026-04-18T07:21:53.001Z</time></trkpt><trkpt lat="42.869327091603786" lon="13.745657952422397"><ele>68.0</ele><time>2026-04-18T07:21:54.001Z</time></trkpt><trkpt lat="42.86933350864734" lon="13.745514073630508"><ele>68.0</ele><time>2026-04-18T07:21:55.001Z</time></trkpt><trkpt lat="42.86933049427965" lon="13.745389143693384"><ele>68.0</ele><time>2026-04-18T07:21:56.001Z</time></trkpt><trkpt lat="42.869317541483944" lon="13.74529195846196"><ele>68.0</ele><time>2026-04-18T07:21:57.001Z</time></trkpt><trkpt lat="42.86930005693757" lon="13.74518730332536"><ele>68.0</ele><time>2026-04-18T07:21:59.001Z</time></trkpt><trkpt lat="42.86927597456311" lon="13.74507219998795"><ele>68.0</ele><time>2026-04-18T07:22:02.001Z</time></trkpt><trkpt lat="42.869254163014865" lon="13.744893737025656"><ele>66.8</ele><time>2026-04-18T07:22:03.997Z</time></trkpt><trkpt lat="42.8692387791611" lon="13.744807481232796"><ele>65.6</ele><time>2026-04-18T07:22:04.997Z</time></trkpt><trkpt lat="42.869223584811955" lon="13.744695147200282"><ele>64.4</ele><time>2026-04-18T07:22:05.997Z</time></trkpt><trkpt lat="42.86920792862074" lon="13.744566586421001"><ele>63.2</ele><time>2026-04-18T07:22:06.997Z</time></trkpt><trkpt lat="42.86918705119749" lon="13.744428286574703"><ele>62.0</ele><time>2026-04-18T07:22:07.997Z</time></trkpt><trkpt lat="42.86916683757421" lon="13.744279735416082"><ele>62.0</ele><time>2026-04-18T07:22:08.997Z</time></trkpt><trkpt lat="42.86914858863645" lon="13.744148413217966"><ele>62.0</ele><time>2026-04-18T07:22:09.997Z</time></trkpt><trkpt lat="42.86912687555617" lon="13.74398509167195"><ele>62.0</ele><time>2026-04-18T07:22:10.997Z</time></trkpt><trkpt lat="42.869104522808996" lon="13.743817640755692"><ele>62.0</ele><time>2026-04-18T07:22:11.998Z</time></trkpt><trkpt lat="42.86907969883108" lon="13.743650979823526"><ele>62.25</ele><time>2026-04-18T07:22:12.998Z</time></trkpt><trkpt lat="42.86905661493014" lon="13.743478968251488"><ele>62.5</ele><time>2026-04-18T07:22:13.998Z</time></trkpt><trkpt lat="42.8690337814773" lon="13.74331122941939"><ele>62.75</ele><time>2026-04-18T07:22:14.998Z</time></trkpt><trkpt lat="42.869013389984744" lon="13.743148350562587"><ele>63.0</ele><time>2026-04-18T07:22:15.998Z</time></trkpt><trkpt lat="42.868987989236146" lon="13.74297640457361"><ele>63.0</ele><time>2026-04-18T07:22:16.998Z</time></trkpt><trkpt lat="42.868953249549065" lon="13.742760898435705"><ele>63.0</ele><time>2026-04-18T07:22:17.998Z</time></trkpt><trkpt lat="42.86893862313632" lon="13.742556556142356"><ele>63.0</ele><time>2026-04-18T07:22:18.998Z</time></trkpt><trkpt lat="42.868911632570104" lon="13.742352583074176"><ele>63.66666666666667</ele><time>2026-04-18T07:22:19.998Z</time></trkpt><trkpt lat="42.86888421206814" lon="13.742146792061032"><ele>64.33333333333334</ele><time>2026-04-18T07:22:20.998Z</time></trkpt><trkpt lat="42.86885932435975" lon="13.741946104269944"><ele>65.0</ele><time>2026-04-18T07:22:21.998Z</time></trkpt><trkpt lat="42.868834084701334" lon="13.741736739111825"><ele>66.66666666666667</ele><time>2026-04-18T07:22:22.998Z</time></trkpt><trkpt lat="42.86880736633053" lon="13.74152584103365"><ele>68.33333333333333</ele><time>2026-04-18T07:22:23.998Z</time></trkpt><trkpt lat="42.86878071481387" lon="13.741307725679514"><ele>70.0</ele><time>2026-04-18T07:22:24.999Z</time></trkpt><trkpt lat="42.86875840242503" lon="13.741090492088269"><ele>70.66666666666666</ele><time>2026-04-18T07:22:25.999Z</time></trkpt><trkpt lat="42.8687414992305" lon="13.740876730652678"><ele>71.33333333333333</ele><time>2026-04-18T07:22:26.999Z</time></trkpt><trkpt lat="42.86872711932088" lon="13.740657880672021"><ele>72.0</ele><time>2026-04-18T07:22:27.999Z</time></trkpt><trkpt lat="42.868709933765295" lon="13.74043350691194"><ele>72.0</ele><time>2026-04-18T07:22:28.999Z</time></trkpt><trkpt lat="42.868685606042085" lon="13.740217474281861"><ele>72.0</ele><time>2026-04-18T07:22:29.999Z</time></trkpt><trkpt lat="42.868658386712895" lon="13.740006506211921"><ele>72.0</ele><time>2026-04-18T07:22:30.999Z</time></trkpt><trkpt lat="42.86862466150786" lon="13.739796555545869"><ele>72.66666666666667</ele><time>2026-04-18T07:22:31.999Z</time></trkpt><trkpt lat="42.86858330726848" lon="13.739586484077515"><ele>73.33333333333334</ele><time>2026-04-18T07:22:32.999Z</time></trkpt><trkpt lat="42.86853916157021" lon="13.739379735385281"><ele>74.0</ele><time>2026-04-18T07:22:33.999Z</time></trkpt><trkpt lat="42.86850524699577" lon="13.739170017097775"><ele>75.0</ele><time>2026-04-18T07:22:34.999Z</time></trkpt><trkpt lat="42.868473904922034" lon="13.738957351515408"><ele>76.0</ele><time>2026-04-18T07:22:35.999Z</time></trkpt><trkpt lat="42.86844390624659" lon="13.738737002167056"><ele>77.0</ele><time>2026-04-18T07:22:36.999Z</time></trkpt><trkpt lat="42.868408537676444" lon="13.738519841904363"><ele>72.66666666666667</ele><time>2026-04-18T07:22:37.999Z</time></trkpt><trkpt lat="42.86837137600382" lon="13.738301746347316"><ele>68.33333333333333</ele><time>2026-04-18T07:22:38.999Z</time></trkpt><trkpt lat="42.868331325561236" lon="13.738088680544271"><ele>64.0</ele><time>2026-04-18T07:22:39.999Z</time></trkpt><trkpt lat="42.868283825473235" lon="13.73788190864873"><ele>64.33333333333333</ele><time>2026-04-18T07:22:40.999Z</time></trkpt><trkpt lat="42.86823332811484" lon="13.737683922571902"><ele>64.66666666666667</ele><time>2026-04-18T07:22:42Z</time></trkpt><trkpt lat="42.868184419024715" lon="13.737483788302328"><ele>65.0</ele><time>2026-04-18T07:22:43Z</time></trkpt><trkpt lat="42.86813204395548" lon="13.737288005656966"><ele>65.0</ele><time>2026-04-18T07:22:44Z</time></trkpt><trkpt lat="42.86808083968558" lon="13.737092875716096"><ele>65.0</ele><time>2026-04-18T07:22:45Z</time></trkpt><trkpt lat="42.8680298907307" lon="13.736890696254422"><ele>65.0</ele><time>2026-04-18T07:22:46Z</time></trkpt><trkpt lat="42.86797594279928" lon="13.7366943373254"><ele>66.0</ele><time>2026-04-18T07:22:47Z</time></trkpt><trkpt lat="42.86792047869497" lon="13.73649732492707"><ele>67.0</ele><time>2026-04-18T07:22:48Z</time></trkpt><trkpt lat="42.867869847994015" lon="13.736298616995388"><ele>68.0</ele><time>2026-04-18T07:22:49Z</time></trkpt><trkpt lat="42.86781516735742" lon="13.73610222770908"><ele>69.33333333333334</ele><time>2026-04-18T07:22:50Z</time></trkpt><trkpt lat="42.86775457194432" lon="13.735913347164557"><ele>70.66666666666667</ele><time>2026-04-18T07:22:51Z</time></trkpt><trkpt lat="42.86768678425266" lon="13.735717883393425"><ele>72.0</ele><time>2026-04-18T07:22:52Z</time></trkpt><trkpt lat="42.867621711770795" lon="13.735525078278423"><ele>70.75</ele><time>2026-04-18T07:22:53Z</time></trkpt><trkpt lat="42.867554947430015" lon="13.735341920103785"><ele>69.5</ele><time>2026-04-18T07:22:54Z</time></trkpt><trkpt lat="42.86749269096693" lon="13.735157657091296"><ele>68.25</ele><time>2026-04-18T07:22:55Z</time></trkpt><trkpt lat="42.86743097989103" lon="13.734972378273973"><ele>67.0</ele><time>2026-04-18T07:22:56Z</time></trkpt><trkpt lat="42.867377639412474" lon="13.734801957051737"><ele>67.0</ele><time>2026-04-18T07:22:57Z</time></trkpt><trkpt lat="42.8673312338305" lon="13.734642926938951"><ele>67.0</ele><time>2026-04-18T07:22:58Z</time></trkpt><trkpt lat="42.86728722419521" lon="13.734483847000343"><ele>67.0</ele><time>2026-04-18T07:22:59Z</time></trkpt><trkpt lat="42.867235363183724" lon="13.734319203818277"><ele>67.0</ele><time>2026-04-18T07:23:00Z</time></trkpt><trkpt lat="42.86718257437904" lon="13.734145143161891"><ele>67.5</ele><time>2026-04-18T07:23:01Z</time></trkpt><trkpt lat="42.86712503787113" lon="13.733971944457057"><ele>68.0</ele><time>2026-04-18T07:23:02Z</time></trkpt><trkpt lat="42.867069826610056" lon="13.733798053169163"><ele>68.5</ele><time>2026-04-18T07:23:03Z</time></trkpt><trkpt lat="42.8670179925267" lon="13.73363349695505"><ele>69.0</ele><time>2026-04-18T07:23:04Z</time></trkpt><trkpt lat="42.86697007164914" lon="13.733478098349392"><ele>69.75</ele><time>2026-04-18T07:23:05Z</time></trkpt><trkpt lat="42.8669185118237" lon="13.733328641197057"><ele>70.5</ele><time>2026-04-18T07:23:06Z</time></trkpt><trkpt lat="42.86688005352494" lon="13.733169097197543"><ele>71.25</ele><time>2026-04-18T07:23:07Z</time></trkpt><trkpt lat="42.866849354718966" lon="13.733009228101668"><ele>72.0</ele><time>2026-04-18T07:23:08Z</time></trkpt><trkpt lat="42.86681420621827" lon="13.732848548648033"><ele>72.5</ele><time>2026-04-18T07:23:09Z</time></trkpt><trkpt lat="42.86678234288622" lon="13.732683710831148"><ele>73.0</ele><time>2026-04-18T07:23:10.001Z</time></trkpt><trkpt lat="42.86675216263082" lon="13.732508234029046"><ele>73.5</ele><time>2026-04-18T07:23:11.001Z</time></trkpt><trkpt lat="42.866718554612135" lon="13.732332783649737"><ele>74.0</ele><time>2026-04-18T07:23:12.001Z</time></trkpt><trkpt lat="42.86668309183731" lon="13.732151826531242"><ele>72.0</ele><time>2026-04-18T07:23:13.001Z</time></trkpt><trkpt lat="42.86664831418597" lon="13.731970742591644"><ele>70.0</ele><time>2026-04-18T07:23:14.001Z</time></trkpt><trkpt lat="42.86661353677631" lon="13.731787249858224"><ele>68.0</ele><time>2026-04-18T07:23:15.001Z</time></trkpt><trkpt lat="42.86658503165742" lon="13.731599893089658"><ele>66.0</ele><time>2026-04-18T07:23:16.001Z</time></trkpt><trkpt lat="42.86654458881059" lon="13.731419414837289"><ele>66.0</ele><time>2026-04-18T07:23:17.001Z</time></trkpt><trkpt lat="42.866509075573724" lon="13.731232269567474"><ele>66.0</ele><time>2026-04-18T07:23:18.001Z</time></trkpt><trkpt lat="42.866471544852956" lon="13.73105212716469"><ele>66.0</ele><time>2026-04-18T07:23:19.001Z</time></trkpt><trkpt lat="42.866432062119536" lon="13.730869236121423"><ele>66.0</ele><time>2026-04-18T07:23:20.001Z</time></trkpt><trkpt lat="42.86639499450204" lon="13.730689869136533"><ele>66.75</ele><time>2026-04-18T07:23:21.001Z</time></trkpt><trkpt lat="42.866360320092085" lon="13.730506184602644"><ele>67.5</ele><time>2026-04-18T07:23:22.001Z</time></trkpt><trkpt lat="42.86631913398203" lon="13.730326109348962"><ele>68.25</ele><time>2026-04-18T07:23:23.001Z</time></trkpt><trkpt lat="42.86628160126166" lon="13.730139580807593"><ele>69.0</ele><time>2026-04-18T07:23:24.001Z</time></trkpt><trkpt lat="42.866243047826984" lon="13.729958081276887"><ele>69.75</ele><time>2026-04-18T07:23:25.001Z</time></trkpt><trkpt lat="42.866205844095425" lon="13.72977438941257"><ele>70.5</ele><time>2026-04-18T07:23:26.001Z</time></trkpt><trkpt lat="42.86617019141807" lon="13.729593632015593"><ele>71.25</ele><time>2026-04-18T07:23:27.001Z</time></trkpt><trkpt lat="42.86613337791608" lon="13.729414159905183"><ele>72.0</ele><time>2026-04-18T07:23:28.001Z</time></trkpt><trkpt lat="42.86609591373094" lon="13.729236210195522"><ele>72.25</ele><time>2026-04-18T07:23:29.001Z</time></trkpt><trkpt lat="42.86605973613109" lon="13.729061878786807"><ele>72.5</ele><time>2026-04-18T07:23:30.001Z</time></trkpt><trkpt lat="42.866023909733116" lon="13.728899655039502"><ele>72.75</ele><time>2026-04-18T07:23:31.001Z</time></trkpt><trkpt lat="42.865986955311264" lon="13.728745166162378"><ele>73.0</ele><time>2026-04-18T07:23:32.001Z</time></trkpt><trkpt lat="42.8659522855876" lon="13.728579935968975"><ele>71.4</ele><time>2026-04-18T07:23:33.001Z</time></trkpt><trkpt lat="42.865923348339855" lon="13.7284207528865"><ele>69.8</ele><time>2026-04-18T07:23:34.001Z</time></trkpt><trkpt lat="42.86589420900186" lon="13.728279807243101"><ele>68.2</ele><time>2026-04-18T07:23:35.001Z</time></trkpt><trkpt lat="42.865872021133384" lon="13.728145311146267"><ele>66.6</ele><time>2026-04-18T07:23:36.001Z</time></trkpt><trkpt lat="42.86585055687851" lon="13.728011521003433"><ele>65.0</ele><time>2026-04-18T07:23:37.001Z</time></trkpt><trkpt lat="42.865819438980594" lon="13.727864251400476"><ele>64.8</ele><time>2026-04-18T07:23:38.001Z</time></trkpt><trkpt lat="42.86579042363373" lon="13.727712414617063"><ele>64.6</ele><time>2026-04-18T07:23:39.001Z</time></trkpt><trkpt lat="42.86576468099577" lon="13.727569212625246"><ele>64.4</ele><time>2026-04-18T07:23:40.001Z</time></trkpt><trkpt lat="42.865738283272655" lon="13.727422114751446"><ele>64.2</ele><time>2026-04-18T07:23:41.001Z</time></trkpt><trkpt lat="42.8657059215708" lon="13.727280534403496"><ele>64.0</ele><time>2026-04-18T07:23:42.001Z</time></trkpt><trkpt lat="42.86567625512889" lon="13.727141643380175"><ele>64.0</ele><time>2026-04-18T07:23:43.002Z</time></trkpt><trkpt lat="42.865643655238934" lon="13.726985019729547"><ele>64.0</ele><time>2026-04-18T07:23:44.002Z</time></trkpt><trkpt lat="42.86560910667622" lon="13.726821664693295"><ele>64.0</ele><time>2026-04-18T07:23:45.002Z</time></trkpt><trkpt lat="42.86557758307263" lon="13.726651139650922"><ele>64.0</ele><time>2026-04-18T07:23:46.002Z</time></trkpt><trkpt lat="42.86554431629439" lon="13.726490696612064"><ele>63.75</ele><time>2026-04-18T07:23:47.002Z</time></trkpt><trkpt lat="42.86551033055564" lon="13.726324531531507"><ele>63.5</ele><time>2026-04-18T07:23:48.002Z</time></trkpt><trkpt lat="42.865475486931146" lon="13.726162907447126"><ele>63.25</ele><time>2026-04-18T07:23:49.002Z</time></trkpt><trkpt lat="42.86544480819977" lon="13.726008149342976"><ele>63.0</ele><time>2026-04-18T07:23:50.002Z</time></trkpt><trkpt lat="42.86541854423476" lon="13.72586054987283"><ele>63.0</ele><time>2026-04-18T07:23:51.002Z</time></trkpt><trkpt lat="42.86538686352569" lon="13.725708756417754"><ele>63.0</ele><time>2026-04-18T07:23:52.002Z</time></trkpt><trkpt lat="42.86535591600482" lon="13.725555890680395"><ele>63.0</ele><time>2026-04-18T07:23:53.002Z</time></trkpt><trkpt lat="42.86532631302648" lon="13.725410700751613"><ele>63.0</ele><time>2026-04-18T07:23:54.002Z</time></trkpt><trkpt lat="42.86529652169135" lon="13.725275595523557"><ele>63.0</ele><time>2026-04-18T07:23:55.002Z</time></trkpt><trkpt lat="42.86526702378449" lon="13.72514102710138"><ele>62.666666666666664</ele><time>2026-04-18T07:23:56.002Z</time></trkpt><trkpt lat="42.865239702371106" lon="13.725008689181266"><ele>62.33333333333333</ele><time>2026-04-18T07:23:57.002Z</time></trkpt><trkpt lat="42.86521947393364" lon="13.724896304729125"><ele>62.0</ele><time>2026-04-18T07:23:58.002Z</time></trkpt><trkpt lat="42.865210045306384" lon="13.724802759432517"><ele>61.666666666666664</ele><time>2026-04-18T07:23:59.002Z</time></trkpt><trkpt lat="42.865237339541004" lon="13.724714266064685"><ele>61.33333333333333</ele><time>2026-04-18T07:24:02.002Z</time></trkpt><trkpt lat="42.86527802367147" lon="13.72463910384431"><ele>61.0</ele><time>2026-04-18T07:24:06.002Z</time></trkpt><trkpt lat="42.86530472877133" lon="13.724489837461087"><ele>60.99999999999999</ele><time>2026-04-18T07:24:08.002Z</time></trkpt><trkpt lat="42.86528195536854" lon="13.724403015096442"><ele>61.0</ele><time>2026-04-18T07:24:09.002Z</time></trkpt><trkpt lat="42.86523222917691" lon="13.724333888213044"><ele>61.0</ele><time>2026-04-18T07:24:09.999Z</time></trkpt><trkpt lat="42.865167211376644" lon="13.724267411908794"><ele>61.0</ele><time>2026-04-18T07:24:10.999Z</time></trkpt><trkpt lat="42.86509838346569" lon="13.724185870348236"><ele>60.99999999999999</ele><time>2026-04-18T07:24:11.999Z</time></trkpt><trkpt lat="42.86502398655279" lon="13.724086064534436"><ele>61.0</ele><time>2026-04-18T07:24:12.999Z</time></trkpt><trkpt lat="42.864957108692515" lon="13.723992394562256"><ele>61.75</ele><time>2026-04-18T07:24:13.999Z</time></trkpt><trkpt lat="42.86488682900575" lon="13.723876368630373"><ele>62.5</ele><time>2026-04-18T07:24:14.999Z</time></trkpt><trkpt lat="42.86480923914841" lon="13.723744080066682"><ele>63.25</ele><time>2026-04-18T07:24:15.999Z</time></trkpt><trkpt lat="42.864718894978424" lon="13.723595442838597"><ele>64.0</ele><time>2026-04-18T07:24:16.999Z</time></trkpt><trkpt lat="42.8646346307626" lon="13.723466265815087"><ele>66.25</ele><time>2026-04-18T07:24:17.999Z</time></trkpt><trkpt lat="42.86455041317303" lon="13.723330674496726"><ele>68.5</ele><time>2026-04-18T07:24:18.999Z</time></trkpt><trkpt lat="42.86446138328151" lon="13.72319403624744"><ele>70.75</ele><time>2026-04-18T07:24:19.999Z</time></trkpt><trkpt lat="42.86437523696805" lon="13.723047564383464"><ele>73.0</ele><time>2026-04-18T07:24:20.999Z</time></trkpt><trkpt lat="42.86428471369249" lon="13.722902336765085"><ele>72.25</ele><time>2026-04-18T07:24:21.999Z</time></trkpt><trkpt lat="42.86419010314203" lon="13.722754134952488"><ele>71.5</ele><time>2026-04-18T07:24:22.999Z</time></trkpt><trkpt lat="42.86409895764312" lon="13.722603626671908"><ele>70.75</ele><time>2026-04-18T07:24:23.999Z</time></trkpt><trkpt lat="42.86401223665215" lon="13.722460329950477"><ele>70.0</ele><time>2026-04-18T07:24:24.999Z</time></trkpt><trkpt lat="42.86391976179063" lon="13.722312534809957"><ele>70.0</ele><time>2026-04-18T07:24:25.999Z</time></trkpt><trkpt lat="42.86382448949006" lon="13.722156697794048"><ele>70.0</ele><time>2026-04-18T07:24:26.999Z</time></trkpt><trkpt lat="42.86373593455549" lon="13.7220068870441"><ele>70.0</ele><time>2026-04-18T07:24:27.999Z</time></trkpt><trkpt lat="42.8636478232865" lon="13.721864525347398"><ele>70.0</ele><time>2026-04-18T07:24:28.999Z</time></trkpt><trkpt lat="42.86357108884676" lon="13.721715840014898"><ele>70.5</ele><time>2026-04-18T07:24:29.999Z</time></trkpt><trkpt lat="42.8635051297701" lon="13.721559390772239"><ele>71.0</ele><time>2026-04-18T07:24:30.999Z</time></trkpt><trkpt lat="42.86345419064326" lon="13.721389166078856"><ele>71.5</ele><time>2026-04-18T07:24:31.999Z</time></trkpt><trkpt lat="42.86341299006401" lon="13.72122813275763"><ele>72.0</ele><time>2026-04-18T07:24:32.999Z</time></trkpt><trkpt lat="42.863385000550366" lon="13.721061952851521"><ele>72.5</ele><time>2026-04-18T07:24:34Z</time></trkpt><trkpt lat="42.86337166214981" lon="13.720896883607507"><ele>73.0</ele><time>2026-04-18T07:24:35Z</time></trkpt><trkpt lat="42.86334924160494" lon="13.720738222545405"><ele>73.5</ele><time>2026-04-18T07:24:36Z</time></trkpt><trkpt lat="42.86333045526631" lon="13.720589128851941"><ele>74.0</ele><time>2026-04-18T07:24:37Z</time></trkpt><trkpt lat="42.86330672469225" lon="13.720434666926407"><ele>74.0</ele><time>2026-04-18T07:24:38Z</time></trkpt><trkpt lat="42.86329176540062" lon="13.72027427560926"><ele>74.0</ele><time>2026-04-18T07:24:39Z</time></trkpt><trkpt lat="42.86325926934276" lon="13.720101699360374"><ele>74.0</ele><time>2026-04-18T07:24:40Z</time></trkpt><trkpt lat="42.86321764384264" lon="13.719949404522884"><ele>74.0</ele><time>2026-04-18T07:24:41Z</time></trkpt><trkpt lat="42.86316765746301" lon="13.719797309524427"><ele>74.0</ele><time>2026-04-18T07:24:42Z</time></trkpt><trkpt lat="42.86312104346542" lon="13.719650284728441"><ele>74.0</ele><time>2026-04-18T07:24:43Z</time></trkpt><trkpt lat="42.863072526986606" lon="13.719509544905787"><ele>74.0</ele><time>2026-04-18T07:24:44Z</time></trkpt><trkpt lat="42.863012768949844" lon="13.719375594906252"><ele>74.0</ele><time>2026-04-18T07:24:45Z</time></trkpt><trkpt lat="42.86295314661377" lon="13.719240834729538"><ele>74.0</ele><time>2026-04-18T07:24:46Z</time></trkpt><trkpt lat="42.862874728948356" lon="13.719090682719992"><ele>74.0</ele><time>2026-04-18T07:24:47Z</time></trkpt><trkpt lat="42.86279746429137" lon="13.718973356172743"><ele>74.0</ele><time>2026-04-18T07:24:48Z</time></trkpt><trkpt lat="42.86272620268754" lon="13.718866557956977"><ele>74.0</ele><time>2026-04-18T07:24:49Z</time></trkpt><trkpt lat="42.862660553311756" lon="13.718762002317465"><ele>73.5</ele><time>2026-04-18T07:24:50Z</time></trkpt><trkpt lat="42.86259755215433" lon="13.71866514998845"><ele>73.0</ele><time>2026-04-18T07:24:51Z</time></trkpt><trkpt lat="42.862534364117586" lon="13.718572941000478"><ele>72.5</ele><time>2026-04-18T07:24:52Z</time></trkpt><trkpt lat="42.86247295625714" lon="13.718480603085418"><ele>72.0</ele><time>2026-04-18T07:24:53Z</time></trkpt><trkpt lat="42.862414216152764" lon="13.718394854821689"><ele>71.5</ele><time>2026-04-18T07:24:54Z</time></trkpt><trkpt lat="42.86235958992342" lon="13.718313359696722"><ele>71.0</ele><time>2026-04-18T07:24:55Z</time></trkpt><trkpt lat="42.86231246068908" lon="13.718237970677094"><ele>71.0</ele><time>2026-04-18T07:24:56Z</time></trkpt><trkpt lat="42.86226373762023" lon="13.718160013765738"><ele>71.0</ele><time>2026-04-18T07:24:57Z</time></trkpt><trkpt lat="42.86221048179404" lon="13.718082663338619"><ele>71.0</ele><time>2026-04-18T07:24:58Z</time></trkpt><trkpt lat="42.86216349442296" lon="13.718011625381674"><ele>71.0</ele><time>2026-04-18T07:24:59Z</time></trkpt><trkpt lat="42.862121040918154" lon="13.71794063230085"><ele>71.0</ele><time>2026-04-18T07:25:00.001Z</time></trkpt><trkpt lat="42.862075002962385" lon="13.717874755760826"><ele>71.0</ele><time>2026-04-18T07:25:01.001Z</time></trkpt><trkpt lat="42.862028368928925" lon="13.717798454628477"><ele>71.0</ele><time>2026-04-18T07:25:02.001Z</time></trkpt><trkpt lat="42.8619857243417" lon="13.717722698800397"><ele>70.66666666666667</ele><time>2026-04-18T07:25:03.001Z</time></trkpt><trkpt lat="42.86194094628663" lon="13.717643134576328"><ele>70.33333333333334</ele><time>2026-04-18T07:25:04.001Z</time></trkpt><trkpt lat="42.86189666788642" lon="13.717561011221788"><ele>70.0</ele><time>2026-04-18T07:25:05.001Z</time></trkpt><trkpt lat="42.8618538135733" lon="13.717461715692949"><ele>69.66666666666667</ele><time>2026-04-18T07:25:06.001Z</time></trkpt><trkpt lat="42.861814085352826" lon="13.717367303244043"><ele>69.33333333333333</ele><time>2026-04-18T07:25:07.001Z</time></trkpt><trkpt lat="42.86177802178174" lon="13.717271539443466"><ele>69.0</ele><time>2026-04-18T07:25:08.001Z</time></trkpt><trkpt lat="42.8617397770717" lon="13.717166276248852"><ele>69.0</ele><time>2026-04-18T07:25:09.001Z</time></trkpt><trkpt lat="42.861704397023956" lon="13.717071782616102"><ele>69.0</ele><time>2026-04-18T07:25:10.001Z</time></trkpt><trkpt lat="42.86167488009776" lon="13.716986340058805"><ele>69.0</ele><time>2026-04-18T07:25:11.001Z</time></trkpt><trkpt lat="42.861642352447696" lon="13.716894402466318"><ele>69.0</ele><time>2026-04-18T07:25:12.001Z</time></trkpt><trkpt lat="42.86160973041244" lon="13.716796714939896"><ele>69.0</ele><time>2026-04-18T07:25:13.001Z</time></trkpt><trkpt lat="42.86157434705961" lon="13.716701662868513"><ele>69.0</ele><time>2026-04-18T07:25:14.001Z</time></trkpt><trkpt lat="42.86153960911022" lon="13.716605880125085"><ele>69.66666666666667</ele><time>2026-04-18T07:25:15.001Z</time></trkpt><trkpt lat="42.861523313759626" lon="13.716495227649226"><ele>70.33333333333333</ele><time>2026-04-18T07:25:16.001Z</time></trkpt><trkpt lat="42.86149343786906" lon="13.716394698203349"><ele>71.0</ele><time>2026-04-18T07:25:17.001Z</time></trkpt><trkpt lat="42.86146476845802" lon="13.716285663951268"><ele>71.66666666666666</ele><time>2026-04-18T07:25:18.001Z</time></trkpt><trkpt lat="42.86143745794749" lon="13.71617880121051"><ele>72.33333333333333</ele><time>2026-04-18T07:25:19.001Z</time></trkpt><trkpt lat="42.861413662725056" lon="13.716084634546315"><ele>73.0</ele><time>2026-04-18T07:25:20.001Z</time></trkpt><trkpt lat="42.86139100139628" lon="13.71599305736599"><ele>73.5</ele><time>2026-04-18T07:25:21.001Z</time></trkpt><trkpt lat="42.86136626722105" lon="13.715890227883332"><ele>74.0</ele><time>2026-04-18T07:25:22.001Z</time></trkpt><trkpt lat="42.86133045870715" lon="13.715791641125048"><ele>74.5</ele><time>2026-04-18T07:25:23.001Z</time></trkpt><trkpt lat="42.86133000909316" lon="13.715677753685384"><ele>75.0</ele><time>2026-04-18T07:25:24.001Z</time></trkpt><trkpt lat="42.86131689658872" lon="13.715568024649722"><ele>75.5</ele><time>2026-04-18T07:25:25.001Z</time></trkpt><trkpt lat="42.86128065899135" lon="13.71547086009834"><ele>76.0</ele><time>2026-04-18T07:25:26.001Z</time></trkpt><trkpt lat="42.86126636876918" lon="13.715364383847557"><ele>76.0</ele><time>2026-04-18T07:25:27.001Z</time></trkpt><trkpt lat="42.861249921338036" lon="13.71525290893371"><ele>76.0</ele><time>2026-04-18T07:25:28.001Z</time></trkpt><trkpt lat="42.8612419904086" lon="13.715145229429652"><ele>76.0</ele><time>2026-04-18T07:25:29.001Z</time></trkpt><trkpt lat="42.86128031664437" lon="13.715024806541104"><ele>76.0</ele><time>2026-04-18T07:25:30.001Z</time></trkpt><trkpt lat="42.86128069676219" lon="13.714900443434084"><ele>76.0</ele><time>2026-04-18T07:25:31.001Z</time></trkpt><trkpt lat="42.86128064348744" lon="13.714760817684375"><ele>75.5</ele><time>2026-04-18T07:25:32.002Z</time></trkpt><trkpt lat="42.86126904333567" lon="13.714605904282903"><ele>75.0</ele><time>2026-04-18T07:25:33.002Z</time></trkpt><trkpt lat="42.86124395492585" lon="13.714445299898495"><ele>74.5</ele><time>2026-04-18T07:25:34.002Z</time></trkpt><trkpt lat="42.861213231358775" lon="13.714309049536297"><ele>74.0</ele><time>2026-04-18T07:25:35.002Z</time></trkpt><trkpt lat="42.86116691172232" lon="13.714170495656488"><ele>73.83333333333334</ele><time>2026-04-18T07:25:36.002Z</time></trkpt><trkpt lat="42.86111557494905" lon="13.714047983634543"><ele>73.66666666666667</ele><time>2026-04-18T07:25:37.002Z</time></trkpt><trkpt lat="42.86105494890697" lon="13.713948763441012"><ele>73.5</ele><time>2026-04-18T07:25:38.002Z</time></trkpt><trkpt lat="42.860994336354274" lon="13.713876247931761"><ele>73.33333333333333</ele><time>2026-04-18T07:25:39.002Z</time></trkpt><trkpt lat="42.86094256124613" lon="13.713803906997857"><ele>73.16666666666666</ele><time>2026-04-18T07:25:40.002Z</time></trkpt><trkpt lat="42.860897118082136" lon="13.713733155978808"><ele>73.0</ele><time>2026-04-18T07:25:41.002Z</time></trkpt><trkpt lat="42.860851842592155" lon="13.71365440897116"><ele>73.0</ele><time>2026-04-18T07:25:42.002Z</time></trkpt><trkpt lat="42.86081011365544" lon="13.713580297246216"><ele>73.0</ele><time>2026-04-18T07:25:43.002Z</time></trkpt><trkpt lat="42.860771405087554" lon="13.713507014386346"><ele>73.0</ele><time>2026-04-18T07:25:44.002Z</time></trkpt><trkpt lat="42.86073192953206" lon="13.713439092476921"><ele>73.0</ele><time>2026-04-18T07:25:45.002Z</time></trkpt><trkpt lat="42.860679942331345" lon="13.713325190511796"><ele>73.0</ele><time>2026-04-18T07:25:46.002Z</time></trkpt><trkpt lat="42.86063619150556" lon="13.713224846165463"><ele>73.0</ele><time>2026-04-18T07:25:47.002Z</time></trkpt><trkpt lat="42.86059150799288" lon="13.71311767235663"><ele>73.0</ele><time>2026-04-18T07:25:48.002Z</time></trkpt><trkpt lat="42.86054144932393" lon="13.712999071744608"><ele>73.0</ele><time>2026-04-18T07:25:49.002Z</time></trkpt><trkpt lat="42.86049243958989" lon="13.712867704412176"><ele>73.0</ele><time>2026-04-18T07:25:50.002Z</time></trkpt><trkpt lat="42.8604425216689" lon="13.712732853396899"><ele>73.0</ele><time>2026-04-18T07:25:51.002Z</time></trkpt><trkpt lat="42.86040128214034" lon="13.712594193480937"><ele>73.0</ele><time>2026-04-18T07:25:52.002Z</time></trkpt><trkpt lat="42.86036158853953" lon="13.71246241371575"><ele>73.2</ele><time>2026-04-18T07:25:53.002Z</time></trkpt><trkpt lat="42.860319895579224" lon="13.7123323887292"><ele>73.4</ele><time>2026-04-18T07:25:54.002Z</time></trkpt><trkpt lat="42.860287569688815" lon="13.712202185801617"><ele>73.60000000000001</ele><time>2026-04-18T07:25:55.002Z</time></trkpt><trkpt lat="42.86025872973572" lon="13.712069539112493"><ele>73.8</ele><time>2026-04-18T07:25:56.002Z</time></trkpt><trkpt lat="42.860251465598964" lon="13.711932084017795"><ele>74.0</ele><time>2026-04-18T07:25:57.002Z</time></trkpt><trkpt lat="42.86021316451708" lon="13.711799689472013"><ele>74.2</ele><time>2026-04-18T07:25:58.002Z</time></trkpt><trkpt lat="42.86020543225479" lon="13.711653198690533"><ele>74.4</ele><time>2026-04-18T07:25:59.002Z</time></trkpt><trkpt lat="42.86016757731099" lon="13.71152377318669"><ele>74.6</ele><time>2026-04-18T07:26:00.002Z</time></trkpt><trkpt lat="42.86015819292603" lon="13.71137998828118"><ele>74.8</ele><time>2026-04-18T07:26:01.002Z</time></trkpt><trkpt lat="42.86012130871133" lon="13.711265758313619"><ele>75.0</ele><time>2026-04-18T07:26:02.002Z</time></trkpt><trkpt lat="42.860101726028205" lon="13.711154447554023"><ele>74.0</ele><time>2026-04-18T07:26:03.002Z</time></trkpt><trkpt lat="42.86008475793678" lon="13.711040642508745"><ele>73.0</ele><time>2026-04-18T07:26:04.002Z</time></trkpt><trkpt lat="42.86005950513045" lon="13.71091226981483"><ele>72.0</ele><time>2026-04-18T07:26:05.003Z</time></trkpt><trkpt lat="42.860028337098896" lon="13.710785803853657"><ele>71.0</ele><time>2026-04-18T07:26:06.003Z</time></trkpt><trkpt lat="42.859995543054595" lon="13.710660976577689"><ele>70.0</ele><time>2026-04-18T07:26:07.003Z</time></trkpt><trkpt lat="42.859952556602785" lon="13.710529689274903"><ele>70.0</ele><time>2026-04-18T07:26:08.003Z</time></trkpt><trkpt lat="42.85991274100966" lon="13.710411368889568"><ele>70.0</ele><time>2026-04-18T07:26:09.003Z</time></trkpt><trkpt lat="42.85987486034467" lon="13.710297411319457"><ele>70.0</ele><time>2026-04-18T07:26:10.003Z</time></trkpt><trkpt lat="42.85983450274276" lon="13.71018534544978"><ele>70.0</ele><time>2026-04-18T07:26:11.003Z</time></trkpt><trkpt lat="42.859788883709975" lon="13.710081472452488"><ele>70.0</ele><time>2026-04-18T07:26:12.003Z</time></trkpt><trkpt lat="42.859754390096136" lon="13.70998057711988"><ele>70.0</ele><time>2026-04-18T07:26:13.003Z</time></trkpt><trkpt lat="42.859715301213875" lon="13.709889266222039"><ele>70.2</ele><time>2026-04-18T07:26:14.003Z</time></trkpt><trkpt lat="42.85967452045052" lon="13.709791933608331"><ele>70.4</ele><time>2026-04-18T07:26:15.003Z</time></trkpt><trkpt lat="42.85963061738721" lon="13.709678857728367"><ele>70.6</ele><time>2026-04-18T07:26:15.998Z</time></trkpt><trkpt lat="42.859587132230715" lon="13.70956693042823"><ele>70.8</ele><time>2026-04-18T07:26:16.998Z</time></trkpt><trkpt lat="42.85954799349032" lon="13.709453484016322"><ele>71.0</ele><time>2026-04-18T07:26:17.998Z</time></trkpt><trkpt lat="42.85950300346397" lon="13.70934358543055"><ele>71.0</ele><time>2026-04-18T07:26:18.998Z</time></trkpt><trkpt lat="42.859460307886835" lon="13.709233514316953"><ele>71.0</ele><time>2026-04-18T07:26:19.998Z</time></trkpt><trkpt lat="42.859422243371306" lon="13.709132211603858"><ele>71.0</ele><time>2026-04-18T07:26:20.998Z</time></trkpt><trkpt lat="42.85938215192081" lon="13.709023927168934"><ele>71.0</ele><time>2026-04-18T07:26:21.999Z</time></trkpt><trkpt lat="42.85934582813074" lon="13.708894812436352"><ele>71.0</ele><time>2026-04-18T07:26:22.999Z</time></trkpt><trkpt lat="42.85930297331253" lon="13.708759228276486"><ele>70.8</ele><time>2026-04-18T07:26:23.999Z</time></trkpt><trkpt lat="42.85927567268115" lon="13.708640377644826"><ele>70.6</ele><time>2026-04-18T07:26:24.999Z</time></trkpt><trkpt lat="42.85924214905867" lon="13.708489515961354"><ele>70.4</ele><time>2026-04-18T07:26:25.999Z</time></trkpt><trkpt lat="42.85921465526977" lon="13.708344951278386"><ele>70.2</ele><time>2026-04-18T07:26:26.999Z</time></trkpt><trkpt lat="42.85919482998022" lon="13.708193863794644"><ele>70.0</ele><time>2026-04-18T07:26:27.999Z</time></trkpt><trkpt lat="42.859176049347994" lon="13.708042719789711"><ele>70.0</ele><time>2026-04-18T07:26:28.999Z</time></trkpt><trkpt lat="42.85915719269096" lon="13.707895358220103"><ele>70.0</ele><time>2026-04-18T07:26:29.999Z</time></trkpt><trkpt lat="42.85913650017516" lon="13.707759031778147"><ele>70.0</ele><time>2026-04-18T07:26:30.999Z</time></trkpt><trkpt lat="42.85912003082572" lon="13.707629568127613"><ele>70.0</ele><time>2026-04-18T07:26:31.999Z</time></trkpt><trkpt lat="42.85910674982964" lon="13.707508815404625"><ele>70.0</ele><time>2026-04-18T07:26:32.999Z</time></trkpt><trkpt lat="42.85908950177509" lon="13.707389660978766"><ele>70.0</ele><time>2026-04-18T07:26:33.999Z</time></trkpt><trkpt lat="42.85908156173115" lon="13.707270401712018"><ele>70.0</ele><time>2026-04-18T07:26:34.999Z</time></trkpt><trkpt lat="42.85906527053351" lon="13.707153936598191"><ele>70.0</ele><time>2026-04-18T07:26:35.999Z</time></trkpt><trkpt lat="42.85905192016117" lon="13.707026868787088"><ele>70.0</ele><time>2026-04-18T07:26:37Z</time></trkpt><trkpt lat="42.859032511741766" lon="13.706892223286584"><ele>70.0</ele><time>2026-04-18T07:26:38Z</time></trkpt><trkpt lat="42.859004875755936" lon="13.70673882327988"><ele>71.0</ele><time>2026-04-18T07:26:39Z</time></trkpt><trkpt lat="42.858980605927314" lon="13.706586239650125"><ele>72.0</ele><time>2026-04-18T07:26:40Z</time></trkpt><trkpt lat="42.858959137630826" lon="13.70644718225235"><ele>73.0</ele><time>2026-04-18T07:26:41Z</time></trkpt><trkpt lat="42.85893734746103" lon="13.706300554192556"><ele>74.0</ele><time>2026-04-18T07:26:42Z</time></trkpt><trkpt lat="42.85891755564586" lon="13.706137263094753"><ele>73.8</ele><time>2026-04-18T07:26:43Z</time></trkpt><trkpt lat="42.85890057620738" lon="13.705992946438197"><ele>73.60000000000001</ele><time>2026-04-18T07:26:44Z</time></trkpt><trkpt lat="42.85888642905646" lon="13.705864937684577"><ele>73.4</ele><time>2026-04-18T07:26:45Z</time></trkpt><trkpt lat="42.85887107006668" lon="13.705733777949261"><ele>73.2</ele><time>2026-04-18T07:26:46Z</time></trkpt><trkpt lat="42.8588612634157" lon="13.70560264737707"><ele>73.0</ele><time>2026-04-18T07:26:47Z</time></trkpt><trkpt lat="42.858860151297584" lon="13.705469790210893"><ele>73.0</ele><time>2026-04-18T07:26:48Z</time></trkpt><trkpt lat="42.85885895856129" lon="13.705342954427183"><ele>73.0</ele><time>2026-04-18T07:26:49Z</time></trkpt><trkpt lat="42.85885801137412" lon="13.705217269521057"><ele>73.0</ele><time>2026-04-18T07:26:50Z</time></trkpt><trkpt lat="42.85885904812914" lon="13.705087641076481"><ele>73.0</ele><time>2026-04-18T07:26:51Z</time></trkpt><trkpt lat="42.85885500682908" lon="13.704950630298962"><ele>73.0</ele><time>2026-04-18T07:26:52Z</time></trkpt><trkpt lat="42.858853296213276" lon="13.704811399120402"><ele>73.2</ele><time>2026-04-18T07:26:53Z</time></trkpt><trkpt lat="42.858847290328434" lon="13.704670699586638"><ele>73.4</ele><time>2026-04-18T07:26:54Z</time></trkpt><trkpt lat="42.858845221148336" lon="13.704527118096854"><ele>73.60000000000001</ele><time>2026-04-18T07:26:55Z</time></trkpt><trkpt lat="42.85884419530999" lon="13.704385340802029"><ele>73.8</ele><time>2026-04-18T07:26:56.001Z</time></trkpt><trkpt lat="42.8588418467983" lon="13.704249696712518"><ele>74.0</ele><time>2026-04-18T07:26:57.001Z</time></trkpt><trkpt lat="42.85884039635634" lon="13.70412233569265"><ele>74.4</ele><time>2026-04-18T07:26:58.001Z</time></trkpt><trkpt lat="42.858841761383246" lon="13.703997887353928"><ele>74.80000000000001</ele><time>2026-04-18T07:26:59.001Z</time></trkpt><trkpt lat="42.858838065961706" lon="13.703862637770516"><ele>75.19999999999999</ele><time>2026-04-18T07:27:00.001Z</time></trkpt><trkpt lat="42.858833814133135" lon="13.703712778395321"><ele>75.6</ele><time>2026-04-18T07:27:01.001Z</time></trkpt><trkpt lat="42.85882866699277" lon="13.703557932971155"><ele>76.0</ele><time>2026-04-18T07:27:02.001Z</time></trkpt><trkpt lat="42.85882376074344" lon="13.703396521852858"><ele>76.25</ele><time>2026-04-18T07:27:03.001Z</time></trkpt><trkpt lat="42.858814283295445" lon="13.703239628085116"><ele>76.5</ele><time>2026-04-18T07:27:04.001Z</time></trkpt><trkpt lat="42.85880406824747" lon="13.703065972608087"><ele>76.75</ele><time>2026-04-18T07:27:05.001Z</time></trkpt><trkpt lat="42.858793471808184" lon="13.702899376208803"><ele>77.0</ele><time>2026-04-18T07:27:06.001Z</time></trkpt><trkpt lat="42.85878110451278" lon="13.70273167900304"><ele>77.0</ele><time>2026-04-18T07:27:07.001Z</time></trkpt><trkpt lat="42.858767597942" lon="13.70256229247461"><ele>77.0</ele><time>2026-04-18T07:27:08.001Z</time></trkpt><trkpt lat="42.85875180217281" lon="13.702389236805432"><ele>77.0</ele><time>2026-04-18T07:27:09.001Z</time></trkpt><trkpt lat="42.85873152823971" lon="13.702224385000608"><ele>77.0</ele><time>2026-04-18T07:27:10.001Z</time></trkpt><trkpt lat="42.85870786507048" lon="13.702066327620308"><ele>77.75</ele><time>2026-04-18T07:27:11.001Z</time></trkpt><trkpt lat="42.858684733958036" lon="13.701904246398298"><ele>78.5</ele><time>2026-04-18T07:27:12.001Z</time></trkpt><trkpt lat="42.858662075992406" lon="13.701752909512926"><ele>79.25</ele><time>2026-04-18T07:27:13.001Z</time></trkpt><trkpt lat="42.85863269908279" lon="13.701591534829282"><ele>80.0</ele><time>2026-04-18T07:27:14.001Z</time></trkpt><trkpt lat="42.858608034808434" lon="13.701427354496266"><ele>80.0</ele><time>2026-04-18T07:27:15.001Z</time></trkpt><trkpt lat="42.85859005111395" lon="13.701247859933249"><ele>80.0</ele><time>2026-04-18T07:27:16.001Z</time></trkpt><trkpt lat="42.85858450794604" lon="13.701060465966334"><ele>80.0</ele><time>2026-04-18T07:27:17.001Z</time></trkpt><trkpt lat="42.85861416302313" lon="13.700880224884695"><ele>80.0</ele><time>2026-04-18T07:27:18.001Z</time></trkpt><trkpt lat="42.858642799926535" lon="13.700701773345129"><ele>79.0</ele><time>2026-04-18T07:27:19.001Z</time></trkpt><trkpt lat="42.85867080050778" lon="13.700518496846644"><ele>78.0</ele><time>2026-04-18T07:27:20.001Z</time></trkpt><trkpt lat="42.85870251533997" lon="13.70031895856391"><ele>77.0</ele><time>2026-04-18T07:27:21.001Z</time></trkpt><trkpt lat="42.85873489940881" lon="13.70011387042594"><ele>76.0</ele><time>2026-04-18T07:27:22.001Z</time></trkpt><trkpt lat="42.85876579066574" lon="13.699904656198244"><ele>74.33333333333333</ele><time>2026-04-18T07:27:23.001Z</time></trkpt><trkpt lat="42.85878490028769" lon="13.699692166589177"><ele>72.66666666666667</ele><time>2026-04-18T07:27:24.002Z</time></trkpt><trkpt lat="42.85882056197346" lon="13.699490837941957"><ele>71.0</ele><time>2026-04-18T07:27:25.002Z</time></trkpt><trkpt lat="42.85885379918003" lon="13.699288838331677"><ele>70.25</ele><time>2026-04-18T07:27:26.002Z</time></trkpt><trkpt lat="42.858881435017516" lon="13.699094540770405"><ele>69.5</ele><time>2026-04-18T07:27:27.002Z</time></trkpt><trkpt lat="42.858901727311114" lon="13.69891425481267"><ele>68.75</ele><time>2026-04-18T07:27:28.002Z</time></trkpt><trkpt lat="42.85890555211203" lon="13.698737849723662"><ele>68.0</ele><time>2026-04-18T07:27:29.002Z</time></trkpt><trkpt lat="42.858880900500786" lon="13.698558539531833"><ele>67.5</ele><time>2026-04-18T07:27:30.002Z</time></trkpt><trkpt lat="42.85883488107537" lon="13.698380235511387"><ele>67.0</ele><time>2026-04-18T07:27:31.002Z</time></trkpt><trkpt lat="42.85879585193715" lon="13.698204443467047"><ele>66.5</ele><time>2026-04-18T07:27:32.002Z</time></trkpt><trkpt lat="42.85874315743157" lon="13.698034258418916"><ele>66.0</ele><time>2026-04-18T07:27:33.002Z</time></trkpt><trkpt lat="42.858691907313585" lon="13.69785965291169"><ele>66.5</ele><time>2026-04-18T07:27:34.002Z</time></trkpt><trkpt lat="42.85863880014652" lon="13.697686451116274"><ele>67.0</ele><time>2026-04-18T07:27:35.002Z</time></trkpt><trkpt lat="42.85858908254676" lon="13.697512419578286"><ele>67.5</ele><time>2026-04-18T07:27:36.002Z</time></trkpt><trkpt lat="42.85853949855687" lon="13.697331309665117"><ele>68.0</ele><time>2026-04-18T07:27:37.002Z</time></trkpt><trkpt lat="42.85849024038438" lon="13.69716593579881"><ele>68.0</ele><time>2026-04-18T07:27:38.002Z</time></trkpt><trkpt lat="42.858443671194166" lon="13.696992795828619"><ele>68.0</ele><time>2026-04-18T07:27:39.002Z</time></trkpt><trkpt lat="42.85839713466153" lon="13.696830345557737"><ele>68.0</ele><time>2026-04-18T07:27:40.002Z</time></trkpt><trkpt lat="42.85835013300517" lon="13.696670503875675"><ele>68.0</ele><time>2026-04-18T07:27:41.002Z</time></trkpt><trkpt lat="42.858303088565606" lon="13.696509991045703"><ele>68.0</ele><time>2026-04-18T07:27:42.002Z</time></trkpt><trkpt lat="42.858258213412675" lon="13.696347343632075"><ele>68.0</ele><time>2026-04-18T07:27:43.002Z</time></trkpt><trkpt lat="42.85820771379293" lon="13.696185892813933"><ele>68.0</ele><time>2026-04-18T07:27:44.002Z</time></trkpt><trkpt lat="42.85815061021458" lon="13.696024163998297"><ele>68.0</ele><time>2026-04-18T07:27:45.002Z</time></trkpt><trkpt lat="42.85809309819478" lon="13.695859638825278"><ele>69.0</ele><time>2026-04-18T07:27:46.002Z</time></trkpt><trkpt lat="42.85803489923732" lon="13.695691360013095"><ele>70.0</ele><time>2026-04-18T07:27:47.002Z</time></trkpt><trkpt lat="42.857972239967275" lon="13.69550841046447"><ele>71.0</ele><time>2026-04-18T07:27:48.002Z</time></trkpt><trkpt lat="42.85791615614116" lon="13.695322980204564"><ele>72.0</ele><time>2026-04-18T07:27:49.002Z</time></trkpt><trkpt lat="42.85785704855735" lon="13.695138510737836"><ele>73.5</ele><time>2026-04-18T07:27:50.002Z</time></trkpt><trkpt lat="42.85780176750274" lon="13.694970535918182"><ele>75.0</ele><time>2026-04-18T07:27:51.002Z</time></trkpt><trkpt lat="42.857748395830114" lon="13.694814422432458"><ele>76.5</ele><time>2026-04-18T07:27:52.002Z</time></trkpt><trkpt lat="42.85769996515533" lon="13.694662093963501"><ele>78.0</ele><time>2026-04-18T07:27:53.002Z</time></trkpt><trkpt lat="42.85765609794325" lon="13.694508359154748"><ele>78.6</ele><time>2026-04-18T07:27:54.002Z</time></trkpt><trkpt lat="42.85761775239843" lon="13.694373732000484"><ele>79.19999999999999</ele><time>2026-04-18T07:27:55.002Z</time></trkpt><trkpt lat="42.85758001838189" lon="13.694263777703515"><ele>79.8</ele><time>2026-04-18T07:27:56.003Z</time></trkpt><trkpt lat="42.85755231978681" lon="13.694184786318917"><ele>80.39999999999999</ele><time>2026-04-18T07:27:57.003Z</time></trkpt><trkpt lat="42.85755110951673" lon="13.69404182596596"><ele>81.0</ele><time>2026-04-18T07:27:59.003Z</time></trkpt><trkpt lat="42.857591205363384" lon="13.69391912505148"><ele>81.16666666666667</ele><time>2026-04-18T07:28:01.003Z</time></trkpt><trkpt lat="42.857651743970656" lon="13.693806276081078"><ele>81.33333333333333</ele><time>2026-04-18T07:28:03.003Z</time></trkpt><trkpt lat="42.85776297147031" lon="13.69381806085296"><ele>81.5</ele><time>2026-04-18T07:28:04.003Z</time></trkpt><trkpt lat="42.857841639796106" lon="13.693796215326143"><ele>81.66666666666666</ele><time>2026-04-18T07:28:05.003Z</time></trkpt><trkpt lat="42.8579091996088" lon="13.693764820145285"><ele>81.83333333333333</ele><time>2026-04-18T07:28:06.003Z</time></trkpt><trkpt lat="42.85797829207676" lon="13.693753376618298"><ele>82.0</ele><time>2026-04-18T07:28:07.003Z</time></trkpt><trkpt lat="42.858071952655216" lon="13.693735452020405"><ele>82.0</ele><time>2026-04-18T07:28:09.003Z</time></trkpt><trkpt lat="42.85813524919744" lon="13.693715631355158"><ele>82.0</ele><time>2026-04-18T07:28:12.003Z</time></trkpt><trkpt lat="42.85821705531911" lon="13.693688022385064"><ele>82.0</ele><time>2026-04-18T07:28:14.003Z</time></trkpt><trkpt lat="42.8582792869529" lon="13.693668937888688"><ele>82.0</ele><time>2026-04-18T07:28:15.003Z</time></trkpt><trkpt lat="42.85839754565993" lon="13.693637456399184"><ele>82.0</ele><time>2026-04-18T07:28:17.003Z</time></trkpt><trkpt lat="42.85851682642055" lon="13.693603912607474"><ele>81.33333333333333</ele><time>2026-04-18T07:28:19.003Z</time></trkpt><trkpt lat="42.85863929473529" lon="13.693563887641146"><ele>80.66666666666666</ele><time>2026-04-18T07:28:21.003Z</time></trkpt><trkpt lat="42.85870886755657" lon="13.693542790613986"><ele>80.0</ele><time>2026-04-18T07:28:21.998Z</time></trkpt><trkpt lat="42.858776205937694" lon="13.693524703257227"><ele>79.33333333333333</ele><time>2026-04-18T07:28:22.998Z</time></trkpt><trkpt lat="42.85883945934354" lon="13.693511698056515"><ele>78.66666666666667</ele><time>2026-04-18T07:28:23.998Z</time></trkpt><trkpt lat="42.858936211548595" lon="13.693477078105946"><ele>78.0</ele><time>2026-04-18T07:28:25.999Z</time></trkpt><trkpt lat="42.85899715763925" lon="13.69344898913346"><ele>78.0</ele><time>2026-04-18T07:28:27.999Z</time></trkpt><trkpt lat="42.85926495312517" lon="13.69326620011851"><ele>78.0</ele><time>2026-04-18T07:31:07.001Z</time></trkpt><trkpt lat="42.85935837900897" lon="13.693221413672305"><ele>78.0</ele><time>2026-04-18T07:31:22.001Z</time></trkpt><trkpt lat="42.85943518622748" lon="13.693182100112411"><ele>77.8</ele><time>2026-04-18T07:31:23.001Z</time></trkpt><trkpt lat="42.859504398646145" lon="13.693159445574832"><ele>77.6</ele><time>2026-04-18T07:31:24.001Z</time></trkpt><trkpt lat="42.85959370418394" lon="13.693127885248838"><ele>77.4</ele><time>2026-04-18T07:31:25.001Z</time></trkpt><trkpt lat="42.859704090032494" lon="13.693078949988553"><ele>77.2</ele><time>2026-04-18T07:31:26.001Z</time></trkpt><trkpt lat="42.8597990029589" lon="13.693034754898843"><ele>77.0</ele><time>2026-04-18T07:31:27.001Z</time></trkpt><trkpt lat="42.8599008424031" lon="13.692985859016126"><ele>77.0</ele><time>2026-04-18T07:31:28.001Z</time></trkpt><trkpt lat="42.85999508924887" lon="13.692931477357199"><ele>77.0</ele><time>2026-04-18T07:31:29.001Z</time></trkpt><trkpt lat="42.86008683037028" lon="13.692877672787274"><ele>77.0</ele><time>2026-04-18T07:31:30.001Z</time></trkpt><trkpt lat="42.86017968393081" lon="13.69282618901114"><ele>77.0</ele><time>2026-04-18T07:31:31.001Z</time></trkpt><trkpt lat="42.86025517056349" lon="13.692780627483867"><ele>77.0</ele><time>2026-04-18T07:31:32.001Z</time></trkpt><trkpt lat="42.860317234321585" lon="13.692736745158864"><ele>77.8</ele><time>2026-04-18T07:31:33.001Z</time></trkpt><trkpt lat="42.86037663434964" lon="13.692671848146718"><ele>78.6</ele><time>2026-04-18T07:31:34.001Z</time></trkpt><trkpt lat="42.860429860092594" lon="13.692580658216256"><ele>79.39999999999999</ele><time>2026-04-18T07:31:35.001Z</time></trkpt><trkpt lat="42.86047941227589" lon="13.692459019239164"><ele>80.2</ele><time>2026-04-18T07:31:36.002Z</time></trkpt><trkpt lat="42.86050083727206" lon="13.692310722546214"><ele>81.0</ele><time>2026-04-18T07:31:37.002Z</time></trkpt><trkpt lat="42.860492992168965" lon="13.692166747843542"><ele>81.0</ele><time>2026-04-18T07:31:38.002Z</time></trkpt><trkpt lat="42.86045347545982" lon="13.692046434369953"><ele>81.0</ele><time>2026-04-18T07:31:39.002Z</time></trkpt><trkpt lat="42.860407381708455" lon="13.691923878534617"><ele>81.0</ele><time>2026-04-18T07:31:40.002Z</time></trkpt><trkpt lat="42.860356212598425" lon="13.691789977888831"><ele>81.0</ele><time>2026-04-18T07:31:41.002Z</time></trkpt><trkpt lat="42.860302465416666" lon="13.691640075248722"><ele>81.0</ele><time>2026-04-18T07:31:42.002Z</time></trkpt><trkpt lat="42.86025776186566" lon="13.691511345490328"><ele>82.4</ele><time>2026-04-18T07:31:43.002Z</time></trkpt><trkpt lat="42.860222614224426" lon="13.691409506609304"><ele>83.8</ele><time>2026-04-18T07:31:44.002Z</time></trkpt><trkpt lat="42.86017882735692" lon="13.691298082818468"><ele>85.2</ele><time>2026-04-18T07:31:45.002Z</time></trkpt><trkpt lat="42.86014284137387" lon="13.691172812212226"><ele>86.60000000000001</ele><time>2026-04-18T07:31:46.002Z</time></trkpt><trkpt lat="42.86011969697078" lon="13.691030733425476"><ele>88.0</ele><time>2026-04-18T07:31:47.002Z</time></trkpt><trkpt lat="42.86012309113816" lon="13.690877569527613"><ele>90.0</ele><time>2026-04-18T07:31:48.002Z</time></trkpt><trkpt lat="42.86014407339526" lon="13.690724778341782"><ele>92.0</ele><time>2026-04-18T07:31:49.002Z</time></trkpt><trkpt lat="42.860165266719456" lon="13.690571211811395"><ele>94.0</ele><time>2026-04-18T07:31:50.002Z</time></trkpt><trkpt lat="42.86018349063798" lon="13.690401155442506"><ele>96.0</ele><time>2026-04-18T07:31:51.002Z</time></trkpt><trkpt lat="42.86021314608187" lon="13.690222050003696"><ele>97.5</ele><time>2026-04-18T07:31:52.002Z</time></trkpt><trkpt lat="42.860212943633314" lon="13.690037334790054"><ele>99.0</ele><time>2026-04-18T07:31:53.002Z</time></trkpt><trkpt lat="42.86021582087731" lon="13.689884140360904"><ele>100.5</ele><time>2026-04-18T07:31:54.002Z</time></trkpt><trkpt lat="42.86021140226521" lon="13.689728762981026"><ele>102.0</ele><time>2026-04-18T07:31:55.002Z</time></trkpt><trkpt lat="42.860202164958324" lon="13.689599653836405"><ele>102.0</ele><time>2026-04-18T07:31:56.002Z</time></trkpt><trkpt lat="42.86019760987694" lon="13.689463074208335"><ele>102.0</ele><time>2026-04-18T07:31:57.002Z</time></trkpt><trkpt lat="42.86019310958052" lon="13.68932966935743"><ele>102.0</ele><time>2026-04-18T07:31:58.002Z</time></trkpt><trkpt lat="42.86019101202756" lon="13.689199321491397"><ele>102.0</ele><time>2026-04-18T07:31:59.002Z</time></trkpt><trkpt lat="42.86018432526012" lon="13.689074719195311"><ele>102.0</ele><time>2026-04-18T07:32:00.002Z</time></trkpt><trkpt lat="42.860178960650416" lon="13.68894359959805"><ele>103.6</ele><time>2026-04-18T07:32:01.002Z</time></trkpt><trkpt lat="42.8601700555076" lon="13.688796867401638"><ele>105.19999999999999</ele><time>2026-04-18T07:32:02.002Z</time></trkpt><trkpt lat="42.86016582447486" lon="13.688644059345627"><ele>106.8</ele><time>2026-04-18T07:32:03.002Z</time></trkpt><trkpt lat="42.860164416589825" lon="13.688497897379225"><ele>108.4</ele><time>2026-04-18T07:32:04.002Z</time></trkpt><trkpt lat="42.86017058385865" lon="13.688369501280103"><ele>110.0</ele><time>2026-04-18T07:32:05.002Z</time></trkpt><trkpt lat="42.860179656825125" lon="13.688275295393579"><ele>111.16666666666666</ele><time>2026-04-18T07:32:06.002Z</time></trkpt><trkpt lat="42.8601998904193" lon="13.688168931824475"><ele>112.33333333333333</ele><time>2026-04-18T07:32:08.002Z</time></trkpt><trkpt lat="42.860209622749366" lon="13.688077902042073"><ele>113.5</ele><time>2026-04-18T07:33:06.001Z</time></trkpt><trkpt lat="42.86022250366716" lon="13.687988465606315"><ele>114.66666666666666</ele><time>2026-04-18T07:33:07.001Z</time></trkpt><trkpt lat="42.8602419199598" lon="13.68788567739388"><ele>115.83333333333333</ele><time>2026-04-18T07:33:08.001Z</time></trkpt><trkpt lat="42.86028454164419" lon="13.687793592976604"><ele>117.0</ele><time>2026-04-18T07:33:09.001Z</time></trkpt><trkpt lat="42.86032090859756" lon="13.687672794506947"><ele>119.19999999999999</ele><time>2026-04-18T07:33:10.001Z</time></trkpt><trkpt lat="42.86035422344697" lon="13.687543184064873"><ele>121.39999999999999</ele><time>2026-04-18T07:33:11.001Z</time></trkpt><trkpt lat="42.86043371480128" lon="13.68743423387224"><ele>123.60000000000001</ele><time>2026-04-18T07:33:12.001Z</time></trkpt><trkpt lat="42.86049094101555" lon="13.687307601994544"><ele>125.80000000000001</ele><time>2026-04-18T07:33:13.001Z</time></trkpt><trkpt lat="42.8605651808843" lon="13.687189576133884"><ele>128.0</ele><time>2026-04-18T07:33:14.001Z</time></trkpt><trkpt lat="42.86063920565916" lon="13.68706518670135"><ele>130.25</ele><time>2026-04-18T07:33:15.001Z</time></trkpt><trkpt lat="42.86071844038879" lon="13.686907077695503"><ele>132.5</ele><time>2026-04-18T07:33:16.001Z</time></trkpt><trkpt lat="42.86079523457628" lon="13.686743152492323"><ele>134.75</ele><time>2026-04-18T07:33:17.001Z</time></trkpt><trkpt lat="42.860859169390665" lon="13.686575672298616"><ele>137.0</ele><time>2026-04-18T07:33:18.001Z</time></trkpt><trkpt lat="42.86091470976906" lon="13.686425292134457"><ele>137.0</ele><time>2026-04-18T07:33:19.001Z</time></trkpt><trkpt lat="42.860961272545964" lon="13.686296121983204"><ele>137.0</ele><time>2026-04-18T07:33:20.001Z</time></trkpt><trkpt lat="42.86100105337016" lon="13.686184744985782"><ele>137.0</ele><time>2026-04-18T07:33:21.001Z</time></trkpt><trkpt lat="42.8610380967892" lon="13.686089542504899"><ele>137.0</ele><time>2026-04-18T07:33:22.001Z</time></trkpt><trkpt lat="42.86093719462695" lon="13.685963393216948"><ele>137.0</ele><time>2026-04-18T07:33:25.001Z</time></trkpt><trkpt lat="42.86086830466426" lon="13.68579096349921"><ele>139.25</ele><time>2026-04-18T07:33:27.001Z</time></trkpt><trkpt lat="42.860825430517316" lon="13.685663462039338"><ele>141.5</ele><time>2026-04-18T07:33:28.001Z</time></trkpt><trkpt lat="42.86079661241836" lon="13.685510816684813"><ele>143.75</ele><time>2026-04-18T07:33:29.001Z</time></trkpt><trkpt lat="42.860788483757275" lon="13.68535291837154"><ele>146.0</ele><time>2026-04-18T07:33:30.001Z</time></trkpt><trkpt lat="42.860783266422295" lon="13.685172228323028"><ele>146.25</ele><time>2026-04-18T07:33:31.001Z</time></trkpt><trkpt lat="42.86078229922933" lon="13.684987683841648"><ele>146.5</ele><time>2026-04-18T07:33:32.001Z</time></trkpt><trkpt lat="42.86079226869422" lon="13.68480492943105"><ele>146.75</ele><time>2026-04-18T07:33:33.001Z</time></trkpt><trkpt lat="42.86081731071399" lon="13.684615034393824"><ele>147.0</ele><time>2026-04-18T07:33:34.001Z</time></trkpt><trkpt lat="42.86084202537706" lon="13.684400483745808"><ele>146.33333333333334</ele><time>2026-04-18T07:33:35.001Z</time></trkpt><trkpt lat="42.86085738778864" lon="13.684186174963791"><ele>145.66666666666669</ele><time>2026-04-18T07:33:36.001Z</time></trkpt><trkpt lat="42.860877412949385" lon="13.683972081087592"><ele>145.0</ele><time>2026-04-18T07:33:37.001Z</time></trkpt><trkpt lat="42.860903576722755" lon="13.683776760067625"><ele>144.75</ele><time>2026-04-18T07:33:38.001Z</time></trkpt><trkpt lat="42.86093233726849" lon="13.683587393576632"><ele>144.5</ele><time>2026-04-18T07:33:39.001Z</time></trkpt><trkpt lat="42.860949797733205" lon="13.68340916555353"><ele>144.25</ele><time>2026-04-18T07:33:40.001Z</time></trkpt><trkpt lat="42.86095172803433" lon="13.683246330655157"><ele>144.0</ele><time>2026-04-18T07:33:41.001Z</time></trkpt><trkpt lat="42.86096252232028" lon="13.683095934435032"><ele>144.0</ele><time>2026-04-18T07:33:42.001Z</time></trkpt><trkpt lat="42.86091648139992" lon="13.68296618693031"><ele>144.0</ele><time>2026-04-18T07:33:43.001Z</time></trkpt><trkpt lat="42.8608783718524" lon="13.682850471333381"><ele>144.0</ele><time>2026-04-18T07:33:44.001Z</time></trkpt><trkpt lat="42.86084204324388" lon="13.682752680129582"><ele>144.0</ele><time>2026-04-18T07:33:45.001Z</time></trkpt><trkpt lat="42.86081262465278" lon="13.68267355703495"><ele>144.0</ele><time>2026-04-18T07:33:46.002Z</time></trkpt><trkpt lat="42.86071042141744" lon="13.682727598781355"><ele>145.0</ele><time>2026-04-18T07:33:49.002Z</time></trkpt><trkpt lat="42.8605842983346" lon="13.682662864138056"><ele>146.0</ele><time>2026-04-18T07:33:50.002Z</time></trkpt><trkpt lat="42.86047127160748" lon="13.682561395922848"><ele>147.0</ele><time>2026-04-18T07:33:51.002Z</time></trkpt><trkpt lat="42.86035786124991" lon="13.682454179844566"><ele>148.0</ele><time>2026-04-18T07:33:52.002Z</time></trkpt><trkpt lat="42.8602490391504" lon="13.682329823007427"><ele>148.0</ele><time>2026-04-18T07:33:53.002Z</time></trkpt><trkpt lat="42.86015381417949" lon="13.682190363171534"><ele>148.0</ele><time>2026-04-18T07:33:54.002Z</time></trkpt><trkpt lat="42.86005794346311" lon="13.68203962104558"><ele>148.0</ele><time>2026-04-18T07:33:55.002Z</time></trkpt><trkpt lat="42.859956303509406" lon="13.68189146869928"><ele>148.0</ele><time>2026-04-18T07:33:56.002Z</time></trkpt><trkpt lat="42.85984942613507" lon="13.681764949813598"><ele>146.75</ele><time>2026-04-18T07:33:57.002Z</time></trkpt><trkpt lat="42.859735826705915" lon="13.681650824742439"><ele>145.5</ele><time>2026-04-18T07:33:58.002Z</time></trkpt><trkpt lat="42.85963758021909" lon="13.681540525420607"><ele>144.25</ele><time>2026-04-18T07:33:59.002Z</time></trkpt><trkpt lat="42.85958535193885" lon="13.681404517554999"><ele>143.0</ele><time>2026-04-18T07:34:00.002Z</time></trkpt><trkpt lat="42.859549260723526" lon="13.681263334637046"><ele>146.0</ele><time>2026-04-18T07:34:01.002Z</time></trkpt><trkpt lat="42.85950560065336" lon="13.681074563447261"><ele>149.0</ele><time>2026-04-18T07:34:02.002Z</time></trkpt><trkpt lat="42.859458660709834" lon="13.6808495486226"><ele>152.0</ele><time>2026-04-18T07:34:03.002Z</time></trkpt><trkpt lat="42.8594090014024" lon="13.680636081164016"><ele>152.0</ele><time>2026-04-18T07:34:04.002Z</time></trkpt><trkpt lat="42.859341934861845" lon="13.680471538312766"><ele>152.0</ele><time>2026-04-18T07:34:05.002Z</time></trkpt><trkpt lat="42.85928656526934" lon="13.68031510783714"><ele>152.0</ele><time>2026-04-18T07:34:06.002Z</time></trkpt><trkpt lat="42.859217126259196" lon="13.680151953732247"><ele>152.0</ele><time>2026-04-18T07:34:07.002Z</time></trkpt><trkpt lat="42.859115955762846" lon="13.67999422641087"><ele>146.5</ele><time>2026-04-18T07:34:08.002Z</time></trkpt><trkpt lat="42.85900164296276" lon="13.679833701915747"><ele>141.0</ele><time>2026-04-18T07:34:09.002Z</time></trkpt><trkpt lat="42.858894206621045" lon="13.679688790074197"><ele>135.5</ele><time>2026-04-18T07:34:10.002Z</time></trkpt><trkpt lat="42.85880585805342" lon="13.679568821797814"><ele>130.0</ele><time>2026-04-18T07:34:11.002Z</time></trkpt><trkpt lat="42.85875252239155" lon="13.67946187773973"><ele>132.0</ele><time>2026-04-18T07:34:12.002Z</time></trkpt><trkpt lat="42.858763008975124" lon="13.67931244968437"><ele>134.0</ele><time>2026-04-18T07:34:13.002Z</time></trkpt><trkpt lat="42.85874357274492" lon="13.679156700510466"><ele>136.0</ele><time>2026-04-18T07:34:14.002Z</time></trkpt><trkpt lat="42.85869741515748" lon="13.678964296490413"><ele>138.0</ele><time>2026-04-18T07:34:15.002Z</time></trkpt><trkpt lat="42.858625120814345" lon="13.678790441677833"><ele>138.0</ele><time>2026-04-18T07:34:16.002Z</time></trkpt><trkpt lat="42.8585771027179" lon="13.678606286650256"><ele>138.0</ele><time>2026-04-18T07:34:17.002Z</time></trkpt><trkpt lat="42.85854718704529" lon="13.678410851646511"><ele>138.0</ele><time>2026-04-18T07:34:18.002Z</time></trkpt><trkpt lat="42.85852243928552" lon="13.67817727611838"><ele>138.0</ele><time>2026-04-18T07:34:19.002Z</time></trkpt><trkpt lat="42.85849968717765" lon="13.677932211777708"><ele>138.0</ele><time>2026-04-18T07:34:20.002Z</time></trkpt><trkpt lat="42.85848300414735" lon="13.677716053361998"><ele>138.0</ele><time>2026-04-18T07:34:21.002Z</time></trkpt><trkpt lat="42.858483079803" lon="13.677535738632752"><ele>138.0</ele><time>2026-04-18T07:34:22.002Z</time></trkpt><trkpt lat="42.858496405901086" lon="13.677367714335771"><ele>138.0</ele><time>2026-04-18T07:34:23.002Z</time></trkpt><trkpt lat="42.85850203930598" lon="13.677214688260682"><ele>138.0</ele><time>2026-04-18T07:34:24.002Z</time></trkpt><trkpt lat="42.85848134674782" lon="13.677072610188961"><ele>138.0</ele><time>2026-04-18T07:34:25.002Z</time></trkpt><trkpt lat="42.85846170020457" lon="13.67695229638448"><ele>138.0</ele><time>2026-04-18T07:34:26.002Z</time></trkpt><trkpt lat="42.858386233904696" lon="13.676862843339288"><ele>132.0</ele><time>2026-04-18T07:34:27.003Z</time></trkpt><trkpt lat="42.858302660462805" lon="13.676782531935478"><ele>126.00000000000001</ele><time>2026-04-18T07:34:28.003Z</time></trkpt><trkpt lat="42.85822592774776" lon="13.676709051455818"><ele>120.00000000000001</ele><time>2026-04-18T07:34:29.003Z</time></trkpt><trkpt lat="42.85817719181378" lon="13.676647487643274"><ele>114.0</ele><time>2026-04-18T07:34:30.003Z</time></trkpt><trkpt lat="42.858100761020715" lon="13.67660597066279"><ele>108.0</ele><time>2026-04-18T07:34:32.003Z</time></trkpt><trkpt lat="42.85801976372388" lon="13.676719693023182"><ele>108.0</ele><time>2026-04-18T07:34:36.003Z</time></trkpt><trkpt lat="42.85801551315295" lon="13.676906109230972"><ele>108.00000000000001</ele><time>2026-04-18T07:34:38.003Z</time></trkpt><trkpt lat="42.85800675037582" lon="13.677033055900853"><ele>108.00000000000001</ele><time>2026-04-18T07:34:39.003Z</time></trkpt><trkpt lat="42.85799756809548" lon="13.677144462029986"><ele>108.0</ele><time>2026-04-18T07:34:40Z</time></trkpt><trkpt lat="42.857981271566004" lon="13.677279760689599"><ele>108.0</ele><time>2026-04-18T07:34:41Z</time></trkpt><trkpt lat="42.857964932385514" lon="13.677444718959116"><ele>108.4</ele><time>2026-04-18T07:34:42Z</time></trkpt><trkpt lat="42.85795288993477" lon="13.677575884893761"><ele>108.80000000000001</ele><time>2026-04-18T07:34:43Z</time></trkpt><trkpt lat="42.8579375053257" lon="13.677725247335184"><ele>109.2</ele><time>2026-04-18T07:34:44Z</time></trkpt><trkpt lat="42.85792227920017" lon="13.677867170325413"><ele>109.6</ele><time>2026-04-18T07:34:45Z</time></trkpt><trkpt lat="42.85791078171615" lon="13.677990383634183"><ele>110.0</ele><time>2026-04-18T07:34:46Z</time></trkpt><trkpt lat="42.857884631777026" lon="13.678094216377824"><ele>110.2</ele><time>2026-04-18T07:34:47Z</time></trkpt><trkpt lat="42.85787313954714" lon="13.67820826928059"><ele>110.4</ele><time>2026-04-18T07:34:48Z</time></trkpt><trkpt lat="42.85787688212347" lon="13.678337148167738"><ele>110.6</ele><time>2026-04-18T07:34:49Z</time></trkpt><trkpt lat="42.85784961233266" lon="13.678451300213299"><ele>110.8</ele><time>2026-04-18T07:34:50Z</time></trkpt><trkpt lat="42.8578391355773" lon="13.678576707585746"><ele>111.0</ele><time>2026-04-18T07:34:51Z</time></trkpt><trkpt lat="42.85782973068659" lon="13.678707642806156"><ele>111.0</ele><time>2026-04-18T07:34:52Z</time></trkpt><trkpt lat="42.85781962454214" lon="13.678852688074706"><ele>111.0</ele><time>2026-04-18T07:34:53Z</time></trkpt><trkpt lat="42.85782324003985" lon="13.679014316468965"><ele>111.0</ele><time>2026-04-18T07:34:54Z</time></trkpt><trkpt lat="42.8578117945542" lon="13.679169305159144"><ele>111.0</ele><time>2026-04-18T07:34:55Z</time></trkpt><trkpt lat="42.85780159267919" lon="13.679351254529271"><ele>109.75</ele><time>2026-04-18T07:34:56Z</time></trkpt><trkpt lat="42.85777329660752" lon="13.679518513942792"><ele>108.5</ele><time>2026-04-18T07:34:57Z</time></trkpt><trkpt lat="42.85776193881285" lon="13.679686302521082"><ele>107.25</ele><time>2026-04-18T07:34:58Z</time></trkpt><trkpt lat="42.85775368457009" lon="13.679848518234921"><ele>106.0</ele><time>2026-04-18T07:34:59Z</time></trkpt><trkpt lat="42.85776201033175" lon="13.680001067474766"><ele>106.0</ele><time>2026-04-18T07:35:00Z</time></trkpt><trkpt lat="42.85775438414872" lon="13.68017015208484"><ele>106.0</ele><time>2026-04-18T07:35:01Z</time></trkpt><trkpt lat="42.857754383747874" lon="13.68032740912283"><ele>106.0</ele><time>2026-04-18T07:35:02Z</time></trkpt><trkpt lat="42.857759479289705" lon="13.680485882365542"><ele>106.0</ele><time>2026-04-18T07:35:03Z</time></trkpt><trkpt lat="42.8577697222763" lon="13.68065229245821"><ele>105.0</ele><time>2026-04-18T07:35:04Z</time></trkpt><trkpt lat="42.8577835610183" lon="13.680815941219512"><ele>104.0</ele><time>2026-04-18T07:35:05Z</time></trkpt><trkpt lat="42.857802384129705" lon="13.68097672992188"><ele>103.0</ele><time>2026-04-18T07:35:06Z</time></trkpt><trkpt lat="42.85783576032596" lon="13.681135802424388"><ele>102.0</ele><time>2026-04-18T07:35:07Z</time></trkpt><trkpt lat="42.857873190425266" lon="13.681302080044821"><ele>99.75</ele><time>2026-04-18T07:35:08Z</time></trkpt><trkpt lat="42.85791514398194" lon="13.681474076729652"><ele>97.5</ele><time>2026-04-18T07:35:09Z</time></trkpt><trkpt lat="42.85795003357208" lon="13.681629133718348"><ele>95.25</ele><time>2026-04-18T07:35:10Z</time></trkpt><trkpt lat="42.857981472970344" lon="13.681788599390982"><ele>93.0</ele><time>2026-04-18T07:35:11.001Z</time></trkpt><trkpt lat="42.857993090668494" lon="13.681959064313434"><ele>92.5</ele><time>2026-04-18T07:35:12.001Z</time></trkpt><trkpt lat="42.85801609644907" lon="13.682136616638031"><ele>92.0</ele><time>2026-04-18T07:35:13.001Z</time></trkpt><trkpt lat="42.85804024237313" lon="13.68231334877439"><ele>91.5</ele><time>2026-04-18T07:35:14.001Z</time></trkpt><trkpt lat="42.85806421345958" lon="13.682458223132125"><ele>91.0</ele><time>2026-04-18T07:35:15.001Z</time></trkpt><trkpt lat="42.85808677433664" lon="13.682592755409885"><ele>91.0</ele><time>2026-04-18T07:35:16.001Z</time></trkpt><trkpt lat="42.858109549719494" lon="13.682728566786972"><ele>91.0</ele><time>2026-04-18T07:35:17.001Z</time></trkpt><trkpt lat="42.85812734640116" lon="13.68283468975828"><ele>91.0</ele><time>2026-04-18T07:35:18.001Z</time></trkpt><trkpt lat="42.85814509573898" lon="13.682940530255873"><ele>91.0</ele><time>2026-04-18T07:35:19.001Z</time></trkpt><trkpt lat="42.85816461676307" lon="13.683056935462654"><ele>91.0</ele><time>2026-04-18T07:35:20.001Z</time></trkpt><trkpt lat="42.858187121346255" lon="13.68318559166236"><ele>91.0</ele><time>2026-04-18T07:35:21.001Z</time></trkpt><trkpt lat="42.858222247633314" lon="13.683293621541006"><ele>90.83333333333333</ele><time>2026-04-18T07:35:22.001Z</time></trkpt><trkpt lat="42.85824403253741" lon="13.683410354877205"><ele>90.66666666666666</ele><time>2026-04-18T07:35:23.001Z</time></trkpt><trkpt lat="42.858270459159286" lon="13.683521347856137"><ele>90.5</ele><time>2026-04-18T07:35:24.001Z</time></trkpt><trkpt lat="42.85829424321866" lon="13.683633746059137"><ele>90.33333333333333</ele><time>2026-04-18T07:35:25.001Z</time></trkpt><trkpt lat="42.85830944327369" lon="13.683764157484598"><ele>90.16666666666667</ele><time>2026-04-18T07:35:26.001Z</time></trkpt><trkpt lat="42.85833588083996" lon="13.683883015469972"><ele>90.0</ele><time>2026-04-18T07:35:27.001Z</time></trkpt><trkpt lat="42.85837177192131" lon="13.684016027392685"><ele>90.0</ele><time>2026-04-18T07:35:28.001Z</time></trkpt><trkpt lat="42.85842205565052" lon="13.684112034214408"><ele>90.0</ele><time>2026-04-18T07:35:29.001Z</time></trkpt><trkpt lat="42.8584607312386" lon="13.684214242145814"><ele>90.0</ele><time>2026-04-18T07:35:30.001Z</time></trkpt><trkpt lat="42.85849950446641" lon="13.68433245777708"><ele>90.0</ele><time>2026-04-18T07:35:31.001Z</time></trkpt><trkpt lat="42.858532496978334" lon="13.6844358392888"><ele>90.0</ele><time>2026-04-18T07:35:32.001Z</time></trkpt><trkpt lat="42.85855061947637" lon="13.684566232110669"><ele>90.0</ele><time>2026-04-18T07:35:34.001Z</time></trkpt><trkpt lat="42.85857882711097" lon="13.684673198601258"><ele>91.83333333333333</ele><time>2026-04-18T07:35:36.001Z</time></trkpt><trkpt lat="42.858620428579215" lon="13.684779941814787"><ele>93.66666666666666</ele><time>2026-04-18T07:35:45.001Z</time></trkpt><trkpt lat="42.858651663183835" lon="13.68488547684246"><ele>95.5</ele><time>2026-04-18T07:35:46.001Z</time></trkpt><trkpt lat="42.85868343693427" lon="13.684991766475585"><ele>97.33333333333333</ele><time>2026-04-18T07:35:47.001Z</time></trkpt><trkpt lat="42.858695985507154" lon="13.685117476015323"><ele>99.16666666666666</ele><time>2026-04-18T07:35:48.001Z</time></trkpt><trkpt lat="42.85872719936064" lon="13.685235711892604"><ele>101.0</ele><time>2026-04-18T07:35:49.001Z</time></trkpt><trkpt lat="42.8587556197226" lon="13.685342190147889"><ele>101.16666666666666</ele><time>2026-04-18T07:35:50.001Z</time></trkpt><trkpt lat="42.85878185737664" lon="13.685440490889057"><ele>101.33333333333333</ele><time>2026-04-18T07:35:51.001Z</time></trkpt><trkpt lat="42.85882663895103" lon="13.685531058329422"><ele>101.5</ele><time>2026-04-18T07:35:52.001Z</time></trkpt><trkpt lat="42.85885621104791" lon="13.685633802824952"><ele>101.66666666666666</ele><time>2026-04-18T07:35:53.002Z</time></trkpt><trkpt lat="42.858887837782056" lon="13.685734058169329"><ele>101.83333333333333</ele><time>2026-04-18T07:35:54.002Z</time></trkpt><trkpt lat="42.85891759543842" lon="13.685833203553644"><ele>102.0</ele><time>2026-04-18T07:35:55.002Z</time></trkpt><trkpt lat="42.85894117957498" lon="13.68591637822784"><ele>102.0</ele><time>2026-04-18T07:35:56.002Z</time></trkpt><trkpt lat="42.85898225685937" lon="13.686056725292456"><ele>102.0</ele><time>2026-04-18T07:35:58.002Z</time></trkpt><trkpt lat="42.85900743892767" lon="13.686136471937173"><ele>102.0</ele><time>2026-04-18T07:36:00.002Z</time></trkpt><trkpt lat="42.85890165265933" lon="13.686186326032033"><ele>102.0</ele><time>2026-04-18T07:36:03.002Z</time></trkpt><trkpt lat="42.85879694947687" lon="13.686278915363312"><ele>102.0</ele><time>2026-04-18T07:36:05.002Z</time></trkpt><trkpt lat="42.858731610359804" lon="13.686382794848344"><ele>102.0</ele><time>2026-04-18T07:36:07.002Z</time></trkpt><trkpt lat="42.8587312912023" lon="13.686508991743285"><ele>102.0</ele><time>2026-04-18T07:36:09.002Z</time></trkpt><trkpt lat="42.85872684763601" lon="13.686605708611161"><ele>102.0</ele><time>2026-04-18T07:36:11.002Z</time></trkpt><trkpt lat="42.858723098144026" lon="13.686692407873053"><ele>102.0</ele><time>2026-04-18T07:36:14.002Z</time></trkpt><trkpt lat="42.858590811576526" lon="13.686666641105925"><ele>102.0</ele><time>2026-04-18T07:36:15.002Z</time></trkpt><trkpt lat="42.858527242310586" lon="13.686688921476527"><ele>102.0</ele><time>2026-04-18T07:36:16.002Z</time></trkpt><trkpt lat="42.85844844745521" lon="13.686716538305692"><ele>97.75</ele><time>2026-04-18T07:36:17.002Z</time></trkpt><trkpt lat="42.8583517536159" lon="13.686750500235902"><ele>93.5</ele><time>2026-04-18T07:36:18.002Z</time></trkpt><trkpt lat="42.85824558794239" lon="13.686787947612338"><ele>89.25</ele><time>2026-04-18T07:36:19.002Z</time></trkpt><trkpt lat="42.85812862093849" lon="13.6868292048506"><ele>85.0</ele><time>2026-04-18T07:36:20.002Z</time></trkpt><trkpt lat="42.85800371789883" lon="13.68687326139817"><ele>85.0</ele><time>2026-04-18T07:36:21.002Z</time></trkpt><trkpt lat="42.857899015297676" lon="13.686909791783394"><ele>85.0</ele><time>2026-04-18T07:36:22.002Z</time></trkpt><trkpt lat="42.85779409048487" lon="13.686944780091233"><ele>85.0</ele><time>2026-04-18T07:36:23.002Z</time></trkpt><trkpt lat="42.85767832669362" lon="13.686983382750316"><ele>85.0</ele><time>2026-04-18T07:36:24.002Z</time></trkpt><trkpt lat="42.857573698892516" lon="13.687018299059966"><ele>85.0</ele><time>2026-04-18T07:36:25.002Z</time></trkpt><trkpt lat="42.8574657668098" lon="13.687054324559956"><ele>83.2</ele><time>2026-04-18T07:36:26.002Z</time></trkpt><trkpt lat="42.85735673580082" lon="13.687090716879279"><ele>81.4</ele><time>2026-04-18T07:36:27.002Z</time></trkpt><trkpt lat="42.857249181782876" lon="13.687127000161237"><ele>79.6</ele><time>2026-04-18T07:36:28.002Z</time></trkpt><trkpt lat="42.85714782758958" lon="13.687161923690745"><ele>77.8</ele><time>2026-04-18T07:36:29.002Z</time></trkpt><trkpt lat="42.85703956094785" lon="13.687199818246253"><ele>76.0</ele><time>2026-04-18T07:36:30.002Z</time></trkpt><trkpt lat="42.856935089486186" lon="13.687236873687755"><ele>76.0</ele><time>2026-04-18T07:36:31.002Z</time></trkpt><trkpt lat="42.856845280709024" lon="13.687268728370944"><ele>76.0</ele><time>2026-04-18T07:36:32.002Z</time></trkpt><trkpt lat="42.8567559482847" lon="13.687299179754461"><ele>76.0</ele><time>2026-04-18T07:36:33.002Z</time></trkpt><trkpt lat="42.856669765101636" lon="13.68732829993386"><ele>76.0</ele><time>2026-04-18T07:36:34.002Z</time></trkpt><trkpt lat="42.85658073437814" lon="13.687358382268409"><ele>76.0</ele><time>2026-04-18T07:36:35.003Z</time></trkpt><trkpt lat="42.856490515668625" lon="13.687389108644803"><ele>76.0</ele><time>2026-04-18T07:36:36.003Z</time></trkpt><trkpt lat="42.85638875379411" lon="13.687426462859976"><ele>76.0</ele><time>2026-04-18T07:36:37.003Z</time></trkpt><trkpt lat="42.85628650713835" lon="13.687488876768827"><ele>76.0</ele><time>2026-04-18T07:36:38.003Z</time></trkpt><trkpt lat="42.856183575057955" lon="13.687526078328679"><ele>76.0</ele><time>2026-04-18T07:36:39.003Z</time></trkpt><trkpt lat="42.856088162960404" lon="13.687558728470094"><ele>76.0</ele><time>2026-04-18T07:36:40.003Z</time></trkpt><trkpt lat="42.85600240620055" lon="13.687565258804486"><ele>75.83333333333333</ele><time>2026-04-18T07:36:41.003Z</time></trkpt><trkpt lat="42.85592315944303" lon="13.687591674384892"><ele>75.66666666666666</ele><time>2026-04-18T07:36:42.003Z</time></trkpt><trkpt lat="42.855847295999816" lon="13.687616962187656"><ele>75.5</ele><time>2026-04-18T07:36:43.003Z</time></trkpt><trkpt lat="42.85578650509201" lon="13.687660079194984"><ele>75.33333333333333</ele><time>2026-04-18T07:36:44.003Z</time></trkpt><trkpt lat="42.85567357150942" lon="13.68767353915787"><ele>75.16666666666667</ele><time>2026-04-18T07:36:46Z</time></trkpt><trkpt lat="42.8555924281265" lon="13.687721407432248"><ele>75.0</ele><time>2026-04-18T07:36:48Z</time></trkpt><trkpt lat="42.85551270643132" lon="13.687741981738975"><ele>75.0</ele><time>2026-04-18T07:36:51Z</time></trkpt><trkpt lat="42.85551789518147" lon="13.68786013261549"><ele>75.0</ele><time>2026-04-18T07:37:10Z</time></trkpt><trkpt lat="42.85554251117957" lon="13.687947698126205"><ele>75.0</ele><time>2026-04-18T07:37:11Z</time></trkpt><trkpt lat="42.85558948441103" lon="13.688078898989474"><ele>75.0</ele><time>2026-04-18T07:37:12Z</time></trkpt><trkpt lat="42.855631252508566" lon="13.688213073184013"><ele>75.0</ele><time>2026-04-18T07:37:13Z</time></trkpt><trkpt lat="42.85568011764637" lon="13.688362809960813"><ele>75.0</ele><time>2026-04-18T07:37:14Z</time></trkpt><trkpt lat="42.855734986815264" lon="13.68854839134871"><ele>75.0</ele><time>2026-04-18T07:37:15Z</time></trkpt><trkpt lat="42.85578921469632" lon="13.688729820638008"><ele>75.0</ele><time>2026-04-18T07:37:16Z</time></trkpt><trkpt lat="42.855850002579984" lon="13.688930780845759"><ele>75.33333333333333</ele><time>2026-04-18T07:37:17Z</time></trkpt><trkpt lat="42.85591197792099" lon="13.689132236002566"><ele>75.66666666666666</ele><time>2026-04-18T07:37:18Z</time></trkpt><trkpt lat="42.8559790705529" lon="13.68934675372774"><ele>76.0</ele><time>2026-04-18T07:37:19Z</time></trkpt><trkpt lat="42.85605067693813" lon="13.689571147177478"><ele>76.33333333333333</ele><time>2026-04-18T07:37:20Z</time></trkpt><trkpt lat="42.856131296739655" lon="13.689809689238302"><ele>76.66666666666667</ele><time>2026-04-18T07:37:21Z</time></trkpt><trkpt lat="42.85620526585812" lon="13.690051596555634"><ele>77.0</ele><time>2026-04-18T07:37:22Z</time></trkpt><trkpt lat="42.85628878749664" lon="13.690298083245025"><ele>77.0</ele><time>2026-04-18T07:37:23Z</time></trkpt><trkpt lat="42.85637167790221" lon="13.690550365272944"><ele>77.0</ele><time>2026-04-18T07:37:24Z</time></trkpt><trkpt lat="42.85645605947531" lon="13.69079634256271"><ele>77.0</ele><time>2026-04-18T07:37:25Z</time></trkpt><trkpt lat="42.85653696710807" lon="13.691043886094315"><ele>77.0</ele><time>2026-04-18T07:37:26.001Z</time></trkpt><trkpt lat="42.85661746312995" lon="13.691302661495877"><ele>77.0</ele><time>2026-04-18T07:37:27.001Z</time></trkpt><trkpt lat="42.856693971846575" lon="13.69155912574135"><ele>77.0</ele><time>2026-04-18T07:37:28.001Z</time></trkpt><trkpt lat="42.85677126138721" lon="13.69180735911996"><ele>77.33333333333334</ele><time>2026-04-18T07:37:29.001Z</time></trkpt><trkpt lat="42.856853482429635" lon="13.692047636816115"><ele>77.66666666666667</ele><time>2026-04-18T07:37:30.001Z</time></trkpt><trkpt lat="42.85692481796791" lon="13.692293392358176"><ele>78.0</ele><time>2026-04-18T07:37:31.001Z</time></trkpt><trkpt lat="42.85699659042751" lon="13.692530984125115"><ele>78.66666666666667</ele><time>2026-04-18T07:37:32.001Z</time></trkpt><trkpt lat="42.85706735500789" lon="13.692756965402271"><ele>79.33333333333334</ele><time>2026-04-18T07:37:33.001Z</time></trkpt><trkpt lat="42.857135860424215" lon="13.692978083235712"><ele>80.0</ele><time>2026-04-18T07:37:34.001Z</time></trkpt><trkpt lat="42.85720239304456" lon="13.693190788906847"><ele>80.0</ele><time>2026-04-18T07:37:35.001Z</time></trkpt><trkpt lat="42.85727375751565" lon="13.693406678440182"><ele>80.0</ele><time>2026-04-18T07:37:36.001Z</time></trkpt><trkpt lat="42.85733849411181" lon="13.693617783285918"><ele>80.0</ele><time>2026-04-18T07:37:37.001Z</time></trkpt><trkpt lat="42.857402649679145" lon="13.693820263989133"><ele>80.33333333333334</ele><time>2026-04-18T07:37:38.001Z</time></trkpt><trkpt lat="42.857467212847894" lon="13.69402376462073"><ele>80.66666666666667</ele><time>2026-04-18T07:37:39.001Z</time></trkpt><trkpt lat="42.85752767313414" lon="13.69421338862255"><ele>81.0</ele><time>2026-04-18T07:37:40.001Z</time></trkpt><trkpt lat="42.857585959669535" lon="13.69440598945854"><ele>80.0</ele><time>2026-04-18T07:37:41.001Z</time></trkpt><trkpt lat="42.85764509006937" lon="13.694599089534918"><ele>79.0</ele><time>2026-04-18T07:37:42.001Z</time></trkpt><trkpt lat="42.85770790134545" lon="13.694802200679735"><ele>78.0</ele><time>2026-04-18T07:37:43.001Z</time></trkpt><trkpt lat="42.85778035485898" lon="13.69501289567752"><ele>78.0</ele><time>2026-04-18T07:37:44.001Z</time></trkpt><trkpt lat="42.857855150037814" lon="13.695226198650454"><ele>78.0</ele><time>2026-04-18T07:37:45.001Z</time></trkpt><trkpt lat="42.85792726824899" lon="13.695452016374295"><ele>78.0</ele><time>2026-04-18T07:37:46.001Z</time></trkpt><trkpt lat="42.85799971652235" lon="13.695668644720778"><ele>76.0</ele><time>2026-04-18T07:37:47.001Z</time></trkpt><trkpt lat="42.85806876536495" lon="13.695876645412797"><ele>74.0</ele><time>2026-04-18T07:37:48.001Z</time></trkpt><trkpt lat="42.858135888900364" lon="13.696080956688176"><ele>72.0</ele><time>2026-04-18T07:37:49.001Z</time></trkpt><trkpt lat="42.858202091230154" lon="13.69629185158506"><ele>70.66666666666667</ele><time>2026-04-18T07:37:50.001Z</time></trkpt><trkpt lat="42.85827236008442" lon="13.69650861436373"><ele>69.33333333333334</ele><time>2026-04-18T07:37:51.001Z</time></trkpt><trkpt lat="42.85833737656295" lon="13.696736873521495"><ele>68.0</ele><time>2026-04-18T07:37:52.001Z</time></trkpt><trkpt lat="42.858398790921335" lon="13.696962485236316"><ele>68.0</ele><time>2026-04-18T07:37:53.001Z</time></trkpt><trkpt lat="42.85845916462497" lon="13.697183969704374"><ele>68.0</ele><time>2026-04-18T07:37:54.001Z</time></trkpt><trkpt lat="42.858512788824356" lon="13.697391251071215"><ele>68.0</ele><time>2026-04-18T07:37:55.001Z</time></trkpt><trkpt lat="42.858570022879874" lon="13.697599377899374"><ele>67.33333333333334</ele><time>2026-04-18T07:37:56.001Z</time></trkpt><trkpt lat="42.858631006191786" lon="13.697802180477433"><ele>66.66666666666667</ele><time>2026-04-18T07:37:57.001Z</time></trkpt><trkpt lat="42.858673452947265" lon="13.69800644545374"><ele>66.0</ele><time>2026-04-18T07:37:58.001Z</time></trkpt><trkpt lat="42.85872100703083" lon="13.698193862301421"><ele>66.0</ele><time>2026-04-18T07:37:59.001Z</time></trkpt><trkpt lat="42.85876830244779" lon="13.69838198293227"><ele>66.0</ele><time>2026-04-18T07:38:00.001Z</time></trkpt><trkpt lat="42.85882256024742" lon="13.698553830838458"><ele>66.0</ele><time>2026-04-18T07:38:01.001Z</time></trkpt><trkpt lat="42.858858070511694" lon="13.698716845236438"><ele>66.0</ele><time>2026-04-18T07:38:02.001Z</time></trkpt><trkpt lat="42.858874952475006" lon="13.698882246488958"><ele>66.5</ele><time>2026-04-18T07:38:03.001Z</time></trkpt><trkpt lat="42.858853100099566" lon="13.69906521514865"><ele>67.0</ele><time>2026-04-18T07:38:04.001Z</time></trkpt><trkpt lat="42.85883104798003" lon="13.699247103598065"><ele>67.5</ele><time>2026-04-18T07:38:05.002Z</time></trkpt><trkpt lat="42.85879897414556" lon="13.699461336193123"><ele>68.0</ele><time>2026-04-18T07:38:06.002Z</time></trkpt><trkpt lat="42.858763743931874" lon="13.69969842866675"><ele>69.0</ele><time>2026-04-18T07:38:07.002Z</time></trkpt><trkpt lat="42.858726806778805" lon="13.699938041620385"><ele>70.0</ele><time>2026-04-18T07:38:08.002Z</time></trkpt><trkpt lat="42.85869270650437" lon="13.700167522605781"><ele>71.0</ele><time>2026-04-18T07:38:09.002Z</time></trkpt><trkpt lat="42.85865435983692" lon="13.70040633326705"><ele>72.25</ele><time>2026-04-18T07:38:10.002Z</time></trkpt><trkpt lat="42.85862050359243" lon="13.700621903889827"><ele>73.5</ele><time>2026-04-18T07:38:11.002Z</time></trkpt><trkpt lat="42.85860555759728" lon="13.700824786811028"><ele>74.75</ele><time>2026-04-18T07:38:12.002Z</time></trkpt><trkpt lat="42.85857610454818" lon="13.701000114760037"><ele>76.0</ele><time>2026-04-18T07:38:13.002Z</time></trkpt><trkpt lat="42.85855493390349" lon="13.70114692299525"><ele>77.0</ele><time>2026-04-18T07:38:14.002Z</time></trkpt><trkpt lat="42.85854359297437" lon="13.701286777779133"><ele>78.0</ele><time>2026-04-18T07:38:15.002Z</time></trkpt><trkpt lat="42.85854703151985" lon="13.701431093325448"><ele>79.0</ele><time>2026-04-18T07:38:16.002Z</time></trkpt><trkpt lat="42.858570579805416" lon="13.701585184065612"><ele>80.0</ele><time>2026-04-18T07:38:17.002Z</time></trkpt><trkpt lat="42.858595974730896" lon="13.701756825958867"><ele>79.25</ele><time>2026-04-18T07:38:18.002Z</time></trkpt><trkpt lat="42.858628870501896" lon="13.701945360296193"><ele>78.5</ele><time>2026-04-18T07:38:19.002Z</time></trkpt><trkpt lat="42.85866868489079" lon="13.702129424909266"><ele>77.75</ele><time>2026-04-18T07:38:20.002Z</time></trkpt><trkpt lat="42.85870226073553" lon="13.702323994016313"><ele>77.0</ele><time>2026-04-18T07:38:21.002Z</time></trkpt><trkpt lat="42.85873074173658" lon="13.702535180151802"><ele>77.0</ele><time>2026-04-18T07:38:22.002Z</time></trkpt><trkpt lat="42.858751910931005" lon="13.702741742866802"><ele>77.0</ele><time>2026-04-18T07:38:23.002Z</time></trkpt><trkpt lat="42.85876780118725" lon="13.702951338166619"><ele>77.0</ele><time>2026-04-18T07:38:24.002Z</time></trkpt><trkpt lat="42.858785266379755" lon="13.70315619364136"><ele>77.0</ele><time>2026-04-18T07:38:25.002Z</time></trkpt><trkpt lat="42.85879949324115" lon="13.703356034706754"><ele>77.0</ele><time>2026-04-18T07:38:26.002Z</time></trkpt><trkpt lat="42.85879280930563" lon="13.70355866199932"><ele>77.0</ele><time>2026-04-18T07:38:27.002Z</time></trkpt><trkpt lat="42.85880039487183" lon="13.7037655314793"><ele>77.0</ele><time>2026-04-18T07:38:28.002Z</time></trkpt><trkpt lat="42.85880731262736" lon="13.703980297902463"><ele>76.66666666666667</ele><time>2026-04-18T07:38:29.002Z</time></trkpt><trkpt lat="42.85881396076507" lon="13.704186693961798"><ele>76.33333333333333</ele><time>2026-04-18T07:38:30.002Z</time></trkpt><trkpt lat="42.858820274403186" lon="13.704390926996352"><ele>76.0</ele><time>2026-04-18T07:38:31.002Z</time></trkpt><trkpt lat="42.858842104195325" lon="13.704594147703565"><ele>75.5</ele><time>2026-04-18T07:38:32.002Z</time></trkpt><trkpt lat="42.85884506255922" lon="13.704790492024324"><ele>75.0</ele><time>2026-04-18T07:38:33.002Z</time></trkpt><trkpt lat="42.858848762830945" lon="13.704994013810243"><ele>74.5</ele><time>2026-04-18T07:38:34.002Z</time></trkpt><trkpt lat="42.85883444701919" lon="13.705197009736938"><ele>74.0</ele><time>2026-04-18T07:38:35.002Z</time></trkpt><trkpt lat="42.85885139071568" lon="13.70540071559098"><ele>73.66666666666667</ele><time>2026-04-18T07:38:36.002Z</time></trkpt><trkpt lat="42.858851850667435" lon="13.705602000128373"><ele>73.33333333333333</ele><time>2026-04-18T07:38:37.002Z</time></trkpt><trkpt lat="42.85885267207377" lon="13.705806677068788"><ele>73.0</ele><time>2026-04-18T07:38:38.002Z</time></trkpt><trkpt lat="42.8588632614464" lon="13.706013743289507"><ele>73.33333333333333</ele><time>2026-04-18T07:38:39.002Z</time></trkpt><trkpt lat="42.85888881502224" lon="13.70621299354445"><ele>73.66666666666667</ele><time>2026-04-18T07:38:40.002Z</time></trkpt><trkpt lat="42.85892958026379" lon="13.706416560396617"><ele>74.0</ele><time>2026-04-18T07:38:41.002Z</time></trkpt><trkpt lat="42.85895974698996" lon="13.706635708086662"><ele>74.0</ele><time>2026-04-18T07:38:42.002Z</time></trkpt><trkpt lat="42.85898845783457" lon="13.706855949563892"><ele>74.0</ele><time>2026-04-18T07:38:43.002Z</time></trkpt><trkpt lat="42.85902251350715" lon="13.707066679967847"><ele>74.0</ele><time>2026-04-18T07:38:44.003Z</time></trkpt><trkpt lat="42.85905469542864" lon="13.707271001347037"><ele>72.66666666666667</ele><time>2026-04-18T07:38:45.003Z</time></trkpt><trkpt lat="42.859086260718364" lon="13.707479565941474"><ele>71.33333333333333</ele><time>2026-04-18T07:38:46.003Z</time></trkpt><trkpt lat="42.85911614762101" lon="13.707687190919934"><ele>70.0</ele><time>2026-04-18T07:38:47.003Z</time></trkpt><trkpt lat="42.85914046888346" lon="13.707894947864759"><ele>70.0</ele><time>2026-04-18T07:38:48.003Z</time></trkpt><trkpt lat="42.859169888835396" lon="13.708107699662708"><ele>70.0</ele><time>2026-04-18T07:38:49.003Z</time></trkpt><trkpt lat="42.859200736343425" lon="13.708320019989738"><ele>70.0</ele><time>2026-04-18T07:38:50.003Z</time></trkpt><trkpt lat="42.85922655795268" lon="13.708516803672211"><ele>69.75</ele><time>2026-04-18T07:38:51.003Z</time></trkpt><trkpt lat="42.859253199282605" lon="13.708708547682674"><ele>69.5</ele><time>2026-04-18T07:38:51.999Z</time></trkpt><trkpt lat="42.85928542808111" lon="13.708882027412358"><ele>69.25</ele><time>2026-04-18T07:38:52.999Z</time></trkpt><trkpt lat="42.85933700193245" lon="13.709050622544455"><ele>69.0</ele><time>2026-04-18T07:38:53.999Z</time></trkpt><trkpt lat="42.85939217930587" lon="13.709218434479515"><ele>69.5</ele><time>2026-04-18T07:38:54.999Z</time></trkpt><trkpt lat="42.85945444145095" lon="13.709385887786928"><ele>70.0</ele><time>2026-04-18T07:38:55.999Z</time></trkpt><trkpt lat="42.8595267743124" lon="13.709554607797788"><ele>70.5</ele><time>2026-04-18T07:38:56.999Z</time></trkpt><trkpt lat="42.85960158986514" lon="13.709728674146964"><ele>71.0</ele><time>2026-04-18T07:38:57.999Z</time></trkpt><trkpt lat="42.85967599830282" lon="13.709906421102104"><ele>71.0</ele><time>2026-04-18T07:38:58.999Z</time></trkpt><trkpt lat="42.85974850039452" lon="13.710087901056921"><ele>71.0</ele><time>2026-04-18T07:38:59.999Z</time></trkpt><trkpt lat="42.85981801913056" lon="13.71026421442025"><ele>71.0</ele><time>2026-04-18T07:39:00.999Z</time></trkpt><trkpt lat="42.85988123389943" lon="13.710431290709986"><ele>71.0</ele><time>2026-04-18T07:39:01.999Z</time></trkpt><trkpt lat="42.85993496082178" lon="13.710586204679249"><ele>70.8</ele><time>2026-04-18T07:39:02.999Z</time></trkpt><trkpt lat="42.85997079769166" lon="13.710714707564428"><ele>70.6</ele><time>2026-04-18T07:39:03.999Z</time></trkpt><trkpt lat="42.86000441185512" lon="13.710842519696678"><ele>70.4</ele><time>2026-04-18T07:39:04.999Z</time></trkpt><trkpt lat="42.8600374512519" lon="13.710963850035986"><ele>70.2</ele><time>2026-04-18T07:39:06Z</time></trkpt><trkpt lat="42.86007143185486" lon="13.711089258188474"><ele>70.0</ele><time>2026-04-18T07:39:07Z</time></trkpt><trkpt lat="42.86010156257019" lon="13.71118701705895"><ele>70.83333333333333</ele><time>2026-04-18T07:39:08Z</time></trkpt><trkpt lat="42.86011701718558" lon="13.711293865392499"><ele>71.66666666666666</ele><time>2026-04-18T07:39:10Z</time></trkpt><trkpt lat="42.860242338740534" lon="13.711235411238262"><ele>72.5</ele><time>2026-04-18T07:39:11Z</time></trkpt><trkpt lat="42.860303921498456" lon="13.711197825587366"><ele>73.33333333333333</ele><time>2026-04-18T07:39:12Z</time></trkpt><trkpt lat="42.86038261512338" lon="13.711171103800316"><ele>74.16666666666667</ele><time>2026-04-18T07:39:13Z</time></trkpt><trkpt lat="42.860464722350166" lon="13.71114925217179"><ele>75.0</ele><time>2026-04-18T07:39:14Z</time></trkpt><trkpt lat="42.86054055864359" lon="13.711064298685836"><ele>75.0</ele><time>2026-04-18T07:39:15Z</time></trkpt><trkpt lat="42.86063772434209" lon="13.71103627644692"><ele>75.0</ele><time>2026-04-18T07:39:16Z</time></trkpt><trkpt lat="42.86072932103609" lon="13.711009309642378"><ele>75.0</ele><time>2026-04-18T07:39:17Z</time></trkpt><trkpt lat="42.860826006485674" lon="13.710980393416301"><ele>75.0</ele><time>2026-04-18T07:39:18Z</time></trkpt><trkpt lat="42.86093616262096" lon="13.710959932035136"><ele>75.0</ele><time>2026-04-18T07:39:19Z</time></trkpt><trkpt lat="42.86103650524913" lon="13.710922412299558"><ele>75.4</ele><time>2026-04-18T07:39:20Z</time></trkpt><trkpt lat="42.861151287299066" lon="13.71088910001134"><ele>75.8</ele><time>2026-04-18T07:39:21Z</time></trkpt><trkpt lat="42.86126600741663" lon="13.710853380083902"><ele>76.2</ele><time>2026-04-18T07:39:22Z</time></trkpt><trkpt lat="42.86136821979807" lon="13.710819455059438"><ele>76.6</ele><time>2026-04-18T07:39:23Z</time></trkpt><trkpt lat="42.86147346079282" lon="13.710781940703109"><ele>77.0</ele><time>2026-04-18T07:39:24Z</time></trkpt><trkpt lat="42.86156353592652" lon="13.710751931260164"><ele>77.0</ele><time>2026-04-18T07:39:25Z</time></trkpt><trkpt lat="42.86163039072774" lon="13.710726393688093"><ele>77.0</ele><time>2026-04-18T07:39:26Z</time></trkpt><trkpt lat="42.861696186302225" lon="13.710706192767164"><ele>77.0</ele><time>2026-04-18T07:39:27Z</time></trkpt><trkpt lat="42.86176703305972" lon="13.710700589847336"><ele>77.0</ele><time>2026-04-18T07:39:28Z</time></trkpt><trkpt lat="42.861849256839086" lon="13.71072249845382"><ele>77.0</ele><time>2026-04-18T07:39:29Z</time></trkpt><trkpt lat="42.86193011033241" lon="13.710783736296927"><ele>77.0</ele><time>2026-04-18T07:39:30Z</time></trkpt><trkpt lat="42.861993863292135" lon="13.710909003818522"><ele>77.25</ele><time>2026-04-18T07:39:31Z</time></trkpt><trkpt lat="42.862083416955706" lon="13.710999639504598"><ele>77.5</ele><time>2026-04-18T07:39:32Z</time></trkpt><trkpt lat="42.86218550493384" lon="13.711059260661495"><ele>77.75</ele><time>2026-04-18T07:39:33Z</time></trkpt><trkpt lat="42.86229053431651" lon="13.71113136723872"><ele>78.0</ele><time>2026-04-18T07:39:34Z</time></trkpt><trkpt lat="42.86240955627668" lon="13.71117266551471"><ele>78.0</ele><time>2026-04-18T07:39:35Z</time></trkpt><trkpt lat="42.86252750705329" lon="13.711200448496534"><ele>78.0</ele><time>2026-04-18T07:39:36Z</time></trkpt><trkpt lat="42.86265694095805" lon="13.711225675614024"><ele>78.0</ele><time>2026-04-18T07:39:37.001Z</time></trkpt><trkpt lat="42.86279386248871" lon="13.711241902169135"><ele>78.0</ele><time>2026-04-18T07:39:38.001Z</time></trkpt><trkpt lat="42.86292548476637" lon="13.711266119917674"><ele>79.0</ele><time>2026-04-18T07:39:39.001Z</time></trkpt><trkpt lat="42.86304376204482" lon="13.711314243253922"><ele>80.0</ele><time>2026-04-18T07:39:40.001Z</time></trkpt><trkpt lat="42.86317084039983" lon="13.711379831941937"><ele>81.0</ele><time>2026-04-18T07:39:41.001Z</time></trkpt><trkpt lat="42.863306746895866" lon="13.711458994304673"><ele>82.0</ele><time>2026-04-18T07:39:42.001Z</time></trkpt><trkpt lat="42.86344422470669" lon="13.711543613175568"><ele>86.75</ele><time>2026-04-18T07:39:43.001Z</time></trkpt><trkpt lat="42.863560115928514" lon="13.711618733500414"><ele>91.5</ele><time>2026-04-18T07:39:44.001Z</time></trkpt><trkpt lat="42.86367290572245" lon="13.711688592714081"><ele>96.25</ele><time>2026-04-18T07:39:45.001Z</time></trkpt><trkpt lat="42.86378114629463" lon="13.71174816305603"><ele>101.0</ele><time>2026-04-18T07:39:46.001Z</time></trkpt><trkpt lat="42.86388591217578" lon="13.711825432876486"><ele>102.6</ele><time>2026-04-18T07:39:47.001Z</time></trkpt><trkpt lat="42.863940264783984" lon="13.711947215294686"><ele>104.19999999999999</ele><time>2026-04-18T07:39:48.001Z</time></trkpt><trkpt lat="42.86398459894245" lon="13.712058228054445"><ele>105.80000000000001</ele><time>2026-04-18T07:39:49.001Z</time></trkpt><trkpt lat="42.864005277183665" lon="13.712172777842426"><ele>107.4</ele><time>2026-04-18T07:39:50.001Z</time></trkpt><trkpt lat="42.86399842429299" lon="13.712296878109525"><ele>109.0</ele><time>2026-04-18T07:39:51.001Z</time></trkpt><trkpt lat="42.8640055884873" lon="13.712464609788649"><ele>109.0</ele><time>2026-04-18T07:39:52.001Z</time></trkpt><trkpt lat="42.86401780157442" lon="13.712658549960938"><ele>109.0</ele><time>2026-04-18T07:39:53.001Z</time></trkpt><trkpt lat="42.8640469747878" lon="13.712864636042134"><ele>109.0</ele><time>2026-04-18T07:39:54.001Z</time></trkpt><trkpt lat="42.86410698867822" lon="13.713048396137921"><ele>109.0</ele><time>2026-04-18T07:39:55.001Z</time></trkpt><trkpt lat="42.864187237195374" lon="13.713205106241999"><ele>108.5</ele><time>2026-04-18T07:39:56.001Z</time></trkpt><trkpt lat="42.86425767480202" lon="13.713342303452386"><ele>108.0</ele><time>2026-04-18T07:39:57.001Z</time></trkpt><trkpt lat="42.86434743030247" lon="13.713440333642769"><ele>107.5</ele><time>2026-04-18T07:39:58.001Z</time></trkpt><trkpt lat="42.86445661273334" lon="13.713476306965392"><ele>107.0</ele><time>2026-04-18T07:39:59.001Z</time></trkpt><trkpt lat="42.864556705354325" lon="13.713487557486937"><ele>108.66666666666666</ele><time>2026-04-18T07:40:00.001Z</time></trkpt><trkpt lat="42.86465568127054" lon="13.71366967280273"><ele>110.33333333333334</ele><time>2026-04-18T07:40:01.001Z</time></trkpt><trkpt lat="42.864793689484856" lon="13.713540691087374"><ele>112.0</ele><time>2026-04-18T07:40:02.001Z</time></trkpt><trkpt lat="42.8649223770503" lon="13.71349388809663"><ele>114.0</ele><time>2026-04-18T07:40:03.001Z</time></trkpt><trkpt lat="42.86505584257853" lon="13.71346803639914"><ele>116.0</ele><time>2026-04-18T07:40:04.001Z</time></trkpt><trkpt lat="42.865178207196394" lon="13.713478877440341"><ele>118.0</ele><time>2026-04-18T07:40:05.001Z</time></trkpt><trkpt lat="42.865248952594875" lon="13.713607212345343"><ele>120.0</ele><time>2026-04-18T07:40:06.001Z</time></trkpt><trkpt lat="42.865325710718544" lon="13.713733378004719"><ele>122.25</ele><time>2026-04-18T07:40:07.001Z</time></trkpt><trkpt lat="42.86539496624244" lon="13.71386574481424"><ele>124.5</ele><time>2026-04-18T07:40:08.001Z</time></trkpt><trkpt lat="42.86546887453363" lon="13.714015411169866"><ele>126.75</ele><time>2026-04-18T07:40:09.001Z</time></trkpt><trkpt lat="42.86555151490777" lon="13.714171950130533"><ele>129.0</ele><time>2026-04-18T07:40:10.001Z</time></trkpt><trkpt lat="42.86564184501115" lon="13.71432334706982"><ele>129.75</ele><time>2026-04-18T07:40:11.001Z</time></trkpt><trkpt lat="42.865744656730726" lon="13.714442131961437"><ele>130.5</ele><time>2026-04-18T07:40:12.001Z</time></trkpt><trkpt lat="42.865828422483396" lon="13.714576866400453"><ele>131.25</ele><time>2026-04-18T07:40:13.001Z</time></trkpt><trkpt lat="42.86593804569174" lon="13.71463616081476"><ele>132.0</ele><time>2026-04-18T07:40:14.002Z</time></trkpt><trkpt lat="42.866038375872996" lon="13.714671771258105"><ele>133.2</ele><time>2026-04-18T07:40:15.002Z</time></trkpt><trkpt lat="42.86612035953795" lon="13.714665416502298"><ele>134.39999999999998</ele><time>2026-04-18T07:40:16.002Z</time></trkpt><trkpt lat="42.86620875462529" lon="13.714661577498777"><ele>135.60000000000002</ele><time>2026-04-18T07:40:17.002Z</time></trkpt><trkpt lat="42.86631173956515" lon="13.714650054456708"><ele>136.8</ele><time>2026-04-18T07:40:18.002Z</time></trkpt><trkpt lat="42.866411829381484" lon="13.71463715953702"><ele>138.0</ele><time>2026-04-18T07:40:19.002Z</time></trkpt><trkpt lat="42.86650875561386" lon="13.714623736410504"><ele>138.0</ele><time>2026-04-18T07:40:20.002Z</time></trkpt><trkpt lat="42.86662035412643" lon="13.71468848540313"><ele>138.0</ele><time>2026-04-18T07:40:21.002Z</time></trkpt><trkpt lat="42.866727366042056" lon="13.714648436941847"><ele>138.0</ele><time>2026-04-18T07:40:22.002Z</time></trkpt><trkpt lat="42.866813667332394" lon="13.714623015834816"><ele>138.0</ele><time>2026-04-18T07:40:23.002Z</time></trkpt><trkpt lat="42.866880569497205" lon="13.714615446194498"><ele>138.0</ele><time>2026-04-18T07:40:24.002Z</time></trkpt><trkpt lat="42.866959029933994" lon="13.714670521551694"><ele>138.0</ele><time>2026-04-18T07:40:26.002Z</time></trkpt><trkpt lat="42.866897907940995" lon="13.714777891224685"><ele>138.0</ele><time>2026-04-18T07:40:28.002Z</time></trkpt><trkpt lat="42.86687153594733" lon="13.714870877688114"><ele>138.0</ele><time>2026-04-18T07:40:29.002Z</time></trkpt><trkpt lat="42.866845119040256" lon="13.714959779031405"><ele>138.0</ele><time>2026-04-18T07:40:30.002Z</time></trkpt><trkpt lat="42.866811773265646" lon="13.715071998195858"><ele>138.0</ele><time>2026-04-18T07:40:31.002Z</time></trkpt><trkpt lat="42.86677315473401" lon="13.71520523368"><ele>138.0</ele><time>2026-04-18T07:40:32.002Z</time></trkpt><trkpt lat="42.86673344363801" lon="13.715343917030765"><ele>137.83333333333334</ele><time>2026-04-18T07:40:33.002Z</time></trkpt><trkpt lat="42.86669950449095" lon="13.715462443873799"><ele>137.66666666666666</ele><time>2026-04-18T07:40:34.002Z</time></trkpt><trkpt lat="42.8666613131927" lon="13.715582827260771"><ele>137.5</ele><time>2026-04-18T07:40:35.002Z</time></trkpt><trkpt lat="42.86663089309697" lon="13.715684284472028"><ele>137.33333333333331</ele><time>2026-04-18T07:40:36.002Z</time></trkpt><trkpt lat="42.866604449864596" lon="13.715775267125668"><ele>137.16666666666666</ele><time>2026-04-18T07:40:37.002Z</time></trkpt><trkpt lat="42.866582436217286" lon="13.715890729595229"><ele>137.0</ele><time>2026-04-18T07:40:39.002Z</time></trkpt><trkpt lat="42.86663897958216" lon="13.7159521659568"><ele>137.0</ele><time>2026-04-18T07:40:50.002Z</time></trkpt><trkpt lat="42.86675995134313" lon="13.715995354801105"><ele>137.0</ele><time>2026-04-18T07:40:52.003Z</time></trkpt><trkpt lat="42.86684898008153" lon="13.716031532213202"><ele>137.0</ele><time>2026-04-18T07:40:53.003Z</time></trkpt><trkpt lat="42.86692887047872" lon="13.716070446083107"><ele>137.0</ele><time>2026-04-18T07:40:54.003Z</time></trkpt><trkpt lat="42.867028964150485" lon="13.716117294286956"><ele>137.0</ele><time>2026-04-18T07:40:55.003Z</time></trkpt><trkpt lat="42.86713505050746" lon="13.716183642873931"><ele>138.25</ele><time>2026-04-18T07:40:56.003Z</time></trkpt><trkpt lat="42.867241884051495" lon="13.716229134773572"><ele>139.5</ele><time>2026-04-18T07:40:57.003Z</time></trkpt><trkpt lat="42.8673598845004" lon="13.716283165995081"><ele>140.75</ele><time>2026-04-18T07:40:57.999Z</time></trkpt><trkpt lat="42.86747498069066" lon="13.71636269557598"><ele>142.0</ele><time>2026-04-18T07:40:58.999Z</time></trkpt><trkpt lat="42.86760169072332" lon="13.716404140304892"><ele>144.0</ele><time>2026-04-18T07:40:59.999Z</time></trkpt><trkpt lat="42.867710879732506" lon="13.716465087415628"><ele>146.0</ele><time>2026-04-18T07:41:00.999Z</time></trkpt><trkpt lat="42.86782393464623" lon="13.716538521411312"><ele>148.0</ele><time>2026-04-18T07:41:01.999Z</time></trkpt><trkpt lat="42.86794720715827" lon="13.716600613188294"><ele>150.0</ele><time>2026-04-18T07:41:02.999Z</time></trkpt><trkpt lat="42.86807345261708" lon="13.71666479114752"><ele>150.0</ele><time>2026-04-18T07:41:03.999Z</time></trkpt><trkpt lat="42.868198787893355" lon="13.716704689704828"><ele>150.0</ele><time>2026-04-18T07:41:04.999Z</time></trkpt><trkpt lat="42.868315879136375" lon="13.7167880308225"><ele>150.0</ele><time>2026-04-18T07:41:05.999Z</time></trkpt><trkpt lat="42.86844552392375" lon="13.716825157421955"><ele>150.0</ele><time>2026-04-18T07:41:06.999Z</time></trkpt><trkpt lat="42.868571465819365" lon="13.71688016830443"><ele>150.5</ele><time>2026-04-18T07:41:07.999Z</time></trkpt><trkpt lat="42.8687083300102" lon="13.716945510943807"><ele>151.0</ele><time>2026-04-18T07:41:08.999Z</time></trkpt><trkpt lat="42.86884415938032" lon="13.717012835110468"><ele>151.5</ele><time>2026-04-18T07:41:09.999Z</time></trkpt><trkpt lat="42.86898109225486" lon="13.717082037800004"><ele>152.0</ele><time>2026-04-18T07:41:10.999Z</time></trkpt><trkpt lat="42.86911520164432" lon="13.71714995634462"><ele>152.0</ele><time>2026-04-18T07:41:11.999Z</time></trkpt><trkpt lat="42.8692280099248" lon="13.717238900822165"><ele>152.0</ele><time>2026-04-18T07:41:12.999Z</time></trkpt><trkpt lat="42.869346254610235" lon="13.7172950964314"><ele>152.0</ele><time>2026-04-18T07:41:14Z</time></trkpt><trkpt lat="42.86944568460965" lon="13.717339700360458"><ele>152.0</ele><time>2026-04-18T07:41:15Z</time></trkpt><trkpt lat="42.869535058178094" lon="13.717348764595737"><ele>153.2</ele><time>2026-04-18T07:41:16Z</time></trkpt><trkpt lat="42.86960077031729" lon="13.717383148799037"><ele>154.39999999999998</ele><time>2026-04-18T07:41:17Z</time></trkpt><trkpt lat="42.86971311407481" lon="13.717350103105572"><ele>155.60000000000002</ele><time>2026-04-18T07:41:19Z</time></trkpt><trkpt lat="42.86975848765732" lon="13.717283266441967"><ele>156.8</ele><time>2026-04-18T07:41:20Z</time></trkpt><trkpt lat="42.86983474433126" lon="13.717138341753571"><ele>158.0</ele><time>2026-04-18T07:41:22Z</time></trkpt><trkpt lat="42.869863839530694" lon="13.717037878262344"><ele>158.0</ele><time>2026-04-18T07:41:23Z</time></trkpt><trkpt lat="42.869895823819384" lon="13.716948779274865"><ele>158.0</ele><time>2026-04-18T07:41:24Z</time></trkpt><trkpt lat="42.869926899969144" lon="13.716855880039773"><ele>158.0</ele><time>2026-04-18T07:41:25Z</time></trkpt><trkpt lat="42.86995316021779" lon="13.71677406083004"><ele>158.0</ele><time>2026-04-18T07:41:26Z</time></trkpt><trkpt lat="42.86998422104634" lon="13.716697089043981"><ele>158.0</ele><time>2026-04-18T07:41:27Z</time></trkpt><trkpt lat="42.8700273278025" lon="13.716543467403543"><ele>158.0</ele><time>2026-04-18T07:41:29Z</time></trkpt><trkpt lat="42.87005239584236" lon="13.71641452701707"><ele>158.60000000000002</ele><time>2026-04-18T07:41:31Z</time></trkpt><trkpt lat="42.87008397954346" lon="13.716327365083556"><ele>159.20000000000002</ele><time>2026-04-18T07:41:33Z</time></trkpt><trkpt lat="42.87012275827907" lon="13.716148422062677"><ele>159.8</ele><time>2026-04-18T07:42:48.002Z</time></trkpt><trkpt lat="42.87015617535604" lon="13.716024327676267"><ele>160.4</ele><time>2026-04-18T07:42:49.003Z</time></trkpt><trkpt lat="42.8702308351602" lon="13.715954628462924"><ele>161.0</ele><time>2026-04-18T07:42:50.003Z</time></trkpt><trkpt lat="42.870282239102636" lon="13.715814005667061"><ele>162.8</ele><time>2026-04-18T07:42:51.003Z</time></trkpt><trkpt lat="42.87032770155496" lon="13.715688231340385"><ele>164.60000000000002</ele><time>2026-04-18T07:42:52.003Z</time></trkpt><trkpt lat="42.87037036394991" lon="13.71557020370849"><ele>166.4</ele><time>2026-04-18T07:42:53.003Z</time></trkpt><trkpt lat="42.87040787984242" lon="13.71546641611114"><ele>168.2</ele><time>2026-04-18T07:42:54.003Z</time></trkpt><trkpt lat="42.87043260579213" lon="13.715349869720988"><ele>170.0</ele><time>2026-04-18T07:42:55.003Z</time></trkpt><trkpt lat="42.870476333144296" lon="13.715223885465361"><ele>171.2</ele><time>2026-04-18T07:42:56.003Z</time></trkpt><trkpt lat="42.87053451595387" lon="13.715112591271065"><ele>172.4</ele><time>2026-04-18T07:42:57.003Z</time></trkpt><trkpt lat="42.87057793334723" lon="13.714990800759342"><ele>173.60000000000002</ele><time>2026-04-18T07:42:58.003Z</time></trkpt><trkpt lat="42.87061438371153" lon="13.714888132829977"><ele>174.8</ele><time>2026-04-18T07:42:59.003Z</time></trkpt><trkpt lat="42.87065791300013" lon="13.714765526092467"><ele>176.0</ele><time>2026-04-18T07:43:00.003Z</time></trkpt><trkpt lat="42.87069265147011" lon="13.714623427397195"><ele>176.0</ele><time>2026-04-18T07:43:01.003Z</time></trkpt><trkpt lat="42.87074026148462" lon="13.714496399264153"><ele>176.0</ele><time>2026-04-18T07:43:02.003Z</time></trkpt><trkpt lat="42.87078303687651" lon="13.714374875634228"><ele>176.0</ele><time>2026-04-18T07:43:03.003Z</time></trkpt><trkpt lat="42.87082712826594" lon="13.714254110433151"><ele>176.0</ele><time>2026-04-18T07:43:04.001Z</time></trkpt><trkpt lat="42.87087358204211" lon="13.714128176652078"><ele>176.0</ele><time>2026-04-18T07:43:05.001Z</time></trkpt><trkpt lat="42.87092790913396" lon="13.713993527154384"><ele>176.5</ele><time>2026-04-18T07:43:06.001Z</time></trkpt><trkpt lat="42.87097598753487" lon="13.713852238317292"><ele>177.0</ele><time>2026-04-18T07:43:07.001Z</time></trkpt><trkpt lat="42.87102440148339" lon="13.713712894555647"><ele>177.5</ele><time>2026-04-18T07:43:08.001Z</time></trkpt><trkpt lat="42.87107543913741" lon="13.71357155491993"><ele>178.0</ele><time>2026-04-18T07:43:09.001Z</time></trkpt><trkpt lat="42.871123900975924" lon="13.713433051693332"><ele>178.5</ele><time>2026-04-18T07:43:10.001Z</time></trkpt><trkpt lat="42.871169651809105" lon="13.713292796348354"><ele>179.0</ele><time>2026-04-18T07:43:11.001Z</time></trkpt><trkpt lat="42.87122250927653" lon="13.713153681510017"><ele>179.5</ele><time>2026-04-18T07:43:12.001Z</time></trkpt><trkpt lat="42.871271120321715" lon="13.712995743269746"><ele>180.0</ele><time>2026-04-18T07:43:13.001Z</time></trkpt><trkpt lat="42.87131669946845" lon="13.712847029960306"><ele>179.5</ele><time>2026-04-18T07:43:14.001Z</time></trkpt><trkpt lat="42.87135827765167" lon="13.712697339381073"><ele>179.0</ele><time>2026-04-18T07:43:15.001Z</time></trkpt><trkpt lat="42.87140843288252" lon="13.7125473344051"><ele>178.5</ele><time>2026-04-18T07:43:16.001Z</time></trkpt><trkpt lat="42.87144697505276" lon="13.712399781500034"><ele>178.0</ele><time>2026-04-18T07:43:17.001Z</time></trkpt><trkpt lat="42.871490288406996" lon="13.712251130244816"><ele>178.0</ele><time>2026-04-18T07:43:18.001Z</time></trkpt><trkpt lat="42.87153599726316" lon="13.712099178703026"><ele>178.0</ele><time>2026-04-18T07:43:19.001Z</time></trkpt><trkpt lat="42.87158004001477" lon="13.711954014468505"><ele>178.0</ele><time>2026-04-18T07:43:20.001Z</time></trkpt><trkpt lat="42.87162040237548" lon="13.711810910238508"><ele>178.0</ele><time>2026-04-18T07:43:21.001Z</time></trkpt><trkpt lat="42.871654194730354" lon="13.711675506545628"><ele>178.33333333333334</ele><time>2026-04-18T07:43:22.001Z</time></trkpt><trkpt lat="42.87168322489278" lon="13.711555268497886"><ele>178.66666666666669</ele><time>2026-04-18T07:43:23.001Z</time></trkpt><trkpt lat="42.87171573853652" lon="13.711445327419044"><ele>179.0</ele><time>2026-04-18T07:43:24.001Z</time></trkpt><trkpt lat="42.87174597666891" lon="13.711335631180184"><ele>179.33333333333334</ele><time>2026-04-18T07:43:25.001Z</time></trkpt><trkpt lat="42.871774836518846" lon="13.711244281574231"><ele>179.66666666666666</ele><time>2026-04-18T07:43:26.001Z</time></trkpt><trkpt lat="42.871840374240655" lon="13.711170161462407"><ele>180.0</ele><time>2026-04-18T07:43:28.001Z</time></trkpt><trkpt lat="42.871845067685626" lon="13.71132516293266"><ele>178.4</ele><time>2026-04-18T07:43:29.001Z</time></trkpt><trkpt lat="42.87192825540746" lon="13.711383666491814"><ele>176.8</ele><time>2026-04-18T07:43:30.001Z</time></trkpt><trkpt lat="42.872004613214095" lon="13.71143862795425"><ele>175.2</ele><time>2026-04-18T07:43:31.001Z</time></trkpt><trkpt lat="42.87208428235151" lon="13.711499122239418"><ele>173.6</ele><time>2026-04-18T07:43:32.001Z</time></trkpt><trkpt lat="42.87216574388772" lon="13.711560977521154"><ele>172.0</ele><time>2026-04-18T07:43:33.001Z</time></trkpt><trkpt lat="42.87224620382146" lon="13.711623662707028"><ele>172.0</ele><time>2026-04-18T07:43:34.001Z</time></trkpt><trkpt lat="42.87233527012909" lon="13.711692981568504"><ele>172.0</ele><time>2026-04-18T07:43:35.001Z</time></trkpt><trkpt lat="42.8724180364019" lon="13.71173067632469"><ele>172.0</ele><time>2026-04-18T07:43:36.001Z</time></trkpt><trkpt lat="42.87249924549753" lon="13.711789392069216"><ele>172.0</ele><time>2026-04-18T07:43:37.001Z</time></trkpt><trkpt lat="42.87257943260905" lon="13.711844557733107"><ele>172.0</ele><time>2026-04-18T07:43:38.001Z</time></trkpt><trkpt lat="42.872650674537255" lon="13.711868716525197"><ele>172.0</ele><time>2026-04-18T07:43:39.001Z</time></trkpt><trkpt lat="42.87271419479873" lon="13.71186376117616"><ele>169.2</ele><time>2026-04-18T07:43:40.001Z</time></trkpt><trkpt lat="42.87276879897086" lon="13.71180368244253"><ele>166.39999999999998</ele><time>2026-04-18T07:43:41.001Z</time></trkpt><trkpt lat="42.872841082143694" lon="13.711762869398006"><ele>163.60000000000002</ele><time>2026-04-18T07:43:42.001Z</time></trkpt><trkpt lat="42.8729199086788" lon="13.711691598440755"><ele>160.8</ele><time>2026-04-18T07:43:43.001Z</time></trkpt><trkpt lat="42.87300839687015" lon="13.711613236567837"><ele>158.0</ele><time>2026-04-18T07:43:44.001Z</time></trkpt><trkpt lat="42.87309762355169" lon="13.711529742713756"><ele>158.0</ele><time>2026-04-18T07:43:45.001Z</time></trkpt><trkpt lat="42.873191365293266" lon="13.711438787725202"><ele>158.0</ele><time>2026-04-18T07:43:46.001Z</time></trkpt><trkpt lat="42.873300272384895" lon="13.711333176004342"><ele>158.0</ele><time>2026-04-18T07:43:47.001Z</time></trkpt><trkpt lat="42.87340914547321" lon="13.71122791091817"><ele>158.0</ele><time>2026-04-18T07:43:48.001Z</time></trkpt><trkpt lat="42.87351460620948" lon="13.711126219754364"><ele>155.0</ele><time>2026-04-18T07:43:49.001Z</time></trkpt><trkpt lat="42.8736191447087" lon="13.711022142828972"><ele>152.0</ele><time>2026-04-18T07:43:50.001Z</time></trkpt><trkpt lat="42.873719957439576" lon="13.710915227551714"><ele>149.0</ele><time>2026-04-18T07:43:51.001Z</time></trkpt><trkpt lat="42.87381357217773" lon="13.710809110834724"><ele>146.0</ele><time>2026-04-18T07:43:52.001Z</time></trkpt><trkpt lat="42.873892207155286" lon="13.710718380051576"><ele>146.0</ele><time>2026-04-18T07:43:53.001Z</time></trkpt><trkpt lat="42.87396529733633" lon="13.710624751325925"><ele>146.0</ele><time>2026-04-18T07:43:54.001Z</time></trkpt><trkpt lat="42.87402437198464" lon="13.710549953170789"><ele>146.0</ele><time>2026-04-18T07:43:55.001Z</time></trkpt><trkpt lat="42.87409574763807" lon="13.71046359887409"><ele>146.0</ele><time>2026-04-18T07:43:57.001Z</time></trkpt><trkpt lat="42.87418032045013" lon="13.710340114911672"><ele>146.0</ele><time>2026-04-18T07:44:28.002Z</time></trkpt><trkpt lat="42.87423585976635" lon="13.71025657465642"><ele>145.57142857142856</ele><time>2026-04-18T07:44:29.002Z</time></trkpt><trkpt lat="42.87428492105305" lon="13.710180090550777"><ele>145.14285714285714</ele><time>2026-04-18T07:44:30.002Z</time></trkpt><trkpt lat="42.87432465291669" lon="13.710106564704162"><ele>144.71428571428572</ele><time>2026-04-18T07:44:31.002Z</time></trkpt><trkpt lat="42.87436693434488" lon="13.710032686830473"><ele>144.28571428571428</ele><time>2026-04-18T07:44:32.002Z</time></trkpt><trkpt lat="42.874419445765355" lon="13.709957426799647"><ele>143.85714285714286</ele><time>2026-04-18T07:44:33.002Z</time></trkpt><trkpt lat="42.874470347147465" lon="13.709873703856054"><ele>143.42857142857142</ele><time>2026-04-18T07:44:34.002Z</time></trkpt><trkpt lat="42.874521277535145" lon="13.70979492768478"><ele>143.0</ele><time>2026-04-18T07:44:35.002Z</time></trkpt><trkpt lat="42.8745721005677" lon="13.709710795922838"><ele>143.0</ele><time>2026-04-18T07:44:36.002Z</time></trkpt><trkpt lat="42.87462123622119" lon="13.709612277137829"><ele>143.0</ele><time>2026-04-18T07:44:37.002Z</time></trkpt><trkpt lat="42.87467976272918" lon="13.709514629516216"><ele>143.0</ele><time>2026-04-18T07:44:38.003Z</time></trkpt><trkpt lat="42.874743496499924" lon="13.709403070020334"><ele>143.0</ele><time>2026-04-18T07:44:39.003Z</time></trkpt><trkpt lat="42.874813203065955" lon="13.709284181560179"><ele>143.0</ele><time>2026-04-18T07:44:40.003Z</time></trkpt><trkpt lat="42.87488106861052" lon="13.709178783730287"><ele>140.75</ele><time>2026-04-18T07:44:41.003Z</time></trkpt><trkpt lat="42.874953937145236" lon="13.709067482160606"><ele>138.5</ele><time>2026-04-18T07:44:42.003Z</time></trkpt><trkpt lat="42.87503021224168" lon="13.708948180871921"><ele>136.25</ele><time>2026-04-18T07:44:43.003Z</time></trkpt><trkpt lat="42.87511786740055" lon="13.708825080125319"><ele>134.0</ele><time>2026-04-18T07:44:44.003Z</time></trkpt><trkpt lat="42.87520091671848" lon="13.708695120376458"><ele>137.25</ele><time>2026-04-18T07:44:45.003Z</time></trkpt><trkpt lat="42.87528069893205" lon="13.708565433700958"><ele>140.5</ele><time>2026-04-18T07:44:46.003Z</time></trkpt><trkpt lat="42.87536309953221" lon="13.708437347103771"><ele>143.75</ele><time>2026-04-18T07:44:47.003Z</time></trkpt><trkpt lat="42.87544317352869" lon="13.70831215626388"><ele>147.0</ele><time>2026-04-18T07:44:48.003Z</time></trkpt><trkpt lat="42.87552174899492" lon="13.70819495959482"><ele>147.0</ele><time>2026-04-18T07:44:49.003Z</time></trkpt><trkpt lat="42.875602751975485" lon="13.708088067398114"><ele>147.0</ele><time>2026-04-18T07:44:50.003Z</time></trkpt><trkpt lat="42.87568242051251" lon="13.707975872536213"><ele>147.0</ele><time>2026-04-18T07:44:51.003Z</time></trkpt><trkpt lat="42.87578231947378" lon="13.707843482585854"><ele>147.0</ele><time>2026-04-18T07:44:52.003Z</time></trkpt><trkpt lat="42.875894536729454" lon="13.70770017880647"><ele>145.75</ele><time>2026-04-18T07:44:53.003Z</time></trkpt><trkpt lat="42.87600615096253" lon="13.707545876966277"><ele>144.5</ele><time>2026-04-18T07:44:54.003Z</time></trkpt><trkpt lat="42.8761083461358" lon="13.70740729277684"><ele>143.25</ele><time>2026-04-18T07:44:55.003Z</time></trkpt><trkpt lat="42.8762089017235" lon="13.707299717538913"><ele>142.0</ele><time>2026-04-18T07:44:56.003Z</time></trkpt><trkpt lat="42.8762989938462" lon="13.707180966787613"><ele>142.0</ele><time>2026-04-18T07:44:57.003Z</time></trkpt><trkpt lat="42.87638823205968" lon="13.707043591392933"><ele>142.0</ele><time>2026-04-18T07:44:58.003Z</time></trkpt><trkpt lat="42.87648121483784" lon="13.70691840036308"><ele>142.0</ele><time>2026-04-18T07:44:59.003Z</time></trkpt><trkpt lat="42.876566428194344" lon="13.706794986950609"><ele>142.0</ele><time>2026-04-18T07:45:00.003Z</time></trkpt><trkpt lat="42.87664186442033" lon="13.7066417461993"><ele>140.4</ele><time>2026-04-18T07:45:01.003Z</time></trkpt><trkpt lat="42.87669257588253" lon="13.706503646964032"><ele>138.79999999999998</ele><time>2026-04-18T07:45:02.003Z</time></trkpt><trkpt lat="42.87672883641006" lon="13.706398568339175"><ele>137.2</ele><time>2026-04-18T07:45:03.003Z</time></trkpt><trkpt lat="42.87679818584757" lon="13.706310929767099"><ele>135.6</ele><time>2026-04-18T07:45:04.003Z</time></trkpt><trkpt lat="42.876880089683645" lon="13.706257144282128"><ele>134.0</ele><time>2026-04-18T07:45:05.003Z</time></trkpt><trkpt lat="42.87698080049672" lon="13.706161284855044"><ele>137.25</ele><time>2026-04-18T07:45:06.003Z</time></trkpt><trkpt lat="42.87708981266929" lon="13.706065711844916"><ele>140.5</ele><time>2026-04-18T07:45:07.003Z</time></trkpt><trkpt lat="42.87719027947519" lon="13.705990145065662"><ele>143.75</ele><time>2026-04-18T07:45:08.003Z</time></trkpt><trkpt lat="42.87729530227438" lon="13.705923220809687"><ele>147.0</ele><time>2026-04-18T07:45:09.003Z</time></trkpt><trkpt lat="42.877400809171" lon="13.705862912807065"><ele>147.0</ele><time>2026-04-18T07:45:10.001Z</time></trkpt><trkpt lat="42.87749081737437" lon="13.705817145870858"><ele>147.0</ele><time>2026-04-18T07:45:11.001Z</time></trkpt><trkpt lat="42.87755941158454" lon="13.705786464485362"><ele>147.0</ele><time>2026-04-18T07:45:12.001Z</time></trkpt><trkpt lat="42.87763037282735" lon="13.705753973397998"><ele>147.0</ele><time>2026-04-18T07:45:13.001Z</time></trkpt><trkpt lat="42.87770322378075" lon="13.705719915601957"><ele>147.0</ele><time>2026-04-18T07:45:14.001Z</time></trkpt><trkpt lat="42.877782151709944" lon="13.70567997196971"><ele>147.0</ele><time>2026-04-18T07:45:15.001Z</time></trkpt><trkpt lat="42.87786862349607" lon="13.705636662730603"><ele>144.0</ele><time>2026-04-18T07:45:16.001Z</time></trkpt><trkpt lat="42.87797287042533" lon="13.705585864371574"><ele>141.0</ele><time>2026-04-18T07:45:17.001Z</time></trkpt><trkpt lat="42.87809204931146" lon="13.705529894605096"><ele>138.0</ele><time>2026-04-18T07:45:18.001Z</time></trkpt><trkpt lat="42.87820063474761" lon="13.705491619266148"><ele>135.0</ele><time>2026-04-18T07:45:19.001Z</time></trkpt><trkpt lat="42.87830032346354" lon="13.70545489184413"><ele>135.0</ele><time>2026-04-18T07:45:20.001Z</time></trkpt><trkpt lat="42.8783897722639" lon="13.705421936857793"><ele>135.0</ele><time>2026-04-18T07:45:21.001Z</time></trkpt><trkpt lat="42.87845329366616" lon="13.705407501702"><ele>135.0</ele><time>2026-04-18T07:45:22.001Z</time></trkpt><trkpt lat="42.87859367277527" lon="13.705430564452854"><ele>135.0</ele><time>2026-04-18T07:45:24.001Z</time></trkpt><trkpt lat="42.87869355415588" lon="13.705466904113297"><ele>135.0</ele><time>2026-04-18T07:45:25.001Z</time></trkpt><trkpt lat="42.87879893642794" lon="13.705478003625378"><ele>132.6</ele><time>2026-04-18T07:45:26.001Z</time></trkpt><trkpt lat="42.878893972516885" lon="13.705497928253882"><ele>130.2</ele><time>2026-04-18T07:45:27.001Z</time></trkpt><trkpt lat="42.878992281516624" lon="13.705489889629444"><ele>127.80000000000001</ele><time>2026-04-18T07:45:28.001Z</time></trkpt><trkpt lat="42.87909573021475" lon="13.705472037447525"><ele>125.4</ele><time>2026-04-18T07:45:29.001Z</time></trkpt><trkpt lat="42.87919582094819" lon="13.705454952281235"><ele>123.0</ele><time>2026-04-18T07:45:30.001Z</time></trkpt><trkpt lat="42.879298390188154" lon="13.705451662863004"><ele>120.25</ele><time>2026-04-18T07:45:31.001Z</time></trkpt><trkpt lat="42.87939648325022" lon="13.705542118664376"><ele>117.5</ele><time>2026-04-18T07:45:32.001Z</time></trkpt><trkpt lat="42.87949743717646" lon="13.705616755916415"><ele>114.75</ele><time>2026-04-18T07:45:33.001Z</time></trkpt><trkpt lat="42.879612264136966" lon="13.705700792485489"><ele>112.0</ele><time>2026-04-18T07:45:34.001Z</time></trkpt><trkpt lat="42.87973469119579" lon="13.705791149460353"><ele>112.0</ele><time>2026-04-18T07:45:35.001Z</time></trkpt><trkpt lat="42.87985968820975" lon="13.705880272873216"><ele>112.0</ele><time>2026-04-18T07:45:36.001Z</time></trkpt><trkpt lat="42.87999240223029" lon="13.705961021821865"><ele>112.0</ele><time>2026-04-18T07:45:37.001Z</time></trkpt><trkpt lat="42.880121832248875" lon="13.706037745779241"><ele>112.0</ele><time>2026-04-18T07:45:38.001Z</time></trkpt><trkpt lat="42.88026358987853" lon="13.70611602653418"><ele>107.75</ele><time>2026-04-18T07:45:39.001Z</time></trkpt><trkpt lat="42.880379230307646" lon="13.706191916096182"><ele>103.5</ele><time>2026-04-18T07:45:40.001Z</time></trkpt><trkpt lat="42.88049143494619" lon="13.706283340312439"><ele>99.25</ele><time>2026-04-18T07:45:41.001Z</time></trkpt><trkpt lat="42.880608290659026" lon="13.706359134376589"><ele>95.0</ele><time>2026-04-18T07:45:42.001Z</time></trkpt><trkpt lat="42.88072294978688" lon="13.706428102265816"><ele>95.0</ele><time>2026-04-18T07:45:43.001Z</time></trkpt><trkpt lat="42.88083686171118" lon="13.70648371897858"><ele>95.0</ele><time>2026-04-18T07:45:44.001Z</time></trkpt><trkpt lat="42.880943264336985" lon="13.706531995036377"><ele>95.0</ele><time>2026-04-18T07:45:45.001Z</time></trkpt><trkpt lat="42.88104959381246" lon="13.70657685614908"><ele>95.0</ele><time>2026-04-18T07:45:46.001Z</time></trkpt><trkpt lat="42.881142984533234" lon="13.706622938402383"><ele>95.0</ele><time>2026-04-18T07:45:47.001Z</time></trkpt><trkpt lat="42.88122071267288" lon="13.706674012880177"><ele>94.16666666666667</ele><time>2026-04-18T07:45:48.001Z</time></trkpt><trkpt lat="42.881295028260745" lon="13.706723998211057"><ele>93.33333333333334</ele><time>2026-04-18T07:45:49.001Z</time></trkpt><trkpt lat="42.88136767678139" lon="13.706799813897458"><ele>92.5</ele><time>2026-04-18T07:45:51.001Z</time></trkpt><trkpt lat="42.88145380780615" lon="13.70679155649631"><ele>91.66666666666667</ele><time>2026-04-18T07:45:57.001Z</time></trkpt><trkpt lat="42.88152882521966" lon="13.70678628374694"><ele>90.83333333333333</ele><time>2026-04-18T07:45:58.001Z</time></trkpt><trkpt lat="42.88162619869056" lon="13.706742378316337"><ele>90.0</ele><time>2026-04-18T07:45:59.001Z</time></trkpt><trkpt lat="42.88175240804865" lon="13.70666870013278"><ele>89.0</ele><time>2026-04-18T07:46:00.001Z</time></trkpt><trkpt lat="42.881898536370535" lon="13.706582753220992"><ele>88.0</ele><time>2026-04-18T07:46:01.001Z</time></trkpt><trkpt lat="42.88205108166417" lon="13.706502951073702"><ele>87.0</ele><time>2026-04-18T07:46:02.001Z</time></trkpt><trkpt lat="42.882220749444464" lon="13.706411652803613"><ele>87.0</ele><time>2026-04-18T07:46:03.001Z</time></trkpt><trkpt lat="42.882381949221994" lon="13.706324764549727"><ele>87.0</ele><time>2026-04-18T07:46:04.001Z</time></trkpt><trkpt lat="42.88255264995474" lon="13.706230268458343"><ele>87.0</ele><time>2026-04-18T07:46:05.001Z</time></trkpt><trkpt lat="42.88272945286036" lon="13.70611557655127"><ele>88.33333333333333</ele><time>2026-04-18T07:46:06.001Z</time></trkpt><trkpt lat="42.882897718995906" lon="13.705996905870363"><ele>89.66666666666666</ele><time>2026-04-18T07:46:07.001Z</time></trkpt><trkpt lat="42.88307892775971" lon="13.7058604219207"><ele>91.0</ele><time>2026-04-18T07:46:08.001Z</time></trkpt><trkpt lat="42.883264663796915" lon="13.70571807155107"><ele>90.33333333333333</ele><time>2026-04-18T07:46:09.001Z</time></trkpt><trkpt lat="42.883447445067006" lon="13.705581324150279"><ele>89.66666666666667</ele><time>2026-04-18T07:46:10.001Z</time></trkpt><trkpt lat="42.88363499935231" lon="13.705439793751149"><ele>89.0</ele><time>2026-04-18T07:46:11.002Z</time></trkpt><trkpt lat="42.88381915653786" lon="13.705300809771488"><ele>88.66666666666667</ele><time>2026-04-18T07:46:12.002Z</time></trkpt><trkpt lat="42.88399617313651" lon="13.70516034487301"><ele>88.33333333333333</ele><time>2026-04-18T07:46:13.002Z</time></trkpt><trkpt lat="42.88416999800024" lon="13.705025748143452"><ele>88.0</ele><time>2026-04-18T07:46:14.002Z</time></trkpt><trkpt lat="42.88434779580914" lon="13.704895996344836"><ele>88.0</ele><time>2026-04-18T07:46:15.002Z</time></trkpt><trkpt lat="42.884520765314306" lon="13.704770119595073"><ele>88.0</ele><time>2026-04-18T07:46:16.002Z</time></trkpt><trkpt lat="42.88470864233672" lon="13.704682006582763"><ele>88.0</ele><time>2026-04-18T07:46:17.002Z</time></trkpt><trkpt lat="42.884903083552935" lon="13.704598954670466"><ele>88.66666666666666</ele><time>2026-04-18T07:46:18.002Z</time></trkpt><trkpt lat="42.885101406214474" lon="13.704533893606591"><ele>89.33333333333333</ele><time>2026-04-18T07:46:19.002Z</time></trkpt><trkpt lat="42.8853129734643" lon="13.704469782292552"><ele>90.0</ele><time>2026-04-18T07:46:20.002Z</time></trkpt><trkpt lat="42.88551779219635" lon="13.7043828661192"><ele>92.66666666666666</ele><time>2026-04-18T07:46:21.002Z</time></trkpt><trkpt lat="42.88573196503269" lon="13.704317628381235"><ele>95.33333333333333</ele><time>2026-04-18T07:46:22.002Z</time></trkpt><trkpt lat="42.88594877547914" lon="13.704250099715736"><ele>98.0</ele><time>2026-04-18T07:46:23.002Z</time></trkpt><trkpt lat="42.886167183371775" lon="13.704178059399366"><ele>98.0</ele><time>2026-04-18T07:46:24.002Z</time></trkpt><trkpt lat="42.8863857799774" lon="13.70410499119414"><ele>98.0</ele><time>2026-04-18T07:46:25.002Z</time></trkpt><trkpt lat="42.88660452912396" lon="13.704037188252336"><ele>98.0</ele><time>2026-04-18T07:46:26.002Z</time></trkpt><trkpt lat="42.88682119402056" lon="13.703974024430003"><ele>96.0</ele><time>2026-04-18T07:46:27.002Z</time></trkpt><trkpt lat="42.8870315014446" lon="13.703899243374964"><ele>94.0</ele><time>2026-04-18T07:46:28.002Z</time></trkpt><trkpt lat="42.88723779791876" lon="13.703794301048791"><ele>92.0</ele><time>2026-04-18T07:46:29.002Z</time></trkpt><trkpt lat="42.8874332428649" lon="13.703666837351175"><ele>93.33333333333334</ele><time>2026-04-18T07:46:30.002Z</time></trkpt><trkpt lat="42.88762098639016" lon="13.703517903267002"><ele>94.66666666666667</ele><time>2026-04-18T07:46:31.002Z</time></trkpt><trkpt lat="42.88780789542788" lon="13.703365653067264"><ele>96.0</ele><time>2026-04-18T07:46:32.002Z</time></trkpt><trkpt lat="42.88798645505637" lon="13.70319093472"><ele>96.0</ele><time>2026-04-18T07:46:33.002Z</time></trkpt><trkpt lat="42.888155769011114" lon="13.702987484773475"><ele>96.0</ele><time>2026-04-18T07:46:34.002Z</time></trkpt><trkpt lat="42.888323267772755" lon="13.702776708989424"><ele>96.0</ele><time>2026-04-18T07:46:35.002Z</time></trkpt><trkpt lat="42.88848312565643" lon="13.70253889542369"><ele>96.0</ele><time>2026-04-18T07:46:36.002Z</time></trkpt><trkpt lat="42.888642748410604" lon="13.702303490504434"><ele>96.0</ele><time>2026-04-18T07:46:37.002Z</time></trkpt><trkpt lat="42.88879678498397" lon="13.702065494836821"><ele>96.0</ele><time>2026-04-18T07:46:38.002Z</time></trkpt><trkpt lat="42.888940687565245" lon="13.701838888504188"><ele>95.66666666666667</ele><time>2026-04-18T07:46:39.002Z</time></trkpt><trkpt lat="42.88907123682099" lon="13.701647290632257"><ele>95.33333333333334</ele><time>2026-04-18T07:46:40.002Z</time></trkpt><trkpt lat="42.88919376098686" lon="13.70147793531637"><ele>95.0</ele><time>2026-04-18T07:46:41.002Z</time></trkpt><trkpt lat="42.88932744548665" lon="13.70132519864929"><ele>95.0</ele><time>2026-04-18T07:46:42.002Z</time></trkpt><trkpt lat="42.889465675616464" lon="13.701191140566747"><ele>95.0</ele><time>2026-04-18T07:46:43.002Z</time></trkpt><trkpt lat="42.889620254448566" lon="13.701091440541447"><ele>95.0</ele><time>2026-04-18T07:46:44.002Z</time></trkpt><trkpt lat="42.88978240532534" lon="13.70099482694789"><ele>96.66666666666667</ele><time>2026-04-18T07:46:45.002Z</time></trkpt><trkpt lat="42.88995337385578" lon="13.700902558070467"><ele>98.33333333333334</ele><time>2026-04-18T07:46:46.002Z</time></trkpt><trkpt lat="42.89014108161369" lon="13.700853287507986"><ele>100.0</ele><time>2026-04-18T07:46:47.002Z</time></trkpt><trkpt lat="42.89032669096516" lon="13.700811645464405"><ele>100.33333333333334</ele><time>2026-04-18T07:46:48.002Z</time></trkpt><trkpt lat="42.890523044971104" lon="13.700783484011431"><ele>100.66666666666666</ele><time>2026-04-18T07:46:49.002Z</time></trkpt><trkpt lat="42.89073098296576" lon="13.700761080322447"><ele>101.0</ele><time>2026-04-18T07:46:50.002Z</time></trkpt><trkpt lat="42.890945360551065" lon="13.700740805350941"><ele>102.5</ele><time>2026-04-18T07:46:51.002Z</time></trkpt><trkpt lat="42.89118113910149" lon="13.700720029813708"><ele>104.0</ele><time>2026-04-18T07:46:52.002Z</time></trkpt><trkpt lat="42.89141168995389" lon="13.700700802304102"><ele>104.0</ele><time>2026-04-18T07:46:53.002Z</time></trkpt><trkpt lat="42.891643883243205" lon="13.70068004666757"><ele>104.0</ele><time>2026-04-18T07:46:54.003Z</time></trkpt><trkpt lat="42.89187732411922" lon="13.700658803697966"><ele>102.66666666666666</ele><time>2026-04-18T07:46:55.003Z</time></trkpt><trkpt lat="42.892104253331944" lon="13.700638153358497"><ele>101.33333333333334</ele><time>2026-04-18T07:46:56.003Z</time></trkpt><trkpt lat="42.89230965168822" lon="13.700619462625141"><ele>100.0</ele><time>2026-04-18T07:46:57.003Z</time></trkpt><trkpt lat="42.892483208864746" lon="13.700603669358497"><ele>100.2</ele><time>2026-04-18T07:46:58.003Z</time></trkpt><trkpt lat="42.89262299348328" lon="13.70056809320545"><ele>100.4</ele><time>2026-04-18T07:46:59.003Z</time></trkpt><trkpt lat="42.89273652510345" lon="13.700566294950082"><ele>100.6</ele><time>2026-04-18T07:47:00.003Z</time></trkpt><trkpt lat="42.89283129717893" lon="13.700556823657932"><ele>100.8</ele><time>2026-04-18T07:47:01.003Z</time></trkpt><trkpt lat="42.89290062243201" lon="13.700548041008874"><ele>101.0</ele><time>2026-04-18T07:47:02.003Z</time></trkpt><trkpt lat="42.89303010401589" lon="13.700534224225121"><ele>101.0</ele><time>2026-04-18T07:47:04.003Z</time></trkpt><trkpt lat="42.89313100957591" lon="13.700526132626576"><ele>101.0</ele><time>2026-04-18T07:47:05.003Z</time></trkpt><trkpt lat="42.89324172495628" lon="13.700522372321155"><ele>101.0</ele><time>2026-04-18T07:47:06.003Z</time></trkpt><trkpt lat="42.89336820787837" lon="13.700519759981828"><ele>101.0</ele><time>2026-04-18T07:47:07.003Z</time></trkpt><trkpt lat="42.89349256683426" lon="13.700536996699748"><ele>101.99999999999999</ele><time>2026-04-18T07:47:08.003Z</time></trkpt><trkpt lat="42.89360335874364" lon="13.700558212174345"><ele>103.0</ele><time>2026-04-18T07:47:09.003Z</time></trkpt><trkpt lat="42.893698152090096" lon="13.700577921873917"><ele>104.0</ele><time>2026-04-18T07:47:10.003Z</time></trkpt><trkpt lat="42.89378338280222" lon="13.700596683790634"><ele>105.0</ele><time>2026-04-18T07:47:11.003Z</time></trkpt><trkpt lat="42.89385059946436" lon="13.700596624451896"><ele>105.99999999999999</ele><time>2026-04-18T07:47:12.003Z</time></trkpt><trkpt lat="42.89391779663462" lon="13.700595444008025"><ele>107.0</ele><time>2026-04-18T07:47:13.003Z</time></trkpt><trkpt lat="42.893958470068284" lon="13.700526810748212"><ele>107.0</ele><time>2026-04-18T07:47:16.001Z</time></trkpt><trkpt lat="42.89387592962579" lon="13.700493963708603"><ele>106.99999999999999</ele><time>2026-04-18T07:47:19.001Z</time></trkpt><trkpt lat="42.893813865493925" lon="13.700537137047675"><ele>106.99999999999999</ele><time>2026-04-18T07:47:21.001Z</time></trkpt><trkpt lat="42.893684044533224" lon="13.700556474486698"><ele>107.0</ele><time>2026-04-18T07:47:23.001Z</time></trkpt><trkpt lat="42.8935769751627" lon="13.700521461834274"><ele>107.0</ele><time>2026-04-18T07:47:24.001Z</time></trkpt><trkpt lat="42.89346287500714" lon="13.700495396908458"><ele>105.5</ele><time>2026-04-18T07:47:25.001Z</time></trkpt><trkpt lat="42.893354921200526" lon="13.700490169268416"><ele>104.0</ele><time>2026-04-18T07:47:26.001Z</time></trkpt><trkpt lat="42.89322213944567" lon="13.700497472211675"><ele>102.5</ele><time>2026-04-18T07:47:27.001Z</time></trkpt><trkpt lat="42.89306819689178" lon="13.700504209638213"><ele>101.0</ele><time>2026-04-18T07:47:28.001Z</time></trkpt><trkpt lat="42.89291107712185" lon="13.70050982969286"><ele>101.0</ele><time>2026-04-18T07:47:29.001Z</time></trkpt><trkpt lat="42.89273571383709" lon="13.700522267711055"><ele>101.0</ele><time>2026-04-18T07:47:30.001Z</time></trkpt><trkpt lat="42.89254473258948" lon="13.700541120796231"><ele>101.0</ele><time>2026-04-18T07:47:31.001Z</time></trkpt><trkpt lat="42.892361404999974" lon="13.700558574343257"><ele>100.66666666666666</ele><time>2026-04-18T07:47:32.001Z</time></trkpt><trkpt lat="42.89217209147053" lon="13.70057479024086"><ele>100.33333333333334</ele><time>2026-04-18T07:47:33.001Z</time></trkpt><trkpt lat="42.891981089254145" lon="13.700590259002832"><ele>100.0</ele><time>2026-04-18T07:47:34.001Z</time></trkpt><trkpt lat="42.89178038274986" lon="13.700612375539158"><ele>101.33333333333334</ele><time>2026-04-18T07:47:35.001Z</time></trkpt><trkpt lat="42.89158423257975" lon="13.700630076233862"><ele>102.66666666666666</ele><time>2026-04-18T07:47:36.001Z</time></trkpt><trkpt lat="42.891402461712076" lon="13.700649699873754"><ele>104.0</ele><time>2026-04-18T07:47:37.001Z</time></trkpt><trkpt lat="42.891235248071155" lon="13.700663224285162"><ele>104.0</ele><time>2026-04-18T07:47:38.001Z</time></trkpt><trkpt lat="42.89108110906425" lon="13.700675408100523"><ele>104.0</ele><time>2026-04-18T07:47:39.001Z</time></trkpt><trkpt lat="42.890941155495916" lon="13.700688056936896"><ele>104.0</ele><time>2026-04-18T07:47:40.001Z</time></trkpt><trkpt lat="42.89081819876021" lon="13.70070181157522"><ele>104.0</ele><time>2026-04-18T07:47:41.001Z</time></trkpt><trkpt lat="42.8907199259555" lon="13.700719455913696"><ele>103.49999999999999</ele><time>2026-04-18T07:47:42.001Z</time></trkpt><trkpt lat="42.89062346948579" lon="13.700729943855826"><ele>103.0</ele><time>2026-04-18T07:47:43.001Z</time></trkpt><trkpt lat="42.89055847009154" lon="13.70073338206875"><ele>102.5</ele><time>2026-04-18T07:47:44.001Z</time></trkpt><trkpt lat="42.89050770060154" lon="13.700666221005305"><ele>102.0</ele><time>2026-04-18T07:47:47.001Z</time></trkpt><trkpt lat="42.89059087074403" lon="13.700650197824752"><ele>101.49999999999999</ele><time>2026-04-18T07:47:50.001Z</time></trkpt><trkpt lat="42.8906743106249" lon="13.70057210760891"><ele>101.0</ele><time>2026-04-18T07:47:51.001Z</time></trkpt><trkpt lat="42.890751619965" lon="13.700511200340719"><ele>101.0</ele><time>2026-04-18T07:47:52.001Z</time></trkpt><trkpt lat="42.890857122542286" lon="13.700452676196832"><ele>101.0</ele><time>2026-04-18T07:47:53.001Z</time></trkpt><trkpt lat="42.89096741783087" lon="13.700404630869386"><ele>101.0</ele><time>2026-04-18T07:47:54.001Z</time></trkpt><trkpt lat="42.891074236688695" lon="13.700376941757556"><ele>101.0</ele><time>2026-04-18T07:47:55.001Z</time></trkpt><trkpt lat="42.89119177311665" lon="13.700328519808304"><ele>101.49999999999999</ele><time>2026-04-18T07:47:56.001Z</time></trkpt><trkpt lat="42.89128862158008" lon="13.700304413499337"><ele>102.0</ele><time>2026-04-18T07:47:57.001Z</time></trkpt><trkpt lat="42.891358707109056" lon="13.700247896813304"><ele>102.5</ele><time>2026-04-18T07:47:58.001Z</time></trkpt><trkpt lat="42.8914177337554" lon="13.70018812897099"><ele>103.0</ele><time>2026-04-18T07:47:59.001Z</time></trkpt><trkpt lat="42.89141601430859" lon="13.700080123920758"><ele>103.49999999999999</ele><time>2026-04-18T07:48:00.001Z</time></trkpt><trkpt lat="42.891434355688105" lon="13.69996701464954"><ele>104.0</ele><time>2026-04-18T07:48:01.001Z</time></trkpt><trkpt lat="42.89146170095561" lon="13.699837093915399"><ele>107.75</ele><time>2026-04-18T07:48:02.001Z</time></trkpt><trkpt lat="42.89147749813809" lon="13.699691776770958"><ele>111.5</ele><time>2026-04-18T07:48:03.001Z</time></trkpt><trkpt lat="42.89149942057966" lon="13.699550330471514"><ele>115.25</ele><time>2026-04-18T07:48:04.001Z</time></trkpt><trkpt lat="42.89153119636797" lon="13.699389376107195"><ele>119.0</ele><time>2026-04-18T07:48:05.001Z</time></trkpt><trkpt lat="42.8915730568377" lon="13.69919244056688"><ele>120.80000000000001</ele><time>2026-04-18T07:48:06.001Z</time></trkpt><trkpt lat="42.89161537096108" lon="13.698996948605147"><ele>122.60000000000001</ele><time>2026-04-18T07:48:07.001Z</time></trkpt><trkpt lat="42.89166515943387" lon="13.69886193478479"><ele>124.4</ele><time>2026-04-18T07:48:08.001Z</time></trkpt><trkpt lat="42.891717731555744" lon="13.698760783778578"><ele>126.2</ele><time>2026-04-18T07:48:09.001Z</time></trkpt><trkpt lat="42.89177334957972" lon="13.698672545222328"><ele>128.0</ele><time>2026-04-18T07:48:10.001Z</time></trkpt><trkpt lat="42.89183598503874" lon="13.698582042342167"><ele>131.0</ele><time>2026-04-18T07:48:11.001Z</time></trkpt><trkpt lat="42.89190262163629" lon="13.698493315808562"><ele>134.0</ele><time>2026-04-18T07:48:12.001Z</time></trkpt><trkpt lat="42.891976569074565" lon="13.698390531290022"><ele>137.0</ele><time>2026-04-18T07:48:13.001Z</time></trkpt><trkpt lat="42.89205219923033" lon="13.69829102133307"><ele>140.0</ele><time>2026-04-18T07:48:14.001Z</time></trkpt><trkpt lat="42.892133958113824" lon="13.698227833583475"><ele>143.0</ele><time>2026-04-18T07:48:15.001Z</time></trkpt><trkpt lat="42.892232711191554" lon="13.698145082385452"><ele>143.0</ele><time>2026-04-18T07:48:16.002Z</time></trkpt><trkpt lat="42.89232199277737" lon="13.69805261857874"><ele>143.0</ele><time>2026-04-18T07:48:17.002Z</time></trkpt><trkpt lat="42.89240140790351" lon="13.697945807082638"><ele>143.0</ele><time>2026-04-18T07:48:18.002Z</time></trkpt><trkpt lat="42.89248427950292" lon="13.697842977338853"><ele>143.0</ele><time>2026-04-18T07:48:19.002Z</time></trkpt><trkpt lat="42.89256746333989" lon="13.69775050138911"><ele>143.0</ele><time>2026-04-18T07:48:20.002Z</time></trkpt><trkpt lat="42.89263780718297" lon="13.69768548667381"><ele>144.6</ele><time>2026-04-18T07:48:21.002Z</time></trkpt><trkpt lat="42.892707206108646" lon="13.697633252639596"><ele>146.20000000000002</ele><time>2026-04-18T07:48:22.002Z</time></trkpt><trkpt lat="42.89279080773954" lon="13.69757509108966"><ele>147.8</ele><time>2026-04-18T07:48:23.002Z</time></trkpt><trkpt lat="42.892882680252725" lon="13.697492793708419"><ele>149.4</ele><time>2026-04-18T07:48:24.002Z</time></trkpt><trkpt lat="42.89295386802993" lon="13.69736236065675"><ele>151.0</ele><time>2026-04-18T07:48:25.002Z</time></trkpt><trkpt lat="42.893066699469614" lon="13.697206234903291"><ele>151.0</ele><time>2026-04-18T07:48:26.002Z</time></trkpt><trkpt lat="42.89317646955149" lon="13.697032919772258"><ele>151.0</ele><time>2026-04-18T07:48:27.002Z</time></trkpt><trkpt lat="42.89326719334976" lon="13.696897806514762"><ele>151.0</ele><time>2026-04-18T07:48:28.002Z</time></trkpt><trkpt lat="42.89337082091876" lon="13.69680479039472"><ele>151.0</ele><time>2026-04-18T07:48:29.002Z</time></trkpt><trkpt lat="42.89347038210986" lon="13.69673609872731"><ele>152.5</ele><time>2026-04-18T07:48:30.002Z</time></trkpt><trkpt lat="42.8935769545581" lon="13.696656600518313"><ele>154.0</ele><time>2026-04-18T07:48:31.002Z</time></trkpt><trkpt lat="42.89369803361132" lon="13.696566280787067"><ele>155.5</ele><time>2026-04-18T07:48:32.002Z</time></trkpt><trkpt lat="42.89380491267356" lon="13.696484473286448"><ele>157.0</ele><time>2026-04-18T07:48:33.002Z</time></trkpt><trkpt lat="42.89389930600229" lon="13.696388469706594"><ele>157.0</ele><time>2026-04-18T07:48:34.002Z</time></trkpt><trkpt lat="42.894000387869006" lon="13.696312582243669"><ele>157.0</ele><time>2026-04-18T07:48:35.002Z</time></trkpt><trkpt lat="42.89410615844089" lon="13.696227388753215"><ele>157.0</ele><time>2026-04-18T07:48:36.002Z</time></trkpt><trkpt lat="42.89421515718199" lon="13.696135959867126"><ele>157.0</ele><time>2026-04-18T07:48:37.002Z</time></trkpt><trkpt lat="42.89433229995531" lon="13.696033209978284"><ele>159.25</ele><time>2026-04-18T07:48:38.002Z</time></trkpt><trkpt lat="42.89445538553294" lon="13.695926411224907"><ele>161.5</ele><time>2026-04-18T07:48:39.002Z</time></trkpt><trkpt lat="42.89456723412472" lon="13.69581831698359"><ele>163.75</ele><time>2026-04-18T07:48:40.002Z</time></trkpt><trkpt lat="42.89467354729541" lon="13.695744883450933"><ele>166.0</ele><time>2026-04-18T07:48:41.002Z</time></trkpt><trkpt lat="42.894787841713665" lon="13.695650063664328"><ele>166.0</ele><time>2026-04-18T07:48:42.002Z</time></trkpt><trkpt lat="42.89490785447565" lon="13.69555270997404"><ele>166.0</ele><time>2026-04-18T07:48:43.002Z</time></trkpt><trkpt lat="42.89503374257543" lon="13.695450590207827"><ele>166.0</ele><time>2026-04-18T07:48:44.002Z</time></trkpt><trkpt lat="42.89514808954479" lon="13.695336146281136"><ele>166.0</ele><time>2026-04-18T07:48:45.002Z</time></trkpt><trkpt lat="42.89525793672449" lon="13.695252671505793"><ele>166.60000000000002</ele><time>2026-04-18T07:48:46.002Z</time></trkpt><trkpt lat="42.89534703489496" lon="13.695184929765976"><ele>167.2</ele><time>2026-04-18T07:48:47.002Z</time></trkpt><trkpt lat="42.89542191949523" lon="13.695123818366747"><ele>167.8</ele><time>2026-04-18T07:48:48.002Z</time></trkpt><trkpt lat="42.89550678707664" lon="13.695052369649373"><ele>168.39999999999998</ele><time>2026-04-18T07:48:49.002Z</time></trkpt><trkpt lat="42.895594587432036" lon="13.694982602892939"><ele>169.0</ele><time>2026-04-18T07:48:50.002Z</time></trkpt><trkpt lat="42.89569582763163" lon="13.694914862601834"><ele>169.0</ele><time>2026-04-18T07:48:51.002Z</time></trkpt><trkpt lat="42.895789711657976" lon="13.694833313812811"><ele>169.0</ele><time>2026-04-18T07:48:52.002Z</time></trkpt><trkpt lat="42.89588137995732" lon="13.694752580835747"><ele>169.0</ele><time>2026-04-18T07:48:53.002Z</time></trkpt><trkpt lat="42.89597238664092" lon="13.694661721396367"><ele>169.0</ele><time>2026-04-18T07:48:54.002Z</time></trkpt><trkpt lat="42.896058058799575" lon="13.694568408467132"><ele>169.0</ele><time>2026-04-18T07:48:55.002Z</time></trkpt><trkpt lat="42.89614247261973" lon="13.694477309803412"><ele>170.0</ele><time>2026-04-18T07:48:56.002Z</time></trkpt><trkpt lat="42.896208386286794" lon="13.69436186667357"><ele>171.0</ele><time>2026-04-18T07:48:57.002Z</time></trkpt><trkpt lat="42.896257287176795" lon="13.694239900790988"><ele>172.0</ele><time>2026-04-18T07:48:58.002Z</time></trkpt><trkpt lat="42.89630088041318" lon="13.69410350997828"><ele>173.0</ele><time>2026-04-18T07:48:59.002Z</time></trkpt><trkpt lat="42.896344224614445" lon="13.693968157318043"><ele>174.0</ele><time>2026-04-18T07:49:00.002Z</time></trkpt><trkpt lat="42.89639102708817" lon="13.69383959760345"><ele>174.0</ele><time>2026-04-18T07:49:01.002Z</time></trkpt><trkpt lat="42.89647040348059" lon="13.693753478096065"><ele>174.0</ele><time>2026-04-18T07:49:02.002Z</time></trkpt><trkpt lat="42.89654212593681" lon="13.693678422918351"><ele>174.0</ele><time>2026-04-18T07:49:03.002Z</time></trkpt><trkpt lat="42.89661011558714" lon="13.693623306057788"><ele>174.0</ele><time>2026-04-18T07:49:04.002Z</time></trkpt><trkpt lat="42.896698795502026" lon="13.693559318715506"><ele>174.0</ele><time>2026-04-18T07:49:05.002Z</time></trkpt><trkpt lat="42.89679414477719" lon="13.693487405742463"><ele>173.39999999999998</ele><time>2026-04-18T07:49:06.003Z</time></trkpt><trkpt lat="42.89688009109078" lon="13.693395532446047"><ele>172.8</ele><time>2026-04-18T07:49:07.003Z</time></trkpt><trkpt lat="42.896966036247555" lon="13.693320097649378"><ele>172.2</ele><time>2026-04-18T07:49:08.003Z</time></trkpt><trkpt lat="42.897041041603224" lon="13.693253860499901"><ele>171.60000000000002</ele><time>2026-04-18T07:49:09.003Z</time></trkpt><trkpt lat="42.89711970673644" lon="13.693161434555714"><ele>171.0</ele><time>2026-04-18T07:49:10.003Z</time></trkpt><trkpt lat="42.89718870288658" lon="13.693040239913564"><ele>171.0</ele><time>2026-04-18T07:49:11.003Z</time></trkpt><trkpt lat="42.89725322001338" lon="13.692881345194087"><ele>171.0</ele><time>2026-04-18T07:49:12.003Z</time></trkpt><trkpt lat="42.897322799753155" lon="13.692716921632854"><ele>171.0</ele><time>2026-04-18T07:49:13.003Z</time></trkpt><trkpt lat="42.89739615649593" lon="13.69255122525022"><ele>171.0</ele><time>2026-04-18T07:49:14.003Z</time></trkpt><trkpt lat="42.89746881774995" lon="13.692386419960869"><ele>171.0</ele><time>2026-04-18T07:49:15.003Z</time></trkpt><trkpt lat="42.89754377326025" lon="13.69221127252324"><ele>171.0</ele><time>2026-04-18T07:49:16.003Z</time></trkpt><trkpt lat="42.89761739921885" lon="13.692040596249843"><ele>171.0</ele><time>2026-04-18T07:49:17.003Z</time></trkpt><trkpt lat="42.89768599398572" lon="13.69187834024875"><ele>171.0</ele><time>2026-04-18T07:49:18.003Z</time></trkpt><trkpt lat="42.89776064675693" lon="13.691717739768647"><ele>171.0</ele><time>2026-04-18T07:49:19.003Z</time></trkpt><trkpt lat="42.897829900757024" lon="13.69155502558195"><ele>171.0</ele><time>2026-04-18T07:49:20.003Z</time></trkpt><trkpt lat="42.89790130136648" lon="13.691391402888733"><ele>171.0</ele><time>2026-04-18T07:49:21.003Z</time></trkpt><trkpt lat="42.89797362237219" lon="13.691227997929607"><ele>171.0</ele><time>2026-04-18T07:49:22.001Z</time></trkpt><trkpt lat="42.89805820501459" lon="13.691080006980124"><ele>173.25</ele><time>2026-04-18T07:49:23.001Z</time></trkpt><trkpt lat="42.89812012417985" lon="13.690908024468364"><ele>175.5</ele><time>2026-04-18T07:49:24.001Z</time></trkpt><trkpt lat="42.898194645738904" lon="13.690748644543723"><ele>177.75</ele><time>2026-04-18T07:49:25.001Z</time></trkpt><trkpt lat="42.898269307463714" lon="13.690596317944301"><ele>180.0</ele><time>2026-04-18T07:49:26.001Z</time></trkpt><trkpt lat="42.89834061882212" lon="13.690431721906684"><ele>179.66666666666666</ele><time>2026-04-18T07:49:27.001Z</time></trkpt><trkpt lat="42.898400936177524" lon="13.690249825269223"><ele>179.33333333333331</ele><time>2026-04-18T07:49:28.001Z</time></trkpt><trkpt lat="42.89844618621261" lon="13.690044289992855"><ele>179.0</ele><time>2026-04-18T07:49:29.001Z</time></trkpt><trkpt lat="42.89848890343124" lon="13.689851217102913"><ele>178.25</ele><time>2026-04-18T07:49:30.001Z</time></trkpt><trkpt lat="42.89853787887206" lon="13.689686313156967"><ele>177.5</ele><time>2026-04-18T07:49:31.001Z</time></trkpt><trkpt lat="42.89857938346104" lon="13.689540911796023"><ele>176.75</ele><time>2026-04-18T07:49:32.001Z</time></trkpt><trkpt lat="42.89861732330553" lon="13.689401138536942"><ele>176.0</ele><time>2026-04-18T07:49:33.001Z</time></trkpt><trkpt lat="42.898656751455206" lon="13.689261995398526"><ele>178.25</ele><time>2026-04-18T07:49:34.001Z</time></trkpt><trkpt lat="42.89872909649329" lon="13.689127753379637"><ele>180.5</ele><time>2026-04-18T07:49:35.001Z</time></trkpt><trkpt lat="42.89879903440883" lon="13.688995257181686"><ele>182.75</ele><time>2026-04-18T07:49:36.001Z</time></trkpt><trkpt lat="42.89888632295715" lon="13.688856444044147"><ele>185.0</ele><time>2026-04-18T07:49:37.001Z</time></trkpt><trkpt lat="42.898971478378954" lon="13.68872304613486"><ele>185.5</ele><time>2026-04-18T07:49:38.001Z</time></trkpt><trkpt lat="42.899062847657326" lon="13.688579913930687"><ele>186.0</ele><time>2026-04-18T07:49:39.001Z</time></trkpt><trkpt lat="42.899147397400355" lon="13.688428191177952"><ele>186.5</ele><time>2026-04-18T07:49:40.001Z</time></trkpt><trkpt lat="42.89922994566512" lon="13.688300399486259"><ele>187.0</ele><time>2026-04-18T07:49:41.001Z</time></trkpt><trkpt lat="42.899314299664034" lon="13.688173403567387"><ele>185.75</ele><time>2026-04-18T07:49:42.001Z</time></trkpt><trkpt lat="42.89940080790241" lon="13.688047358842434"><ele>184.5</ele><time>2026-04-18T07:49:43.001Z</time></trkpt><trkpt lat="42.89948994027536" lon="13.68791780463343"><ele>183.25</ele><time>2026-04-18T07:49:44.001Z</time></trkpt><trkpt lat="42.89958845625128" lon="13.687777469957336"><ele>182.0</ele><time>2026-04-18T07:49:45.001Z</time></trkpt><trkpt lat="42.89969201054438" lon="13.687638093384496"><ele>182.0</ele><time>2026-04-18T07:49:46.001Z</time></trkpt><trkpt lat="42.89978477226971" lon="13.687517198498853"><ele>182.0</ele><time>2026-04-18T07:49:47.001Z</time></trkpt><trkpt lat="42.89986775206046" lon="13.687382759180336"><ele>182.0</ele><time>2026-04-18T07:49:48.001Z</time></trkpt><trkpt lat="42.899943746754325" lon="13.687250429302932"><ele>182.0</ele><time>2026-04-18T07:49:49.001Z</time></trkpt><trkpt lat="42.90002332023387" lon="13.68712169051845"><ele>179.25</ele><time>2026-04-18T07:49:50.001Z</time></trkpt><trkpt lat="42.900100061649326" lon="13.686987640862773"><ele>176.5</ele><time>2026-04-18T07:49:51.001Z</time></trkpt><trkpt lat="42.90017846060782" lon="13.686853674337314"><ele>173.75</ele><time>2026-04-18T07:49:52.001Z</time></trkpt><trkpt lat="42.90024832247374" lon="13.686716048472563"><ele>171.0</ele><time>2026-04-18T07:49:53.001Z</time></trkpt><trkpt lat="42.900315069733985" lon="13.68656159402422"><ele>171.0</ele><time>2026-04-18T07:49:54.001Z</time></trkpt><trkpt lat="42.900375409603704" lon="13.686398901549472"><ele>171.0</ele><time>2026-04-18T07:49:55.001Z</time></trkpt><trkpt lat="42.9004334772333" lon="13.68624029986665"><ele>171.0</ele><time>2026-04-18T07:49:56.001Z</time></trkpt><trkpt lat="42.900475426765105" lon="13.686066664330303"><ele>171.0</ele><time>2026-04-18T07:49:57.001Z</time></trkpt><trkpt lat="42.90050282631461" lon="13.685891990207674"><ele>171.5</ele><time>2026-04-18T07:49:58.001Z</time></trkpt><trkpt lat="42.90052841937972" lon="13.685728258256834"><ele>172.0</ele><time>2026-04-18T07:49:59.001Z</time></trkpt><trkpt lat="42.90053982697649" lon="13.685552988022105"><ele>172.5</ele><time>2026-04-18T07:50:00.001Z</time></trkpt><trkpt lat="42.900529419752274" lon="13.685369347775687"><ele>173.0</ele><time>2026-04-18T07:50:01.001Z</time></trkpt><trkpt lat="42.90049590757958" lon="13.685183486412143"><ele>173.5</ele><time>2026-04-18T07:50:02.001Z</time></trkpt><trkpt lat="42.90047378654568" lon="13.685008085091566"><ele>174.0</ele><time>2026-04-18T07:50:03.001Z</time></trkpt><trkpt lat="42.90046457416419" lon="13.684853727595824"><ele>174.5</ele><time>2026-04-18T07:50:04.001Z</time></trkpt><trkpt lat="42.900483265175836" lon="13.68470291936212"><ele>175.0</ele><time>2026-04-18T07:50:05.001Z</time></trkpt><trkpt lat="42.900503697496156" lon="13.68456828461796"><ele>175.0</ele><time>2026-04-18T07:50:06.001Z</time></trkpt><trkpt lat="42.90053943223622" lon="13.684454645971188"><ele>175.0</ele><time>2026-04-18T07:50:07.001Z</time></trkpt><trkpt lat="42.900585746255175" lon="13.684328409290618"><ele>175.0</ele><time>2026-04-18T07:50:08.001Z</time></trkpt><trkpt lat="42.90065042104607" lon="13.684179116488767"><ele>175.0</ele><time>2026-04-18T07:50:09.001Z</time></trkpt><trkpt lat="42.90072601048112" lon="13.684022831875371"><ele>174.0</ele><time>2026-04-18T07:50:10.001Z</time></trkpt><trkpt lat="42.900806733206906" lon="13.683890662691892"><ele>173.0</ele><time>2026-04-18T07:50:11.001Z</time></trkpt><trkpt lat="42.90089717058541" lon="13.683748913371423"><ele>172.0</ele><time>2026-04-18T07:50:12.001Z</time></trkpt><trkpt lat="42.90098283614069" lon="13.683607598937998"><ele>171.0</ele><time>2026-04-18T07:50:13.001Z</time></trkpt><trkpt lat="42.901056903640544" lon="13.683453548796981"><ele>170.25</ele><time>2026-04-18T07:50:14.001Z</time></trkpt><trkpt lat="42.90114257465053" lon="13.683314522018712"><ele>169.5</ele><time>2026-04-18T07:50:15.001Z</time></trkpt><trkpt lat="42.90122876742848" lon="13.683171886972554"><ele>168.75</ele><time>2026-04-18T07:50:16.001Z</time></trkpt><trkpt lat="42.90131326941833" lon="13.683041016141907"><ele>168.0</ele><time>2026-04-18T07:50:17.001Z</time></trkpt><trkpt lat="42.90139204043815" lon="13.682896926575426"><ele>167.5</ele><time>2026-04-18T07:50:18.001Z</time></trkpt><trkpt lat="42.90144452381775" lon="13.682762696954443"><ele>167.0</ele><time>2026-04-18T07:50:19.001Z</time></trkpt><trkpt lat="42.90147992448554" lon="13.682621280540914"><ele>166.5</ele><time>2026-04-18T07:50:20.001Z</time></trkpt><trkpt lat="42.901505131908095" lon="13.682461184695443"><ele>166.0</ele><time>2026-04-18T07:50:21.001Z</time></trkpt><trkpt lat="42.90152266244168" lon="13.682287922471513"><ele>166.0</ele><time>2026-04-18T07:50:22.001Z</time></trkpt><trkpt lat="42.90154344575918" lon="13.682115798707567"><ele>166.0</ele><time>2026-04-18T07:50:23.001Z</time></trkpt><trkpt lat="42.90157656402738" lon="13.681953979127794"><ele>166.0</ele><time>2026-04-18T07:50:24.001Z</time></trkpt><trkpt lat="42.90161671303937" lon="13.681791486996197"><ele>166.0</ele><time>2026-04-18T07:50:25.001Z</time></trkpt><trkpt lat="42.901667617322985" lon="13.68164062241319"><ele>165.75</ele><time>2026-04-18T07:50:26.001Z</time></trkpt><trkpt lat="42.901743047699185" lon="13.681504974851226"><ele>165.5</ele><time>2026-04-18T07:50:27.001Z</time></trkpt><trkpt lat="42.90181066169938" lon="13.681362267491865"><ele>165.25</ele><time>2026-04-18T07:50:28.001Z</time></trkpt><trkpt lat="42.90188332236842" lon="13.681223523532228"><ele>165.0</ele><time>2026-04-18T07:50:29.001Z</time></trkpt><trkpt lat="42.90196233940532" lon="13.68108591128724"><ele>167.75</ele><time>2026-04-18T07:50:30.001Z</time></trkpt><trkpt lat="42.90204396979698" lon="13.680950393288041"><ele>170.5</ele><time>2026-04-18T07:50:31.001Z</time></trkpt><trkpt lat="42.902115654735404" lon="13.680806838606111"><ele>173.25</ele><time>2026-04-18T07:50:32.001Z</time></trkpt><trkpt lat="42.9021957412342" lon="13.680673723641712"><ele>176.0</ele><time>2026-04-18T07:50:33.001Z</time></trkpt><trkpt lat="42.902270600270185" lon="13.680552978684617"><ele>176.0</ele><time>2026-04-18T07:50:34.001Z</time></trkpt><trkpt lat="42.90235170466635" lon="13.680439154343835"><ele>176.0</ele><time>2026-04-18T07:50:35.001Z</time></trkpt><trkpt lat="42.90243261628377" lon="13.680327376083097"><ele>176.0</ele><time>2026-04-18T07:50:36.001Z</time></trkpt><trkpt lat="42.902493024610436" lon="13.680228959641637"><ele>176.0</ele><time>2026-04-18T07:50:37.001Z</time></trkpt><trkpt lat="42.902551957148304" lon="13.68012808984094"><ele>176.0</ele><time>2026-04-18T07:50:38.001Z</time></trkpt><trkpt lat="42.902600583027734" lon="13.680030588796546"><ele>175.8</ele><time>2026-04-18T07:50:39.001Z</time></trkpt><trkpt lat="42.902643633056236" lon="13.679923120900716"><ele>175.60000000000002</ele><time>2026-04-18T07:50:40.001Z</time></trkpt><trkpt lat="42.90266692700942" lon="13.679803022676875"><ele>175.4</ele><time>2026-04-18T07:50:41.002Z</time></trkpt><trkpt lat="42.90266031316543" lon="13.679673743200118"><ele>175.2</ele><time>2026-04-18T07:50:42.002Z</time></trkpt><trkpt lat="42.90264334056473" lon="13.679537958168156"><ele>175.0</ele><time>2026-04-18T07:50:43.002Z</time></trkpt><trkpt lat="42.902615959385294" lon="13.679395771570217"><ele>175.25</ele><time>2026-04-18T07:50:44.002Z</time></trkpt><trkpt lat="42.902576653648616" lon="13.679248446219294"><ele>175.5</ele><time>2026-04-18T07:50:45.002Z</time></trkpt><trkpt lat="42.90253628480631" lon="13.679093726903425"><ele>175.75</ele><time>2026-04-18T07:50:46.002Z</time></trkpt><trkpt lat="42.9025219058408" lon="13.678927649465253"><ele>176.0</ele><time>2026-04-18T07:50:47.002Z</time></trkpt><trkpt lat="42.9025166631647" lon="13.67877316477539"><ele>176.75</ele><time>2026-04-18T07:50:48.002Z</time></trkpt><trkpt lat="42.90252644171183" lon="13.678600003881083"><ele>177.5</ele><time>2026-04-18T07:50:49.002Z</time></trkpt><trkpt lat="42.902549500600855" lon="13.678448796454163"><ele>178.25</ele><time>2026-04-18T07:50:50.002Z</time></trkpt><trkpt lat="42.90258635248616" lon="13.678283315345483"><ele>179.0</ele><time>2026-04-18T07:50:51.002Z</time></trkpt><trkpt lat="42.90263042396524" lon="13.678101236468676"><ele>180.0</ele><time>2026-04-18T07:50:52.002Z</time></trkpt><trkpt lat="42.90267742657251" lon="13.677905881957981"><ele>181.0</ele><time>2026-04-18T07:50:53.002Z</time></trkpt><trkpt lat="42.902726927600966" lon="13.677698333258267"><ele>182.0</ele><time>2026-04-18T07:50:54.002Z</time></trkpt><trkpt lat="42.90276904002802" lon="13.677518341070169"><ele>183.0</ele><time>2026-04-18T07:50:55.002Z</time></trkpt><trkpt lat="42.90281407815496" lon="13.677323665615134"><ele>183.0</ele><time>2026-04-18T07:50:56.002Z</time></trkpt><trkpt lat="42.902841803376084" lon="13.67713596056084"><ele>183.0</ele><time>2026-04-18T07:50:57.002Z</time></trkpt><trkpt lat="42.90287926898744" lon="13.6769825812703"><ele>183.0</ele><time>2026-04-18T07:50:58.002Z</time></trkpt><trkpt lat="42.902903609014" lon="13.676836569810206"><ele>183.0</ele><time>2026-04-18T07:50:59.002Z</time></trkpt><trkpt lat="42.90290640433102" lon="13.67668270670749"><ele>183.4</ele><time>2026-04-18T07:51:00.002Z</time></trkpt><trkpt lat="42.902896214855716" lon="13.676516789336516"><ele>183.8</ele><time>2026-04-18T07:51:01.002Z</time></trkpt><trkpt lat="42.90288577167685" lon="13.676349133580407"><ele>184.2</ele><time>2026-04-18T07:51:02.002Z</time></trkpt><trkpt lat="42.9029037621734" lon="13.676216608721925"><ele>184.6</ele><time>2026-04-18T07:51:03.002Z</time></trkpt><trkpt lat="42.90292686307866" lon="13.676088392666738"><ele>185.0</ele><time>2026-04-18T07:51:04.002Z</time></trkpt><trkpt lat="42.902973143986536" lon="13.675943880507328"><ele>186.0</ele><time>2026-04-18T07:51:05.002Z</time></trkpt><trkpt lat="42.903025391654005" lon="13.675782526926243"><ele>187.0</ele><time>2026-04-18T07:51:06.002Z</time></trkpt><trkpt lat="42.903063046067565" lon="13.675648114272185"><ele>188.0</ele><time>2026-04-18T07:51:07.002Z</time></trkpt><trkpt lat="42.903082960700175" lon="13.675506448169813"><ele>189.0</ele><time>2026-04-18T07:51:08.002Z</time></trkpt><trkpt lat="42.90311113326643" lon="13.675369416126907"><ele>190.0</ele><time>2026-04-18T07:51:09.002Z</time></trkpt><trkpt lat="42.903130685812215" lon="13.675249298754593"><ele>191.0</ele><time>2026-04-18T07:51:10.002Z</time></trkpt><trkpt lat="42.903123829218316" lon="13.675148998176663"><ele>192.0</ele><time>2026-04-18T07:51:11.002Z</time></trkpt><trkpt lat="42.90307283181739" lon="13.675017156344033"><ele>193.0</ele><time>2026-04-18T07:51:13.002Z</time></trkpt><trkpt lat="42.902911858545664" lon="13.675048636925762"><ele>194.0</ele><time>2026-04-18T07:51:17.002Z</time></trkpt><trkpt lat="42.90283111862672" lon="13.67510408319918"><ele>195.0</ele><time>2026-04-18T07:51:18.002Z</time></trkpt><trkpt lat="42.902753423262446" lon="13.675150144014246"><ele>195.0</ele><time>2026-04-18T07:51:19.002Z</time></trkpt><trkpt lat="42.90265668982562" lon="13.675201182351344"><ele>195.0</ele><time>2026-04-18T07:51:20.002Z</time></trkpt><trkpt lat="42.902557298876474" lon="13.675239312754854"><ele>195.0</ele><time>2026-04-18T07:51:21.002Z</time></trkpt><trkpt lat="42.902463458504606" lon="13.675262182497114"><ele>195.0</ele><time>2026-04-18T07:51:22.002Z</time></trkpt><trkpt lat="42.90237946669937" lon="13.675266610309798"><ele>195.0</ele><time>2026-04-18T07:51:23.002Z</time></trkpt><trkpt lat="42.90229054280969" lon="13.675242880446328"><ele>195.0</ele><time>2026-04-18T07:51:24.002Z</time></trkpt><trkpt lat="42.90219544839591" lon="13.67525839464676"><ele>195.0</ele><time>2026-04-18T07:51:25.002Z</time></trkpt><trkpt lat="42.90212261753327" lon="13.67507330935966"><ele>195.0</ele><time>2026-04-18T07:51:26.002Z</time></trkpt><trkpt lat="42.90204805488971" lon="13.674961377534558"><ele>195.0</ele><time>2026-04-18T07:51:27.002Z</time></trkpt><trkpt lat="42.90196982400668" lon="13.67483009043374"><ele>195.0</ele><time>2026-04-18T07:51:28Z</time></trkpt><trkpt lat="42.90190069264114" lon="13.674710646585844"><ele>195.0</ele><time>2026-04-18T07:51:29Z</time></trkpt><trkpt lat="42.901895798395074" lon="13.674522711448512"><ele>195.0</ele><time>2026-04-18T07:51:30Z</time></trkpt><trkpt lat="42.90184209016011" lon="13.674340901125921"><ele>195.0</ele><time>2026-04-18T07:51:31Z</time></trkpt><trkpt lat="42.90179755480382" lon="13.674141889266414"><ele>194.25</ele><time>2026-04-18T07:51:32Z</time></trkpt><trkpt lat="42.90175380342434" lon="13.67392331544721"><ele>193.5</ele><time>2026-04-18T07:51:33Z</time></trkpt><trkpt lat="42.901714381542256" lon="13.673742947727163"><ele>192.75</ele><time>2026-04-18T07:51:34Z</time></trkpt><trkpt lat="42.90167105717716" lon="13.673566543486297"><ele>192.0</ele><time>2026-04-18T07:51:35Z</time></trkpt><trkpt lat="42.90161106797735" lon="13.673411965439444"><ele>190.75</ele><time>2026-04-18T07:51:36Z</time></trkpt><trkpt lat="42.901560498089616" lon="13.673258959305738"><ele>189.5</ele><time>2026-04-18T07:51:37Z</time></trkpt><trkpt lat="42.90148694435141" lon="13.673103644157345"><ele>188.25</ele><time>2026-04-18T07:51:38Z</time></trkpt><trkpt lat="42.90140652241466" lon="13.672960665588601"><ele>187.0</ele><time>2026-04-18T07:51:39Z</time></trkpt><trkpt lat="42.901337918277136" lon="13.672821616807349"><ele>184.0</ele><time>2026-04-18T07:51:40Z</time></trkpt><trkpt lat="42.901260408366475" lon="13.672713693931083"><ele>181.0</ele><time>2026-04-18T07:51:41Z</time></trkpt><trkpt lat="42.90118674985498" lon="13.672638213364415"><ele>178.0</ele><time>2026-04-18T07:51:42Z</time></trkpt><trkpt lat="42.901132770558185" lon="13.672592168314411"><ele>175.0</ele><time>2026-04-18T07:51:43Z</time></trkpt><trkpt lat="42.90112350355195" lon="13.672496730516913"><ele>172.0</ele><time>2026-04-18T07:51:45Z</time></trkpt><trkpt lat="42.90124521523116" lon="13.672527497342639"><ele>172.0</ele><time>2026-04-18T07:51:47Z</time></trkpt><trkpt lat="42.901315194771016" lon="13.67258023613004"><ele>172.0</ele><time>2026-04-18T07:51:48Z</time></trkpt><trkpt lat="42.90138255001376" lon="13.672653667878748"><ele>172.0</ele><time>2026-04-18T07:51:49Z</time></trkpt><trkpt lat="42.90146742771488" lon="13.672751857077436"><ele>172.0</ele><time>2026-04-18T07:51:50Z</time></trkpt><trkpt lat="42.90154535292698" lon="13.672865203062388"><ele>172.0</ele><time>2026-04-18T07:51:51Z</time></trkpt><trkpt lat="42.901625359459544" lon="13.672981150976332"><ele>175.75</ele><time>2026-04-18T07:51:52Z</time></trkpt><trkpt lat="42.901738106723194" lon="13.67308319463933"><ele>179.5</ele><time>2026-04-18T07:51:53Z</time></trkpt><trkpt lat="42.90184097999487" lon="13.673174967729436"><ele>183.25</ele><time>2026-04-18T07:51:54Z</time></trkpt><trkpt lat="42.901934130406985" lon="13.67325042146452"><ele>187.0</ele><time>2026-04-18T07:51:55Z</time></trkpt><trkpt lat="42.902020571939566" lon="13.673310861763996"><ele>187.16666666666669</ele><time>2026-04-18T07:51:56Z</time></trkpt><trkpt lat="42.90209356258912" lon="13.673319884195521"><ele>187.33333333333334</ele><time>2026-04-18T07:51:57Z</time></trkpt><trkpt lat="42.902131743806656" lon="13.673229130424431"><ele>187.5</ele><time>2026-04-18T07:51:58Z</time></trkpt><trkpt lat="42.90217024062866" lon="13.673090073744925"><ele>187.66666666666666</ele><time>2026-04-18T07:52:00Z</time></trkpt><trkpt lat="42.9021820381559" lon="13.672989733899557"><ele>187.83333333333331</ele><time>2026-04-18T07:52:01Z</time></trkpt><trkpt lat="42.90217319481681" lon="13.672862258705663"><ele>188.0</ele><time>2026-04-18T07:52:02Z</time></trkpt><trkpt lat="42.90215496086245" lon="13.672719555542146"><ele>187.66666666666666</ele><time>2026-04-18T07:52:03Z</time></trkpt><trkpt lat="42.902149986154534" lon="13.672577732573695"><ele>187.33333333333331</ele><time>2026-04-18T07:52:04Z</time></trkpt><trkpt lat="42.90212669231014" lon="13.672471030923955"><ele>187.0</ele><time>2026-04-18T07:52:05Z</time></trkpt><trkpt lat="42.90210036406972" lon="13.6723578302084"><ele>186.66666666666666</ele><time>2026-04-18T07:52:06.001Z</time></trkpt><trkpt lat="42.90209350197286" lon="13.672263277038489"><ele>186.33333333333334</ele><time>2026-04-18T07:52:07.001Z</time></trkpt><trkpt lat="42.90208105528249" lon="13.672159694735843"><ele>186.0</ele><time>2026-04-18T07:52:08.001Z</time></trkpt><trkpt lat="42.90207019471163" lon="13.672054816488568"><ele>186.0</ele><time>2026-04-18T07:52:09.001Z</time></trkpt><trkpt lat="42.90206216808412" lon="13.671959232739356"><ele>186.0</ele><time>2026-04-18T07:52:10.001Z</time></trkpt><trkpt lat="42.902062841960756" lon="13.67178859172031"><ele>186.0</ele><time>2026-04-18T07:52:12.001Z</time></trkpt><trkpt lat="42.902047208557235" lon="13.671653218097196"><ele>186.0</ele><time>2026-04-18T07:52:14.001Z</time></trkpt><trkpt lat="42.902065523790945" lon="13.671557096598947"><ele>186.0</ele><time>2026-04-18T07:52:16.001Z</time></trkpt><trkpt lat="42.90207094114677" lon="13.671449470272082"><ele>186.0</ele><time>2026-04-18T07:52:19.001Z</time></trkpt><trkpt lat="42.90207913882896" lon="13.671355297956396"><ele>184.83333333333334</ele><time>2026-04-18T07:52:22.001Z</time></trkpt><trkpt lat="42.90206658236203" lon="13.671254657939224"><ele>183.66666666666666</ele><time>2026-04-18T07:52:58.001Z</time></trkpt><trkpt lat="42.902078913289785" lon="13.67117013313095"><ele>182.5</ele><time>2026-04-18T07:52:59.001Z</time></trkpt><trkpt lat="42.90213146621733" lon="13.671061419865845"><ele>181.33333333333331</ele><time>2026-04-18T07:53:01.002Z</time></trkpt><trkpt lat="42.902228288242995" lon="13.671021402254206"><ele>180.16666666666666</ele><time>2026-04-18T07:53:03.002Z</time></trkpt><trkpt lat="42.90229816283333" lon="13.671007546507889"><ele>179.0</ele><time>2026-04-18T07:53:04.002Z</time></trkpt><trkpt lat="42.90236881121614" lon="13.67101276014751"><ele>180.0</ele><time>2026-04-18T07:53:05.002Z</time></trkpt><trkpt lat="42.902439140345194" lon="13.671028924483846"><ele>181.0</ele><time>2026-04-18T07:53:06.002Z</time></trkpt><trkpt lat="42.90250453329156" lon="13.67103431076174"><ele>182.0</ele><time>2026-04-18T07:53:07.002Z</time></trkpt><trkpt lat="42.902623844034736" lon="13.671034871652646"><ele>183.0</ele><time>2026-04-18T07:53:09.002Z</time></trkpt><trkpt lat="42.90270605086805" lon="13.670915172380386"><ele>184.0</ele><time>2026-04-18T07:53:11.002Z</time></trkpt><trkpt lat="42.9026875927997" lon="13.670818357020085"><ele>184.0</ele><time>2026-04-18T07:53:12.002Z</time></trkpt><trkpt lat="42.90263582738588" lon="13.670689623057262"><ele>184.0</ele><time>2026-04-18T07:53:14.002Z</time></trkpt><trkpt lat="42.90254955172185" lon="13.670628210481377"><ele>184.0</ele><time>2026-04-18T07:53:15.002Z</time></trkpt><trkpt lat="42.90243764630522" lon="13.670474418241668"><ele>184.0</ele><time>2026-04-18T07:53:16.002Z</time></trkpt><trkpt lat="42.90233890288918" lon="13.670326625427489"><ele>179.33333333333334</ele><time>2026-04-18T07:53:17.002Z</time></trkpt><trkpt lat="42.90226940244793" lon="13.670174204864438"><ele>174.66666666666669</ele><time>2026-04-18T07:53:18.002Z</time></trkpt><trkpt lat="42.90222361062827" lon="13.670050109438208"><ele>170.0</ele><time>2026-04-18T07:53:19.002Z</time></trkpt><trkpt lat="42.902208262356446" lon="13.669945173808394"><ele>165.33333333333334</ele><time>2026-04-18T07:53:20.002Z</time></trkpt><trkpt lat="42.90221117335019" lon="13.66984441223427"><ele>160.66666666666666</ele><time>2026-04-18T07:53:21.002Z</time></trkpt><trkpt lat="42.90225597553511" lon="13.669784019513726"><ele>156.0</ele><time>2026-04-18T07:53:22.002Z</time></trkpt><trkpt lat="42.90232752733937" lon="13.669723954909971"><ele>156.0</ele><time>2026-04-18T07:53:23.002Z</time></trkpt><trkpt lat="42.90241311834403" lon="13.66967754902403"><ele>156.0</ele><time>2026-04-18T07:53:24.002Z</time></trkpt><trkpt lat="42.90254771790406" lon="13.66959055751091"><ele>156.0</ele><time>2026-04-18T07:53:25.002Z</time></trkpt><trkpt lat="42.90269374996127" lon="13.669496858061613"><ele>156.0</ele><time>2026-04-18T07:53:26.002Z</time></trkpt><trkpt lat="42.902830838231125" lon="13.669411440775"><ele>154.0</ele><time>2026-04-18T07:53:27.002Z</time></trkpt><trkpt lat="42.90296855736755" lon="13.669328440895566"><ele>152.0</ele><time>2026-04-18T07:53:28.002Z</time></trkpt><trkpt lat="42.90307315999971" lon="13.669239443473694"><ele>150.0</ele><time>2026-04-18T07:53:29.002Z</time></trkpt><trkpt lat="42.9031550871383" lon="13.669148178619038"><ele>148.0</ele><time>2026-04-18T07:53:30.002Z</time></trkpt><trkpt lat="42.9032229569111" lon="13.669056102088621"><ele>148.0</ele><time>2026-04-18T07:53:31.002Z</time></trkpt><trkpt lat="42.90326618618065" lon="13.668957349589913"><ele>148.0</ele><time>2026-04-18T07:53:32.002Z</time></trkpt><trkpt lat="42.90331170357289" lon="13.668859025944275"><ele>148.0</ele><time>2026-04-18T07:53:33.002Z</time></trkpt><trkpt lat="42.90333378735264" lon="13.668746770404608"><ele>148.0</ele><time>2026-04-18T07:53:34.001Z</time></trkpt><trkpt lat="42.9032826139223" lon="13.66864420682192"><ele>148.0</ele><time>2026-04-18T07:53:35.001Z</time></trkpt><trkpt lat="42.9032458049334" lon="13.66853436482298"><ele>148.0</ele><time>2026-04-18T07:53:36.001Z</time></trkpt><trkpt lat="42.90320830371542" lon="13.668417399698521"><ele>145.20000000000002</ele><time>2026-04-18T07:53:37.001Z</time></trkpt><trkpt lat="42.90316012336044" lon="13.668293717405579"><ele>142.4</ele><time>2026-04-18T07:53:38.001Z</time></trkpt><trkpt lat="42.903102238036574" lon="13.668196247087916"><ele>139.60000000000002</ele><time>2026-04-18T07:53:39.001Z</time></trkpt><trkpt lat="42.90303872464788" lon="13.668120107620426"><ele>136.8</ele><time>2026-04-18T07:53:40.001Z</time></trkpt><trkpt lat="42.90295452121411" lon="13.668056491040462"><ele>134.0</ele><time>2026-04-18T07:53:41.001Z</time></trkpt><trkpt lat="42.9028511443633" lon="13.668079349040646"><ele>134.0</ele><time>2026-04-18T07:53:42.001Z</time></trkpt><trkpt lat="42.90275595460572" lon="13.668134219418747"><ele>134.0</ele><time>2026-04-18T07:53:43.001Z</time></trkpt><trkpt lat="42.902649489585684" lon="13.668191168223744"><ele>134.0</ele><time>2026-04-18T07:53:44.001Z</time></trkpt><trkpt lat="42.90254702738684" lon="13.668247282445094"><ele>134.0</ele><time>2026-04-18T07:53:45.001Z</time></trkpt><trkpt lat="42.90244394646916" lon="13.668301798266292"><ele>134.0</ele><time>2026-04-18T07:53:46.001Z</time></trkpt><trkpt lat="42.902299817482444" lon="13.668258480488353"><ele>135.25</ele><time>2026-04-18T07:53:47.001Z</time></trkpt><trkpt lat="42.902153594836335" lon="13.668251248570428"><ele>136.5</ele><time>2026-04-18T07:53:48.001Z</time></trkpt><trkpt lat="42.90202986214162" lon="13.668254192814645"><ele>137.75</ele><time>2026-04-18T07:53:49.001Z</time></trkpt><trkpt lat="42.90193096042255" lon="13.668266560655669"><ele>139.0</ele><time>2026-04-18T07:53:50.001Z</time></trkpt><trkpt lat="42.90184249673902" lon="13.668228437694188"><ele>139.0</ele><time>2026-04-18T07:53:51.001Z</time></trkpt><trkpt lat="42.9017749632251" lon="13.668166660438795"><ele>139.0</ele><time>2026-04-18T07:53:52.001Z</time></trkpt><trkpt lat="42.90175022685762" lon="13.668069733512592"><ele>139.0</ele><time>2026-04-18T07:53:53.001Z</time></trkpt><trkpt lat="42.901780044257094" lon="13.66799045663037"><ele>139.0</ele><time>2026-04-18T07:53:54.001Z</time></trkpt><trkpt lat="42.9018095625044" lon="13.667910651897994"><ele>139.0</ele><time>2026-04-18T07:53:55.001Z</time></trkpt><trkpt lat="42.90188014768782" lon="13.667852563291879"><ele>139.0</ele><time>2026-04-18T07:53:56.001Z</time></trkpt><trkpt lat="42.90194488145467" lon="13.667762875886977"><ele>140.0</ele><time>2026-04-18T07:53:57.001Z</time></trkpt><trkpt lat="42.90202408258667" lon="13.667656321774555"><ele>141.0</ele><time>2026-04-18T07:53:58.001Z</time></trkpt><trkpt lat="42.90211173827043" lon="13.667540654579641"><ele>142.0</ele><time>2026-04-18T07:53:59.001Z</time></trkpt><trkpt lat="42.90222398322884" lon="13.667397643592002"><ele>143.0</ele><time>2026-04-18T07:54:00.001Z</time></trkpt><trkpt lat="42.90233955715323" lon="13.667248243503582"><ele>143.0</ele><time>2026-04-18T07:54:01.001Z</time></trkpt><trkpt lat="42.90247823602092" lon="13.667043139333638"><ele>143.0</ele><time>2026-04-18T07:54:02.001Z</time></trkpt><trkpt lat="42.90259584771269" lon="13.666872875815665"><ele>143.0</ele><time>2026-04-18T07:54:03.001Z</time></trkpt><trkpt lat="42.90269662750941" lon="13.666737443659114"><ele>146.25</ele><time>2026-04-18T07:54:04.001Z</time></trkpt><trkpt lat="42.902793789001244" lon="13.666598642933494"><ele>149.5</ele><time>2026-04-18T07:54:05.001Z</time></trkpt><trkpt lat="42.90293282633946" lon="13.666533995195037"><ele>152.75</ele><time>2026-04-18T07:54:06.001Z</time></trkpt><trkpt lat="42.90306959189139" lon="13.666495643412807"><ele>156.0</ele><time>2026-04-18T07:54:07.001Z</time></trkpt><trkpt lat="42.90322223958519" lon="13.666482025979635"><ele>156.0</ele><time>2026-04-18T07:54:08.001Z</time></trkpt><trkpt lat="42.903378539870296" lon="13.666446533943683"><ele>156.0</ele><time>2026-04-18T07:54:09.001Z</time></trkpt><trkpt lat="42.90352078163982" lon="13.66640016149551"><ele>156.0</ele><time>2026-04-18T07:54:10.001Z</time></trkpt><trkpt lat="42.90363677194008" lon="13.66634570055412"><ele>156.0</ele><time>2026-04-18T07:54:11.001Z</time></trkpt><trkpt lat="42.903738834705955" lon="13.666264895223035"><ele>157.25</ele><time>2026-04-18T07:54:12.001Z</time></trkpt><trkpt lat="42.90383618475948" lon="13.666174172691969"><ele>158.5</ele><time>2026-04-18T07:54:13.001Z</time></trkpt><trkpt lat="42.90394061720462" lon="13.666070637002303"><ele>159.75</ele><time>2026-04-18T07:54:14.001Z</time></trkpt><trkpt lat="42.90404793380313" lon="13.665952578448955"><ele>161.0</ele><time>2026-04-18T07:54:15.001Z</time></trkpt><trkpt lat="42.904169542405825" lon="13.665857375813147"><ele>162.75</ele><time>2026-04-18T07:54:16.001Z</time></trkpt><trkpt lat="42.90425548012404" lon="13.665730279326453"><ele>164.5</ele><time>2026-04-18T07:54:17.001Z</time></trkpt><trkpt lat="42.9043208829803" lon="13.665575946550854"><ele>166.25</ele><time>2026-04-18T07:54:18.001Z</time></trkpt><trkpt lat="42.90438121876293" lon="13.66541413997943"><ele>168.0</ele><time>2026-04-18T07:54:19.001Z</time></trkpt><trkpt lat="42.90437323784179" lon="13.665190543747418"><ele>172.0</ele><time>2026-04-18T07:54:20.001Z</time></trkpt><trkpt lat="42.90443159023069" lon="13.664975013939927"><ele>176.0</ele><time>2026-04-18T07:54:21.001Z</time></trkpt><trkpt lat="42.90449528097954" lon="13.664754626986056"><ele>180.0</ele><time>2026-04-18T07:54:22.001Z</time></trkpt><trkpt lat="42.904595825197994" lon="13.66453204644071"><ele>185.0</ele><time>2026-04-18T07:54:23.001Z</time></trkpt><trkpt lat="42.90470059808807" lon="13.664343448523443"><ele>190.0</ele><time>2026-04-18T07:54:24.001Z</time></trkpt><trkpt lat="42.90481647856892" lon="13.66417670737982"><ele>195.0</ele><time>2026-04-18T07:54:25.001Z</time></trkpt><trkpt lat="42.90495523589212" lon="13.664001389271572"><ele>196.0</ele><time>2026-04-18T07:54:26.001Z</time></trkpt><trkpt lat="42.90508805784599" lon="13.663825997021737"><ele>197.0</ele><time>2026-04-18T07:54:27.001Z</time></trkpt><trkpt lat="42.90523912723916" lon="13.663642308040998"><ele>198.0</ele><time>2026-04-18T07:54:28.001Z</time></trkpt><trkpt lat="42.90539799930003" lon="13.66344214579088"><ele>198.0</ele><time>2026-04-18T07:54:29.001Z</time></trkpt><trkpt lat="42.90556600908168" lon="13.663246543695895"><ele>198.0</ele><time>2026-04-18T07:54:30.001Z</time></trkpt><trkpt lat="42.90572588179002" lon="13.663058515203682"><ele>198.0</ele><time>2026-04-18T07:54:31.001Z</time></trkpt><trkpt lat="42.90588019071858" lon="13.662877521535439"><ele>197.0</ele><time>2026-04-18T07:54:32.001Z</time></trkpt><trkpt lat="42.90602035485861" lon="13.662709160608172"><ele>196.0</ele><time>2026-04-18T07:54:33.001Z</time></trkpt><trkpt lat="42.906143822721305" lon="13.662533431642354"><ele>195.0</ele><time>2026-04-18T07:54:34.001Z</time></trkpt><trkpt lat="42.906250326558045" lon="13.662319442832656"><ele>195.0</ele><time>2026-04-18T07:54:35.001Z</time></trkpt><trkpt lat="42.90634995909814" lon="13.662084166076108"><ele>195.0</ele><time>2026-04-18T07:54:36.001Z</time></trkpt><trkpt lat="42.90644120778338" lon="13.661882761730999"><ele>195.0</ele><time>2026-04-18T07:54:37.001Z</time></trkpt><trkpt lat="42.90655584066134" lon="13.661731606994774"><ele>197.66666666666669</ele><time>2026-04-18T07:54:38.001Z</time></trkpt><trkpt lat="42.906677618189825" lon="13.661547367718052"><ele>200.33333333333334</ele><time>2026-04-18T07:54:39.001Z</time></trkpt><trkpt lat="42.9068426804653" lon="13.661364599793698"><ele>203.0</ele><time>2026-04-18T07:54:40.001Z</time></trkpt><trkpt lat="42.90700630288523" lon="13.66117533061295"><ele>207.33333333333334</ele><time>2026-04-18T07:54:41.001Z</time></trkpt><trkpt lat="42.90715065397566" lon="13.660995766360505"><ele>211.66666666666669</ele><time>2026-04-18T07:54:42.001Z</time></trkpt><trkpt lat="42.907307356145324" lon="13.660861014584908"><ele>216.0</ele><time>2026-04-18T07:54:43.001Z</time></trkpt><trkpt lat="42.9074448524086" lon="13.66074406311296"><ele>215.33333333333331</ele><time>2026-04-18T07:54:44.001Z</time></trkpt><trkpt lat="42.907580620500795" lon="13.660652766138389"><ele>214.66666666666666</ele><time>2026-04-18T07:54:45.001Z</time></trkpt><trkpt lat="42.907718985799235" lon="13.66057611492361"><ele>214.0</ele><time>2026-04-18T07:54:46.001Z</time></trkpt><trkpt lat="42.9078643624237" lon="13.66051300167331"><ele>214.0</ele><time>2026-04-18T07:54:47.001Z</time></trkpt><trkpt lat="42.90801593856612" lon="13.660452216464172"><ele>214.0</ele><time>2026-04-18T07:54:48.001Z</time></trkpt><trkpt lat="42.90816669337957" lon="13.660400824990838"><ele>214.0</ele><time>2026-04-18T07:54:49.001Z</time></trkpt><trkpt lat="42.908313972576394" lon="13.66035464098915"><ele>215.0</ele><time>2026-04-18T07:54:50.001Z</time></trkpt><trkpt lat="42.90846123795253" lon="13.660308408532437"><ele>216.0</ele><time>2026-04-18T07:54:51.001Z</time></trkpt><trkpt lat="42.908603679387035" lon="13.660265728598938"><ele>217.0</ele><time>2026-04-18T07:54:52.001Z</time></trkpt><trkpt lat="42.90874763975418" lon="13.660224885386402"><ele>218.0</ele><time>2026-04-18T07:54:53.001Z</time></trkpt><trkpt lat="42.90889457751062" lon="13.66019368564243"><ele>219.0</ele><time>2026-04-18T07:54:54.001Z</time></trkpt><trkpt lat="42.90906629448394" lon="13.66016546224695"><ele>220.0</ele><time>2026-04-18T07:54:55.001Z</time></trkpt><trkpt lat="42.90925749643254" lon="13.660142052134251"><ele>221.0</ele><time>2026-04-18T07:54:56.001Z</time></trkpt><trkpt lat="42.909456763273994" lon="13.660117989501076"><ele>222.5</ele><time>2026-04-18T07:54:57.001Z</time></trkpt><trkpt lat="42.909685702659004" lon="13.660065028530475"><ele>224.0</ele><time>2026-04-18T07:54:58.001Z</time></trkpt><trkpt lat="42.90992517023893" lon="13.660034653842283"><ele>226.5</ele><time>2026-04-18T07:54:59.002Z</time></trkpt><trkpt lat="42.91016498441669" lon="13.660002562793045"><ele>229.0</ele><time>2026-04-18T07:55:00.002Z</time></trkpt><trkpt lat="42.910421722991984" lon="13.659963556287023"><ele>229.0</ele><time>2026-04-18T07:55:01.002Z</time></trkpt><trkpt lat="42.91069775663848" lon="13.659922477762388"><ele>229.0</ele><time>2026-04-18T07:55:02.002Z</time></trkpt><trkpt lat="42.91095456440953" lon="13.659881439506162"><ele>233.0</ele><time>2026-04-18T07:55:03.002Z</time></trkpt><trkpt lat="42.911205554864374" lon="13.659835288234563"><ele>237.0</ele><time>2026-04-18T07:55:04.002Z</time></trkpt><trkpt lat="42.91145470654747" lon="13.659783399425836"><ele>237.0</ele><time>2026-04-18T07:55:05.002Z</time></trkpt><trkpt lat="42.9117054691687" lon="13.659723001700524"><ele>237.0</ele><time>2026-04-18T07:55:06.002Z</time></trkpt><trkpt lat="42.911938335817794" lon="13.659662207961956"><ele>241.0</ele><time>2026-04-18T07:55:07.002Z</time></trkpt><trkpt lat="42.91214207086158" lon="13.659600635170415"><ele>245.0</ele><time>2026-04-18T07:55:08.002Z</time></trkpt><trkpt lat="42.912322195808684" lon="13.659541341826026"><ele>249.0</ele><time>2026-04-18T07:55:09.002Z</time></trkpt><trkpt lat="42.91247762618674" lon="13.659443733735745"><ele>251.66666666666669</ele><time>2026-04-18T07:55:10.002Z</time></trkpt><trkpt lat="42.91263494093352" lon="13.659331705351827"><ele>254.33333333333334</ele><time>2026-04-18T07:55:11.002Z</time></trkpt><trkpt lat="42.91278129224" lon="13.65922154875285"><ele>257.0</ele><time>2026-04-18T07:55:12.002Z</time></trkpt><trkpt lat="42.91292298879238" lon="13.6590980546776"><ele>257.0</ele><time>2026-04-18T07:55:13.002Z</time></trkpt><trkpt lat="42.913039571305994" lon="13.658961130276388"><ele>257.0</ele><time>2026-04-18T07:55:14.002Z</time></trkpt><trkpt lat="42.913115936667495" lon="13.65880844929116"><ele>257.0</ele><time>2026-04-18T07:55:15.002Z</time></trkpt><trkpt lat="42.91318960815015" lon="13.658638457353003"><ele>257.0</ele><time>2026-04-18T07:55:16.002Z</time></trkpt><trkpt lat="42.913266394516995" lon="13.658457518986202"><ele>257.0</ele><time>2026-04-18T07:55:17.002Z</time></trkpt><trkpt lat="42.91334503714055" lon="13.658265298481572"><ele>257.0</ele><time>2026-04-18T07:55:18.002Z</time></trkpt><trkpt lat="42.913429402249385" lon="13.658061222305989"><ele>257.0</ele><time>2026-04-18T07:55:19.002Z</time></trkpt><trkpt lat="42.91352445809539" lon="13.65783997586671"><ele>260.33333333333337</ele><time>2026-04-18T07:55:20.002Z</time></trkpt><trkpt lat="42.913647402547745" lon="13.657587928160433"><ele>263.6666666666667</ele><time>2026-04-18T07:55:21.002Z</time></trkpt><trkpt lat="42.913751344572304" lon="13.65733596447397"><ele>267.0</ele><time>2026-04-18T07:55:22.002Z</time></trkpt><trkpt lat="42.913855068666976" lon="13.657092050702774"><ele>269.3333333333333</ele><time>2026-04-18T07:55:23.002Z</time></trkpt><trkpt lat="42.91395986981324" lon="13.656848883329149"><ele>271.66666666666663</ele><time>2026-04-18T07:55:24.002Z</time></trkpt><trkpt lat="42.91406197844704" lon="13.65660959342707"><ele>274.0</ele><time>2026-04-18T07:55:25.002Z</time></trkpt><trkpt lat="42.914148849874294" lon="13.65638690725712"><ele>274.0</ele><time>2026-04-18T07:55:26.002Z</time></trkpt><trkpt lat="42.91421768405502" lon="13.656190501459301"><ele>274.0</ele><time>2026-04-18T07:55:27.002Z</time></trkpt><trkpt lat="42.91420965123566" lon="13.656001901962902"><ele>274.0</ele><time>2026-04-18T07:55:28.002Z</time></trkpt><trkpt lat="42.914211772615054" lon="13.655816207980909"><ele>274.0</ele><time>2026-04-18T07:55:29.002Z</time></trkpt><trkpt lat="42.9142087847757" lon="13.655627651866443"><ele>276.0</ele><time>2026-04-18T07:55:30.002Z</time></trkpt><trkpt lat="42.91420476962331" lon="13.655429866399285"><ele>278.0</ele><time>2026-04-18T07:55:31.002Z</time></trkpt><trkpt lat="42.91420044229405" lon="13.655216703166962"><ele>280.0</ele><time>2026-04-18T07:55:32.002Z</time></trkpt><trkpt lat="42.91420596178991" lon="13.65499324140829"><ele>283.0</ele><time>2026-04-18T07:55:33.002Z</time></trkpt><trkpt lat="42.91419427294406" lon="13.654765715601624"><ele>286.0</ele><time>2026-04-18T07:55:34.002Z</time></trkpt><trkpt lat="42.91418840297796" lon="13.654563407096319"><ele>289.0</ele><time>2026-04-18T07:55:35.002Z</time></trkpt><trkpt lat="42.914204439866076" lon="13.654356757567154"><ele>291.25</ele><time>2026-04-18T07:55:36.002Z</time></trkpt><trkpt lat="42.91425873116939" lon="13.654186102925786"><ele>293.5</ele><time>2026-04-18T07:55:37.002Z</time></trkpt><trkpt lat="42.91431718126562" lon="13.654016834411639"><ele>295.75</ele><time>2026-04-18T07:55:38.002Z</time></trkpt><trkpt lat="42.914390293024965" lon="13.65386629131626"><ele>298.0</ele><time>2026-04-18T07:55:39.002Z</time></trkpt><trkpt lat="42.91448299009861" lon="13.653744312176553"><ele>298.0</ele><time>2026-04-18T07:55:40Z</time></trkpt><trkpt lat="42.91460453083986" lon="13.653649766090105"><ele>298.0</ele><time>2026-04-18T07:55:41Z</time></trkpt><trkpt lat="42.91471881377485" lon="13.653538128577887"><ele>298.0</ele><time>2026-04-18T07:55:42Z</time></trkpt><trkpt lat="42.91481861623995" lon="13.653407058680058"><ele>298.0</ele><time>2026-04-18T07:55:43Z</time></trkpt><trkpt lat="42.914903527327944" lon="13.653289493709979"><ele>299.0</ele><time>2026-04-18T07:55:44Z</time></trkpt><trkpt lat="42.914970371269206" lon="13.65314977436149"><ele>300.0</ele><time>2026-04-18T07:55:45Z</time></trkpt><trkpt lat="42.91502518188491" lon="13.652986049244271"><ele>301.0</ele><time>2026-04-18T07:55:46Z</time></trkpt><trkpt lat="42.91508472759449" lon="13.652795155356909"><ele>302.0</ele><time>2026-04-18T07:55:47Z</time></trkpt><trkpt lat="42.91515132694802" lon="13.652577249482873"><ele>298.6666666666667</ele><time>2026-04-18T07:55:48Z</time></trkpt><trkpt lat="42.91522806002381" lon="13.652349980193259"><ele>295.3333333333333</ele><time>2026-04-18T07:55:49Z</time></trkpt><trkpt lat="42.915292315172444" lon="13.652156538454145"><ele>292.0</ele><time>2026-04-18T07:55:50Z</time></trkpt><trkpt lat="42.91535581115121" lon="13.651966929448163"><ele>297.3333333333333</ele><time>2026-04-18T07:55:51Z</time></trkpt><trkpt lat="42.91542536798352" lon="13.651778139956916"><ele>302.6666666666667</ele><time>2026-04-18T07:55:52Z</time></trkpt><trkpt lat="42.91550225610747" lon="13.651579724574958"><ele>308.0</ele><time>2026-04-18T07:55:53Z</time></trkpt><trkpt lat="42.915580091329204" lon="13.651377839183969"><ele>308.0</ele><time>2026-04-18T07:55:54Z</time></trkpt><trkpt lat="42.915661286287886" lon="13.651161561318352"><ele>308.0</ele><time>2026-04-18T07:55:55Z</time></trkpt><trkpt lat="42.9157338901128" lon="13.6509640856937"><ele>308.0</ele><time>2026-04-18T07:55:56Z</time></trkpt><trkpt lat="42.91580441977427" lon="13.650776324818928"><ele>309.6666666666667</ele><time>2026-04-18T07:55:57Z</time></trkpt><trkpt lat="42.91588798810728" lon="13.650607159276102"><ele>311.3333333333333</ele><time>2026-04-18T07:55:58Z</time></trkpt><trkpt lat="42.915964534410776" lon="13.650417321785433"><ele>313.0</ele><time>2026-04-18T07:55:59Z</time></trkpt><trkpt lat="42.91603273832216" lon="13.65021243658673"><ele>315.3333333333333</ele><time>2026-04-18T07:56:00Z</time></trkpt><trkpt lat="42.916115520348946" lon="13.650006504059174"><ele>317.6666666666667</ele><time>2026-04-18T07:56:01Z</time></trkpt><trkpt lat="42.9161902104623" lon="13.649820181393256"><ele>320.0</ele><time>2026-04-18T07:56:02Z</time></trkpt><trkpt lat="42.9162611426489" lon="13.64965646254654"><ele>320.0</ele><time>2026-04-18T07:56:03Z</time></trkpt><trkpt lat="42.9163241878561" lon="13.649486975991405"><ele>320.0</ele><time>2026-04-18T07:56:04Z</time></trkpt><trkpt lat="42.916395550578386" lon="13.649319846882587"><ele>320.0</ele><time>2026-04-18T07:56:05Z</time></trkpt><trkpt lat="42.91648611523744" lon="13.649168601044758"><ele>320.0</ele><time>2026-04-18T07:56:06Z</time></trkpt><trkpt lat="42.91656984024587" lon="13.649008949340972"><ele>320.6666666666667</ele><time>2026-04-18T07:56:07Z</time></trkpt><trkpt lat="42.916668555542664" lon="13.64884879823307"><ele>321.3333333333333</ele><time>2026-04-18T07:56:08Z</time></trkpt><trkpt lat="42.91677889620532" lon="13.648696714328654"><ele>322.0</ele><time>2026-04-18T07:56:09Z</time></trkpt><trkpt lat="42.91689918565178" lon="13.648545975151581"><ele>322.66666666666663</ele><time>2026-04-18T07:56:10Z</time></trkpt><trkpt lat="42.91703036629623" lon="13.648386592754328"><ele>323.3333333333333</ele><time>2026-04-18T07:56:11Z</time></trkpt><trkpt lat="42.91715572340531" lon="13.648242662291182"><ele>324.0</ele><time>2026-04-18T07:56:12Z</time></trkpt><trkpt lat="42.91727918030043" lon="13.648106015456268"><ele>324.0</ele><time>2026-04-18T07:56:13Z</time></trkpt><trkpt lat="42.91738747365742" lon="13.64798821675834"><ele>324.0</ele><time>2026-04-18T07:56:14Z</time></trkpt><trkpt lat="42.917479191905386" lon="13.647889926902696"><ele>324.0</ele><time>2026-04-18T07:56:15Z</time></trkpt><trkpt lat="42.91756042154983" lon="13.647802876636543"><ele>324.0</ele><time>2026-04-18T07:56:16Z</time></trkpt><trkpt lat="42.91763099829013" lon="13.647727072076982"><ele>324.0</ele><time>2026-04-18T07:56:17Z</time></trkpt><trkpt lat="42.91768482010315" lon="13.64764370495124"><ele>325.8333333333333</ele><time>2026-04-18T07:56:18Z</time></trkpt><trkpt lat="42.91774492287989" lon="13.64758358144505"><ele>327.6666666666667</ele><time>2026-04-18T07:56:19Z</time></trkpt><trkpt lat="42.91783125326867" lon="13.647498862458807"><ele>329.5</ele><time>2026-04-18T07:56:21.001Z</time></trkpt><trkpt lat="42.917891482315845" lon="13.647447757317423"><ele>331.33333333333337</ele><time>2026-04-18T07:56:23.001Z</time></trkpt><trkpt lat="42.917842507452825" lon="13.647503512735788"><ele>333.1666666666667</ele><time>2026-04-18T07:56:28.001Z</time></trkpt><trkpt lat="42.917909141855155" lon="13.647415816147511"><ele>335.0</ele><time>2026-04-18T07:59:46.002Z</time></trkpt><trkpt lat="42.9179528690061" lon="13.647352980607385"><ele>335.0</ele><time>2026-04-18T07:59:47.002Z</time></trkpt><trkpt lat="42.91800431119644" lon="13.647289406026857"><ele>335.0</ele><time>2026-04-18T07:59:48.002Z</time></trkpt><trkpt lat="42.91808064932651" lon="13.647243564635092"><ele>335.0</ele><time>2026-04-18T07:59:49.002Z</time></trkpt><trkpt lat="42.91814979583098" lon="13.647169211735275"><ele>335.0</ele><time>2026-04-18T07:59:50.002Z</time></trkpt><trkpt lat="42.91822190005943" lon="13.647091678393059"><ele>335.0</ele><time>2026-04-18T07:59:51.002Z</time></trkpt><trkpt lat="42.91829264795388" lon="13.647015603454635"><ele>335.0</ele><time>2026-04-18T07:59:52.001Z</time></trkpt><trkpt lat="42.91837640650765" lon="13.646925538559048"><ele>338.4</ele><time>2026-04-18T07:59:53.001Z</time></trkpt><trkpt lat="42.91845679663321" lon="13.646821241891702"><ele>341.8</ele><time>2026-04-18T07:59:54.001Z</time></trkpt><trkpt lat="42.91853830047599" lon="13.646732000379801"><ele>345.20000000000005</ele><time>2026-04-18T07:59:55.001Z</time></trkpt><trkpt lat="42.91861066409089" lon="13.646653269428755"><ele>348.6</ele><time>2026-04-18T07:59:56.001Z</time></trkpt><trkpt lat="42.91868581697374" lon="13.646566166527547"><ele>352.0</ele><time>2026-04-18T07:59:57.001Z</time></trkpt><trkpt lat="42.918765921983876" lon="13.646484462300975"><ele>352.0</ele><time>2026-04-18T07:59:58.001Z</time></trkpt><trkpt lat="42.91884455444675" lon="13.6464005082585"><ele>352.0</ele><time>2026-04-18T07:59:59.001Z</time></trkpt><trkpt lat="42.91892550455367" lon="13.64631850661818"><ele>352.0</ele><time>2026-04-18T08:00:00.001Z</time></trkpt><trkpt lat="42.91900422694479" lon="13.646233362578299"><ele>352.0</ele><time>2026-04-18T08:00:01.001Z</time></trkpt><trkpt lat="42.91908367809672" lon="13.646149135318902"><ele>352.0</ele><time>2026-04-18T08:00:02.001Z</time></trkpt><trkpt lat="42.91916234265856" lon="13.646063220704105"><ele>356.0</ele><time>2026-04-18T08:00:03.001Z</time></trkpt><trkpt lat="42.91923309552941" lon="13.645993844079372"><ele>360.0</ele><time>2026-04-18T08:00:04.001Z</time></trkpt><trkpt lat="42.91932813086841" lon="13.645901634034027"><ele>364.0</ele><time>2026-04-18T08:00:06.001Z</time></trkpt><trkpt lat="42.9193844786764" lon="13.645833908489026"><ele>368.0</ele><time>2026-04-18T08:00:08.001Z</time></trkpt><trkpt lat="42.9193732740064" lon="13.645719878637683"><ele>372.0</ele><time>2026-04-18T08:00:11.001Z</time></trkpt><trkpt lat="42.91926775446856" lon="13.645679490945877"><ele>373.8</ele><time>2026-04-18T08:00:13.001Z</time></trkpt><trkpt lat="42.919136973436" lon="13.645743129842417"><ele>375.6</ele><time>2026-04-18T08:00:15.001Z</time></trkpt><trkpt lat="42.91905197245014" lon="13.645790759385166"><ele>377.40000000000003</ele><time>2026-04-18T08:00:16.001Z</time></trkpt><trkpt lat="42.918977437231504" lon="13.645810249150552"><ele>379.20000000000005</ele><time>2026-04-18T08:00:17.001Z</time></trkpt><trkpt lat="42.91890146709699" lon="13.645836585287187"><ele>381.0</ele><time>2026-04-18T08:00:18.001Z</time></trkpt><trkpt lat="42.91882455214502" lon="13.645853781590358"><ele>381.0</ele><time>2026-04-18T08:00:19.001Z</time></trkpt><trkpt lat="42.918733760098895" lon="13.645860578010044"><ele>381.0</ele><time>2026-04-18T08:00:20.001Z</time></trkpt><trkpt lat="42.91866137369584" lon="13.645849815299615"><ele>381.0</ele><time>2026-04-18T08:00:21.001Z</time></trkpt><trkpt lat="42.91855914641583" lon="13.645816482428254"><ele>381.0</ele><time>2026-04-18T08:00:23.001Z</time></trkpt><trkpt lat="42.91849584409435" lon="13.645726593765431"><ele>381.0</ele><time>2026-04-18T08:00:25.001Z</time></trkpt><trkpt lat="42.91847549978303" lon="13.645608189397723"><ele>381.0</ele><time>2026-04-18T08:00:27.001Z</time></trkpt><trkpt lat="42.918483948536704" lon="13.645449684504229"><ele>381.0</ele><time>2026-04-18T08:00:29.001Z</time></trkpt><trkpt lat="42.91849334109814" lon="13.645342834238354"><ele>381.0</ele><time>2026-04-18T08:00:30.001Z</time></trkpt><trkpt lat="42.918511213626786" lon="13.645238754139804"><ele>381.0</ele><time>2026-04-18T08:00:31.001Z</time></trkpt><trkpt lat="42.91853929844443" lon="13.645133124882173"><ele>381.0</ele><time>2026-04-18T08:00:32.001Z</time></trkpt><trkpt lat="42.91858049933716" lon="13.645019886786882"><ele>381.0</ele><time>2026-04-18T08:00:33.001Z</time></trkpt><trkpt lat="42.91862568749241" lon="13.644912818586935"><ele>381.0</ele><time>2026-04-18T08:00:34.001Z</time></trkpt><trkpt lat="42.91867364374803" lon="13.64480050235041"><ele>383.3333333333333</ele><time>2026-04-18T08:00:35.001Z</time></trkpt><trkpt lat="42.918706058985165" lon="13.644692867490875"><ele>385.66666666666663</ele><time>2026-04-18T08:00:36.001Z</time></trkpt><trkpt lat="42.918750450607064" lon="13.644610787890024"><ele>388.0</ele><time>2026-04-18T08:00:37.001Z</time></trkpt><trkpt lat="42.918781457009075" lon="13.64445825857668"><ele>390.3333333333333</ele><time>2026-04-18T08:00:39.001Z</time></trkpt><trkpt lat="42.91876062031964" lon="13.644365111162736"><ele>392.66666666666663</ele><time>2026-04-18T08:00:40.001Z</time></trkpt><trkpt lat="42.91872105535059" lon="13.64428782415172"><ele>395.0</ele><time>2026-04-18T08:00:41.001Z</time></trkpt><trkpt lat="42.91861139964893" lon="13.644217859132308"><ele>395.16666666666663</ele><time>2026-04-18T08:00:43.001Z</time></trkpt><trkpt lat="42.91853854751492" lon="13.64418131056279"><ele>395.3333333333333</ele><time>2026-04-18T08:00:44.001Z</time></trkpt><trkpt lat="42.91845662263146" lon="13.644146522699305"><ele>395.5</ele><time>2026-04-18T08:00:45.001Z</time></trkpt><trkpt lat="42.91836399022109" lon="13.644103017993316"><ele>395.66666666666663</ele><time>2026-04-18T08:00:46.001Z</time></trkpt><trkpt lat="42.91828227933669" lon="13.644067729542606"><ele>395.8333333333333</ele><time>2026-04-18T08:00:47.001Z</time></trkpt><trkpt lat="42.9182099509556" lon="13.644010361818426"><ele>396.0</ele><time>2026-04-18T08:00:48.001Z</time></trkpt><trkpt lat="42.9181533154153" lon="13.643931621739828"><ele>393.8</ele><time>2026-04-18T08:00:49.001Z</time></trkpt><trkpt lat="42.91813653911622" lon="13.643828154833374"><ele>391.6</ele><time>2026-04-18T08:00:50.001Z</time></trkpt><trkpt lat="42.91811211168632" lon="13.64370993566992"><ele>389.4</ele><time>2026-04-18T08:00:51.001Z</time></trkpt><trkpt lat="42.91809959495523" lon="13.64357273876833"><ele>387.2</ele><time>2026-04-18T08:00:52.001Z</time></trkpt><trkpt lat="42.918063688997506" lon="13.643455203083183"><ele>385.0</ele><time>2026-04-18T08:00:53.001Z</time></trkpt><trkpt lat="42.91804201476019" lon="13.643337125813193"><ele>385.00000000000006</ele><time>2026-04-18T08:00:54.001Z</time></trkpt><trkpt lat="42.918003510407075" lon="13.643231483339866"><ele>385.0</ele><time>2026-04-18T08:00:55.001Z</time></trkpt><trkpt lat="42.9179329737998" lon="13.643174568339036"><ele>385.0</ele><time>2026-04-18T08:00:56.001Z</time></trkpt><trkpt lat="42.917869462491495" lon="13.643122782380933"><ele>385.0</ele><time>2026-04-18T08:00:57.001Z</time></trkpt><trkpt lat="42.917810286895794" lon="13.643060360399264"><ele>385.00000000000006</ele><time>2026-04-18T08:00:58.001Z</time></trkpt><trkpt lat="42.91774197128816" lon="13.64302489082426"><ele>385.0</ele><time>2026-04-18T08:00:59.001Z</time></trkpt><trkpt lat="42.91764803746083" lon="13.642978970672575"><ele>385.0</ele><time>2026-04-18T08:01:01.001Z</time></trkpt><trkpt lat="42.91760213694529" lon="13.642884221224053"><ele>385.0</ele><time>2026-04-18T08:01:03.001Z</time></trkpt><trkpt lat="42.91762475199998" lon="13.642772359240807"><ele>385.0</ele><time>2026-04-18T08:01:05.001Z</time></trkpt><trkpt lat="42.91766800384669" lon="13.642680869807403"><ele>385.0</ele><time>2026-04-18T08:01:07.001Z</time></trkpt><trkpt lat="42.91773995793174" lon="13.642581300410091"><ele>385.0</ele><time>2026-04-18T08:01:09.001Z</time></trkpt><trkpt lat="42.91782740950601" lon="13.642478921151158"><ele>386.00000000000006</ele><time>2026-04-18T08:01:11.001Z</time></trkpt><trkpt lat="42.91788107396981" lon="13.642421937805693"><ele>387.0</ele><time>2026-04-18T08:01:12.001Z</time></trkpt><trkpt lat="42.917941136267316" lon="13.642362937666258"><ele>388.0</ele><time>2026-04-18T08:01:13.001Z</time></trkpt><trkpt lat="42.9180010264308" lon="13.642307615928184"><ele>389.0</ele><time>2026-04-18T08:01:14.001Z</time></trkpt><trkpt lat="42.91807211549472" lon="13.64224524434393"><ele>390.00000000000006</ele><time>2026-04-18T08:01:15.001Z</time></trkpt><trkpt lat="42.91814412529531" lon="13.64218523523704"><ele>391.0</ele><time>2026-04-18T08:01:16.001Z</time></trkpt><trkpt lat="42.9182184292125" lon="13.642141935708283"><ele>391.0</ele><time>2026-04-18T08:01:17.001Z</time></trkpt><trkpt lat="42.918337926490544" lon="13.642126840713257"><ele>391.0</ele><time>2026-04-18T08:01:19.001Z</time></trkpt><trkpt lat="42.9184359669236" lon="13.642212173644841"><ele>391.0</ele><time>2026-04-18T08:01:21.001Z</time></trkpt><trkpt lat="42.91853753527935" lon="13.642315793747995"><ele>391.0</ele><time>2026-04-18T08:01:23.001Z</time></trkpt><trkpt lat="42.91858940973318" lon="13.642374999326853"><ele>391.0</ele><time>2026-04-18T08:01:24.001Z</time></trkpt><trkpt lat="42.918671159479814" lon="13.642481188756062"><ele>393.83333333333337</ele><time>2026-04-18T08:01:26.001Z</time></trkpt><trkpt lat="42.91871714560259" lon="13.642547355516466"><ele>396.6666666666667</ele><time>2026-04-18T08:01:27.001Z</time></trkpt><trkpt lat="42.91875966339849" lon="13.642613593888374"><ele>399.5</ele><time>2026-04-18T08:01:28.001Z</time></trkpt><trkpt lat="42.918833953560586" lon="13.642749755887431"><ele>402.33333333333337</ele><time>2026-04-18T08:01:30.001Z</time></trkpt><trkpt lat="42.91886557993063" lon="13.642887124938001"><ele>405.1666666666667</ele><time>2026-04-18T08:01:32.001Z</time></trkpt><trkpt lat="42.918867026706415" lon="13.642974057324754"><ele>408.0</ele><time>2026-04-18T08:01:33.001Z</time></trkpt><trkpt lat="42.918787438020885" lon="13.643093824459484"><ele>408.0</ele><time>2026-04-18T08:01:35.001Z</time></trkpt><trkpt lat="42.91874720888823" lon="13.643228052417804"><ele>408.0</ele><time>2026-04-18T08:01:37.001Z</time></trkpt><trkpt lat="42.91871338649578" lon="13.643353898892784"><ele>408.0</ele><time>2026-04-18T08:01:39.001Z</time></trkpt><trkpt lat="42.9187320057611" lon="13.643470693687279"><ele>408.0</ele><time>2026-04-18T08:01:41.001Z</time></trkpt><trkpt lat="42.91882610076893" lon="13.643536851559029"><ele>408.0</ele><time>2026-04-18T08:01:43.001Z</time></trkpt><trkpt lat="42.91888864360971" lon="13.643526672877904"><ele>408.0</ele><time>2026-04-18T08:01:44.002Z</time></trkpt><trkpt lat="42.91900951660367" lon="13.64347958304033"><ele>408.0</ele><time>2026-04-18T08:01:46.002Z</time></trkpt><trkpt lat="42.91907740020051" lon="13.643449600716238"><ele>408.0</ele><time>2026-04-18T08:01:47.002Z</time></trkpt><trkpt lat="42.919154953494115" lon="13.643441204281961"><ele>408.0</ele><time>2026-04-18T08:01:48.002Z</time></trkpt><trkpt lat="42.919219171666" lon="13.643428332124461"><ele>408.0</ele><time>2026-04-18T08:01:49.002Z</time></trkpt><trkpt lat="42.91931472487908" lon="13.643420604045065"><ele>408.0</ele><time>2026-04-18T08:01:51.002Z</time></trkpt><trkpt lat="42.919428611340166" lon="13.64345727881639"><ele>410.1666666666667</ele><time>2026-04-18T08:01:53.002Z</time></trkpt><trkpt lat="42.91952810712247" lon="13.643567460543633"><ele>412.33333333333337</ele><time>2026-04-18T08:01:55.002Z</time></trkpt><trkpt lat="42.91959308700972" lon="13.643619092334403"><ele>414.5</ele><time>2026-04-18T08:01:56.002Z</time></trkpt><trkpt lat="42.91965142511776" lon="13.643654625549098"><ele>416.6666666666667</ele><time>2026-04-18T08:01:57.002Z</time></trkpt><trkpt lat="42.91973439818517" lon="13.64371127102575"><ele>418.83333333333337</ele><time>2026-04-18T08:01:58.998Z</time></trkpt><trkpt lat="42.91979572948127" lon="13.64362622288741"><ele>421.0</ele><time>2026-04-18T08:02:00.998Z</time></trkpt><trkpt lat="42.91982413142654" lon="13.643505546539167"><ele>423.6</ele><time>2026-04-18T08:02:02.998Z</time></trkpt><trkpt lat="42.91973672041377" lon="13.6433649705354"><ele>426.20000000000005</ele><time>2026-04-18T08:02:04.998Z</time></trkpt><trkpt lat="42.91968485665357" lon="13.643289901375278"><ele>428.79999999999995</ele><time>2026-04-18T08:02:05.998Z</time></trkpt><trkpt lat="42.91961545511484" lon="13.6432288687898"><ele>431.4</ele><time>2026-04-18T08:02:06.998Z</time></trkpt><trkpt lat="42.91955105663447" lon="13.643190306853"><ele>434.0</ele><time>2026-04-18T08:02:07.998Z</time></trkpt><trkpt lat="42.91946985841612" lon="13.643062745264723"><ele>433.99999999999994</ele><time>2026-04-18T08:02:09.998Z</time></trkpt><trkpt lat="42.919450711540826" lon="13.642951108140215"><ele>434.0</ele><time>2026-04-18T08:02:11.998Z</time></trkpt><trkpt lat="42.91949569511848" lon="13.64288505001196"><ele>434.0</ele><time>2026-04-18T08:02:13.998Z</time></trkpt><trkpt lat="42.91957608313267" lon="13.642856660709228"><ele>434.0</ele><time>2026-04-18T08:02:15.998Z</time></trkpt><trkpt lat="42.91964801557357" lon="13.642934813703652"><ele>433.99999999999994</ele><time>2026-04-18T08:02:17.998Z</time></trkpt><trkpt lat="42.919739685713665" lon="13.643035971093827"><ele>434.0</ele><time>2026-04-18T08:02:19.999Z</time></trkpt><trkpt lat="42.91983116848481" lon="13.643144401560454"><ele>434.0</ele><time>2026-04-18T08:02:21.999Z</time></trkpt><trkpt lat="42.91988903926345" lon="13.643189813904137"><ele>434.0</ele><time>2026-04-18T08:02:22.999Z</time></trkpt><trkpt lat="42.91993560382893" lon="13.64325883933317"><ele>434.0</ele><time>2026-04-18T08:02:23.999Z</time></trkpt><trkpt lat="42.91998897238682" lon="13.643324712847967"><ele>434.0</ele><time>2026-04-18T08:02:24.999Z</time></trkpt><trkpt lat="42.9200386517783" lon="13.643383204443682"><ele>434.0</ele><time>2026-04-18T08:02:25.999Z</time></trkpt><trkpt lat="42.920092322422555" lon="13.643441674590578"><ele>434.0</ele><time>2026-04-18T08:02:26.999Z</time></trkpt><trkpt lat="42.920149566236894" lon="13.643505176646206"><ele>434.0</ele><time>2026-04-18T08:02:27.999Z</time></trkpt><trkpt lat="42.92019254525165" lon="13.643588878484103"><ele>434.49999999999994</ele><time>2026-04-18T08:02:28.999Z</time></trkpt><trkpt lat="42.92024702193769" lon="13.64365911343773"><ele>435.0</ele><time>2026-04-18T08:02:29.999Z</time></trkpt><trkpt lat="42.92030922254683" lon="13.643739148342346"><ele>435.5</ele><time>2026-04-18T08:02:30.999Z</time></trkpt><trkpt lat="42.92037583603345" lon="13.643819306526373"><ele>436.0</ele><time>2026-04-18T08:02:31.999Z</time></trkpt><trkpt lat="42.92045783985134" lon="13.643891169656335"><ele>436.49999999999994</ele><time>2026-04-18T08:02:32.999Z</time></trkpt><trkpt lat="42.92052993763432" lon="13.643964568713322"><ele>437.0</ele><time>2026-04-18T08:02:33.999Z</time></trkpt><trkpt lat="42.92060785643045" lon="13.64401838489521"><ele>437.0</ele><time>2026-04-18T08:02:34.999Z</time></trkpt><trkpt lat="42.920687849062595" lon="13.644048837370377"><ele>437.00000000000006</ele><time>2026-04-18T08:02:35.999Z</time></trkpt><trkpt lat="42.92077882803354" lon="13.644060094771838"><ele>437.00000000000006</ele><time>2026-04-18T08:02:36.999Z</time></trkpt><trkpt lat="42.92088863642387" lon="13.644056590802636"><ele>437.0</ele><time>2026-04-18T08:02:37.999Z</time></trkpt><trkpt lat="42.92099136712924" lon="13.644068901933244"><ele>437.0</ele><time>2026-04-18T08:02:38.999Z</time></trkpt><trkpt lat="42.921065104021935" lon="13.644138257864716"><ele>439.49999999999994</ele><time>2026-04-18T08:02:39.999Z</time></trkpt><trkpt lat="42.92113875287422" lon="13.644215177061696"><ele>442.0</ele><time>2026-04-18T08:02:40.999Z</time></trkpt><trkpt lat="42.92121490106396" lon="13.644273950800363"><ele>444.5</ele><time>2026-04-18T08:02:41.999Z</time></trkpt><trkpt lat="42.92129569391355" lon="13.644336493854148"><ele>447.0</ele><time>2026-04-18T08:02:42.999Z</time></trkpt><trkpt lat="42.92137445046198" lon="13.644388119571252"><ele>449.49999999999994</ele><time>2026-04-18T08:02:43.999Z</time></trkpt><trkpt lat="42.92145098276275" lon="13.644415225132613"><ele>452.0</ele><time>2026-04-18T08:02:45Z</time></trkpt><trkpt lat="42.921524679705946" lon="13.644404656123756"><ele>451.99999999999994</ele><time>2026-04-18T08:02:46Z</time></trkpt><trkpt lat="42.92158828429168" lon="13.64438381469703"><ele>452.0</ele><time>2026-04-18T08:02:47Z</time></trkpt><trkpt lat="42.92165066487933" lon="13.64435754665401"><ele>452.0</ele><time>2026-04-18T08:02:48Z</time></trkpt><trkpt lat="42.921720604667684" lon="13.644296861698898"><ele>452.0</ele><time>2026-04-18T08:02:49Z</time></trkpt><trkpt lat="42.92180822414458" lon="13.644210432098841"><ele>451.99999999999994</ele><time>2026-04-18T08:02:50Z</time></trkpt><trkpt lat="42.92189801841132" lon="13.644104664279524"><ele>452.0</ele><time>2026-04-18T08:02:51Z</time></trkpt><trkpt lat="42.92199978474425" lon="13.644014121571036"><ele>454.0</ele><time>2026-04-18T08:02:52Z</time></trkpt><trkpt lat="42.92211980914614" lon="13.643905333219635"><ele>456.0</ele><time>2026-04-18T08:02:53Z</time></trkpt><trkpt lat="42.922224915839514" lon="13.64381018232248"><ele>458.0</ele><time>2026-04-18T08:02:54Z</time></trkpt><trkpt lat="42.92231652639558" lon="13.643724827796223"><ele>460.0</ele><time>2026-04-18T08:02:55Z</time></trkpt><trkpt lat="42.92240490570827" lon="13.643629111537628"><ele>460.0</ele><time>2026-04-18T08:02:56Z</time></trkpt><trkpt lat="42.92247668073039" lon="13.643507288739992"><ele>460.0</ele><time>2026-04-18T08:02:57Z</time></trkpt><trkpt lat="42.92253537197184" lon="13.643352444754669"><ele>460.0</ele><time>2026-04-18T08:02:58Z</time></trkpt><trkpt lat="42.92257577436295" lon="13.643176173686602"><ele>460.0</ele><time>2026-04-18T08:02:59Z</time></trkpt><trkpt lat="42.92260321193608" lon="13.643022181444353"><ele>462.5</ele><time>2026-04-18T08:03:00Z</time></trkpt><trkpt lat="42.922678579238735" lon="13.642900542022762"><ele>465.0</ele><time>2026-04-18T08:03:01Z</time></trkpt><trkpt lat="42.92279945476701" lon="13.642823879652312"><ele>467.5</ele><time>2026-04-18T08:03:02Z</time></trkpt><trkpt lat="42.92291695515644" lon="13.642691759264373"><ele>470.0</ele><time>2026-04-18T08:03:03Z</time></trkpt><trkpt lat="42.92305192633827" lon="13.642573777285994"><ele>470.0</ele><time>2026-04-18T08:03:04Z</time></trkpt><trkpt lat="42.923190469558214" lon="13.642437650529372"><ele>470.0</ele><time>2026-04-18T08:03:05Z</time></trkpt><trkpt lat="42.92332886720473" lon="13.642306594597933"><ele>470.0</ele><time>2026-04-18T08:03:06Z</time></trkpt><trkpt lat="42.9234845675567" lon="13.642168962198392"><ele>472.0</ele><time>2026-04-18T08:03:07Z</time></trkpt><trkpt lat="42.923662400396566" lon="13.64202376908356"><ele>474.0</ele><time>2026-04-18T08:03:08Z</time></trkpt><trkpt lat="42.92385617226475" lon="13.64186757703934"><ele>476.0</ele><time>2026-04-18T08:03:09Z</time></trkpt><trkpt lat="42.924039969249755" lon="13.641711595165209"><ele>476.0</ele><time>2026-04-18T08:03:10Z</time></trkpt><trkpt lat="42.92421281397052" lon="13.64156887225452"><ele>476.0</ele><time>2026-04-18T08:03:11Z</time></trkpt><trkpt lat="42.92438115054049" lon="13.641435775288858"><ele>476.0</ele><time>2026-04-18T08:03:12Z</time></trkpt><trkpt lat="42.92453673374805" lon="13.641320057776019"><ele>475.3333333333333</ele><time>2026-04-18T08:03:13Z</time></trkpt><trkpt lat="42.924662832012" lon="13.641216347483462"><ele>474.66666666666663</ele><time>2026-04-18T08:03:14Z</time></trkpt><trkpt lat="42.92479004883671" lon="13.641114299123096"><ele>474.0</ele><time>2026-04-18T08:03:15Z</time></trkpt><trkpt lat="42.92493032825019" lon="13.640999605935175"><ele>471.33333333333337</ele><time>2026-04-18T08:03:16Z</time></trkpt><trkpt lat="42.9250723909385" lon="13.640885780075779"><ele>468.6666666666667</ele><time>2026-04-18T08:03:17Z</time></trkpt><trkpt lat="42.92520525156592" lon="13.640778052848113"><ele>466.0</ele><time>2026-04-18T08:03:18Z</time></trkpt><trkpt lat="42.92533182055919" lon="13.640682547084952"><ele>466.0</ele><time>2026-04-18T08:03:19Z</time></trkpt><trkpt lat="42.925452006011234" lon="13.640602925406673"><ele>466.0</ele><time>2026-04-18T08:03:20Z</time></trkpt><trkpt lat="42.92557007491883" lon="13.640515122124006"><ele>466.0</ele><time>2026-04-18T08:03:21Z</time></trkpt><trkpt lat="42.92568400585759" lon="13.640426014458438"><ele>466.0</ele><time>2026-04-18T08:03:22Z</time></trkpt><trkpt lat="42.92580352348102" lon="13.64033771210379"><ele>469.6666666666667</ele><time>2026-04-18T08:03:23Z</time></trkpt><trkpt lat="42.9259453515321" lon="13.64025328882153"><ele>473.33333333333337</ele><time>2026-04-18T08:03:24Z</time></trkpt><trkpt lat="42.92611413098338" lon="13.640199631773633"><ele>477.0</ele><time>2026-04-18T08:03:25Z</time></trkpt><trkpt lat="42.92628750029946" lon="13.640150360123076"><ele>477.0</ele><time>2026-04-18T08:03:26Z</time></trkpt><trkpt lat="42.92645457536156" lon="13.64011788558485"><ele>477.0</ele><time>2026-04-18T08:03:27Z</time></trkpt><trkpt lat="42.92660732058377" lon="13.640107255031303"><ele>477.0</ele><time>2026-04-18T08:03:28Z</time></trkpt><trkpt lat="42.92677216611239" lon="13.640105251266172"><ele>477.33333333333337</ele><time>2026-04-18T08:03:29Z</time></trkpt><trkpt lat="42.92694057231709" lon="13.640109379861103"><ele>477.6666666666667</ele><time>2026-04-18T08:03:30Z</time></trkpt><trkpt lat="42.927106387354726" lon="13.640114365254712"><ele>478.0</ele><time>2026-04-18T08:03:31Z</time></trkpt><trkpt lat="42.92727865519849" lon="13.64011437469819"><ele>478.0</ele><time>2026-04-18T08:03:32Z</time></trkpt><trkpt lat="42.92745191171863" lon="13.640107447197924"><ele>478.0</ele><time>2026-04-18T08:03:33.001Z</time></trkpt><trkpt lat="42.927628641283505" lon="13.640101546204676"><ele>478.0</ele><time>2026-04-18T08:03:34.001Z</time></trkpt><trkpt lat="42.92778816693393" lon="13.640103039729963"><ele>477.0</ele><time>2026-04-18T08:03:35.001Z</time></trkpt><trkpt lat="42.92792623044954" lon="13.640072984243858"><ele>476.0</ele><time>2026-04-18T08:03:36.001Z</time></trkpt><trkpt lat="42.928067894090475" lon="13.640072224243804"><ele>475.0</ele><time>2026-04-18T08:03:37.001Z</time></trkpt><trkpt lat="42.928197383087515" lon="13.640038872654307"><ele>474.0</ele><time>2026-04-18T08:03:38.001Z</time></trkpt><trkpt lat="42.92832308848443" lon="13.639972417951846"><ele>471.0</ele><time>2026-04-18T08:03:39.001Z</time></trkpt><trkpt lat="42.92844558057166" lon="13.639890164849112"><ele>468.0</ele><time>2026-04-18T08:03:40.001Z</time></trkpt><trkpt lat="42.92854828554372" lon="13.639776138304947"><ele>465.0</ele><time>2026-04-18T08:03:41.001Z</time></trkpt><trkpt lat="42.92862311408301" lon="13.63963724959376"><ele>462.0</ele><time>2026-04-18T08:03:42.001Z</time></trkpt><trkpt lat="42.928698037752696" lon="13.63948374225421"><ele>466.33333333333337</ele><time>2026-04-18T08:03:43.001Z</time></trkpt><trkpt lat="42.92879046030753" lon="13.639301392488504"><ele>470.6666666666667</ele><time>2026-04-18T08:03:44.001Z</time></trkpt><trkpt lat="42.928895037620414" lon="13.63909586479837"><ele>475.0</ele><time>2026-04-18T08:03:45.001Z</time></trkpt><trkpt lat="42.92899127694974" lon="13.638889097481657"><ele>475.0</ele><time>2026-04-18T08:03:46.001Z</time></trkpt><trkpt lat="42.92909104566272" lon="13.638682365340289"><ele>475.0</ele><time>2026-04-18T08:03:47.001Z</time></trkpt><trkpt lat="42.92918054959512" lon="13.638497414326487"><ele>475.0</ele><time>2026-04-18T08:03:48.001Z</time></trkpt><trkpt lat="42.929256410652606" lon="13.638342142231615"><ele>475.25</ele><time>2026-04-18T08:03:49.001Z</time></trkpt><trkpt lat="42.92933294831444" lon="13.638193586280746"><ele>475.5</ele><time>2026-04-18T08:03:50.001Z</time></trkpt><trkpt lat="42.92942295625196" lon="13.63805049939634"><ele>475.75</ele><time>2026-04-18T08:03:51.001Z</time></trkpt><trkpt lat="42.929502644916994" lon="13.63789622473724"><ele>476.0</ele><time>2026-04-18T08:03:52.001Z</time></trkpt><trkpt lat="42.92958684047032" lon="13.637738452887309"><ele>475.99999999999994</ele><time>2026-04-18T08:03:53.001Z</time></trkpt><trkpt lat="42.929655611960925" lon="13.637629832713515"><ele>476.0</ele><time>2026-04-18T08:03:54.001Z</time></trkpt><trkpt lat="42.92972598222798" lon="13.637545492004543"><ele>476.0</ele><time>2026-04-18T08:03:55.001Z</time></trkpt><trkpt lat="42.9297970902593" lon="13.63748879262097"><ele>476.0</ele><time>2026-04-18T08:03:56.001Z</time></trkpt><trkpt lat="42.929872531510995" lon="13.637475335515084"><ele>475.99999999999994</ele><time>2026-04-18T08:03:57.001Z</time></trkpt><trkpt lat="42.929957150531926" lon="13.637482760319704"><ele>476.0</ele><time>2026-04-18T08:03:58.001Z</time></trkpt><trkpt lat="42.930040555496724" lon="13.637496275229717"><ele>476.25</ele><time>2026-04-18T08:03:59.001Z</time></trkpt><trkpt lat="42.930154148141014" lon="13.637580794514982"><ele>476.5</ele><time>2026-04-18T08:04:01.001Z</time></trkpt><trkpt lat="42.93024348067257" lon="13.637732757591364"><ele>476.75</ele><time>2026-04-18T08:04:03.001Z</time></trkpt><trkpt lat="42.93033102661565" lon="13.637848166947466"><ele>477.0</ele><time>2026-04-18T08:04:03.996Z</time></trkpt><trkpt lat="42.93041857032732" lon="13.63797879504574"><ele>477.0</ele><time>2026-04-18T08:04:04.996Z</time></trkpt><trkpt lat="42.930520552861786" lon="13.63814383085605"><ele>477.0</ele><time>2026-04-18T08:04:05.996Z</time></trkpt><trkpt lat="42.930646085009265" lon="13.638352993439607"><ele>477.0</ele><time>2026-04-18T08:04:06.996Z</time></trkpt><trkpt lat="42.930771103253875" lon="13.638573213573748"><ele>480.66666666666663</ele><time>2026-04-18T08:04:07.996Z</time></trkpt><trkpt lat="42.9309056016959" lon="13.638809827464165"><ele>484.3333333333333</ele><time>2026-04-18T08:04:08.997Z</time></trkpt><trkpt lat="42.931027991775224" lon="13.639022215330119"><ele>488.0</ele><time>2026-04-18T08:04:09.997Z</time></trkpt><trkpt lat="42.931126553557554" lon="13.63920467877425"><ele>488.0</ele><time>2026-04-18T08:04:10.997Z</time></trkpt><trkpt lat="42.93120130332754" lon="13.639386549583898"><ele>488.0</ele><time>2026-04-18T08:04:11.997Z</time></trkpt><trkpt lat="42.9312429849388" lon="13.639560502642246"><ele>488.0</ele><time>2026-04-18T08:04:12.997Z</time></trkpt><trkpt lat="42.93129106122073" lon="13.639725953359584"><ele>488.0</ele><time>2026-04-18T08:04:13.997Z</time></trkpt><trkpt lat="42.93134232184133" lon="13.63986642175787"><ele>486.0</ele><time>2026-04-18T08:04:14.997Z</time></trkpt><trkpt lat="42.931408831109344" lon="13.639990506533561"><ele>484.0</ele><time>2026-04-18T08:04:15.997Z</time></trkpt><trkpt lat="42.931480673140214" lon="13.640128079676336"><ele>482.0</ele><time>2026-04-18T08:04:16.997Z</time></trkpt><trkpt lat="42.93155565277952" lon="13.640252240548893"><ele>480.0</ele><time>2026-04-18T08:04:17.997Z</time></trkpt><trkpt lat="42.93165698457074" lon="13.640370746767436"><ele>479.6</ele><time>2026-04-18T08:04:18.997Z</time></trkpt><trkpt lat="42.93176294847939" lon="13.640482301486257"><ele>479.2</ele><time>2026-04-18T08:04:19.997Z</time></trkpt><trkpt lat="42.931867594064855" lon="13.640574587643938"><ele>478.79999999999995</ele><time>2026-04-18T08:04:20.998Z</time></trkpt><trkpt lat="42.93194763107089" lon="13.640653595573122"><ele>478.4</ele><time>2026-04-18T08:04:21.998Z</time></trkpt><trkpt lat="42.93201688945338" lon="13.640698994758708"><ele>478.0</ele><time>2026-04-18T08:04:22.998Z</time></trkpt><trkpt lat="42.932070447759706" lon="13.640745578736428"><ele>478.00000000000006</ele><time>2026-04-18T08:04:23.998Z</time></trkpt><trkpt lat="42.93213027800367" lon="13.640789555252278"><ele>478.0</ele><time>2026-04-18T08:04:25.998Z</time></trkpt><trkpt lat="42.93218489416883" lon="13.640863855983506"><ele>478.0</ele><time>2026-04-18T08:04:40.999Z</time></trkpt><trkpt lat="42.93222492419333" lon="13.6409539981051"><ele>478.0</ele><time>2026-04-18T08:04:41.999Z</time></trkpt><trkpt lat="42.932228996369034" lon="13.641079073213913"><ele>478.00000000000006</ele><time>2026-04-18T08:04:42.999Z</time></trkpt><trkpt lat="42.93227755565282" lon="13.641188391757748"><ele>478.0</ele><time>2026-04-18T08:04:43.999Z</time></trkpt><trkpt lat="42.932284854835856" lon="13.641287628720209"><ele>479.2</ele><time>2026-04-18T08:04:44.999Z</time></trkpt><trkpt lat="42.93231515830294" lon="13.641366018910942"><ele>480.4</ele><time>2026-04-18T08:04:45.999Z</time></trkpt><trkpt lat="42.93243027313595" lon="13.641313052477418"><ele>481.59999999999997</ele><time>2026-04-18T08:04:49.999Z</time></trkpt><trkpt lat="42.9325075956277" lon="13.64126188483108"><ele>482.79999999999995</ele><time>2026-04-18T08:04:50.999Z</time></trkpt><trkpt lat="42.93256929019345" lon="13.64115930512474"><ele>484.0</ele><time>2026-04-18T08:04:51.999Z</time></trkpt><trkpt lat="42.93266005404352" lon="13.641037326464517"><ele>484.75</ele><time>2026-04-18T08:04:52.999Z</time></trkpt><trkpt lat="42.93276347134085" lon="13.640917541945035"><ele>485.5</ele><time>2026-04-18T08:04:53.999Z</time></trkpt><trkpt lat="42.932879645038625" lon="13.6407793995721"><ele>486.25</ele><time>2026-04-18T08:04:54.999Z</time></trkpt><trkpt lat="42.93298579231195" lon="13.640645725145903"><ele>487.0</ele><time>2026-04-18T08:04:56Z</time></trkpt><trkpt lat="42.93310090814302" lon="13.64049544501502"><ele>487.0</ele><time>2026-04-18T08:04:57Z</time></trkpt><trkpt lat="42.93321754949625" lon="13.640348297969984"><ele>487.0</ele><time>2026-04-18T08:04:58Z</time></trkpt><trkpt lat="42.933346040115005" lon="13.640191283784395"><ele>487.0</ele><time>2026-04-18T08:04:59Z</time></trkpt><trkpt lat="42.9334659231373" lon="13.640050498998281"><ele>486.5</ele><time>2026-04-18T08:05:00Z</time></trkpt><trkpt lat="42.933581200089634" lon="13.639926543804167"><ele>486.0</ele><time>2026-04-18T08:05:01Z</time></trkpt><trkpt lat="42.9337012058086" lon="13.639818069223404"><ele>485.5</ele><time>2026-04-18T08:05:02Z</time></trkpt><trkpt lat="42.933831336547854" lon="13.639756238919938"><ele>485.0</ele><time>2026-04-18T08:05:03Z</time></trkpt><trkpt lat="42.93395873140044" lon="13.639696628261445"><ele>485.0</ele><time>2026-04-18T08:05:04Z</time></trkpt><trkpt lat="42.93408568208827" lon="13.639647980331752"><ele>485.0</ele><time>2026-04-18T08:05:05Z</time></trkpt><trkpt lat="42.934204667286444" lon="13.639600491331057"><ele>485.0</ele><time>2026-04-18T08:05:06Z</time></trkpt><trkpt lat="42.934314520587634" lon="13.639539321115185"><ele>485.0</ele><time>2026-04-18T08:05:07Z</time></trkpt><trkpt lat="42.93442392659059" lon="13.639488533833513"><ele>483.4</ele><time>2026-04-18T08:05:08Z</time></trkpt><trkpt lat="42.93452711604391" lon="13.639440337726628"><ele>481.8</ele><time>2026-04-18T08:05:09Z</time></trkpt><trkpt lat="42.934612313742484" lon="13.63939673748202"><ele>480.20000000000005</ele><time>2026-04-18T08:05:10Z</time></trkpt><trkpt lat="42.93467733368298" lon="13.63935137267396"><ele>478.6</ele><time>2026-04-18T08:05:11Z</time></trkpt><trkpt lat="42.93473467497568" lon="13.639303367398204"><ele>477.0</ele><time>2026-04-18T08:05:12Z</time></trkpt><trkpt lat="42.93482733886068" lon="13.639203372160125"><ele>477.0</ele><time>2026-04-18T08:05:14Z</time></trkpt><trkpt lat="42.93491153182389" lon="13.639100753382166"><ele>477.00000000000006</ele><time>2026-04-18T08:05:16Z</time></trkpt><trkpt lat="42.93498744490865" lon="13.63894411878513"><ele>477.00000000000006</ele><time>2026-04-18T08:05:18Z</time></trkpt><trkpt lat="42.93502894058436" lon="13.638792729484662"><ele>477.0</ele><time>2026-04-18T08:05:20Z</time></trkpt><trkpt lat="42.935055000424235" lon="13.63870969046825"><ele>477.0</ele><time>2026-04-18T08:05:21Z</time></trkpt><trkpt lat="42.935079418266504" lon="13.638630190457265"><ele>477.0</ele><time>2026-04-18T08:05:22Z</time></trkpt><trkpt lat="42.9351001746472" lon="13.638506625276479"><ele>477.00000000000006</ele><time>2026-04-18T08:05:24Z</time></trkpt><trkpt lat="42.93514502975145" lon="13.63842987868143"><ele>477.00000000000006</ele><time>2026-04-18T08:05:27.001Z</time></trkpt><trkpt lat="42.93507053612109" lon="13.63841173547439"><ele>477.0</ele><time>2026-04-18T08:05:41.001Z</time></trkpt><trkpt lat="42.93503140608373" lon="13.638619946863555"><ele>477.0</ele><time>2026-04-18T08:05:43.001Z</time></trkpt><trkpt lat="42.934993668404715" lon="13.638787718192873"><ele>477.0</ele><time>2026-04-18T08:05:44.001Z</time></trkpt><trkpt lat="42.934928028205356" lon="13.638954105890418"><ele>477.0</ele><time>2026-04-18T08:05:45.001Z</time></trkpt><trkpt lat="42.934832212423686" lon="13.639094137527247"><ele>477.0</ele><time>2026-04-18T08:05:46.001Z</time></trkpt><trkpt lat="42.93472907505554" lon="13.639227757054433"><ele>477.0</ele><time>2026-04-18T08:05:47.001Z</time></trkpt><trkpt lat="42.9346257182538" lon="13.639316408282566"><ele>477.0</ele><time>2026-04-18T08:05:48.001Z</time></trkpt><trkpt lat="42.934531458521874" lon="13.639386149495639"><ele>477.00000000000006</ele><time>2026-04-18T08:05:49.001Z</time></trkpt><trkpt lat="42.93444529868906" lon="13.639440560596306"><ele>477.00000000000006</ele><time>2026-04-18T08:05:50.001Z</time></trkpt><trkpt lat="42.93437532739453" lon="13.639475578038533"><ele>477.0</ele><time>2026-04-18T08:05:51.001Z</time></trkpt><trkpt lat="42.93428490646311" lon="13.639517804878231"><ele>477.0</ele><time>2026-04-18T08:05:53.001Z</time></trkpt><trkpt lat="42.93442594388409" lon="13.639588648756085"><ele>477.8</ele><time>2026-04-18T08:06:00.001Z</time></trkpt><trkpt lat="42.93451598306929" lon="13.639588186842905"><ele>478.6</ele><time>2026-04-18T08:06:01.001Z</time></trkpt><trkpt lat="42.93461903873188" lon="13.639594805949292"><ele>479.40000000000003</ele><time>2026-04-18T08:06:02.002Z</time></trkpt><trkpt lat="42.93471357682871" lon="13.639599234915394"><ele>480.20000000000005</ele><time>2026-04-18T08:06:03.002Z</time></trkpt><trkpt lat="42.93482321106315" lon="13.639617093399055"><ele>481.0</ele><time>2026-04-18T08:06:04.002Z</time></trkpt><trkpt lat="42.934924081677536" lon="13.639637707592051"><ele>481.00000000000006</ele><time>2026-04-18T08:06:05.002Z</time></trkpt><trkpt lat="42.9350216426947" lon="13.639656977269944"><ele>481.0</ele><time>2026-04-18T08:06:06.002Z</time></trkpt><trkpt lat="42.935105026274904" lon="13.63967645679933"><ele>481.0</ele><time>2026-04-18T08:06:07.002Z</time></trkpt><trkpt lat="42.93517476610445" lon="13.639685743447636"><ele>481.0</ele><time>2026-04-18T08:06:08.002Z</time></trkpt><trkpt lat="42.93524684125493" lon="13.6396799123542"><ele>481.00000000000006</ele><time>2026-04-18T08:06:09.002Z</time></trkpt><trkpt lat="42.93531274037208" lon="13.63965836013434"><ele>481.0</ele><time>2026-04-18T08:06:09.998Z</time></trkpt><trkpt lat="42.935392122925485" lon="13.639629469227778"><ele>479.6666666666667</ele><time>2026-04-18T08:06:10.998Z</time></trkpt><trkpt lat="42.935482114974036" lon="13.639591584240641"><ele>478.33333333333337</ele><time>2026-04-18T08:06:11.998Z</time></trkpt><trkpt lat="42.93556299802247" lon="13.63954541105899"><ele>477.0</ele><time>2026-04-18T08:06:12.998Z</time></trkpt><trkpt lat="42.935631377138044" lon="13.639496399572046"><ele>475.66666666666663</ele><time>2026-04-18T08:06:13.998Z</time></trkpt><trkpt lat="42.935692297800536" lon="13.639446903740971"><ele>474.3333333333333</ele><time>2026-04-18T08:06:14.998Z</time></trkpt><trkpt lat="42.93574767589985" lon="13.639386619746562"><ele>473.0</ele><time>2026-04-18T08:06:15.998Z</time></trkpt><trkpt lat="42.93579545014625" lon="13.639306582332123"><ele>474.99999999999994</ele><time>2026-04-18T08:06:16.998Z</time></trkpt><trkpt lat="42.9358414673333" lon="13.639230853423935"><ele>477.0</ele><time>2026-04-18T08:06:17.998Z</time></trkpt><trkpt lat="42.935878409390675" lon="13.639154096836078"><ele>479.0</ele><time>2026-04-18T08:06:18.998Z</time></trkpt><trkpt lat="42.935922514883096" lon="13.639034351734667"><ele>481.0</ele><time>2026-04-18T08:06:20.998Z</time></trkpt><trkpt lat="42.93589048400352" lon="13.639113459888211"><ele>482.99999999999994</ele><time>2026-04-18T08:06:35.999Z</time></trkpt><trkpt lat="42.93583459999579" lon="13.639221294842365"><ele>485.0</ele><time>2026-04-18T08:06:41.999Z</time></trkpt><trkpt lat="42.935768784919304" lon="13.639301178163818"><ele>485.8</ele><time>2026-04-18T08:06:43.999Z</time></trkpt><trkpt lat="42.935700387116334" lon="13.639386422877227"><ele>486.6</ele><time>2026-04-18T08:06:46Z</time></trkpt><trkpt lat="42.93562501387672" lon="13.639469775409216"><ele>487.4</ele><time>2026-04-18T08:06:48Z</time></trkpt><trkpt lat="42.935550480480785" lon="13.639535235620599"><ele>488.2</ele><time>2026-04-18T08:06:50Z</time></trkpt><trkpt lat="42.93547145418897" lon="13.639561843340914"><ele>489.0</ele><time>2026-04-18T08:06:52Z</time></trkpt><trkpt lat="42.935369879963005" lon="13.639599534132941"><ele>486.7142857142857</ele><time>2026-04-18T08:06:54Z</time></trkpt><trkpt lat="42.93529323225287" lon="13.639614420040909"><ele>484.42857142857144</ele><time>2026-04-18T08:06:56Z</time></trkpt><trkpt lat="42.9353479499547" lon="13.639669311225358"><ele>482.14285714285717</ele><time>2026-04-18T08:07:10Z</time></trkpt><trkpt lat="42.93542375381541" lon="13.639670345497395"><ele>479.8571428571429</ele><time>2026-04-18T08:07:12.001Z</time></trkpt><trkpt lat="42.93548958257867" lon="13.639661805994729"><ele>477.57142857142856</ele><time>2026-04-18T08:07:14.001Z</time></trkpt><trkpt lat="42.93555845919746" lon="13.639657714632751"><ele>475.28571428571433</ele><time>2026-04-18T08:07:16.001Z</time></trkpt><trkpt lat="42.93564654282782" lon="13.639644505527889"><ele>473.0</ele><time>2026-04-18T08:07:18.001Z</time></trkpt><trkpt lat="42.93575527784258" lon="13.639635542711298"><ele>473.0</ele><time>2026-04-18T08:07:20.001Z</time></trkpt><trkpt lat="42.93586441258766" lon="13.639669053162063"><ele>473.0</ele><time>2026-04-18T08:07:22.001Z</time></trkpt><trkpt lat="42.935971337163274" lon="13.639665449865824"><ele>473.0</ele><time>2026-04-18T08:07:24.001Z</time></trkpt><trkpt lat="42.93608567179206" lon="13.639661596855257"><ele>473.0</ele><time>2026-04-18T08:07:26.001Z</time></trkpt><trkpt lat="42.93620682411318" lon="13.639657514093553"><ele>471.25</ele><time>2026-04-18T08:07:28.001Z</time></trkpt><trkpt lat="42.93632193743823" lon="13.639663539766135"><ele>469.5</ele><time>2026-04-18T08:07:30.001Z</time></trkpt><trkpt lat="42.9364287896441" lon="13.639704577120693"><ele>467.75</ele><time>2026-04-18T08:07:32.001Z</time></trkpt><trkpt lat="42.936526918229355" lon="13.639761963097564"><ele>466.0</ele><time>2026-04-18T08:07:34.001Z</time></trkpt><trkpt lat="42.93662860884863" lon="13.639848537757649"><ele>466.0</ele><time>2026-04-18T08:07:36.001Z</time></trkpt><trkpt lat="42.93670176016161" lon="13.639951656383268"><ele>466.0</ele><time>2026-04-18T08:07:38.001Z</time></trkpt><trkpt lat="42.93680232416417" lon="13.639913715357226"><ele>466.0</ele><time>2026-04-18T08:07:40.001Z</time></trkpt><trkpt lat="42.936854581975716" lon="13.639863056271716"><ele>466.0</ele><time>2026-04-18T08:07:41.001Z</time></trkpt><trkpt lat="42.93693652153561" lon="13.639832199988085"><ele>466.0</ele><time>2026-04-18T08:07:42.001Z</time></trkpt><trkpt lat="42.9370234183576" lon="13.63977198122624"><ele>464.6</ele><time>2026-04-18T08:07:43.001Z</time></trkpt><trkpt lat="42.937119568871005" lon="13.639708402842482"><ele>463.20000000000005</ele><time>2026-04-18T08:07:44.002Z</time></trkpt><trkpt lat="42.9372211260244" lon="13.639650925856557"><ele>461.79999999999995</ele><time>2026-04-18T08:07:45.002Z</time></trkpt><trkpt lat="42.93732869232096" lon="13.639588084356724"><ele>460.4</ele><time>2026-04-18T08:07:46.002Z</time></trkpt><trkpt lat="42.93743412110813" lon="13.639526911067817"><ele>459.0</ele><time>2026-04-18T08:07:47.002Z</time></trkpt><trkpt lat="42.93754061579911" lon="13.63947284700938"><ele>459.6</ele><time>2026-04-18T08:07:48.002Z</time></trkpt><trkpt lat="42.93763782962749" lon="13.639418111517076"><ele>460.2</ele><time>2026-04-18T08:07:49.002Z</time></trkpt><trkpt lat="42.93772438167924" lon="13.639371688025882"><ele>460.80000000000007</ele><time>2026-04-18T08:07:50.002Z</time></trkpt><trkpt lat="42.93781160506349" lon="13.639321979948791"><ele>461.40000000000003</ele><time>2026-04-18T08:07:51.002Z</time></trkpt><trkpt lat="42.937897874714494" lon="13.639274178726941"><ele>462.0</ele><time>2026-04-18T08:07:52.002Z</time></trkpt><trkpt lat="42.93799519125131" lon="13.639225280718648"><ele>462.0</ele><time>2026-04-18T08:07:53.002Z</time></trkpt><trkpt lat="42.938107996150954" lon="13.639182467390066"><ele>462.0</ele><time>2026-04-18T08:07:54.002Z</time></trkpt><trkpt lat="42.93823385951504" lon="13.639138492374723"><ele>462.0</ele><time>2026-04-18T08:07:55.002Z</time></trkpt><trkpt lat="42.93835940478029" lon="13.639098490372996"><ele>462.0</ele><time>2026-04-18T08:07:56.002Z</time></trkpt><trkpt lat="42.938487062402906" lon="13.639088743460658"><ele>460.5</ele><time>2026-04-18T08:07:57.002Z</time></trkpt><trkpt lat="42.93861372290744" lon="13.639062349004359"><ele>459.0</ele><time>2026-04-18T08:07:58.002Z</time></trkpt><trkpt lat="42.938727428413294" lon="13.639022833525056"><ele>457.5</ele><time>2026-04-18T08:07:59.002Z</time></trkpt><trkpt lat="42.938844140225186" lon="13.639007198346407"><ele>456.0</ele><time>2026-04-18T08:08:00.002Z</time></trkpt><trkpt lat="42.93896364882903" lon="13.638982355885455"><ele>456.0</ele><time>2026-04-18T08:08:01.002Z</time></trkpt><trkpt lat="42.939091333561045" lon="13.63894744296102"><ele>456.0</ele><time>2026-04-18T08:08:02.002Z</time></trkpt><trkpt lat="42.93921248391478" lon="13.638902907601024"><ele>456.0</ele><time>2026-04-18T08:08:03.002Z</time></trkpt><trkpt lat="42.93932863751837" lon="13.638867397558837"><ele>456.0</ele><time>2026-04-18T08:08:04.002Z</time></trkpt><trkpt lat="42.93944095732775" lon="13.63882973049365"><ele>456.3333333333333</ele><time>2026-04-18T08:08:05.002Z</time></trkpt><trkpt lat="42.939537898935555" lon="13.638806573406217"><ele>456.66666666666663</ele><time>2026-04-18T08:08:06.002Z</time></trkpt><trkpt lat="42.9396355979899" lon="13.638769736673028"><ele>457.0</ele><time>2026-04-18T08:08:07.002Z</time></trkpt><trkpt lat="42.9397304472609" lon="13.638768036381821"><ele>457.3333333333333</ele><time>2026-04-18T08:08:08.002Z</time></trkpt><trkpt lat="42.939804267596536" lon="13.638760868335313"><ele>457.66666666666663</ele><time>2026-04-18T08:08:09.002Z</time></trkpt><trkpt lat="42.9398715833356" lon="13.638755798550186"><ele>458.0</ele><time>2026-04-18T08:08:10.002Z</time></trkpt><trkpt lat="42.9399788985725" lon="13.638810190102928"><ele>457.99999999999994</ele><time>2026-04-18T08:08:12.002Z</time></trkpt><trkpt lat="42.940041542406405" lon="13.638866046502292"><ele>458.0</ele><time>2026-04-18T08:08:13.002Z</time></trkpt><trkpt lat="42.94011329988802" lon="13.638940182433926"><ele>458.0</ele><time>2026-04-18T08:08:14.002Z</time></trkpt><trkpt lat="42.94018892714207" lon="13.639027391847737"><ele>458.0</ele><time>2026-04-18T08:08:15.002Z</time></trkpt><trkpt lat="42.940268935174366" lon="13.639104780285594"><ele>457.99999999999994</ele><time>2026-04-18T08:08:15.998Z</time></trkpt><trkpt lat="42.94032814226876" lon="13.639186180987721"><ele>458.0</ele><time>2026-04-18T08:08:16.998Z</time></trkpt><trkpt lat="42.94038177192934" lon="13.639255751167012"><ele>456.66666666666663</ele><time>2026-04-18T08:08:17.998Z</time></trkpt><trkpt lat="42.94044061651552" lon="13.639294216265375"><ele>455.3333333333333</ele><time>2026-04-18T08:08:18.998Z</time></trkpt><trkpt lat="42.940551351566604" lon="13.639268103946682"><ele>454.0</ele><time>2026-04-18T08:08:20.998Z</time></trkpt><trkpt lat="42.94059503933351" lon="13.639205340710097"><ele>452.66666666666663</ele><time>2026-04-18T08:08:21.998Z</time></trkpt><trkpt lat="42.94062611849635" lon="13.6391105504018"><ele>451.3333333333333</ele><time>2026-04-18T08:08:22.998Z</time></trkpt><trkpt lat="42.940624488407444" lon="13.639013344076986"><ele>450.0</ele><time>2026-04-18T08:08:23.999Z</time></trkpt><trkpt lat="42.940625186199064" lon="13.638907131394397"><ele>450.0</ele><time>2026-04-18T08:08:24.999Z</time></trkpt><trkpt lat="42.94062602130185" lon="13.638780500495114"><ele>450.0</ele><time>2026-04-18T08:08:25.999Z</time></trkpt><trkpt lat="42.94061008273672" lon="13.638627368115717"><ele>450.0</ele><time>2026-04-18T08:08:26.999Z</time></trkpt><trkpt lat="42.940591294016215" lon="13.638463807615993"><ele>450.0</ele><time>2026-04-18T08:08:27.999Z</time></trkpt><trkpt lat="42.94058704335573" lon="13.638296927612622"><ele>450.0</ele><time>2026-04-18T08:08:28.999Z</time></trkpt><trkpt lat="42.94057945867565" lon="13.638128072165332"><ele>449.66666666666663</ele><time>2026-04-18T08:08:29.999Z</time></trkpt><trkpt lat="42.9405672778047" lon="13.637942099950292"><ele>449.3333333333333</ele><time>2026-04-18T08:08:30.999Z</time></trkpt><trkpt lat="42.940551739513495" lon="13.637736280372511"><ele>449.0</ele><time>2026-04-18T08:08:31.999Z</time></trkpt><trkpt lat="42.94053609781903" lon="13.637516036592013"><ele>449.0</ele><time>2026-04-18T08:08:32.999Z</time></trkpt><trkpt lat="42.940522813940966" lon="13.637315215386172"><ele>449.0</ele><time>2026-04-18T08:08:33.999Z</time></trkpt><trkpt lat="42.940522936302564" lon="13.637143865542237"><ele>449.0</ele><time>2026-04-18T08:08:34.999Z</time></trkpt><trkpt lat="42.9405141785553" lon="13.636997669599333"><ele>449.0</ele><time>2026-04-18T08:08:35.999Z</time></trkpt><trkpt lat="42.940507730987896" lon="13.636890038208698"><ele>449.16666666666663</ele><time>2026-04-18T08:08:37Z</time></trkpt><trkpt lat="42.940501538730246" lon="13.636786668776942"><ele>449.3333333333333</ele><time>2026-04-18T08:08:39Z</time></trkpt><trkpt lat="42.94054845770726" lon="13.636643353489182"><ele>449.5</ele><time>2026-04-18T08:08:41Z</time></trkpt><trkpt lat="42.940577534809435" lon="13.636542428936322"><ele>449.66666666666663</ele><time>2026-04-18T08:08:42Z</time></trkpt><trkpt lat="42.94060792172645" lon="13.636431238828322"><ele>449.8333333333333</ele><time>2026-04-18T08:08:43Z</time></trkpt><trkpt lat="42.94063463043161" lon="13.63632335444943"><ele>450.0</ele><time>2026-04-18T08:08:44Z</time></trkpt><trkpt lat="42.94064895808188" lon="13.636197208309591"><ele>450.4</ele><time>2026-04-18T08:08:45Z</time></trkpt><trkpt lat="42.940688111537064" lon="13.636083047018277"><ele>450.8</ele><time>2026-04-18T08:08:46Z</time></trkpt><trkpt lat="42.94072212811031" lon="13.635979138923613"><ele>451.20000000000005</ele><time>2026-04-18T08:08:47Z</time></trkpt><trkpt lat="42.940752080890704" lon="13.635855975547633"><ele>451.6</ele><time>2026-04-18T08:08:48Z</time></trkpt><trkpt lat="42.94078361687574" lon="13.635727561812265"><ele>452.0</ele><time>2026-04-18T08:08:49Z</time></trkpt><trkpt lat="42.940816786558756" lon="13.635597822838053"><ele>451.99999999999994</ele><time>2026-04-18T08:08:50Z</time></trkpt><trkpt lat="42.940847299554946" lon="13.635512137520385"><ele>452.0</ele><time>2026-04-18T08:08:51Z</time></trkpt><trkpt lat="42.940885563552115" lon="13.635425769567298"><ele>452.0</ele><time>2026-04-18T08:08:53Z</time></trkpt><trkpt lat="42.94083190623962" lon="13.635525868515982"><ele>452.0</ele><time>2026-04-18T08:09:05.001Z</time></trkpt><trkpt lat="42.94079387818877" lon="13.635633513938265"><ele>451.99999999999994</ele><time>2026-04-18T08:09:06.001Z</time></trkpt><trkpt lat="42.94077203114086" lon="13.63575947390139"><ele>452.0</ele><time>2026-04-18T08:09:07.001Z</time></trkpt><trkpt lat="42.94073413682552" lon="13.635890379993624"><ele>452.0</ele><time>2026-04-18T08:09:08.001Z</time></trkpt><trkpt lat="42.94069421825872" lon="13.63601580975568"><ele>452.00000000000006</ele><time>2026-04-18T08:09:09.001Z</time></trkpt><trkpt lat="42.94065988887436" lon="13.636137789569688"><ele>452.00000000000006</ele><time>2026-04-18T08:09:10.001Z</time></trkpt><trkpt lat="42.9406323672752" lon="13.63623937498334"><ele>452.0</ele><time>2026-04-18T08:09:11.001Z</time></trkpt><trkpt lat="42.940582483323446" lon="13.6363417074715"><ele>452.0</ele><time>2026-04-18T08:09:13.001Z</time></trkpt><trkpt lat="42.94048718114093" lon="13.636369197086863"><ele>452.0</ele><time>2026-04-18T08:09:15.001Z</time></trkpt><trkpt lat="42.94039916556803" lon="13.636245242156352"><ele>452.00000000000006</ele><time>2026-04-18T08:09:17.001Z</time></trkpt><trkpt lat="42.94034702267912" lon="13.63617148699273"><ele>452.00000000000006</ele><time>2026-04-18T08:09:18.001Z</time></trkpt><trkpt lat="42.9402830236476" lon="13.636081523282018"><ele>452.0</ele><time>2026-04-18T08:09:19.001Z</time></trkpt><trkpt lat="42.94021691983209" lon="13.63598482874689"><ele>452.0</ele><time>2026-04-18T08:09:20.001Z</time></trkpt><trkpt lat="42.94015632537016" lon="13.635886150777669"><ele>452.0</ele><time>2026-04-18T08:09:21.001Z</time></trkpt><trkpt lat="42.94008166945161" lon="13.63578929942252"><ele>452.0</ele><time>2026-04-18T08:09:22.001Z</time></trkpt><trkpt lat="42.940022837886396" lon="13.635657597126931"><ele>452.0</ele><time>2026-04-18T08:09:23.001Z</time></trkpt><trkpt lat="42.93998237422441" lon="13.635496471253047"><ele>452.0</ele><time>2026-04-18T08:09:24.002Z</time></trkpt><trkpt lat="42.93991408403511" lon="13.635330896422134"><ele>450.25</ele><time>2026-04-18T08:09:25.002Z</time></trkpt><trkpt lat="42.939858835066346" lon="13.635153419624006"><ele>448.5</ele><time>2026-04-18T08:09:26.002Z</time></trkpt><trkpt lat="42.9398047510803" lon="13.63497747733484"><ele>446.75</ele><time>2026-04-18T08:09:27.002Z</time></trkpt><trkpt lat="42.93976464610469" lon="13.634791614777317"><ele>445.0</ele><time>2026-04-18T08:09:28.002Z</time></trkpt><trkpt lat="42.939711336255876" lon="13.634619665223598"><ele>445.0</ele><time>2026-04-18T08:09:29.002Z</time></trkpt><trkpt lat="42.93965411228261" lon="13.634442080475017"><ele>445.0</ele><time>2026-04-18T08:09:30.002Z</time></trkpt><trkpt lat="42.93958382675873" lon="13.634280725446557"><ele>445.0</ele><time>2026-04-18T08:09:31.002Z</time></trkpt><trkpt lat="42.93953106231946" lon="13.634117023434063"><ele>445.0</ele><time>2026-04-18T08:09:32.002Z</time></trkpt><trkpt lat="42.93947902522234" lon="13.633954350516309"><ele>445.0</ele><time>2026-04-18T08:09:33.002Z</time></trkpt><trkpt lat="42.939428486506245" lon="13.63380151869861"><ele>445.0</ele><time>2026-04-18T08:09:34.002Z</time></trkpt><trkpt lat="42.93937989982135" lon="13.633649113325534"><ele>445.0</ele><time>2026-04-18T08:09:35.002Z</time></trkpt><trkpt lat="42.93933365815043" lon="13.633510764899881"><ele>445.0</ele><time>2026-04-18T08:09:36.002Z</time></trkpt><trkpt lat="42.93930074599016" lon="13.633380331962124"><ele>446.00000000000006</ele><time>2026-04-18T08:09:37.002Z</time></trkpt><trkpt lat="42.93925214293944" lon="13.633256020446671"><ele>447.0</ele><time>2026-04-18T08:09:38.002Z</time></trkpt><trkpt lat="42.93920818331006" lon="13.63313462969931"><ele>448.0</ele><time>2026-04-18T08:09:39.002Z</time></trkpt><trkpt lat="42.939172463454526" lon="13.633032516888983"><ele>449.0</ele><time>2026-04-18T08:09:40.002Z</time></trkpt><trkpt lat="42.93913807965644" lon="13.632936848074273"><ele>450.00000000000006</ele><time>2026-04-18T08:09:41.002Z</time></trkpt><trkpt lat="42.939107009926985" lon="13.632848249018984"><ele>451.0</ele><time>2026-04-18T08:09:42.002Z</time></trkpt><trkpt lat="42.9390821236618" lon="13.632760422795062"><ele>448.83333333333337</ele><time>2026-04-18T08:09:43.002Z</time></trkpt><trkpt lat="42.939059991999514" lon="13.632669168684934"><ele>446.6666666666667</ele><time>2026-04-18T08:09:44.002Z</time></trkpt><trkpt lat="42.93903472933524" lon="13.632585123930081"><ele>444.5</ele><time>2026-04-18T08:09:45.002Z</time></trkpt><trkpt lat="42.938994629045325" lon="13.632454392768286"><ele>442.33333333333337</ele><time>2026-04-18T08:09:47.002Z</time></trkpt><trkpt lat="42.93895375715176" lon="13.632346038081566"><ele>440.1666666666667</ele><time>2026-04-18T08:09:49.002Z</time></trkpt><trkpt lat="42.938922440023404" lon="13.632201098496877"><ele>438.0</ele><time>2026-04-18T08:09:51.002Z</time></trkpt><trkpt lat="42.93890557459794" lon="13.632033679378573"><ele>438.0</ele><time>2026-04-18T08:09:53.002Z</time></trkpt><trkpt lat="42.938889645323385" lon="13.63188684129103"><ele>438.0</ele><time>2026-04-18T08:09:55.002Z</time></trkpt><trkpt lat="42.938859533461546" lon="13.631802875463997"><ele>438.0</ele><time>2026-04-18T08:09:56.003Z</time></trkpt><trkpt lat="42.938848227400506" lon="13.631717078284243"><ele>438.0</ele><time>2026-04-18T08:09:57.003Z</time></trkpt><trkpt lat="42.938829908428396" lon="13.631625301682874"><ele>438.0</ele><time>2026-04-18T08:09:58.003Z</time></trkpt><trkpt lat="42.938800034626844" lon="13.63146760147235"><ele>438.0</ele><time>2026-04-18T08:10:00.003Z</time></trkpt><trkpt lat="42.938760522300136" lon="13.631311855652426"><ele>438.0</ele><time>2026-04-18T08:10:02.003Z</time></trkpt><trkpt lat="42.93872256045739" lon="13.631174249639233"><ele>438.0</ele><time>2026-04-18T08:10:04.003Z</time></trkpt><trkpt lat="42.93868192095919" lon="13.63100726793112"><ele>438.0</ele><time>2026-04-18T08:10:06.003Z</time></trkpt><trkpt lat="42.93866612684296" lon="13.630919640511154"><ele>438.0</ele><time>2026-04-18T08:10:07.003Z</time></trkpt><trkpt lat="42.93865135292038" lon="13.630824871496207"><ele>438.0</ele><time>2026-04-18T08:10:08.003Z</time></trkpt><trkpt lat="42.93863358832242" lon="13.630738046644996"><ele>438.0</ele><time>2026-04-18T08:10:09.003Z</time></trkpt><trkpt lat="42.938604535141344" lon="13.630556056446972"><ele>437.59999999999997</ele><time>2026-04-18T08:10:11.003Z</time></trkpt><trkpt lat="42.938594977861094" lon="13.630449962320148"><ele>437.19999999999993</ele><time>2026-04-18T08:10:12.003Z</time></trkpt><trkpt lat="42.93858257942398" lon="13.630310682878157"><ele>436.8</ele><time>2026-04-18T08:10:13.003Z</time></trkpt><trkpt lat="42.93856423624458" lon="13.630170240707992"><ele>436.4</ele><time>2026-04-18T08:10:14.003Z</time></trkpt><trkpt lat="42.938552687448656" lon="13.630049680747398"><ele>436.0</ele><time>2026-04-18T08:10:15.003Z</time></trkpt><trkpt lat="42.93854175028728" lon="13.629920594408219"><ele>435.1666666666667</ele><time>2026-04-18T08:10:16.003Z</time></trkpt><trkpt lat="42.93852794345575" lon="13.629792349230438"><ele>434.33333333333337</ele><time>2026-04-18T08:10:17.003Z</time></trkpt><trkpt lat="42.93852089269754" lon="13.62966394328936"><ele>433.5</ele><time>2026-04-18T08:10:18.003Z</time></trkpt><trkpt lat="42.9385197000422" lon="13.629545679835749"><ele>432.66666666666663</ele><time>2026-04-18T08:10:19.003Z</time></trkpt><trkpt lat="42.93851944669095" lon="13.629445263976468"><ele>431.8333333333333</ele><time>2026-04-18T08:10:20.003Z</time></trkpt><trkpt lat="42.938513120354614" lon="13.629345851886368"><ele>431.0</ele><time>2026-04-18T08:10:21.003Z</time></trkpt><trkpt lat="42.93852274374538" lon="13.629246397497573"><ele>429.49999999999994</ele><time>2026-04-18T08:10:22.999Z</time></trkpt><trkpt lat="42.938522741971376" lon="13.629142999638251"><ele>428.0</ele><time>2026-04-18T08:10:34.999Z</time></trkpt><trkpt lat="42.93854538469902" lon="13.628989118766695"><ele>426.5</ele><time>2026-04-18T08:10:36.999Z</time></trkpt><trkpt lat="42.93858435434936" lon="13.628913234438096"><ele>425.0</ele><time>2026-04-18T08:10:38Z</time></trkpt><trkpt lat="42.93865274163147" lon="13.628874812823488"><ele>423.49999999999994</ele><time>2026-04-18T08:10:39Z</time></trkpt><trkpt lat="42.938711703014654" lon="13.628834063309332"><ele>422.0</ele><time>2026-04-18T08:10:40Z</time></trkpt><trkpt lat="42.938771277140546" lon="13.628775318427422"><ele>422.0</ele><time>2026-04-18T08:10:41Z</time></trkpt><trkpt lat="42.93886697503098" lon="13.628756882829064"><ele>422.0</ele><time>2026-04-18T08:10:42Z</time></trkpt><trkpt lat="42.93896234701463" lon="13.628705632317832"><ele>422.0</ele><time>2026-04-18T08:10:43Z</time></trkpt><trkpt lat="42.939076651779935" lon="13.628635827487113"><ele>422.0</ele><time>2026-04-18T08:10:44Z</time></trkpt><trkpt lat="42.93917976797711" lon="13.628578836101804"><ele>422.0</ele><time>2026-04-18T08:10:45Z</time></trkpt><trkpt lat="42.939290476565" lon="13.628516651514976"><ele>422.3333333333333</ele><time>2026-04-18T08:10:46Z</time></trkpt><trkpt lat="42.93939926233601" lon="13.628456454907196"><ele>422.66666666666663</ele><time>2026-04-18T08:10:47Z</time></trkpt><trkpt lat="42.93949824199175" lon="13.628407011207697"><ele>423.0</ele><time>2026-04-18T08:10:48Z</time></trkpt><trkpt lat="42.93957996683762" lon="13.628369353054332"><ele>423.33333333333337</ele><time>2026-04-18T08:10:49Z</time></trkpt><trkpt lat="42.939646724593295" lon="13.628338869975888"><ele>423.6666666666667</ele><time>2026-04-18T08:10:50Z</time></trkpt><trkpt lat="42.93970755102328" lon="13.628307611863962"><ele>424.0</ele><time>2026-04-18T08:10:52Z</time></trkpt><trkpt lat="42.93971939009928" lon="13.628109990504644"><ele>424.0</ele><time>2026-04-18T08:10:57Z</time></trkpt><trkpt lat="42.93967898179192" lon="13.627997617095861"><ele>424.0</ele><time>2026-04-18T08:10:58Z</time></trkpt><trkpt lat="42.93964290930796" lon="13.627879076598207"><ele>424.0</ele><time>2026-04-18T08:10:59Z</time></trkpt><trkpt lat="42.93960499785904" lon="13.62772056633255"><ele>424.0</ele><time>2026-04-18T08:11:00.001Z</time></trkpt><trkpt lat="42.939562791028315" lon="13.627577891340612"><ele>424.0</ele><time>2026-04-18T08:11:01.001Z</time></trkpt><trkpt lat="42.939509413565574" lon="13.62741553485118"><ele>427.0</ele><time>2026-04-18T08:11:02.001Z</time></trkpt><trkpt lat="42.93944173861844" lon="13.627252128570602"><ele>430.0</ele><time>2026-04-18T08:11:03.001Z</time></trkpt><trkpt lat="42.939351523858214" lon="13.627052567351011"><ele>433.0</ele><time>2026-04-18T08:11:04.001Z</time></trkpt><trkpt lat="42.939272729460484" lon="13.626844426363443"><ele>429.0</ele><time>2026-04-18T08:11:05.001Z</time></trkpt><trkpt lat="42.93920158289016" lon="13.62665187164365"><ele>425.0</ele><time>2026-04-18T08:11:06.001Z</time></trkpt><trkpt lat="42.939129132908" lon="13.62644729864665"><ele>421.0</ele><time>2026-04-18T08:11:07.001Z</time></trkpt><trkpt lat="42.939058234247526" lon="13.626262030409036"><ele>424.25</ele><time>2026-04-18T08:11:08.001Z</time></trkpt><trkpt lat="42.93899315935111" lon="13.626086684964703"><ele>427.5</ele><time>2026-04-18T08:11:09.001Z</time></trkpt><trkpt lat="42.938934236494184" lon="13.625940072363628"><ele>430.75</ele><time>2026-04-18T08:11:10.001Z</time></trkpt><trkpt lat="42.93887914706315" lon="13.625808313019396"><ele>434.0</ele><time>2026-04-18T08:11:11.001Z</time></trkpt><trkpt lat="42.93883375991377" lon="13.625696768568822"><ele>433.99999999999994</ele><time>2026-04-18T08:11:12.001Z</time></trkpt><trkpt lat="42.93880078543195" lon="13.625602646237905"><ele>434.0</ele><time>2026-04-18T08:11:13.001Z</time></trkpt><trkpt lat="42.9387632318542" lon="13.625474186635484"><ele>434.0</ele><time>2026-04-18T08:11:15.001Z</time></trkpt><trkpt lat="42.93870605975396" lon="13.625339033373628"><ele>434.0</ele><time>2026-04-18T08:11:17.001Z</time></trkpt><trkpt lat="42.93867177671151" lon="13.625264658528177"><ele>433.99999999999994</ele><time>2026-04-18T08:11:18.001Z</time></trkpt><trkpt lat="42.93862808937554" lon="13.625183006322933"><ele>434.0</ele><time>2026-04-18T08:11:19.001Z</time></trkpt><trkpt lat="42.93859208425061" lon="13.625104498967058"><ele>434.16666666666663</ele><time>2026-04-18T08:11:20.001Z</time></trkpt><trkpt lat="42.93854982316906" lon="13.625017554113311"><ele>434.3333333333333</ele><time>2026-04-18T08:11:21.001Z</time></trkpt><trkpt lat="42.93851409550622" lon="13.624929460030883"><ele>434.5</ele><time>2026-04-18T08:11:22.001Z</time></trkpt><trkpt lat="42.93847270028598" lon="13.624824867771805"><ele>434.66666666666663</ele><time>2026-04-18T08:11:23.001Z</time></trkpt><trkpt lat="42.93843317190203" lon="13.62472792281712"><ele>434.8333333333333</ele><time>2026-04-18T08:11:24.001Z</time></trkpt><trkpt lat="42.938394750730126" lon="13.624625816572097"><ele>435.0</ele><time>2026-04-18T08:11:25.001Z</time></trkpt><trkpt lat="42.938352867971815" lon="13.624477774173027"><ele>435.0</ele><time>2026-04-18T08:11:27.001Z</time></trkpt><trkpt lat="42.93832259664018" lon="13.624378885482178"><ele>435.0</ele><time>2026-04-18T08:11:29.002Z</time></trkpt><trkpt lat="42.938274604636995" lon="13.6242966276784"><ele>435.0</ele><time>2026-04-18T08:11:33.002Z</time></trkpt><trkpt lat="42.938191684702744" lon="13.624231358569025"><ele>435.0</ele><time>2026-04-18T08:11:45.002Z</time></trkpt><trkpt lat="42.93813566610953" lon="13.624180541499364"><ele>435.0</ele><time>2026-04-18T08:11:46.002Z</time></trkpt><trkpt lat="42.93805337718393" lon="13.624070417266049"><ele>435.0</ele><time>2026-04-18T08:11:48.002Z</time></trkpt><trkpt lat="42.9380130197267" lon="13.623959857671347"><ele>435.0</ele><time>2026-04-18T08:11:50.002Z</time></trkpt><trkpt lat="42.93795253235911" lon="13.623908992629898"><ele>435.0</ele><time>2026-04-18T08:11:53.002Z</time></trkpt><trkpt lat="42.93783157469271" lon="13.62382457729794"><ele>435.0</ele><time>2026-04-18T08:11:55.002Z</time></trkpt><trkpt lat="42.93777991208333" lon="13.623759089665969"><ele>435.0</ele><time>2026-04-18T08:11:56.002Z</time></trkpt><trkpt lat="42.937703032813594" lon="13.623684578592671"><ele>435.0</ele><time>2026-04-18T08:11:57.002Z</time></trkpt><trkpt lat="42.937648067668185" lon="13.62361913931749"><ele>435.0</ele><time>2026-04-18T08:11:58.002Z</time></trkpt><trkpt lat="42.937567371255405" lon="13.623521612187817"><ele>435.0</ele><time>2026-04-18T08:12:00.002Z</time></trkpt><trkpt lat="42.937522515593265" lon="13.623451109673772"><ele>435.0</ele><time>2026-04-18T08:12:03.003Z</time></trkpt><trkpt lat="42.9374619834204" lon="13.623683028955055"><ele>435.0</ele><time>2026-04-18T08:12:08.003Z</time></trkpt><trkpt lat="42.937541745993464" lon="13.623765761349608"><ele>435.0</ele><time>2026-04-18T08:12:10.003Z</time></trkpt><trkpt lat="42.93760094837767" lon="13.623821697883802"><ele>435.0</ele><time>2026-04-18T08:12:11.003Z</time></trkpt><trkpt lat="42.93769461251531" lon="13.623888781406029"><ele>435.0</ele><time>2026-04-18T08:12:13.003Z</time></trkpt><trkpt lat="42.93779416970916" lon="13.623880863096968"><ele>435.0</ele><time>2026-04-18T08:12:15.003Z</time></trkpt><trkpt lat="42.937860772306955" lon="13.623873349387939"><ele>435.0</ele><time>2026-04-18T08:12:16.003Z</time></trkpt><trkpt lat="42.93798892646627" lon="13.623958062249123"><ele>435.0</ele><time>2026-04-18T08:12:18.003Z</time></trkpt><trkpt lat="42.93806439684195" lon="13.624056220887447"><ele>435.0</ele><time>2026-04-18T08:12:19.003Z</time></trkpt><trkpt lat="42.93813665873784" lon="13.624171888703009"><ele>435.0</ele><time>2026-04-18T08:12:20.003Z</time></trkpt><trkpt lat="42.938217402083154" lon="13.624305586134094"><ele>435.0</ele><time>2026-04-18T08:12:21.003Z</time></trkpt><trkpt lat="42.938293940435045" lon="13.624450015437382"><ele>435.0</ele><time>2026-04-18T08:12:22.003Z</time></trkpt><trkpt lat="42.93834209560854" lon="13.624597557243561"><ele>435.0</ele><time>2026-04-18T08:12:23.003Z</time></trkpt><trkpt lat="42.93839068336805" lon="13.624724969150215"><ele>434.8</ele><time>2026-04-18T08:12:24.003Z</time></trkpt><trkpt lat="42.93844472179419" lon="13.62485911807036"><ele>434.6</ele><time>2026-04-18T08:12:25.003Z</time></trkpt><trkpt lat="42.938500359923545" lon="13.624990229745816"><ele>434.4</ele><time>2026-04-18T08:12:26.003Z</time></trkpt><trkpt lat="42.93855086901125" lon="13.625103998318309"><ele>434.2</ele><time>2026-04-18T08:12:27.003Z</time></trkpt><trkpt lat="42.93860252306542" lon="13.625220345859526"><ele>434.0</ele><time>2026-04-18T08:12:27.998Z</time></trkpt><trkpt lat="42.938651861304116" lon="13.625331477177005"><ele>434.0</ele><time>2026-04-18T08:12:28.998Z</time></trkpt><trkpt lat="42.938694472753745" lon="13.625433213314325"><ele>434.0</ele><time>2026-04-18T08:12:29.998Z</time></trkpt><trkpt lat="42.938728060498335" lon="13.625514732872283"><ele>434.0</ele><time>2026-04-18T08:12:30.998Z</time></trkpt><trkpt lat="42.93882870007775" lon="13.62542736578642"><ele>434.0</ele><time>2026-04-18T08:12:34.998Z</time></trkpt><trkpt lat="42.93889134406194" lon="13.62537249345299"><ele>434.0</ele><time>2026-04-18T08:12:36.999Z</time></trkpt><trkpt lat="42.938783777586984" lon="13.625275721706887"><ele>433.99999999999994</ele><time>2026-04-18T08:12:40.999Z</time></trkpt><trkpt lat="42.93873266938245" lon="13.625366716110829"><ele>434.0</ele><time>2026-04-18T08:12:42.999Z</time></trkpt><trkpt lat="42.93874489205972" lon="13.625492888199707"><ele>434.0</ele><time>2026-04-18T08:12:44.999Z</time></trkpt><trkpt lat="42.93875618762972" lon="13.625588879627752"><ele>434.0</ele><time>2026-04-18T08:12:45.999Z</time></trkpt><trkpt lat="42.93879043084177" lon="13.625677286722233"><ele>433.99999999999994</ele><time>2026-04-18T08:12:46.999Z</time></trkpt><trkpt lat="42.93884028169782" lon="13.62580598866151"><ele>434.0</ele><time>2026-04-18T08:12:47.999Z</time></trkpt><trkpt lat="42.93889580322379" lon="13.625949814447141"><ele>434.0</ele><time>2026-04-18T08:12:48.999Z</time></trkpt><trkpt lat="42.93894650369445" lon="13.626082276496696"><ele>434.0</ele><time>2026-04-18T08:12:50Z</time></trkpt><trkpt lat="42.93900583513713" lon="13.626237288174089"><ele>434.0</ele><time>2026-04-18T08:12:51Z</time></trkpt><trkpt lat="42.939068106562665" lon="13.626401076873556"><ele>434.0</ele><time>2026-04-18T08:12:52Z</time></trkpt><trkpt lat="42.9391404786885" lon="13.626552824963404"><ele>433.75</ele><time>2026-04-18T08:12:53Z</time></trkpt><trkpt lat="42.939194589754095" lon="13.626708203756785"><ele>433.5</ele><time>2026-04-18T08:12:54Z</time></trkpt><trkpt lat="42.939247386665215" lon="13.626855305817845"><ele>433.25</ele><time>2026-04-18T08:12:55Z</time></trkpt><trkpt lat="42.939302138488365" lon="13.627007123970975"><ele>433.0</ele><time>2026-04-18T08:12:56Z</time></trkpt><trkpt lat="42.93936438320903" lon="13.627179131153715"><ele>433.0</ele><time>2026-04-18T08:12:57Z</time></trkpt><trkpt lat="42.9394251326723" lon="13.62733567480559"><ele>433.0</ele><time>2026-04-18T08:12:58Z</time></trkpt><trkpt lat="42.93948312357855" lon="13.627470869118937"><ele>433.0</ele><time>2026-04-18T08:12:59Z</time></trkpt><trkpt lat="42.93952656918094" lon="13.627623181770772"><ele>433.0</ele><time>2026-04-18T08:13:00Z</time></trkpt><trkpt lat="42.93957573488664" lon="13.627778517122234"><ele>430.75</ele><time>2026-04-18T08:13:01Z</time></trkpt><trkpt lat="42.93963397007307" lon="13.627956174490903"><ele>428.5</ele><time>2026-04-18T08:13:02Z</time></trkpt><trkpt lat="42.93966158871465" lon="13.628147024501905"><ele>426.25</ele><time>2026-04-18T08:13:03Z</time></trkpt><trkpt lat="42.93969534877014" lon="13.62834459666066"><ele>424.0</ele><time>2026-04-18T08:13:04Z</time></trkpt><trkpt lat="42.93972862223732" lon="13.628549107078802"><ele>424.5</ele><time>2026-04-18T08:13:05Z</time></trkpt><trkpt lat="42.939769332301815" lon="13.628740676934871"><ele>425.0</ele><time>2026-04-18T08:13:06Z</time></trkpt><trkpt lat="42.9398361172397" lon="13.628919434711154"><ele>425.5</ele><time>2026-04-18T08:13:07Z</time></trkpt><trkpt lat="42.93990556325497" lon="13.629089395662664"><ele>426.0</ele><time>2026-04-18T08:13:08.001Z</time></trkpt><trkpt lat="42.93997756096081" lon="13.629253816028397"><ele>430.33333333333337</ele><time>2026-04-18T08:13:09.001Z</time></trkpt><trkpt lat="42.940086473301115" lon="13.629395335038287"><ele>434.6666666666667</ele><time>2026-04-18T08:13:10.001Z</time></trkpt><trkpt lat="42.94018639130228" lon="13.629578287160118"><ele>439.0</ele><time>2026-04-18T08:13:11.001Z</time></trkpt><trkpt lat="42.94032869784777" lon="13.629735121749723"><ele>439.0</ele><time>2026-04-18T08:13:12.001Z</time></trkpt><trkpt lat="42.940446210717106" lon="13.62994383950438"><ele>439.0</ele><time>2026-04-18T08:13:13.001Z</time></trkpt><trkpt lat="42.94059223184426" lon="13.630155426254618"><ele>439.0</ele><time>2026-04-18T08:13:14.001Z</time></trkpt><trkpt lat="42.94073549025472" lon="13.630363676347597"><ele>439.0</ele><time>2026-04-18T08:13:15.001Z</time></trkpt><trkpt lat="42.9408748434228" lon="13.630564707633749"><ele>439.0</ele><time>2026-04-18T08:13:16.001Z</time></trkpt><trkpt lat="42.941003354415336" lon="13.630750535746134"><ele>439.0</ele><time>2026-04-18T08:13:17.001Z</time></trkpt><trkpt lat="42.94110844206819" lon="13.630901574292695"><ele>441.0</ele><time>2026-04-18T08:13:18.001Z</time></trkpt><trkpt lat="42.94119801184205" lon="13.631028367642823"><ele>443.0</ele><time>2026-04-18T08:13:19.001Z</time></trkpt><trkpt lat="42.941288580762645" lon="13.631123857233137"><ele>445.0</ele><time>2026-04-18T08:13:20.001Z</time></trkpt><trkpt lat="42.941373025203056" lon="13.631194423590621"><ele>447.0</ele><time>2026-04-18T08:13:21.001Z</time></trkpt><trkpt lat="42.94145616373356" lon="13.631219129059462"><ele>449.0</ele><time>2026-04-18T08:13:22.001Z</time></trkpt><trkpt lat="42.94153812088223" lon="13.631225077638655"><ele>449.2</ele><time>2026-04-18T08:13:23.001Z</time></trkpt><trkpt lat="42.94162336925419" lon="13.631198397911655"><ele>449.4</ele><time>2026-04-18T08:13:24.001Z</time></trkpt><trkpt lat="42.94170017447594" lon="13.631163216709957"><ele>449.6</ele><time>2026-04-18T08:13:25.001Z</time></trkpt><trkpt lat="42.94178683713094" lon="13.631112648556702"><ele>449.8</ele><time>2026-04-18T08:13:27.001Z</time></trkpt><trkpt lat="42.94182687312587" lon="13.631038437491018"><ele>450.0</ele><time>2026-04-18T08:13:41.002Z</time></trkpt><trkpt lat="42.941754269924324" lon="13.630860758828307"><ele>449.8571428571429</ele><time>2026-04-18T08:13:42.002Z</time></trkpt><trkpt lat="42.9417098150387" lon="13.63078582119558"><ele>449.7142857142857</ele><time>2026-04-18T08:13:43.002Z</time></trkpt><trkpt lat="42.94167708004716" lon="13.630704845637295"><ele>449.57142857142856</ele><time>2026-04-18T08:13:44.002Z</time></trkpt><trkpt lat="42.94164924959597" lon="13.63062287803199"><ele>449.42857142857144</ele><time>2026-04-18T08:13:45.002Z</time></trkpt><trkpt lat="42.941614207132204" lon="13.630537760231324"><ele>449.2857142857142</ele><time>2026-04-18T08:13:46.002Z</time></trkpt><trkpt lat="42.94157848998948" lon="13.630450499555234"><ele>449.1428571428571</ele><time>2026-04-18T08:13:47.002Z</time></trkpt><trkpt lat="42.941541956616184" lon="13.63035803863304"><ele>449.0</ele><time>2026-04-18T08:13:48.002Z</time></trkpt><trkpt lat="42.941505162152836" lon="13.630259433930295"><ele>449.66666666666663</ele><time>2026-04-18T08:13:49.002Z</time></trkpt><trkpt lat="42.941466787777664" lon="13.630162320959753"><ele>450.3333333333333</ele><time>2026-04-18T08:13:50.002Z</time></trkpt><trkpt lat="42.941423523015565" lon="13.630067706825171"><ele>451.0</ele><time>2026-04-18T08:13:51.002Z</time></trkpt><trkpt lat="42.94138228525511" lon="13.629968558970132"><ele>451.66666666666663</ele><time>2026-04-18T08:13:52.002Z</time></trkpt><trkpt lat="42.94134485785711" lon="13.629869921375994"><ele>452.3333333333333</ele><time>2026-04-18T08:13:53.002Z</time></trkpt><trkpt lat="42.94131356109888" lon="13.629756788837456"><ele>453.0</ele><time>2026-04-18T08:13:54.002Z</time></trkpt><trkpt lat="42.94127316765439" lon="13.629656118344949"><ele>453.0</ele><time>2026-04-18T08:13:55.002Z</time></trkpt><trkpt lat="42.94122955318627" lon="13.629551523535792"><ele>452.99999999999994</ele><time>2026-04-18T08:13:56.002Z</time></trkpt><trkpt lat="42.94118391842491" lon="13.62944068009669"><ele>452.99999999999994</ele><time>2026-04-18T08:13:57.002Z</time></trkpt><trkpt lat="42.941136270841284" lon="13.629319603774691"><ele>453.0</ele><time>2026-04-18T08:13:58.002Z</time></trkpt><trkpt lat="42.941082551842065" lon="13.629184795945939"><ele>453.0</ele><time>2026-04-18T08:13:59.002Z</time></trkpt><trkpt lat="42.941026264749304" lon="13.629044192382764"><ele>453.79999999999995</ele><time>2026-04-18T08:14:00.002Z</time></trkpt><trkpt lat="42.94097442333515" lon="13.62891868014129"><ele>454.59999999999997</ele><time>2026-04-18T08:14:01.002Z</time></trkpt><trkpt lat="42.940919429841294" lon="13.628787394743112"><ele>455.40000000000003</ele><time>2026-04-18T08:14:02.002Z</time></trkpt><trkpt lat="42.94086432786685" lon="13.628647405061416"><ele>456.20000000000005</ele><time>2026-04-18T08:14:03.002Z</time></trkpt><trkpt lat="42.94081034758759" lon="13.628508718515718"><ele>457.0</ele><time>2026-04-18T08:14:04.002Z</time></trkpt><trkpt lat="42.94074775302166" lon="13.628356466786194"><ele>456.5</ele><time>2026-04-18T08:14:05.002Z</time></trkpt><trkpt lat="42.94068820695412" lon="13.628207360994116"><ele>456.0</ele><time>2026-04-18T08:14:06.002Z</time></trkpt><trkpt lat="42.94062917142591" lon="13.628069458792064"><ele>455.5</ele><time>2026-04-18T08:14:07.002Z</time></trkpt><trkpt lat="42.94057063545012" lon="13.627921479987165"><ele>455.0</ele><time>2026-04-18T08:14:08.003Z</time></trkpt><trkpt lat="42.94051363756114" lon="13.627779493939352"><ele>455.0</ele><time>2026-04-18T08:14:09.003Z</time></trkpt><trkpt lat="42.940463372789395" lon="13.627639107358887"><ele>455.0</ele><time>2026-04-18T08:14:10.003Z</time></trkpt><trkpt lat="42.94040816510409" lon="13.62750004391317"><ele>455.0</ele><time>2026-04-18T08:14:11.003Z</time></trkpt><trkpt lat="42.9403536164188" lon="13.62736495636565"><ele>455.0</ele><time>2026-04-18T08:14:12.003Z</time></trkpt><trkpt lat="42.94030249331794" lon="13.62723192527282"><ele>455.0</ele><time>2026-04-18T08:14:13.003Z</time></trkpt><trkpt lat="42.940248895278096" lon="13.627098679574829"><ele>455.0</ele><time>2026-04-18T08:14:14.003Z</time></trkpt><trkpt lat="42.9401957952465" lon="13.62696392945693"><ele>455.0</ele><time>2026-04-18T08:14:15.003Z</time></trkpt><trkpt lat="42.94013892165993" lon="13.626829121182684"><ele>455.0</ele><time>2026-04-18T08:14:16.003Z</time></trkpt><trkpt lat="42.94008229414957" lon="13.626697964274413"><ele>455.0</ele><time>2026-04-18T08:14:17.003Z</time></trkpt><trkpt lat="42.94002440384376" lon="13.626568379780881"><ele>453.5</ele><time>2026-04-18T08:14:18.003Z</time></trkpt><trkpt lat="42.93997495166568" lon="13.626426683449983"><ele>452.0</ele><time>2026-04-18T08:14:19.003Z</time></trkpt><trkpt lat="42.939921947397735" lon="13.626292671146421"><ele>450.5</ele><time>2026-04-18T08:14:20.003Z</time></trkpt><trkpt lat="42.93987074915038" lon="13.626144507631444"><ele>449.0</ele><time>2026-04-18T08:14:21.003Z</time></trkpt><trkpt lat="42.9398187886668" lon="13.625986295232176"><ele>449.0</ele><time>2026-04-18T08:14:22.003Z</time></trkpt><trkpt lat="42.93975288170896" lon="13.625820363093435"><ele>449.0</ele><time>2026-04-18T08:14:23.003Z</time></trkpt><trkpt lat="42.939687896518784" lon="13.62565693687831"><ele>449.0</ele><time>2026-04-18T08:14:24.003Z</time></trkpt><trkpt lat="42.93962561362311" lon="13.625496522324376"><ele>449.0</ele><time>2026-04-18T08:14:25.003Z</time></trkpt><trkpt lat="42.939557248347754" lon="13.625337407137636"><ele>449.25</ele><time>2026-04-18T08:14:26.003Z</time></trkpt><trkpt lat="42.9394911880012" lon="13.625172181579766"><ele>449.5</ele><time>2026-04-18T08:14:27.003Z</time></trkpt><trkpt lat="42.93942949559509" lon="13.625016115520088"><ele>449.75</ele><time>2026-04-18T08:14:28.003Z</time></trkpt><trkpt lat="42.93936848588315" lon="13.624866674968233"><ele>450.0</ele><time>2026-04-18T08:14:29.003Z</time></trkpt><trkpt lat="42.939310379015126" lon="13.624723253196155"><ele>450.0</ele><time>2026-04-18T08:14:30.003Z</time></trkpt><trkpt lat="42.93925784824715" lon="13.624593080441882"><ele>450.0</ele><time>2026-04-18T08:14:31.003Z</time></trkpt><trkpt lat="42.93921302687604" lon="13.624482699783167"><ele>450.0</ele><time>2026-04-18T08:14:32.003Z</time></trkpt><trkpt lat="42.93917421307546" lon="13.624383935894912"><ele>450.0</ele><time>2026-04-18T08:14:33.003Z</time></trkpt><trkpt lat="42.93914110894075" lon="13.624298114882025"><ele>450.0</ele><time>2026-04-18T08:14:33.998Z</time></trkpt><trkpt lat="42.93908674727252" lon="13.624172368069871"><ele>449.8</ele><time>2026-04-18T08:14:35.998Z</time></trkpt><trkpt lat="42.939025319879285" lon="13.624045479543652"><ele>449.6</ele><time>2026-04-18T08:14:37.998Z</time></trkpt><trkpt lat="42.93899056346173" lon="13.623956743257612"><ele>449.4</ele><time>2026-04-18T08:14:38.999Z</time></trkpt><trkpt lat="42.93895195185764" lon="13.62384462624491"><ele>449.2</ele><time>2026-04-18T08:14:39.999Z</time></trkpt><trkpt lat="42.93890809856356" lon="13.623717717242943"><ele>449.0</ele><time>2026-04-18T08:14:40.999Z</time></trkpt><trkpt lat="42.93886808461412" lon="13.623603281980238"><ele>448.79999999999995</ele><time>2026-04-18T08:14:41.999Z</time></trkpt><trkpt lat="42.93882600385312" lon="13.623486444212144"><ele>448.59999999999997</ele><time>2026-04-18T08:14:42.999Z</time></trkpt><trkpt lat="42.93879515873702" lon="13.62338529575443"><ele>448.4</ele><time>2026-04-18T08:14:43.999Z</time></trkpt><trkpt lat="42.93875843113131" lon="13.623270684919893"><ele>448.2</ele><time>2026-04-18T08:14:44.999Z</time></trkpt><trkpt lat="42.938716403261594" lon="13.623153505445975"><ele>448.0</ele><time>2026-04-18T08:14:45.999Z</time></trkpt><trkpt lat="42.93867800320811" lon="13.623013363012236"><ele>448.0</ele><time>2026-04-18T08:14:46.999Z</time></trkpt><trkpt lat="42.93863921610017" lon="13.622894664507566"><ele>447.99999999999994</ele><time>2026-04-18T08:14:47.999Z</time></trkpt><trkpt lat="42.938600839638234" lon="13.622778185488976"><ele>447.99999999999994</ele><time>2026-04-18T08:14:48.999Z</time></trkpt><trkpt lat="42.938568032271945" lon="13.622665958941582"><ele>448.0</ele><time>2026-04-18T08:14:49.999Z</time></trkpt><trkpt lat="42.93853391449825" lon="13.622548910294014"><ele>448.0</ele><time>2026-04-18T08:14:50.999Z</time></trkpt><trkpt lat="42.93850068448444" lon="13.622442542899485"><ele>446.59999999999997</ele><time>2026-04-18T08:14:51.999Z</time></trkpt><trkpt lat="42.93847019769502" lon="13.622323441308136"><ele>445.19999999999993</ele><time>2026-04-18T08:14:52.999Z</time></trkpt><trkpt lat="42.93844899329621" lon="13.622200324412347"><ele>443.8</ele><time>2026-04-18T08:14:54Z</time></trkpt><trkpt lat="42.93846250786292" lon="13.62207195498642"><ele>442.4</ele><time>2026-04-18T08:14:55Z</time></trkpt><trkpt lat="42.938471245591394" lon="13.621935085373972"><ele>441.0</ele><time>2026-04-18T08:14:56Z</time></trkpt><trkpt lat="42.93848333040998" lon="13.621791252301726"><ele>438.5</ele><time>2026-04-18T08:14:57Z</time></trkpt><trkpt lat="42.938498070907286" lon="13.621630636809943"><ele>436.0</ele><time>2026-04-18T08:14:58Z</time></trkpt><trkpt lat="42.938506871080165" lon="13.62146210378612"><ele>433.5</ele><time>2026-04-18T08:14:59Z</time></trkpt><trkpt lat="42.938520356075045" lon="13.621297323322453"><ele>431.0</ele><time>2026-04-18T08:15:00Z</time></trkpt><trkpt lat="42.93853461438989" lon="13.621138263336531"><ele>427.8</ele><time>2026-04-18T08:15:01Z</time></trkpt><trkpt lat="42.9385466622955" lon="13.620992115172816"><ele>424.6</ele><time>2026-04-18T08:15:02Z</time></trkpt><trkpt lat="42.93856019151166" lon="13.620836907803655"><ele>421.4</ele><time>2026-04-18T08:15:03Z</time></trkpt><trkpt lat="42.938576838270684" lon="13.620690372235899"><ele>418.2</ele><time>2026-04-18T08:15:04Z</time></trkpt><trkpt lat="42.938588710604776" lon="13.620549321417583"><ele>415.0</ele><time>2026-04-18T08:15:05Z</time></trkpt><trkpt lat="42.9385964747373" lon="13.620402339734492"><ele>412.0</ele><time>2026-04-18T08:15:06Z</time></trkpt><trkpt lat="42.93859981442461" lon="13.620254752203486"><ele>409.0</ele><time>2026-04-18T08:15:07Z</time></trkpt><trkpt lat="42.9385911926505" lon="13.62012912235448"><ele>406.0</ele><time>2026-04-18T08:15:08Z</time></trkpt><trkpt lat="42.938558135364" lon="13.620029320644644"><ele>403.0</ele><time>2026-04-18T08:15:09Z</time></trkpt><trkpt lat="42.93848914105838" lon="13.61994368956641"><ele>400.0</ele><time>2026-04-18T08:15:10Z</time></trkpt><trkpt lat="42.938380650193054" lon="13.619906866771371"><ele>407.0</ele><time>2026-04-18T08:15:11Z</time></trkpt><trkpt lat="42.93828560137431" lon="13.619870983899505"><ele>414.0</ele><time>2026-04-18T08:15:12Z</time></trkpt><trkpt lat="42.93818703339845" lon="13.619828042395962"><ele>421.0</ele><time>2026-04-18T08:15:13.001Z</time></trkpt><trkpt lat="42.93807974814796" lon="13.61982064948285"><ele>428.0</ele><time>2026-04-18T08:15:14.001Z</time></trkpt><trkpt lat="42.93798834384033" lon="13.619807440447625"><ele>435.0</ele><time>2026-04-18T08:15:15.001Z</time></trkpt><trkpt lat="42.93789538069958" lon="13.619790085805349"><ele>435.0</ele><time>2026-04-18T08:15:16.001Z</time></trkpt><trkpt lat="42.937811582882894" lon="13.619761821203753"><ele>435.0</ele><time>2026-04-18T08:15:17.001Z</time></trkpt><trkpt lat="42.93773746017849" lon="13.61970186273201"><ele>435.0</ele><time>2026-04-18T08:15:18.001Z</time></trkpt><trkpt lat="42.93770546066169" lon="13.619579213872376"><ele>435.0</ele><time>2026-04-18T08:15:19.001Z</time></trkpt><trkpt lat="42.93765168219683" lon="13.619462004769865"><ele>435.0</ele><time>2026-04-18T08:15:20.001Z</time></trkpt><trkpt lat="42.93762639797556" lon="13.619321544349713"><ele>430.5</ele><time>2026-04-18T08:15:21.001Z</time></trkpt><trkpt lat="42.93763365848388" lon="13.619141618252549"><ele>426.0</ele><time>2026-04-18T08:15:22.001Z</time></trkpt><trkpt lat="42.93764127821964" lon="13.61897436563919"><ele>421.5</ele><time>2026-04-18T08:15:23.001Z</time></trkpt><trkpt lat="42.937642802454086" lon="13.618824562428891"><ele>417.0</ele><time>2026-04-18T08:15:24.001Z</time></trkpt><trkpt lat="42.9376430148143" lon="13.618683791563317"><ele>416.25</ele><time>2026-04-18T08:15:25.001Z</time></trkpt><trkpt lat="42.93764155485104" lon="13.618543835458949"><ele>415.5</ele><time>2026-04-18T08:15:26.001Z</time></trkpt><trkpt lat="42.93763787990681" lon="13.618391856984003"><ele>414.75</ele><time>2026-04-18T08:15:27.001Z</time></trkpt><trkpt lat="42.93763402027695" lon="13.618229634202768"><ele>414.0</ele><time>2026-04-18T08:15:28.001Z</time></trkpt><trkpt lat="42.93762717763187" lon="13.618058670445619"><ele>414.0</ele><time>2026-04-18T08:15:29.001Z</time></trkpt><trkpt lat="42.93762467083648" lon="13.617888065821205"><ele>414.0</ele><time>2026-04-18T08:15:30.001Z</time></trkpt><trkpt lat="42.937620421577755" lon="13.61772300739516"><ele>414.0</ele><time>2026-04-18T08:15:31.001Z</time></trkpt><trkpt lat="42.9376138484585" lon="13.617564472719376"><ele>414.0</ele><time>2026-04-18T08:15:32.001Z</time></trkpt><trkpt lat="42.93763620585679" lon="13.617401494077257"><ele>414.0</ele><time>2026-04-18T08:15:33.001Z</time></trkpt><trkpt lat="42.937651197055466" lon="13.617236165993841"><ele>414.0</ele><time>2026-04-18T08:15:34.001Z</time></trkpt><trkpt lat="42.93767595317881" lon="13.617067017760007"><ele>414.0</ele><time>2026-04-18T08:15:35.001Z</time></trkpt><trkpt lat="42.93770207630724" lon="13.616902890492655"><ele>414.0</ele><time>2026-04-18T08:15:36.001Z</time></trkpt><trkpt lat="42.937727147036725" lon="13.61675112738158"><ele>415.4</ele><time>2026-04-18T08:15:37.001Z</time></trkpt><trkpt lat="42.937752420108296" lon="13.616605669916371"><ele>416.79999999999995</ele><time>2026-04-18T08:15:38.001Z</time></trkpt><trkpt lat="42.937780951988685" lon="13.616462938129994"><ele>418.20000000000005</ele><time>2026-04-18T08:15:39.001Z</time></trkpt><trkpt lat="42.937810100081826" lon="13.61631689137176"><ele>419.6</ele><time>2026-04-18T08:15:40.001Z</time></trkpt><trkpt lat="42.93783974683502" lon="13.616168132096076"><ele>421.0</ele><time>2026-04-18T08:15:41.001Z</time></trkpt><trkpt lat="42.93787252660541" lon="13.61601308930468"><ele>422.0</ele><time>2026-04-18T08:15:42.002Z</time></trkpt><trkpt lat="42.93790414802684" lon="13.615865785717915"><ele>423.0</ele><time>2026-04-18T08:15:43.002Z</time></trkpt><trkpt lat="42.93793707352169" lon="13.615713542891928"><ele>424.0</ele><time>2026-04-18T08:15:44.002Z</time></trkpt><trkpt lat="42.937949809311036" lon="13.61555746404814"><ele>425.0</ele><time>2026-04-18T08:15:45.002Z</time></trkpt><trkpt lat="42.93798584028763" lon="13.615411140991537"><ele>425.2</ele><time>2026-04-18T08:15:46.002Z</time></trkpt><trkpt lat="42.93802287145954" lon="13.615258010246292"><ele>425.4</ele><time>2026-04-18T08:15:47.002Z</time></trkpt><trkpt lat="42.938052383251495" lon="13.615111872929626"><ele>425.6</ele><time>2026-04-18T08:15:48.002Z</time></trkpt><trkpt lat="42.938083026949066" lon="13.614972880479003"><ele>425.8</ele><time>2026-04-18T08:15:49.002Z</time></trkpt><trkpt lat="42.938115196759156" lon="13.6148318579092"><ele>426.0</ele><time>2026-04-18T08:15:50.002Z</time></trkpt><trkpt lat="42.93814246250198" lon="13.614697059212116"><ele>426.0</ele><time>2026-04-18T08:15:51.002Z</time></trkpt><trkpt lat="42.93817035090303" lon="13.614580827355667"><ele>426.0</ele><time>2026-04-18T08:15:52.002Z</time></trkpt><trkpt lat="42.93819077544394" lon="13.61447436799231"><ele>426.0</ele><time>2026-04-18T08:15:53.002Z</time></trkpt><trkpt lat="42.93821499503953" lon="13.614371027315121"><ele>426.0</ele><time>2026-04-18T08:15:54.002Z</time></trkpt><trkpt lat="42.93822914900227" lon="13.614261417809853"><ele>426.0</ele><time>2026-04-18T08:15:55.002Z</time></trkpt><trkpt lat="42.93825100987341" lon="13.614156231393872"><ele>426.0</ele><time>2026-04-18T08:15:56.002Z</time></trkpt><trkpt lat="42.93828144932595" lon="13.614065288268844"><ele>426.1666666666667</ele><time>2026-04-18T08:15:57.002Z</time></trkpt><trkpt lat="42.93833557339925" lon="13.61396532858876"><ele>426.33333333333337</ele><time>2026-04-18T08:15:59.002Z</time></trkpt><trkpt lat="42.938417564734955" lon="13.613816677368526"><ele>426.5</ele><time>2026-04-18T08:16:01.002Z</time></trkpt><trkpt lat="42.93846255031862" lon="13.61374746729314"><ele>426.6666666666667</ele><time>2026-04-18T08:16:02.002Z</time></trkpt><trkpt lat="42.93851022166352" lon="13.613682297330865"><ele>426.83333333333337</ele><time>2026-04-18T08:16:03.002Z</time></trkpt><trkpt lat="42.93856031058554" lon="13.613617027444551"><ele>427.0</ele><time>2026-04-18T08:16:04.002Z</time></trkpt><trkpt lat="42.938641717258164" lon="13.613565685692157"><ele>425.6666666666667</ele><time>2026-04-18T08:16:05.002Z</time></trkpt><trkpt lat="42.9387123840747" lon="13.613491733122217"><ele>424.33333333333337</ele><time>2026-04-18T08:16:06.002Z</time></trkpt><trkpt lat="42.938777271142534" lon="13.613434197121544"><ele>423.0</ele><time>2026-04-18T08:16:07.002Z</time></trkpt><trkpt lat="42.938839987093935" lon="13.613383107682603"><ele>421.66666666666663</ele><time>2026-04-18T08:16:08.002Z</time></trkpt><trkpt lat="42.938906798391436" lon="13.613329665546084"><ele>420.3333333333333</ele><time>2026-04-18T08:16:09.002Z</time></trkpt><trkpt lat="42.938979289583735" lon="13.61327941104107"><ele>419.0</ele><time>2026-04-18T08:16:10.002Z</time></trkpt><trkpt lat="42.939061591390434" lon="13.6132353744338"><ele>419.0</ele><time>2026-04-18T08:16:11.002Z</time></trkpt><trkpt lat="42.939171626206324" lon="13.613180893181585"><ele>419.0</ele><time>2026-04-18T08:16:12.002Z</time></trkpt><trkpt lat="42.939279197267844" lon="13.613120786538246"><ele>419.0</ele><time>2026-04-18T08:16:13.002Z</time></trkpt><trkpt lat="42.93938344769073" lon="13.613061221091908"><ele>419.0</ele><time>2026-04-18T08:16:14.003Z</time></trkpt><trkpt lat="42.93948295024873" lon="13.613001265290743"><ele>418.0</ele><time>2026-04-18T08:16:15.003Z</time></trkpt><trkpt lat="42.93957754165615" lon="13.612888336040983"><ele>417.0</ele><time>2026-04-18T08:16:16.003Z</time></trkpt><trkpt lat="42.939676170577954" lon="13.612805072869246"><ele>416.0</ele><time>2026-04-18T08:16:17.003Z</time></trkpt><trkpt lat="42.93976230452023" lon="13.612715852049861"><ele>415.0</ele><time>2026-04-18T08:16:18.003Z</time></trkpt><trkpt lat="42.93983942170873" lon="13.612630488838002"><ele>414.0</ele><time>2026-04-18T08:16:19.003Z</time></trkpt><trkpt lat="42.93991597834531" lon="13.61254603530429"><ele>414.0</ele><time>2026-04-18T08:16:20.003Z</time></trkpt><trkpt lat="42.940005003417205" lon="13.612463547074958"><ele>414.0</ele><time>2026-04-18T08:16:21.003Z</time></trkpt><trkpt lat="42.940081753791226" lon="13.612382227250286"><ele>414.0</ele><time>2026-04-18T08:16:22.003Z</time></trkpt><trkpt lat="42.940150312328804" lon="13.612308123440425"><ele>414.0</ele><time>2026-04-18T08:16:23.003Z</time></trkpt><trkpt lat="42.94021252598255" lon="13.612224302266831"><ele>414.0</ele><time>2026-04-18T08:16:24.003Z</time></trkpt><trkpt lat="42.9402682457775" lon="13.612144621975133"><ele>409.79999999999995</ele><time>2026-04-18T08:16:25.003Z</time></trkpt><trkpt lat="42.94031650231643" lon="13.61205673721297"><ele>405.59999999999997</ele><time>2026-04-18T08:16:26.003Z</time></trkpt><trkpt lat="42.940365381682994" lon="13.611955776650799"><ele>401.4</ele><time>2026-04-18T08:16:27.003Z</time></trkpt><trkpt lat="42.94042799746899" lon="13.611840675891731"><ele>397.2</ele><time>2026-04-18T08:16:28.003Z</time></trkpt><trkpt lat="42.940482921852926" lon="13.611704244935975"><ele>393.0</ele><time>2026-04-18T08:16:29.003Z</time></trkpt><trkpt lat="42.94053565937332" lon="13.611578539487406"><ele>393.0</ele><time>2026-04-18T08:16:30.003Z</time></trkpt><trkpt lat="42.94059077460849" lon="13.611443305449956"><ele>393.0</ele><time>2026-04-18T08:16:31.003Z</time></trkpt><trkpt lat="42.94064622719638" lon="13.611319412385205"><ele>393.0</ele><time>2026-04-18T08:16:32.003Z</time></trkpt><trkpt lat="42.94070800314959" lon="13.611204306469704"><ele>393.0</ele><time>2026-04-18T08:16:33.003Z</time></trkpt><trkpt lat="42.94076470614878" lon="13.611110415257553"><ele>393.0</ele><time>2026-04-18T08:16:34.003Z</time></trkpt><trkpt lat="42.94082994942386" lon="13.611003543958095"><ele>390.4</ele><time>2026-04-18T08:16:35.003Z</time></trkpt><trkpt lat="42.94088975849861" lon="13.610893183530154"><ele>387.79999999999995</ele><time>2026-04-18T08:16:36.003Z</time></trkpt><trkpt lat="42.94095037484292" lon="13.61078242626441"><ele>385.2</ele><time>2026-04-18T08:16:37.003Z</time></trkpt><trkpt lat="42.941013784874066" lon="13.610668645364829"><ele>382.6</ele><time>2026-04-18T08:16:38.003Z</time></trkpt><trkpt lat="42.94107143584317" lon="13.610569064809543"><ele>380.0</ele><time>2026-04-18T08:16:39.003Z</time></trkpt><trkpt lat="42.94113366926041" lon="13.610464773149369"><ele>380.0</ele><time>2026-04-18T08:16:39.998Z</time></trkpt><trkpt lat="42.9412049483267" lon="13.610361688718612"><ele>380.0</ele><time>2026-04-18T08:16:40.998Z</time></trkpt><trkpt lat="42.941269252467826" lon="13.610257468723267"><ele>380.0</ele><time>2026-04-18T08:16:41.999Z</time></trkpt><trkpt lat="42.94134480291668" lon="13.610139038081977"><ele>380.0</ele><time>2026-04-18T08:16:42.999Z</time></trkpt><trkpt lat="42.941414273763485" lon="13.61004103072236"><ele>380.0</ele><time>2026-04-18T08:16:43.999Z</time></trkpt><trkpt lat="42.94148292827124" lon="13.609951234438736"><ele>378.8</ele><time>2026-04-18T08:16:44.999Z</time></trkpt><trkpt lat="42.94155800912973" lon="13.609878908145497"><ele>377.6</ele><time>2026-04-18T08:16:45.999Z</time></trkpt><trkpt lat="42.94162803483385" lon="13.609815667305446"><ele>376.4</ele><time>2026-04-18T08:16:46.999Z</time></trkpt><trkpt lat="42.94171149609183" lon="13.609737135195298"><ele>375.2</ele><time>2026-04-18T08:16:47.999Z</time></trkpt><trkpt lat="42.94179186710133" lon="13.609663074121919"><ele>374.0</ele><time>2026-04-18T08:16:48.999Z</time></trkpt><trkpt lat="42.941862623325356" lon="13.60959609226598"><ele>374.0</ele><time>2026-04-18T08:16:49.999Z</time></trkpt><trkpt lat="42.94192346101434" lon="13.609525875379799"><ele>374.0</ele><time>2026-04-18T08:16:50.999Z</time></trkpt><trkpt lat="42.941980415006356" lon="13.609456673371753"><ele>374.0</ele><time>2026-04-18T08:16:51.999Z</time></trkpt><trkpt lat="42.942033394088575" lon="13.609395569368292"><ele>374.0</ele><time>2026-04-18T08:16:52.999Z</time></trkpt><trkpt lat="42.942087693202886" lon="13.609333966289705"><ele>374.0</ele><time>2026-04-18T08:16:53.999Z</time></trkpt><trkpt lat="42.942135487132504" lon="13.609264590655352"><ele>374.0</ele><time>2026-04-18T08:16:54.999Z</time></trkpt><trkpt lat="42.9421801404223" lon="13.609169167586659"><ele>374.0</ele><time>2026-04-18T08:16:56Z</time></trkpt><trkpt lat="42.94222267139161" lon="13.6090695476921"><ele>374.5</ele><time>2026-04-18T08:16:57Z</time></trkpt><trkpt lat="42.942253586350056" lon="13.608960308758425"><ele>375.0</ele><time>2026-04-18T08:16:58Z</time></trkpt><trkpt lat="42.94228090940149" lon="13.60884844168662"><ele>375.5</ele><time>2026-04-18T08:16:59Z</time></trkpt><trkpt lat="42.9423087933161" lon="13.608740293769026"><ele>376.0</ele><time>2026-04-18T08:17:00Z</time></trkpt><trkpt lat="42.942341152535086" lon="13.608627936542149"><ele>376.5</ele><time>2026-04-18T08:17:01Z</time></trkpt><trkpt lat="42.94237046440536" lon="13.60851564201251"><ele>377.0</ele><time>2026-04-18T08:17:02Z</time></trkpt><trkpt lat="42.94241346761449" lon="13.608421474514413"><ele>377.0</ele><time>2026-04-18T08:17:03Z</time></trkpt><trkpt lat="42.94244723224007" lon="13.60833705959965"><ele>377.0</ele><time>2026-04-18T08:17:04Z</time></trkpt><trkpt lat="42.942485867213094" lon="13.608251253606133"><ele>377.0</ele><time>2026-04-18T08:17:05Z</time></trkpt><trkpt lat="42.94252814676813" lon="13.608170008055053"><ele>377.0</ele><time>2026-04-18T08:17:06Z</time></trkpt><trkpt lat="42.94257659877569" lon="13.608085951001394"><ele>377.0</ele><time>2026-04-18T08:17:07Z</time></trkpt><trkpt lat="42.942623154666556" lon="13.608005183454509"><ele>377.0</ele><time>2026-04-18T08:17:08Z</time></trkpt><trkpt lat="42.94267198864336" lon="13.607920463756862"><ele>373.6666666666667</ele><time>2026-04-18T08:17:09Z</time></trkpt><trkpt lat="42.94272372840864" lon="13.607830702935356"><ele>370.33333333333337</ele><time>2026-04-18T08:17:10Z</time></trkpt><trkpt lat="42.94277472432047" lon="13.607739827964593"><ele>367.0</ele><time>2026-04-18T08:17:11Z</time></trkpt><trkpt lat="42.94282185296763" lon="13.607650766378276"><ele>363.6666666666667</ele><time>2026-04-18T08:17:12Z</time></trkpt><trkpt lat="42.94285327558083" lon="13.60754988369992"><ele>360.3333333333333</ele><time>2026-04-18T08:17:13Z</time></trkpt><trkpt lat="42.94290113029858" lon="13.607471843097056"><ele>357.0</ele><time>2026-04-18T08:17:14Z</time></trkpt><trkpt lat="42.9429476179639" lon="13.60738738509695"><ele>357.0</ele><time>2026-04-18T08:17:15Z</time></trkpt><trkpt lat="42.94299091885384" lon="13.607299828701786"><ele>357.0</ele><time>2026-04-18T08:17:16.001Z</time></trkpt><trkpt lat="42.943028374413096" lon="13.607208681427597"><ele>357.0</ele><time>2026-04-18T08:17:17.001Z</time></trkpt><trkpt lat="42.9430626667595" lon="13.607121314126339"><ele>357.0</ele><time>2026-04-18T08:17:18.001Z</time></trkpt><trkpt lat="42.943085210060396" lon="13.607023580193642"><ele>357.0</ele><time>2026-04-18T08:17:19.001Z</time></trkpt><trkpt lat="42.94311259931242" lon="13.60691836636358"><ele>357.0</ele><time>2026-04-18T08:17:20.001Z</time></trkpt><trkpt lat="42.94313017977961" lon="13.60679625485278"><ele>358.20000000000005</ele><time>2026-04-18T08:17:21.001Z</time></trkpt><trkpt lat="42.94314126694151" lon="13.606677936446482"><ele>359.4</ele><time>2026-04-18T08:17:22.001Z</time></trkpt><trkpt lat="42.94315361393672" lon="13.606549406860442"><ele>360.6</ele><time>2026-04-18T08:17:23.001Z</time></trkpt><trkpt lat="42.94316115406235" lon="13.606427122237243"><ele>361.79999999999995</ele><time>2026-04-18T08:17:24.001Z</time></trkpt><trkpt lat="42.94316930242884" lon="13.606291279772002"><ele>363.0</ele><time>2026-04-18T08:17:25.001Z</time></trkpt><trkpt lat="42.94317043128822" lon="13.606141873602619"><ele>363.2</ele><time>2026-04-18T08:17:26.001Z</time></trkpt><trkpt lat="42.943167924258944" lon="13.605995856541437"><ele>363.4</ele><time>2026-04-18T08:17:27.001Z</time></trkpt><trkpt lat="42.9431751807934" lon="13.605862692499826"><ele>363.59999999999997</ele><time>2026-04-18T08:17:28.001Z</time></trkpt><trkpt lat="42.943177246999" lon="13.605720237256232"><ele>363.79999999999995</ele><time>2026-04-18T08:17:29.001Z</time></trkpt><trkpt lat="42.94318224513654" lon="13.605545596555617"><ele>364.0</ele><time>2026-04-18T08:17:30.001Z</time></trkpt><trkpt lat="42.94318653556888" lon="13.605385332326902"><ele>363.79999999999995</ele><time>2026-04-18T08:17:31.001Z</time></trkpt><trkpt lat="42.94319453289575" lon="13.605223505662964"><ele>363.59999999999997</ele><time>2026-04-18T08:17:32.001Z</time></trkpt><trkpt lat="42.94319884671594" lon="13.605068448380422"><ele>363.4</ele><time>2026-04-18T08:17:33.001Z</time></trkpt><trkpt lat="42.94320221006277" lon="13.604943791178316"><ele>363.2</ele><time>2026-04-18T08:17:34.001Z</time></trkpt><trkpt lat="42.943207643512075" lon="13.60481640246966"><ele>363.0</ele><time>2026-04-18T08:17:35.001Z</time></trkpt><trkpt lat="42.94321414251287" lon="13.60468589220325"><ele>363.0</ele><time>2026-04-18T08:17:36.001Z</time></trkpt><trkpt lat="42.94322584407475" lon="13.604550475824668"><ele>363.0</ele><time>2026-04-18T08:17:37.001Z</time></trkpt><trkpt lat="42.94326348425006" lon="13.60440325584374"><ele>363.0</ele><time>2026-04-18T08:17:38.001Z</time></trkpt><trkpt lat="42.94329322764124" lon="13.604263730137042"><ele>363.0</ele><time>2026-04-18T08:17:39.001Z</time></trkpt><trkpt lat="42.94331978947666" lon="13.6041732991488"><ele>363.0</ele><time>2026-04-18T08:17:40.001Z</time></trkpt><trkpt lat="42.94338831701754" lon="13.604019170131625"><ele>360.8333333333333</ele><time>2026-04-18T08:17:42.001Z</time></trkpt><trkpt lat="42.94344343096138" lon="13.603958634066897"><ele>358.6666666666667</ele><time>2026-04-18T08:17:43.001Z</time></trkpt><trkpt lat="42.94350637704577" lon="13.603909282744059"><ele>356.5</ele><time>2026-04-18T08:17:44.002Z</time></trkpt><trkpt lat="42.943575820293844" lon="13.603899293787736"><ele>354.33333333333337</ele><time>2026-04-18T08:17:45.002Z</time></trkpt><trkpt lat="42.94364117962985" lon="13.603907546726774"><ele>352.1666666666667</ele><time>2026-04-18T08:17:46.002Z</time></trkpt><trkpt lat="42.94371904486697" lon="13.603911582085658"><ele>350.0</ele><time>2026-04-18T08:17:47.002Z</time></trkpt><trkpt lat="42.943824060550796" lon="13.60391531988445"><ele>350.0</ele><time>2026-04-18T08:17:48.002Z</time></trkpt><trkpt lat="42.94392773790288" lon="13.603919918307751"><ele>350.0</ele><time>2026-04-18T08:17:49.002Z</time></trkpt><trkpt lat="42.94402704321798" lon="13.60392432281963"><ele>350.0</ele><time>2026-04-18T08:17:50.002Z</time></trkpt><trkpt lat="42.94412293948388" lon="13.603928111933957"><ele>350.0</ele><time>2026-04-18T08:17:51.002Z</time></trkpt><trkpt lat="42.94421553564509" lon="13.603927742289715"><ele>350.0</ele><time>2026-04-18T08:17:52.002Z</time></trkpt><trkpt lat="42.94430689358598" lon="13.603927199737445"><ele>348.33333333333337</ele><time>2026-04-18T08:17:53.002Z</time></trkpt><trkpt lat="42.944392627326906" lon="13.603927798246655"><ele>346.6666666666667</ele><time>2026-04-18T08:17:54.002Z</time></trkpt><trkpt lat="42.944463098673346" lon="13.603911259963214"><ele>345.0</ele><time>2026-04-18T08:17:55.002Z</time></trkpt><trkpt lat="42.94455937249005" lon="13.603956466093985"><ele>343.3333333333333</ele><time>2026-04-18T08:17:57.002Z</time></trkpt><trkpt lat="42.94461970193571" lon="13.603931800178238"><ele>341.66666666666663</ele><time>2026-04-18T08:18:01.002Z</time></trkpt><trkpt lat="42.94465459772922" lon="13.603827277262358"><ele>340.0</ele><time>2026-04-18T08:18:05.002Z</time></trkpt><trkpt lat="42.94469937384236" lon="13.603753986757173"><ele>340.16666666666663</ele><time>2026-04-18T08:18:07.002Z</time></trkpt><trkpt lat="42.944721577529975" lon="13.603641028839432"><ele>340.3333333333333</ele><time>2026-04-18T08:18:09.002Z</time></trkpt><trkpt lat="42.944759025154575" lon="13.603543886708684"><ele>340.5</ele><time>2026-04-18T08:18:11.002Z</time></trkpt><trkpt lat="42.94479968555624" lon="13.603445286520632"><ele>340.6666666666667</ele><time>2026-04-18T08:18:13.002Z</time></trkpt><trkpt lat="42.94483325832386" lon="13.603347867183249"><ele>340.83333333333337</ele><time>2026-04-18T08:18:15.002Z</time></trkpt><trkpt lat="42.94485461721183" lon="13.603205014449093"><ele>341.0</ele><time>2026-04-18T08:18:18.003Z</time></trkpt><trkpt lat="42.9448803628158" lon="13.603105733733702"><ele>341.0</ele><time>2026-04-18T08:18:20.003Z</time></trkpt><trkpt lat="42.94489872636135" lon="13.603014855510306"><ele>341.0</ele><time>2026-04-18T08:18:22.003Z</time></trkpt><trkpt lat="42.94494037988354" lon="13.602930956913594"><ele>341.0</ele><time>2026-04-18T08:18:25.003Z</time></trkpt><trkpt lat="42.94502576837066" lon="13.60291995188591"><ele>341.0</ele><time>2026-04-18T08:18:29.003Z</time></trkpt><trkpt lat="42.945104287698534" lon="13.603006050178672"><ele>341.0</ele><time>2026-04-18T08:18:31.003Z</time></trkpt><trkpt lat="42.945156386557855" lon="13.603069609102063"><ele>341.0</ele><time>2026-04-18T08:18:32.003Z</time></trkpt><trkpt lat="42.94521057096048" lon="13.603123101457381"><ele>342.0</ele><time>2026-04-18T08:18:33.003Z</time></trkpt><trkpt lat="42.945284513637525" lon="13.60323527781417"><ele>343.0</ele><time>2026-04-18T08:18:35.003Z</time></trkpt><trkpt lat="42.945382505928016" lon="13.603317047638031"><ele>344.0</ele><time>2026-04-18T08:18:37.003Z</time></trkpt><trkpt lat="42.94549458716751" lon="13.603403422169114"><ele>345.0</ele><time>2026-04-18T08:18:39.003Z</time></trkpt><trkpt lat="42.94555639988963" lon="13.603451057662738"><ele>346.0</ele><time>2026-04-18T08:18:40.003Z</time></trkpt><trkpt lat="42.94561947017206" lon="13.603503540601233"><ele>346.0</ele><time>2026-04-18T08:18:41.003Z</time></trkpt><trkpt lat="42.94568975215188" lon="13.603565169813502"><ele>346.0</ele><time>2026-04-18T08:18:42.003Z</time></trkpt><trkpt lat="42.94576665395961" lon="13.603634046804693"><ele>346.0</ele><time>2026-04-18T08:18:43.003Z</time></trkpt><trkpt lat="42.94584352225222" lon="13.603702893700367"><ele>346.0</ele><time>2026-04-18T08:18:44.003Z</time></trkpt><trkpt lat="42.94591393809418" lon="13.603761601474753"><ele>346.0</ele><time>2026-04-18T08:18:45.003Z</time></trkpt><trkpt lat="42.94598446293963" lon="13.603820132900127"><ele>346.0</ele><time>2026-04-18T08:18:46.001Z</time></trkpt><trkpt lat="42.94604128237462" lon="13.603868049484227"><ele>346.0</ele><time>2026-04-18T08:18:47Z</time></trkpt><trkpt lat="42.94611511696342" lon="13.603946471703829"><ele>346.0</ele><time>2026-04-18T08:18:49Z</time></trkpt><trkpt lat="42.94616809062644" lon="13.60409466540745"><ele>346.0</ele><time>2026-04-18T08:18:51Z</time></trkpt><trkpt lat="42.946211465066725" lon="13.604171562840223"><ele>346.0</ele><time>2026-04-18T08:18:52Z</time></trkpt><trkpt lat="42.946269642104454" lon="13.604238676584327"><ele>346.0</ele><time>2026-04-18T08:18:53Z</time></trkpt><trkpt lat="42.94632396546536" lon="13.604294205804576"><ele>346.0</ele><time>2026-04-18T08:18:54Z</time></trkpt><trkpt lat="42.94637533362341" lon="13.60434609701793"><ele>346.0</ele><time>2026-04-18T08:18:55Z</time></trkpt><trkpt lat="42.94643028084063" lon="13.604402381681856"><ele>346.0</ele><time>2026-04-18T08:18:56Z</time></trkpt><trkpt lat="42.94648531953462" lon="13.604462013160083"><ele>346.0</ele><time>2026-04-18T08:18:57Z</time></trkpt><trkpt lat="42.94657780917265" lon="13.604535726442014"><ele>346.0</ele><time>2026-04-18T08:18:59Z</time></trkpt><trkpt lat="42.94670027276245" lon="13.604561181699415"><ele>346.0</ele><time>2026-04-18T08:19:01Z</time></trkpt><trkpt lat="42.946818636644664" lon="13.604576409438058"><ele>346.20000000000005</ele><time>2026-04-18T08:19:03Z</time></trkpt><trkpt lat="42.94689669683274" lon="13.604605636106369"><ele>346.40000000000003</ele><time>2026-04-18T08:19:05Z</time></trkpt><trkpt lat="42.94699386942665" lon="13.60465212093808"><ele>346.6</ele><time>2026-04-18T08:19:08Z</time></trkpt><trkpt lat="42.947038086700275" lon="13.604736654552685"><ele>346.8</ele><time>2026-04-18T08:19:10Z</time></trkpt><trkpt lat="42.94711836882825" lon="13.604866964467725"><ele>347.0</ele><time>2026-04-18T08:19:12Z</time></trkpt><trkpt lat="42.94716928991029" lon="13.604942474553885"><ele>347.0</ele><time>2026-04-18T08:19:13Z</time></trkpt><trkpt lat="42.947217280213174" lon="13.605009815567298"><ele>347.0</ele><time>2026-04-18T08:19:14Z</time></trkpt><trkpt lat="42.947278312093445" lon="13.605088710913607"><ele>347.0</ele><time>2026-04-18T08:19:15.001Z</time></trkpt><trkpt lat="42.94734036574533" lon="13.605159874444578"><ele>347.0</ele><time>2026-04-18T08:19:16.001Z</time></trkpt><trkpt lat="42.94741498471907" lon="13.605237581225605"><ele>347.0</ele><time>2026-04-18T08:19:17.001Z</time></trkpt><trkpt lat="42.94749423458625" lon="13.605310056735837"><ele>347.0</ele><time>2026-04-18T08:19:18.001Z</time></trkpt><trkpt lat="42.94757887708582" lon="13.605377452208499"><ele>347.6</ele><time>2026-04-18T08:19:19.001Z</time></trkpt><trkpt lat="42.94766265016556" lon="13.605432599028799"><ele>348.20000000000005</ele><time>2026-04-18T08:19:20.001Z</time></trkpt><trkpt lat="42.94775209122717" lon="13.605490568367006"><ele>348.8</ele><time>2026-04-18T08:19:21.001Z</time></trkpt><trkpt lat="42.94783923797912" lon="13.60555047000574"><ele>349.4</ele><time>2026-04-18T08:19:22.001Z</time></trkpt><trkpt lat="42.947911090663986" lon="13.605606874206224"><ele>350.0</ele><time>2026-04-18T08:19:23.001Z</time></trkpt><trkpt lat="42.947985359721415" lon="13.605669022523443"><ele>350.0</ele><time>2026-04-18T08:19:24.001Z</time></trkpt><trkpt lat="42.94805955049325" lon="13.605742862035523"><ele>350.0</ele><time>2026-04-18T08:19:25.001Z</time></trkpt><trkpt lat="42.9481193037145" lon="13.605815041562767"><ele>350.0</ele><time>2026-04-18T08:19:26.001Z</time></trkpt><trkpt lat="42.94818056734255" lon="13.605900678970924"><ele>350.0</ele><time>2026-04-18T08:19:27.001Z</time></trkpt><trkpt lat="42.94824051819958" lon="13.60599050894764"><ele>350.0</ele><time>2026-04-18T08:19:28.001Z</time></trkpt><trkpt lat="42.94829103215172" lon="13.606075646196937"><ele>350.0</ele><time>2026-04-18T08:19:29.001Z</time></trkpt><trkpt lat="42.94832647151226" lon="13.606158736677402"><ele>349.0</ele><time>2026-04-18T08:19:30.001Z</time></trkpt><trkpt lat="42.948345497437124" lon="13.606246496321326"><ele>348.0</ele><time>2026-04-18T08:19:31.001Z</time></trkpt><trkpt lat="42.94834168988156" lon="13.606337500586063"><ele>347.0</ele><time>2026-04-18T08:19:32.001Z</time></trkpt><trkpt lat="42.94835832596383" lon="13.606449335271432"><ele>346.0</ele><time>2026-04-18T08:19:33.001Z</time></trkpt><trkpt lat="42.94837837310264" lon="13.606553539760718"><ele>345.0</ele><time>2026-04-18T08:19:34.001Z</time></trkpt><trkpt lat="42.94840761919623" lon="13.606632920534764"><ele>344.0</ele><time>2026-04-18T08:19:35.001Z</time></trkpt><trkpt lat="42.948459896433015" lon="13.606703529371744"><ele>343.0</ele><time>2026-04-18T08:19:37.001Z</time></trkpt><trkpt lat="42.94855798223811" lon="13.606636892206486"><ele>342.8333333333333</ele><time>2026-04-18T08:19:39.001Z</time></trkpt><trkpt lat="42.94862946559192" lon="13.606600633236999"><ele>342.66666666666663</ele><time>2026-04-18T08:19:41.001Z</time></trkpt><trkpt lat="42.94866572360611" lon="13.606752893015702"><ele>342.5</ele><time>2026-04-18T08:19:43.001Z</time></trkpt><trkpt lat="42.94871220179148" lon="13.606834455972956"><ele>342.3333333333333</ele><time>2026-04-18T08:19:44.001Z</time></trkpt><trkpt lat="42.94876568732595" lon="13.606910891919716"><ele>342.1666666666667</ele><time>2026-04-18T08:19:45.001Z</time></trkpt><trkpt lat="42.94882712011066" lon="13.606969120008515"><ele>342.0</ele><time>2026-04-18T08:19:46.001Z</time></trkpt><trkpt lat="42.948883949918574" lon="13.607025127034637"><ele>339.8333333333333</ele><time>2026-04-18T08:19:47.001Z</time></trkpt><trkpt lat="42.94895630554149" lon="13.60708363331671"><ele>337.6666666666667</ele><time>2026-04-18T08:19:48.001Z</time></trkpt><trkpt lat="42.94902921152942" lon="13.607129672148792"><ele>335.5</ele><time>2026-04-18T08:19:49.001Z</time></trkpt><trkpt lat="42.9491197587665" lon="13.607174125512278"><ele>333.33333333333337</ele><time>2026-04-18T08:19:50.001Z</time></trkpt><trkpt lat="42.94921011302399" lon="13.607211248052476"><ele>331.1666666666667</ele><time>2026-04-18T08:19:51.001Z</time></trkpt><trkpt lat="42.94929359424999" lon="13.607218239650956"><ele>329.0</ele><time>2026-04-18T08:19:52.001Z</time></trkpt><trkpt lat="42.9493911116157" lon="13.607238934670859"><ele>328.2</ele><time>2026-04-18T08:19:53.001Z</time></trkpt><trkpt lat="42.94947902083953" lon="13.60724436294567"><ele>327.4</ele><time>2026-04-18T08:19:54.001Z</time></trkpt><trkpt lat="42.949574136157466" lon="13.607236091760134"><ele>326.6</ele><time>2026-04-18T08:19:55.001Z</time></trkpt><trkpt lat="42.94967948604763" lon="13.607227589349055"><ele>325.8</ele><time>2026-04-18T08:19:56.001Z</time></trkpt><trkpt lat="42.94979513465445" lon="13.607201949724635"><ele>325.0</ele><time>2026-04-18T08:19:57.002Z</time></trkpt><trkpt lat="42.94990631417838" lon="13.607169429891455"><ele>325.0</ele><time>2026-04-18T08:19:58.002Z</time></trkpt><trkpt lat="42.95001102256034" lon="13.607126131691302"><ele>325.0</ele><time>2026-04-18T08:19:59.002Z</time></trkpt><trkpt lat="42.95010882420838" lon="13.607087145100218"><ele>325.0</ele><time>2026-04-18T08:20:00.002Z</time></trkpt><trkpt lat="42.950204802929164" lon="13.607044347193316"><ele>325.0</ele><time>2026-04-18T08:20:01.002Z</time></trkpt><trkpt lat="42.950295547247386" lon="13.606980725147649"><ele>325.0</ele><time>2026-04-18T08:20:02.002Z</time></trkpt><trkpt lat="42.9503879844578" lon="13.606909377628899"><ele>326.25</ele><time>2026-04-18T08:20:03.002Z</time></trkpt><trkpt lat="42.95047416835982" lon="13.606803742481617"><ele>327.5</ele><time>2026-04-18T08:20:04.002Z</time></trkpt><trkpt lat="42.950556359359545" lon="13.606674107950132"><ele>328.75</ele><time>2026-04-18T08:20:05.002Z</time></trkpt><trkpt lat="42.950608491501974" lon="13.606521801127721"><ele>330.0</ele><time>2026-04-18T08:20:06.002Z</time></trkpt><trkpt lat="42.95065951657585" lon="13.60639518855675"><ele>330.0</ele><time>2026-04-18T08:20:07.002Z</time></trkpt><trkpt lat="42.95070236992885" lon="13.606280436465541"><ele>330.0</ele><time>2026-04-18T08:20:08.002Z</time></trkpt><trkpt lat="42.95074106642535" lon="13.606165096372374"><ele>330.0</ele><time>2026-04-18T08:20:09.002Z</time></trkpt><trkpt lat="42.95078859237248" lon="13.606061495393693"><ele>330.0</ele><time>2026-04-18T08:20:10.002Z</time></trkpt><trkpt lat="42.950813913936486" lon="13.605942377649948"><ele>330.0</ele><time>2026-04-18T08:20:11.002Z</time></trkpt><trkpt lat="42.95084196245622" lon="13.60583440743087"><ele>332.0</ele><time>2026-04-18T08:20:12.002Z</time></trkpt><trkpt lat="42.95085191217253" lon="13.605746153231221"><ele>334.0</ele><time>2026-04-18T08:20:13.002Z</time></trkpt><trkpt lat="42.95083034508672" lon="13.605662487960647"><ele>336.0</ele><time>2026-04-18T08:20:14.002Z</time></trkpt><trkpt lat="42.95079480365879" lon="13.605494613302453"><ele>338.0</ele><time>2026-04-18T08:20:16.002Z</time></trkpt><trkpt lat="42.950750793640076" lon="13.605408017029294"><ele>340.0</ele><time>2026-04-18T08:20:17.002Z</time></trkpt><trkpt lat="42.95069555751024" lon="13.60531305304948"><ele>342.0</ele><time>2026-04-18T08:20:18.002Z</time></trkpt><trkpt lat="42.95063429665787" lon="13.6052149922853"><ele>343.0</ele><time>2026-04-18T08:20:19.002Z</time></trkpt><trkpt lat="42.950564141864625" lon="13.605124665794152"><ele>344.0</ele><time>2026-04-18T08:20:20.002Z</time></trkpt><trkpt lat="42.95048936509931" lon="13.605051732476397"><ele>345.0</ele><time>2026-04-18T08:20:21.002Z</time></trkpt><trkpt lat="42.95042010479178" lon="13.604977562583336"><ele>346.0</ele><time>2026-04-18T08:20:22.002Z</time></trkpt><trkpt lat="42.950329939486224" lon="13.604946864899953"><ele>347.0</ele><time>2026-04-18T08:20:23.002Z</time></trkpt><trkpt lat="42.95023397583449" lon="13.604923121608056"><ele>347.0</ele><time>2026-04-18T08:20:24.002Z</time></trkpt><trkpt lat="42.9501248010732" lon="13.604896519812726"><ele>347.0</ele><time>2026-04-18T08:20:25.002Z</time></trkpt><trkpt lat="42.950023321766224" lon="13.604862567466874"><ele>347.0</ele><time>2026-04-18T08:20:26.002Z</time></trkpt><trkpt lat="42.94992261899935" lon="13.604814025546059"><ele>347.0</ele><time>2026-04-18T08:20:27.002Z</time></trkpt><trkpt lat="42.94985111283298" lon="13.604727789386805"><ele>347.0</ele><time>2026-04-18T08:20:28.002Z</time></trkpt><trkpt lat="42.94976335113451" lon="13.60465352333317"><ele>349.8</ele><time>2026-04-18T08:20:29.002Z</time></trkpt><trkpt lat="42.94967959053486" lon="13.604548518065666"><ele>352.6</ele><time>2026-04-18T08:20:30.002Z</time></trkpt><trkpt lat="42.949588740677825" lon="13.604435734787252"><ele>355.40000000000003</ele><time>2026-04-18T08:20:31.002Z</time></trkpt><trkpt lat="42.94951230379247" lon="13.604335796403685"><ele>358.20000000000005</ele><time>2026-04-18T08:20:32.002Z</time></trkpt><trkpt lat="42.94946493438282" lon="13.604211363176345"><ele>361.0</ele><time>2026-04-18T08:20:33.002Z</time></trkpt><trkpt lat="42.9494387670157" lon="13.604106530960506"><ele>361.5</ele><time>2026-04-18T08:20:34.002Z</time></trkpt><trkpt lat="42.94941239464795" lon="13.603992109123277"><ele>362.0</ele><time>2026-04-18T08:20:35.002Z</time></trkpt><trkpt lat="42.94939112094474" lon="13.603866851617463"><ele>362.5</ele><time>2026-04-18T08:20:36.003Z</time></trkpt><trkpt lat="42.94936514412924" lon="13.60370593158363"><ele>363.0</ele><time>2026-04-18T08:20:37.003Z</time></trkpt><trkpt lat="42.949335858169356" lon="13.603508235393456"><ele>364.0</ele><time>2026-04-18T08:20:38.003Z</time></trkpt><trkpt lat="42.949303038970534" lon="13.603304606409424"><ele>365.0</ele><time>2026-04-18T08:20:39.003Z</time></trkpt><trkpt lat="42.94927099209814" lon="13.603115056050136"><ele>366.0</ele><time>2026-04-18T08:20:40.003Z</time></trkpt><trkpt lat="42.94923756797132" lon="13.602917359630625"><ele>367.0</ele><time>2026-04-18T08:20:41.003Z</time></trkpt><trkpt lat="42.94920400151996" lon="13.602718821243434"><ele>372.0</ele><time>2026-04-18T08:20:42.003Z</time></trkpt><trkpt lat="42.9491563161967" lon="13.602516239230939"><ele>377.0</ele><time>2026-04-18T08:20:43.003Z</time></trkpt><trkpt lat="42.94912049231411" lon="13.602294262194679"><ele>382.0</ele><time>2026-04-18T08:20:44.003Z</time></trkpt><trkpt lat="42.94908643798856" lon="13.602072384309654"><ele>384.0</ele><time>2026-04-18T08:20:45.003Z</time></trkpt><trkpt lat="42.94905195397094" lon="13.60184847358275"><ele>386.0</ele><time>2026-04-18T08:20:46.003Z</time></trkpt><trkpt lat="42.94901353614318" lon="13.601628710836673"><ele>388.0</ele><time>2026-04-18T08:20:47.003Z</time></trkpt><trkpt lat="42.94897548998939" lon="13.601413823499442"><ele>388.0</ele><time>2026-04-18T08:20:48.003Z</time></trkpt><trkpt lat="42.94893824505058" lon="13.601218293560994"><ele>388.0</ele><time>2026-04-18T08:20:49.003Z</time></trkpt><trkpt lat="42.94890304711663" lon="13.60103844854159"><ele>388.0</ele><time>2026-04-18T08:20:50.003Z</time></trkpt><trkpt lat="42.948872046749045" lon="13.600894562203154"><ele>388.0</ele><time>2026-04-18T08:20:51.003Z</time></trkpt><trkpt lat="42.94883600083387" lon="13.600789999696097"><ele>388.50000000000006</ele><time>2026-04-18T08:20:52Z</time></trkpt><trkpt lat="42.948805622197156" lon="13.600709610262944"><ele>389.0</ele><time>2026-04-18T08:20:53Z</time></trkpt><trkpt lat="42.94876578615464" lon="13.600627534743076"><ele>389.5</ele><time>2026-04-18T08:20:54Z</time></trkpt><trkpt lat="42.94871263681618" lon="13.60055624321161"><ele>390.0</ele><time>2026-04-18T08:20:55Z</time></trkpt><trkpt lat="42.948656189861495" lon="13.60047725182837"><ele>390.50000000000006</ele><time>2026-04-18T08:20:56Z</time></trkpt><trkpt lat="42.948586201252155" lon="13.60039524976041"><ele>391.0</ele><time>2026-04-18T08:20:57Z</time></trkpt><trkpt lat="42.94853080972881" lon="13.600272073068682"><ele>391.0</ele><time>2026-04-18T08:20:58Z</time></trkpt><trkpt lat="42.9484653577481" lon="13.60013963870142"><ele>391.0</ele><time>2026-04-18T08:20:59Z</time></trkpt><trkpt lat="42.948385749008985" lon="13.60000539124721"><ele>391.0</ele><time>2026-04-18T08:21:00Z</time></trkpt><trkpt lat="42.94831348690745" lon="13.599843377414997"><ele>391.0</ele><time>2026-04-18T08:21:01Z</time></trkpt><trkpt lat="42.9482431674925" lon="13.599689010908692"><ele>394.0</ele><time>2026-04-18T08:21:02Z</time></trkpt><trkpt lat="42.94816092527834" lon="13.599527745803314"><ele>397.0</ele><time>2026-04-18T08:21:03Z</time></trkpt><trkpt lat="42.94807490576954" lon="13.599351947566532"><ele>400.0</ele><time>2026-04-18T08:21:04Z</time></trkpt><trkpt lat="42.94800396318397" lon="13.59920110416626"><ele>403.0</ele><time>2026-04-18T08:21:05Z</time></trkpt><trkpt lat="42.94793985646712" lon="13.59907466171828"><ele>403.00000000000006</ele><time>2026-04-18T08:21:06Z</time></trkpt><trkpt lat="42.947882259456534" lon="13.598974830682499"><ele>403.0</ele><time>2026-04-18T08:21:07Z</time></trkpt><trkpt lat="42.94781185780055" lon="13.59891029376487"><ele>403.0</ele><time>2026-04-18T08:21:08Z</time></trkpt><trkpt lat="42.94774264699319" lon="13.598853560333215"><ele>403.0</ele><time>2026-04-18T08:21:09Z</time></trkpt><trkpt lat="42.947654848472965" lon="13.598828849236464"><ele>403.00000000000006</ele><time>2026-04-18T08:21:10Z</time></trkpt><trkpt lat="42.94756422750789" lon="13.5988145100733"><ele>403.0</ele><time>2026-04-18T08:21:11Z</time></trkpt><trkpt lat="42.947473028126396" lon="13.59880529483349"><ele>405.0</ele><time>2026-04-18T08:21:12Z</time></trkpt><trkpt lat="42.947401673021574" lon="13.598749941099195"><ele>407.0</ele><time>2026-04-18T08:21:13Z</time></trkpt><trkpt lat="42.94735663034191" lon="13.598631106727687"><ele>409.0</ele><time>2026-04-18T08:21:15Z</time></trkpt><trkpt lat="42.947375667874546" lon="13.598468347137151"><ele>411.0</ele><time>2026-04-18T08:21:17Z</time></trkpt><trkpt lat="42.94736487670935" lon="13.59833395699279"><ele>413.0</ele><time>2026-04-18T08:21:18Z</time></trkpt><trkpt lat="42.94734923400788" lon="13.598178976054525"><ele>415.0</ele><time>2026-04-18T08:21:19Z</time></trkpt><trkpt lat="42.94732952367178" lon="13.598027049384184"><ele>417.0</ele><time>2026-04-18T08:21:20Z</time></trkpt><trkpt lat="42.94728939281351" lon="13.597871506731284"><ele>419.0</ele><time>2026-04-18T08:21:21Z</time></trkpt><trkpt lat="42.947264526519604" lon="13.597715694106327"><ele>421.0</ele><time>2026-04-18T08:21:22Z</time></trkpt><trkpt lat="42.9472298061194" lon="13.597547049936008"><ele>421.20000000000005</ele><time>2026-04-18T08:21:23Z</time></trkpt><trkpt lat="42.94718113998978" lon="13.597374372100228"><ele>421.40000000000003</ele><time>2026-04-18T08:21:24.001Z</time></trkpt><trkpt lat="42.94713852242339" lon="13.597227344304512"><ele>421.6</ele><time>2026-04-18T08:21:25.001Z</time></trkpt><trkpt lat="42.94710243612552" lon="13.597105166694927"><ele>421.8</ele><time>2026-04-18T08:21:26.001Z</time></trkpt><trkpt lat="42.94707537428108" lon="13.597014562348335"><ele>422.0</ele><time>2026-04-18T08:21:27.001Z</time></trkpt><trkpt lat="42.94704480876276" lon="13.596928556864524"><ele>421.40000000000003</ele><time>2026-04-18T08:21:28.001Z</time></trkpt><trkpt lat="42.947003966685735" lon="13.596825377695641"><ele>420.8</ele><time>2026-04-18T08:21:30.001Z</time></trkpt><trkpt lat="42.9468475814823" lon="13.596825602255121"><ele>420.2</ele><time>2026-04-18T08:21:34.001Z</time></trkpt><trkpt lat="42.94678030056104" lon="13.596868399123599"><ele>419.6</ele><time>2026-04-18T08:21:35.001Z</time></trkpt><trkpt lat="42.94671001101715" lon="13.596905475811129"><ele>419.0</ele><time>2026-04-18T08:21:36.001Z</time></trkpt><trkpt lat="42.946608496820616" lon="13.596963933156463"><ele>421.25</ele><time>2026-04-18T08:21:37.001Z</time></trkpt><trkpt lat="42.94647065051448" lon="13.597050943705648"><ele>423.5</ele><time>2026-04-18T08:21:38.001Z</time></trkpt><trkpt lat="42.94635261819784" lon="13.597124489875442"><ele>425.75</ele><time>2026-04-18T08:21:39.001Z</time></trkpt><trkpt lat="42.94622897225876" lon="13.597204903731118"><ele>428.0</ele><time>2026-04-18T08:21:40.001Z</time></trkpt><trkpt lat="42.946091280709325" lon="13.59728745650281"><ele>428.0</ele><time>2026-04-18T08:21:41.001Z</time></trkpt><trkpt lat="42.94595586683393" lon="13.597352319841269"><ele>428.0</ele><time>2026-04-18T08:21:42.001Z</time></trkpt><trkpt lat="42.94582421720209" lon="13.59740693569439"><ele>428.0</ele><time>2026-04-18T08:21:43.001Z</time></trkpt><trkpt lat="42.94569361801527" lon="13.597406581678042"><ele>428.0</ele><time>2026-04-18T08:21:44.001Z</time></trkpt><trkpt lat="42.94554324953619" lon="13.59739550309703"><ele>428.0</ele><time>2026-04-18T08:21:45.001Z</time></trkpt><trkpt lat="42.945380531304956" lon="13.597384339134088"><ele>428.0</ele><time>2026-04-18T08:21:46.001Z</time></trkpt><trkpt lat="42.94519024004465" lon="13.597367405096891"><ele>428.0</ele><time>2026-04-18T08:21:47.001Z</time></trkpt><trkpt lat="42.94501379031595" lon="13.597351934682754"><ele>429.0</ele><time>2026-04-18T08:21:48.001Z</time></trkpt><trkpt lat="42.94483517813243" lon="13.59734893479332"><ele>430.0</ele><time>2026-04-18T08:21:49.001Z</time></trkpt><trkpt lat="42.94466425648218" lon="13.59732550541643"><ele>431.0</ele><time>2026-04-18T08:21:50.001Z</time></trkpt><trkpt lat="42.94450272416568" lon="13.597297067741335"><ele>431.0</ele><time>2026-04-18T08:21:51.001Z</time></trkpt><trkpt lat="42.944335003337905" lon="13.59723128117443"><ele>431.0</ele><time>2026-04-18T08:21:52.001Z</time></trkpt><trkpt lat="42.944166414491136" lon="13.597155757194347"><ele>431.0</ele><time>2026-04-18T08:21:53.001Z</time></trkpt><trkpt lat="42.9439908400581" lon="13.597072051599397"><ele>436.0</ele><time>2026-04-18T08:21:54.001Z</time></trkpt><trkpt lat="42.943824768384964" lon="13.596995246652035"><ele>441.0</ele><time>2026-04-18T08:21:55.001Z</time></trkpt><trkpt lat="42.94367963838342" lon="13.5969371548903"><ele>446.0</ele><time>2026-04-18T08:21:56.001Z</time></trkpt><trkpt lat="42.943554606941824" lon="13.596891350833118"><ele>446.0</ele><time>2026-04-18T08:21:57.001Z</time></trkpt><trkpt lat="42.943438091052855" lon="13.596897040595527"><ele>446.0</ele><time>2026-04-18T08:21:58.001Z</time></trkpt><trkpt lat="42.9433391238427" lon="13.596959000696522"><ele>446.0</ele><time>2026-04-18T08:21:59.001Z</time></trkpt><trkpt lat="42.943237281175676" lon="13.59704784381438"><ele>446.0</ele><time>2026-04-18T08:22:00.001Z</time></trkpt><trkpt lat="42.9431186381596" lon="13.597167202021852"><ele>439.66666666666663</ele><time>2026-04-18T08:22:01.002Z</time></trkpt><trkpt lat="42.94299858000066" lon="13.597302208594405"><ele>433.33333333333337</ele><time>2026-04-18T08:22:02.002Z</time></trkpt><trkpt lat="42.94288861626745" lon="13.597430013863272"><ele>427.0</ele><time>2026-04-18T08:22:03.002Z</time></trkpt><trkpt lat="42.94277441136996" lon="13.597564410936593"><ele>427.0</ele><time>2026-04-18T08:22:04.002Z</time></trkpt><trkpt lat="42.94266081926849" lon="13.59769808727507"><ele>427.0</ele><time>2026-04-18T08:22:05.002Z</time></trkpt><trkpt lat="42.94254799922566" lon="13.597801126631582"><ele>427.0</ele><time>2026-04-18T08:22:06.002Z</time></trkpt><trkpt lat="42.94245342050957" lon="13.597944366449205"><ele>427.0</ele><time>2026-04-18T08:22:07.002Z</time></trkpt><trkpt lat="42.94236428842261" lon="13.598066783396977"><ele>427.40000000000003</ele><time>2026-04-18T08:22:08.002Z</time></trkpt><trkpt lat="42.94227738986056" lon="13.59819729453026"><ele>427.80000000000007</ele><time>2026-04-18T08:22:09.002Z</time></trkpt><trkpt lat="42.9422001900653" lon="13.598299905664232"><ele>428.2</ele><time>2026-04-18T08:22:10.002Z</time></trkpt><trkpt lat="42.94213557300297" lon="13.598400409118717"><ele>428.6</ele><time>2026-04-18T08:22:11.002Z</time></trkpt><trkpt lat="42.94207203901025" lon="13.598507704736097"><ele>429.0</ele><time>2026-04-18T08:22:12.002Z</time></trkpt><trkpt lat="42.94201029208264" lon="13.598623868599907"><ele>426.4</ele><time>2026-04-18T08:22:13.002Z</time></trkpt><trkpt lat="42.94196061030652" lon="13.598746157774164"><ele>423.79999999999995</ele><time>2026-04-18T08:22:14.002Z</time></trkpt><trkpt lat="42.941917639732075" lon="13.598860298170383"><ele>421.20000000000005</ele><time>2026-04-18T08:22:15.002Z</time></trkpt><trkpt lat="42.94188329206039" lon="13.598972769947867"><ele>418.6</ele><time>2026-04-18T08:22:16.002Z</time></trkpt><trkpt lat="42.94185457792626" lon="13.599092845848663"><ele>416.0</ele><time>2026-04-18T08:22:17.002Z</time></trkpt><trkpt lat="42.941821120091824" lon="13.599209046980338"><ele>416.0</ele><time>2026-04-18T08:22:18.002Z</time></trkpt><trkpt lat="42.94175722268799" lon="13.599308901189934"><ele>416.0</ele><time>2026-04-18T08:22:19.002Z</time></trkpt><trkpt lat="42.94169536582184" lon="13.599426824895897"><ele>416.0</ele><time>2026-04-18T08:22:20.002Z</time></trkpt><trkpt lat="42.94163943862979" lon="13.59956206268449"><ele>416.0</ele><time>2026-04-18T08:22:21.002Z</time></trkpt><trkpt lat="42.94157166113188" lon="13.599675599168679"><ele>416.0</ele><time>2026-04-18T08:22:22.002Z</time></trkpt><trkpt lat="42.94150532361353" lon="13.59977789947381"><ele>418.8</ele><time>2026-04-18T08:22:23.002Z</time></trkpt><trkpt lat="42.94143591557953" lon="13.59985132159045"><ele>421.6</ele><time>2026-04-18T08:22:24.002Z</time></trkpt><trkpt lat="42.94139378991746" lon="13.59991661645606"><ele>424.4</ele><time>2026-04-18T08:22:25.002Z</time></trkpt><trkpt lat="42.94127236344615" lon="13.599904171700619"><ele>427.2</ele><time>2026-04-18T08:22:29.002Z</time></trkpt><trkpt lat="42.94131121280432" lon="13.599766891327942"><ele>430.0</ele><time>2026-04-18T08:22:30.002Z</time></trkpt><trkpt lat="42.941332177779934" lon="13.599663513003986"><ele>430.0</ele><time>2026-04-18T08:22:31.002Z</time></trkpt><trkpt lat="42.94139442953725" lon="13.599549668900671"><ele>430.0</ele><time>2026-04-18T08:22:32.002Z</time></trkpt><trkpt lat="42.94142237397517" lon="13.599386448165744"><ele>430.0</ele><time>2026-04-18T08:22:33.002Z</time></trkpt><trkpt lat="42.94145976650698" lon="13.599221774980318"><ele>430.0</ele><time>2026-04-18T08:22:34.002Z</time></trkpt><trkpt lat="42.94150092989577" lon="13.599056641765586"><ele>429.8</ele><time>2026-04-18T08:22:35.002Z</time></trkpt><trkpt lat="42.94153974167951" lon="13.598909800855287"><ele>429.6</ele><time>2026-04-18T08:22:36.002Z</time></trkpt><trkpt lat="42.94157860883462" lon="13.598795545951507"><ele>429.4</ele><time>2026-04-18T08:22:37.002Z</time></trkpt><trkpt lat="42.941613162357605" lon="13.598708791822615"><ele>429.2</ele><time>2026-04-18T08:22:38.002Z</time></trkpt><trkpt lat="42.941682679339685" lon="13.59858923679862"><ele>429.0</ele><time>2026-04-18T08:22:40.003Z</time></trkpt><trkpt lat="42.941722121812234" lon="13.598498507154762"><ele>429.0</ele><time>2026-04-18T08:22:41.003Z</time></trkpt><trkpt lat="42.9417699019189" lon="13.598386963158903"><ele>429.0</ele><time>2026-04-18T08:22:42.003Z</time></trkpt><trkpt lat="42.941827693626834" lon="13.598260011141612"><ele>429.0</ele><time>2026-04-18T08:22:43.003Z</time></trkpt><trkpt lat="42.941879950242416" lon="13.598160163881461"><ele>429.0</ele><time>2026-04-18T08:22:44.003Z</time></trkpt><trkpt lat="42.94192844501604" lon="13.598067697312684"><ele>429.0</ele><time>2026-04-18T08:22:45.003Z</time></trkpt><trkpt lat="42.941980372259124" lon="13.597977128693994"><ele>429.0</ele><time>2026-04-18T08:22:46.003Z</time></trkpt><trkpt lat="42.94203006424473" lon="13.597875144086855"><ele>429.0</ele><time>2026-04-18T08:22:47.003Z</time></trkpt><trkpt lat="42.94207716629907" lon="13.59778308942253"><ele>429.0</ele><time>2026-04-18T08:22:48.003Z</time></trkpt><trkpt lat="42.94214375021094" lon="13.597690401080776"><ele>429.0</ele><time>2026-04-18T08:22:49.003Z</time></trkpt><trkpt lat="42.94220694657105" lon="13.597592579599759"><ele>429.0</ele><time>2026-04-18T08:22:50.003Z</time></trkpt><trkpt lat="42.942275917528974" lon="13.597499054215056"><ele>428.6</ele><time>2026-04-18T08:22:51.003Z</time></trkpt><trkpt lat="42.942342065399465" lon="13.597387336972195"><ele>428.2</ele><time>2026-04-18T08:22:52.003Z</time></trkpt><trkpt lat="42.9424220744696" lon="13.597266472474086"><ele>427.80000000000007</ele><time>2026-04-18T08:22:53.003Z</time></trkpt><trkpt lat="42.942488239040415" lon="13.597165159881191"><ele>427.40000000000003</ele><time>2026-04-18T08:22:54.003Z</time></trkpt><trkpt lat="42.94255542037928" lon="13.597069525072866"><ele>427.0</ele><time>2026-04-18T08:22:55.003Z</time></trkpt><trkpt lat="42.94262639918024" lon="13.596966104764139"><ele>430.40000000000003</ele><time>2026-04-18T08:22:56.003Z</time></trkpt><trkpt lat="42.94269890260388" lon="13.596858420496819"><ele>433.80000000000007</ele><time>2026-04-18T08:22:57.003Z</time></trkpt><trkpt lat="42.9427696755376" lon="13.596746618746412"><ele>437.2</ele><time>2026-04-18T08:22:58Z</time></trkpt><trkpt lat="42.942842074281735" lon="13.596636876773097"><ele>440.6</ele><time>2026-04-18T08:22:59Z</time></trkpt><trkpt lat="42.94291345848334" lon="13.596527354763175"><ele>444.0</ele><time>2026-04-18T08:23:00Z</time></trkpt><trkpt lat="42.94297776293598" lon="13.596413959200147"><ele>444.0</ele><time>2026-04-18T08:23:01Z</time></trkpt><trkpt lat="42.94303165797063" lon="13.596295684117223"><ele>444.0</ele><time>2026-04-18T08:23:02Z</time></trkpt><trkpt lat="42.94307010120175" lon="13.596182482774124"><ele>444.0</ele><time>2026-04-18T08:23:03Z</time></trkpt><trkpt lat="42.94311311337147" lon="13.596051404229554"><ele>444.0</ele><time>2026-04-18T08:23:04Z</time></trkpt><trkpt lat="42.943144507161016" lon="13.595916273150873"><ele>444.0</ele><time>2026-04-18T08:23:05Z</time></trkpt><trkpt lat="42.94316115968825" lon="13.595782921835761"><ele>446.4</ele><time>2026-04-18T08:23:06Z</time></trkpt><trkpt lat="42.94316249659179" lon="13.595666183013758"><ele>448.79999999999995</ele><time>2026-04-18T08:23:07Z</time></trkpt><trkpt lat="42.943159584554465" lon="13.595544823327392"><ele>451.20000000000005</ele><time>2026-04-18T08:23:08Z</time></trkpt><trkpt lat="42.94316066704812" lon="13.59543471517998"><ele>453.6</ele><time>2026-04-18T08:23:09Z</time></trkpt><trkpt lat="42.943140049874344" lon="13.59533371158628"><ele>456.0</ele><time>2026-04-18T08:23:11Z</time></trkpt><trkpt lat="42.94299777458462" lon="13.595416104356971"><ele>456.0</ele><time>2026-04-18T08:23:14Z</time></trkpt><trkpt lat="42.94292380855659" lon="13.59542420624735"><ele>455.99999999999994</ele><time>2026-04-18T08:23:15Z</time></trkpt><trkpt lat="42.942859723653314" lon="13.595459910117595"><ele>456.0</ele><time>2026-04-18T08:23:16Z</time></trkpt><trkpt lat="42.94279356310683" lon="13.595510705707174"><ele>456.0</ele><time>2026-04-18T08:23:17Z</time></trkpt><trkpt lat="42.942740540619596" lon="13.595582897546796"><ele>455.99999999999994</ele><time>2026-04-18T08:23:18Z</time></trkpt><trkpt lat="42.94269063230524" lon="13.59565187465256"><ele>456.0</ele><time>2026-04-18T08:23:19Z</time></trkpt><trkpt lat="42.942630359488426" lon="13.595711015488723"><ele>456.0</ele><time>2026-04-18T08:23:20Z</time></trkpt><trkpt lat="42.94255712436905" lon="13.59571532817847"><ele>458.0</ele><time>2026-04-18T08:23:21Z</time></trkpt><trkpt lat="42.94249253310964" lon="13.595730574896999"><ele>460.0</ele><time>2026-04-18T08:23:22Z</time></trkpt><trkpt lat="42.94238341349128" lon="13.595772356604146"><ele>462.0</ele><time>2026-04-18T08:23:24Z</time></trkpt><trkpt lat="42.94229252978943" lon="13.595787523644228"><ele>464.0</ele><time>2026-04-18T08:23:27Z</time></trkpt><trkpt lat="42.942229834323996" lon="13.595803479983394"><ele>466.0</ele><time>2026-04-18T08:23:29Z</time></trkpt><trkpt lat="42.9421656957499" lon="13.595825245379212"><ele>468.0</ele><time>2026-04-18T08:23:31Z</time></trkpt><trkpt lat="42.94223677902093" lon="13.595827626196495"><ele>468.0</ele><time>2026-04-18T08:24:01.001Z</time></trkpt><trkpt lat="42.942303127598336" lon="13.595802770568307"><ele>468.00000000000006</ele><time>2026-04-18T08:24:04.001Z</time></trkpt><trkpt lat="42.94239422970422" lon="13.595752991068439"><ele>468.0</ele><time>2026-04-18T08:24:07.001Z</time></trkpt><trkpt lat="42.942464681615135" lon="13.595744978731812"><ele>468.0</ele><time>2026-04-18T08:24:09.002Z</time></trkpt><trkpt lat="42.94253257814945" lon="13.595736188601355"><ele>468.00000000000006</ele><time>2026-04-18T08:24:11.002Z</time></trkpt><trkpt lat="42.942595210630785" lon="13.595718419520045"><ele>468.0</ele><time>2026-04-18T08:24:13.002Z</time></trkpt><trkpt lat="42.942661932312824" lon="13.595686361659379"><ele>468.0</ele><time>2026-04-18T08:24:15.002Z</time></trkpt><trkpt lat="42.94271761755045" lon="13.595640826546331"><ele>466.5</ele><time>2026-04-18T08:24:17.002Z</time></trkpt><trkpt lat="42.94277383892075" lon="13.595568876478811"><ele>465.0</ele><time>2026-04-18T08:24:19.002Z</time></trkpt><trkpt lat="42.94283427068618" lon="13.595512539970171"><ele>463.5</ele><time>2026-04-18T08:24:21.002Z</time></trkpt><trkpt lat="42.94291326945182" lon="13.595451203025398"><ele>462.0</ele><time>2026-04-18T08:24:23.002Z</time></trkpt><trkpt lat="42.94299602009992" lon="13.595424523231868"><ele>460.5</ele><time>2026-04-18T08:24:25.002Z</time></trkpt><trkpt lat="42.943070499939346" lon="13.595407326958728"><ele>459.0</ele><time>2026-04-18T08:24:28.002Z</time></trkpt><trkpt lat="42.94312354431336" lon="13.595331208772073"><ele>459.0</ele><time>2026-04-18T08:24:31.002Z</time></trkpt><trkpt lat="42.94308025030731" lon="13.595166912688569"><ele>459.0</ele><time>2026-04-18T08:24:33.002Z</time></trkpt><trkpt lat="42.943038913084756" lon="13.595036626707493"><ele>459.0</ele><time>2026-04-18T08:24:34.002Z</time></trkpt><trkpt lat="42.94300239730907" lon="13.594925850588364"><ele>459.0</ele><time>2026-04-18T08:24:35.002Z</time></trkpt><trkpt lat="42.94296177832756" lon="13.594809087778902"><ele>459.0</ele><time>2026-04-18T08:24:36.002Z</time></trkpt><trkpt lat="42.94291144335193" lon="13.594666945097352"><ele>459.0</ele><time>2026-04-18T08:24:37.002Z</time></trkpt><trkpt lat="42.94286312317423" lon="13.594519766510333"><ele>459.0</ele><time>2026-04-18T08:24:38.002Z</time></trkpt><trkpt lat="42.94280703755014" lon="13.594349114580554"><ele>459.0</ele><time>2026-04-18T08:24:39.002Z</time></trkpt><trkpt lat="42.94274522029307" lon="13.594161792118356"><ele>459.0</ele><time>2026-04-18T08:24:40.002Z</time></trkpt><trkpt lat="42.94268296431156" lon="13.593981526827434"><ele>459.33333333333337</ele><time>2026-04-18T08:24:41.002Z</time></trkpt><trkpt lat="42.9426183290348" lon="13.593776912928234"><ele>459.6666666666667</ele><time>2026-04-18T08:24:42.002Z</time></trkpt><trkpt lat="42.942547765376865" lon="13.593575355039517"><ele>460.0</ele><time>2026-04-18T08:24:43.002Z</time></trkpt><trkpt lat="42.942480580403476" lon="13.593376371833637"><ele>462.25</ele><time>2026-04-18T08:24:44.002Z</time></trkpt><trkpt lat="42.942418094700905" lon="13.593199272004794"><ele>464.5</ele><time>2026-04-18T08:24:45.002Z</time></trkpt><trkpt lat="42.94235449763594" lon="13.593051152205316"><ele>466.75</ele><time>2026-04-18T08:24:46.003Z</time></trkpt><trkpt lat="42.94227403883716" lon="13.59290873139596"><ele>469.0</ele><time>2026-04-18T08:24:47.003Z</time></trkpt><trkpt lat="42.942180163532434" lon="13.592779240010882"><ele>469.0</ele><time>2026-04-18T08:24:48.003Z</time></trkpt><trkpt lat="42.94207971873296" lon="13.592664872725877"><ele>469.0</ele><time>2026-04-18T08:24:49.003Z</time></trkpt><trkpt lat="42.94196224372162" lon="13.592585113937178"><ele>469.0</ele><time>2026-04-18T08:24:50.003Z</time></trkpt><trkpt lat="42.94185438495425" lon="13.592504183860228"><ele>469.0</ele><time>2026-04-18T08:24:51.003Z</time></trkpt><trkpt lat="42.941741620098945" lon="13.592421746487252"><ele>471.25</ele><time>2026-04-18T08:24:52.003Z</time></trkpt><trkpt lat="42.94162506059518" lon="13.592338599215129"><ele>473.5</ele><time>2026-04-18T08:24:53.003Z</time></trkpt><trkpt lat="42.941502479269914" lon="13.592236943788631"><ele>475.75</ele><time>2026-04-18T08:24:54.003Z</time></trkpt><trkpt lat="42.941362611545564" lon="13.592125122834188"><ele>478.0</ele><time>2026-04-18T08:24:55.003Z</time></trkpt><trkpt lat="42.941210026024024" lon="13.592006959767474"><ele>477.6666666666667</ele><time>2026-04-18T08:24:56.003Z</time></trkpt><trkpt lat="42.94104942424529" lon="13.59188562975529"><ele>477.33333333333337</ele><time>2026-04-18T08:24:57.003Z</time></trkpt><trkpt lat="42.94088534249227" lon="13.591763411009946"><ele>477.0</ele><time>2026-04-18T08:24:58.003Z</time></trkpt><trkpt lat="42.94072670542802" lon="13.591636254819013"><ele>477.0</ele><time>2026-04-18T08:24:59.003Z</time></trkpt><trkpt lat="42.94057026107216" lon="13.591507163277717"><ele>477.0</ele><time>2026-04-18T08:25:00.003Z</time></trkpt><trkpt lat="42.94041486176577" lon="13.591377534042792"><ele>477.0</ele><time>2026-04-18T08:25:01.003Z</time></trkpt><trkpt lat="42.94027234485362" lon="13.591253517763114"><ele>475.25</ele><time>2026-04-18T08:25:02.003Z</time></trkpt><trkpt lat="42.9401373320077" lon="13.591140861421742"><ele>473.5</ele><time>2026-04-18T08:25:03.003Z</time></trkpt><trkpt lat="42.94000995231284" lon="13.591042279075888"><ele>471.75</ele><time>2026-04-18T08:25:04Z</time></trkpt><trkpt lat="42.9398940318159" lon="13.590952950553508"><ele>470.0</ele><time>2026-04-18T08:25:05Z</time></trkpt><trkpt lat="42.93979624848759" lon="13.590865237480616"><ele>470.0</ele><time>2026-04-18T08:25:06Z</time></trkpt><trkpt lat="42.93970214387567" lon="13.590783657553773"><ele>470.0</ele><time>2026-04-18T08:25:07Z</time></trkpt><trkpt lat="42.93961252494568" lon="13.590697587092764"><ele>470.0</ele><time>2026-04-18T08:25:08Z</time></trkpt><trkpt lat="42.93954590007637" lon="13.590574930197365"><ele>470.0</ele><time>2026-04-18T08:25:09Z</time></trkpt><trkpt lat="42.939487079222076" lon="13.59045560094022"><ele>470.0</ele><time>2026-04-18T08:25:10Z</time></trkpt><trkpt lat="42.939432009381584" lon="13.59032345203955"><ele>469.0</ele><time>2026-04-18T08:25:11Z</time></trkpt><trkpt lat="42.93937591456304" lon="13.590157656941882"><ele>468.0</ele><time>2026-04-18T08:25:12Z</time></trkpt><trkpt lat="42.93932419573593" lon="13.58997522235373"><ele>467.0</ele><time>2026-04-18T08:25:13Z</time></trkpt><trkpt lat="42.939269312109225" lon="13.589784262954371"><ele>466.0</ele><time>2026-04-18T08:25:14Z</time></trkpt><trkpt lat="42.93920999598462" lon="13.589575118804849"><ele>466.6666666666667</ele><time>2026-04-18T08:25:15Z</time></trkpt><trkpt lat="42.93915480091476" lon="13.589379277088314"><ele>467.33333333333337</ele><time>2026-04-18T08:25:16Z</time></trkpt><trkpt lat="42.93909965013902" lon="13.589177670324034"><ele>468.0</ele><time>2026-04-18T08:25:17Z</time></trkpt><trkpt lat="42.939036442781145" lon="13.588970846278677"><ele>468.0</ele><time>2026-04-18T08:25:18Z</time></trkpt><trkpt lat="42.9389847286787" lon="13.588778499687415"><ele>468.0</ele><time>2026-04-18T08:25:19Z</time></trkpt><trkpt lat="42.93892652117764" lon="13.588574317337365"><ele>468.0</ele><time>2026-04-18T08:25:20Z</time></trkpt><trkpt lat="42.93886475250765" lon="13.588382348215365"><ele>467.75</ele><time>2026-04-18T08:25:21Z</time></trkpt><trkpt lat="42.93879508232104" lon="13.588222637335036"><ele>467.5</ele><time>2026-04-18T08:25:22Z</time></trkpt><trkpt lat="42.93871114821975" lon="13.588071581493272"><ele>467.25</ele><time>2026-04-18T08:25:23Z</time></trkpt><trkpt lat="42.938612684737144" lon="13.587942486666105"><ele>467.0</ele><time>2026-04-18T08:25:24Z</time></trkpt><trkpt lat="42.93851581965383" lon="13.587805875004571"><ele>465.75</ele><time>2026-04-18T08:25:25Z</time></trkpt><trkpt lat="42.938394532892985" lon="13.587697463779431"><ele>464.5</ele><time>2026-04-18T08:25:26Z</time></trkpt><trkpt lat="42.93826325433569" lon="13.587622466089956"><ele>463.25</ele><time>2026-04-18T08:25:27Z</time></trkpt><trkpt lat="42.93810462741094" lon="13.587578904942118"><ele>462.0</ele><time>2026-04-18T08:25:28Z</time></trkpt><trkpt lat="42.93795276497165" lon="13.587550100855026"><ele>466.75</ele><time>2026-04-18T08:25:29Z</time></trkpt><trkpt lat="42.93782932710077" lon="13.587527289099016"><ele>471.5</ele><time>2026-04-18T08:25:30Z</time></trkpt><trkpt lat="42.93772861085401" lon="13.587486920302615"><ele>476.25</ele><time>2026-04-18T08:25:31Z</time></trkpt><trkpt lat="42.937622853412925" lon="13.587420531471977"><ele>481.0</ele><time>2026-04-18T08:25:32Z</time></trkpt><trkpt lat="42.93749511369631" lon="13.587342764286072"><ele>481.0</ele><time>2026-04-18T08:25:33Z</time></trkpt><trkpt lat="42.937362013443014" lon="13.587259361983584"><ele>481.0</ele><time>2026-04-18T08:25:34Z</time></trkpt><trkpt lat="42.93725883090718" lon="13.587151345609874"><ele>481.0</ele><time>2026-04-18T08:25:35Z</time></trkpt><trkpt lat="42.9371325496529" lon="13.587064403791535"><ele>481.0</ele><time>2026-04-18T08:25:36Z</time></trkpt><trkpt lat="42.93700997017755" lon="13.586961014194518"><ele>480.75</ele><time>2026-04-18T08:25:37.001Z</time></trkpt><trkpt lat="42.936893342678744" lon="13.586864745189818"><ele>480.5</ele><time>2026-04-18T08:25:38.001Z</time></trkpt><trkpt lat="42.936805396918466" lon="13.586751363966442"><ele>480.25</ele><time>2026-04-18T08:25:39.001Z</time></trkpt><trkpt lat="42.93673347831072" lon="13.58663035118585"><ele>480.0</ele><time>2026-04-18T08:25:40.001Z</time></trkpt><trkpt lat="42.9366641371566" lon="13.586482485565861"><ele>481.75</ele><time>2026-04-18T08:25:41.001Z</time></trkpt><trkpt lat="42.93661060018957" lon="13.586312118826292"><ele>483.5</ele><time>2026-04-18T08:25:42.001Z</time></trkpt><trkpt lat="42.93654723008095" lon="13.586120007702691"><ele>485.25</ele><time>2026-04-18T08:25:43.001Z</time></trkpt><trkpt lat="42.93648655675449" lon="13.58594217612462"><ele>487.0</ele><time>2026-04-18T08:25:44.001Z</time></trkpt><trkpt lat="42.936409944713965" lon="13.585770642400332"><ele>487.20000000000005</ele><time>2026-04-18T08:25:45.001Z</time></trkpt><trkpt lat="42.93634355010233" lon="13.585587548317687"><ele>487.40000000000003</ele><time>2026-04-18T08:25:46.001Z</time></trkpt><trkpt lat="42.93629127694247" lon="13.585452008245525"><ele>487.59999999999997</ele><time>2026-04-18T08:25:47.001Z</time></trkpt><trkpt lat="42.93623503318165" lon="13.585364664016486"><ele>487.79999999999995</ele><time>2026-04-18T08:25:48.001Z</time></trkpt><trkpt lat="42.936169795317774" lon="13.585321990120944"><ele>488.0</ele><time>2026-04-18T08:25:49.001Z</time></trkpt><trkpt lat="42.936103660995876" lon="13.585343434753867"><ele>488.0</ele><time>2026-04-18T08:25:50.001Z</time></trkpt><trkpt lat="42.93603656042803" lon="13.585393890590103"><ele>487.99999999999994</ele><time>2026-04-18T08:25:51.001Z</time></trkpt><trkpt lat="42.935956524778035" lon="13.585469662559575"><ele>487.99999999999994</ele><time>2026-04-18T08:25:52.001Z</time></trkpt><trkpt lat="42.93585751893133" lon="13.585579550918618"><ele>488.0</ele><time>2026-04-18T08:25:53.001Z</time></trkpt><trkpt lat="42.935749468636956" lon="13.585702669905851"><ele>488.0</ele><time>2026-04-18T08:25:54.001Z</time></trkpt><trkpt lat="42.935649480405225" lon="13.585821141525257"><ele>490.4</ele><time>2026-04-18T08:25:55.001Z</time></trkpt><trkpt lat="42.935542418044044" lon="13.58595109545798"><ele>492.79999999999995</ele><time>2026-04-18T08:25:56.001Z</time></trkpt><trkpt lat="42.93545202397656" lon="13.586036793189722"><ele>495.2</ele><time>2026-04-18T08:25:57.001Z</time></trkpt><trkpt lat="42.93536480058432" lon="13.586053538968404"><ele>497.6</ele><time>2026-04-18T08:25:58.001Z</time></trkpt><trkpt lat="42.9353016345094" lon="13.586087101284333"><ele>500.0</ele><time>2026-04-18T08:25:59.001Z</time></trkpt><trkpt lat="42.93524242790636" lon="13.58600672342797"><ele>500.0</ele><time>2026-04-18T08:26:00.001Z</time></trkpt><trkpt lat="42.93523454639112" lon="13.585845148713346"><ele>500.0</ele><time>2026-04-18T08:26:02.001Z</time></trkpt><trkpt lat="42.93526568200355" lon="13.585768324936152"><ele>500.0</ele><time>2026-04-18T08:26:03.001Z</time></trkpt><trkpt lat="42.93530356055418" lon="13.585637098338083"><ele>500.0</ele><time>2026-04-18T08:26:04.001Z</time></trkpt><trkpt lat="42.93534213498184" lon="13.585489818636951"><ele>500.0</ele><time>2026-04-18T08:26:05.001Z</time></trkpt><trkpt lat="42.93533239069758" lon="13.585330814612174"><ele>499.8</ele><time>2026-04-18T08:26:06.001Z</time></trkpt><trkpt lat="42.935320584542225" lon="13.585190325232738"><ele>499.6</ele><time>2026-04-18T08:26:07.001Z</time></trkpt><trkpt lat="42.93530545720466" lon="13.585071660105758"><ele>499.4</ele><time>2026-04-18T08:26:08.001Z</time></trkpt><trkpt lat="42.935238171627084" lon="13.585012890728299"><ele>499.2</ele><time>2026-04-18T08:26:09.001Z</time></trkpt><trkpt lat="42.935168122417515" lon="13.584974213668875"><ele>499.0</ele><time>2026-04-18T08:26:10.001Z</time></trkpt><trkpt lat="42.93500850783888" lon="13.585034160865792"><ele>502.0</ele><time>2026-04-18T08:26:12.001Z</time></trkpt><trkpt lat="42.934942120789046" lon="13.585140251987518"><ele>505.0</ele><time>2026-04-18T08:26:13.001Z</time></trkpt><trkpt lat="42.934868191262304" lon="13.585236544554983"><ele>508.0</ele><time>2026-04-18T08:26:14.002Z</time></trkpt><trkpt lat="42.93478247996315" lon="13.585278732629483"><ele>511.0</ele><time>2026-04-18T08:26:15.002Z</time></trkpt><trkpt lat="42.934713848354946" lon="13.585245809248784"><ele>514.0</ele><time>2026-04-18T08:26:16.002Z</time></trkpt><trkpt lat="42.93465160654073" lon="13.585152891814271"><ele>514.0</ele><time>2026-04-18T08:26:17.002Z</time></trkpt><trkpt lat="42.93465226361573" lon="13.585004796916015"><ele>514.0</ele><time>2026-04-18T08:26:18.002Z</time></trkpt><trkpt lat="42.93463398443321" lon="13.58485726469429"><ele>514.0</ele><time>2026-04-18T08:26:19.002Z</time></trkpt><trkpt lat="42.934599614998426" lon="13.584686558178563"><ele>514.0</ele><time>2026-04-18T08:26:20.002Z</time></trkpt><trkpt lat="42.93458453582867" lon="13.58451640780816"><ele>514.6</ele><time>2026-04-18T08:26:21.002Z</time></trkpt><trkpt lat="42.93456076118706" lon="13.584374196802353"><ele>515.2</ele><time>2026-04-18T08:26:22.002Z</time></trkpt><trkpt lat="42.93455327829891" lon="13.58424251621989"><ele>515.8000000000001</ele><time>2026-04-18T08:26:23.002Z</time></trkpt><trkpt lat="42.934537838317105" lon="13.584126788406302"><ele>516.4</ele><time>2026-04-18T08:26:24.002Z</time></trkpt><trkpt lat="42.934488273281104" lon="13.58403272876226"><ele>517.0</ele><time>2026-04-18T08:26:25.002Z</time></trkpt><trkpt lat="42.934418087906934" lon="13.58395997565539"><ele>517.0</ele><time>2026-04-18T08:26:26.002Z</time></trkpt><trkpt lat="42.93432200079689" lon="13.583913444639"><ele>517.0</ele><time>2026-04-18T08:26:27.002Z</time></trkpt><trkpt lat="42.93421167859395" lon="13.58387343162117"><ele>517.0</ele><time>2026-04-18T08:26:28.002Z</time></trkpt><trkpt lat="42.93408483725959" lon="13.583828648747225"><ele>517.0</ele><time>2026-04-18T08:26:29.002Z</time></trkpt><trkpt lat="42.93396265083548" lon="13.583785002910695"><ele>519.5</ele><time>2026-04-18T08:26:30.002Z</time></trkpt><trkpt lat="42.9338407925917" lon="13.583737698388319"><ele>522.0</ele><time>2026-04-18T08:26:31.002Z</time></trkpt><trkpt lat="42.93372283250771" lon="13.583674146963029"><ele>524.5</ele><time>2026-04-18T08:26:32.002Z</time></trkpt><trkpt lat="42.933598924157344" lon="13.5835938223973"><ele>527.0</ele><time>2026-04-18T08:26:33.002Z</time></trkpt><trkpt lat="42.93345812994315" lon="13.583487225168831"><ele>534.3333333333333</ele><time>2026-04-18T08:26:34.002Z</time></trkpt><trkpt lat="42.93331642264798" lon="13.583392882547551"><ele>541.6666666666666</ele><time>2026-04-18T08:26:35.002Z</time></trkpt><trkpt lat="42.933179755624856" lon="13.583296988500496"><ele>549.0</ele><time>2026-04-18T08:26:36.002Z</time></trkpt><trkpt lat="42.93303732294747" lon="13.58319238220045"><ele>549.0</ele><time>2026-04-18T08:26:37.002Z</time></trkpt><trkpt lat="42.93290334201999" lon="13.583094623383122"><ele>549.0</ele><time>2026-04-18T08:26:38.002Z</time></trkpt><trkpt lat="42.932779229257406" lon="13.583013826697746"><ele>549.0</ele><time>2026-04-18T08:26:39.002Z</time></trkpt><trkpt lat="42.93265033889279" lon="13.582976030998694"><ele>549.0</ele><time>2026-04-18T08:26:40.002Z</time></trkpt><trkpt lat="42.93252786161497" lon="13.5829935972057"><ele>550.25</ele><time>2026-04-18T08:26:41.002Z</time></trkpt><trkpt lat="42.9323945146987" lon="13.583008281310413"><ele>551.5</ele><time>2026-04-18T08:26:42.002Z</time></trkpt><trkpt lat="42.93227230024937" lon="13.583013531381345"><ele>552.75</ele><time>2026-04-18T08:26:43.002Z</time></trkpt><trkpt lat="42.93217256413676" lon="13.58299899320887"><ele>554.0</ele><time>2026-04-18T08:26:44.002Z</time></trkpt><trkpt lat="42.93207289306214" lon="13.582965066314362"><ele>554.0</ele><time>2026-04-18T08:26:45.002Z</time></trkpt><trkpt lat="42.93198675244842" lon="13.582852924895198"><ele>554.0</ele><time>2026-04-18T08:26:46.002Z</time></trkpt><trkpt lat="42.931882331894805" lon="13.582746828878832"><ele>554.0</ele><time>2026-04-18T08:26:47.002Z</time></trkpt><trkpt lat="42.93177131784404" lon="13.58263927026342"><ele>554.0</ele><time>2026-04-18T08:26:48.002Z</time></trkpt><trkpt lat="42.93165458401356" lon="13.582524784460468"><ele>560.0</ele><time>2026-04-18T08:26:49.002Z</time></trkpt><trkpt lat="42.93154175831125" lon="13.582416360555353"><ele>566.0</ele><time>2026-04-18T08:26:50.002Z</time></trkpt><trkpt lat="42.931427942668186" lon="13.582315653406267"><ele>572.0</ele><time>2026-04-18T08:26:51.003Z</time></trkpt><trkpt lat="42.93132703729954" lon="13.58223464859822"><ele>578.0</ele><time>2026-04-18T08:26:52.003Z</time></trkpt><trkpt lat="42.93127158890598" lon="13.582144754816978"><ele>578.0</ele><time>2026-04-18T08:26:53.003Z</time></trkpt><trkpt lat="42.93123435210004" lon="13.582016956968616"><ele>578.0</ele><time>2026-04-18T08:26:55.003Z</time></trkpt><trkpt lat="42.93133082292588" lon="13.581921141100988"><ele>578.0</ele><time>2026-04-18T08:26:57.003Z</time></trkpt><trkpt lat="42.93140201324713" lon="13.581934739531027"><ele>578.0</ele><time>2026-04-18T08:26:58.003Z</time></trkpt><trkpt lat="42.93148648859695" lon="13.58197194993913"><ele>578.0</ele><time>2026-04-18T08:26:59.003Z</time></trkpt><trkpt lat="42.93159299441614" lon="13.581995497125071"><ele>576.8</ele><time>2026-04-18T08:27:00.003Z</time></trkpt><trkpt lat="42.93171039724339" lon="13.581999264327676"><ele>575.5999999999999</ele><time>2026-04-18T08:27:01.003Z</time></trkpt><trkpt lat="42.93181176695607" lon="13.582017194987786"><ele>574.4000000000001</ele><time>2026-04-18T08:27:02.003Z</time></trkpt><trkpt lat="42.931911426797164" lon="13.582013716443186"><ele>573.2</ele><time>2026-04-18T08:27:03.003Z</time></trkpt><trkpt lat="42.93200072534683" lon="13.581997115687978"><ele>572.0</ele><time>2026-04-18T08:27:04.003Z</time></trkpt><trkpt lat="42.93207856699887" lon="13.581940938004415"><ele>576.75</ele><time>2026-04-18T08:27:05.003Z</time></trkpt><trkpt lat="42.93217616463719" lon="13.58189352016081"><ele>581.5</ele><time>2026-04-18T08:27:06.003Z</time></trkpt><trkpt lat="42.932283646870225" lon="13.581796355672557"><ele>586.25</ele><time>2026-04-18T08:27:07.003Z</time></trkpt><trkpt lat="42.93240012679134" lon="13.581703791539562"><ele>591.0</ele><time>2026-04-18T08:27:08.003Z</time></trkpt><trkpt lat="42.93252658348268" lon="13.581607177801"><ele>588.0</ele><time>2026-04-18T08:27:09.003Z</time></trkpt><trkpt lat="42.93265036941778" lon="13.581516228099584"><ele>585.0</ele><time>2026-04-18T08:27:09.999Z</time></trkpt><trkpt lat="42.93275991889016" lon="13.581433728355792"><ele>582.0</ele><time>2026-04-18T08:27:10.999Z</time></trkpt><trkpt lat="42.93284916051409" lon="13.581356875442335"><ele>579.0</ele><time>2026-04-18T08:27:11.999Z</time></trkpt><trkpt lat="42.93291921101746" lon="13.58127862133833"><ele>579.3333333333334</ele><time>2026-04-18T08:27:12.999Z</time></trkpt><trkpt lat="42.9329569807937" lon="13.581181297283639"><ele>579.6666666666666</ele><time>2026-04-18T08:27:13.999Z</time></trkpt><trkpt lat="42.93298953618816" lon="13.581074074399115"><ele>580.0</ele><time>2026-04-18T08:27:14.999Z</time></trkpt><trkpt lat="42.932995723198374" lon="13.580963973034727"><ele>580.3333333333333</ele><time>2026-04-18T08:27:15.999Z</time></trkpt><trkpt lat="42.932974408218776" lon="13.580843093996446"><ele>580.6666666666666</ele><time>2026-04-18T08:27:16.999Z</time></trkpt><trkpt lat="42.93293854699755" lon="13.580713519575607"><ele>581.0</ele><time>2026-04-18T08:27:17.999Z</time></trkpt><trkpt lat="42.9329068652364" lon="13.580554578613231"><ele>581.0</ele><time>2026-04-18T08:27:18.999Z</time></trkpt><trkpt lat="42.93284479143585" lon="13.58039533536783"><ele>581.0</ele><time>2026-04-18T08:27:19.999Z</time></trkpt><trkpt lat="42.93279080570303" lon="13.580237822214105"><ele>581.0</ele><time>2026-04-18T08:27:20.999Z</time></trkpt><trkpt lat="42.932734571679056" lon="13.58009249201445"><ele>581.0</ele><time>2026-04-18T08:27:21.999Z</time></trkpt><trkpt lat="42.93265997345391" lon="13.579956885541712"><ele>579.75</ele><time>2026-04-18T08:27:22.999Z</time></trkpt><trkpt lat="42.93255899309155" lon="13.579833961162972"><ele>578.5</ele><time>2026-04-18T08:27:23.999Z</time></trkpt><trkpt lat="42.93244802229074" lon="13.579707870521045"><ele>577.25</ele><time>2026-04-18T08:27:24.999Z</time></trkpt><trkpt lat="42.93232516789796" lon="13.57956616854425"><ele>576.0</ele><time>2026-04-18T08:27:25.999Z</time></trkpt><trkpt lat="42.932184177941956" lon="13.57940195398087"><ele>580.6666666666666</ele><time>2026-04-18T08:27:26.999Z</time></trkpt><trkpt lat="42.93204621618947" lon="13.579238773535037"><ele>585.3333333333333</ele><time>2026-04-18T08:27:27.999Z</time></trkpt><trkpt lat="42.93191581809359" lon="13.57910316530174"><ele>590.0</ele><time>2026-04-18T08:27:28.999Z</time></trkpt><trkpt lat="42.93178188646535" lon="13.57895438047879"><ele>592.25</ele><time>2026-04-18T08:27:30Z</time></trkpt><trkpt lat="42.93165862163845" lon="13.578827838913567"><ele>594.5</ele><time>2026-04-18T08:27:31Z</time></trkpt><trkpt lat="42.93155353533935" lon="13.57872081225192"><ele>596.75</ele><time>2026-04-18T08:27:32Z</time></trkpt><trkpt lat="42.93147026692439" lon="13.57862112606107"><ele>599.0</ele><time>2026-04-18T08:27:33Z</time></trkpt><trkpt lat="42.93141095942895" lon="13.578508450987309"><ele>600.25</ele><time>2026-04-18T08:27:34Z</time></trkpt><trkpt lat="42.9313838482741" lon="13.578383812997286"><ele>601.5</ele><time>2026-04-18T08:27:35Z</time></trkpt><trkpt lat="42.93143658980867" lon="13.57821806377406"><ele>602.75</ele><time>2026-04-18T08:27:36Z</time></trkpt><trkpt lat="42.93144720547927" lon="13.57804017055845"><ele>604.0</ele><time>2026-04-18T08:27:37Z</time></trkpt><trkpt lat="42.931456926156756" lon="13.577855567100984"><ele>604.5</ele><time>2026-04-18T08:27:38Z</time></trkpt><trkpt lat="42.93144070623333" lon="13.577708133685391"><ele>605.0</ele><time>2026-04-18T08:27:39Z</time></trkpt><trkpt lat="42.93142100206992" lon="13.57755084434421"><ele>605.5</ele><time>2026-04-18T08:27:40Z</time></trkpt><trkpt lat="42.93137541197191" lon="13.577389380295227"><ele>606.0</ele><time>2026-04-18T08:27:41Z</time></trkpt><trkpt lat="42.931304844775454" lon="13.577223089968665"><ele>606.0</ele><time>2026-04-18T08:27:42Z</time></trkpt><trkpt lat="42.93122653428345" lon="13.577054783171066"><ele>606.0</ele><time>2026-04-18T08:27:43Z</time></trkpt><trkpt lat="42.9311474756374" lon="13.576901196613214"><ele>606.0</ele><time>2026-04-18T08:27:44Z</time></trkpt><trkpt lat="42.93108394389531" lon="13.576712517054084"><ele>606.0</ele><time>2026-04-18T08:27:45Z</time></trkpt><trkpt lat="42.931064599002205" lon="13.576509392800167"><ele>605.0</ele><time>2026-04-18T08:27:46Z</time></trkpt><trkpt lat="42.931038062177485" lon="13.57632362583798"><ele>604.0</ele><time>2026-04-18T08:27:47Z</time></trkpt><trkpt lat="42.93101303416733" lon="13.576152414055175"><ele>603.0</ele><time>2026-04-18T08:27:48Z</time></trkpt><trkpt lat="42.93096977208927" lon="13.57599741417595"><ele>602.0</ele><time>2026-04-18T08:27:49Z</time></trkpt><trkpt lat="42.93094933631774" lon="13.575863433441558"><ele>600.0</ele><time>2026-04-18T08:27:50Z</time></trkpt><trkpt lat="42.93089187924681" lon="13.575773686337087"><ele>598.0</ele><time>2026-04-18T08:27:51Z</time></trkpt><trkpt lat="42.93080218596231" lon="13.575718273627368"><ele>596.0</ele><time>2026-04-18T08:27:52Z</time></trkpt><trkpt lat="42.93073476559949" lon="13.57563328197469"><ele>594.0</ele><time>2026-04-18T08:27:53Z</time></trkpt><trkpt lat="42.93065844436035" lon="13.575571259264922"><ele>592.0</ele><time>2026-04-18T08:27:54Z</time></trkpt><trkpt lat="42.930609280685104" lon="13.575459432346067"><ele>596.25</ele><time>2026-04-18T08:27:55Z</time></trkpt><trkpt lat="42.930591997387964" lon="13.57531842043523"><ele>600.5</ele><time>2026-04-18T08:27:56.001Z</time></trkpt><trkpt lat="42.93058864860092" lon="13.575137002183265"><ele>604.75</ele><time>2026-04-18T08:27:57.001Z</time></trkpt><trkpt lat="42.93055234608185" lon="13.574959548179251"><ele>609.0</ele><time>2026-04-18T08:27:58.001Z</time></trkpt><trkpt lat="42.930525058085955" lon="13.574802087035948"><ele>609.0</ele><time>2026-04-18T08:27:59.001Z</time></trkpt><trkpt lat="42.93050768115707" lon="13.574666182105855"><ele>609.0</ele><time>2026-04-18T08:28:00.001Z</time></trkpt><trkpt lat="42.93052671126712" lon="13.57455084065691"><ele>609.0</ele><time>2026-04-18T08:28:01.001Z</time></trkpt><trkpt lat="42.93059303132559" lon="13.5745171493635"><ele>609.0</ele><time>2026-04-18T08:28:02.001Z</time></trkpt><trkpt lat="42.93067538687976" lon="13.574426177770567"><ele>609.0</ele><time>2026-04-18T08:28:03.001Z</time></trkpt><trkpt lat="42.93075704039282" lon="13.574279453902063"><ele>611.0</ele><time>2026-04-18T08:28:04.001Z</time></trkpt><trkpt lat="42.93076751553997" lon="13.574077828377344"><ele>613.0</ele><time>2026-04-18T08:28:05.001Z</time></trkpt><trkpt lat="42.93076923657866" lon="13.573918207926628"><ele>615.0</ele><time>2026-04-18T08:28:06.001Z</time></trkpt><trkpt lat="42.9307979438002" lon="13.573757315275913"><ele>617.0</ele><time>2026-04-18T08:28:07.001Z</time></trkpt><trkpt lat="42.930875682067146" lon="13.57362132519304"><ele>619.0</ele><time>2026-04-18T08:28:08.001Z</time></trkpt><trkpt lat="42.93097621273568" lon="13.57351486531259"><ele>621.0</ele><time>2026-04-18T08:28:09.001Z</time></trkpt><trkpt lat="42.931095975082506" lon="13.573446558990966"><ele>623.0</ele><time>2026-04-18T08:28:10.001Z</time></trkpt><trkpt lat="42.93122869431799" lon="13.573366657217733"><ele>625.0</ele><time>2026-04-18T08:28:11.001Z</time></trkpt><trkpt lat="42.931330785317655" lon="13.57326977607999"><ele>625.0</ele><time>2026-04-18T08:28:12.001Z</time></trkpt><trkpt lat="42.931382642259344" lon="13.573145436853785"><ele>625.0</ele><time>2026-04-18T08:28:13.001Z</time></trkpt><trkpt lat="42.931418895070514" lon="13.572998903153199"><ele>625.0</ele><time>2026-04-18T08:28:14.001Z</time></trkpt><trkpt lat="42.93144555498188" lon="13.5728251559485"><ele>625.0</ele><time>2026-04-18T08:28:15.001Z</time></trkpt><trkpt lat="42.931472887686944" lon="13.572631345951189"><ele>623.75</ele><time>2026-04-18T08:28:16.001Z</time></trkpt><trkpt lat="42.93150805749015" lon="13.572449977488654"><ele>622.5</ele><time>2026-04-18T08:28:17.001Z</time></trkpt><trkpt lat="42.93154028669425" lon="13.572287112640762"><ele>621.25</ele><time>2026-04-18T08:28:18.001Z</time></trkpt><trkpt lat="42.93155141879016" lon="13.572131490301464"><ele>620.0</ele><time>2026-04-18T08:28:19.001Z</time></trkpt><trkpt lat="42.93154755467638" lon="13.571975863725433"><ele>617.5</ele><time>2026-04-18T08:28:20.001Z</time></trkpt><trkpt lat="42.93152102787733" lon="13.571830797915956"><ele>615.0</ele><time>2026-04-18T08:28:21.001Z</time></trkpt><trkpt lat="42.93143895788187" lon="13.57169586777391"><ele>612.5</ele><time>2026-04-18T08:28:22.001Z</time></trkpt><trkpt lat="42.93136543440034" lon="13.571552759144577"><ele>610.0</ele><time>2026-04-18T08:28:23.001Z</time></trkpt><trkpt lat="42.931276027133144" lon="13.571388796513851"><ele>610.0</ele><time>2026-04-18T08:28:24.001Z</time></trkpt><trkpt lat="42.93119077548963" lon="13.571194303234096"><ele>610.0</ele><time>2026-04-18T08:28:25.001Z</time></trkpt><trkpt lat="42.931092136232685" lon="13.571009998142546"><ele>610.0</ele><time>2026-04-18T08:28:26.001Z</time></trkpt><trkpt lat="42.930977240644225" lon="13.570852721290136"><ele>614.25</ele><time>2026-04-18T08:28:27.002Z</time></trkpt><trkpt lat="42.93088794672549" lon="13.5706801835209"><ele>618.5</ele><time>2026-04-18T08:28:28.002Z</time></trkpt><trkpt lat="42.93078886573065" lon="13.570537235412942"><ele>622.75</ele><time>2026-04-18T08:28:29.002Z</time></trkpt><trkpt lat="42.93071547951453" lon="13.57039692949566"><ele>627.0</ele><time>2026-04-18T08:28:30.002Z</time></trkpt><trkpt lat="42.93065158730725" lon="13.570247755511078"><ele>627.0</ele><time>2026-04-18T08:28:31.002Z</time></trkpt><trkpt lat="42.93059219543076" lon="13.570100663153458"><ele>627.0</ele><time>2026-04-18T08:28:32.002Z</time></trkpt><trkpt lat="42.93053387806917" lon="13.569962229547718"><ele>627.0</ele><time>2026-04-18T08:28:33.002Z</time></trkpt><trkpt lat="42.93050329427359" lon="13.569836951915237"><ele>627.0</ele><time>2026-04-18T08:28:34.002Z</time></trkpt><trkpt lat="42.93058795271229" lon="13.569748399604041"><ele>627.0</ele><time>2026-04-18T08:28:36.002Z</time></trkpt><trkpt lat="42.93068151278455" lon="13.569715183538385"><ele>627.0</ele><time>2026-04-18T08:28:38.002Z</time></trkpt><trkpt lat="42.93078258446949" lon="13.569746429421413"><ele>627.0</ele><time>2026-04-18T08:28:40.002Z</time></trkpt><trkpt lat="42.930851061223294" lon="13.569784210833081"><ele>627.0</ele><time>2026-04-18T08:28:41.002Z</time></trkpt><trkpt lat="42.93091640354482" lon="13.569850416029539"><ele>627.0</ele><time>2026-04-18T08:28:42.002Z</time></trkpt><trkpt lat="42.931003668053364" lon="13.569948017505265"><ele>627.0</ele><time>2026-04-18T08:28:43.002Z</time></trkpt><trkpt lat="42.931093530804425" lon="13.57005638416347"><ele>629.25</ele><time>2026-04-18T08:28:44.002Z</time></trkpt><trkpt lat="42.93121004777497" lon="13.570156196358273"><ele>631.5</ele><time>2026-04-18T08:28:45.002Z</time></trkpt><trkpt lat="42.93132106631354" lon="13.570210212882916"><ele>633.75</ele><time>2026-04-18T08:28:46.002Z</time></trkpt><trkpt lat="42.9314296122168" lon="13.570204049454002"><ele>636.0</ele><time>2026-04-18T08:28:47.002Z</time></trkpt><trkpt lat="42.931538176944294" lon="13.570191284023391"><ele>636.0</ele><time>2026-04-18T08:28:48.002Z</time></trkpt><trkpt lat="42.9316399967452" lon="13.57019166026939"><ele>636.0</ele><time>2026-04-18T08:28:49.002Z</time></trkpt><trkpt lat="42.931720448348266" lon="13.570277580237951"><ele>636.0</ele><time>2026-04-18T08:28:50.002Z</time></trkpt><trkpt lat="42.93176966547735" lon="13.570372189304754"><ele>636.0</ele><time>2026-04-18T08:28:51.002Z</time></trkpt><trkpt lat="42.9318100676561" lon="13.570474165273787"><ele>636.0</ele><time>2026-04-18T08:28:52.002Z</time></trkpt><trkpt lat="42.93187327603795" lon="13.570572722432644"><ele>634.0</ele><time>2026-04-18T08:28:53.002Z</time></trkpt><trkpt lat="42.931968499813294" lon="13.570625428627178"><ele>632.0</ele><time>2026-04-18T08:28:54.002Z</time></trkpt><trkpt lat="42.932082188234624" lon="13.570641538748927"><ele>630.0</ele><time>2026-04-18T08:28:55.002Z</time></trkpt><trkpt lat="42.93220018433172" lon="13.570687571372357"><ele>628.0</ele><time>2026-04-18T08:28:56.002Z</time></trkpt><trkpt lat="42.93230058885808" lon="13.570821044265099"><ele>628.0</ele><time>2026-04-18T08:28:57.002Z</time></trkpt><trkpt lat="42.93241857710622" lon="13.57089008615252"><ele>628.0</ele><time>2026-04-18T08:28:58.002Z</time></trkpt><trkpt lat="42.932545611955" lon="13.570959433585301"><ele>628.0</ele><time>2026-04-18T08:28:59.002Z</time></trkpt><trkpt lat="42.93267617502124" lon="13.57101790039354"><ele>628.0</ele><time>2026-04-18T08:29:00.002Z</time></trkpt><trkpt lat="42.93281605241713" lon="13.571068435620626"><ele>630.25</ele><time>2026-04-18T08:29:01.003Z</time></trkpt><trkpt lat="42.93294024246773" lon="13.571104974735587"><ele>632.5</ele><time>2026-04-18T08:29:02.003Z</time></trkpt><trkpt lat="42.933074045510565" lon="13.571109145980445"><ele>634.75</ele><time>2026-04-18T08:29:03.003Z</time></trkpt><trkpt lat="42.93320350569963" lon="13.571125189144087"><ele>637.0</ele><time>2026-04-18T08:29:04.003Z</time></trkpt><trkpt lat="42.933339563225964" lon="13.571124042007149"><ele>634.3333333333334</ele><time>2026-04-18T08:29:05.003Z</time></trkpt><trkpt lat="42.93347579010033" lon="13.571058091079681"><ele>631.6666666666666</ele><time>2026-04-18T08:29:06.003Z</time></trkpt><trkpt lat="42.93361988268989" lon="13.570992867488588"><ele>629.0</ele><time>2026-04-18T08:29:07.003Z</time></trkpt><trkpt lat="42.93377724126561" lon="13.570930930857962"><ele>629.0</ele><time>2026-04-18T08:29:08.003Z</time></trkpt><trkpt lat="42.93392419450905" lon="13.570884124289346"><ele>629.0</ele><time>2026-04-18T08:29:09.003Z</time></trkpt><trkpt lat="42.93406177905312" lon="13.570821935069871"><ele>629.0</ele><time>2026-04-18T08:29:10.003Z</time></trkpt><trkpt lat="42.93419275790368" lon="13.570773167097158"><ele>629.0</ele><time>2026-04-18T08:29:11.003Z</time></trkpt><trkpt lat="42.9343040917425" lon="13.570688599780267"><ele>629.0</ele><time>2026-04-18T08:29:12.003Z</time></trkpt><trkpt lat="42.93441362693377" lon="13.570609571855751"><ele>629.0</ele><time>2026-04-18T08:29:13.003Z</time></trkpt><trkpt lat="42.934528591746066" lon="13.570534095077049"><ele>629.0</ele><time>2026-04-18T08:29:14.003Z</time></trkpt><trkpt lat="42.93462026104043" lon="13.570419500809395"><ele>629.0</ele><time>2026-04-18T08:29:15.003Z</time></trkpt><trkpt lat="42.934699451004406" lon="13.57029705071259"><ele>629.0</ele><time>2026-04-18T08:29:15.999Z</time></trkpt><trkpt lat="42.93476753006477" lon="13.570169913770815"><ele>629.0</ele><time>2026-04-18T08:29:16.999Z</time></trkpt><trkpt lat="42.93483486137083" lon="13.570045076288329"><ele>629.0</ele><time>2026-04-18T08:29:17.999Z</time></trkpt><trkpt lat="42.93491097589637" lon="13.56993634686673"><ele>629.0</ele><time>2026-04-18T08:29:18.999Z</time></trkpt><trkpt lat="42.9349908652275" lon="13.569845331620249"><ele>629.0</ele><time>2026-04-18T08:29:19.999Z</time></trkpt><trkpt lat="42.9350693596277" lon="13.569764869742095"><ele>629.3333333333333</ele><time>2026-04-18T08:29:20.999Z</time></trkpt><trkpt lat="42.93514970679354" lon="13.569691127347014"><ele>629.6666666666666</ele><time>2026-04-18T08:29:21.999Z</time></trkpt><trkpt lat="42.935225280202474" lon="13.569625830408349"><ele>630.0</ele><time>2026-04-18T08:29:22.999Z</time></trkpt><trkpt lat="42.935297057444686" lon="13.569558238102335"><ele>630.3333333333334</ele><time>2026-04-18T08:29:23.999Z</time></trkpt><trkpt lat="42.935371565080985" lon="13.5695311260323"><ele>630.6666666666667</ele><time>2026-04-18T08:29:24.999Z</time></trkpt><trkpt lat="42.93542871417763" lon="13.569485955618479"><ele>631.0</ele><time>2026-04-18T08:29:25.999Z</time></trkpt><trkpt lat="42.93548503539278" lon="13.569443699344406"><ele>631.0</ele><time>2026-04-18T08:29:26.999Z</time></trkpt><trkpt lat="42.935559779202656" lon="13.56934812229508"><ele>631.0</ele><time>2026-04-18T08:29:28.999Z</time></trkpt><trkpt lat="42.93563153917747" lon="13.569290046923056"><ele>631.0</ele><time>2026-04-18T08:29:30.999Z</time></trkpt><trkpt lat="42.93567925569069" lon="13.569165717719473"><ele>631.0</ele><time>2026-04-18T08:29:32.999Z</time></trkpt><trkpt lat="42.93573342317132" lon="13.569009789145623"><ele>631.0</ele><time>2026-04-18T08:29:34.999Z</time></trkpt><trkpt lat="42.93576379597693" lon="13.568929154363472"><ele>631.0</ele><time>2026-04-18T08:29:36Z</time></trkpt><trkpt lat="42.935812891186565" lon="13.56878519025181"><ele>631.0</ele><time>2026-04-18T08:29:38Z</time></trkpt><trkpt lat="42.93587448988994" lon="13.568688055037493"><ele>631.0</ele><time>2026-04-18T08:29:40Z</time></trkpt><trkpt lat="42.9359238860066" lon="13.568587986331014"><ele>631.0</ele><time>2026-04-18T08:29:42Z</time></trkpt><trkpt lat="42.93597330356381" lon="13.568490426942192"><ele>631.0</ele><time>2026-04-18T08:29:44Z</time></trkpt><trkpt lat="42.93602653241111" lon="13.568368369717518"><ele>628.0</ele><time>2026-04-18T08:29:46Z</time></trkpt><trkpt lat="42.93608351195277" lon="13.568269253284253"><ele>625.0</ele><time>2026-04-18T08:29:48Z</time></trkpt><trkpt lat="42.936138514352734" lon="13.568152388848691"><ele>622.0</ele><time>2026-04-18T08:29:50Z</time></trkpt><trkpt lat="42.93616944216256" lon="13.56800570229831"><ele>619.0</ele><time>2026-04-18T08:29:52Z</time></trkpt><trkpt lat="42.93617226051098" lon="13.567836059767309"><ele>616.0</ele><time>2026-04-18T08:29:54Z</time></trkpt><trkpt lat="42.93615685948233" lon="13.567751840095488"><ele>615.7142857142857</ele><time>2026-04-18T08:29:55Z</time></trkpt><trkpt lat="42.9361283565969" lon="13.567674001563377"><ele>615.4285714285714</ele><time>2026-04-18T08:29:56Z</time></trkpt><trkpt lat="42.93608460612039" lon="13.567598465569263"><ele>615.1428571428571</ele><time>2026-04-18T08:29:57Z</time></trkpt><trkpt lat="42.93603190949231" lon="13.567536343799642"><ele>614.8571428571429</ele><time>2026-04-18T08:29:58Z</time></trkpt><trkpt lat="42.93597580927328" lon="13.567495904761152"><ele>614.5714285714286</ele><time>2026-04-18T08:29:59Z</time></trkpt><trkpt lat="42.9359155454857" lon="13.567463104549574"><ele>614.2857142857142</ele><time>2026-04-18T08:30:00Z</time></trkpt><trkpt lat="42.93583665506345" lon="13.567351267224549"><ele>614.0</ele><time>2026-04-18T08:30:02.001Z</time></trkpt><trkpt lat="42.93575928063253" lon="13.567245483854576"><ele>616.0</ele><time>2026-04-18T08:30:04.001Z</time></trkpt><trkpt lat="42.93568654537324" lon="13.567153586302013"><ele>618.0</ele><time>2026-04-18T08:30:06.001Z</time></trkpt><trkpt lat="42.93561703495126" lon="13.567074386740776"><ele>620.0</ele><time>2026-04-18T08:30:08.001Z</time></trkpt><trkpt lat="42.93556788468915" lon="13.567020399532618"><ele>622.0</ele><time>2026-04-18T08:30:10.001Z</time></trkpt><trkpt lat="42.935496218155514" lon="13.566962512721563"><ele>624.0</ele><time>2026-04-18T08:30:21.001Z</time></trkpt><trkpt lat="42.935465872035124" lon="13.566690988922069"><ele>624.0</ele><time>2026-04-18T08:34:33.001Z</time></trkpt><trkpt lat="42.93551407528051" lon="13.566629007394742"><ele>624.0</ele><time>2026-04-18T08:34:34.001Z</time></trkpt><trkpt lat="42.935592547807495" lon="13.566588546193536"><ele>624.0</ele><time>2026-04-18T08:34:36.001Z</time></trkpt><trkpt lat="42.935672656497395" lon="13.566602873599615"><ele>624.0</ele><time>2026-04-18T08:34:38.001Z</time></trkpt><trkpt lat="42.93578739527088" lon="13.566624368557505"><ele>624.0</ele><time>2026-04-18T08:34:40.001Z</time></trkpt><trkpt lat="42.93589313213658" lon="13.566669634707194"><ele>624.6666666666666</ele><time>2026-04-18T08:34:42.001Z</time></trkpt><trkpt lat="42.93596877719884" lon="13.56670241215798"><ele>625.3333333333334</ele><time>2026-04-18T08:34:43.001Z</time></trkpt><trkpt lat="42.936038811757" lon="13.566736433546183"><ele>626.0</ele><time>2026-04-18T08:34:44.001Z</time></trkpt><trkpt lat="42.93610602205885" lon="13.566771252643651"><ele>626.6666666666667</ele><time>2026-04-18T08:34:45.001Z</time></trkpt><trkpt lat="42.93618764351509" lon="13.56682399774002"><ele>627.3333333333334</ele><time>2026-04-18T08:34:46.001Z</time></trkpt><trkpt lat="42.93627350157204" lon="13.566883994322621"><ele>628.0</ele><time>2026-04-18T08:34:47.001Z</time></trkpt><trkpt lat="42.93636651184253" lon="13.566945508929031"><ele>628.0</ele><time>2026-04-18T08:34:48.001Z</time></trkpt><trkpt lat="42.9364575737431" lon="13.56697506465757"><ele>628.0</ele><time>2026-04-18T08:34:49.001Z</time></trkpt><trkpt lat="42.936525718790726" lon="13.567013212506506"><ele>628.0</ele><time>2026-04-18T08:34:50.001Z</time></trkpt><trkpt lat="42.936589571611755" lon="13.567023929574418"><ele>628.0</ele><time>2026-04-18T08:34:51.001Z</time></trkpt><trkpt lat="42.93669809931984" lon="13.566918342802744"><ele>628.0</ele><time>2026-04-18T08:34:53.001Z</time></trkpt><trkpt lat="42.93674502112152" lon="13.566833370804764"><ele>628.0</ele><time>2026-04-18T08:34:54.001Z</time></trkpt><trkpt lat="42.93679767141119" lon="13.566731219385808"><ele>624.4</ele><time>2026-04-18T08:34:55.001Z</time></trkpt><trkpt lat="42.93684007910728" lon="13.566590636782381"><ele>620.8</ele><time>2026-04-18T08:34:56.001Z</time></trkpt><trkpt lat="42.93688838082918" lon="13.566462105565122"><ele>617.2</ele><time>2026-04-18T08:34:57.001Z</time></trkpt><trkpt lat="42.93693069214301" lon="13.566375877059787"><ele>613.6</ele><time>2026-04-18T08:34:58.001Z</time></trkpt><trkpt lat="42.93698905381235" lon="13.566330803370734"><ele>610.0</ele><time>2026-04-18T08:34:59.001Z</time></trkpt><trkpt lat="42.937123585417375" lon="13.566303278996871"><ele>610.0</ele><time>2026-04-18T08:35:01.001Z</time></trkpt><trkpt lat="42.93722120749942" lon="13.566307754455497"><ele>610.0</ele><time>2026-04-18T08:35:02.001Z</time></trkpt><trkpt lat="42.937317674474336" lon="13.566320691841861"><ele>610.0</ele><time>2026-04-18T08:35:03.001Z</time></trkpt><trkpt lat="42.93742589596924" lon="13.566330014531891"><ele>610.0</ele><time>2026-04-18T08:35:04.001Z</time></trkpt><trkpt lat="42.93752056353636" lon="13.566333224206582"><ele>610.0</ele><time>2026-04-18T08:35:05.001Z</time></trkpt><trkpt lat="42.93761647308245" lon="13.566326051429584"><ele>608.5</ele><time>2026-04-18T08:35:06.001Z</time></trkpt><trkpt lat="42.937699446976524" lon="13.566289690999412"><ele>607.0</ele><time>2026-04-18T08:35:07.001Z</time></trkpt><trkpt lat="42.937775170536874" lon="13.566260663692143"><ele>605.5</ele><time>2026-04-18T08:35:08.001Z</time></trkpt><trkpt lat="42.9378109621205" lon="13.56616648584728"><ele>604.0</ele><time>2026-04-18T08:35:09.001Z</time></trkpt><trkpt lat="42.937847884176385" lon="13.566071859758287"><ele>602.5</ele><time>2026-04-18T08:35:10.002Z</time></trkpt><trkpt lat="42.93787956479551" lon="13.565945219256959"><ele>601.0</ele><time>2026-04-18T08:35:11.002Z</time></trkpt><trkpt lat="42.937906202649785" lon="13.565813032003701"><ele>601.0</ele><time>2026-04-18T08:35:12.002Z</time></trkpt><trkpt lat="42.937935321817925" lon="13.565688107097312"><ele>601.0</ele><time>2026-04-18T08:35:13.002Z</time></trkpt><trkpt lat="42.937927522027316" lon="13.565554429115716"><ele>601.0</ele><time>2026-04-18T08:35:14.002Z</time></trkpt><trkpt lat="42.93788388220268" lon="13.565421016721045"><ele>601.0</ele><time>2026-04-18T08:35:15.002Z</time></trkpt><trkpt lat="42.93786609299488" lon="13.565258048102423"><ele>601.0</ele><time>2026-04-18T08:35:16.002Z</time></trkpt><trkpt lat="42.93784210511605" lon="13.565109149142089"><ele>602.2</ele><time>2026-04-18T08:35:17.002Z</time></trkpt><trkpt lat="42.937836305387066" lon="13.564958993398555"><ele>603.4000000000001</ele><time>2026-04-18T08:35:18.002Z</time></trkpt><trkpt lat="42.93783739144945" lon="13.564802901226603"><ele>604.6</ele><time>2026-04-18T08:35:19.002Z</time></trkpt><trkpt lat="42.93781940697229" lon="13.564652419521234"><ele>605.8000000000001</ele><time>2026-04-18T08:35:20.002Z</time></trkpt><trkpt lat="42.93778376586917" lon="13.564514942952783"><ele>607.0</ele><time>2026-04-18T08:35:21.002Z</time></trkpt><trkpt lat="42.93772591589961" lon="13.564413721228924"><ele>609.1666666666667</ele><time>2026-04-18T08:35:22.002Z</time></trkpt><trkpt lat="42.93767385937605" lon="13.564317545691699"><ele>611.3333333333334</ele><time>2026-04-18T08:35:23.002Z</time></trkpt><trkpt lat="42.937620527494396" lon="13.564222274702226"><ele>613.5</ele><time>2026-04-18T08:35:24.002Z</time></trkpt><trkpt lat="42.937570337621125" lon="13.564153844467775"><ele>615.6666666666666</ele><time>2026-04-18T08:35:25.002Z</time></trkpt><trkpt lat="42.93755188337801" lon="13.564020625615221"><ele>617.8333333333333</ele><time>2026-04-18T08:35:27.002Z</time></trkpt><trkpt lat="42.93761971544231" lon="13.564001234104854"><ele>620.0</ele><time>2026-04-18T08:35:28.002Z</time></trkpt><trkpt lat="42.93774348253591" lon="13.563975884452487"><ele>620.0</ele><time>2026-04-18T08:35:30.002Z</time></trkpt><trkpt lat="42.93782364940601" lon="13.563962343424352"><ele>620.0</ele><time>2026-04-18T08:35:31.002Z</time></trkpt><trkpt lat="42.93792184811282" lon="13.563955169059618"><ele>620.0</ele><time>2026-04-18T08:35:32.002Z</time></trkpt><trkpt lat="42.93803150595113" lon="13.563953838167278"><ele>620.0</ele><time>2026-04-18T08:35:33.002Z</time></trkpt><trkpt lat="42.938130587869814" lon="13.563966476342943"><ele>620.0</ele><time>2026-04-18T08:35:33.999Z</time></trkpt><trkpt lat="42.938218660484836" lon="13.564012478247694"><ele>620.0</ele><time>2026-04-18T08:35:34.999Z</time></trkpt><trkpt lat="42.93831172226791" lon="13.564106404176966"><ele>620.0</ele><time>2026-04-18T08:35:35.999Z</time></trkpt><trkpt lat="42.93841349691206" lon="13.564243230015245"><ele>620.0</ele><time>2026-04-18T08:35:36.999Z</time></trkpt><trkpt lat="42.93852170010017" lon="13.564422559066234"><ele>620.0</ele><time>2026-04-18T08:35:37.999Z</time></trkpt><trkpt lat="42.93862117020464" lon="13.564547718401727"><ele>617.2</ele><time>2026-04-18T08:35:38.999Z</time></trkpt><trkpt lat="42.93871055248139" lon="13.564621727885616"><ele>614.4</ele><time>2026-04-18T08:35:39.999Z</time></trkpt><trkpt lat="42.938793783833766" lon="13.564690345383582"><ele>611.6</ele><time>2026-04-18T08:35:40.999Z</time></trkpt><trkpt lat="42.938881492440785" lon="13.564718575556467"><ele>608.8</ele><time>2026-04-18T08:35:41.999Z</time></trkpt><trkpt lat="42.93896639933928" lon="13.564722027389145"><ele>606.0</ele><time>2026-04-18T08:35:42.999Z</time></trkpt><trkpt lat="42.93904630725668" lon="13.564698962513972"><ele>606.0</ele><time>2026-04-18T08:35:43.999Z</time></trkpt><trkpt lat="42.93913883342591" lon="13.564667033692473"><ele>606.0</ele><time>2026-04-18T08:35:44.999Z</time></trkpt><trkpt lat="42.93925452922332" lon="13.564633155935336"><ele>606.0</ele><time>2026-04-18T08:35:45.999Z</time></trkpt><trkpt lat="42.93937190626658" lon="13.56460255935195"><ele>606.0</ele><time>2026-04-18T08:35:46.999Z</time></trkpt><trkpt lat="42.93951043398475" lon="13.564556001643917"><ele>608.0</ele><time>2026-04-18T08:35:48Z</time></trkpt><trkpt lat="42.93964390174612" lon="13.564519487259224"><ele>610.0</ele><time>2026-04-18T08:35:49Z</time></trkpt><trkpt lat="42.93979585812561" lon="13.564510558679"><ele>612.0</ele><time>2026-04-18T08:35:50Z</time></trkpt><trkpt lat="42.93997533140995" lon="13.56450872220907"><ele>613.0</ele><time>2026-04-18T08:35:51Z</time></trkpt><trkpt lat="42.9401571506902" lon="13.564500939400558"><ele>614.0</ele><time>2026-04-18T08:35:52Z</time></trkpt><trkpt lat="42.94032766765362" lon="13.564492831610396"><ele>615.0</ele><time>2026-04-18T08:35:53Z</time></trkpt><trkpt lat="42.94048248070642" lon="13.564485925529628"><ele>615.0</ele><time>2026-04-18T08:35:54Z</time></trkpt><trkpt lat="42.94062870469182" lon="13.564507118829162"><ele>615.0</ele><time>2026-04-18T08:35:55Z</time></trkpt><trkpt lat="42.94077111835796" lon="13.564483663735853"><ele>615.0</ele><time>2026-04-18T08:35:56Z</time></trkpt><trkpt lat="42.940906456086715" lon="13.564490746138574"><ele>615.0</ele><time>2026-04-18T08:35:57Z</time></trkpt><trkpt lat="42.94103346251301" lon="13.564519599055513"><ele>614.0</ele><time>2026-04-18T08:35:58Z</time></trkpt><trkpt lat="42.94115631318063" lon="13.56452932017829"><ele>613.0</ele><time>2026-04-18T08:35:59Z</time></trkpt><trkpt lat="42.94126336451227" lon="13.564513843571714"><ele>612.0</ele><time>2026-04-18T08:36:00Z</time></trkpt><trkpt lat="42.94135848520768" lon="13.564517851413825"><ele>611.0</ele><time>2026-04-18T08:36:01Z</time></trkpt><trkpt lat="42.94143540289506" lon="13.564504310071705"><ele>610.0</ele><time>2026-04-18T08:36:02Z</time></trkpt><trkpt lat="42.94150070399245" lon="13.564451687992827"><ele>610.0</ele><time>2026-04-18T08:36:03Z</time></trkpt><trkpt lat="42.94157366639486" lon="13.564411118450383"><ele>610.0</ele><time>2026-04-18T08:36:04Z</time></trkpt><trkpt lat="42.941666283417575" lon="13.56435580505558"><ele>610.0</ele><time>2026-04-18T08:36:05Z</time></trkpt><trkpt lat="42.9417824876552" lon="13.564286101127765"><ele>610.0</ele><time>2026-04-18T08:36:06Z</time></trkpt><trkpt lat="42.94191754726239" lon="13.564207102172949"><ele>607.6</ele><time>2026-04-18T08:36:07Z</time></trkpt><trkpt lat="42.94202989563537" lon="13.564139224908182"><ele>605.2</ele><time>2026-04-18T08:36:08Z</time></trkpt><trkpt lat="42.94213315051149" lon="13.564077038865234"><ele>602.8</ele><time>2026-04-18T08:36:09Z</time></trkpt><trkpt lat="42.94223175572042" lon="13.564038442916052"><ele>600.4</ele><time>2026-04-18T08:36:10Z</time></trkpt><trkpt lat="42.94230426950451" lon="13.564010925046063"><ele>598.0</ele><time>2026-04-18T08:36:11Z</time></trkpt><trkpt lat="42.942367763324434" lon="13.563974724065144"><ele>598.0</ele><time>2026-04-18T08:36:12Z</time></trkpt><trkpt lat="42.9424353912265" lon="13.563955302051479"><ele>598.0</ele><time>2026-04-18T08:36:13Z</time></trkpt><trkpt lat="42.94246283605739" lon="13.563803221372883"><ele>598.0</ele><time>2026-04-18T08:36:14Z</time></trkpt><trkpt lat="42.94247948728861" lon="13.563683616138587"><ele>598.0</ele><time>2026-04-18T08:36:15Z</time></trkpt><trkpt lat="42.94245820476743" lon="13.563561939289144"><ele>598.0</ele><time>2026-04-18T08:36:16Z</time></trkpt><trkpt lat="42.94244019906959" lon="13.56342932472006"><ele>597.4</ele><time>2026-04-18T08:36:17Z</time></trkpt><trkpt lat="42.942424675528464" lon="13.56328980542963"><ele>596.8</ele><time>2026-04-18T08:36:18Z</time></trkpt><trkpt lat="42.942413336786764" lon="13.56317002279572"><ele>596.2</ele><time>2026-04-18T08:36:19Z</time></trkpt><trkpt lat="42.942423392879576" lon="13.563078221956259"><ele>595.6</ele><time>2026-04-18T08:36:20Z</time></trkpt><trkpt lat="42.94246700730521" lon="13.562957046179756"><ele>595.0</ele><time>2026-04-18T08:36:22Z</time></trkpt><trkpt lat="42.942581509001975" lon="13.562979364470543"><ele>592.6666666666667</ele><time>2026-04-18T08:36:24Z</time></trkpt><trkpt lat="42.94265821514118" lon="13.562989868870316"><ele>590.3333333333334</ele><time>2026-04-18T08:36:25Z</time></trkpt><trkpt lat="42.942772132578504" lon="13.56300232861204"><ele>588.0</ele><time>2026-04-18T08:36:26.001Z</time></trkpt><trkpt lat="42.942874700739026" lon="13.563006735703464"><ele>585.6666666666666</ele><time>2026-04-18T08:36:27.001Z</time></trkpt><trkpt lat="42.942950954044676" lon="13.562991246466648"><ele>583.3333333333333</ele><time>2026-04-18T08:36:28.001Z</time></trkpt><trkpt lat="42.94302201642431" lon="13.562973458999688"><ele>581.0</ele><time>2026-04-18T08:36:29.001Z</time></trkpt><trkpt lat="42.943090232029014" lon="13.56294736012752"><ele>580.8333333333333</ele><time>2026-04-18T08:36:30.001Z</time></trkpt><trkpt lat="42.94311248002295" lon="13.562851743969631"><ele>580.6666666666666</ele><time>2026-04-18T08:36:31.001Z</time></trkpt><trkpt lat="42.943124890452545" lon="13.562757261325645"><ele>580.5</ele><time>2026-04-18T08:36:32.001Z</time></trkpt><trkpt lat="42.94314131480634" lon="13.562633360798738"><ele>580.3333333333334</ele><time>2026-04-18T08:36:33.001Z</time></trkpt><trkpt lat="42.94314858201414" lon="13.562500301060716"><ele>580.1666666666667</ele><time>2026-04-18T08:36:34.001Z</time></trkpt><trkpt lat="42.94314740757019" lon="13.562357990498874"><ele>580.0</ele><time>2026-04-18T08:36:35.001Z</time></trkpt><trkpt lat="42.94314159164036" lon="13.562250047068437"><ele>580.0</ele><time>2026-04-18T08:36:36.001Z</time></trkpt><trkpt lat="42.9431245230558" lon="13.562133881188949"><ele>580.0</ele><time>2026-04-18T08:36:37.001Z</time></trkpt><trkpt lat="42.94310725955134" lon="13.56201760985824"><ele>580.0</ele><time>2026-04-18T08:36:38.001Z</time></trkpt><trkpt lat="42.94308550205994" lon="13.561920870340831"><ele>580.0</ele><time>2026-04-18T08:36:39.001Z</time></trkpt><trkpt lat="42.94307886271515" lon="13.561813684330167"><ele>580.0</ele><time>2026-04-18T08:36:40.001Z</time></trkpt><trkpt lat="42.94309677787284" lon="13.561714042994913"><ele>580.0</ele><time>2026-04-18T08:36:41.001Z</time></trkpt><trkpt lat="42.943159114326" lon="13.561673538804735"><ele>579.5</ele><time>2026-04-18T08:36:42.001Z</time></trkpt><trkpt lat="42.94327077272249" lon="13.561658812888304"><ele>579.0</ele><time>2026-04-18T08:36:44.001Z</time></trkpt><trkpt lat="42.943340292622075" lon="13.561659833804264"><ele>578.5</ele><time>2026-04-18T08:36:45.001Z</time></trkpt><trkpt lat="42.943418192006334" lon="13.56164504486944"><ele>578.0</ele><time>2026-04-18T08:36:46.001Z</time></trkpt><trkpt lat="42.943485627067794" lon="13.561594148679223"><ele>577.5</ele><time>2026-04-18T08:36:47.001Z</time></trkpt><trkpt lat="42.94354185329822" lon="13.56154742540383"><ele>577.0</ele><time>2026-04-18T08:36:48.001Z</time></trkpt><trkpt lat="42.94358769344759" lon="13.56146748220585"><ele>574.2</ele><time>2026-04-18T08:36:49.001Z</time></trkpt><trkpt lat="42.943620093894786" lon="13.561367256079128"><ele>571.4000000000001</ele><time>2026-04-18T08:36:50.001Z</time></trkpt><trkpt lat="42.94364687530837" lon="13.5612455973662"><ele>568.5999999999999</ele><time>2026-04-18T08:36:51.001Z</time></trkpt><trkpt lat="42.943665271986625" lon="13.561109399635354"><ele>565.8</ele><time>2026-04-18T08:36:52.001Z</time></trkpt><trkpt lat="42.943674437793256" lon="13.560978410890366"><ele>563.0</ele><time>2026-04-18T08:36:53.001Z</time></trkpt><trkpt lat="42.94369080552064" lon="13.560850748780123"><ele>563.0</ele><time>2026-04-18T08:36:54.001Z</time></trkpt><trkpt lat="42.94370479513482" lon="13.560737964940857"><ele>563.0</ele><time>2026-04-18T08:36:55.001Z</time></trkpt><trkpt lat="42.94372093958177" lon="13.560638881451627"><ele>563.0</ele><time>2026-04-18T08:36:56.001Z</time></trkpt><trkpt lat="42.94376687100708" lon="13.560486722476815"><ele>563.0</ele><time>2026-04-18T08:36:58.001Z</time></trkpt><trkpt lat="42.94382675693768" lon="13.560375378785368"><ele>563.0</ele><time>2026-04-18T08:37:00.001Z</time></trkpt><trkpt lat="42.94392432549553" lon="13.560375041153083"><ele>563.0</ele><time>2026-04-18T08:37:02.001Z</time></trkpt><trkpt lat="42.94395307359124" lon="13.560532088743415"><ele>563.0</ele><time>2026-04-18T08:37:04.001Z</time></trkpt><trkpt lat="42.943922348263754" lon="13.56069719538735"><ele>563.0</ele><time>2026-04-18T08:37:06.001Z</time></trkpt><trkpt lat="42.94391059048284" lon="13.560860713365699"><ele>563.0</ele><time>2026-04-18T08:37:08.001Z</time></trkpt><trkpt lat="42.94393818342621" lon="13.560940611059578"><ele>563.0</ele><time>2026-04-18T08:37:09.001Z</time></trkpt><trkpt lat="42.94398914229336" lon="13.561015470475022"><ele>563.0</ele><time>2026-04-18T08:37:10.001Z</time></trkpt><trkpt lat="42.944058448424585" lon="13.561095014879756"><ele>563.0</ele><time>2026-04-18T08:37:11.001Z</time></trkpt><trkpt lat="42.944134596559465" lon="13.561169738807981"><ele>563.0</ele><time>2026-04-18T08:37:12.001Z</time></trkpt><trkpt lat="42.94420750688335" lon="13.561241411210593"><ele>563.0</ele><time>2026-04-18T08:37:13.001Z</time></trkpt><trkpt lat="42.94425363608566" lon="13.561327710344024"><ele>563.0</ele><time>2026-04-18T08:37:14.001Z</time></trkpt><trkpt lat="42.944288093360186" lon="13.561403318001906"><ele>563.0</ele><time>2026-04-18T08:37:15.001Z</time></trkpt><trkpt lat="42.94430889292371" lon="13.56148654848125"><ele>562.6</ele><time>2026-04-18T08:37:16.001Z</time></trkpt><trkpt lat="42.94426587331797" lon="13.561650578187692"><ele>562.1999999999999</ele><time>2026-04-18T08:37:18.002Z</time></trkpt><trkpt lat="42.94424012450126" lon="13.561777875801742"><ele>561.8</ele><time>2026-04-18T08:37:19.002Z</time></trkpt><trkpt lat="42.94421433153748" lon="13.56190070973928"><ele>561.4</ele><time>2026-04-18T08:37:20.002Z</time></trkpt><trkpt lat="42.94419153961161" lon="13.562004161028126"><ele>561.0</ele><time>2026-04-18T08:37:21.002Z</time></trkpt><trkpt lat="42.94417419052435" lon="13.562108677167782"><ele>561.0</ele><time>2026-04-18T08:37:22.002Z</time></trkpt><trkpt lat="42.94417274182105" lon="13.562202108845174"><ele>561.0</ele><time>2026-04-18T08:37:23.002Z</time></trkpt><trkpt lat="42.94415785935431" lon="13.562286825987014"><ele>561.0</ele><time>2026-04-18T08:37:24.002Z</time></trkpt><trkpt lat="42.944206470137615" lon="13.56243401820902"><ele>561.0</ele><time>2026-04-18T08:37:26.002Z</time></trkpt><trkpt lat="42.94425994103671" lon="13.56249109553489"><ele>561.0</ele><time>2026-04-18T08:37:27.002Z</time></trkpt><trkpt lat="42.94432682373818" lon="13.562523255136371"><ele>561.0</ele><time>2026-04-18T08:37:28.002Z</time></trkpt><trkpt lat="42.9443929062534" lon="13.562531553046373"><ele>558.0</ele><time>2026-04-18T08:37:29.002Z</time></trkpt><trkpt lat="42.944458022264996" lon="13.562539443569664"><ele>555.0</ele><time>2026-04-18T08:37:30.002Z</time></trkpt><trkpt lat="42.94452918315056" lon="13.562555215815443"><ele>552.0</ele><time>2026-04-18T08:37:31.002Z</time></trkpt><trkpt lat="42.94460108176711" lon="13.562518965326044"><ele>549.0</ele><time>2026-04-18T08:37:32.002Z</time></trkpt><trkpt lat="42.94466524231463" lon="13.562478129643345"><ele>546.0</ele><time>2026-04-18T08:37:33.002Z</time></trkpt><trkpt lat="42.944729838786486" lon="13.562426415991911"><ele>543.0</ele><time>2026-04-18T08:37:34.002Z</time></trkpt><trkpt lat="42.94477963183184" lon="13.562365572003698"><ele>540.0</ele><time>2026-04-18T08:37:35.002Z</time></trkpt><trkpt lat="42.94483826230722" lon="13.562213039544678"><ele>540.0</ele><time>2026-04-18T08:37:37.002Z</time></trkpt><trkpt lat="42.94485782219203" lon="13.56211116664328"><ele>540.0</ele><time>2026-04-18T08:37:38.002Z</time></trkpt><trkpt lat="42.9448662617846" lon="13.561990849840868"><ele>540.0</ele><time>2026-04-18T08:37:39.002Z</time></trkpt><trkpt lat="42.94486678950009" lon="13.561806205731642"><ele>540.0</ele><time>2026-04-18T08:37:39.998Z</time></trkpt><trkpt lat="42.94485797357611" lon="13.561635177775296"><ele>540.0</ele><time>2026-04-18T08:37:40.998Z</time></trkpt><trkpt lat="42.94484971956045" lon="13.56146241947132"><ele>540.2</ele><time>2026-04-18T08:37:41.998Z</time></trkpt><trkpt lat="42.944835347093004" lon="13.561290414956524"><ele>540.4</ele><time>2026-04-18T08:37:42.998Z</time></trkpt><trkpt lat="42.94481975515682" lon="13.561138610397593"><ele>540.6</ele><time>2026-04-18T08:37:43.998Z</time></trkpt><trkpt lat="42.94481469183101" lon="13.56099687279467"><ele>540.8</ele><time>2026-04-18T08:37:44.998Z</time></trkpt><trkpt lat="42.94480474064152" lon="13.560859622606449"><ele>541.0</ele><time>2026-04-18T08:37:45.998Z</time></trkpt><trkpt lat="42.944822786936335" lon="13.56073012410981"><ele>540.8</ele><time>2026-04-18T08:37:46.998Z</time></trkpt><trkpt lat="42.94483724370267" lon="13.560594088504503"><ele>540.6</ele><time>2026-04-18T08:37:47.998Z</time></trkpt><trkpt lat="42.94485439727938" lon="13.560458518687211"><ele>540.4</ele><time>2026-04-18T08:37:48.998Z</time></trkpt><trkpt lat="42.94487408919219" lon="13.560337300317112"><ele>540.2</ele><time>2026-04-18T08:37:49.998Z</time></trkpt><trkpt lat="42.94489812048769" lon="13.560233237233577"><ele>540.0</ele><time>2026-04-18T08:37:50.998Z</time></trkpt><trkpt lat="42.94495675562557" lon="13.560142037172442"><ele>540.0</ele><time>2026-04-18T08:37:52.998Z</time></trkpt><trkpt lat="42.945019329907645" lon="13.560231653265125"><ele>540.0</ele><time>2026-04-18T08:37:55.998Z</time></trkpt><trkpt lat="42.945042393170354" lon="13.560419246139746"><ele>540.0</ele><time>2026-04-18T08:37:57.999Z</time></trkpt><trkpt lat="42.945055380289034" lon="13.560559508252068"><ele>540.0</ele><time>2026-04-18T08:37:58.999Z</time></trkpt><trkpt lat="42.9450478356088" lon="13.56074302930209"><ele>536.25</ele><time>2026-04-18T08:37:59.999Z</time></trkpt><trkpt lat="42.94505464983341" lon="13.560926488686448"><ele>532.5</ele><time>2026-04-18T08:38:00.999Z</time></trkpt><trkpt lat="42.945062118718575" lon="13.56111543571245"><ele>528.75</ele><time>2026-04-18T08:38:01.999Z</time></trkpt><trkpt lat="42.945057836385864" lon="13.561289786126594"><ele>525.0</ele><time>2026-04-18T08:38:02.999Z</time></trkpt><trkpt lat="42.94508238471297" lon="13.561471751904168"><ele>525.0</ele><time>2026-04-18T08:38:03.999Z</time></trkpt><trkpt lat="42.945123307055965" lon="13.561614496945777"><ele>525.0</ele><time>2026-04-18T08:38:04.999Z</time></trkpt><trkpt lat="42.945162738327895" lon="13.561773266425957"><ele>525.0</ele><time>2026-04-18T08:38:05.999Z</time></trkpt><trkpt lat="42.94520501476093" lon="13.561918890975877"><ele>525.0</ele><time>2026-04-18T08:38:06.999Z</time></trkpt><trkpt lat="42.94524598048038" lon="13.562055008623412"><ele>525.0</ele><time>2026-04-18T08:38:07.999Z</time></trkpt><trkpt lat="42.945282911453816" lon="13.562175016724913"><ele>525.0</ele><time>2026-04-18T08:38:08.999Z</time></trkpt><trkpt lat="42.94530811446008" lon="13.562282131932916"><ele>525.0</ele><time>2026-04-18T08:38:09.999Z</time></trkpt><trkpt lat="42.9453254935426" lon="13.562381829195802"><ele>525.0</ele><time>2026-04-18T08:38:10.999Z</time></trkpt><trkpt lat="42.94536466816268" lon="13.5625356505994"><ele>525.0</ele><time>2026-04-18T08:38:12.999Z</time></trkpt><trkpt lat="42.94542166645148" lon="13.562625190959599"><ele>525.0</ele><time>2026-04-18T08:38:15Z</time></trkpt><trkpt lat="42.945507970079525" lon="13.562618432018452"><ele>525.0</ele><time>2026-04-18T08:38:17Z</time></trkpt><trkpt lat="42.94554732818291" lon="13.5625181366018"><ele>525.0</ele><time>2026-04-18T08:38:19Z</time></trkpt><trkpt lat="42.945527052434464" lon="13.562347209328216"><ele>525.0</ele><time>2026-04-18T08:38:21Z</time></trkpt><trkpt lat="42.94551140952075" lon="13.562262225453125"><ele>525.0</ele><time>2026-04-18T08:38:22Z</time></trkpt><trkpt lat="42.94552876719521" lon="13.562120512222645"><ele>525.0</ele><time>2026-04-18T08:38:24Z</time></trkpt><trkpt lat="42.94556546022783" lon="13.562039965784178"><ele>525.0</ele><time>2026-04-18T08:38:25Z</time></trkpt><trkpt lat="42.945613557315355" lon="13.561957628756225"><ele>525.0</ele><time>2026-04-18T08:38:26Z</time></trkpt><trkpt lat="42.94568165873927" lon="13.561919111226718"><ele>525.0</ele><time>2026-04-18T08:38:27Z</time></trkpt><trkpt lat="42.94574336053328" lon="13.561826340076218"><ele>525.0</ele><time>2026-04-18T08:38:28Z</time></trkpt><trkpt lat="42.94581265924107" lon="13.56175014946976"><ele>525.0</ele><time>2026-04-18T08:38:29Z</time></trkpt><trkpt lat="42.945874290191526" lon="13.561663558251494"><ele>521.5</ele><time>2026-04-18T08:38:30Z</time></trkpt><trkpt lat="42.94591646479892" lon="13.561545033151962"><ele>518.0</ele><time>2026-04-18T08:38:31Z</time></trkpt><trkpt lat="42.94591658077324" lon="13.561397784392396"><ele>514.5</ele><time>2026-04-18T08:38:32Z</time></trkpt><trkpt lat="42.94593735800016" lon="13.561231859598767"><ele>511.0</ele><time>2026-04-18T08:38:33Z</time></trkpt><trkpt lat="42.94593039387336" lon="13.56103369057592"><ele>511.0</ele><time>2026-04-18T08:38:34Z</time></trkpt><trkpt lat="42.94592062352265" lon="13.560822228585854"><ele>511.0</ele><time>2026-04-18T08:38:35Z</time></trkpt><trkpt lat="42.945910601069926" lon="13.560626546765421"><ele>511.0</ele><time>2026-04-18T08:38:36Z</time></trkpt><trkpt lat="42.945904387350424" lon="13.560450450199454"><ele>511.0</ele><time>2026-04-18T08:38:37Z</time></trkpt><trkpt lat="42.94589964761905" lon="13.56028058888904"><ele>511.20000000000005</ele><time>2026-04-18T08:38:38Z</time></trkpt><trkpt lat="42.94589843295929" lon="13.560117660624334"><ele>511.40000000000003</ele><time>2026-04-18T08:38:39Z</time></trkpt><trkpt lat="42.945896646921305" lon="13.559984251857903"><ele>511.6</ele><time>2026-04-18T08:38:40Z</time></trkpt><trkpt lat="42.94592703020519" lon="13.55990487292609"><ele>511.8</ele><time>2026-04-18T08:38:41Z</time></trkpt><trkpt lat="42.946006685387374" lon="13.559792007811101"><ele>512.0</ele><time>2026-04-18T08:38:43Z</time></trkpt><trkpt lat="42.94612018410515" lon="13.559754315638056"><ele>512.0</ele><time>2026-04-18T08:38:45.001Z</time></trkpt><trkpt lat="42.946192067186225" lon="13.5597792821618"><ele>512.0</ele><time>2026-04-18T08:38:46.001Z</time></trkpt><trkpt lat="42.946285876070476" lon="13.559812731508645"><ele>512.0</ele><time>2026-04-18T08:38:47.001Z</time></trkpt><trkpt lat="42.94637369020439" lon="13.55986123205856"><ele>512.0</ele><time>2026-04-18T08:38:48.001Z</time></trkpt><trkpt lat="42.946460001514716" lon="13.55991723122797"><ele>512.0</ele><time>2026-04-18T08:38:49.001Z</time></trkpt><trkpt lat="42.94653926763158" lon="13.559979651885968"><ele>511.99999999999994</ele><time>2026-04-18T08:38:50.001Z</time></trkpt><trkpt lat="42.94660571726168" lon="13.560048566760429"><ele>512.0</ele><time>2026-04-18T08:38:51.001Z</time></trkpt><trkpt lat="42.94662592930484" lon="13.560132653297325"><ele>512.0</ele><time>2026-04-18T08:38:52.001Z</time></trkpt><trkpt lat="42.94666022503934" lon="13.560236756497085"><ele>512.0</ele><time>2026-04-18T08:38:53.001Z</time></trkpt><trkpt lat="42.946688234986496" lon="13.560352818093746"><ele>511.99999999999994</ele><time>2026-04-18T08:38:54.001Z</time></trkpt><trkpt lat="42.94672211204568" lon="13.560499609490268"><ele>512.0</ele><time>2026-04-18T08:38:55.001Z</time></trkpt><trkpt lat="42.94676416756194" lon="13.560670721786176"><ele>509.20000000000005</ele><time>2026-04-18T08:38:56.001Z</time></trkpt><trkpt lat="42.94680340898312" lon="13.560832836414908"><ele>506.40000000000003</ele><time>2026-04-18T08:38:57.001Z</time></trkpt><trkpt lat="42.94683531923145" lon="13.560976218849587"><ele>503.59999999999997</ele><time>2026-04-18T08:38:58.001Z</time></trkpt><trkpt lat="42.94685596962903" lon="13.561102825642637"><ele>500.79999999999995</ele><time>2026-04-18T08:38:59.001Z</time></trkpt><trkpt lat="42.94685872255727" lon="13.561207496758618"><ele>498.0</ele><time>2026-04-18T08:39:00.001Z</time></trkpt><trkpt lat="42.94685546488916" lon="13.561323154886228"><ele>497.0</ele><time>2026-04-18T08:39:01.001Z</time></trkpt><trkpt lat="42.9468372166661" lon="13.561438517197434"><ele>495.99999999999994</ele><time>2026-04-18T08:39:02.001Z</time></trkpt><trkpt lat="42.94680776338852" lon="13.561569337379083"><ele>494.99999999999994</ele><time>2026-04-18T08:39:03.001Z</time></trkpt><trkpt lat="42.946770421124114" lon="13.561712566530783"><ele>494.0</ele><time>2026-04-18T08:39:04.001Z</time></trkpt><trkpt lat="42.946728219736585" lon="13.561863132246755"><ele>493.0</ele><time>2026-04-18T08:39:05.001Z</time></trkpt><trkpt lat="42.94668526027261" lon="13.56200639040191"><ele>495.79999999999995</ele><time>2026-04-18T08:39:06.001Z</time></trkpt><trkpt lat="42.94664823483713" lon="13.5621424303632"><ele>498.59999999999997</ele><time>2026-04-18T08:39:07.001Z</time></trkpt><trkpt lat="42.94662024737799" lon="13.562269462524151"><ele>501.40000000000003</ele><time>2026-04-18T08:39:08.001Z</time></trkpt><trkpt lat="42.946627868494424" lon="13.562393468357731"><ele>504.20000000000005</ele><time>2026-04-18T08:39:09.001Z</time></trkpt><trkpt lat="42.94663307504149" lon="13.562507418250561"><ele>507.0</ele><time>2026-04-18T08:39:10.001Z</time></trkpt><trkpt lat="42.94666333129628" lon="13.562597129717606"><ele>507.0</ele><time>2026-04-18T08:39:11.001Z</time></trkpt><trkpt lat="42.946706519048384" lon="13.562661127866802"><ele>507.00000000000006</ele><time>2026-04-18T08:39:12.001Z</time></trkpt><trkpt lat="42.94680988861761" lon="13.562685485248299"><ele>507.00000000000006</ele><time>2026-04-18T08:39:14.001Z</time></trkpt><trkpt lat="42.946920476785714" lon="13.562611750224487"><ele>507.0</ele><time>2026-04-18T08:39:16.001Z</time></trkpt><trkpt lat="42.94699287641297" lon="13.562514468824899"><ele>507.0</ele><time>2026-04-18T08:39:17.001Z</time></trkpt><trkpt lat="42.9470794531756" lon="13.56236991819744"><ele>502.33333333333337</ele><time>2026-04-18T08:39:18.001Z</time></trkpt><trkpt lat="42.947191955742355" lon="13.562214953480952"><ele>497.6666666666667</ele><time>2026-04-18T08:39:19.001Z</time></trkpt><trkpt lat="42.94729056776006" lon="13.56205419102836"><ele>493.0</ele><time>2026-04-18T08:39:20.002Z</time></trkpt><trkpt lat="42.947391919211235" lon="13.561879959521809"><ele>493.0</ele><time>2026-04-18T08:39:21.002Z</time></trkpt><trkpt lat="42.94747630755286" lon="13.561717288101608"><ele>493.0</ele><time>2026-04-18T08:39:22.002Z</time></trkpt><trkpt lat="42.94754468992551" lon="13.56156770547863"><ele>493.0</ele><time>2026-04-18T08:39:23.002Z</time></trkpt><trkpt lat="42.94760109852063" lon="13.56140777762498"><ele>493.0</ele><time>2026-04-18T08:39:24.002Z</time></trkpt><trkpt lat="42.94764635023439" lon="13.561259820501187"><ele>490.25</ele><time>2026-04-18T08:39:25.002Z</time></trkpt><trkpt lat="42.947686339267435" lon="13.561103713325874"><ele>487.5</ele><time>2026-04-18T08:39:26.002Z</time></trkpt><trkpt lat="42.947713635529986" lon="13.560935778151363"><ele>484.75</ele><time>2026-04-18T08:39:27.002Z</time></trkpt><trkpt lat="42.94773950716284" lon="13.560787904227913"><ele>482.0</ele><time>2026-04-18T08:39:28.002Z</time></trkpt><trkpt lat="42.947771328825766" lon="13.560643428616679"><ele>482.0</ele><time>2026-04-18T08:39:29.002Z</time></trkpt><trkpt lat="42.94783044403322" lon="13.560548270625468"><ele>482.00000000000006</ele><time>2026-04-18T08:39:30.002Z</time></trkpt><trkpt lat="42.94791163709764" lon="13.560471447940683"><ele>482.00000000000006</ele><time>2026-04-18T08:39:31.002Z</time></trkpt><trkpt lat="42.94799971738708" lon="13.56038445116957"><ele>482.0</ele><time>2026-04-18T08:39:32.002Z</time></trkpt><trkpt lat="42.948080679823164" lon="13.560304195098551"><ele>482.0</ele><time>2026-04-18T08:39:33.002Z</time></trkpt><trkpt lat="42.94814065605929" lon="13.56021353223961"><ele>482.16666666666663</ele><time>2026-04-18T08:39:34.002Z</time></trkpt><trkpt lat="42.948201634818815" lon="13.560128901109824"><ele>482.3333333333333</ele><time>2026-04-18T08:39:35.002Z</time></trkpt><trkpt lat="42.94824809562969" lon="13.560034206608735"><ele>482.5</ele><time>2026-04-18T08:39:36.002Z</time></trkpt><trkpt lat="42.94827404219525" lon="13.559933645475942"><ele>482.66666666666663</ele><time>2026-04-18T08:39:37.002Z</time></trkpt><trkpt lat="42.94826914889677" lon="13.559823002113621"><ele>482.8333333333333</ele><time>2026-04-18T08:39:38.002Z</time></trkpt><trkpt lat="42.9482440366913" lon="13.559679111251196"><ele>483.0</ele><time>2026-04-18T08:39:39.002Z</time></trkpt><trkpt lat="42.948206857361455" lon="13.559537005728"><ele>481.0</ele><time>2026-04-18T08:39:40.002Z</time></trkpt><trkpt lat="42.94817644494044" lon="13.559407727628104"><ele>478.99999999999994</ele><time>2026-04-18T08:39:41.002Z</time></trkpt><trkpt lat="42.948128924539695" lon="13.559296360681149"><ele>476.99999999999994</ele><time>2026-04-18T08:39:42.002Z</time></trkpt><trkpt lat="42.94805608931976" lon="13.559227071312154"><ele>475.0</ele><time>2026-04-18T08:39:43.002Z</time></trkpt><trkpt lat="42.94799011233801" lon="13.55915285240359"><ele>473.0</ele><time>2026-04-18T08:39:44.002Z</time></trkpt><trkpt lat="42.94791619539261" lon="13.559079811990634"><ele>473.0</ele><time>2026-04-18T08:39:45.002Z</time></trkpt><trkpt lat="42.94783776893428" lon="13.55899872826616"><ele>472.99999999999994</ele><time>2026-04-18T08:39:45.998Z</time></trkpt><trkpt lat="42.94773522829029" lon="13.558929147471305"><ele>472.99999999999994</ele><time>2026-04-18T08:39:46.998Z</time></trkpt><trkpt lat="42.94761980183943" lon="13.55885724024636"><ele>473.0</ele><time>2026-04-18T08:39:47.998Z</time></trkpt><trkpt lat="42.94752296062626" lon="13.558803239593125"><ele>473.0</ele><time>2026-04-18T08:39:48.998Z</time></trkpt><trkpt lat="42.94742206110407" lon="13.558759763993573"><ele>476.2</ele><time>2026-04-18T08:39:49.998Z</time></trkpt><trkpt lat="42.947326693959646" lon="13.558738173035598"><ele>479.4</ele><time>2026-04-18T08:39:50.998Z</time></trkpt><trkpt lat="42.94722581619143" lon="13.558738007218373"><ele>482.59999999999997</ele><time>2026-04-18T08:39:51.999Z</time></trkpt><trkpt lat="42.94711819628788" lon="13.558746273835208"><ele>485.79999999999995</ele><time>2026-04-18T08:39:52.999Z</time></trkpt><trkpt lat="42.946995072693305" lon="13.558771853861167"><ele>489.0</ele><time>2026-04-18T08:39:53.999Z</time></trkpt><trkpt lat="42.94686931266513" lon="13.558821177374066"><ele>489.0</ele><time>2026-04-18T08:39:54.999Z</time></trkpt><trkpt lat="42.946756913883874" lon="13.558852296148268"><ele>489.0</ele><time>2026-04-18T08:39:55.999Z</time></trkpt><trkpt lat="42.946655026455566" lon="13.558880170200647"><ele>489.0</ele><time>2026-04-18T08:39:56.999Z</time></trkpt><trkpt lat="42.94656783733204" lon="13.558902410094326"><ele>489.0</ele><time>2026-04-18T08:39:57.999Z</time></trkpt><trkpt lat="42.94650108669663" lon="13.558890868576"><ele>489.0</ele><time>2026-04-18T08:39:58.999Z</time></trkpt><trkpt lat="42.94643360420714" lon="13.558797917228702"><ele>490.4</ele><time>2026-04-18T08:40:00.999Z</time></trkpt><trkpt lat="42.946494071681" lon="13.558687899502779"><ele>491.79999999999995</ele><time>2026-04-18T08:40:02.999Z</time></trkpt><trkpt lat="42.946547491915176" lon="13.558637712359596"><ele>493.20000000000005</ele><time>2026-04-18T08:40:04.999Z</time></trkpt><trkpt lat="42.946670923472006" lon="13.558575222834381"><ele>494.6</ele><time>2026-04-18T08:40:06.999Z</time></trkpt><trkpt lat="42.9468051702709" lon="13.558507796390145"><ele>496.0</ele><time>2026-04-18T08:40:07.999Z</time></trkpt><trkpt lat="42.946906484471896" lon="13.558445830023532"><ele>491.5</ele><time>2026-04-18T08:40:08.999Z</time></trkpt><trkpt lat="42.9470149458111" lon="13.55837366563951"><ele>487.0</ele><time>2026-04-18T08:40:09.999Z</time></trkpt><trkpt lat="42.947134937761135" lon="13.558266973627864"><ele>482.5</ele><time>2026-04-18T08:40:10.999Z</time></trkpt><trkpt lat="42.94723686245721" lon="13.558160984283695"><ele>478.0</ele><time>2026-04-18T08:40:12Z</time></trkpt><trkpt lat="42.947352844881095" lon="13.558074483663248"><ele>473.6666666666667</ele><time>2026-04-18T08:40:13Z</time></trkpt><trkpt lat="42.947562391181094" lon="13.557982191729229"><ele>469.33333333333337</ele><time>2026-04-18T08:40:14Z</time></trkpt><trkpt lat="42.947698556238414" lon="13.557948467875455"><ele>465.0</ele><time>2026-04-18T08:40:15Z</time></trkpt><trkpt lat="42.947833524874184" lon="13.557937693818172"><ele>465.0</ele><time>2026-04-18T08:40:16Z</time></trkpt><trkpt lat="42.9479574738828" lon="13.557931553950564"><ele>465.0</ele><time>2026-04-18T08:40:17Z</time></trkpt><trkpt lat="42.9480664337441" lon="13.557940186039131"><ele>465.0</ele><time>2026-04-18T08:40:18Z</time></trkpt><trkpt lat="42.948174292128655" lon="13.557973136686165"><ele>465.0</ele><time>2026-04-18T08:40:19Z</time></trkpt><trkpt lat="42.94830138943005" lon="13.5580174977224"><ele>463.25</ele><time>2026-04-18T08:40:20Z</time></trkpt><trkpt lat="42.94843361076301" lon="13.558057159154542"><ele>461.5</ele><time>2026-04-18T08:40:21Z</time></trkpt><trkpt lat="42.948580159021695" lon="13.55806755203488"><ele>459.75</ele><time>2026-04-18T08:40:22Z</time></trkpt><trkpt lat="42.94871113079608" lon="13.558051566739556"><ele>458.0</ele><time>2026-04-18T08:40:23Z</time></trkpt><trkpt lat="42.94885876441649" lon="13.55803256966987"><ele>458.0</ele><time>2026-04-18T08:40:24Z</time></trkpt><trkpt lat="42.949001238056226" lon="13.558039120277652"><ele>458.0</ele><time>2026-04-18T08:40:25Z</time></trkpt><trkpt lat="42.94913673635375" lon="13.55802958724213"><ele>458.0</ele><time>2026-04-18T08:40:26Z</time></trkpt><trkpt lat="42.94927171882062" lon="13.558069297133548"><ele>458.0</ele><time>2026-04-18T08:40:27Z</time></trkpt><trkpt lat="42.94942098571611" lon="13.558106562090659"><ele>455.5</ele><time>2026-04-18T08:40:28Z</time></trkpt><trkpt lat="42.94956368855464" lon="13.558132626638841"><ele>453.0</ele><time>2026-04-18T08:40:29Z</time></trkpt><trkpt lat="42.94970413119979" lon="13.558148564448736"><ele>450.5</ele><time>2026-04-18T08:40:30Z</time></trkpt><trkpt lat="42.94983505664993" lon="13.558128915639834"><ele>448.0</ele><time>2026-04-18T08:40:31Z</time></trkpt><trkpt lat="42.94995713366121" lon="13.558136231947953"><ele>448.75</ele><time>2026-04-18T08:40:32Z</time></trkpt><trkpt lat="42.95006899850609" lon="13.558181934870356"><ele>449.5</ele><time>2026-04-18T08:40:33Z</time></trkpt><trkpt lat="42.95015932013086" lon="13.558252055309122"><ele>450.25</ele><time>2026-04-18T08:40:34Z</time></trkpt><trkpt lat="42.95026419637665" lon="13.558325513125746"><ele>451.0</ele><time>2026-04-18T08:40:35Z</time></trkpt><trkpt lat="42.95037512583563" lon="13.558403623445658"><ele>451.0</ele><time>2026-04-18T08:40:36Z</time></trkpt><trkpt lat="42.95047997374687" lon="13.558469166226287"><ele>451.0</ele><time>2026-04-18T08:40:37Z</time></trkpt><trkpt lat="42.95059782161772" lon="13.558514035141647"><ele>451.0</ele><time>2026-04-18T08:40:38.001Z</time></trkpt><trkpt lat="42.95070145384867" lon="13.558531757141111"><ele>451.0</ele><time>2026-04-18T08:40:39.001Z</time></trkpt><trkpt lat="42.950798278812464" lon="13.558578348000433"><ele>451.0</ele><time>2026-04-18T08:40:40.001Z</time></trkpt><trkpt lat="42.95089684698788" lon="13.558610710501675"><ele>448.0</ele><time>2026-04-18T08:40:41.001Z</time></trkpt><trkpt lat="42.950996268593464" lon="13.558636889125701"><ele>445.0</ele><time>2026-04-18T08:40:42.001Z</time></trkpt><trkpt lat="42.95109714716956" lon="13.558652919805722"><ele>442.0</ele><time>2026-04-18T08:40:43.001Z</time></trkpt><trkpt lat="42.95120521391541" lon="13.558662911184815"><ele>439.0</ele><time>2026-04-18T08:40:44.001Z</time></trkpt><trkpt lat="42.95130912122244" lon="13.558655987772923"><ele>436.0</ele><time>2026-04-18T08:40:45.001Z</time></trkpt><trkpt lat="42.951408465753865" lon="13.558629697327486"><ele>436.0</ele><time>2026-04-18T08:40:46.001Z</time></trkpt><trkpt lat="42.95149853349413" lon="13.558576490196979"><ele>436.0</ele><time>2026-04-18T08:40:47.001Z</time></trkpt><trkpt lat="42.95157847714012" lon="13.558517066706882"><ele>436.0</ele><time>2026-04-18T08:40:48.001Z</time></trkpt><trkpt lat="42.95166746972633" lon="13.558460178504921"><ele>436.0</ele><time>2026-04-18T08:40:49.001Z</time></trkpt><trkpt lat="42.95176653383371" lon="13.558391598656476"><ele>436.0</ele><time>2026-04-18T08:40:50.001Z</time></trkpt><trkpt lat="42.9518562311798" lon="13.558314468732405"><ele>431.0</ele><time>2026-04-18T08:40:51.001Z</time></trkpt><trkpt lat="42.951929799573534" lon="13.558221454141323"><ele>426.0</ele><time>2026-04-18T08:40:52.001Z</time></trkpt><trkpt lat="42.95199093203026" lon="13.558136549662867"><ele>421.0</ele><time>2026-04-18T08:40:53.001Z</time></trkpt><trkpt lat="42.952047032964394" lon="13.558033840201828"><ele>416.0</ele><time>2026-04-18T08:40:54.001Z</time></trkpt><trkpt lat="42.95210480567433" lon="13.557928672185078"><ele>411.0</ele><time>2026-04-18T08:40:55.001Z</time></trkpt><trkpt lat="42.95212792870256" lon="13.557801402912402"><ele>411.0</ele><time>2026-04-18T08:40:56.001Z</time></trkpt><trkpt lat="42.952159819466665" lon="13.557664858900564"><ele>411.0</ele><time>2026-04-18T08:40:57.001Z</time></trkpt><trkpt lat="42.95218697388057" lon="13.557531855003592"><ele>411.0</ele><time>2026-04-18T08:40:58.001Z</time></trkpt><trkpt lat="42.95222303023788" lon="13.557408107086804"><ele>411.0</ele><time>2026-04-18T08:40:59.001Z</time></trkpt><trkpt lat="42.95223488339918" lon="13.557268937768749"><ele>411.0</ele><time>2026-04-18T08:41:00.001Z</time></trkpt><trkpt lat="42.95223171680927" lon="13.557129796224448"><ele>410.8333333333333</ele><time>2026-04-18T08:41:01.001Z</time></trkpt><trkpt lat="42.95222845832135" lon="13.557007802839646"><ele>410.66666666666663</ele><time>2026-04-18T08:41:02.001Z</time></trkpt><trkpt lat="42.952218862416956" lon="13.556892473240651"><ele>410.5</ele><time>2026-04-18T08:41:03.001Z</time></trkpt><trkpt lat="42.95219860484892" lon="13.55678395453487"><ele>410.3333333333333</ele><time>2026-04-18T08:41:04.001Z</time></trkpt><trkpt lat="42.952174001260545" lon="13.556669053671301"><ele>410.16666666666663</ele><time>2026-04-18T08:41:05.001Z</time></trkpt><trkpt lat="42.95214852674491" lon="13.556559730647855"><ele>410.0</ele><time>2026-04-18T08:41:06.001Z</time></trkpt><trkpt lat="42.95212219702203" lon="13.556450373003067"><ele>410.0</ele><time>2026-04-18T08:41:07.001Z</time></trkpt><trkpt lat="42.9521031925049" lon="13.55632159019329"><ele>410.0</ele><time>2026-04-18T08:41:08.001Z</time></trkpt><trkpt lat="42.9520637059804" lon="13.556207162714266"><ele>410.0</ele><time>2026-04-18T08:41:09.001Z</time></trkpt><trkpt lat="42.95202905103655" lon="13.556088406981962"><ele>410.0</ele><time>2026-04-18T08:41:10.002Z</time></trkpt><trkpt lat="42.951990858460334" lon="13.555970734612734"><ele>410.0</ele><time>2026-04-18T08:41:11.002Z</time></trkpt><trkpt lat="42.95195680056577" lon="13.555872060790394"><ele>409.0</ele><time>2026-04-18T08:41:12.002Z</time></trkpt><trkpt lat="42.95191992036483" lon="13.555787828317046"><ele>408.0</ele><time>2026-04-18T08:41:13.002Z</time></trkpt><trkpt lat="42.951889508734126" lon="13.555709306652181"><ele>407.0</ele><time>2026-04-18T08:41:14.002Z</time></trkpt><trkpt lat="42.95185690138615" lon="13.555632393793159"><ele>406.0</ele><time>2026-04-18T08:41:15.002Z</time></trkpt><trkpt lat="42.95181141208323" lon="13.55552637343404"><ele>405.0</ele><time>2026-04-18T08:41:17.002Z</time></trkpt><trkpt lat="42.95177924125678" lon="13.55543605448452"><ele>404.0</ele><time>2026-04-18T08:41:19.002Z</time></trkpt><trkpt lat="42.95176723323101" lon="13.555350154797912"><ele>403.0</ele><time>2026-04-18T08:41:23.002Z</time></trkpt><trkpt lat="42.951727716917894" lon="13.555264882171107"><ele>403.79999999999995</ele><time>2026-04-18T08:41:25.002Z</time></trkpt><trkpt lat="42.95164451410138" lon="13.555251584657569"><ele>404.6</ele><time>2026-04-18T08:41:26.002Z</time></trkpt><trkpt lat="42.95155822380206" lon="13.555225210908219"><ele>405.4</ele><time>2026-04-18T08:41:27.002Z</time></trkpt><trkpt lat="42.95148861057616" lon="13.555170556343288"><ele>406.20000000000005</ele><time>2026-04-18T08:41:28.002Z</time></trkpt><trkpt lat="42.95138988980845" lon="13.555122825519435"><ele>407.0</ele><time>2026-04-18T08:41:29.002Z</time></trkpt><trkpt lat="42.95129247341376" lon="13.555075725333264"><ele>407.0</ele><time>2026-04-18T08:41:30.002Z</time></trkpt><trkpt lat="42.95118705629832" lon="13.555022996954003"><ele>407.0</ele><time>2026-04-18T08:41:31.002Z</time></trkpt><trkpt lat="42.951073990370624" lon="13.5549545522455"><ele>407.0</ele><time>2026-04-18T08:41:32.002Z</time></trkpt><trkpt lat="42.95095864228613" lon="13.554865344825398"><ele>407.0</ele><time>2026-04-18T08:41:33.002Z</time></trkpt><trkpt lat="42.95084424638445" lon="13.554768958315014"><ele>412.5</ele><time>2026-04-18T08:41:34.002Z</time></trkpt><trkpt lat="42.950733222826194" lon="13.554662689853687"><ele>418.0</ele><time>2026-04-18T08:41:35.002Z</time></trkpt><trkpt lat="42.95063541772188" lon="13.554541163912841"><ele>423.5</ele><time>2026-04-18T08:41:36.002Z</time></trkpt><trkpt lat="42.95053213196932" lon="13.554429862549465"><ele>429.0</ele><time>2026-04-18T08:41:37.002Z</time></trkpt><trkpt lat="42.95042332897402" lon="13.5543498896284"><ele>429.0</ele><time>2026-04-18T08:41:38.002Z</time></trkpt><trkpt lat="42.95030905309896" lon="13.554307343407814"><ele>429.0</ele><time>2026-04-18T08:41:39.002Z</time></trkpt><trkpt lat="42.95019670759773" lon="13.554256238971526"><ele>429.0</ele><time>2026-04-18T08:41:40.002Z</time></trkpt><trkpt lat="42.950074565751756" lon="13.554229090169525"><ele>429.0</ele><time>2026-04-18T08:41:41.002Z</time></trkpt><trkpt lat="42.949964867293204" lon="13.554214150069946"><ele>429.0</ele><time>2026-04-18T08:41:42.003Z</time></trkpt><trkpt lat="42.94986956183749" lon="13.554197346056338"><ele>429.0</ele><time>2026-04-18T08:41:43.003Z</time></trkpt><trkpt lat="42.949851175081314" lon="13.554094368975596"><ele>429.0</ele><time>2026-04-18T08:41:44.003Z</time></trkpt><trkpt lat="42.94985935756614" lon="13.55392767612675"><ele>429.0</ele><time>2026-04-18T08:41:46.003Z</time></trkpt><trkpt lat="42.94989359122588" lon="13.553848137755976"><ele>429.0</ele><time>2026-04-18T08:41:47.003Z</time></trkpt><trkpt lat="42.949961927720864" lon="13.553788809030799"><ele>429.0</ele><time>2026-04-18T08:41:48.003Z</time></trkpt><trkpt lat="42.95005744326269" lon="13.55374888131624"><ele>429.0</ele><time>2026-04-18T08:41:49.003Z</time></trkpt><trkpt lat="42.95015996198242" lon="13.553749930134247"><ele>429.0</ele><time>2026-04-18T08:41:50.003Z</time></trkpt><trkpt lat="42.95027578775649" lon="13.553757239251361"><ele>429.0</ele><time>2026-04-18T08:41:51.003Z</time></trkpt><trkpt lat="42.95039908457093" lon="13.553759210932284"><ele>429.0</ele><time>2026-04-18T08:41:51.999Z</time></trkpt><trkpt lat="42.95051349430446" lon="13.553753761894137"><ele>429.0</ele><time>2026-04-18T08:41:52.999Z</time></trkpt><trkpt lat="42.95062832530177" lon="13.553717263281644"><ele>429.0</ele><time>2026-04-18T08:41:54Z</time></trkpt><trkpt lat="42.950731611345155" lon="13.553609524375906"><ele>429.0</ele><time>2026-04-18T08:41:55Z</time></trkpt><trkpt lat="42.950794399999275" lon="13.55346426968607"><ele>429.0</ele><time>2026-04-18T08:41:56Z</time></trkpt><trkpt lat="42.95086522256558" lon="13.553292026559687"><ele>426.33333333333337</ele><time>2026-04-18T08:41:57Z</time></trkpt><trkpt lat="42.95092796764089" lon="13.553091294199755"><ele>423.6666666666667</ele><time>2026-04-18T08:41:58Z</time></trkpt><trkpt lat="42.95099070233033" lon="13.552904292146925"><ele>421.0</ele><time>2026-04-18T08:41:59Z</time></trkpt><trkpt lat="42.95104233075113" lon="13.55271839793392"><ele>421.0</ele><time>2026-04-18T08:42:00Z</time></trkpt><trkpt lat="42.951063917190126" lon="13.552503218009972"><ele>421.0</ele><time>2026-04-18T08:42:01Z</time></trkpt><trkpt lat="42.95109638866062" lon="13.552270127488082"><ele>421.0</ele><time>2026-04-18T08:42:02Z</time></trkpt><trkpt lat="42.95112668768016" lon="13.552022588447477"><ele>424.6666666666667</ele><time>2026-04-18T08:42:03Z</time></trkpt><trkpt lat="42.95116024827844" lon="13.551758000526835"><ele>428.33333333333337</ele><time>2026-04-18T08:42:04Z</time></trkpt><trkpt lat="42.95119246161735" lon="13.551506754741562"><ele>432.0</ele><time>2026-04-18T08:42:05Z</time></trkpt><trkpt lat="42.95120480343079" lon="13.551265704851676"><ele>435.33333333333337</ele><time>2026-04-18T08:42:06Z</time></trkpt><trkpt lat="42.95119888132441" lon="13.551031960977912"><ele>438.6666666666667</ele><time>2026-04-18T08:42:07Z</time></trkpt><trkpt lat="42.95118820637259" lon="13.550799587397995"><ele>442.0</ele><time>2026-04-18T08:42:08Z</time></trkpt><trkpt lat="42.951176216061256" lon="13.550582112123243"><ele>443.5</ele><time>2026-04-18T08:42:09Z</time></trkpt><trkpt lat="42.951169354130634" lon="13.550372651428713"><ele>445.0</ele><time>2026-04-18T08:42:10Z</time></trkpt><trkpt lat="42.951177249855185" lon="13.550186204730082"><ele>446.5</ele><time>2026-04-18T08:42:11Z</time></trkpt><trkpt lat="42.95123643439807" lon="13.550057847853072"><ele>448.0</ele><time>2026-04-18T08:42:12Z</time></trkpt><trkpt lat="42.95129878282609" lon="13.54991836266488"><ele>448.0</ele><time>2026-04-18T08:42:13Z</time></trkpt><trkpt lat="42.95135910106771" lon="13.54974797394848"><ele>448.0</ele><time>2026-04-18T08:42:14Z</time></trkpt><trkpt lat="42.95139583167195" lon="13.549592919811376"><ele>448.0</ele><time>2026-04-18T08:42:15Z</time></trkpt><trkpt lat="42.951404447024785" lon="13.549438536820812"><ele>448.0</ele><time>2026-04-18T08:42:16Z</time></trkpt><trkpt lat="42.951394674225696" lon="13.549264500122977"><ele>448.25</ele><time>2026-04-18T08:42:17Z</time></trkpt><trkpt lat="42.95137093560701" lon="13.549089405847457"><ele>448.5</ele><time>2026-04-18T08:42:18Z</time></trkpt><trkpt lat="42.951326116454396" lon="13.548945896911155"><ele>448.75</ele><time>2026-04-18T08:42:19Z</time></trkpt><trkpt lat="42.951260482093545" lon="13.548829780888891"><ele>449.0</ele><time>2026-04-18T08:42:20Z</time></trkpt><trkpt lat="42.95116979281818" lon="13.548683214317458"><ele>451.0</ele><time>2026-04-18T08:42:21Z</time></trkpt><trkpt lat="42.9510670393399" lon="13.548502565969041"><ele>453.0</ele><time>2026-04-18T08:42:22Z</time></trkpt><trkpt lat="42.95098699581644" lon="13.548284060791799"><ele>455.0</ele><time>2026-04-18T08:42:23Z</time></trkpt><trkpt lat="42.95091503551073" lon="13.54808408410118"><ele>461.0</ele><time>2026-04-18T08:42:24.001Z</time></trkpt><trkpt lat="42.950870294308075" lon="13.547870249097969"><ele>467.0</ele><time>2026-04-18T08:42:25.001Z</time></trkpt><trkpt lat="42.95080833782632" lon="13.547680544135034"><ele>473.0</ele><time>2026-04-18T08:42:26.001Z</time></trkpt><trkpt lat="42.95076893533664" lon="13.547498276160242"><ele>472.99999999999994</ele><time>2026-04-18T08:42:27.001Z</time></trkpt><trkpt lat="42.950731618244056" lon="13.547363484082913"><ele>473.0</ele><time>2026-04-18T08:42:28.001Z</time></trkpt><trkpt lat="42.95066515026396" lon="13.547308696492417"><ele>473.0</ele><time>2026-04-18T08:42:29.001Z</time></trkpt><trkpt lat="42.95059368969751" lon="13.547306228169639"><ele>473.0</ele><time>2026-04-18T08:42:30.001Z</time></trkpt><trkpt lat="42.950510681890165" lon="13.547306403370577"><ele>472.99999999999994</ele><time>2026-04-18T08:42:31.001Z</time></trkpt><trkpt lat="42.95044072486886" lon="13.547350743233459"><ele>473.0</ele><time>2026-04-18T08:42:32.001Z</time></trkpt><trkpt lat="42.95037190621047" lon="13.547421238997071"><ele>473.0</ele><time>2026-04-18T08:42:33.001Z</time></trkpt><trkpt lat="42.95031167510655" lon="13.547535319638417"><ele>473.0</ele><time>2026-04-18T08:42:34.001Z</time></trkpt><trkpt lat="42.95029871890531" lon="13.547710901004464"><ele>473.0</ele><time>2026-04-18T08:42:35.001Z</time></trkpt><trkpt lat="42.950301904966814" lon="13.547905217833073"><ele>473.0</ele><time>2026-04-18T08:42:36.001Z</time></trkpt><trkpt lat="42.95032156871867" lon="13.54809240100094"><ele>473.75</ele><time>2026-04-18T08:42:37.001Z</time></trkpt><trkpt lat="42.95035807598017" lon="13.54829917950151"><ele>474.5</ele><time>2026-04-18T08:42:38.001Z</time></trkpt><trkpt lat="42.950389814768" lon="13.548488792717205"><ele>475.25</ele><time>2026-04-18T08:42:39.001Z</time></trkpt><trkpt lat="42.95042573146561" lon="13.548639884852372"><ele>476.0</ele><time>2026-04-18T08:42:40.001Z</time></trkpt><trkpt lat="42.950421123837145" lon="13.548767798404086"><ele>476.20000000000005</ele><time>2026-04-18T08:42:41.001Z</time></trkpt><trkpt lat="42.95036500286124" lon="13.548831493721046"><ele>476.40000000000003</ele><time>2026-04-18T08:42:42.001Z</time></trkpt><trkpt lat="42.9503025629978" lon="13.548854525913134"><ele>476.6</ele><time>2026-04-18T08:42:43.001Z</time></trkpt><trkpt lat="42.95020571769483" lon="13.548948260033713"><ele>476.8</ele><time>2026-04-18T08:42:44.001Z</time></trkpt><trkpt lat="42.950094919493345" lon="13.549067175813969"><ele>477.0</ele><time>2026-04-18T08:42:45.001Z</time></trkpt><trkpt lat="42.94999926786712" lon="13.549215452145841"><ele>481.0</ele><time>2026-04-18T08:42:46.001Z</time></trkpt><trkpt lat="42.94993385501212" lon="13.54942966581398"><ele>485.0</ele><time>2026-04-18T08:42:47.001Z</time></trkpt><trkpt lat="42.94988075967421" lon="13.549659473857927"><ele>489.0</ele><time>2026-04-18T08:42:48.001Z</time></trkpt><trkpt lat="42.94983501063012" lon="13.549867679441359"><ele>489.0</ele><time>2026-04-18T08:42:49.001Z</time></trkpt><trkpt lat="42.94975405067665" lon="13.550042697653065"><ele>489.0</ele><time>2026-04-18T08:42:50.001Z</time></trkpt><trkpt lat="42.949653586105875" lon="13.550190210165592"><ele>489.0</ele><time>2026-04-18T08:42:51.001Z</time></trkpt><trkpt lat="42.94953803926865" lon="13.550359885576949"><ele>490.2</ele><time>2026-04-18T08:42:52.001Z</time></trkpt><trkpt lat="42.9494343671871" lon="13.550503718613966"><ele>491.4</ele><time>2026-04-18T08:42:53.001Z</time></trkpt><trkpt lat="42.94935639651252" lon="13.550596746064393"><ele>492.6</ele><time>2026-04-18T08:42:54.001Z</time></trkpt><trkpt lat="42.9492930876693" lon="13.550624729364127"><ele>493.8</ele><time>2026-04-18T08:42:55.002Z</time></trkpt><trkpt lat="42.94918952160956" lon="13.55053942582304"><ele>495.0</ele><time>2026-04-18T08:42:57.002Z</time></trkpt><trkpt lat="42.94915647757003" lon="13.550460384802497"><ele>493.5</ele><time>2026-04-18T08:42:58.002Z</time></trkpt><trkpt lat="42.94916447339669" lon="13.550371168156857"><ele>492.0</ele><time>2026-04-18T08:42:59.002Z</time></trkpt><trkpt lat="42.94922378818761" lon="13.550200514153264"><ele>490.5</ele><time>2026-04-18T08:43:01.002Z</time></trkpt><trkpt lat="42.94930418456523" lon="13.550081768680727"><ele>489.0</ele><time>2026-04-18T08:43:02.002Z</time></trkpt><trkpt lat="42.94939881801616" lon="13.549948062889504"><ele>489.0</ele><time>2026-04-18T08:43:03.002Z</time></trkpt><trkpt lat="42.94948556015011" lon="13.549823566131778"><ele>489.0</ele><time>2026-04-18T08:43:04.002Z</time></trkpt><trkpt lat="42.949534222050765" lon="13.549746172156064"><ele>489.0</ele><time>2026-04-18T08:43:05.002Z</time></trkpt><trkpt lat="42.94958612428068" lon="13.549627315125713"><ele>489.0</ele><time>2026-04-18T08:43:07.002Z</time></trkpt><trkpt lat="42.94961329687907" lon="13.549534262579664"><ele>489.0</ele><time>2026-04-18T08:43:09.002Z</time></trkpt><trkpt lat="42.94964001293413" lon="13.549386650844523"><ele>490.1666666666667</ele><time>2026-04-18T08:43:11.002Z</time></trkpt><trkpt lat="42.94965453763467" lon="13.54921735992719"><ele>491.33333333333337</ele><time>2026-04-18T08:43:13.002Z</time></trkpt><trkpt lat="42.94965890566828" lon="13.549125479116023"><ele>492.5</ele><time>2026-04-18T08:43:14.002Z</time></trkpt><trkpt lat="42.949661082305596" lon="13.549036294357698"><ele>493.6666666666667</ele><time>2026-04-18T08:43:15.002Z</time></trkpt><trkpt lat="42.949666585520674" lon="13.548949402580538"><ele>494.83333333333337</ele><time>2026-04-18T08:43:16.002Z</time></trkpt><trkpt lat="42.94968557481612" lon="13.548789712884085"><ele>496.0</ele><time>2026-04-18T08:43:18.002Z</time></trkpt><trkpt lat="42.94969701758757" lon="13.548617798772835"><ele>496.00000000000006</ele><time>2026-04-18T08:43:20.002Z</time></trkpt><trkpt lat="42.94969511551136" lon="13.548528043615342"><ele>496.0</ele><time>2026-04-18T08:43:21.002Z</time></trkpt><trkpt lat="42.94968417588849" lon="13.548442676411302"><ele>496.0</ele><time>2026-04-18T08:43:22.002Z</time></trkpt><trkpt lat="42.949653576677946" lon="13.548346825923414"><ele>496.0</ele><time>2026-04-18T08:43:24.002Z</time></trkpt><trkpt lat="42.94961411116972" lon="13.548272794672775"><ele>496.00000000000006</ele><time>2026-04-18T08:43:26.002Z</time></trkpt><trkpt lat="42.94954703507684" lon="13.548168761314225"><ele>496.0</ele><time>2026-04-18T08:43:28.003Z</time></trkpt><trkpt lat="42.9494746288279" lon="13.548072830878235"><ele>496.0</ele><time>2026-04-18T08:43:30.003Z</time></trkpt><trkpt lat="42.94939937079281" lon="13.547973453014436"><ele>496.0</ele><time>2026-04-18T08:43:32.003Z</time></trkpt><trkpt lat="42.94929703165881" lon="13.547919524081035"><ele>496.0</ele><time>2026-04-18T08:43:34.003Z</time></trkpt><trkpt lat="42.949184772420445" lon="13.547864609286814"><ele>496.0</ele><time>2026-04-18T08:43:36.003Z</time></trkpt><trkpt lat="42.94907548306306" lon="13.547807196263697"><ele>496.83333333333337</ele><time>2026-04-18T08:43:38.003Z</time></trkpt><trkpt lat="42.94897859623427" lon="13.547787833732148"><ele>497.6666666666667</ele><time>2026-04-18T08:43:40.003Z</time></trkpt><trkpt lat="42.94891340752575" lon="13.547780276457965"><ele>498.5</ele><time>2026-04-18T08:43:41.003Z</time></trkpt><trkpt lat="42.94883695245265" lon="13.54776937601952"><ele>499.33333333333337</ele><time>2026-04-18T08:43:42.003Z</time></trkpt><trkpt lat="42.948754375486956" lon="13.547766868284343"><ele>500.1666666666667</ele><time>2026-04-18T08:43:43.003Z</time></trkpt><trkpt lat="42.94868255471531" lon="13.547767191604263"><ele>501.0</ele><time>2026-04-18T08:43:44.003Z</time></trkpt><trkpt lat="42.948611130869544" lon="13.547775878504053"><ele>501.0</ele><time>2026-04-18T08:43:45.003Z</time></trkpt><trkpt lat="42.948529299244974" lon="13.547803194411404"><ele>501.0</ele><time>2026-04-18T08:43:46.003Z</time></trkpt><trkpt lat="42.94843778992726" lon="13.547842922960289"><ele>501.0</ele><time>2026-04-18T08:43:47.003Z</time></trkpt><trkpt lat="42.94833153481443" lon="13.5478890921721"><ele>501.0</ele><time>2026-04-18T08:43:48.003Z</time></trkpt><trkpt lat="42.94823279119745" lon="13.547928681297483"><ele>501.0</ele><time>2026-04-18T08:43:49.003Z</time></trkpt><trkpt lat="42.94813989542944" lon="13.547964443008421"><ele>507.20000000000005</ele><time>2026-04-18T08:43:50.003Z</time></trkpt><trkpt lat="42.94803749543498" lon="13.54798459123743"><ele>513.4000000000001</ele><time>2026-04-18T08:43:51.003Z</time></trkpt><trkpt lat="42.94793561403781" lon="13.547967239634225"><ele>519.6</ele><time>2026-04-18T08:43:52.003Z</time></trkpt><trkpt lat="42.9478378946128" lon="13.547955149673886"><ele>525.8000000000001</ele><time>2026-04-18T08:43:53.003Z</time></trkpt><trkpt lat="42.9477290237075" lon="13.547930877779837"><ele>532.0</ele><time>2026-04-18T08:43:54.003Z</time></trkpt><trkpt lat="42.947626479202796" lon="13.54790900934548"><ele>496.0</ele><time>2026-04-18T08:43:55.003Z</time></trkpt><trkpt lat="42.94961411116972" lon="13.548272794672775"><ele>496.0</ele><time>2026-04-18T08:43:26.002Z</time></trkpt><trkpt lat="42.94954703507684" lon="13.548168761314225"><ele>496.0</ele><time>2026-04-18T08:43:28.003Z</time></trkpt><trkpt lat="42.9494746288279" lon="13.548072830878235"><ele>496.0</ele><time>2026-04-18T08:43:30.003Z</time></trkpt><trkpt lat="42.94939937079281" lon="13.547973453014436"><ele>496.0</ele><time>2026-04-18T08:43:32.003Z</time></trkpt><trkpt lat="42.94929703165881" lon="13.547919524081035"><ele>496.0</ele><time>2026-04-18T08:43:34.003Z</time></trkpt><trkpt lat="42.949184772420445" lon="13.547864609286814"><ele>496.83333333333337</ele><time>2026-04-18T08:43:36.003Z</time></trkpt><trkpt lat="42.94907548306306" lon="13.547807196263697"><ele>497.6666666666667</ele><time>2026-04-18T08:43:38.003Z</time></trkpt><trkpt lat="42.94897859623427" lon="13.547787833732148"><ele>498.5</ele><time>2026-04-18T08:43:40.003Z</time></trkpt><trkpt lat="42.94891340752575" lon="13.547780276457965"><ele>499.33333333333337</ele><time>2026-04-18T08:43:41.003Z</time></trkpt><trkpt lat="42.94883695245265" lon="13.54776937601952"><ele>500.1666666666667</ele><time>2026-04-18T08:43:42.003Z</time></trkpt><trkpt lat="42.948754375486956" lon="13.547766868284343"><ele>501.0</ele><time>2026-04-18T08:43:43.003Z</time></trkpt><trkpt lat="42.94868255471531" lon="13.547767191604263"><ele>501.0</ele><time>2026-04-18T08:43:44.003Z</time></trkpt><trkpt lat="42.948611130869544" lon="13.547775878504053"><ele>501.0</ele><time>2026-04-18T08:43:45.003Z</time></trkpt><trkpt lat="42.948529299244974" lon="13.547803194411404"><ele>501.0</ele><time>2026-04-18T08:43:46.003Z</time></trkpt><trkpt lat="42.94843778992726" lon="13.547842922960289"><ele>501.0</ele><time>2026-04-18T08:43:47.003Z</time></trkpt><trkpt lat="42.94833153481443" lon="13.5478890921721"><ele>501.0</ele><time>2026-04-18T08:43:48.003Z</time></trkpt><trkpt lat="42.94823279119745" lon="13.547928681297483"><ele>507.20000000000005</ele><time>2026-04-18T08:43:49.003Z</time></trkpt><trkpt lat="42.94813989542944" lon="13.547964443008421"><ele>513.4000000000001</ele><time>2026-04-18T08:43:50.003Z</time></trkpt><trkpt lat="42.94803749543498" lon="13.54798459123743"><ele>519.6</ele><time>2026-04-18T08:43:51.003Z</time></trkpt><trkpt lat="42.94793561403781" lon="13.547967239634225"><ele>525.8000000000001</ele><time>2026-04-18T08:43:52.003Z</time></trkpt><trkpt lat="42.9478378946128" lon="13.547955149673886"><ele>532.0</ele><time>2026-04-18T08:43:53.003Z</time></trkpt><trkpt lat="42.9477290237075" lon="13.547930877779837"><ele>532.0</ele><time>2026-04-18T08:43:54.003Z</time></trkpt><trkpt lat="42.947626479202796" lon="13.54790900934548"><ele>532.0</ele><time>2026-04-18T08:43:55.003Z</time></trkpt><trkpt lat="42.947550101111645" lon="13.54789392694447"><ele>532.0</ele><time>2026-04-18T08:43:56.003Z</time></trkpt><trkpt lat="42.947641569977634" lon="13.54791343464774"><ele>532.0</ele><time>2026-04-18T08:44:09.001Z</time></trkpt><trkpt lat="42.94772647027171" lon="13.547983716932519"><ele>532.0</ele><time>2026-04-18T08:44:10.001Z</time></trkpt><trkpt lat="42.94782315745473" lon="13.547997463897683"><ele>532.0</ele><time>2026-04-18T08:44:11Z</time></trkpt><trkpt lat="42.94792196806357" lon="13.548017941680804"><ele>532.0</ele><time>2026-04-18T08:44:12Z</time></trkpt><trkpt lat="42.94801962589156" lon="13.548017867024246"><ele>532.0</ele><time>2026-04-18T08:44:13Z</time></trkpt><trkpt lat="42.94811367059673" lon="13.548020044585536"><ele>532.0</ele><time>2026-04-18T08:44:14Z</time></trkpt><trkpt lat="42.94821379055696" lon="13.548007985862604"><ele>532.0</ele><time>2026-04-18T08:44:15Z</time></trkpt><trkpt lat="42.94832007908241" lon="13.547964875036977"><ele>529.0</ele><time>2026-04-18T08:44:16Z</time></trkpt><trkpt lat="42.94843761636362" lon="13.547920991655229"><ele>526.0</ele><time>2026-04-18T08:44:17Z</time></trkpt><trkpt lat="42.948553069043186" lon="13.54787538091987"><ele>523.0</ele><time>2026-04-18T08:44:18Z</time></trkpt><trkpt lat="42.94866246726276" lon="13.547836782100987"><ele>520.0</ele><time>2026-04-18T08:44:19Z</time></trkpt><trkpt lat="42.94877150423202" lon="13.547807779672631"><ele>520.0</ele><time>2026-04-18T08:44:20Z</time></trkpt><trkpt lat="42.94888116471021" lon="13.547786013661037"><ele>520.0</ele><time>2026-04-18T08:44:21Z</time></trkpt><trkpt lat="42.948983280112294" lon="13.54782062821542"><ele>520.0</ele><time>2026-04-18T08:44:22Z</time></trkpt><trkpt lat="42.949086728003124" lon="13.54785603039343"><ele>520.0</ele><time>2026-04-18T08:44:23Z</time></trkpt><trkpt lat="42.949194221788346" lon="13.54790407590608"><ele>520.0</ele><time>2026-04-18T08:44:24Z</time></trkpt><trkpt lat="42.9493049585809" lon="13.547969654203188"><ele>515.2</ele><time>2026-04-18T08:44:25.001Z</time></trkpt><trkpt lat="42.94939394620184" lon="13.548050305204372"><ele>510.4</ele><time>2026-04-18T08:44:26.001Z</time></trkpt><trkpt lat="42.94947587900741" lon="13.548152618127714"><ele>505.6</ele><time>2026-04-18T08:44:27.001Z</time></trkpt><trkpt lat="42.94955742504113" lon="13.548264126428224"><ele>500.8</ele><time>2026-04-18T08:44:28.001Z</time></trkpt><trkpt lat="42.94961463910751" lon="13.548365892182968"><ele>496.0</ele><time>2026-04-18T08:44:29.001Z</time></trkpt><trkpt lat="42.94965142357373" lon="13.548478361291576"><ele>496.0</ele><time>2026-04-18T08:44:30.001Z</time></trkpt><trkpt lat="42.949662617117305" lon="13.548599865982185"><ele>496.0</ele><time>2026-04-18T08:44:31.001Z</time></trkpt><trkpt lat="42.949645874446915" lon="13.548714405876352"><ele>496.0</ele><time>2026-04-18T08:44:32.001Z</time></trkpt><trkpt lat="42.949636297213154" lon="13.5488632888377"><ele>496.0</ele><time>2026-04-18T08:44:33.001Z</time></trkpt><trkpt lat="42.94962295202292" lon="13.549049668056346"><ele>496.0</ele><time>2026-04-18T08:44:34.001Z</time></trkpt><trkpt lat="42.9496098740336" lon="13.54923231547551"><ele>496.1666666666667</ele><time>2026-04-18T08:44:35.001Z</time></trkpt><trkpt lat="42.94959617861898" lon="13.549400431627735"><ele>496.33333333333337</ele><time>2026-04-18T08:44:36.001Z</time></trkpt><trkpt lat="42.949576900006235" lon="13.549539563307974"><ele>496.5</ele><time>2026-04-18T08:44:37.001Z</time></trkpt><trkpt lat="42.94954995106795" lon="13.549639506070342"><ele>496.66666666666663</ele><time>2026-04-18T08:44:38.001Z</time></trkpt><trkpt lat="42.94951153124518" lon="13.549711715040079"><ele>496.8333333333333</ele><time>2026-04-18T08:44:39.001Z</time></trkpt><trkpt lat="42.94946588466522" lon="13.549785138857036"><ele>497.0</ele><time>2026-04-18T08:44:40.001Z</time></trkpt><trkpt lat="42.949402656301515" lon="13.54987729903407"><ele>496.6</ele><time>2026-04-18T08:44:41.001Z</time></trkpt><trkpt lat="42.94932981002902" lon="13.549980222079336"><ele>496.20000000000005</ele><time>2026-04-18T08:44:42.001Z</time></trkpt><trkpt lat="42.94924926566044" lon="13.55009407919793"><ele>495.8</ele><time>2026-04-18T08:44:43.001Z</time></trkpt><trkpt lat="42.94918386298395" lon="13.550200404383252"><ele>495.4</ele><time>2026-04-18T08:44:44.001Z</time></trkpt><trkpt lat="42.949146193668064" lon="13.55032060521059"><ele>495.0</ele><time>2026-04-18T08:44:45.001Z</time></trkpt><trkpt lat="42.94910325227091" lon="13.550411028331437"><ele>495.0</ele><time>2026-04-18T08:44:46.001Z</time></trkpt><trkpt lat="42.94909789268375" lon="13.550502579475308"><ele>495.0</ele><time>2026-04-18T08:44:47.001Z</time></trkpt><trkpt lat="42.94915210195564" lon="13.550575002316783"><ele>495.0</ele><time>2026-04-18T08:44:48.001Z</time></trkpt><trkpt lat="42.949182560171636" lon="13.550652461933808"><ele>495.0</ele><time>2026-04-18T08:44:49.001Z</time></trkpt><trkpt lat="42.949268800975986" lon="13.550680185089183"><ele>495.0</ele><time>2026-04-18T08:44:50.001Z</time></trkpt><trkpt lat="42.94935563501393" lon="13.550662880675741"><ele>495.0</ele><time>2026-04-18T08:44:51.001Z</time></trkpt><trkpt lat="42.949447889534454" lon="13.550601071807305"><ele>493.8</ele><time>2026-04-18T08:44:52.001Z</time></trkpt><trkpt lat="42.94952038897912" lon="13.55050240602099"><ele>492.6</ele><time>2026-04-18T08:44:53.001Z</time></trkpt><trkpt lat="42.94958189154787" lon="13.550395470741218"><ele>491.4</ele><time>2026-04-18T08:44:54.001Z</time></trkpt><trkpt lat="42.94966703989221" lon="13.550299150062296"><ele>490.2</ele><time>2026-04-18T08:44:55.001Z</time></trkpt><trkpt lat="42.94974252040912" lon="13.550173770709042"><ele>489.0</ele><time>2026-04-18T08:44:56.001Z</time></trkpt><trkpt lat="42.94982319345085" lon="13.55005442056339"><ele>489.0</ele><time>2026-04-18T08:44:57.001Z</time></trkpt><trkpt lat="42.94986928410097" lon="13.549894880143999"><ele>489.0</ele><time>2026-04-18T08:44:58.001Z</time></trkpt><trkpt lat="42.949909526006685" lon="13.549757200842455"><ele>489.0</ele><time>2026-04-18T08:44:59.001Z</time></trkpt><trkpt lat="42.94996293617943" lon="13.549601044167785"><ele>489.0</ele><time>2026-04-18T08:45:00.001Z</time></trkpt><trkpt lat="42.950002542656" lon="13.549424019389456"><ele>491.0</ele><time>2026-04-18T08:45:01.001Z</time></trkpt><trkpt lat="42.95004134533418" lon="13.549266337584948"><ele>493.0</ele><time>2026-04-18T08:45:02.001Z</time></trkpt><trkpt lat="42.950092498435694" lon="13.549135965496822"><ele>495.0</ele><time>2026-04-18T08:45:03.001Z</time></trkpt><trkpt lat="42.950170838363434" lon="13.549024271725909"><ele>497.0</ele><time>2026-04-18T08:45:04.001Z</time></trkpt><trkpt lat="42.95026339702022" lon="13.548941485842487"><ele>493.0</ele><time>2026-04-18T08:45:05.001Z</time></trkpt><trkpt lat="42.95035853227766" lon="13.548860921742058"><ele>489.00000000000006</ele><time>2026-04-18T08:45:06.001Z</time></trkpt><trkpt lat="42.95044230598259" lon="13.548772245768461"><ele>485.00000000000006</ele><time>2026-04-18T08:45:07.001Z</time></trkpt><trkpt lat="42.950492952440975" lon="13.548663188455283"><ele>481.0</ele><time>2026-04-18T08:45:08.001Z</time></trkpt><trkpt lat="42.950482764435705" lon="13.548558438678516"><ele>477.0</ele><time>2026-04-18T08:45:09.001Z</time></trkpt><trkpt lat="42.9504671500717" lon="13.548447493594011"><ele>476.8</ele><time>2026-04-18T08:45:10.001Z</time></trkpt><trkpt lat="42.950427355115245" lon="13.548317484294477"><ele>476.6</ele><time>2026-04-18T08:45:11.001Z</time></trkpt><trkpt lat="42.95039410331618" lon="13.548158846124215"><ele>476.40000000000003</ele><time>2026-04-18T08:45:12.001Z</time></trkpt><trkpt lat="42.95039211385766" lon="13.548017579047388"><ele>476.20000000000005</ele><time>2026-04-18T08:45:13.001Z</time></trkpt><trkpt lat="42.95037669183649" lon="13.547890433894237"><ele>476.0</ele><time>2026-04-18T08:45:14.001Z</time></trkpt><trkpt lat="42.950368037362246" lon="13.54777601481535"><ele>475.57142857142856</ele><time>2026-04-18T08:45:15.001Z</time></trkpt><trkpt lat="42.950368451391846" lon="13.547671222913605"><ele>475.1428571428571</ele><time>2026-04-18T08:45:16.001Z</time></trkpt><trkpt lat="42.95037582694952" lon="13.547578801756234"><ele>474.7142857142857</ele><time>2026-04-18T08:45:17.001Z</time></trkpt><trkpt lat="42.950388177409906" lon="13.547486786716679"><ele>474.2857142857143</ele><time>2026-04-18T08:45:18.001Z</time></trkpt><trkpt lat="42.950428633265425" lon="13.547409841429966"><ele>473.85714285714283</ele><time>2026-04-18T08:45:19.001Z</time></trkpt><trkpt lat="42.95048309630532" lon="13.547358104050963"><ele>473.42857142857144</ele><time>2026-04-18T08:45:20.002Z</time></trkpt><trkpt lat="42.95056769740249" lon="13.5473706228981"><ele>473.0</ele><time>2026-04-18T08:45:21.002Z</time></trkpt><trkpt lat="42.95063545137682" lon="13.547396534094357"><ele>472.99999999999994</ele><time>2026-04-18T08:45:22.002Z</time></trkpt><trkpt lat="42.95069124846561" lon="13.547437089201756"><ele>473.0</ele><time>2026-04-18T08:45:23.002Z</time></trkpt><trkpt lat="42.95074817756017" lon="13.547508760862879"><ele>473.0</ele><time>2026-04-18T08:45:24.002Z</time></trkpt><trkpt lat="42.950769359155196" lon="13.547616305570218"><ele>473.0</ele><time>2026-04-18T08:45:25.002Z</time></trkpt><trkpt lat="42.95079698278056" lon="13.547720159112924"><ele>472.99999999999994</ele><time>2026-04-18T08:45:26.002Z</time></trkpt><trkpt lat="42.950826096999776" lon="13.54783487341836"><ele>473.0</ele><time>2026-04-18T08:45:27.002Z</time></trkpt><trkpt lat="42.95085592344625" lon="13.547956011939892"><ele>469.99999999999994</ele><time>2026-04-18T08:45:28.002Z</time></trkpt><trkpt lat="42.95088130031737" lon="13.54806778637082"><ele>467.0</ele><time>2026-04-18T08:45:29.002Z</time></trkpt><trkpt lat="42.95090354798562" lon="13.548159910246927"><ele>464.0</ele><time>2026-04-18T08:45:30.002Z</time></trkpt><trkpt lat="42.950941140427716" lon="13.548239868777909"><ele>461.0</ele><time>2026-04-18T08:45:31.002Z</time></trkpt><trkpt lat="42.9509579810749" lon="13.548350155466814"><ele>457.99999999999994</ele><time>2026-04-18T08:45:33.002Z</time></trkpt><trkpt lat="42.951039714963244" lon="13.548266945547029"><ele>455.0</ele><time>2026-04-18T08:45:38.002Z</time></trkpt><trkpt lat="42.95105770304822" lon="13.548176201159741"><ele>454.99999999999994</ele><time>2026-04-18T08:45:40.002Z</time></trkpt><trkpt lat="42.951089091364814" lon="13.548060099490684"><ele>455.0</ele><time>2026-04-18T08:45:42.002Z</time></trkpt><trkpt lat="42.9511203200541" lon="13.54793443174824"><ele>455.0</ele><time>2026-04-18T08:45:44.002Z</time></trkpt><trkpt lat="42.95114645287344" lon="13.547825022611086"><ele>455.0</ele><time>2026-04-18T08:45:46.002Z</time></trkpt><trkpt lat="42.951164264958784" lon="13.547741482800804"><ele>454.99999999999994</ele><time>2026-04-18T08:45:48.002Z</time></trkpt><trkpt lat="42.95117771562431" lon="13.54761443646107"><ele>455.0</ele><time>2026-04-18T08:45:50.002Z</time></trkpt><trkpt lat="42.95119846122881" lon="13.547520013564112"><ele>455.1428571428571</ele><time>2026-04-18T08:45:51.002Z</time></trkpt><trkpt lat="42.95120493623687" lon="13.547418353662984"><ele>455.2857142857143</ele><time>2026-04-18T08:45:52.002Z</time></trkpt><trkpt lat="42.95121267948195" lon="13.547316174006962"><ele>455.42857142857144</ele><time>2026-04-18T08:45:53.002Z</time></trkpt><trkpt lat="42.951207235033934" lon="13.547206759383998"><ele>455.57142857142856</ele><time>2026-04-18T08:45:54.002Z</time></trkpt><trkpt lat="42.95118574012077" lon="13.547101730278088"><ele>455.71428571428567</ele><time>2026-04-18T08:45:55.002Z</time></trkpt><trkpt lat="42.95116227543151" lon="13.547018277059868"><ele>455.85714285714283</ele><time>2026-04-18T08:45:56.002Z</time></trkpt><trkpt lat="42.95112383890413" lon="13.546935620702753"><ele>456.0</ele><time>2026-04-18T08:45:57.002Z</time></trkpt><trkpt lat="42.951066105426136" lon="13.546871369266968"><ele>457.0</ele><time>2026-04-18T08:45:58.002Z</time></trkpt><trkpt lat="42.95098882862324" lon="13.546820388571582"><ele>458.0</ele><time>2026-04-18T08:45:59.002Z</time></trkpt><trkpt lat="42.95090883254016" lon="13.546785220086962"><ele>459.0</ele><time>2026-04-18T08:46:00.002Z</time></trkpt><trkpt lat="42.95083124849414" lon="13.546727015963976"><ele>460.0</ele><time>2026-04-18T08:46:01.002Z</time></trkpt><trkpt lat="42.95075637040092" lon="13.546708318795678"><ele>461.0</ele><time>2026-04-18T08:46:02.002Z</time></trkpt><trkpt lat="42.9506727481296" lon="13.546671227936937"><ele>462.0</ele><time>2026-04-18T08:46:03.002Z</time></trkpt><trkpt lat="42.95057455176465" lon="13.546690856810152"><ele>462.0</ele><time>2026-04-18T08:46:04Z</time></trkpt><trkpt lat="42.950485758121175" lon="13.546735064289512"><ele>462.00000000000006</ele><time>2026-04-18T08:46:05Z</time></trkpt><trkpt lat="42.95039205415876" lon="13.546764762259247"><ele>462.00000000000006</ele><time>2026-04-18T08:46:06Z</time></trkpt><trkpt lat="42.9502974085227" lon="13.546759491425288"><ele>462.0</ele><time>2026-04-18T08:46:07Z</time></trkpt><trkpt lat="42.95020540244354" lon="13.546739115548622"><ele>462.0</ele><time>2026-04-18T08:46:08Z</time></trkpt><trkpt lat="42.950099234770796" lon="13.546712300008544"><ele>463.75</ele><time>2026-04-18T08:46:09Z</time></trkpt><trkpt lat="42.94999054098928" lon="13.546685967610442"><ele>465.5</ele><time>2026-04-18T08:46:10Z</time></trkpt><trkpt lat="42.94987460223809" lon="13.546665887871937"><ele>467.25</ele><time>2026-04-18T08:46:11Z</time></trkpt><trkpt lat="42.9497569497117" lon="13.546659131621029"><ele>469.0</ele><time>2026-04-18T08:46:12Z</time></trkpt><trkpt lat="42.9496439966273" lon="13.546666396037288"><ele>469.0</ele><time>2026-04-18T08:46:13Z</time></trkpt><trkpt lat="42.949533649257084" lon="13.546699741486972"><ele>469.0</ele><time>2026-04-18T08:46:14Z</time></trkpt><trkpt lat="42.949434067686" lon="13.546762118443286"><ele>469.0</ele><time>2026-04-18T08:46:15Z</time></trkpt><trkpt lat="42.94934257746185" lon="13.546821974243619"><ele>469.0</ele><time>2026-04-18T08:46:16Z</time></trkpt><trkpt lat="42.949263455861576" lon="13.546882815383388"><ele>469.0</ele><time>2026-04-18T08:46:17Z</time></trkpt><trkpt lat="42.94917792163011" lon="13.54692751501356"><ele>470.6</ele><time>2026-04-18T08:46:18Z</time></trkpt><trkpt lat="42.9490944911258" lon="13.546955758227169"><ele>472.2</ele><time>2026-04-18T08:46:19Z</time></trkpt><trkpt lat="42.94901570203766" lon="13.546916734047382"><ele>473.80000000000007</ele><time>2026-04-18T08:46:20Z</time></trkpt><trkpt lat="42.94893195446974" lon="13.546868764959566"><ele>475.40000000000003</ele><time>2026-04-18T08:46:21Z</time></trkpt><trkpt lat="42.948837961319065" lon="13.546813304925447"><ele>477.0</ele><time>2026-04-18T08:46:22Z</time></trkpt><trkpt lat="42.94874406750045" lon="13.546744638430491"><ele>477.0</ele><time>2026-04-18T08:46:23Z</time></trkpt><trkpt lat="42.94865141228934" lon="13.546676766744822"><ele>477.00000000000006</ele><time>2026-04-18T08:46:24Z</time></trkpt><trkpt lat="42.94855583199535" lon="13.546616929022017"><ele>477.00000000000006</ele><time>2026-04-18T08:46:25Z</time></trkpt><trkpt lat="42.94845288896253" lon="13.546614206111947"><ele>477.0</ele><time>2026-04-18T08:46:26Z</time></trkpt><trkpt lat="42.94836973916517" lon="13.546582628531834"><ele>477.0</ele><time>2026-04-18T08:46:27Z</time></trkpt><trkpt lat="42.94828544598503" lon="13.546647538066441"><ele>478.20000000000005</ele><time>2026-04-18T08:46:28Z</time></trkpt><trkpt lat="42.94819452083905" lon="13.546714060603765"><ele>479.40000000000003</ele><time>2026-04-18T08:46:29Z</time></trkpt><trkpt lat="42.9481048646042" lon="13.546778915931386"><ele>480.59999999999997</ele><time>2026-04-18T08:46:30Z</time></trkpt><trkpt lat="42.948011064750055" lon="13.546870193485653"><ele>481.79999999999995</ele><time>2026-04-18T08:46:31Z</time></trkpt><trkpt lat="42.947918152665245" lon="13.546953240671249"><ele>483.0</ele><time>2026-04-18T08:46:32Z</time></trkpt><trkpt lat="42.9478146071589" lon="13.546975107194406"><ele>483.0</ele><time>2026-04-18T08:46:33Z</time></trkpt><trkpt lat="42.947740955093096" lon="13.546988959655678"><ele>482.99999999999994</ele><time>2026-04-18T08:46:34Z</time></trkpt><trkpt lat="42.947646014714245" lon="13.546970363603526"><ele>482.99999999999994</ele><time>2026-04-18T08:46:36Z</time></trkpt><trkpt lat="42.947587621801866" lon="13.546884283386394"><ele>483.0</ele><time>2026-04-18T08:46:38Z</time></trkpt><trkpt lat="42.947567169163804" lon="13.546730913866945"><ele>483.0</ele><time>2026-04-18T08:46:40.001Z</time></trkpt><trkpt lat="42.94756049417176" lon="13.546621078047446"><ele>483.0</ele><time>2026-04-18T08:46:41.001Z</time></trkpt><trkpt lat="42.947564256076866" lon="13.546502722856928"><ele>483.0</ele><time>2026-04-18T08:46:42.001Z</time></trkpt><trkpt lat="42.947568935892896" lon="13.546372293750501"><ele>483.0</ele><time>2026-04-18T08:46:43.001Z</time></trkpt><trkpt lat="42.94755985849875" lon="13.546253827495416"><ele>483.0</ele><time>2026-04-18T08:46:44.001Z</time></trkpt><trkpt lat="42.94753937329098" lon="13.54615015501286"><ele>483.0</ele><time>2026-04-18T08:46:45.001Z</time></trkpt><trkpt lat="42.94748859081827" lon="13.546060782562325"><ele>483.0</ele><time>2026-04-18T08:46:46.001Z</time></trkpt><trkpt lat="42.94743789886512" lon="13.54599907052964"><ele>484.5</ele><time>2026-04-18T08:46:47.001Z</time></trkpt><trkpt lat="42.94738427156964" lon="13.545921104148075"><ele>486.0</ele><time>2026-04-18T08:46:48.001Z</time></trkpt><trkpt lat="42.94732021546634" lon="13.545872168817978"><ele>487.5</ele><time>2026-04-18T08:46:49.001Z</time></trkpt><trkpt lat="42.947299145172494" lon="13.54575369051125"><ele>489.0</ele><time>2026-04-18T08:46:50.001Z</time></trkpt><trkpt lat="42.947268191848224" lon="13.545646398961741"><ele>490.5</ele><time>2026-04-18T08:46:51.001Z</time></trkpt><trkpt lat="42.9472603390037" lon="13.545552185176009"><ele>492.0</ele><time>2026-04-18T08:46:52.001Z</time></trkpt><trkpt lat="42.947298208073505" lon="13.545386562084952"><ele>490.57142857142867</ele><time>2026-04-18T08:46:54.001Z</time></trkpt><trkpt lat="42.94734180582619" lon="13.545312114850178"><ele>489.14285714285717</ele><time>2026-04-18T08:46:55.001Z</time></trkpt><trkpt lat="42.94738515031243" lon="13.545234060265775"><ele>487.7142857142858</ele><time>2026-04-18T08:46:56.001Z</time></trkpt><trkpt lat="42.94743653930883" lon="13.545168224271645"><ele>486.28571428571433</ele><time>2026-04-18T08:46:57.001Z</time></trkpt><trkpt lat="42.9474619937191" lon="13.545084715999199"><ele>484.8571428571429</ele><time>2026-04-18T08:46:58.001Z</time></trkpt><trkpt lat="42.94744824822261" lon="13.54499987842756"><ele>483.42857142857144</ele><time>2026-04-18T08:46:59.001Z</time></trkpt><trkpt lat="42.94741955616885" lon="13.544857990450954"><ele>482.0</ele><time>2026-04-18T08:47:01.001Z</time></trkpt><trkpt lat="42.947363974905834" lon="13.54480237984844"><ele>481.99999999999994</ele><time>2026-04-18T08:47:02.001Z</time></trkpt><trkpt lat="42.94728503179714" lon="13.544764661273648"><ele>482.0</ele><time>2026-04-18T08:47:03.001Z</time></trkpt><trkpt lat="42.94720367315222" lon="13.544733835354613"><ele>482.0</ele><time>2026-04-18T08:47:04.001Z</time></trkpt><trkpt lat="42.947123975536414" lon="13.544718623653937"><ele>482.0</ele><time>2026-04-18T08:47:05.001Z</time></trkpt><trkpt lat="42.947043512155574" lon="13.544710535274609"><ele>481.99999999999994</ele><time>2026-04-18T08:47:06.001Z</time></trkpt><trkpt lat="42.94697196502928" lon="13.544689845401114"><ele>482.0</ele><time>2026-04-18T08:47:07.001Z</time></trkpt><trkpt lat="42.9468957637149" lon="13.544723379790142"><ele>481.99999999999994</ele><time>2026-04-18T08:47:08.001Z</time></trkpt><trkpt lat="42.94682030574991" lon="13.544755675762795"><ele>482.0</ele><time>2026-04-18T08:47:09.001Z</time></trkpt><trkpt lat="42.946737117719216" lon="13.544807380135117"><ele>482.0</ele><time>2026-04-18T08:47:10.001Z</time></trkpt><trkpt lat="42.94665415926554" lon="13.544869830236209"><ele>482.0</ele><time>2026-04-18T08:47:11.001Z</time></trkpt><trkpt lat="42.94656475190718" lon="13.544905485311586"><ele>481.99999999999994</ele><time>2026-04-18T08:47:12.001Z</time></trkpt><trkpt lat="42.94648182521032" lon="13.544922024931193"><ele>482.0</ele><time>2026-04-18T08:47:13.001Z</time></trkpt><trkpt lat="42.94640985278593" lon="13.544918771258144"><ele>483.8333333333333</ele><time>2026-04-18T08:47:14.001Z</time></trkpt><trkpt lat="42.94630415281205" lon="13.544866434860053"><ele>485.66666666666663</ele><time>2026-04-18T08:47:16.001Z</time></trkpt><trkpt lat="42.94624558144977" lon="13.544804628771862"><ele>487.5</ele><time>2026-04-18T08:47:17.001Z</time></trkpt><trkpt lat="42.94617118238184" lon="13.544741999319193"><ele>489.33333333333337</ele><time>2026-04-18T08:47:18.001Z</time></trkpt><trkpt lat="42.94610001406858" lon="13.544682090271131"><ele>491.1666666666667</ele><time>2026-04-18T08:47:19.001Z</time></trkpt><trkpt lat="42.94602412886831" lon="13.5446441073786"><ele>493.0</ele><time>2026-04-18T08:47:20.001Z</time></trkpt><trkpt lat="42.945939904894146" lon="13.544651807537075"><ele>494.00000000000006</ele><time>2026-04-18T08:47:21.001Z</time></trkpt><trkpt lat="42.9458471298026" lon="13.544670114704891"><ele>495.0</ele><time>2026-04-18T08:47:22.001Z</time></trkpt><trkpt lat="42.94573587496067" lon="13.544686102593156"><ele>496.0</ele><time>2026-04-18T08:47:23.001Z</time></trkpt><trkpt lat="42.94564651685939" lon="13.544697613668877"><ele>497.0</ele><time>2026-04-18T08:47:24.001Z</time></trkpt><trkpt lat="42.94556821778015" lon="13.54470458730205"><ele>498.00000000000006</ele><time>2026-04-18T08:47:25.001Z</time></trkpt><trkpt lat="42.945497277588906" lon="13.544699528095794"><ele>499.0</ele><time>2026-04-18T08:47:26.001Z</time></trkpt><trkpt lat="42.94542466233242" lon="13.544680108593154"><ele>499.00000000000006</ele><time>2026-04-18T08:47:27.001Z</time></trkpt><trkpt lat="42.94537806310216" lon="13.54457821839568"><ele>499.0</ele><time>2026-04-18T08:47:29.002Z</time></trkpt><trkpt lat="42.945374352150644" lon="13.544390326873382"><ele>499.0</ele><time>2026-04-18T08:47:31.002Z</time></trkpt><trkpt lat="42.94537515165745" lon="13.544299918964517"><ele>499.0</ele><time>2026-04-18T08:47:32.002Z</time></trkpt><trkpt lat="42.945379917410655" lon="13.544204046960642"><ele>499.00000000000006</ele><time>2026-04-18T08:47:33.002Z</time></trkpt><trkpt lat="42.945395552914974" lon="13.544102549891095"><ele>499.0</ele><time>2026-04-18T08:47:34.002Z</time></trkpt><trkpt lat="42.945455297802496" lon="13.544020468760928"><ele>497.5</ele><time>2026-04-18T08:47:35.002Z</time></trkpt><trkpt lat="42.945536995154725" lon="13.543943396060437"><ele>496.0</ele><time>2026-04-18T08:47:36.002Z</time></trkpt><trkpt lat="42.945620811787514" lon="13.543838697223316"><ele>494.5</ele><time>2026-04-18T08:47:37.002Z</time></trkpt><trkpt lat="42.94570349099262" lon="13.543731600537683"><ele>493.0</ele><time>2026-04-18T08:47:38.002Z</time></trkpt><trkpt lat="42.94577268029804" lon="13.543590380923439"><ele>493.0</ele><time>2026-04-18T08:47:39.002Z</time></trkpt><trkpt lat="42.945864958205796" lon="13.54344608161386"><ele>493.0</ele><time>2026-04-18T08:47:40.002Z</time></trkpt><trkpt lat="42.94594254919774" lon="13.543305273719627"><ele>493.0</ele><time>2026-04-18T08:47:41.002Z</time></trkpt><trkpt lat="42.94601787012472" lon="13.543164438949644"><ele>493.0</ele><time>2026-04-18T08:47:42.002Z</time></trkpt><trkpt lat="42.94609006242715" lon="13.543029753346428"><ele>490.2</ele><time>2026-04-18T08:47:43.002Z</time></trkpt><trkpt lat="42.946163674944124" lon="13.54290788281861"><ele>487.4</ele><time>2026-04-18T08:47:44.002Z</time></trkpt><trkpt lat="42.946256068951584" lon="13.542836837036395"><ele>484.59999999999997</ele><time>2026-04-18T08:47:45.002Z</time></trkpt><trkpt lat="42.94634636649345" lon="13.542758668717626"><ele>481.79999999999995</ele><time>2026-04-18T08:47:46.002Z</time></trkpt><trkpt lat="42.946436300118954" lon="13.542668797628851"><ele>479.0</ele><time>2026-04-18T08:47:47.002Z</time></trkpt><trkpt lat="42.946501299102025" lon="13.54256197145837"><ele>479.0</ele><time>2026-04-18T08:47:48.002Z</time></trkpt><trkpt lat="42.946586141451085" lon="13.542472757272948"><ele>479.0</ele><time>2026-04-18T08:47:49.002Z</time></trkpt><trkpt lat="42.94665143362374" lon="13.542389184199855"><ele>479.0</ele><time>2026-04-18T08:47:50.002Z</time></trkpt><trkpt lat="42.94669541421077" lon="13.542322832928035"><ele>479.0</ele><time>2026-04-18T08:47:51.002Z</time></trkpt><trkpt lat="42.94675943292183" lon="13.542188501058805"><ele>479.0</ele><time>2026-04-18T08:47:53.002Z</time></trkpt><trkpt lat="42.94680527425772" lon="13.5420768885798"><ele>478.0</ele><time>2026-04-18T08:47:55.002Z</time></trkpt><trkpt lat="42.94684156560109" lon="13.541960607953344"><ele>477.0</ele><time>2026-04-18T08:47:57.002Z</time></trkpt><trkpt lat="42.946880652610474" lon="13.541841883850132"><ele>476.0</ele><time>2026-04-18T08:47:59.002Z</time></trkpt><trkpt lat="42.94698713650508" lon="13.541746859237126"><ele>475.0</ele><time>2026-04-18T08:48:01.002Z</time></trkpt><trkpt lat="42.94706230539705" lon="13.54171524894694"><ele>474.0</ele><time>2026-04-18T08:48:02.002Z</time></trkpt><trkpt lat="42.947154328944706" lon="13.54170570358525"><ele>474.0</ele><time>2026-04-18T08:48:03.002Z</time></trkpt><trkpt lat="42.94723509854748" lon="13.541677706149835"><ele>474.0</ele><time>2026-04-18T08:48:04.002Z</time></trkpt><trkpt lat="42.94730749325589" lon="13.541668434573495"><ele>474.0</ele><time>2026-04-18T08:48:05.002Z</time></trkpt><trkpt lat="42.94736963804431" lon="13.541647147176926"><ele>474.0</ele><time>2026-04-18T08:48:06.002Z</time></trkpt><trkpt lat="42.947412380474475" lon="13.541516748877864"><ele>474.0</ele><time>2026-04-18T08:48:08.002Z</time></trkpt><trkpt lat="42.947386855032086" lon="13.541375108205088"><ele>474.0</ele><time>2026-04-18T08:48:10Z</time></trkpt><trkpt lat="42.94736087745383" lon="13.541269095724305"><ele>472.4</ele><time>2026-04-18T08:48:11Z</time></trkpt><trkpt lat="42.94731809942048" lon="13.541098239353405"><ele>470.79999999999995</ele><time>2026-04-18T08:48:12Z</time></trkpt><trkpt lat="42.947273841197685" lon="13.54097560557081"><ele>469.20000000000005</ele><time>2026-04-18T08:48:13Z</time></trkpt><trkpt lat="42.94725886265733" lon="13.540848624641809"><ele>467.6</ele><time>2026-04-18T08:48:14Z</time></trkpt><trkpt lat="42.94727174480349" lon="13.540716721312306"><ele>466.0</ele><time>2026-04-18T08:48:15Z</time></trkpt><trkpt lat="42.94728859402512" lon="13.540587236658682"><ele>466.0</ele><time>2026-04-18T08:48:16Z</time></trkpt><trkpt lat="42.94730248068144" lon="13.540472821671283"><ele>466.0</ele><time>2026-04-18T08:48:17Z</time></trkpt><trkpt lat="42.94731948924261" lon="13.540358575573473"><ele>466.0</ele><time>2026-04-18T08:48:18Z</time></trkpt><trkpt lat="42.94733318492052" lon="13.54025046093342"><ele>466.0</ele><time>2026-04-18T08:48:19Z</time></trkpt><trkpt lat="42.94733640110391" lon="13.540129635541076"><ele>466.0</ele><time>2026-04-18T08:48:20Z</time></trkpt><trkpt lat="42.94730184084592" lon="13.539978838214017"><ele>464.4</ele><time>2026-04-18T08:48:21Z</time></trkpt><trkpt lat="42.94725221406506" lon="13.539832117317149"><ele>462.8</ele><time>2026-04-18T08:48:22Z</time></trkpt><trkpt lat="42.947202674588475" lon="13.539688418084713"><ele>461.19999999999993</ele><time>2026-04-18T08:48:23Z</time></trkpt><trkpt lat="42.94716164419691" lon="13.539550841646617"><ele>459.59999999999997</ele><time>2026-04-18T08:48:24Z</time></trkpt><trkpt lat="42.94714316102429" lon="13.539425323425137"><ele>458.0</ele><time>2026-04-18T08:48:25Z</time></trkpt><trkpt lat="42.94717873506405" lon="13.539327399185575"><ele>458.0</ele><time>2026-04-18T08:48:26Z</time></trkpt><trkpt lat="42.94719801801208" lon="13.53922315336172"><ele>457.99999999999994</ele><time>2026-04-18T08:48:27Z</time></trkpt><trkpt lat="42.94721260944989" lon="13.539090240603437"><ele>457.99999999999994</ele><time>2026-04-18T08:48:28Z</time></trkpt><trkpt lat="42.94724397515635" lon="13.538946232325909"><ele>458.0</ele><time>2026-04-18T08:48:29Z</time></trkpt><trkpt lat="42.94727521580358" lon="13.538818406790412"><ele>458.0</ele><time>2026-04-18T08:48:30Z</time></trkpt><trkpt lat="42.94730284971957" lon="13.538681947866586"><ele>458.0</ele><time>2026-04-18T08:48:31Z</time></trkpt><trkpt lat="42.947327139905106" lon="13.538552227513385"><ele>457.99999999999994</ele><time>2026-04-18T08:48:32Z</time></trkpt><trkpt lat="42.947351349623986" lon="13.538429117301884"><ele>457.99999999999994</ele><time>2026-04-18T08:48:33Z</time></trkpt><trkpt lat="42.94737640544413" lon="13.538299339583544"><ele>458.0</ele><time>2026-04-18T08:48:34Z</time></trkpt><trkpt lat="42.94740765350616" lon="13.53816333276826"><ele>458.0</ele><time>2026-04-18T08:48:35Z</time></trkpt><trkpt lat="42.94743381702485" lon="13.538043121065636"><ele>457.99999999999994</ele><time>2026-04-18T08:48:36Z</time></trkpt><trkpt lat="42.94745118641687" lon="13.537953141465271"><ele>458.0</ele><time>2026-04-18T08:48:37Z</time></trkpt><trkpt lat="42.947507090567804" lon="13.537831979422325"><ele>458.0</ele><time>2026-04-18T08:48:39Z</time></trkpt><trkpt lat="42.94757176601757" lon="13.53786141871644"><ele>458.0</ele><time>2026-04-18T08:48:40Z</time></trkpt><trkpt lat="42.94762507078806" lon="13.537909386752835"><ele>457.99999999999994</ele><time>2026-04-18T08:48:41Z</time></trkpt><trkpt lat="42.94770092234318" lon="13.537962347790316"><ele>458.0</ele><time>2026-04-18T08:48:42.001Z</time></trkpt><trkpt lat="42.94777554282239" lon="13.537991507988268"><ele>455.59999999999997</ele><time>2026-04-18T08:48:43.001Z</time></trkpt><trkpt lat="42.94786141094361" lon="13.538013044315388"><ele>453.19999999999993</ele><time>2026-04-18T08:48:44.001Z</time></trkpt><trkpt lat="42.9479746602247" lon="13.538026488975339"><ele>450.8</ele><time>2026-04-18T08:48:45.001Z</time></trkpt><trkpt lat="42.948065615605366" lon="13.538000975165208"><ele>448.4</ele><time>2026-04-18T08:48:46.001Z</time></trkpt><trkpt lat="42.948154469592296" lon="13.537954887468118"><ele>446.0</ele><time>2026-04-18T08:48:47.001Z</time></trkpt><trkpt lat="42.9482522400813" lon="13.537917052352903"><ele>445.5</ele><time>2026-04-18T08:48:48.001Z</time></trkpt><trkpt lat="42.948354592972926" lon="13.537839089534435"><ele>445.0</ele><time>2026-04-18T08:48:49.001Z</time></trkpt><trkpt lat="42.94847091205646" lon="13.537767077383101"><ele>444.5</ele><time>2026-04-18T08:48:50.001Z</time></trkpt><trkpt lat="42.94856937774845" lon="13.537704675607905"><ele>444.0</ele><time>2026-04-18T08:48:51.001Z</time></trkpt><trkpt lat="42.948666233954484" lon="13.537672312026318"><ele>442.25</ele><time>2026-04-18T08:48:52.001Z</time></trkpt><trkpt lat="42.9487708938599" lon="13.537666576794326"><ele>440.5</ele><time>2026-04-18T08:48:53.001Z</time></trkpt><trkpt lat="42.948896841952795" lon="13.53766032535411"><ele>438.75</ele><time>2026-04-18T08:48:54.001Z</time></trkpt><trkpt lat="42.94901500511806" lon="13.537661551595958"><ele>437.0</ele><time>2026-04-18T08:48:55.001Z</time></trkpt><trkpt lat="42.94913234248338" lon="13.537664031223763"><ele>435.49999999999994</ele><time>2026-04-18T08:48:56.001Z</time></trkpt><trkpt lat="42.949232072201774" lon="13.537668516527344"><ele>434.0</ele><time>2026-04-18T08:48:57.001Z</time></trkpt><trkpt lat="42.94931337350404" lon="13.537696090900432"><ele>432.5</ele><time>2026-04-18T08:48:58.001Z</time></trkpt><trkpt lat="42.94938194594746" lon="13.537747726231721"><ele>431.0</ele><time>2026-04-18T08:48:59.001Z</time></trkpt><trkpt lat="42.94941786648251" lon="13.537852615821471"><ele>429.49999999999994</ele><time>2026-04-18T08:49:00.001Z</time></trkpt><trkpt lat="42.94946932982924" lon="13.537961687238827"><ele>428.0</ele><time>2026-04-18T08:49:01.001Z</time></trkpt><trkpt lat="42.949526516072716" lon="13.53809281893025"><ele>428.0</ele><time>2026-04-18T08:49:02.001Z</time></trkpt><trkpt lat="42.94958365084771" lon="13.538196957182373"><ele>427.99999999999994</ele><time>2026-04-18T08:49:03.001Z</time></trkpt><trkpt lat="42.94964232824468" lon="13.538258642163782"><ele>427.99999999999994</ele><time>2026-04-18T08:49:04.001Z</time></trkpt><trkpt lat="42.949690595621036" lon="13.538368668895606"><ele>428.0</ele><time>2026-04-18T08:49:06.001Z</time></trkpt><trkpt lat="42.94980217559796" lon="13.538327120511582"><ele>428.0</ele><time>2026-04-18T08:49:08.001Z</time></trkpt><trkpt lat="42.94989402836913" lon="13.538311127353083"><ele>428.0</ele><time>2026-04-18T08:49:09.001Z</time></trkpt><trkpt lat="42.949981764967625" lon="13.538317541992837"><ele>427.99999999999994</ele><time>2026-04-18T08:49:10.001Z</time></trkpt><trkpt lat="42.95008456678138" lon="13.53829028913557"><ele>427.99999999999994</ele><time>2026-04-18T08:49:11.001Z</time></trkpt><trkpt lat="42.950182849370705" lon="13.53826325852168"><ele>428.0</ele><time>2026-04-18T08:49:12.001Z</time></trkpt><trkpt lat="42.95027242359918" lon="13.538242831836618"><ele>428.0</ele><time>2026-04-18T08:49:13.001Z</time></trkpt><trkpt lat="42.95034919884851" lon="13.538204461874088"><ele>426.8333333333333</ele><time>2026-04-18T08:49:14.001Z</time></trkpt><trkpt lat="42.950414923245994" lon="13.538156096849596"><ele>425.66666666666663</ele><time>2026-04-18T08:49:15.001Z</time></trkpt><trkpt lat="42.95046826596189" lon="13.53808086779285"><ele>424.5</ele><time>2026-04-18T08:49:16.001Z</time></trkpt><trkpt lat="42.95050432061715" lon="13.537977141914489"><ele>423.33333333333337</ele><time>2026-04-18T08:49:17.001Z</time></trkpt><trkpt lat="42.95049920302435" lon="13.53785167785001"><ele>422.1666666666667</ele><time>2026-04-18T08:49:18.001Z</time></trkpt><trkpt lat="42.950504497127106" lon="13.53772543489258"><ele>421.0</ele><time>2026-04-18T08:49:19.001Z</time></trkpt><trkpt lat="42.95046649067585" lon="13.537598541302817"><ele>420.0</ele><time>2026-04-18T08:49:20.001Z</time></trkpt><trkpt lat="42.95043225947365" lon="13.537473104272863"><ele>419.0</ele><time>2026-04-18T08:49:21.001Z</time></trkpt><trkpt lat="42.95040295750267" lon="13.537362925461263"><ele>418.0</ele><time>2026-04-18T08:49:22.001Z</time></trkpt><trkpt lat="42.95034927643049" lon="13.537267196103794"><ele>417.0</ele><time>2026-04-18T08:49:23.001Z</time></trkpt><trkpt lat="42.950281585698306" lon="13.537178860554121"><ele>416.0</ele><time>2026-04-18T08:49:24.001Z</time></trkpt><trkpt lat="42.95020983017285" lon="13.537080037915262"><ele>416.49999999999994</ele><time>2026-04-18T08:49:25.001Z</time></trkpt><trkpt lat="42.95013232906457" lon="13.536966856112345"><ele>417.0</ele><time>2026-04-18T08:49:26.001Z</time></trkpt><trkpt lat="42.950062429184335" lon="13.53686338205804"><ele>417.5</ele><time>2026-04-18T08:49:27.001Z</time></trkpt><trkpt lat="42.95001683991976" lon="13.536769941609599"><ele>418.0</ele><time>2026-04-18T08:49:28.001Z</time></trkpt><trkpt lat="42.950020080135516" lon="13.536670386981843"><ele>418.49999999999994</ele><time>2026-04-18T08:49:29.001Z</time></trkpt><trkpt lat="42.95002845274125" lon="13.536579790552665"><ele>419.0</ele><time>2026-04-18T08:49:30.001Z</time></trkpt><trkpt lat="42.9500538618306" lon="13.536484462022337"><ele>417.85714285714283</ele><time>2026-04-18T08:49:31.001Z</time></trkpt><trkpt lat="42.95008254606218" lon="13.536390568033154"><ele>416.7142857142857</ele><time>2026-04-18T08:49:32.001Z</time></trkpt><trkpt lat="42.950111212315306" lon="13.536290016896917"><ele>415.57142857142856</ele><time>2026-04-18T08:49:33.001Z</time></trkpt><trkpt lat="42.95012705297738" lon="13.536192436781615"><ele>414.42857142857144</ele><time>2026-04-18T08:49:34.001Z</time></trkpt><trkpt lat="42.95015463815939" lon="13.536108258915291"><ele>413.2857142857143</ele><time>2026-04-18T08:49:35.002Z</time></trkpt><trkpt lat="42.95017955253718" lon="13.536027544898635"><ele>412.1428571428571</ele><time>2026-04-18T08:49:36.002Z</time></trkpt><trkpt lat="42.95020676439926" lon="13.5359497039732"><ele>411.0</ele><time>2026-04-18T08:49:37.002Z</time></trkpt><trkpt lat="42.950262638216806" lon="13.535830748515842"><ele>410.6</ele><time>2026-04-18T08:49:39.002Z</time></trkpt><trkpt lat="42.950395624901475" lon="13.535851452741916"><ele>410.20000000000005</ele><time>2026-04-18T08:49:43.002Z</time></trkpt><trkpt lat="42.95048847738218" lon="13.53587502901648"><ele>409.79999999999995</ele><time>2026-04-18T08:49:47.002Z</time></trkpt><trkpt lat="42.950556262588364" lon="13.535913522413779"><ele>409.4</ele><time>2026-04-18T08:49:48.002Z</time></trkpt><trkpt lat="42.950625332349844" lon="13.535959314894894"><ele>409.0</ele><time>2026-04-18T08:49:49.002Z</time></trkpt><trkpt lat="42.95070393733879" lon="13.53602432299848"><ele>409.00000000000006</ele><time>2026-04-18T08:49:50.002Z</time></trkpt><trkpt lat="42.950781181937664" lon="13.536078570191219"><ele>409.0</ele><time>2026-04-18T08:49:51.002Z</time></trkpt><trkpt lat="42.950854014459075" lon="13.536143717820979"><ele>409.0</ele><time>2026-04-18T08:49:52.002Z</time></trkpt><trkpt lat="42.95092487539257" lon="13.536201903216991"><ele>409.0</ele><time>2026-04-18T08:49:53.002Z</time></trkpt><trkpt lat="42.95099706807097" lon="13.536242419646612"><ele>409.00000000000006</ele><time>2026-04-18T08:49:54.002Z</time></trkpt><trkpt lat="42.95107984133049" lon="13.536255201272489"><ele>409.0</ele><time>2026-04-18T08:49:55.002Z</time></trkpt><trkpt lat="42.95116923847373" lon="13.536243473467428"><ele>409.0</ele><time>2026-04-18T08:49:56.002Z</time></trkpt><trkpt lat="42.95125543812775" lon="13.536193060624022"><ele>409.0</ele><time>2026-04-18T08:49:57.002Z</time></trkpt><trkpt lat="42.951337323371746" lon="13.536146101853054"><ele>409.0</ele><time>2026-04-18T08:49:58.002Z</time></trkpt><trkpt lat="42.95142730260619" lon="13.53608197569054"><ele>409.0</ele><time>2026-04-18T08:49:59.002Z</time></trkpt><trkpt lat="42.95152192607789" lon="13.536012092288594"><ele>409.0</ele><time>2026-04-18T08:50:00.002Z</time></trkpt><trkpt lat="42.95163823923198" lon="13.536008839603129"><ele>410.4</ele><time>2026-04-18T08:50:01.002Z</time></trkpt><trkpt lat="42.9517676010949" lon="13.536006930666337"><ele>411.79999999999995</ele><time>2026-04-18T08:50:02.002Z</time></trkpt><trkpt lat="42.951874380167695" lon="13.535980772348141"><ele>413.20000000000005</ele><time>2026-04-18T08:50:03.002Z</time></trkpt><trkpt lat="42.95196861246898" lon="13.535980171212076"><ele>414.6</ele><time>2026-04-18T08:50:04.002Z</time></trkpt><trkpt lat="42.9520519300978" lon="13.536010095807482"><ele>416.0</ele><time>2026-04-18T08:50:05.002Z</time></trkpt><trkpt lat="42.95211957312765" lon="13.536023567014867"><ele>416.0</ele><time>2026-04-18T08:50:06.002Z</time></trkpt><trkpt lat="42.95220184279802" lon="13.536157270337927"><ele>416.0</ele><time>2026-04-18T08:50:08.002Z</time></trkpt><trkpt lat="42.95223933571358" lon="13.53626255263037"><ele>416.0</ele><time>2026-04-18T08:50:09.002Z</time></trkpt><trkpt lat="42.95228021722991" lon="13.536383420727706"><ele>416.0</ele><time>2026-04-18T08:50:10.002Z</time></trkpt><trkpt lat="42.95232789406367" lon="13.536518943154286"><ele>416.0</ele><time>2026-04-18T08:50:11.002Z</time></trkpt><trkpt lat="42.9523788596345" lon="13.536661550360105"><ele>415.75</ele><time>2026-04-18T08:50:12.002Z</time></trkpt><trkpt lat="42.952434532609175" lon="13.536822614030877"><ele>415.5</ele><time>2026-04-18T08:50:13.002Z</time></trkpt><trkpt lat="42.9524891631637" lon="13.536992425932867"><ele>415.25</ele><time>2026-04-18T08:50:14.002Z</time></trkpt><trkpt lat="42.95253720916867" lon="13.537145683375412"><ele>415.0</ele><time>2026-04-18T08:50:15Z</time></trkpt><trkpt lat="42.95257449103961" lon="13.537268310345759"><ele>416.6</ele><time>2026-04-18T08:50:16Z</time></trkpt><trkpt lat="42.95263110059347" lon="13.537371922244864"><ele>418.2</ele><time>2026-04-18T08:50:17Z</time></trkpt><trkpt lat="42.95267284744397" lon="13.537483371000846"><ele>419.79999999999995</ele><time>2026-04-18T08:50:18Z</time></trkpt><trkpt lat="42.95273014800598" lon="13.53757650203673"><ele>421.4</ele><time>2026-04-18T08:50:19Z</time></trkpt><trkpt lat="42.95280775696222" lon="13.537659845720928"><ele>423.0</ele><time>2026-04-18T08:50:20Z</time></trkpt><trkpt lat="42.952892634202584" lon="13.537732968498428"><ele>423.0</ele><time>2026-04-18T08:50:21Z</time></trkpt><trkpt lat="42.95297733807575" lon="13.537810083455623"><ele>423.0</ele><time>2026-04-18T08:50:22Z</time></trkpt><trkpt lat="42.95306703613289" lon="13.537890354924496"><ele>423.0</ele><time>2026-04-18T08:50:23Z</time></trkpt><trkpt lat="42.95316251824919" lon="13.537971620617457"><ele>423.0</ele><time>2026-04-18T08:50:24Z</time></trkpt><trkpt lat="42.95325984641691" lon="13.538056762817185"><ele>423.0</ele><time>2026-04-18T08:50:25Z</time></trkpt><trkpt lat="42.95335689370925" lon="13.538146997036591"><ele>424.4</ele><time>2026-04-18T08:50:26Z</time></trkpt><trkpt lat="42.95345230806168" lon="13.538233533810248"><ele>425.79999999999995</ele><time>2026-04-18T08:50:27Z</time></trkpt><trkpt lat="42.953546427419596" lon="13.53832201783503"><ele>427.2</ele><time>2026-04-18T08:50:28Z</time></trkpt><trkpt lat="42.95363488356189" lon="13.538411419356574"><ele>428.6</ele><time>2026-04-18T08:50:29Z</time></trkpt><trkpt lat="42.95372349095684" lon="13.538497196991528"><ele>430.0</ele><time>2026-04-18T08:50:30Z</time></trkpt><trkpt lat="42.95380341775946" lon="13.538573415907717"><ele>430.0</ele><time>2026-04-18T08:50:31Z</time></trkpt><trkpt lat="42.95386691966509" lon="13.538624815358641"><ele>430.0</ele><time>2026-04-18T08:50:32Z</time></trkpt><trkpt lat="42.95392876325985" lon="13.538657287846329"><ele>430.0</ele><time>2026-04-18T08:50:33Z</time></trkpt><trkpt lat="42.953993761382876" lon="13.53866616138132"><ele>430.0</ele><time>2026-04-18T08:50:34Z</time></trkpt><trkpt lat="42.95406410915703" lon="13.53863397668772"><ele>430.0</ele><time>2026-04-18T08:50:35Z</time></trkpt><trkpt lat="42.95413746431283" lon="13.538614241444918"><ele>430.0</ele><time>2026-04-18T08:50:36Z</time></trkpt><trkpt lat="42.9542099761905" lon="13.538574628929728"><ele>430.0</ele><time>2026-04-18T08:50:37Z</time></trkpt><trkpt lat="42.954277051696735" lon="13.538514991211109"><ele>429.33333333333337</ele><time>2026-04-18T08:50:38Z</time></trkpt><trkpt lat="42.9543451152947" lon="13.538459967259202"><ele>428.6666666666667</ele><time>2026-04-18T08:50:39Z</time></trkpt><trkpt lat="42.95439687776418" lon="13.538364677121717"><ele>428.0</ele><time>2026-04-18T08:50:40Z</time></trkpt><trkpt lat="42.95443364394849" lon="13.53826378159374"><ele>427.33333333333337</ele><time>2026-04-18T08:50:41Z</time></trkpt><trkpt lat="42.95445050118576" lon="13.53817606703346"><ele>426.6666666666667</ele><time>2026-04-18T08:50:42Z</time></trkpt><trkpt lat="42.954464831483094" lon="13.538063177185036"><ele>426.0</ele><time>2026-04-18T08:50:43Z</time></trkpt><trkpt lat="42.95446953515638" lon="13.537926410705833"><ele>428.4</ele><time>2026-04-18T08:50:44Z</time></trkpt><trkpt lat="42.95446979514592" lon="13.537782559038558"><ele>430.8</ele><time>2026-04-18T08:50:45Z</time></trkpt><trkpt lat="42.954470112735955" lon="13.537660268107565"><ele>433.19999999999993</ele><time>2026-04-18T08:50:46Z</time></trkpt><trkpt lat="42.954477749183184" lon="13.537511990304127"><ele>435.59999999999997</ele><time>2026-04-18T08:50:47Z</time></trkpt><trkpt lat="42.95448386582261" lon="13.537362656300358"><ele>438.0</ele><time>2026-04-18T08:50:48Z</time></trkpt><trkpt lat="42.954495972567145" lon="13.537200704291601"><ele>439.75</ele><time>2026-04-18T08:50:49Z</time></trkpt><trkpt lat="42.95450777920617" lon="13.537033332952166"><ele>441.5</ele><time>2026-04-18T08:50:50Z</time></trkpt><trkpt lat="42.95452198144732" lon="13.53686425165848"><ele>443.25</ele><time>2026-04-18T08:50:51Z</time></trkpt><trkpt lat="42.95453741850554" lon="13.536697895725768"><ele>445.0</ele><time>2026-04-18T08:50:52Z</time></trkpt><trkpt lat="42.954555396444036" lon="13.536527725981802"><ele>445.0</ele><time>2026-04-18T08:50:53Z</time></trkpt><trkpt lat="42.95457350152519" lon="13.536361999221352"><ele>445.0</ele><time>2026-04-18T08:50:54Z</time></trkpt><trkpt lat="42.954592701448675" lon="13.53620754657144"><ele>445.0</ele><time>2026-04-18T08:50:55Z</time></trkpt><trkpt lat="42.954611737486374" lon="13.536045075698137"><ele>445.0</ele><time>2026-04-18T08:50:56Z</time></trkpt><trkpt lat="42.9546353800099" lon="13.535859021990781"><ele>445.25</ele><time>2026-04-18T08:50:57.001Z</time></trkpt><trkpt lat="42.95466059267311" lon="13.535659810793764"><ele>445.5</ele><time>2026-04-18T08:50:58.001Z</time></trkpt><trkpt lat="42.954680632119675" lon="13.53546219886835"><ele>445.75</ele><time>2026-04-18T08:50:59.001Z</time></trkpt><trkpt lat="42.95470421394662" lon="13.535258071895175"><ele>446.0</ele><time>2026-04-18T08:51:00.001Z</time></trkpt><trkpt lat="42.95472852976729" lon="13.535058400232153"><ele>447.0</ele><time>2026-04-18T08:51:01.001Z</time></trkpt><trkpt lat="42.954751809748956" lon="13.534861200920455"><ele>448.0</ele><time>2026-04-18T08:51:02.001Z</time></trkpt><trkpt lat="42.954772549590466" lon="13.534670811652939"><ele>449.0</ele><time>2026-04-18T08:51:03.001Z</time></trkpt><trkpt lat="42.954793103857256" lon="13.534484637381192"><ele>450.0</ele><time>2026-04-18T08:51:04.001Z</time></trkpt><trkpt lat="42.954817566289194" lon="13.534297828857094"><ele>450.75</ele><time>2026-04-18T08:51:05.001Z</time></trkpt><trkpt lat="42.954843890798216" lon="13.534113198913198"><ele>451.5</ele><time>2026-04-18T08:51:06.001Z</time></trkpt><trkpt lat="42.95486955517026" lon="13.533936843788007"><ele>452.25</ele><time>2026-04-18T08:51:07.001Z</time></trkpt><trkpt lat="42.954886927402384" lon="13.533761155204559"><ele>453.0</ele><time>2026-04-18T08:51:08.001Z</time></trkpt><trkpt lat="42.954896660908844" lon="13.533580279558786"><ele>455.5</ele><time>2026-04-18T08:51:09.001Z</time></trkpt><trkpt lat="42.954911182361776" lon="13.533389143811739"><ele>458.0</ele><time>2026-04-18T08:51:10.001Z</time></trkpt><trkpt lat="42.95492529179195" lon="13.53320523418185"><ele>460.5</ele><time>2026-04-18T08:51:11.001Z</time></trkpt><trkpt lat="42.954941131665905" lon="13.533022861444971"><ele>463.0</ele><time>2026-04-18T08:51:12.001Z</time></trkpt><trkpt lat="42.95495369317354" lon="13.532841775487645"><ele>465.25</ele><time>2026-04-18T08:51:13.001Z</time></trkpt><trkpt lat="42.954966010843236" lon="13.532659367319184"><ele>467.5</ele><time>2026-04-18T08:51:14.001Z</time></trkpt><trkpt lat="42.95498046459538" lon="13.532455888499886"><ele>469.75</ele><time>2026-04-18T08:51:15.001Z</time></trkpt><trkpt lat="42.95499305013012" lon="13.532268918840126"><ele>472.0</ele><time>2026-04-18T08:51:16.001Z</time></trkpt><trkpt lat="42.95500617742069" lon="13.532120243705577"><ele>474.0</ele><time>2026-04-18T08:51:17.001Z</time></trkpt><trkpt lat="42.955015933640716" lon="13.531978126816215"><ele>476.00000000000006</ele><time>2026-04-18T08:51:18.001Z</time></trkpt><trkpt lat="42.95503970937686" lon="13.531842573307767"><ele>478.00000000000006</ele><time>2026-04-18T08:51:19.001Z</time></trkpt><trkpt lat="42.95505931252956" lon="13.531704408292164"><ele>480.0</ele><time>2026-04-18T08:51:20.001Z</time></trkpt><trkpt lat="42.95507451204879" lon="13.531568601010694"><ele>482.0</ele><time>2026-04-18T08:51:21.001Z</time></trkpt><trkpt lat="42.95508281647439" lon="13.531439472965102"><ele>483.20000000000005</ele><time>2026-04-18T08:51:22.001Z</time></trkpt><trkpt lat="42.95507672645937" lon="13.531324640194594"><ele>484.40000000000003</ele><time>2026-04-18T08:51:23.001Z</time></trkpt><trkpt lat="42.95503349934548" lon="13.531215426728867"><ele>485.59999999999997</ele><time>2026-04-18T08:51:24.001Z</time></trkpt><trkpt lat="42.95498897340988" lon="13.531096555924222"><ele>486.79999999999995</ele><time>2026-04-18T08:51:25.001Z</time></trkpt><trkpt lat="42.954931844675215" lon="13.530972348799628"><ele>488.0</ele><time>2026-04-18T08:51:26.001Z</time></trkpt><trkpt lat="42.95486327006646" lon="13.530856719703909"><ele>488.0</ele><time>2026-04-18T08:51:27.001Z</time></trkpt><trkpt lat="42.95479667736606" lon="13.530739612304547"><ele>488.0</ele><time>2026-04-18T08:51:28.001Z</time></trkpt><trkpt lat="42.95471037637972" lon="13.530637984783144"><ele>488.0</ele><time>2026-04-18T08:51:29.001Z</time></trkpt><trkpt lat="42.954617611267366" lon="13.530519820635742"><ele>488.0</ele><time>2026-04-18T08:51:30.001Z</time></trkpt><trkpt lat="42.95452269261157" lon="13.530389512136228"><ele>489.3333333333333</ele><time>2026-04-18T08:51:31.001Z</time></trkpt><trkpt lat="42.95440852591474" lon="13.530231382687692"><ele>490.66666666666663</ele><time>2026-04-18T08:51:32.001Z</time></trkpt><trkpt lat="42.95428669794249" lon="13.530069489286117"><ele>492.0</ele><time>2026-04-18T08:51:33.001Z</time></trkpt><trkpt lat="42.95416440412156" lon="13.52991324976919"><ele>492.0</ele><time>2026-04-18T08:51:34.001Z</time></trkpt><trkpt lat="42.954061618469666" lon="13.529786768073828"><ele>492.0</ele><time>2026-04-18T08:51:35.001Z</time></trkpt><trkpt lat="42.953968655788195" lon="13.529663350187832"><ele>492.0</ele><time>2026-04-18T08:51:36.001Z</time></trkpt><trkpt lat="42.95390708663976" lon="13.52952993010146"><ele>492.0</ele><time>2026-04-18T08:51:37.001Z</time></trkpt><trkpt lat="42.95386250865798" lon="13.529429062927264"><ele>494.0</ele><time>2026-04-18T08:51:38.001Z</time></trkpt><trkpt lat="42.95381719419887" lon="13.529334963483102"><ele>496.00000000000006</ele><time>2026-04-18T08:51:39.001Z</time></trkpt><trkpt lat="42.953772721890296" lon="13.52922218182836"><ele>498.00000000000006</ele><time>2026-04-18T08:51:40.001Z</time></trkpt><trkpt lat="42.95371638106624" lon="13.529086993108654"><ele>500.0</ele><time>2026-04-18T08:51:41.001Z</time></trkpt><trkpt lat="42.953651633144595" lon="13.528967103555182"><ele>502.0</ele><time>2026-04-18T08:51:42.001Z</time></trkpt><trkpt lat="42.9536172955411" lon="13.528851553367842"><ele>502.00000000000006</ele><time>2026-04-18T08:51:43.001Z</time></trkpt><trkpt lat="42.95359970754222" lon="13.528759340584912"><ele>502.0</ele><time>2026-04-18T08:51:44.001Z</time></trkpt><trkpt lat="42.953590157781036" lon="13.52865560399753"><ele>502.0</ele><time>2026-04-18T08:51:45.001Z</time></trkpt><trkpt lat="42.95359669747185" lon="13.52854190592232"><ele>502.0</ele><time>2026-04-18T08:51:46.001Z</time></trkpt><trkpt lat="42.95360477550151" lon="13.528415213142056"><ele>502.00000000000006</ele><time>2026-04-18T08:51:47.002Z</time></trkpt><trkpt lat="42.953612177988035" lon="13.528270548132657"><ele>502.0</ele><time>2026-04-18T08:51:48.002Z</time></trkpt><trkpt lat="42.95360668614652" lon="13.528114947010874"><ele>505.25</ele><time>2026-04-18T08:51:49.002Z</time></trkpt><trkpt lat="42.953602481713915" lon="13.527958538251404"><ele>508.5</ele><time>2026-04-18T08:51:50.002Z</time></trkpt><trkpt lat="42.9535863635576" lon="13.527813831802089"><ele>511.75</ele><time>2026-04-18T08:51:51.002Z</time></trkpt><trkpt lat="42.953549669889064" lon="13.527671631632465"><ele>515.0</ele><time>2026-04-18T08:51:52.002Z</time></trkpt><trkpt lat="42.953495479497484" lon="13.527501469801965"><ele>514.25</ele><time>2026-04-18T08:51:53.002Z</time></trkpt><trkpt lat="42.953424961259984" lon="13.52732122053474"><ele>513.5</ele><time>2026-04-18T08:51:54.002Z</time></trkpt><trkpt lat="42.95335900472538" lon="13.52715382554512"><ele>512.75</ele><time>2026-04-18T08:51:55.002Z</time></trkpt><trkpt lat="42.953306290358015" lon="13.527017080832714"><ele>512.0</ele><time>2026-04-18T08:51:56.002Z</time></trkpt><trkpt lat="42.95325126141557" lon="13.526852169073132"><ele>514.5</ele><time>2026-04-18T08:51:57.002Z</time></trkpt><trkpt lat="42.95321474664633" lon="13.526698362564778"><ele>517.0</ele><time>2026-04-18T08:51:58.002Z</time></trkpt><trkpt lat="42.95318905104471" lon="13.526542587263958"><ele>519.5</ele><time>2026-04-18T08:51:59.002Z</time></trkpt><trkpt lat="42.953173417490376" lon="13.526390921508192"><ele>522.0</ele><time>2026-04-18T08:52:00.002Z</time></trkpt><trkpt lat="42.95315843676662" lon="13.526231813164278"><ele>523.5</ele><time>2026-04-18T08:52:01.002Z</time></trkpt><trkpt lat="42.953156661772994" lon="13.526047935744916"><ele>525.0</ele><time>2026-04-18T08:52:02.002Z</time></trkpt><trkpt lat="42.95315809851546" lon="13.525855691660666"><ele>526.5</ele><time>2026-04-18T08:52:03.002Z</time></trkpt><trkpt lat="42.95316518257428" lon="13.525654113103847"><ele>528.0</ele><time>2026-04-18T08:52:04.002Z</time></trkpt><trkpt lat="42.95317146549558" lon="13.525454688203535"><ele>530.25</ele><time>2026-04-18T08:52:05.002Z</time></trkpt><trkpt lat="42.95317475416131" lon="13.525272981294645"><ele>532.5</ele><time>2026-04-18T08:52:06.002Z</time></trkpt><trkpt lat="42.953173960243376" lon="13.525102986690337"><ele>534.75</ele><time>2026-04-18T08:52:07.002Z</time></trkpt><trkpt lat="42.95317270094658" lon="13.524924034406991"><ele>537.0</ele><time>2026-04-18T08:52:08.002Z</time></trkpt><trkpt lat="42.95317538615555" lon="13.524750310828853"><ele>537.0</ele><time>2026-04-18T08:52:09.002Z</time></trkpt><trkpt lat="42.95317329641254" lon="13.524590094341436"><ele>537.0</ele><time>2026-04-18T08:52:10.002Z</time></trkpt><trkpt lat="42.9531738353381" lon="13.524435249442318"><ele>537.0</ele><time>2026-04-18T08:52:11.002Z</time></trkpt><trkpt lat="42.95317750390212" lon="13.524274452256293"><ele>537.0</ele><time>2026-04-18T08:52:12.002Z</time></trkpt><trkpt lat="42.95318058624077" lon="13.52411289460159"><ele>538.75</ele><time>2026-04-18T08:52:13.002Z</time></trkpt><trkpt lat="42.953183554291506" lon="13.52392611290747"><ele>540.5</ele><time>2026-04-18T08:52:14.002Z</time></trkpt><trkpt lat="42.95319067343326" lon="13.523727646190311"><ele>542.25</ele><time>2026-04-18T08:52:15.002Z</time></trkpt><trkpt lat="42.953198438886105" lon="13.523559069138843"><ele>544.0</ele><time>2026-04-18T08:52:16.002Z</time></trkpt><trkpt lat="42.953198942707225" lon="13.523437135366084"><ele>544.6666666666667</ele><time>2026-04-18T08:52:17.002Z</time></trkpt><trkpt lat="42.9532343374507" lon="13.52327981824862"><ele>545.3333333333334</ele><time>2026-04-18T08:52:19.002Z</time></trkpt><trkpt lat="42.953343696069155" lon="13.523261911659251"><ele>546.0</ele><time>2026-04-18T08:52:21Z</time></trkpt><trkpt lat="42.95339730138481" lon="13.5233198493072"><ele>546.6666666666666</ele><time>2026-04-18T08:52:22Z</time></trkpt><trkpt lat="42.95344958676587" lon="13.52336920206939"><ele>547.3333333333333</ele><time>2026-04-18T08:52:23Z</time></trkpt><trkpt lat="42.953516506359186" lon="13.523429729398675"><ele>548.0</ele><time>2026-04-18T08:52:24Z</time></trkpt><trkpt lat="42.953616638506425" lon="13.523518572775258"><ele>548.6</ele><time>2026-04-18T08:52:25Z</time></trkpt><trkpt lat="42.95372493286716" lon="13.523629120331528"><ele>549.1999999999999</ele><time>2026-04-18T08:52:26Z</time></trkpt><trkpt lat="42.953821578966945" lon="13.523722584927718"><ele>549.8</ele><time>2026-04-18T08:52:27Z</time></trkpt><trkpt lat="42.9538946562355" lon="13.523783260479538"><ele>550.4</ele><time>2026-04-18T08:52:28Z</time></trkpt><trkpt lat="42.95396524329707" lon="13.523795934472306"><ele>551.0</ele><time>2026-04-18T08:52:29Z</time></trkpt><trkpt lat="42.95405913003091" lon="13.523793192646325"><ele>551.0</ele><time>2026-04-18T08:52:31Z</time></trkpt><trkpt lat="42.95409327717398" lon="13.52370053476328"><ele>551.0</ele><time>2026-04-18T08:52:33Z</time></trkpt><trkpt lat="42.95407427464667" lon="13.523572777918377"><ele>551.0</ele><time>2026-04-18T08:52:35Z</time></trkpt><trkpt lat="42.954030591541255" lon="13.523494055344397"><ele>551.0</ele><time>2026-04-18T08:52:36Z</time></trkpt><trkpt lat="42.95397357398664" lon="13.523385644746767"><ele>551.0</ele><time>2026-04-18T08:52:37Z</time></trkpt><trkpt lat="42.95391868271901" lon="13.523268455367642"><ele>551.0</ele><time>2026-04-18T08:52:38Z</time></trkpt><trkpt lat="42.953851833714936" lon="13.523117592991692"><ele>551.0</ele><time>2026-04-18T08:52:39Z</time></trkpt><trkpt lat="42.9537745827648" lon="13.522948454249311"><ele>551.0</ele><time>2026-04-18T08:52:40Z</time></trkpt><trkpt lat="42.95369692272183" lon="13.522764272070697"><ele>551.0</ele><time>2026-04-18T08:52:41Z</time></trkpt><trkpt lat="42.9536028867594" lon="13.522543359533811"><ele>550.3333333333333</ele><time>2026-04-18T08:52:42Z</time></trkpt><trkpt lat="42.95350704246535" lon="13.522324827984288"><ele>549.6666666666666</ele><time>2026-04-18T08:52:43Z</time></trkpt><trkpt lat="42.953405867858386" lon="13.522094030591205"><ele>549.0</ele><time>2026-04-18T08:52:44Z</time></trkpt><trkpt lat="42.95330117094393" lon="13.521861730955258"><ele>550.3333333333334</ele><time>2026-04-18T08:52:45Z</time></trkpt><trkpt lat="42.953201393661224" lon="13.521634940631001"><ele>551.6666666666667</ele><time>2026-04-18T08:52:46Z</time></trkpt><trkpt lat="42.953104207388236" lon="13.521415894399018"><ele>553.0</ele><time>2026-04-18T08:52:47Z</time></trkpt><trkpt lat="42.95301455631282" lon="13.521222956458192"><ele>553.0</ele><time>2026-04-18T08:52:48Z</time></trkpt><trkpt lat="42.95293720355988" lon="13.521045910763627"><ele>553.0</ele><time>2026-04-18T08:52:49Z</time></trkpt><trkpt lat="42.95286744596048" lon="13.520892771228871"><ele>553.0</ele><time>2026-04-18T08:52:50Z</time></trkpt><trkpt lat="42.952806139953275" lon="13.520752217419226"><ele>553.0</ele><time>2026-04-18T08:52:51Z</time></trkpt><trkpt lat="42.95274802716971" lon="13.520629817295877"><ele>553.0</ele><time>2026-04-18T08:52:52Z</time></trkpt><trkpt lat="42.952690960526034" lon="13.520506027495994"><ele>553.0</ele><time>2026-04-18T08:52:53Z</time></trkpt><trkpt lat="42.95262670021289" lon="13.520373314790746"><ele>553.0</ele><time>2026-04-18T08:52:54Z</time></trkpt><trkpt lat="42.95255656977219" lon="13.520240974842157"><ele>553.0</ele><time>2026-04-18T08:52:55Z</time></trkpt><trkpt lat="42.95248282595717" lon="13.520071517287455"><ele>555.5</ele><time>2026-04-18T08:52:56Z</time></trkpt><trkpt lat="42.9524025590421" lon="13.519891668720241"><ele>558.0</ele><time>2026-04-18T08:52:57.001Z</time></trkpt><trkpt lat="42.95231827646642" lon="13.519705605070323"><ele>560.5</ele><time>2026-04-18T08:52:58.001Z</time></trkpt><trkpt lat="42.95225098630768" lon="13.519549831683591"><ele>563.0</ele><time>2026-04-18T08:52:59.001Z</time></trkpt><trkpt lat="42.95219668345305" lon="13.519418993496169"><ele>563.0</ele><time>2026-04-18T08:53:00.001Z</time></trkpt><trkpt lat="42.95215254059" lon="13.519301637655472"><ele>563.0</ele><time>2026-04-18T08:53:01.001Z</time></trkpt><trkpt lat="42.95210880610965" lon="13.519191340121889"><ele>563.0</ele><time>2026-04-18T08:53:02.001Z</time></trkpt><trkpt lat="42.95207006204321" lon="13.519093920964197"><ele>563.0</ele><time>2026-04-18T08:53:03.001Z</time></trkpt><trkpt lat="42.95204763611007" lon="13.519004765033127"><ele>563.0</ele><time>2026-04-18T08:53:04.001Z</time></trkpt><trkpt lat="42.9520495281428" lon="13.518898463085108"><ele>563.0</ele><time>2026-04-18T08:53:05.001Z</time></trkpt><trkpt lat="42.952060238249" lon="13.518796441947925"><ele>562.6</ele><time>2026-04-18T08:53:06.001Z</time></trkpt><trkpt lat="42.95207628411356" lon="13.518691322105784"><ele>562.1999999999999</ele><time>2026-04-18T08:53:07.001Z</time></trkpt><trkpt lat="42.95210207416674" lon="13.51858177611783"><ele>561.8</ele><time>2026-04-18T08:53:08.001Z</time></trkpt><trkpt lat="42.95213731549893" lon="13.518469520131656"><ele>561.4</ele><time>2026-04-18T08:53:09.001Z</time></trkpt><trkpt lat="42.95216650998348" lon="13.518339231581761"><ele>561.0</ele><time>2026-04-18T08:53:10.001Z</time></trkpt><trkpt lat="42.95222953236037" lon="13.518219098423465"><ele>561.0</ele><time>2026-04-18T08:53:11.001Z</time></trkpt><trkpt lat="42.95228549097102" lon="13.518091609709783"><ele>561.0</ele><time>2026-04-18T08:53:12.001Z</time></trkpt><trkpt lat="42.95234559912049" lon="13.51795767347258"><ele>561.0</ele><time>2026-04-18T08:53:13.001Z</time></trkpt><trkpt lat="42.95240837921841" lon="13.517817464287257"><ele>561.0</ele><time>2026-04-18T08:53:14.001Z</time></trkpt><trkpt lat="42.95246996199325" lon="13.517680430286033"><ele>558.4</ele><time>2026-04-18T08:53:15.001Z</time></trkpt><trkpt lat="42.95252576965548" lon="13.517564196522521"><ele>555.8</ele><time>2026-04-18T08:53:16.001Z</time></trkpt><trkpt lat="42.952581671646485" lon="13.517447122727962"><ele>553.1999999999999</ele><time>2026-04-18T08:53:17.001Z</time></trkpt><trkpt lat="42.95262551928601" lon="13.5173324669445"><ele>550.6</ele><time>2026-04-18T08:53:18.001Z</time></trkpt><trkpt lat="42.952645520539456" lon="13.517228143063626"><ele>548.0</ele><time>2026-04-18T08:53:19.001Z</time></trkpt><trkpt lat="42.952651756896806" lon="13.5171138365876"><ele>549.1666666666666</ele><time>2026-04-18T08:53:20.001Z</time></trkpt><trkpt lat="42.95263949636153" lon="13.516991694231843"><ele>550.3333333333333</ele><time>2026-04-18T08:53:21.001Z</time></trkpt><trkpt lat="42.952605143620524" lon="13.516874511295349"><ele>551.5</ele><time>2026-04-18T08:53:22.001Z</time></trkpt><trkpt lat="42.9525660872978" lon="13.516763574741224"><ele>552.6666666666666</ele><time>2026-04-18T08:53:23.001Z</time></trkpt><trkpt lat="42.95253027117766" lon="13.516653455383214"><ele>553.8333333333334</ele><time>2026-04-18T08:53:24.001Z</time></trkpt><trkpt lat="42.95249423682761" lon="13.516575802403922"><ele>555.0</ele><time>2026-04-18T08:53:25.001Z</time></trkpt><trkpt lat="42.95246665498232" lon="13.516496151403059"><ele>556.6</ele><time>2026-04-18T08:53:26.001Z</time></trkpt><trkpt lat="42.952461049153726" lon="13.516382368938048"><ele>558.2</ele><time>2026-04-18T08:53:28.001Z</time></trkpt><trkpt lat="42.95252304332639" lon="13.516218608870446"><ele>559.8</ele><time>2026-04-18T08:53:30.001Z</time></trkpt><trkpt lat="42.9525677561502" lon="13.516082276855466"><ele>561.4</ele><time>2026-04-18T08:53:31.001Z</time></trkpt><trkpt lat="42.95263696285175" lon="13.515950728577566"><ele>563.0</ele><time>2026-04-18T08:53:32.001Z</time></trkpt><trkpt lat="42.95270468235889" lon="13.515793289884328"><ele>563.0</ele><time>2026-04-18T08:53:33.001Z</time></trkpt><trkpt lat="42.95277754500848" lon="13.515654460672058"><ele>563.0</ele><time>2026-04-18T08:53:34.001Z</time></trkpt><trkpt lat="42.95285365509101" lon="13.515526768926268"><ele>563.0</ele><time>2026-04-18T08:53:35.001Z</time></trkpt><trkpt lat="42.952951940149724" lon="13.515402337851002"><ele>563.0</ele><time>2026-04-18T08:53:36.001Z</time></trkpt><trkpt lat="42.95304450825233" lon="13.515306305239063"><ele>563.25</ele><time>2026-04-18T08:53:37.001Z</time></trkpt><trkpt lat="42.95314313669636" lon="13.515197874282949"><ele>563.5</ele><time>2026-04-18T08:53:38.001Z</time></trkpt><trkpt lat="42.95324015828396" lon="13.515053811143263"><ele>563.75</ele><time>2026-04-18T08:53:39.001Z</time></trkpt><trkpt lat="42.95333776942055" lon="13.51493644879741"><ele>564.0</ele><time>2026-04-18T08:53:40.001Z</time></trkpt><trkpt lat="42.95344434418845" lon="13.514844836068244"><ele>564.0</ele><time>2026-04-18T08:53:41.001Z</time></trkpt><trkpt lat="42.953530228340036" lon="13.514769684726655"><ele>564.0</ele><time>2026-04-18T08:53:42.001Z</time></trkpt><trkpt lat="42.95362592774011" lon="13.514707060779635"><ele>564.0</ele><time>2026-04-18T08:53:43.001Z</time></trkpt><trkpt lat="42.953719773792876" lon="13.514636941765026"><ele>564.0</ele><time>2026-04-18T08:53:44.001Z</time></trkpt><trkpt lat="42.95381214702205" lon="13.51455536489277"><ele>564.0</ele><time>2026-04-18T08:53:45.001Z</time></trkpt><trkpt lat="42.953886183253225" lon="13.51448560731073"><ele>565.8</ele><time>2026-04-18T08:53:46.001Z</time></trkpt><trkpt lat="42.9539259293724" lon="13.514385457160154"><ele>567.5999999999999</ele><time>2026-04-18T08:53:47.001Z</time></trkpt><trkpt lat="42.95393116819148" lon="13.514284090804852"><ele>569.4</ele><time>2026-04-18T08:53:48.001Z</time></trkpt><trkpt lat="42.953948005599315" lon="13.514160192258926"><ele>571.1999999999999</ele><time>2026-04-18T08:53:49.002Z</time></trkpt><trkpt lat="42.95396928209662" lon="13.51401547590318"><ele>573.0</ele><time>2026-04-18T08:53:50.002Z</time></trkpt><trkpt lat="42.95400842044208" lon="13.513864922055934"><ele>576.25</ele><time>2026-04-18T08:53:51.002Z</time></trkpt><trkpt lat="42.9540303976624" lon="13.51369105630621"><ele>579.5</ele><time>2026-04-18T08:53:52.002Z</time></trkpt><trkpt lat="42.95406153164076" lon="13.513508296062758"><ele>582.75</ele><time>2026-04-18T08:53:53.002Z</time></trkpt><trkpt lat="42.95408834375806" lon="13.513356593964781"><ele>586.0</ele><time>2026-04-18T08:53:54.002Z</time></trkpt><trkpt lat="42.95411856920432" lon="13.51321605841259"><ele>586.0</ele><time>2026-04-18T08:53:55.002Z</time></trkpt><trkpt lat="42.954153093526905" lon="13.513073830317545"><ele>586.0</ele><time>2026-04-18T08:53:56.002Z</time></trkpt><trkpt lat="42.95421164883872" lon="13.512965915569621"><ele>586.0</ele><time>2026-04-18T08:53:57.002Z</time></trkpt><trkpt lat="42.95427456443971" lon="13.512872347939053"><ele>586.0</ele><time>2026-04-18T08:53:58.002Z</time></trkpt><trkpt lat="42.9543374244503" lon="13.512804128606138"><ele>586.0</ele><time>2026-04-18T08:53:59.002Z</time></trkpt><trkpt lat="42.95440648158591" lon="13.512759196523868"><ele>585.8</ele><time>2026-04-18T08:54:00.002Z</time></trkpt><trkpt lat="42.95448795461025" lon="13.512717113001523"><ele>585.6</ele><time>2026-04-18T08:54:01.002Z</time></trkpt><trkpt lat="42.95457574414169" lon="13.512658043849088"><ele>585.4</ele><time>2026-04-18T08:54:02.002Z</time></trkpt><trkpt lat="42.95466856611641" lon="13.512593176520431"><ele>585.2</ele><time>2026-04-18T08:54:03.002Z</time></trkpt><trkpt lat="42.95476183592948" lon="13.512515013624915"><ele>585.0</ele><time>2026-04-18T08:54:04.002Z</time></trkpt><trkpt lat="42.95484674312971" lon="13.512424087822719"><ele>585.0</ele><time>2026-04-18T08:54:05.002Z</time></trkpt><trkpt lat="42.954918155311724" lon="13.512336546065267"><ele>585.0</ele><time>2026-04-18T08:54:06.002Z</time></trkpt><trkpt lat="42.95498817331492" lon="13.512253640208923"><ele>585.0</ele><time>2026-04-18T08:54:07.002Z</time></trkpt><trkpt lat="42.955044410787664" lon="13.512162152871376"><ele>585.0</ele><time>2026-04-18T08:54:08.002Z</time></trkpt><trkpt lat="42.95508975541837" lon="13.512084172192928"><ele>585.0</ele><time>2026-04-18T08:54:09.002Z</time></trkpt><trkpt lat="42.955122418650205" lon="13.511995807876866"><ele>585.0</ele><time>2026-04-18T08:54:10.002Z</time></trkpt><trkpt lat="42.955151031500954" lon="13.511875743181715"><ele>584.1666666666666</ele><time>2026-04-18T08:54:11.002Z</time></trkpt><trkpt lat="42.95516409106" lon="13.511755383676219"><ele>583.3333333333334</ele><time>2026-04-18T08:54:12.002Z</time></trkpt><trkpt lat="42.955180511843764" lon="13.511638864370015"><ele>582.5</ele><time>2026-04-18T08:54:13.002Z</time></trkpt><trkpt lat="42.95515926449672" lon="13.511512439618949"><ele>581.6666666666667</ele><time>2026-04-18T08:54:14.002Z</time></trkpt><trkpt lat="42.95513803181793" lon="13.511384875863042"><ele>580.8333333333334</ele><time>2026-04-18T08:54:15.002Z</time></trkpt><trkpt lat="42.95510484191591" lon="13.511301104560157"><ele>580.0</ele><time>2026-04-18T08:54:16.002Z</time></trkpt><trkpt lat="42.95504530089625" lon="13.511167135459445"><ele>582.1666666666667</ele><time>2026-04-18T08:54:18.002Z</time></trkpt><trkpt lat="42.9549846776912" lon="13.511119550788248"><ele>584.3333333333334</ele><time>2026-04-18T08:54:19.002Z</time></trkpt><trkpt lat="42.95491632137059" lon="13.511071174331626"><ele>586.5</ele><time>2026-04-18T08:54:20.002Z</time></trkpt><trkpt lat="42.95483854100033" lon="13.51100364573201"><ele>588.6666666666666</ele><time>2026-04-18T08:54:21.002Z</time></trkpt><trkpt lat="42.954765657472606" lon="13.510928639426375"><ele>590.8333333333333</ele><time>2026-04-18T08:54:22.002Z</time></trkpt><trkpt lat="42.95468593305599" lon="13.510830543479312"><ele>593.0</ele><time>2026-04-18T08:54:23.002Z</time></trkpt><trkpt lat="42.954617773949295" lon="13.51072047339033"><ele>593.0</ele><time>2026-04-18T08:54:24.002Z</time></trkpt><trkpt lat="42.95456022122856" lon="13.510603414027619"><ele>593.0</ele><time>2026-04-18T08:54:25.002Z</time></trkpt><trkpt lat="42.95451774256429" lon="13.510483062916663"><ele>593.0</ele><time>2026-04-18T08:54:26.002Z</time></trkpt><trkpt lat="42.954465992256345" lon="13.51033020802167"><ele>593.0</ele><time>2026-04-18T08:54:27Z</time></trkpt><trkpt lat="42.95440786520455" lon="13.510174836130002"><ele>593.25</ele><time>2026-04-18T08:54:28Z</time></trkpt><trkpt lat="42.95434707903803" lon="13.510015756896264"><ele>593.5</ele><time>2026-04-18T08:54:29Z</time></trkpt><trkpt lat="42.954284510462514" lon="13.509841366012981"><ele>593.75</ele><time>2026-04-18T08:54:30Z</time></trkpt><trkpt lat="42.95424291008186" lon="13.50968236373163"><ele>594.0</ele><time>2026-04-18T08:54:31Z</time></trkpt><trkpt lat="42.95419792447843" lon="13.509533143946452"><ele>596.6</ele><time>2026-04-18T08:54:32Z</time></trkpt><trkpt lat="42.95414520176051" lon="13.509402958975121"><ele>599.2</ele><time>2026-04-18T08:54:33Z</time></trkpt><trkpt lat="42.95408673240114" lon="13.509284360425339"><ele>601.8000000000001</ele><time>2026-04-18T08:54:34Z</time></trkpt><trkpt lat="42.95401448038743" lon="13.509179875689846"><ele>604.4</ele><time>2026-04-18T08:54:35Z</time></trkpt><trkpt lat="42.953930394837585" lon="13.509106568868548"><ele>607.0</ele><time>2026-04-18T08:54:36Z</time></trkpt><trkpt lat="42.95383284283494" lon="13.509041844413694"><ele>607.0</ele><time>2026-04-18T08:54:37Z</time></trkpt><trkpt lat="42.953728233051464" lon="13.50897737340747"><ele>607.0</ele><time>2026-04-18T08:54:38Z</time></trkpt><trkpt lat="42.95360534732636" lon="13.508912948184243"><ele>607.0</ele><time>2026-04-18T08:54:39Z</time></trkpt><trkpt lat="42.95347847689439" lon="13.508838496229446"><ele>607.0</ele><time>2026-04-18T08:54:40Z</time></trkpt><trkpt lat="42.95334243959097" lon="13.5087554727369"><ele>607.5</ele><time>2026-04-18T08:54:41Z</time></trkpt><trkpt lat="42.953213490110436" lon="13.50866855104168"><ele>608.0</ele><time>2026-04-18T08:54:42Z</time></trkpt><trkpt lat="42.95312320580594" lon="13.508571566976775"><ele>608.5</ele><time>2026-04-18T08:54:43Z</time></trkpt><trkpt lat="42.95303821358425" lon="13.508477633973484"><ele>609.0</ele><time>2026-04-18T08:54:44Z</time></trkpt><trkpt lat="42.95296338912105" lon="13.508378859765783"><ele>609.0</ele><time>2026-04-18T08:54:45Z</time></trkpt><trkpt lat="42.95288653626827" lon="13.508269717578358"><ele>609.0</ele><time>2026-04-18T08:54:46Z</time></trkpt><trkpt lat="42.95280308255655" lon="13.508148316845634"><ele>609.0</ele><time>2026-04-18T08:54:47Z</time></trkpt><trkpt lat="42.95271827342557" lon="13.508011415602969"><ele>609.0</ele><time>2026-04-18T08:54:48Z</time></trkpt><trkpt lat="42.952629209877905" lon="13.507870630136098"><ele>613.0</ele><time>2026-04-18T08:54:49Z</time></trkpt><trkpt lat="42.95253537861356" lon="13.507725685657624"><ele>617.0</ele><time>2026-04-18T08:54:50Z</time></trkpt><trkpt lat="42.952440523499135" lon="13.50757533751299"><ele>621.0</ele><time>2026-04-18T08:54:51Z</time></trkpt><trkpt lat="42.95235137879494" lon="13.507416861515587"><ele>625.0</ele><time>2026-04-18T08:54:52Z</time></trkpt><trkpt lat="42.95226307949401" lon="13.507255472325369"><ele>625.0</ele><time>2026-04-18T08:54:53Z</time></trkpt><trkpt lat="42.95216897506803" lon="13.50708565035749"><ele>625.0</ele><time>2026-04-18T08:54:54Z</time></trkpt><trkpt lat="42.95208330750564" lon="13.506935205808142"><ele>625.0</ele><time>2026-04-18T08:54:55Z</time></trkpt><trkpt lat="42.95199852610956" lon="13.506792655584631"><ele>625.0</ele><time>2026-04-18T08:54:56Z</time></trkpt><trkpt lat="42.95190380072461" lon="13.506670000051368"><ele>624.0</ele><time>2026-04-18T08:54:57.001Z</time></trkpt><trkpt lat="42.951818453788036" lon="13.506536656500144"><ele>623.0</ele><time>2026-04-18T08:54:58.001Z</time></trkpt><trkpt lat="42.9517206455659" lon="13.50640430270577"><ele>622.0</ele><time>2026-04-18T08:54:59.001Z</time></trkpt><trkpt lat="42.95162752134483" lon="13.506294936653534"><ele>621.0</ele><time>2026-04-18T08:55:00.001Z</time></trkpt><trkpt lat="42.951534416848475" lon="13.506186922945751"><ele>621.0</ele><time>2026-04-18T08:55:01.001Z</time></trkpt><trkpt lat="42.95143270951135" lon="13.506075248890676"><ele>621.0</ele><time>2026-04-18T08:55:02.001Z</time></trkpt><trkpt lat="42.951333286096634" lon="13.505973689434118"><ele>621.0</ele><time>2026-04-18T08:55:03.001Z</time></trkpt><trkpt lat="42.95127974824015" lon="13.505850635766404"><ele>621.0</ele><time>2026-04-18T08:55:04.001Z</time></trkpt><trkpt lat="42.9512322989927" lon="13.505746923232135"><ele>621.0</ele><time>2026-04-18T08:55:05.001Z</time></trkpt><trkpt lat="42.95121720964011" lon="13.505645279719966"><ele>621.0</ele><time>2026-04-18T08:55:06.001Z</time></trkpt><trkpt lat="42.951219715568264" lon="13.505479684835384"><ele>621.0</ele><time>2026-04-18T08:55:08.001Z</time></trkpt><trkpt lat="42.9512196570837" lon="13.505344425429062"><ele>621.0</ele><time>2026-04-18T08:55:11.001Z</time></trkpt><trkpt lat="42.95122934563834" lon="13.505146830409588"><ele>621.0</ele><time>2026-04-18T08:55:13.001Z</time></trkpt><trkpt lat="42.95123718541673" lon="13.505023839187816"><ele>621.5</ele><time>2026-04-18T08:55:14.001Z</time></trkpt><trkpt lat="42.951249136121845" lon="13.504863437297121"><ele>622.0</ele><time>2026-04-18T08:55:15.001Z</time></trkpt><trkpt lat="42.95126144540642" lon="13.50467886933512"><ele>622.5</ele><time>2026-04-18T08:55:16.001Z</time></trkpt><trkpt lat="42.951271767273504" lon="13.504510204529458"><ele>623.0</ele><time>2026-04-18T08:55:17.001Z</time></trkpt><trkpt lat="42.95128777420228" lon="13.504314157275108"><ele>624.0</ele><time>2026-04-18T08:55:18.001Z</time></trkpt><trkpt lat="42.9513002184312" lon="13.504099253301625"><ele>625.0</ele><time>2026-04-18T08:55:19.001Z</time></trkpt><trkpt lat="42.95131884681705" lon="13.503888708735118"><ele>626.0</ele><time>2026-04-18T08:55:20.001Z</time></trkpt><trkpt lat="42.95133631515665" lon="13.5036920260188"><ele>626.0</ele><time>2026-04-18T08:55:21.001Z</time></trkpt><trkpt lat="42.95134973518314" lon="13.503503890957127"><ele>626.0</ele><time>2026-04-18T08:55:22.001Z</time></trkpt><trkpt lat="42.9513647642342" lon="13.503315397661765"><ele>626.0</ele><time>2026-04-18T08:55:23.001Z</time></trkpt><trkpt lat="42.95137671403351" lon="13.503128016220927"><ele>626.0</ele><time>2026-04-18T08:55:24.001Z</time></trkpt><trkpt lat="42.951388695985145" lon="13.502936260311586"><ele>625.25</ele><time>2026-04-18T08:55:25.001Z</time></trkpt><trkpt lat="42.95140409342124" lon="13.502754380095288"><ele>624.5</ele><time>2026-04-18T08:55:26.001Z</time></trkpt><trkpt lat="42.951421146121085" lon="13.50259517142283"><ele>623.75</ele><time>2026-04-18T08:55:27.001Z</time></trkpt><trkpt lat="42.95145300752199" lon="13.502429461201084"><ele>623.0</ele><time>2026-04-18T08:55:28.001Z</time></trkpt><trkpt lat="42.95151088210577" lon="13.502285724947694"><ele>623.0</ele><time>2026-04-18T08:55:29.001Z</time></trkpt><trkpt lat="42.95156714825825" lon="13.50214133256439"><ele>623.0</ele><time>2026-04-18T08:55:30.001Z</time></trkpt><trkpt lat="42.951632121355956" lon="13.502001759787852"><ele>623.0</ele><time>2026-04-18T08:55:31.001Z</time></trkpt><trkpt lat="42.95170495758541" lon="13.501861580712836"><ele>623.0</ele><time>2026-04-18T08:55:32.001Z</time></trkpt><trkpt lat="42.95177728246924" lon="13.501712997384557"><ele>622.25</ele><time>2026-04-18T08:55:33.001Z</time></trkpt><trkpt lat="42.95185812453184" lon="13.50157427338713"><ele>621.5</ele><time>2026-04-18T08:55:34.001Z</time></trkpt><trkpt lat="42.951947378130804" lon="13.501427339512192"><ele>620.75</ele><time>2026-04-18T08:55:35.001Z</time></trkpt><trkpt lat="42.95202922620656" lon="13.501287354640194"><ele>620.0</ele><time>2026-04-18T08:55:36.001Z</time></trkpt><trkpt lat="42.95210989542855" lon="13.501147208159802"><ele>624.0</ele><time>2026-04-18T08:55:37.001Z</time></trkpt><trkpt lat="42.95219132811482" lon="13.501000359673112"><ele>628.0</ele><time>2026-04-18T08:55:38.001Z</time></trkpt><trkpt lat="42.952274678281206" lon="13.500850478389092"><ele>632.0</ele><time>2026-04-18T08:55:39.001Z</time></trkpt><trkpt lat="42.952353584785904" lon="13.500693939096543"><ele>636.0</ele><time>2026-04-18T08:55:40.001Z</time></trkpt><trkpt lat="42.95242486182402" lon="13.50055157970441"><ele>636.0</ele><time>2026-04-18T08:55:41.001Z</time></trkpt><trkpt lat="42.952486638380776" lon="13.500431618899656"><ele>636.0</ele><time>2026-04-18T08:55:42.001Z</time></trkpt><trkpt lat="42.952545015640986" lon="13.500299273270686"><ele>636.0</ele><time>2026-04-18T08:55:43.001Z</time></trkpt><trkpt lat="42.95259099696019" lon="13.500164633385717"><ele>636.0</ele><time>2026-04-18T08:55:44.001Z</time></trkpt><trkpt lat="42.95262666722278" lon="13.500024305175643"><ele>636.0</ele><time>2026-04-18T08:55:45.001Z</time></trkpt><trkpt lat="42.95262745523385" lon="13.499893646185003"><ele>635.8333333333334</ele><time>2026-04-18T08:55:46.001Z</time></trkpt><trkpt lat="42.952631202403694" lon="13.499767376755344"><ele>635.6666666666666</ele><time>2026-04-18T08:55:47.001Z</time></trkpt><trkpt lat="42.9526209014788" lon="13.499650995647373"><ele>635.5</ele><time>2026-04-18T08:55:48.001Z</time></trkpt><trkpt lat="42.95260268767183" lon="13.49954654410267"><ele>635.3333333333333</ele><time>2026-04-18T08:55:49.001Z</time></trkpt><trkpt lat="42.95256973689023" lon="13.499462205330191"><ele>635.1666666666666</ele><time>2026-04-18T08:55:50.001Z</time></trkpt><trkpt lat="42.952522355250515" lon="13.49938422539057"><ele>635.0</ele><time>2026-04-18T08:55:51.001Z</time></trkpt><trkpt lat="42.952453189637076" lon="13.499304308982667"><ele>635.0</ele><time>2026-04-18T08:55:52.001Z</time></trkpt><trkpt lat="42.95236295404372" lon="13.49919466271305"><ele>635.0</ele><time>2026-04-18T08:55:53.001Z</time></trkpt><trkpt lat="42.952287893027425" lon="13.49909288290494"><ele>635.0</ele><time>2026-04-18T08:55:54.002Z</time></trkpt><trkpt lat="42.952200564095065" lon="13.499002682893613"><ele>635.0</ele><time>2026-04-18T08:55:55.002Z</time></trkpt><trkpt lat="42.95213615622489" lon="13.498889690995616"><ele>635.0</ele><time>2026-04-18T08:55:56.002Z</time></trkpt><trkpt lat="42.95207775241582" lon="13.498753626333361"><ele>633.0</ele><time>2026-04-18T08:55:57.002Z</time></trkpt><trkpt lat="42.95203780476112" lon="13.498615529014332"><ele>631.0</ele><time>2026-04-18T08:55:58.002Z</time></trkpt><trkpt lat="42.952001602524895" lon="13.498494515724756"><ele>629.0</ele><time>2026-04-18T08:55:59.002Z</time></trkpt><trkpt lat="42.9519697836471" lon="13.498372349055966"><ele>627.0</ele><time>2026-04-18T08:56:00.002Z</time></trkpt><trkpt lat="42.951924753030795" lon="13.498262473946571"><ele>625.0</ele><time>2026-04-18T08:56:01.002Z</time></trkpt><trkpt lat="42.95187356068998" lon="13.498152859263879"><ele>625.0</ele><time>2026-04-18T08:56:02.002Z</time></trkpt><trkpt lat="42.9518069455525" lon="13.498046906406003"><ele>625.0</ele><time>2026-04-18T08:56:03.002Z</time></trkpt><trkpt lat="42.95172844881678" lon="13.497942455000297"><ele>625.0</ele><time>2026-04-18T08:56:04.002Z</time></trkpt><trkpt lat="42.95163207256803" lon="13.497849788485457"><ele>625.0</ele><time>2026-04-18T08:56:05.002Z</time></trkpt><trkpt lat="42.95153493182129" lon="13.497751422863566"><ele>629.0</ele><time>2026-04-18T08:56:06.002Z</time></trkpt><trkpt lat="42.95143136480486" lon="13.4976598219308"><ele>633.0</ele><time>2026-04-18T08:56:07.002Z</time></trkpt><trkpt lat="42.951324250557626" lon="13.497577748868895"><ele>637.0</ele><time>2026-04-18T08:56:08.002Z</time></trkpt><trkpt lat="42.95123027757978" lon="13.497503702825268"><ele>641.0</ele><time>2026-04-18T08:56:09.002Z</time></trkpt><trkpt lat="42.951148682873736" lon="13.497417630123218"><ele>641.0</ele><time>2026-04-18T08:56:10.002Z</time></trkpt><trkpt lat="42.95107256733444" lon="13.497339910151894"><ele>641.0</ele><time>2026-04-18T08:56:11.002Z</time></trkpt><trkpt lat="42.950994084470125" lon="13.497246230529656"><ele>641.0</ele><time>2026-04-18T08:56:12.002Z</time></trkpt><trkpt lat="42.9509274205758" lon="13.497138469406227"><ele>641.0</ele><time>2026-04-18T08:56:13.002Z</time></trkpt><trkpt lat="42.95086264233513" lon="13.497028221633634"><ele>641.0</ele><time>2026-04-18T08:56:14.002Z</time></trkpt><trkpt lat="42.95079055560177" lon="13.496897061976949"><ele>640.75</ele><time>2026-04-18T08:56:15.002Z</time></trkpt><trkpt lat="42.950717145390996" lon="13.496763294847742"><ele>640.5</ele><time>2026-04-18T08:56:16.002Z</time></trkpt><trkpt lat="42.950639807214046" lon="13.496652624623433"><ele>640.25</ele><time>2026-04-18T08:56:17.002Z</time></trkpt><trkpt lat="42.95057405309311" lon="13.496522203044492"><ele>640.0</ele><time>2026-04-18T08:56:18.002Z</time></trkpt><trkpt lat="42.95051410377518" lon="13.496404299969853"><ele>640.0</ele><time>2026-04-18T08:56:19.002Z</time></trkpt><trkpt lat="42.9504630422534" lon="13.496295755846225"><ele>640.0</ele><time>2026-04-18T08:56:20.002Z</time></trkpt><trkpt lat="42.95040388680356" lon="13.49618818485828"><ele>640.0</ele><time>2026-04-18T08:56:21.002Z</time></trkpt><trkpt lat="42.95033061902606" lon="13.496089727886323"><ele>640.0</ele><time>2026-04-18T08:56:22.002Z</time></trkpt><trkpt lat="42.950245675159465" lon="13.496000355644433"><ele>640.0</ele><time>2026-04-18T08:56:23.002Z</time></trkpt><trkpt lat="42.95014887079428" lon="13.495924368965863"><ele>639.4</ele><time>2026-04-18T08:56:24.002Z</time></trkpt><trkpt lat="42.95005680289256" lon="13.495870091159894"><ele>638.8</ele><time>2026-04-18T08:56:25.002Z</time></trkpt><trkpt lat="42.94996856271484" lon="13.495824753571645"><ele>638.2</ele><time>2026-04-18T08:56:26.002Z</time></trkpt><trkpt lat="42.94988645106758" lon="13.495766916409437"><ele>637.6</ele><time>2026-04-18T08:56:27.002Z</time></trkpt><trkpt lat="42.94982165777981" lon="13.495679420558586"><ele>637.0</ele><time>2026-04-18T08:56:28.002Z</time></trkpt><trkpt lat="42.94975610440593" lon="13.495589217681228"><ele>634.25</ele><time>2026-04-18T08:56:29.002Z</time></trkpt><trkpt lat="42.94970740401006" lon="13.495483521485689"><ele>631.5</ele><time>2026-04-18T08:56:30.002Z</time></trkpt><trkpt lat="42.94964592583511" lon="13.4953500244705"><ele>628.75</ele><time>2026-04-18T08:56:31.002Z</time></trkpt><trkpt lat="42.949577526038375" lon="13.495190515883099"><ele>626.0</ele><time>2026-04-18T08:56:32.002Z</time></trkpt><trkpt lat="42.949498047076034" lon="13.495028594166715"><ele>624.75</ele><time>2026-04-18T08:56:33Z</time></trkpt><trkpt lat="42.949441728044285" lon="13.494855600471837"><ele>623.5</ele><time>2026-04-18T08:56:34Z</time></trkpt><trkpt lat="42.9493861010517" lon="13.494680052820748"><ele>622.25</ele><time>2026-04-18T08:56:35Z</time></trkpt><trkpt lat="42.9493294447546" lon="13.494528709166355"><ele>621.0</ele><time>2026-04-18T08:56:36Z</time></trkpt><trkpt lat="42.94930180085544" lon="13.494384745510176"><ele>620.25</ele><time>2026-04-18T08:56:37Z</time></trkpt><trkpt lat="42.949264313865264" lon="13.494254497639597"><ele>619.5</ele><time>2026-04-18T08:56:38Z</time></trkpt><trkpt lat="42.94921704143778" lon="13.494110453681705"><ele>618.75</ele><time>2026-04-18T08:56:39Z</time></trkpt><trkpt lat="42.949190038784174" lon="13.493942253188036"><ele>618.0</ele><time>2026-04-18T08:56:40Z</time></trkpt><trkpt lat="42.9491608357324" lon="13.49376577978062"><ele>622.75</ele><time>2026-04-18T08:56:41Z</time></trkpt><trkpt lat="42.9491233838405" lon="13.493559307307697"><ele>627.5</ele><time>2026-04-18T08:56:42Z</time></trkpt><trkpt lat="42.94909213239524" lon="13.493363487269686"><ele>632.25</ele><time>2026-04-18T08:56:43Z</time></trkpt><trkpt lat="42.94907011674184" lon="13.493198799601714"><ele>637.0</ele><time>2026-04-18T08:56:44Z</time></trkpt><trkpt lat="42.9490407278218" lon="13.493036240469495"><ele>638.0</ele><time>2026-04-18T08:56:45Z</time></trkpt><trkpt lat="42.94901248456229" lon="13.49288356357903"><ele>639.0</ele><time>2026-04-18T08:56:46Z</time></trkpt><trkpt lat="42.948985445703165" lon="13.492726688596072"><ele>640.0</ele><time>2026-04-18T08:56:47Z</time></trkpt><trkpt lat="42.94896498781696" lon="13.492548692307167"><ele>641.0</ele><time>2026-04-18T08:56:48Z</time></trkpt><trkpt lat="42.9489443705517" lon="13.492352228193461"><ele>641.0</ele><time>2026-04-18T08:56:49Z</time></trkpt><trkpt lat="42.94892802455505" lon="13.49218767763465"><ele>641.0</ele><time>2026-04-18T08:56:50Z</time></trkpt><trkpt lat="42.948915863211944" lon="13.492032908029826"><ele>641.0</ele><time>2026-04-18T08:56:51Z</time></trkpt><trkpt lat="42.94891459299981" lon="13.491877507753536"><ele>641.0</ele><time>2026-04-18T08:56:52Z</time></trkpt><trkpt lat="42.9489437904783" lon="13.491718162328247"><ele>641.75</ele><time>2026-04-18T08:56:53Z</time></trkpt><trkpt lat="42.94895368293695" lon="13.491523106665781"><ele>642.5</ele><time>2026-04-18T08:56:54Z</time></trkpt><trkpt lat="42.948963428197715" lon="13.491347781894708"><ele>643.25</ele><time>2026-04-18T08:56:55Z</time></trkpt><trkpt lat="42.94896651666254" lon="13.491160527432893"><ele>644.0</ele><time>2026-04-18T08:56:56Z</time></trkpt><trkpt lat="42.94897929861956" lon="13.490993774588754"><ele>645.25</ele><time>2026-04-18T08:56:57Z</time></trkpt><trkpt lat="42.94898274182903" lon="13.490803985269926"><ele>646.5</ele><time>2026-04-18T08:56:58Z</time></trkpt><trkpt lat="42.948959819744424" lon="13.490595815127872"><ele>647.75</ele><time>2026-04-18T08:56:59Z</time></trkpt><trkpt lat="42.94893934490675" lon="13.490404503165731"><ele>649.0</ele><time>2026-04-18T08:57:00Z</time></trkpt><trkpt lat="42.94892576692233" lon="13.49022461744804"><ele>650.5</ele><time>2026-04-18T08:57:01Z</time></trkpt><trkpt lat="42.94892041358512" lon="13.49003796937985"><ele>652.0</ele><time>2026-04-18T08:57:02Z</time></trkpt><trkpt lat="42.94892546477649" lon="13.489864902324312"><ele>653.5</ele><time>2026-04-18T08:57:03Z</time></trkpt><trkpt lat="42.948954276975684" lon="13.489687386641595"><ele>655.0</ele><time>2026-04-18T08:57:04Z</time></trkpt><trkpt lat="42.948990029346845" lon="13.4895352714454"><ele>655.5</ele><time>2026-04-18T08:57:05Z</time></trkpt><trkpt lat="42.94901800698959" lon="13.489383171905418"><ele>656.0</ele><time>2026-04-18T08:57:06Z</time></trkpt><trkpt lat="42.94905146399257" lon="13.489230351010345"><ele>656.5</ele><time>2026-04-18T08:57:07Z</time></trkpt><trkpt lat="42.94911183592785" lon="13.489092121095837"><ele>657.0</ele><time>2026-04-18T08:57:08Z</time></trkpt><trkpt lat="42.949182251844626" lon="13.488925486052667"><ele>655.0</ele><time>2026-04-18T08:57:09Z</time></trkpt><trkpt lat="42.94923081753578" lon="13.488728692863777"><ele>653.0</ele><time>2026-04-18T08:57:10Z</time></trkpt><trkpt lat="42.94926053639459" lon="13.488496657619866"><ele>651.0</ele><time>2026-04-18T08:57:11Z</time></trkpt><trkpt lat="42.94930973944423" lon="13.488263571931869"><ele>651.0</ele><time>2026-04-18T08:57:12Z</time></trkpt><trkpt lat="42.94934932218334" lon="13.48806088650106"><ele>651.0</ele><time>2026-04-18T08:57:13Z</time></trkpt><trkpt lat="42.94941789641288" lon="13.487903785868754"><ele>651.0</ele><time>2026-04-18T08:57:14Z</time></trkpt><trkpt lat="42.949489942949256" lon="13.48776771683538"><ele>651.0</ele><time>2026-04-18T08:57:15Z</time></trkpt><trkpt lat="42.94957753205148" lon="13.487637899223243"><ele>654.25</ele><time>2026-04-18T08:57:16Z</time></trkpt><trkpt lat="42.94967162702679" lon="13.487500509287106"><ele>657.5</ele><time>2026-04-18T08:57:17.001Z</time></trkpt><trkpt lat="42.94976922432062" lon="13.487365444451726"><ele>660.75</ele><time>2026-04-18T08:57:18.001Z</time></trkpt><trkpt lat="42.949848022850155" lon="13.487237143445858"><ele>664.0</ele><time>2026-04-18T08:57:19.001Z</time></trkpt><trkpt lat="42.94996208044756" lon="13.487177466110376"><ele>664.5</ele><time>2026-04-18T08:57:20.001Z</time></trkpt><trkpt lat="42.95006753666639" lon="13.487149391628964"><ele>665.0</ele><time>2026-04-18T08:57:21.001Z</time></trkpt><trkpt lat="42.950186810320126" lon="13.48714509234653"><ele>665.5</ele><time>2026-04-18T08:57:22.001Z</time></trkpt><trkpt lat="42.95032050644154" lon="13.487154969444456"><ele>666.0</ele><time>2026-04-18T08:57:23.001Z</time></trkpt><trkpt lat="42.95045709726459" lon="13.487180797637967"><ele>666.0</ele><time>2026-04-18T08:57:24.001Z</time></trkpt><trkpt lat="42.950602668062814" lon="13.487216876680186"><ele>666.0</ele><time>2026-04-18T08:57:25.001Z</time></trkpt><trkpt lat="42.95074999909221" lon="13.487244394294358"><ele>666.0</ele><time>2026-04-18T08:57:26.001Z</time></trkpt><trkpt lat="42.95090642294154" lon="13.487242851086638"><ele>665.75</ele><time>2026-04-18T08:57:27.001Z</time></trkpt><trkpt lat="42.95104418845387" lon="13.487255606882178"><ele>665.5</ele><time>2026-04-18T08:57:28.001Z</time></trkpt><trkpt lat="42.95117004613845" lon="13.487246968724405"><ele>665.25</ele><time>2026-04-18T08:57:29.001Z</time></trkpt><trkpt lat="42.95128717394041" lon="13.487227096595973"><ele>665.0</ele><time>2026-04-18T08:57:30.001Z</time></trkpt><trkpt lat="42.95138715443635" lon="13.487186316986653"><ele>666.6</ele><time>2026-04-18T08:57:31.001Z</time></trkpt><trkpt lat="42.95146193231984" lon="13.487077273996274"><ele>668.2</ele><time>2026-04-18T08:57:32.001Z</time></trkpt><trkpt lat="42.95153263171378" lon="13.48698397189672"><ele>669.8</ele><time>2026-04-18T08:57:33.001Z</time></trkpt><trkpt lat="42.95158449027046" lon="13.486867864941784"><ele>671.4</ele><time>2026-04-18T08:57:34.001Z</time></trkpt><trkpt lat="42.95161029240373" lon="13.48674202316173"><ele>673.0</ele><time>2026-04-18T08:57:35.001Z</time></trkpt><trkpt lat="42.951629561773025" lon="13.486608317810244"><ele>673.0</ele><time>2026-04-18T08:57:36.001Z</time></trkpt><trkpt lat="42.95163562011078" lon="13.486444135935539"><ele>673.0</ele><time>2026-04-18T08:57:37.001Z</time></trkpt><trkpt lat="42.951629704312964" lon="13.486239528862484"><ele>673.0</ele><time>2026-04-18T08:57:38.001Z</time></trkpt><trkpt lat="42.95161861322568" lon="13.486011491865987"><ele>673.0</ele><time>2026-04-18T08:57:39.001Z</time></trkpt><trkpt lat="42.951605652682574" lon="13.485801068845342"><ele>673.6666666666667</ele><time>2026-04-18T08:57:40.001Z</time></trkpt><trkpt lat="42.951585115096584" lon="13.485547643577537"><ele>674.3333333333334</ele><time>2026-04-18T08:57:41.001Z</time></trkpt><trkpt lat="42.95155439733931" lon="13.485349531312982"><ele>675.0</ele><time>2026-04-18T08:57:42.001Z</time></trkpt><trkpt lat="42.95153385195589" lon="13.48517582629783"><ele>676.0</ele><time>2026-04-18T08:57:43.001Z</time></trkpt><trkpt lat="42.95153116564232" lon="13.485046817474254"><ele>677.0</ele><time>2026-04-18T08:57:44.001Z</time></trkpt><trkpt lat="42.95156648381693" lon="13.484965400121837"><ele>678.0</ele><time>2026-04-18T08:57:45.001Z</time></trkpt><trkpt lat="42.95165643141932" lon="13.484965022853364"><ele>679.0</ele><time>2026-04-18T08:57:46.001Z</time></trkpt><trkpt lat="42.951738814345916" lon="13.484938573519965"><ele>680.0</ele><time>2026-04-18T08:57:47.001Z</time></trkpt><trkpt lat="42.95184440976285" lon="13.484889974701082"><ele>680.0</ele><time>2026-04-18T08:57:48.001Z</time></trkpt><trkpt lat="42.9519828802498" lon="13.484830989858157"><ele>680.0</ele><time>2026-04-18T08:57:49.001Z</time></trkpt><trkpt lat="42.95213262752124" lon="13.484767201409024"><ele>680.0</ele><time>2026-04-18T08:57:50.001Z</time></trkpt><trkpt lat="42.95225117686614" lon="13.484695703852157"><ele>680.0</ele><time>2026-04-18T08:57:51.001Z</time></trkpt><trkpt lat="42.952352827583375" lon="13.48464331482072"><ele>680.4</ele><time>2026-04-18T08:57:52.001Z</time></trkpt><trkpt lat="42.95243168751894" lon="13.484575465255167"><ele>680.8</ele><time>2026-04-18T08:57:53.001Z</time></trkpt><trkpt lat="42.95249192943995" lon="13.484481139559295"><ele>681.2</ele><time>2026-04-18T08:57:54.001Z</time></trkpt><trkpt lat="42.95250822886592" lon="13.484327625966456"><ele>681.6</ele><time>2026-04-18T08:57:55.001Z</time></trkpt><trkpt lat="42.952552662064846" lon="13.484186104770414"><ele>682.0</ele><time>2026-04-18T08:57:56.001Z</time></trkpt><trkpt lat="42.95269107526184" lon="13.484030329172286"><ele>683.0</ele><time>2026-04-18T08:57:57.001Z</time></trkpt><trkpt lat="42.95271836804893" lon="13.483843463682966"><ele>684.0</ele><time>2026-04-18T08:57:58.001Z</time></trkpt><trkpt lat="42.952752387437265" lon="13.483688578718205"><ele>685.0</ele><time>2026-04-18T08:57:59.001Z</time></trkpt><trkpt lat="42.95279647258312" lon="13.483560170252723"><ele>686.0</ele><time>2026-04-18T08:58:00.001Z</time></trkpt><trkpt lat="42.95291439030209" lon="13.48351106403751"><ele>686.0</ele><time>2026-04-18T08:58:02.001Z</time></trkpt><trkpt lat="42.9530067413727" lon="13.483484151293602"><ele>686.0</ele><time>2026-04-18T08:58:03.001Z</time></trkpt><trkpt lat="42.95312397606957" lon="13.483410183112069"><ele>686.0</ele><time>2026-04-18T08:58:04.001Z</time></trkpt><trkpt lat="42.95323735386127" lon="13.483339989501975"><ele>686.0</ele><time>2026-04-18T08:58:05.001Z</time></trkpt><trkpt lat="42.953408571341896" lon="13.483253996435817"><ele>683.6666666666666</ele><time>2026-04-18T08:58:06.001Z</time></trkpt><trkpt lat="42.95357701075045" lon="13.483180971562655"><ele>681.3333333333334</ele><time>2026-04-18T08:58:07.001Z</time></trkpt><trkpt lat="42.95373849530989" lon="13.483113670250052"><ele>679.0</ele><time>2026-04-18T08:58:08.002Z</time></trkpt><trkpt lat="42.953886273871916" lon="13.483062348425603"><ele>679.0</ele><time>2026-04-18T08:58:09.002Z</time></trkpt><trkpt lat="42.95405093382958" lon="13.483060876235898"><ele>679.0</ele><time>2026-04-18T08:58:10.002Z</time></trkpt><trkpt lat="42.954198850392544" lon="13.483090909626398"><ele>679.0</ele><time>2026-04-18T08:58:11.002Z</time></trkpt><trkpt lat="42.95436650456838" lon="13.483144828567829"><ele>680.3333333333334</ele><time>2026-04-18T08:58:12.002Z</time></trkpt><trkpt lat="42.954545253641896" lon="13.483206370068666"><ele>681.6666666666666</ele><time>2026-04-18T08:58:13.002Z</time></trkpt><trkpt lat="42.95471852181117" lon="13.48327248405038"><ele>683.0</ele><time>2026-04-18T08:58:14.002Z</time></trkpt><trkpt lat="42.95490384729477" lon="13.483358093114603"><ele>686.0</ele><time>2026-04-18T08:58:15.002Z</time></trkpt><trkpt lat="42.95505181193907" lon="13.48343632219012"><ele>689.0</ele><time>2026-04-18T08:58:16.002Z</time></trkpt><trkpt lat="42.955188296006725" lon="13.483496684924123"><ele>692.0</ele><time>2026-04-18T08:58:17.002Z</time></trkpt><trkpt lat="42.95530503110123" lon="13.483540764417183"><ele>695.0</ele><time>2026-04-18T08:58:18.002Z</time></trkpt><trkpt lat="42.95541534836573" lon="13.483561068117218"><ele>695.0</ele><time>2026-04-18T08:58:19.002Z</time></trkpt><trkpt lat="42.95550921490907" lon="13.483603030660593"><ele>695.0</ele><time>2026-04-18T08:58:20.002Z</time></trkpt><trkpt lat="42.955588829862926" lon="13.483674438098666"><ele>695.0</ele><time>2026-04-18T08:58:21.002Z</time></trkpt><trkpt lat="42.95566557538247" lon="13.483786614428016"><ele>695.0</ele><time>2026-04-18T08:58:22.002Z</time></trkpt><trkpt lat="42.95569447160427" lon="13.483928309781383"><ele>695.0</ele><time>2026-04-18T08:58:23.002Z</time></trkpt><trkpt lat="42.955737488072444" lon="13.484040211735445"><ele>694.1666666666666</ele><time>2026-04-18T08:58:24.002Z</time></trkpt><trkpt lat="42.95577639747867" lon="13.484142760427845"><ele>693.3333333333333</ele><time>2026-04-18T08:58:25.002Z</time></trkpt><trkpt lat="42.95581583717623" lon="13.484243058178931"><ele>692.5</ele><time>2026-04-18T08:58:26.002Z</time></trkpt><trkpt lat="42.95585223507579" lon="13.484335838873559"><ele>691.6666666666666</ele><time>2026-04-18T08:58:27.002Z</time></trkpt><trkpt lat="42.95588700991438" lon="13.48440897314788"><ele>690.8333333333334</ele><time>2026-04-18T08:58:28.002Z</time></trkpt><trkpt lat="42.955952669849665" lon="13.484491837215542"><ele>690.0</ele><time>2026-04-18T08:58:30.002Z</time></trkpt><trkpt lat="42.95605592935191" lon="13.484622039726046"><ele>686.8</ele><time>2026-04-18T08:58:32.002Z</time></trkpt><trkpt lat="42.95611006167391" lon="13.48471671078868"><ele>683.6</ele><time>2026-04-18T08:58:33.002Z</time></trkpt><trkpt lat="42.9561759792335" lon="13.48479749731818"><ele>680.4000000000001</ele><time>2026-04-18T08:58:34.002Z</time></trkpt><trkpt lat="42.956252378083505" lon="13.48487899444321"><ele>677.2</ele><time>2026-04-18T08:58:35.002Z</time></trkpt><trkpt lat="42.95631161341717" lon="13.484952693813078"><ele>674.0</ele><time>2026-04-18T08:58:36.002Z</time></trkpt><trkpt lat="42.9564069035813" lon="13.485003750172583"><ele>674.0</ele><time>2026-04-18T08:58:37.002Z</time></trkpt><trkpt lat="42.95651420871119" lon="13.485008589461348"><ele>674.0</ele><time>2026-04-18T08:58:38.002Z</time></trkpt><trkpt lat="42.95662674646327" lon="13.485026941033178"><ele>674.0</ele><time>2026-04-18T08:58:39Z</time></trkpt><trkpt lat="42.95676662639094" lon="13.485049511115951"><ele>674.0</ele><time>2026-04-18T08:58:40Z</time></trkpt><trkpt lat="42.95691161211407" lon="13.485113652124356"><ele>675.6666666666666</ele><time>2026-04-18T08:58:41Z</time></trkpt><trkpt lat="42.95703844805119" lon="13.485237682796145"><ele>677.3333333333334</ele><time>2026-04-18T08:58:42Z</time></trkpt><trkpt lat="42.95717988135036" lon="13.485333067070428"><ele>679.0</ele><time>2026-04-18T08:58:43Z</time></trkpt><trkpt lat="42.95730433317253" lon="13.485426705637844"><ele>675.0</ele><time>2026-04-18T08:58:44Z</time></trkpt><trkpt lat="42.9574149969905" lon="13.485512388174058"><ele>671.0</ele><time>2026-04-18T08:58:45Z</time></trkpt><trkpt lat="42.957526067700684" lon="13.485577891776353"><ele>667.0</ele><time>2026-04-18T08:58:46Z</time></trkpt><trkpt lat="42.957635205761854" lon="13.485605008500656"><ele>663.0</ele><time>2026-04-18T08:58:47Z</time></trkpt><trkpt lat="42.95775539854611" lon="13.485599403940151"><ele>664.25</ele><time>2026-04-18T08:58:48Z</time></trkpt><trkpt lat="42.957863964552025" lon="13.485538860416439"><ele>665.5</ele><time>2026-04-18T08:58:49Z</time></trkpt><trkpt lat="42.957989593609604" lon="13.485484977638935"><ele>666.75</ele><time>2026-04-18T08:58:50Z</time></trkpt><trkpt lat="42.958121541305985" lon="13.485447837301903"><ele>668.0</ele><time>2026-04-18T08:58:51Z</time></trkpt><trkpt lat="42.95823743734181" lon="13.48538623459459"><ele>668.0</ele><time>2026-04-18T08:58:52Z</time></trkpt><trkpt lat="42.95833124899019" lon="13.485348430004672"><ele>668.0</ele><time>2026-04-18T08:58:53Z</time></trkpt><trkpt lat="42.958399091598" lon="13.485320449386922"><ele>668.0</ele><time>2026-04-18T08:58:54Z</time></trkpt><trkpt lat="42.95846261456163" lon="13.485309305555036"><ele>668.0</ele><time>2026-04-18T08:58:55Z</time></trkpt><trkpt lat="42.95854288019924" lon="13.485325650767063"><ele>668.0</ele><time>2026-04-18T08:58:57Z</time></trkpt><trkpt lat="42.95860044180182" lon="13.485360992019697"><ele>668.0</ele><time>2026-04-18T08:58:58Z</time></trkpt><trkpt lat="42.958675561888256" lon="13.485390731145507"><ele>666.2</ele><time>2026-04-18T08:58:59Z</time></trkpt><trkpt lat="42.95876307376528" lon="13.48543749651281"><ele>664.4</ele><time>2026-04-18T08:59:00Z</time></trkpt><trkpt lat="42.95885603761503" lon="13.485472612053535"><ele>662.6</ele><time>2026-04-18T08:59:01Z</time></trkpt><trkpt lat="42.95896578719609" lon="13.485510406678653"><ele>660.8000000000001</ele><time>2026-04-18T08:59:02Z</time></trkpt><trkpt lat="42.959072605976985" lon="13.485544473554128"><ele>659.0</ele><time>2026-04-18T08:59:03Z</time></trkpt><trkpt lat="42.95916217690367" lon="13.485571498131657"><ele>658.3333333333333</ele><time>2026-04-18T08:59:04Z</time></trkpt><trkpt lat="42.95922465212915" lon="13.485589044992315"><ele>657.6666666666666</ele><time>2026-04-18T08:59:05Z</time></trkpt><trkpt lat="42.95929416234801" lon="13.485577047496749"><ele>657.0</ele><time>2026-04-18T08:59:44.001Z</time></trkpt><trkpt lat="42.95935559131018" lon="13.485612152281174"><ele>656.3333333333334</ele><time>2026-04-18T08:59:45.001Z</time></trkpt><trkpt lat="42.95948379893286" lon="13.485654254969"><ele>655.6666666666667</ele><time>2026-04-18T08:59:47.001Z</time></trkpt><trkpt lat="42.95954830123565" lon="13.485669729123698"><ele>655.0</ele><time>2026-04-18T08:59:48.001Z</time></trkpt><trkpt lat="42.959648252261864" lon="13.485711645177423"><ele>655.0</ele><time>2026-04-18T08:59:50.001Z</time></trkpt><trkpt lat="42.95971980315738" lon="13.485669354811527"><ele>655.0</ele><time>2026-04-18T08:59:53.001Z</time></trkpt><trkpt lat="42.95970695189718" lon="13.485575469451021"><ele>655.0</ele><time>2026-04-18T08:59:55.001Z</time></trkpt><trkpt lat="42.95964389411006" lon="13.485428447420242"><ele>655.0</ele><time>2026-04-18T08:59:57.001Z</time></trkpt><trkpt lat="42.95960312304653" lon="13.485352285640683"><ele>655.0</ele><time>2026-04-18T08:59:58.001Z</time></trkpt><trkpt lat="42.95954500452722" lon="13.485239182799052"><ele>655.0</ele><time>2026-04-18T08:59:59.001Z</time></trkpt><trkpt lat="42.95948733607242" lon="13.485108076154102"><ele>655.75</ele><time>2026-04-18T09:00:00.001Z</time></trkpt><trkpt lat="42.95942292515749" lon="13.48497852632976"><ele>656.5</ele><time>2026-04-18T09:00:01.001Z</time></trkpt><trkpt lat="42.95935538627519" lon="13.484861652844259"><ele>657.25</ele><time>2026-04-18T09:00:02.001Z</time></trkpt><trkpt lat="42.95927467170077" lon="13.484730349345165"><ele>658.0</ele><time>2026-04-18T09:00:03.001Z</time></trkpt><trkpt lat="42.95919076352226" lon="13.484597456738564"><ele>656.0</ele><time>2026-04-18T09:00:04.001Z</time></trkpt><trkpt lat="42.95912912284234" lon="13.48446968194547"><ele>654.0</ele><time>2026-04-18T09:00:05.001Z</time></trkpt><trkpt lat="42.95906077351876" lon="13.484357648786766"><ele>652.0</ele><time>2026-04-18T09:00:06.001Z</time></trkpt><trkpt lat="42.95899982260266" lon="13.484253636612092"><ele>650.0</ele><time>2026-04-18T09:00:07.001Z</time></trkpt><trkpt lat="42.958941762818654" lon="13.48414707827211"><ele>648.0</ele><time>2026-04-18T09:00:08.001Z</time></trkpt><trkpt lat="42.95891475640973" lon="13.484009128273106"><ele>648.0</ele><time>2026-04-18T09:00:09.001Z</time></trkpt><trkpt lat="42.95888357511773" lon="13.48387276400138"><ele>648.0</ele><time>2026-04-18T09:00:10.001Z</time></trkpt><trkpt lat="42.958849176350824" lon="13.483733832581631"><ele>648.0</ele><time>2026-04-18T09:00:11.001Z</time></trkpt><trkpt lat="42.9588199726668" lon="13.483574580044847"><ele>648.0</ele><time>2026-04-18T09:00:12.001Z</time></trkpt><trkpt lat="42.95881465117289" lon="13.483422417333353"><ele>648.0</ele><time>2026-04-18T09:00:13.002Z</time></trkpt><trkpt lat="42.95884300929882" lon="13.483273441399797"><ele>647.25</ele><time>2026-04-18T09:00:14.002Z</time></trkpt><trkpt lat="42.95887570167499" lon="13.483124740365149"><ele>646.5</ele><time>2026-04-18T09:00:15.002Z</time></trkpt><trkpt lat="42.95889884021186" lon="13.482974012417364"><ele>645.75</ele><time>2026-04-18T09:00:16.002Z</time></trkpt><trkpt lat="42.958890315164325" lon="13.482790716643422"><ele>645.0</ele><time>2026-04-18T09:00:17.002Z</time></trkpt><trkpt lat="42.95886485756591" lon="13.482601349817719"><ele>643.0</ele><time>2026-04-18T09:00:18.002Z</time></trkpt><trkpt lat="42.95882314782398" lon="13.482382670580234"><ele>641.0</ele><time>2026-04-18T09:00:19.002Z</time></trkpt><trkpt lat="42.958765031341" lon="13.48217621700626"><ele>639.0</ele><time>2026-04-18T09:00:20.002Z</time></trkpt><trkpt lat="42.95870339509667" lon="13.481971233306364"><ele>636.25</ele><time>2026-04-18T09:00:21.002Z</time></trkpt><trkpt lat="42.958653330487664" lon="13.481787336683437"><ele>633.5</ele><time>2026-04-18T09:00:22.002Z</time></trkpt><trkpt lat="42.95859843550079" lon="13.481623934750976"><ele>630.75</ele><time>2026-04-18T09:00:23.002Z</time></trkpt><trkpt lat="42.95853369227356" lon="13.481468729716635"><ele>628.0</ele><time>2026-04-18T09:00:24.002Z</time></trkpt><trkpt lat="42.958433210874276" lon="13.48135837117703"><ele>629.75</ele><time>2026-04-18T09:00:25.002Z</time></trkpt><trkpt lat="42.95833351188977" lon="13.481232915215616"><ele>631.5</ele><time>2026-04-18T09:00:26.002Z</time></trkpt><trkpt lat="42.95823071565973" lon="13.481114681011578"><ele>633.25</ele><time>2026-04-18T09:00:27.002Z</time></trkpt><trkpt lat="42.958129326970884" lon="13.481003490246552"><ele>635.0</ele><time>2026-04-18T09:00:28.002Z</time></trkpt><trkpt lat="42.95802247963069" lon="13.480918039206792"><ele>635.0</ele><time>2026-04-18T09:00:29.002Z</time></trkpt><trkpt lat="42.95794480216596" lon="13.480798111541338"><ele>635.0</ele><time>2026-04-18T09:00:30.002Z</time></trkpt><trkpt lat="42.95794582575764" lon="13.480652199897644"><ele>635.0</ele><time>2026-04-18T09:00:31.002Z</time></trkpt><trkpt lat="42.95794591411386" lon="13.48048467698689"><ele>635.0</ele><time>2026-04-18T09:00:32.002Z</time></trkpt><trkpt lat="42.95795384217097" lon="13.480286487640573"><ele>634.3333333333333</ele><time>2026-04-18T09:00:33.002Z</time></trkpt><trkpt lat="42.95795876331276" lon="13.480070034089984"><ele>633.6666666666666</ele><time>2026-04-18T09:00:34.002Z</time></trkpt><trkpt lat="42.95795086207202" lon="13.479857986082852"><ele>633.0</ele><time>2026-04-18T09:00:35.002Z</time></trkpt><trkpt lat="42.957943529437074" lon="13.479617803642967"><ele>632.75</ele><time>2026-04-18T09:00:36.002Z</time></trkpt><trkpt lat="42.95793571488339" lon="13.479405711749815"><ele>632.5</ele><time>2026-04-18T09:00:37.002Z</time></trkpt><trkpt lat="42.95791122612048" lon="13.47922081873419"><ele>632.25</ele><time>2026-04-18T09:00:38.002Z</time></trkpt><trkpt lat="42.95791056779117" lon="13.479046777432604"><ele>632.0</ele><time>2026-04-18T09:00:39.002Z</time></trkpt><trkpt lat="42.95789067114421" lon="13.478888521046487"><ele>630.5</ele><time>2026-04-18T09:00:40.002Z</time></trkpt><trkpt lat="42.95784377386827" lon="13.478715665454947"><ele>629.0</ele><time>2026-04-18T09:00:41.002Z</time></trkpt><trkpt lat="42.957790360307065" lon="13.478536937670498"><ele>627.5</ele><time>2026-04-18T09:00:42.002Z</time></trkpt><trkpt lat="42.95771524881539" lon="13.478338030188647"><ele>626.0</ele><time>2026-04-18T09:00:43.002Z</time></trkpt><trkpt lat="42.95763761856164" lon="13.478130421096793"><ele>627.5</ele><time>2026-04-18T09:00:44.002Z</time></trkpt><trkpt lat="42.95756453889021" lon="13.477932365025307"><ele>629.0</ele><time>2026-04-18T09:00:45Z</time></trkpt><trkpt lat="42.95750772712847" lon="13.477759881355682"><ele>630.5</ele><time>2026-04-18T09:00:46Z</time></trkpt><trkpt lat="42.957453311268075" lon="13.477604645649917"><ele>632.0</ele><time>2026-04-18T09:00:47Z</time></trkpt><trkpt lat="42.95736200856429" lon="13.477493549199416"><ele>632.0</ele><time>2026-04-18T09:00:48Z</time></trkpt><trkpt lat="42.957260904782835" lon="13.477370462644995"><ele>632.0</ele><time>2026-04-18T09:00:49Z</time></trkpt><trkpt lat="42.95713166211158" lon="13.477284097504592"><ele>632.0</ele><time>2026-04-18T09:00:50Z</time></trkpt><trkpt lat="42.95701461277514" lon="13.477205121281447"><ele>632.0</ele><time>2026-04-18T09:00:51Z</time></trkpt><trkpt lat="42.95689514575414" lon="13.477154627462465"><ele>632.0</ele><time>2026-04-18T09:00:52Z</time></trkpt><trkpt lat="42.95677851216573" lon="13.477122174488661"><ele>632.0</ele><time>2026-04-18T09:00:53Z</time></trkpt><trkpt lat="42.95665336748187" lon="13.477101793554974"><ele>632.0</ele><time>2026-04-18T09:00:54Z</time></trkpt><trkpt lat="42.95652136695472" lon="13.477087155686919"><ele>632.0</ele><time>2026-04-18T09:00:55Z</time></trkpt><trkpt lat="42.956390753816926" lon="13.477064704935199"><ele>632.6666666666666</ele><time>2026-04-18T09:00:56Z</time></trkpt><trkpt lat="42.95628416628801" lon="13.47706723154494"><ele>633.3333333333333</ele><time>2026-04-18T09:00:57Z</time></trkpt><trkpt lat="42.95619669280509" lon="13.477034097490925"><ele>634.0</ele><time>2026-04-18T09:00:58Z</time></trkpt><trkpt lat="42.95614239018653" lon="13.4769439000988"><ele>634.6666666666666</ele><time>2026-04-18T09:00:59Z</time></trkpt><trkpt lat="42.956134064950305" lon="13.476848254098561"><ele>635.3333333333334</ele><time>2026-04-18T09:01:00Z</time></trkpt><trkpt lat="42.95613104788671" lon="13.476736791215556"><ele>636.0</ele><time>2026-04-18T09:01:01Z</time></trkpt><trkpt lat="42.95613616978881" lon="13.476593742136272"><ele>636.0</ele><time>2026-04-18T09:01:02Z</time></trkpt><trkpt lat="42.956144402418744" lon="13.476411581915201"><ele>636.0</ele><time>2026-04-18T09:01:03Z</time></trkpt><trkpt lat="42.956155362435226" lon="13.476176398657818"><ele>636.0</ele><time>2026-04-18T09:01:04Z</time></trkpt><trkpt lat="42.95616870386609" lon="13.47595600110125"><ele>635.6666666666666</ele><time>2026-04-18T09:01:05Z</time></trkpt><trkpt lat="42.95618790186009" lon="13.475692102772383"><ele>635.3333333333333</ele><time>2026-04-18T09:01:06Z</time></trkpt><trkpt lat="42.95620378946385" lon="13.475483103043384"><ele>635.0</ele><time>2026-04-18T09:01:07Z</time></trkpt><trkpt lat="42.956207952091425" lon="13.475281936028582"><ele>634.5</ele><time>2026-04-18T09:01:08Z</time></trkpt><trkpt lat="42.95621057661874" lon="13.475128212847986"><ele>634.0</ele><time>2026-04-18T09:01:09Z</time></trkpt><trkpt lat="42.95621730971492" lon="13.474986011425951"><ele>633.5</ele><time>2026-04-18T09:01:10Z</time></trkpt><trkpt lat="42.95622587359564" lon="13.4748370122828"><ele>633.0</ele><time>2026-04-18T09:01:11Z</time></trkpt><trkpt lat="42.95622271956695" lon="13.474659902265653"><ele>632.75</ele><time>2026-04-18T09:01:12Z</time></trkpt><trkpt lat="42.95623790657803" lon="13.474482047639984"><ele>632.5</ele><time>2026-04-18T09:01:13Z</time></trkpt><trkpt lat="42.95625560666207" lon="13.474288473541803"><ele>632.25</ele><time>2026-04-18T09:01:14Z</time></trkpt><trkpt lat="42.95627695676412" lon="13.474056882773418"><ele>632.0</ele><time>2026-04-18T09:01:15Z</time></trkpt><trkpt lat="42.95629485066925" lon="13.4738324240887"><ele>633.6666666666666</ele><time>2026-04-18T09:01:16Z</time></trkpt><trkpt lat="42.95631018175767" lon="13.473594472034847"><ele>635.3333333333334</ele><time>2026-04-18T09:01:17Z</time></trkpt><trkpt lat="42.95630567044168" lon="13.47331074673478"><ele>637.0</ele><time>2026-04-18T09:01:18Z</time></trkpt><trkpt lat="42.95629273276087" lon="13.473005101687773"><ele>637.3333333333334</ele><time>2026-04-18T09:01:19Z</time></trkpt><trkpt lat="42.95628356743933" lon="13.472706780803668"><ele>637.6666666666666</ele><time>2026-04-18T09:01:20Z</time></trkpt><trkpt lat="42.956272257844496" lon="13.472409524342407"><ele>638.0</ele><time>2026-04-18T09:01:21Z</time></trkpt><trkpt lat="42.95625948111294" lon="13.472145356050714"><ele>636.75</ele><time>2026-04-18T09:01:22.001Z</time></trkpt><trkpt lat="42.95624294835123" lon="13.471913971990379"><ele>635.5</ele><time>2026-04-18T09:01:23.001Z</time></trkpt><trkpt lat="42.95622149707927" lon="13.4717299627359"><ele>634.25</ele><time>2026-04-18T09:01:24.001Z</time></trkpt><trkpt lat="42.95620757229367" lon="13.471594531990675"><ele>633.0</ele><time>2026-04-18T09:01:25.001Z</time></trkpt><trkpt lat="42.9562102901797" lon="13.471454742264655"><ele>633.0</ele><time>2026-04-18T09:01:26.001Z</time></trkpt><trkpt lat="42.95624046302016" lon="13.471311079971125"><ele>633.0</ele><time>2026-04-18T09:01:27.001Z</time></trkpt><trkpt lat="42.95639727039084" lon="13.471313921661654"><ele>633.0</ele><time>2026-04-18T09:01:28.001Z</time></trkpt><trkpt lat="42.95647098593358" lon="13.471279465231719"><ele>633.0</ele><time>2026-04-18T09:01:29.001Z</time></trkpt><trkpt lat="42.95657533243268" lon="13.471232314813427"><ele>628.5</ele><time>2026-04-18T09:01:30.001Z</time></trkpt><trkpt lat="42.95668890401782" lon="13.471217432386881"><ele>624.0</ele><time>2026-04-18T09:01:31.001Z</time></trkpt><trkpt lat="42.956834659677845" lon="13.471210670204643"><ele>619.5</ele><time>2026-04-18T09:01:32.001Z</time></trkpt><trkpt lat="42.95699833824355" lon="13.471213226817811"><ele>615.0</ele><time>2026-04-18T09:01:33.001Z</time></trkpt><trkpt lat="42.9571641498305" lon="13.471225894302373"><ele>615.0</ele><time>2026-04-18T09:01:34.001Z</time></trkpt><trkpt lat="42.95734609562005" lon="13.471244273092813"><ele>615.0</ele><time>2026-04-18T09:01:35.001Z</time></trkpt><trkpt lat="42.95749202075795" lon="13.471264156746395"><ele>615.0</ele><time>2026-04-18T09:01:36.001Z</time></trkpt><trkpt lat="42.95764393744663" lon="13.471284856841613"><ele>616.25</ele><time>2026-04-18T09:01:37.001Z</time></trkpt><trkpt lat="42.957774645975505" lon="13.471298589326501"><ele>617.5</ele><time>2026-04-18T09:01:38.001Z</time></trkpt><trkpt lat="42.9578967901813" lon="13.471298255184333"><ele>618.75</ele><time>2026-04-18T09:01:39.001Z</time></trkpt><trkpt lat="42.957996167583545" lon="13.471276433033584"><ele>620.0</ele><time>2026-04-18T09:01:40.001Z</time></trkpt><trkpt lat="42.958081601960416" lon="13.471214116928445"><ele>620.0</ele><time>2026-04-18T09:01:41.001Z</time></trkpt><trkpt lat="42.95814107466696" lon="13.47114238664739"><ele>620.0</ele><time>2026-04-18T09:01:42.001Z</time></trkpt><trkpt lat="42.95818249927902" lon="13.471069910306731"><ele>620.0</ele><time>2026-04-18T09:01:43.001Z</time></trkpt><trkpt lat="42.958245584484125" lon="13.470992128498459"><ele>620.0</ele><time>2026-04-18T09:01:45.001Z</time></trkpt><trkpt lat="42.95828635012579" lon="13.47110080039289"><ele>620.0</ele><time>2026-04-18T09:01:46.001Z</time></trkpt><trkpt lat="42.95832299328159" lon="13.47118130512573"><ele>620.0</ele><time>2026-04-18T09:01:47.001Z</time></trkpt><trkpt lat="42.95837398843822" lon="13.471281084025518"><ele>617.0</ele><time>2026-04-18T09:01:48.001Z</time></trkpt><trkpt lat="42.958439393171844" lon="13.47137624702967"><ele>614.0</ele><time>2026-04-18T09:01:49.001Z</time></trkpt><trkpt lat="42.95851277447886" lon="13.471422387704267"><ele>611.0</ele><time>2026-04-18T09:01:50.001Z</time></trkpt><trkpt lat="42.958578326167974" lon="13.47145773209161"><ele>608.0</ele><time>2026-04-18T09:01:51.001Z</time></trkpt><trkpt lat="42.9586504202552" lon="13.471453636486173"><ele>605.0</ele><time>2026-04-18T09:01:52.001Z</time></trkpt><trkpt lat="42.95874886806922" lon="13.47140782067662"><ele>602.0</ele><time>2026-04-18T09:01:53.001Z</time></trkpt><trkpt lat="42.958839104204614" lon="13.471338108551729"><ele>602.0</ele><time>2026-04-18T09:01:54.001Z</time></trkpt><trkpt lat="42.95895639514239" lon="13.471282352285927"><ele>602.0</ele><time>2026-04-18T09:01:55.001Z</time></trkpt><trkpt lat="42.959074029457646" lon="13.471193798556506"><ele>602.0</ele><time>2026-04-18T09:01:56.001Z</time></trkpt><trkpt lat="42.95920146058527" lon="13.471101616016917"><ele>602.0</ele><time>2026-04-18T09:01:57.001Z</time></trkpt><trkpt lat="42.959343956870995" lon="13.470980387645048"><ele>599.3333333333333</ele><time>2026-04-18T09:01:58.001Z</time></trkpt><trkpt lat="42.959490659904745" lon="13.470860025421839"><ele>596.6666666666666</ele><time>2026-04-18T09:01:59.001Z</time></trkpt><trkpt lat="42.95965161457377" lon="13.470721124236574"><ele>594.0</ele><time>2026-04-18T09:02:00.001Z</time></trkpt><trkpt lat="42.95980347222649" lon="13.470600387046897"><ele>594.0</ele><time>2026-04-18T09:02:01.001Z</time></trkpt><trkpt lat="42.959946508293406" lon="13.47049446583938"><ele>594.0</ele><time>2026-04-18T09:02:02.001Z</time></trkpt><trkpt lat="42.960084295202556" lon="13.470392432267928"><ele>594.0</ele><time>2026-04-18T09:02:03.001Z</time></trkpt><trkpt lat="42.96021775589571" lon="13.470291370152681"><ele>594.75</ele><time>2026-04-18T09:02:04.001Z</time></trkpt><trkpt lat="42.96035458744685" lon="13.470184807544854"><ele>595.5</ele><time>2026-04-18T09:02:05.001Z</time></trkpt><trkpt lat="42.96048753992598" lon="13.470088195665086"><ele>596.25</ele><time>2026-04-18T09:02:06.001Z</time></trkpt><trkpt lat="42.9606055005909" lon="13.470006519784118"><ele>597.0</ele><time>2026-04-18T09:02:07.001Z</time></trkpt><trkpt lat="42.96072073918432" lon="13.470000322299791"><ele>597.0</ele><time>2026-04-18T09:02:08.001Z</time></trkpt><trkpt lat="42.96081971069418" lon="13.469998670219981"><ele>597.0</ele><time>2026-04-18T09:02:09.001Z</time></trkpt><trkpt lat="42.96091890262357" lon="13.47000752592937"><ele>597.0</ele><time>2026-04-18T09:02:10.001Z</time></trkpt><trkpt lat="42.961022748878015" lon="13.470021332532477"><ele>597.0</ele><time>2026-04-18T09:02:11.001Z</time></trkpt><trkpt lat="42.96112539196168" lon="13.47001699329532"><ele>597.0</ele><time>2026-04-18T09:02:12.001Z</time></trkpt><trkpt lat="42.96126950555651" lon="13.469972143512722"><ele>591.0</ele><time>2026-04-18T09:02:13.001Z</time></trkpt><trkpt lat="42.961407307743414" lon="13.46988103662152"><ele>585.0</ele><time>2026-04-18T09:02:14.002Z</time></trkpt><trkpt lat="42.961551260097224" lon="13.469821307493172"><ele>579.0</ele><time>2026-04-18T09:02:15.002Z</time></trkpt><trkpt lat="42.96171795555003" lon="13.469727989423106"><ele>579.6666666666666</ele><time>2026-04-18T09:02:16.002Z</time></trkpt><trkpt lat="42.961884750539205" lon="13.469627974752612"><ele>580.3333333333333</ele><time>2026-04-18T09:02:17.002Z</time></trkpt><trkpt lat="42.96204204611019" lon="13.46953761633666"><ele>581.0</ele><time>2026-04-18T09:02:18.002Z</time></trkpt><trkpt lat="42.96219748115702" lon="13.469447412068408"><ele>581.0</ele><time>2026-04-18T09:02:19.002Z</time></trkpt><trkpt lat="42.96233921625108" lon="13.469365192731146"><ele>581.0</ele><time>2026-04-18T09:02:20.002Z</time></trkpt><trkpt lat="42.962474782473095" lon="13.469286299708616"><ele>581.0</ele><time>2026-04-18T09:02:21.002Z</time></trkpt><trkpt lat="42.962606829315845" lon="13.469205801178976"><ele>581.0</ele><time>2026-04-18T09:02:22.002Z</time></trkpt><trkpt lat="42.962740023720855" lon="13.469110086736487"><ele>578.5</ele><time>2026-04-18T09:02:23.002Z</time></trkpt><trkpt lat="42.96286431291396" lon="13.469003026164723"><ele>576.0</ele><time>2026-04-18T09:02:24.002Z</time></trkpt><trkpt lat="42.962985554946144" lon="13.468891359335482"><ele>573.5</ele><time>2026-04-18T09:02:25.002Z</time></trkpt><trkpt lat="42.963094607518535" lon="13.4687742253179"><ele>571.0</ele><time>2026-04-18T09:02:26.002Z</time></trkpt><trkpt lat="42.96319451772838" lon="13.468651335491437"><ele>571.0</ele><time>2026-04-18T09:02:27.002Z</time></trkpt><trkpt lat="42.96328614064475" lon="13.468538835428559"><ele>571.0</ele><time>2026-04-18T09:02:28.002Z</time></trkpt><trkpt lat="42.9633754179524" lon="13.46842744943331"><ele>571.0</ele><time>2026-04-18T09:02:29.002Z</time></trkpt><trkpt lat="42.96346419890504" lon="13.46831709033131"><ele>571.0</ele><time>2026-04-18T09:02:30.002Z</time></trkpt><trkpt lat="42.96354087814148" lon="13.468211574844847"><ele>568.1666666666667</ele><time>2026-04-18T09:02:31.002Z</time></trkpt><trkpt lat="42.963602093861624" lon="13.468112274430725"><ele>565.3333333333334</ele><time>2026-04-18T09:02:32.002Z</time></trkpt><trkpt lat="42.96362289583343" lon="13.468001624987883"><ele>562.5</ele><time>2026-04-18T09:02:33.002Z</time></trkpt><trkpt lat="42.96360166393816" lon="13.467888514646056"><ele>559.6666666666666</ele><time>2026-04-18T09:02:34.002Z</time></trkpt><trkpt lat="42.963590276397575" lon="13.467771004918292"><ele>556.8333333333333</ele><time>2026-04-18T09:02:35.002Z</time></trkpt><trkpt lat="42.96354183480327" lon="13.467665213212381"><ele>554.0</ele><time>2026-04-18T09:02:36.002Z</time></trkpt><trkpt lat="42.96345777564611" lon="13.467610766437293"><ele>553.4</ele><time>2026-04-18T09:02:37.002Z</time></trkpt><trkpt lat="42.963402009316724" lon="13.46753213732341"><ele>552.8</ele><time>2026-04-18T09:02:38.002Z</time></trkpt><trkpt lat="42.96334100212229" lon="13.46743085017398"><ele>552.2</ele><time>2026-04-18T09:02:39.002Z</time></trkpt><trkpt lat="42.963244913303654" lon="13.467330203102735"><ele>551.6</ele><time>2026-04-18T09:02:40.002Z</time></trkpt><trkpt lat="42.96315549269658" lon="13.46722801790846"><ele>551.0</ele><time>2026-04-18T09:02:41.002Z</time></trkpt><trkpt lat="42.96309465903752" lon="13.46712973890705"><ele>551.2</ele><time>2026-04-18T09:02:42.002Z</time></trkpt><trkpt lat="42.96306708623026" lon="13.467013398189346"><ele>551.4000000000001</ele><time>2026-04-18T09:02:43.002Z</time></trkpt><trkpt lat="42.963065961926766" lon="13.466873276896484"><ele>551.6</ele><time>2026-04-18T09:02:44.002Z</time></trkpt><trkpt lat="42.9630760430796" lon="13.466742971527912"><ele>551.8000000000001</ele><time>2026-04-18T09:02:45.002Z</time></trkpt><trkpt lat="42.96306109592864" lon="13.466628253055822"><ele>552.0</ele><time>2026-04-18T09:02:46.002Z</time></trkpt><trkpt lat="42.963009922101406" lon="13.466520806077417"><ele>552.0</ele><time>2026-04-18T09:02:47.002Z</time></trkpt><trkpt lat="42.96293315317405" lon="13.466452338554717"><ele>552.0</ele><time>2026-04-18T09:02:48.002Z</time></trkpt><trkpt lat="42.962845706072464" lon="13.466348785718182"><ele>552.0</ele><time>2026-04-18T09:02:49.002Z</time></trkpt><trkpt lat="42.96274029007627" lon="13.466213459675258"><ele>552.0</ele><time>2026-04-18T09:02:50.002Z</time></trkpt><trkpt lat="42.96263252364915" lon="13.466088871868841"><ele>553.25</ele><time>2026-04-18T09:02:50.999Z</time></trkpt><trkpt lat="42.962551526431724" lon="13.465927271808766"><ele>554.5</ele><time>2026-04-18T09:02:51.999Z</time></trkpt><trkpt lat="42.96245297817587" lon="13.465786620552956"><ele>555.75</ele><time>2026-04-18T09:02:52.999Z</time></trkpt><trkpt lat="42.962371086368556" lon="13.465624606613078"><ele>557.0</ele><time>2026-04-18T09:02:53.999Z</time></trkpt><trkpt lat="42.96230539188011" lon="13.465493812981979"><ele>555.2</ele><time>2026-04-18T09:02:54.999Z</time></trkpt><trkpt lat="42.96225314710654" lon="13.465383062586833"><ele>553.4000000000001</ele><time>2026-04-18T09:02:55.999Z</time></trkpt><trkpt lat="42.96223218002591" lon="13.465253122005553"><ele>551.5999999999999</ele><time>2026-04-18T09:02:56.999Z</time></trkpt><trkpt lat="42.962235537702455" lon="13.465090483134608"><ele>549.8</ele><time>2026-04-18T09:02:57.999Z</time></trkpt><trkpt lat="42.96225474286031" lon="13.464917729011583"><ele>548.0</ele><time>2026-04-18T09:02:58.999Z</time></trkpt><trkpt lat="42.962270799057436" lon="13.464768422864429"><ele>548.0</ele><time>2026-04-18T09:02:59.999Z</time></trkpt><trkpt lat="42.962311997689" lon="13.464639743114885"><ele>548.0</ele><time>2026-04-18T09:03:00.999Z</time></trkpt><trkpt lat="42.96234372087575" lon="13.464520253576701"><ele>548.0</ele><time>2026-04-18T09:03:01.999Z</time></trkpt><trkpt lat="42.962393273029654" lon="13.464417198081113"><ele>548.0</ele><time>2026-04-18T09:03:02.999Z</time></trkpt><trkpt lat="42.962478586827594" lon="13.464356059865036"><ele>548.0</ele><time>2026-04-18T09:03:03.999Z</time></trkpt><trkpt lat="42.962590340114865" lon="13.46432704248455"><ele>543.6666666666666</ele><time>2026-04-18T09:03:04.999Z</time></trkpt><trkpt lat="42.9627412149677" lon="13.464273653355322"><ele>539.3333333333334</ele><time>2026-04-18T09:03:05.999Z</time></trkpt><trkpt lat="42.96287946005628" lon="13.464220143840075"><ele>535.0</ele><time>2026-04-18T09:03:06.999Z</time></trkpt><trkpt lat="42.963037798785685" lon="13.464158713161101"><ele>535.0</ele><time>2026-04-18T09:03:08Z</time></trkpt><trkpt lat="42.96320130615423" lon="13.46407652192277"><ele>535.0</ele><time>2026-04-18T09:03:09Z</time></trkpt><trkpt lat="42.96336746157147" lon="13.464019830675303"><ele>535.0</ele><time>2026-04-18T09:03:10Z</time></trkpt><trkpt lat="42.96353578694258" lon="13.46399353321465"><ele>528.6666666666667</ele><time>2026-04-18T09:03:11Z</time></trkpt><trkpt lat="42.9636884315004" lon="13.463952818889581"><ele>522.3333333333334</ele><time>2026-04-18T09:03:12Z</time></trkpt><trkpt lat="42.96384430484931" lon="13.463893025595915"><ele>516.0</ele><time>2026-04-18T09:03:13Z</time></trkpt><trkpt lat="42.96399195256462" lon="13.463866110414042"><ele>516.0</ele><time>2026-04-18T09:03:14Z</time></trkpt><trkpt lat="42.96413897864405" lon="13.463834223754588"><ele>516.0</ele><time>2026-04-18T09:03:15Z</time></trkpt><trkpt lat="42.964280433685964" lon="13.463800037063256"><ele>516.0</ele><time>2026-04-18T09:03:16Z</time></trkpt><trkpt lat="42.96441706924634" lon="13.463764285570948"><ele>516.0</ele><time>2026-04-18T09:03:17Z</time></trkpt><trkpt lat="42.96454990072193" lon="13.463734986656346"><ele>513.25</ele><time>2026-04-18T09:03:18Z</time></trkpt><trkpt lat="42.96467216298586" lon="13.463712842548373"><ele>510.5</ele><time>2026-04-18T09:03:19Z</time></trkpt><trkpt lat="42.96478870290747" lon="13.463685423428478"><ele>507.75</ele><time>2026-04-18T09:03:20Z</time></trkpt><trkpt lat="42.96490230626497" lon="13.463662114222847"><ele>505.0</ele><time>2026-04-18T09:03:21Z</time></trkpt><trkpt lat="42.965009321878384" lon="13.4636373013164"><ele>503.00000000000006</ele><time>2026-04-18T09:03:22Z</time></trkpt><trkpt lat="42.96510971526409" lon="13.463616641372097"><ele>501.0</ele><time>2026-04-18T09:03:23Z</time></trkpt><trkpt lat="42.9651870469191" lon="13.463603568292111"><ele>499.0</ele><time>2026-04-18T09:03:24Z</time></trkpt><trkpt lat="42.9652116314091" lon="13.463507942540847"><ele>497.0</ele><time>2026-04-18T09:03:25Z</time></trkpt><trkpt lat="42.96517859155195" lon="13.463366041984987"><ele>495.00000000000006</ele><time>2026-04-18T09:03:27Z</time></trkpt><trkpt lat="42.965166748564386" lon="13.463276775286383"><ele>493.0</ele><time>2026-04-18T09:03:28Z</time></trkpt><trkpt lat="42.96511989907377" lon="13.463158218955307"><ele>493.0</ele><time>2026-04-18T09:03:29Z</time></trkpt><trkpt lat="42.96503910099699" lon="13.46301604430869"><ele>493.0</ele><time>2026-04-18T09:03:30Z</time></trkpt><trkpt lat="42.96492943446138" lon="13.462851616564103"><ele>493.0</ele><time>2026-04-18T09:03:31Z</time></trkpt><trkpt lat="42.96481337809946" lon="13.462697993737164"><ele>493.0</ele><time>2026-04-18T09:03:32Z</time></trkpt><trkpt lat="42.96468403723673" lon="13.462565209826014"><ele>493.0</ele><time>2026-04-18T09:03:33Z</time></trkpt><trkpt lat="42.96455648068922" lon="13.462434786467046"><ele>493.0</ele><time>2026-04-18T09:03:34Z</time></trkpt><trkpt lat="42.96445514767137" lon="13.46228748623013"><ele>493.0</ele><time>2026-04-18T09:03:35Z</time></trkpt><trkpt lat="42.96434861620907" lon="13.462174129631963"><ele>493.0</ele><time>2026-04-18T09:03:36Z</time></trkpt><trkpt lat="42.964267710490745" lon="13.462061222242857"><ele>493.0</ele><time>2026-04-18T09:03:37Z</time></trkpt><trkpt lat="42.964232415052166" lon="13.461919635948789"><ele>493.0</ele><time>2026-04-18T09:03:38Z</time></trkpt><trkpt lat="42.96419663257299" lon="13.461799026997678"><ele>492.59999999999997</ele><time>2026-04-18T09:03:39Z</time></trkpt><trkpt lat="42.96417731944415" lon="13.461693352164914"><ele>492.19999999999993</ele><time>2026-04-18T09:03:40Z</time></trkpt><trkpt lat="42.96421100695038" lon="13.461558970774078"><ele>491.8</ele><time>2026-04-18T09:03:42Z</time></trkpt><trkpt lat="42.9643170633915" lon="13.461516214418491"><ele>491.4</ele><time>2026-04-18T09:03:44.001Z</time></trkpt><trkpt lat="42.964445172314704" lon="13.46163235126255"><ele>491.0</ele><time>2026-04-18T09:03:46.001Z</time></trkpt><trkpt lat="42.96449539052638" lon="13.461764674219665"><ele>487.5</ele><time>2026-04-18T09:03:47.001Z</time></trkpt><trkpt lat="42.96457293195603" lon="13.461888581659075"><ele>484.0</ele><time>2026-04-18T09:03:48.001Z</time></trkpt><trkpt lat="42.964688214202816" lon="13.46194674270964"><ele>480.5</ele><time>2026-04-18T09:03:49.001Z</time></trkpt><trkpt lat="42.9648112017522" lon="13.4619936747512"><ele>477.0</ele><time>2026-04-18T09:03:50.001Z</time></trkpt><trkpt lat="42.96493428832172" lon="13.461979809510131"><ele>475.25</ele><time>2026-04-18T09:03:51.001Z</time></trkpt><trkpt lat="42.96503837178304" lon="13.46191506360263"><ele>473.5</ele><time>2026-04-18T09:03:52.001Z</time></trkpt><trkpt lat="42.965173274731924" lon="13.461859490275968"><ele>471.75</ele><time>2026-04-18T09:03:53.001Z</time></trkpt><trkpt lat="42.965318261169074" lon="13.461807947823855"><ele>470.0</ele><time>2026-04-18T09:03:54.001Z</time></trkpt><trkpt lat="42.96545790992228" lon="13.461771458242438"><ele>470.0</ele><time>2026-04-18T09:03:55.001Z</time></trkpt><trkpt lat="42.9655904437711" lon="13.461741235844757"><ele>470.0</ele><time>2026-04-18T09:03:56.001Z</time></trkpt><trkpt lat="42.9657144304687" lon="13.461771173814013"><ele>470.0</ele><time>2026-04-18T09:03:57.001Z</time></trkpt><trkpt lat="42.965833729681925" lon="13.461790013291461"><ele>470.0</ele><time>2026-04-18T09:03:58.001Z</time></trkpt><trkpt lat="42.96593497751498" lon="13.461775872256421"><ele>467.99999999999994</ele><time>2026-04-18T09:03:59.001Z</time></trkpt><trkpt lat="42.9660168779653" lon="13.46178648319092"><ele>466.0</ele><time>2026-04-18T09:04:00.001Z</time></trkpt><trkpt lat="42.9660806524788" lon="13.461736433818839"><ele>464.0</ele><time>2026-04-18T09:04:01.001Z</time></trkpt><trkpt lat="42.966132838432905" lon="13.461672774887909"><ele>462.0</ele><time>2026-04-18T09:04:02.001Z</time></trkpt><trkpt lat="42.96616677033071" lon="13.461574790089093"><ele>459.99999999999994</ele><time>2026-04-18T09:04:03.001Z</time></trkpt><trkpt lat="42.96617733619481" lon="13.461465467146276"><ele>458.0</ele><time>2026-04-18T09:04:04.001Z</time></trkpt><trkpt lat="42.96616875150613" lon="13.461359526316429"><ele>458.0</ele><time>2026-04-18T09:04:05.001Z</time></trkpt><trkpt lat="42.96610345322564" lon="13.461303199076736"><ele>457.99999999999994</ele><time>2026-04-18T09:04:06.001Z</time></trkpt><trkpt lat="42.96603080036552" lon="13.461207533897271"><ele>457.99999999999994</ele><time>2026-04-18T09:04:07.001Z</time></trkpt><trkpt lat="42.96595393413858" lon="13.461071674516592"><ele>458.0</ele><time>2026-04-18T09:04:08.001Z</time></trkpt><trkpt lat="42.96587934965916" lon="13.46093001930859"><ele>458.0</ele><time>2026-04-18T09:04:09.001Z</time></trkpt><trkpt lat="42.96582090043581" lon="13.460801648212549"><ele>458.66666666666663</ele><time>2026-04-18T09:04:10.001Z</time></trkpt><trkpt lat="42.96581889897298" lon="13.460653338632122"><ele>459.3333333333333</ele><time>2026-04-18T09:04:11.001Z</time></trkpt><trkpt lat="42.96583448399979" lon="13.460543315471154"><ele>460.0</ele><time>2026-04-18T09:04:12.001Z</time></trkpt><trkpt lat="42.96588916442956" lon="13.460489125550174"><ele>460.66666666666663</ele><time>2026-04-18T09:04:13.001Z</time></trkpt><trkpt lat="42.96595644026148" lon="13.460477334334774"><ele>461.3333333333333</ele><time>2026-04-18T09:04:14.001Z</time></trkpt><trkpt lat="42.96601393861469" lon="13.46051939683086"><ele>462.0</ele><time>2026-04-18T09:04:15.001Z</time></trkpt><trkpt lat="42.96610550308483" lon="13.460589530245889"><ele>458.0</ele><time>2026-04-18T09:04:16.001Z</time></trkpt><trkpt lat="42.96621885270828" lon="13.460722879470739"><ele>454.0</ele><time>2026-04-18T09:04:17.001Z</time></trkpt><trkpt lat="42.96636462471121" lon="13.460865279635057"><ele>450.0</ele><time>2026-04-18T09:04:18.001Z</time></trkpt><trkpt lat="42.96654716949065" lon="13.461031897180916"><ele>447.33333333333337</ele><time>2026-04-18T09:04:19.001Z</time></trkpt><trkpt lat="42.96672808360713" lon="13.461199809706063"><ele>444.6666666666667</ele><time>2026-04-18T09:04:20.001Z</time></trkpt><trkpt lat="42.96691438821837" lon="13.461375269224433"><ele>442.0</ele><time>2026-04-18T09:04:21.001Z</time></trkpt><trkpt lat="42.9670957207745" lon="13.461547878946815"><ele>442.0</ele><time>2026-04-18T09:04:22.001Z</time></trkpt><trkpt lat="42.96721596532112" lon="13.461672685764695"><ele>442.00000000000006</ele><time>2026-04-18T09:04:23.001Z</time></trkpt><trkpt lat="42.96730539469311" lon="13.461766538673858"><ele>442.00000000000006</ele><time>2026-04-18T09:04:24.001Z</time></trkpt><trkpt lat="42.967390006559356" lon="13.461851327982176"><ele>442.0</ele><time>2026-04-18T09:04:25.001Z</time></trkpt><trkpt lat="42.96745749755021" lon="13.461904548435731"><ele>442.0</ele><time>2026-04-18T09:04:26.001Z</time></trkpt><trkpt lat="42.96753363748228" lon="13.46187082319704"><ele>442.0</ele><time>2026-04-18T09:04:27.001Z</time></trkpt><trkpt lat="42.967584181379124" lon="13.461758247773249"><ele>442.00000000000006</ele><time>2026-04-18T09:04:29.002Z</time></trkpt><trkpt lat="42.96759656642656" lon="13.461596119942298"><ele>442.00000000000006</ele><time>2026-04-18T09:04:31.002Z</time></trkpt><trkpt lat="42.96756777155122" lon="13.461518454514128"><ele>442.0</ele><time>2026-04-18T09:04:32.002Z</time></trkpt><trkpt lat="42.96748942088975" lon="13.461418137184008"><ele>442.0</ele><time>2026-04-18T09:04:33.002Z</time></trkpt><trkpt lat="42.967382653122094" lon="13.461286026183412"><ele>438.75</ele><time>2026-04-18T09:04:34.002Z</time></trkpt><trkpt lat="42.967260365209945" lon="13.461155873802314"><ele>435.5</ele><time>2026-04-18T09:04:35.002Z</time></trkpt><trkpt lat="42.96717499960282" lon="13.461012375228982"><ele>432.25</ele><time>2026-04-18T09:04:36.002Z</time></trkpt><trkpt lat="42.967117120513706" lon="13.460852953259575"><ele>429.0</ele><time>2026-04-18T09:04:37.002Z</time></trkpt><trkpt lat="42.96706833981482" lon="13.460692410888955"><ele>429.0</ele><time>2026-04-18T09:04:38.002Z</time></trkpt><trkpt lat="42.967037847031875" lon="13.460529788534066"><ele>429.0</ele><time>2026-04-18T09:04:39.002Z</time></trkpt><trkpt lat="42.96701748685173" lon="13.460358690991878"><ele>429.0</ele><time>2026-04-18T09:04:40.002Z</time></trkpt><trkpt lat="42.96703424863874" lon="13.460201579986538"><ele>429.0</ele><time>2026-04-18T09:04:41.002Z</time></trkpt><trkpt lat="42.967064593388706" lon="13.460055740790898"><ele>426.75</ele><time>2026-04-18T09:04:42.002Z</time></trkpt><trkpt lat="42.96710315787427" lon="13.459917159077834"><ele>424.5</ele><time>2026-04-18T09:04:43.002Z</time></trkpt><trkpt lat="42.967148337721675" lon="13.459783696064964"><ele>422.25</ele><time>2026-04-18T09:04:44.002Z</time></trkpt><trkpt lat="42.96719781333136" lon="13.459640955472345"><ele>420.0</ele><time>2026-04-18T09:04:45.002Z</time></trkpt><trkpt lat="42.96726036595014" lon="13.459462280436458"><ele>419.75</ele><time>2026-04-18T09:04:46.002Z</time></trkpt><trkpt lat="42.96732004850076" lon="13.459283006293632"><ele>419.5</ele><time>2026-04-18T09:04:47.002Z</time></trkpt><trkpt lat="42.96736096463063" lon="13.459105194275814"><ele>419.25</ele><time>2026-04-18T09:04:48.002Z</time></trkpt><trkpt lat="42.967400522012014" lon="13.458958754340575"><ele>419.0</ele><time>2026-04-18T09:04:49.002Z</time></trkpt><trkpt lat="42.9674425634956" lon="13.458832617922882"><ele>418.79999999999995</ele><time>2026-04-18T09:04:50.002Z</time></trkpt><trkpt lat="42.96746667814215" lon="13.45871727240043"><ele>418.59999999999997</ele><time>2026-04-18T09:04:51.002Z</time></trkpt><trkpt lat="42.96748611380314" lon="13.458594583140544"><ele>418.4</ele><time>2026-04-18T09:04:52.002Z</time></trkpt><trkpt lat="42.96747266102338" lon="13.458470189424347"><ele>418.2</ele><time>2026-04-18T09:04:53.002Z</time></trkpt><trkpt lat="42.9674131282135" lon="13.45833894566294"><ele>418.0</ele><time>2026-04-18T09:04:54.002Z</time></trkpt><trkpt lat="42.967360559053986" lon="13.458154056701742"><ele>418.0</ele><time>2026-04-18T09:04:55.002Z</time></trkpt><trkpt lat="42.96727528316568" lon="13.457986673767001"><ele>418.0</ele><time>2026-04-18T09:04:56.002Z</time></trkpt><trkpt lat="42.96719833034953" lon="13.457808359919914"><ele>418.0</ele><time>2026-04-18T09:04:57Z</time></trkpt><trkpt lat="42.96712544699865" lon="13.457648151192082"><ele>418.0</ele><time>2026-04-18T09:04:58Z</time></trkpt><trkpt lat="42.96706182716215" lon="13.457490914118099"><ele>415.0</ele><time>2026-04-18T09:04:59Z</time></trkpt><trkpt lat="42.96699155162955" lon="13.457339472506487"><ele>412.0</ele><time>2026-04-18T09:05:00Z</time></trkpt><trkpt lat="42.966922618804496" lon="13.457198447774651"><ele>409.0</ele><time>2026-04-18T09:05:01Z</time></trkpt><trkpt lat="42.96684370601878" lon="13.45708134004474"><ele>406.0</ele><time>2026-04-18T09:05:02Z</time></trkpt><trkpt lat="42.966734607941625" lon="13.45696851934215"><ele>404.6666666666667</ele><time>2026-04-18T09:05:03Z</time></trkpt><trkpt lat="42.96659984005164" lon="13.456859548584502"><ele>403.33333333333337</ele><time>2026-04-18T09:05:04Z</time></trkpt><trkpt lat="42.96646434741369" lon="13.456761479104337"><ele>402.0</ele><time>2026-04-18T09:05:05Z</time></trkpt><trkpt lat="42.96632630432437" lon="13.456672322474724"><ele>402.0</ele><time>2026-04-18T09:05:06Z</time></trkpt><trkpt lat="42.966206920995496" lon="13.456589120143722"><ele>402.0</ele><time>2026-04-18T09:05:07Z</time></trkpt><trkpt lat="42.96610277378138" lon="13.456512858342089"><ele>402.0</ele><time>2026-04-18T09:05:08Z</time></trkpt><trkpt lat="42.965999709012806" lon="13.4564418535615"><ele>402.0</ele><time>2026-04-18T09:05:09Z</time></trkpt><trkpt lat="42.965946414729" lon="13.456348009568062"><ele>399.0</ele><time>2026-04-18T09:05:10Z</time></trkpt><trkpt lat="42.96593982047255" lon="13.456224626109382"><ele>396.0</ele><time>2026-04-18T09:05:12Z</time></trkpt><trkpt lat="42.96603046863522" lon="13.45620219300972"><ele>393.0</ele><time>2026-04-18T09:05:15Z</time></trkpt><trkpt lat="42.966132130994104" lon="13.45617851985801"><ele>390.0</ele><time>2026-04-18T09:05:16Z</time></trkpt><trkpt lat="42.96624746660715" lon="13.456194685648736"><ele>387.0</ele><time>2026-04-18T09:05:17Z</time></trkpt><trkpt lat="42.96636383897634" lon="13.456196046119716"><ele>387.0</ele><time>2026-04-18T09:05:18Z</time></trkpt><trkpt lat="42.96646173831549" lon="13.456181083690636"><ele>387.0</ele><time>2026-04-18T09:05:19Z</time></trkpt><trkpt lat="42.96654283352302" lon="13.456157311372323"><ele>387.0</ele><time>2026-04-18T09:05:20Z</time></trkpt><trkpt lat="42.96658125485364" lon="13.456077162669953"><ele>387.0</ele><time>2026-04-18T09:05:21Z</time></trkpt><trkpt lat="42.966571066633996" lon="13.455965962662297"><ele>387.0</ele><time>2026-04-18T09:05:22Z</time></trkpt><trkpt lat="42.966512272536775" lon="13.455861565569679"><ele>387.0</ele><time>2026-04-18T09:05:23Z</time></trkpt><trkpt lat="42.96639605851595" lon="13.455761439227322"><ele>387.0</ele><time>2026-04-18T09:05:24Z</time></trkpt><trkpt lat="42.96624768904338" lon="13.455659613981371"><ele>387.0</ele><time>2026-04-18T09:05:25Z</time></trkpt><trkpt lat="42.96610557195644" lon="13.455554011313023"><ele>387.0</ele><time>2026-04-18T09:05:26Z</time></trkpt><trkpt lat="42.96595190079061" lon="13.455451212315277"><ele>386.0</ele><time>2026-04-18T09:05:27Z</time></trkpt><trkpt lat="42.96577602609197" lon="13.4553414168928"><ele>385.0</ele><time>2026-04-18T09:05:28Z</time></trkpt><trkpt lat="42.96560585647627" lon="13.455243301196846"><ele>384.0</ele><time>2026-04-18T09:05:29Z</time></trkpt><trkpt lat="42.96546529858826" lon="13.455159337166275"><ele>384.0</ele><time>2026-04-18T09:05:30Z</time></trkpt><trkpt lat="42.96533554941517" lon="13.455098694500373"><ele>384.0</ele><time>2026-04-18T09:05:31Z</time></trkpt><trkpt lat="42.96520664810171" lon="13.45504232001295"><ele>384.0</ele><time>2026-04-18T09:05:32Z</time></trkpt><trkpt lat="42.96507454316101" lon="13.455029946911099"><ele>384.0</ele><time>2026-04-18T09:05:33Z</time></trkpt><trkpt lat="42.96494616045124" lon="13.455034426435333"><ele>384.0</ele><time>2026-04-18T09:05:34Z</time></trkpt><trkpt lat="42.96484670589482" lon="13.455029614615302"><ele>384.0</ele><time>2026-04-18T09:05:35Z</time></trkpt><trkpt lat="42.96479748370062" lon="13.454963101178334"><ele>384.0</ele><time>2026-04-18T09:05:36Z</time></trkpt><trkpt lat="42.96479704605828" lon="13.454808031713617"><ele>384.0</ele><time>2026-04-18T09:05:38Z</time></trkpt><trkpt lat="42.964782176843165" lon="13.454713512752988"><ele>384.0</ele><time>2026-04-18T09:05:39Z</time></trkpt><trkpt lat="42.964767113419484" lon="13.454589243286264"><ele>384.0</ele><time>2026-04-18T09:05:40.001Z</time></trkpt><trkpt lat="42.964746173380085" lon="13.454438576583248"><ele>384.0</ele><time>2026-04-18T09:05:41.001Z</time></trkpt><trkpt lat="42.964696352453366" lon="13.454263994595994"><ele>384.0</ele><time>2026-04-18T09:05:42.001Z</time></trkpt><trkpt lat="42.96464197277075" lon="13.454095093854356"><ele>384.0</ele><time>2026-04-18T09:05:43.001Z</time></trkpt><trkpt lat="42.96456345418914" lon="13.453899559002963"><ele>384.0</ele><time>2026-04-18T09:05:44.001Z</time></trkpt><trkpt lat="42.96448878484556" lon="13.453666780532108"><ele>384.0</ele><time>2026-04-18T09:05:45.001Z</time></trkpt><trkpt lat="42.964408292578234" lon="13.453406331025121"><ele>384.0</ele><time>2026-04-18T09:05:46.001Z</time></trkpt><trkpt lat="42.9643255599937" lon="13.453146748975687"><ele>384.0</ele><time>2026-04-18T09:05:47.001Z</time></trkpt><trkpt lat="42.96423759007402" lon="13.452871569221244"><ele>385.33333333333337</ele><time>2026-04-18T09:05:48.001Z</time></trkpt><trkpt lat="42.96415586997291" lon="13.452618367652367"><ele>386.6666666666667</ele><time>2026-04-18T09:05:49.001Z</time></trkpt><trkpt lat="42.96409404098119" lon="13.452353215292671"><ele>388.0</ele><time>2026-04-18T09:05:50.001Z</time></trkpt><trkpt lat="42.964020997493684" lon="13.45209516788383"><ele>388.5</ele><time>2026-04-18T09:05:51.001Z</time></trkpt><trkpt lat="42.96392762605725" lon="13.451813416161968"><ele>389.0</ele><time>2026-04-18T09:05:52.001Z</time></trkpt><trkpt lat="42.963853790167434" lon="13.451523760616608"><ele>388.0</ele><time>2026-04-18T09:05:53.001Z</time></trkpt><trkpt lat="42.96378527327157" lon="13.451255099658256"><ele>387.0</ele><time>2026-04-18T09:05:54.001Z</time></trkpt><trkpt lat="42.96372177348841" lon="13.450997085464502"><ele>386.0</ele><time>2026-04-18T09:05:55.001Z</time></trkpt><trkpt lat="42.96365967642098" lon="13.450762710350972"><ele>386.0</ele><time>2026-04-18T09:05:56.001Z</time></trkpt><trkpt lat="42.963598795876315" lon="13.450532544506132"><ele>386.0</ele><time>2026-04-18T09:05:57.001Z</time></trkpt><trkpt lat="42.963543613867586" lon="13.450322866861287"><ele>386.0</ele><time>2026-04-18T09:05:58.001Z</time></trkpt><trkpt lat="42.963493106995614" lon="13.450125416880484"><ele>386.66666666666663</ele><time>2026-04-18T09:05:59.001Z</time></trkpt><trkpt lat="42.963431587515636" lon="13.449924185650854"><ele>387.33333333333337</ele><time>2026-04-18T09:06:00.001Z</time></trkpt><trkpt lat="42.96336406867596" lon="13.449725728078262"><ele>388.0</ele><time>2026-04-18T09:06:01.001Z</time></trkpt><trkpt lat="42.9633048012071" lon="13.449542753737544"><ele>391.0</ele><time>2026-04-18T09:06:02.001Z</time></trkpt><trkpt lat="42.963276343529635" lon="13.44936044282939"><ele>394.0</ele><time>2026-04-18T09:06:03.001Z</time></trkpt><trkpt lat="42.96325535705168" lon="13.449190723341898"><ele>397.0</ele><time>2026-04-18T09:06:04.001Z</time></trkpt><trkpt lat="42.9632459868433" lon="13.449032664768781"><ele>400.0</ele><time>2026-04-18T09:06:05.001Z</time></trkpt><trkpt lat="42.96325365036702" lon="13.448875099998704"><ele>399.5</ele><time>2026-04-18T09:06:06.001Z</time></trkpt><trkpt lat="42.96326486894617" lon="13.44869548591664"><ele>399.0</ele><time>2026-04-18T09:06:07.001Z</time></trkpt><trkpt lat="42.96328125657511" lon="13.448494053921719"><ele>398.5</ele><time>2026-04-18T09:06:08.001Z</time></trkpt><trkpt lat="42.963297395075756" lon="13.448298990281904"><ele>398.0</ele><time>2026-04-18T09:06:09.001Z</time></trkpt><trkpt lat="42.963295543764346" lon="13.44812723800494"><ele>397.99999999999994</ele><time>2026-04-18T09:06:10.001Z</time></trkpt><trkpt lat="42.9632823272596" lon="13.447983052523789"><ele>398.0</ele><time>2026-04-18T09:06:11.001Z</time></trkpt><trkpt lat="42.96325819154211" lon="13.447869967807456"><ele>398.0</ele><time>2026-04-18T09:06:12.001Z</time></trkpt><trkpt lat="42.96324718593815" lon="13.447783533861761"><ele>398.0</ele><time>2026-04-18T09:06:13.001Z</time></trkpt><trkpt lat="42.963201675087475" lon="13.447673373814633"><ele>397.99999999999994</ele><time>2026-04-18T09:06:15.001Z</time></trkpt><trkpt lat="42.9631506156284" lon="13.447578765093182"><ele>398.0</ele><time>2026-04-18T09:06:17.001Z</time></trkpt><trkpt lat="42.963069823329874" lon="13.447541914958183"><ele>398.49999999999994</ele><time>2026-04-18T09:06:18.001Z</time></trkpt><trkpt lat="42.963038271353774" lon="13.447466778889241"><ele>399.0</ele><time>2026-04-18T09:06:19.001Z</time></trkpt><trkpt lat="42.96305171056758" lon="13.44738260713185"><ele>399.5</ele><time>2026-04-18T09:06:20.001Z</time></trkpt><trkpt lat="42.963069035751325" lon="13.44728977003468"><ele>400.0</ele><time>2026-04-18T09:06:21.001Z</time></trkpt><trkpt lat="42.96307654893852" lon="13.447185639409392"><ele>400.49999999999994</ele><time>2026-04-18T09:06:22.001Z</time></trkpt><trkpt lat="42.9630835111361" lon="13.447048212014204"><ele>401.0</ele><time>2026-04-18T09:06:23.001Z</time></trkpt><trkpt lat="42.963071941399676" lon="13.446913286323317"><ele>401.4</ele><time>2026-04-18T09:06:24.002Z</time></trkpt><trkpt lat="42.96305044566008" lon="13.446820398876957"><ele>401.8</ele><time>2026-04-18T09:06:25.002Z</time></trkpt><trkpt lat="42.962925166022416" lon="13.446742919459428"><ele>402.2</ele><time>2026-04-18T09:06:27.002Z</time></trkpt><trkpt lat="42.962855366049276" lon="13.446766135251178"><ele>402.59999999999997</ele><time>2026-04-18T09:06:28.002Z</time></trkpt><trkpt lat="42.9627437956649" lon="13.446789150275427"><ele>403.0</ele><time>2026-04-18T09:06:30.002Z</time></trkpt><trkpt lat="42.96271100498096" lon="13.446674027301023"><ele>403.0</ele><time>2026-04-18T09:06:32.002Z</time></trkpt><trkpt lat="42.962731498514636" lon="13.446464491580958"><ele>403.0</ele><time>2026-04-18T09:06:34.002Z</time></trkpt><trkpt lat="42.962739554071035" lon="13.446311930266658"><ele>403.0</ele><time>2026-04-18T09:06:35.002Z</time></trkpt><trkpt lat="42.962760794446815" lon="13.446142426034648"><ele>403.0</ele><time>2026-04-18T09:06:36.002Z</time></trkpt><trkpt lat="42.96279177593768" lon="13.445934521988315"><ele>404.0</ele><time>2026-04-18T09:06:37.002Z</time></trkpt><trkpt lat="42.96282624526346" lon="13.445713654629348"><ele>405.0</ele><time>2026-04-18T09:06:38.002Z</time></trkpt><trkpt lat="42.962857171000365" lon="13.445445232295551"><ele>406.0</ele><time>2026-04-18T09:06:39.002Z</time></trkpt><trkpt lat="42.962835302552925" lon="13.445041648863732"><ele>406.5</ele><time>2026-04-18T09:06:40.002Z</time></trkpt><trkpt lat="42.96284929941234" lon="13.444706092996354"><ele>407.0</ele><time>2026-04-18T09:06:41.002Z</time></trkpt><trkpt lat="42.962876184775205" lon="13.44437610526988"><ele>407.0</ele><time>2026-04-18T09:06:42.002Z</time></trkpt><trkpt lat="42.962902467415155" lon="13.444092399511998"><ele>407.0</ele><time>2026-04-18T09:06:43.002Z</time></trkpt><trkpt lat="42.96293398268706" lon="13.443834769656588"><ele>407.0</ele><time>2026-04-18T09:06:44.002Z</time></trkpt><trkpt lat="42.96297526808131" lon="13.443601956945002"><ele>407.3333333333333</ele><time>2026-04-18T09:06:45.002Z</time></trkpt><trkpt lat="42.96299999019415" lon="13.443372704103657"><ele>407.66666666666663</ele><time>2026-04-18T09:06:46.002Z</time></trkpt><trkpt lat="42.963011078680715" lon="13.443123107830997"><ele>408.0</ele><time>2026-04-18T09:06:47.002Z</time></trkpt><trkpt lat="42.96300045096005" lon="13.442841855266893"><ele>408.33333333333337</ele><time>2026-04-18T09:06:48.002Z</time></trkpt><trkpt lat="42.96297872317627" lon="13.442541933093644"><ele>408.6666666666667</ele><time>2026-04-18T09:06:49.002Z</time></trkpt><trkpt lat="42.96295910124126" lon="13.442260045237251"><ele>409.0</ele><time>2026-04-18T09:06:50.002Z</time></trkpt><trkpt lat="42.96293931690864" lon="13.44196402265182"><ele>409.0</ele><time>2026-04-18T09:06:51.002Z</time></trkpt><trkpt lat="42.96292125965326" lon="13.441664020847895"><ele>409.0</ele><time>2026-04-18T09:06:52.002Z</time></trkpt><trkpt lat="42.96290666769551" lon="13.441400919064991"><ele>409.0</ele><time>2026-04-18T09:06:53.002Z</time></trkpt><trkpt lat="42.962889984258375" lon="13.44113460538308"><ele>410.0</ele><time>2026-04-18T09:06:54.002Z</time></trkpt><trkpt lat="42.96287161102104" lon="13.440892721415272"><ele>411.0</ele><time>2026-04-18T09:06:55.002Z</time></trkpt><trkpt lat="42.96286094053413" lon="13.44067477884126"><ele>412.0</ele><time>2026-04-18T09:06:56.002Z</time></trkpt><trkpt lat="42.96285348115991" lon="13.44047633917643"><ele>412.0</ele><time>2026-04-18T09:06:57.002Z</time></trkpt><trkpt lat="42.962885676554876" lon="13.440304399050902"><ele>412.0</ele><time>2026-04-18T09:06:58.002Z</time></trkpt><trkpt lat="42.96291266737138" lon="13.440135604005977"><ele>412.0</ele><time>2026-04-18T09:06:59.002Z</time></trkpt><trkpt lat="42.962939940280705" lon="13.439970851805178"><ele>412.0</ele><time>2026-04-18T09:07:00.002Z</time></trkpt><trkpt lat="42.96296775603034" lon="13.439803279929675"><ele>412.0</ele><time>2026-04-18T09:07:01.002Z</time></trkpt><trkpt lat="42.96299053353231" lon="13.439624733770051"><ele>412.0</ele><time>2026-04-18T09:07:02.002Z</time></trkpt><trkpt lat="42.963008545087206" lon="13.439457113508087"><ele>412.0</ele><time>2026-04-18T09:07:03Z</time></trkpt><trkpt lat="42.96299233542314" lon="13.439313666700855"><ele>412.0</ele><time>2026-04-18T09:07:04Z</time></trkpt><trkpt lat="42.96297029269977" lon="13.439156307777479"><ele>412.0</ele><time>2026-04-18T09:07:05Z</time></trkpt><trkpt lat="42.96291820381502" lon="13.438962741657063"><ele>412.0</ele><time>2026-04-18T09:07:06Z</time></trkpt><trkpt lat="42.96286101920842" lon="13.438768741699029"><ele>412.0</ele><time>2026-04-18T09:07:07Z</time></trkpt><trkpt lat="42.96281430746407" lon="13.438591827630134"><ele>412.0</ele><time>2026-04-18T09:07:08Z</time></trkpt><trkpt lat="42.962767961973" lon="13.43841299793716"><ele>411.75</ele><time>2026-04-18T09:07:09Z</time></trkpt><trkpt lat="42.962725815696245" lon="13.438244694541197"><ele>411.5</ele><time>2026-04-18T09:07:10Z</time></trkpt><trkpt lat="42.962682109100726" lon="13.438074511135103"><ele>411.25</ele><time>2026-04-18T09:07:11Z</time></trkpt><trkpt lat="42.962639811200816" lon="13.437905495261978"><ele>411.0</ele><time>2026-04-18T09:07:12Z</time></trkpt><trkpt lat="42.96260546555303" lon="13.43774560899199"><ele>411.0</ele><time>2026-04-18T09:07:13Z</time></trkpt><trkpt lat="42.96259565523638" lon="13.43758445575254"><ele>411.0</ele><time>2026-04-18T09:07:14Z</time></trkpt><trkpt lat="42.96262289188239" lon="13.437439733183396"><ele>411.0</ele><time>2026-04-18T09:07:15Z</time></trkpt><trkpt lat="42.96267130444122" lon="13.43729376916763"><ele>411.0</ele><time>2026-04-18T09:07:16Z</time></trkpt><trkpt lat="42.96272688413101" lon="13.43713283124927"><ele>410.8</ele><time>2026-04-18T09:07:17Z</time></trkpt><trkpt lat="42.96277134105276" lon="13.436971799681768"><ele>410.6</ele><time>2026-04-18T09:07:18Z</time></trkpt><trkpt lat="42.96275922024787" lon="13.436814211222615"><ele>410.4</ele><time>2026-04-18T09:07:19Z</time></trkpt><trkpt lat="42.96275012276967" lon="13.4366824019339"><ele>410.2</ele><time>2026-04-18T09:07:20Z</time></trkpt><trkpt lat="42.96270126911324" lon="13.436583153937354"><ele>410.0</ele><time>2026-04-18T09:07:21Z</time></trkpt><trkpt lat="42.962635201635976" lon="13.4364974408172"><ele>410.0</ele><time>2026-04-18T09:07:22Z</time></trkpt><trkpt lat="42.96255291685343" lon="13.436405650354516"><ele>410.0</ele><time>2026-04-18T09:07:23Z</time></trkpt><trkpt lat="42.96243914683882" lon="13.436268003649422"><ele>410.0</ele><time>2026-04-18T09:07:24Z</time></trkpt><trkpt lat="42.9623345284366" lon="13.436115577927833"><ele>410.0</ele><time>2026-04-18T09:07:25Z</time></trkpt><trkpt lat="42.96221177315641" lon="13.435919640908276"><ele>412.3333333333333</ele><time>2026-04-18T09:07:26Z</time></trkpt><trkpt lat="42.962094490503226" lon="13.435735786735513"><ele>414.66666666666663</ele><time>2026-04-18T09:07:27Z</time></trkpt><trkpt lat="42.9619834513479" lon="13.435544886353759"><ele>417.0</ele><time>2026-04-18T09:07:28Z</time></trkpt><trkpt lat="42.96188606854792" lon="13.435374006247418"><ele>417.0</ele><time>2026-04-18T09:07:29Z</time></trkpt><trkpt lat="42.96179359292814" lon="13.435219477945612"><ele>417.0</ele><time>2026-04-18T09:07:30Z</time></trkpt><trkpt lat="42.961673250021214" lon="13.435100689034204"><ele>417.0</ele><time>2026-04-18T09:07:31Z</time></trkpt><trkpt lat="42.96153335032757" lon="13.435006933603438"><ele>417.33333333333337</ele><time>2026-04-18T09:07:32Z</time></trkpt><trkpt lat="42.96137512344449" lon="13.434923916121472"><ele>417.6666666666667</ele><time>2026-04-18T09:07:33Z</time></trkpt><trkpt lat="42.96122189798143" lon="13.434834654634242"><ele>418.0</ele><time>2026-04-18T09:07:34Z</time></trkpt><trkpt lat="42.9610531388028" lon="13.434738268184006"><ele>418.0</ele><time>2026-04-18T09:07:35Z</time></trkpt><trkpt lat="42.96088197168565" lon="13.434641887926153"><ele>418.0</ele><time>2026-04-18T09:07:36Z</time></trkpt><trkpt lat="42.960733458674625" lon="13.43455703908897"><ele>418.0</ele><time>2026-04-18T09:07:37Z</time></trkpt><trkpt lat="42.960604433952994" lon="13.434482253057798"><ele>418.0</ele><time>2026-04-18T09:07:38Z</time></trkpt><trkpt lat="42.96051013932299" lon="13.434359304565215"><ele>418.0</ele><time>2026-04-18T09:07:39Z</time></trkpt><trkpt lat="42.96040098924771" lon="13.43424119919885"><ele>418.0</ele><time>2026-04-18T09:07:40Z</time></trkpt><trkpt lat="42.96028431919225" lon="13.434090972287503"><ele>418.0</ele><time>2026-04-18T09:07:41.001Z</time></trkpt><trkpt lat="42.960167566909085" lon="13.433946355991443"><ele>418.0</ele><time>2026-04-18T09:07:42.001Z</time></trkpt><trkpt lat="42.96006290596044" lon="13.433811193955327"><ele>418.0</ele><time>2026-04-18T09:07:43.001Z</time></trkpt><trkpt lat="42.9600292695949" lon="13.433651865817788"><ele>418.0</ele><time>2026-04-18T09:07:44.001Z</time></trkpt><trkpt lat="42.96002081726219" lon="13.433515377730975"><ele>418.0</ele><time>2026-04-18T09:07:45.001Z</time></trkpt><trkpt lat="42.960026805794065" lon="13.433372769924036"><ele>419.0</ele><time>2026-04-18T09:07:46.001Z</time></trkpt><trkpt lat="42.96002422572055" lon="13.433182716388771"><ele>420.0</ele><time>2026-04-18T09:07:47.001Z</time></trkpt><trkpt lat="42.960008219079576" lon="13.432988287081365"><ele>421.0</ele><time>2026-04-18T09:07:48.001Z</time></trkpt><trkpt lat="42.95996820863799" lon="13.432796888547461"><ele>422.0</ele><time>2026-04-18T09:07:49.001Z</time></trkpt><trkpt lat="42.959891857708946" lon="13.432619300551277"><ele>422.0</ele><time>2026-04-18T09:07:50.001Z</time></trkpt><trkpt lat="42.95981831956358" lon="13.432448857085552"><ele>422.0</ele><time>2026-04-18T09:07:51.001Z</time></trkpt><trkpt lat="42.95973498945056" lon="13.432294725605992"><ele>422.0</ele><time>2026-04-18T09:07:52.001Z</time></trkpt><trkpt lat="42.95966247668752" lon="13.432153363029375"><ele>422.0</ele><time>2026-04-18T09:07:53.001Z</time></trkpt><trkpt lat="42.95963624364029" lon="13.431992736915355"><ele>422.40000000000003</ele><time>2026-04-18T09:07:54.001Z</time></trkpt><trkpt lat="42.959654230772" lon="13.431862723448868"><ele>422.8</ele><time>2026-04-18T09:07:55.001Z</time></trkpt><trkpt lat="42.95968916205076" lon="13.43172103131274"><ele>423.2</ele><time>2026-04-18T09:07:56.001Z</time></trkpt><trkpt lat="42.959749559847545" lon="13.43161504607783"><ele>423.6</ele><time>2026-04-18T09:07:57.001Z</time></trkpt><trkpt lat="42.959821618261486" lon="13.431462602725105"><ele>424.0</ele><time>2026-04-18T09:07:58.001Z</time></trkpt><trkpt lat="42.959891262332235" lon="13.431292039976169"><ele>423.75</ele><time>2026-04-18T09:07:59.001Z</time></trkpt><trkpt lat="42.959960594429766" lon="13.431122241206793"><ele>423.5</ele><time>2026-04-18T09:08:00.001Z</time></trkpt><trkpt lat="42.96003556848363" lon="13.430979264745655"><ele>423.25</ele><time>2026-04-18T09:08:01.001Z</time></trkpt><trkpt lat="42.96012261735156" lon="13.430884360750525"><ele>423.0</ele><time>2026-04-18T09:08:02.001Z</time></trkpt><trkpt lat="42.96024877332031" lon="13.43075242103088"><ele>423.0</ele><time>2026-04-18T09:08:03.001Z</time></trkpt><trkpt lat="42.960354303110954" lon="13.430607750717233"><ele>423.0</ele><time>2026-04-18T09:08:04.001Z</time></trkpt><trkpt lat="42.96041775826308" lon="13.430463554223575"><ele>423.0</ele><time>2026-04-18T09:08:05.001Z</time></trkpt><trkpt lat="42.960448177513335" lon="13.430326183871063"><ele>423.0</ele><time>2026-04-18T09:08:06.001Z</time></trkpt><trkpt lat="42.960431142977946" lon="13.430192542587786"><ele>424.2</ele><time>2026-04-18T09:08:07.001Z</time></trkpt><trkpt lat="42.96039552506288" lon="13.430089962721182"><ele>425.4</ele><time>2026-04-18T09:08:08.001Z</time></trkpt><trkpt lat="42.960342639094385" lon="13.42999390869733"><ele>426.59999999999997</ele><time>2026-04-18T09:08:09.001Z</time></trkpt><trkpt lat="42.96024809573131" lon="13.429940967741198"><ele>427.79999999999995</ele><time>2026-04-18T09:08:10.001Z</time></trkpt><trkpt lat="42.96013011589129" lon="13.429887390394873"><ele>429.0</ele><time>2026-04-18T09:08:11.001Z</time></trkpt><trkpt lat="42.95998336309762" lon="13.429799486158998"><ele>430.0</ele><time>2026-04-18T09:08:12.001Z</time></trkpt><trkpt lat="42.959882473908245" lon="13.429683167169205"><ele>431.0</ele><time>2026-04-18T09:08:13.001Z</time></trkpt><trkpt lat="42.9597906544882" lon="13.4295589873327"><ele>432.0</ele><time>2026-04-18T09:08:14.001Z</time></trkpt><trkpt lat="42.95970176366791" lon="13.429408004482562"><ele>433.0</ele><time>2026-04-18T09:08:15.001Z</time></trkpt><trkpt lat="42.959598426155154" lon="13.429266485034917"><ele>433.0</ele><time>2026-04-18T09:08:16.001Z</time></trkpt><trkpt lat="42.959549954512696" lon="13.429106282293503"><ele>433.0</ele><time>2026-04-18T09:08:17.001Z</time></trkpt><trkpt lat="42.95952628514449" lon="13.42894127724869"><ele>433.0</ele><time>2026-04-18T09:08:18.001Z</time></trkpt><trkpt lat="42.9595056288348" lon="13.428741579582404"><ele>433.0</ele><time>2026-04-18T09:08:19.001Z</time></trkpt><trkpt lat="42.95948842314132" lon="13.428547592614335"><ele>433.6666666666667</ele><time>2026-04-18T09:08:20.001Z</time></trkpt><trkpt lat="42.959467475121976" lon="13.428306147990742"><ele>434.33333333333337</ele><time>2026-04-18T09:08:21.001Z</time></trkpt><trkpt lat="42.95944374550386" lon="13.428028660266262"><ele>435.0</ele><time>2026-04-18T09:08:22.001Z</time></trkpt><trkpt lat="42.959415733543544" lon="13.427727444390285"><ele>438.0</ele><time>2026-04-18T09:08:23.001Z</time></trkpt><trkpt lat="42.95938766467313" lon="13.427402070279186"><ele>441.0</ele><time>2026-04-18T09:08:24.001Z</time></trkpt><trkpt lat="42.959353640037556" lon="13.427025430589152"><ele>443.0</ele><time>2026-04-18T09:08:25.002Z</time></trkpt><trkpt lat="42.95932538443751" lon="13.42671339097944"><ele>445.0</ele><time>2026-04-18T09:08:26.002Z</time></trkpt><trkpt lat="42.95930070857594" lon="13.426403305592844"><ele>445.6666666666667</ele><time>2026-04-18T09:08:27.002Z</time></trkpt><trkpt lat="42.95925733558712" lon="13.426137902823314"><ele>446.33333333333337</ele><time>2026-04-18T09:08:28.002Z</time></trkpt><trkpt lat="42.95923772507003" lon="13.425896030472872"><ele>447.0</ele><time>2026-04-18T09:08:29.002Z</time></trkpt><trkpt lat="42.95921792551588" lon="13.425662570430635"><ele>449.33333333333337</ele><time>2026-04-18T09:08:30.002Z</time></trkpt><trkpt lat="42.959188030412186" lon="13.42543389490753"><ele>451.6666666666667</ele><time>2026-04-18T09:08:31.002Z</time></trkpt><trkpt lat="42.959144704074326" lon="13.425223692375077"><ele>454.0</ele><time>2026-04-18T09:08:32.002Z</time></trkpt><trkpt lat="42.95909189873122" lon="13.425013042903316"><ele>454.0</ele><time>2026-04-18T09:08:33.002Z</time></trkpt><trkpt lat="42.959025313964126" lon="13.424806781371798"><ele>454.0</ele><time>2026-04-18T09:08:34.002Z</time></trkpt><trkpt lat="42.95896264246866" lon="13.424586340361722"><ele>454.0</ele><time>2026-04-18T09:08:35.002Z</time></trkpt><trkpt lat="42.95890711938827" lon="13.424392488796316"><ele>454.25</ele><time>2026-04-18T09:08:36.002Z</time></trkpt><trkpt lat="42.95885860190645" lon="13.424223392258527"><ele>454.5</ele><time>2026-04-18T09:08:37.002Z</time></trkpt><trkpt lat="42.958817897778005" lon="13.424074214592027"><ele>454.75</ele><time>2026-04-18T09:08:38.002Z</time></trkpt><trkpt lat="42.958788960454164" lon="13.42394348419748"><ele>455.0</ele><time>2026-04-18T09:08:39.002Z</time></trkpt><trkpt lat="42.95875010762519" lon="13.423800088213872"><ele>455.0</ele><time>2026-04-18T09:08:40.002Z</time></trkpt><trkpt lat="42.95871015426322" lon="13.423629527107083"><ele>455.0</ele><time>2026-04-18T09:08:41.002Z</time></trkpt><trkpt lat="42.95865909686247" lon="13.423452259243343"><ele>455.0</ele><time>2026-04-18T09:08:42.002Z</time></trkpt><trkpt lat="42.95860742178657" lon="13.423270373042762"><ele>455.0</ele><time>2026-04-18T09:08:43.002Z</time></trkpt><trkpt lat="42.958557056982904" lon="13.423114327119563"><ele>454.2</ele><time>2026-04-18T09:08:44.002Z</time></trkpt><trkpt lat="42.95851156916831" lon="13.422968684837835"><ele>453.4</ele><time>2026-04-18T09:08:45.002Z</time></trkpt><trkpt lat="42.95849210858631" lon="13.422830213533054"><ele>452.6</ele><time>2026-04-18T09:08:46.002Z</time></trkpt><trkpt lat="42.958485456205544" lon="13.422709121004821"><ele>451.8</ele><time>2026-04-18T09:08:47.002Z</time></trkpt><trkpt lat="42.9584926340228" lon="13.422598050163051"><ele>451.0</ele><time>2026-04-18T09:08:48.002Z</time></trkpt><trkpt lat="42.95852965766484" lon="13.422479289446107"><ele>451.0</ele><time>2026-04-18T09:08:49.002Z</time></trkpt><trkpt lat="42.95856994124266" lon="13.422345110437963"><ele>451.0</ele><time>2026-04-18T09:08:50.002Z</time></trkpt><trkpt lat="42.958615122946" lon="13.422181275219737"><ele>451.0</ele><time>2026-04-18T09:08:51.002Z</time></trkpt><trkpt lat="42.9586738372548" lon="13.421968369571255"><ele>451.0</ele><time>2026-04-18T09:08:52.002Z</time></trkpt><trkpt lat="42.9587317012931" lon="13.421762385703778"><ele>450.6666666666667</ele><time>2026-04-18T09:08:53.002Z</time></trkpt><trkpt lat="42.95878990769374" lon="13.421557538357648"><ele>450.33333333333337</ele><time>2026-04-18T09:08:54.002Z</time></trkpt><trkpt lat="42.95884968555254" lon="13.421347160334632"><ele>450.0</ele><time>2026-04-18T09:08:55.002Z</time></trkpt><trkpt lat="42.95891110657748" lon="13.421130999644374"><ele>450.0</ele><time>2026-04-18T09:08:56.002Z</time></trkpt><trkpt lat="42.958956186129676" lon="13.420918077169256"><ele>450.0</ele><time>2026-04-18T09:08:57.002Z</time></trkpt><trkpt lat="42.95900401340154" lon="13.420730605968865"><ele>450.0</ele><time>2026-04-18T09:08:58.002Z</time></trkpt><trkpt lat="42.959045838938124" lon="13.42053810568417"><ele>449.0</ele><time>2026-04-18T09:08:59.002Z</time></trkpt><trkpt lat="42.95903371823902" lon="13.420321745796961"><ele>448.0</ele><time>2026-04-18T09:09:00.002Z</time></trkpt><trkpt lat="42.95902798729041" lon="13.420072231439757"><ele>447.0</ele><time>2026-04-18T09:09:01.002Z</time></trkpt><trkpt lat="42.959044507195976" lon="13.419829219168738"><ele>446.0</ele><time>2026-04-18T09:09:02.002Z</time></trkpt><trkpt lat="42.959044401526484" lon="13.419590475465338"><ele>445.0</ele><time>2026-04-18T09:09:03.002Z</time></trkpt><trkpt lat="42.95904810681365" lon="13.419374230544504"><ele>444.0</ele><time>2026-04-18T09:09:04.002Z</time></trkpt><trkpt lat="42.95903619128516" lon="13.41918511143578"><ele>444.0</ele><time>2026-04-18T09:09:05.002Z</time></trkpt><trkpt lat="42.95899884614882" lon="13.41903455342711"><ele>444.0</ele><time>2026-04-18T09:09:06.002Z</time></trkpt><trkpt lat="42.95894882012057" lon="13.418889481926959"><ele>444.0</ele><time>2026-04-18T09:09:07.002Z</time></trkpt><trkpt lat="42.95887314141241" lon="13.418747811486385"><ele>444.0</ele><time>2026-04-18T09:09:08.002Z</time></trkpt><trkpt lat="42.95879954859005" lon="13.418591230924553"><ele>442.5</ele><time>2026-04-18T09:09:09Z</time></trkpt><trkpt lat="42.95874077757374" lon="13.418411480675488"><ele>441.0</ele><time>2026-04-18T09:09:10Z</time></trkpt><trkpt lat="42.95866909299655" lon="13.41825223018528"><ele>439.5</ele><time>2026-04-18T09:09:11Z</time></trkpt><trkpt lat="42.95866107656617" lon="13.418082951934466"><ele>438.0</ele><time>2026-04-18T09:09:12Z</time></trkpt><trkpt lat="42.95863833012309" lon="13.417899856800387"><ele>437.66666666666663</ele><time>2026-04-18T09:09:13Z</time></trkpt><trkpt lat="42.95858700422169" lon="13.417713814744271"><ele>437.3333333333333</ele><time>2026-04-18T09:09:14Z</time></trkpt><trkpt lat="42.95854090284138" lon="13.417518090431265"><ele>437.0</ele><time>2026-04-18T09:09:15Z</time></trkpt><trkpt lat="42.95845060040599" lon="13.417343374850983"><ele>437.0</ele><time>2026-04-18T09:09:16Z</time></trkpt><trkpt lat="42.9583701665494" lon="13.417158081746852"><ele>437.0</ele><time>2026-04-18T09:09:17Z</time></trkpt><trkpt lat="42.9583006572854" lon="13.416991843427127"><ele>437.0</ele><time>2026-04-18T09:09:18Z</time></trkpt><trkpt lat="42.958246380699144" lon="13.416818803146315"><ele>437.0</ele><time>2026-04-18T09:09:19Z</time></trkpt><trkpt lat="42.958190613303636" lon="13.416665271474562"><ele>437.6</ele><time>2026-04-18T09:09:20Z</time></trkpt><trkpt lat="42.958143717651524" lon="13.416517330532574"><ele>438.20000000000005</ele><time>2026-04-18T09:09:21Z</time></trkpt><trkpt lat="42.9581059685242" lon="13.41638698959587"><ele>438.8</ele><time>2026-04-18T09:09:22Z</time></trkpt><trkpt lat="42.95807856213447" lon="13.416282611161984"><ele>439.4</ele><time>2026-04-18T09:09:23Z</time></trkpt><trkpt lat="42.958050574736475" lon="13.41617731067985"><ele>440.0</ele><time>2026-04-18T09:09:24Z</time></trkpt><trkpt lat="42.9580242870563" lon="13.416068833899235"><ele>440.0</ele><time>2026-04-18T09:09:25Z</time></trkpt><trkpt lat="42.95799916459464" lon="13.415947498770189"><ele>440.0</ele><time>2026-04-18T09:09:26Z</time></trkpt><trkpt lat="42.95797129843932" lon="13.415836578098451"><ele>440.0</ele><time>2026-04-18T09:09:27Z</time></trkpt><trkpt lat="42.957935384609755" lon="13.415725020187939"><ele>440.0</ele><time>2026-04-18T09:09:28Z</time></trkpt><trkpt lat="42.957858281802686" lon="13.41563302994023"><ele>440.0</ele><time>2026-04-18T09:09:29Z</time></trkpt><trkpt lat="42.95777896145436" lon="13.415533726659072"><ele>440.2</ele><time>2026-04-18T09:09:30Z</time></trkpt><trkpt lat="42.95769735244788" lon="13.415453225114456"><ele>440.4</ele><time>2026-04-18T09:09:31Z</time></trkpt><trkpt lat="42.95762586668757" lon="13.415387159099359"><ele>440.6</ele><time>2026-04-18T09:09:32Z</time></trkpt><trkpt lat="42.95756509832502" lon="13.415319106288333"><ele>440.8</ele><time>2026-04-18T09:09:33Z</time></trkpt><trkpt lat="42.95748129521333" lon="13.415270222312827"><ele>441.0</ele><time>2026-04-18T09:09:34Z</time></trkpt><trkpt lat="42.957398788914226" lon="13.415203223667142"><ele>443.20000000000005</ele><time>2026-04-18T09:09:35Z</time></trkpt><trkpt lat="42.95731705387288" lon="13.415125421987005"><ele>445.40000000000003</ele><time>2026-04-18T09:09:36Z</time></trkpt><trkpt lat="42.95723273867441" lon="13.41505211184859"><ele>447.6</ele><time>2026-04-18T09:09:37Z</time></trkpt><trkpt lat="42.95714137638586" lon="13.414984210984718"><ele>449.8</ele><time>2026-04-18T09:09:38Z</time></trkpt><trkpt lat="42.957047596318475" lon="13.41492360064649"><ele>452.0</ele><time>2026-04-18T09:09:39Z</time></trkpt><trkpt lat="42.956930591876144" lon="13.414849594238348"><ele>452.0</ele><time>2026-04-18T09:09:40Z</time></trkpt><trkpt lat="42.95679241627293" lon="13.414755805765964"><ele>452.0</ele><time>2026-04-18T09:09:41Z</time></trkpt><trkpt lat="42.95667642457105" lon="13.414672939499958"><ele>452.0</ele><time>2026-04-18T09:09:42Z</time></trkpt><trkpt lat="42.956563615021174" lon="13.414605744737832"><ele>452.0</ele><time>2026-04-18T09:09:43Z</time></trkpt><trkpt lat="42.95647144031808" lon="13.414533155471746"><ele>451.40000000000003</ele><time>2026-04-18T09:09:44Z</time></trkpt><trkpt lat="42.95638360698122" lon="13.414463417744228"><ele>450.80000000000007</ele><time>2026-04-18T09:09:45Z</time></trkpt><trkpt lat="42.956288766987136" lon="13.41440680980992"><ele>450.2</ele><time>2026-04-18T09:09:46Z</time></trkpt><trkpt lat="42.95617284990515" lon="13.414390873747289"><ele>449.6</ele><time>2026-04-18T09:09:47Z</time></trkpt><trkpt lat="42.95604702891427" lon="13.414360121991237"><ele>449.0</ele><time>2026-04-18T09:09:48Z</time></trkpt><trkpt lat="42.955909859490944" lon="13.414314043783863"><ele>449.79999999999995</ele><time>2026-04-18T09:09:49Z</time></trkpt><trkpt lat="42.955783411200606" lon="13.414285862401426"><ele>450.59999999999997</ele><time>2026-04-18T09:09:50Z</time></trkpt><trkpt lat="42.95567760013741" lon="13.4142659235652"><ele>451.4</ele><time>2026-04-18T09:09:51Z</time></trkpt><trkpt lat="42.95557447727395" lon="13.41424370693228"><ele>452.2</ele><time>2026-04-18T09:09:52Z</time></trkpt><trkpt lat="42.955486127316426" lon="13.41422435423312"><ele>453.0</ele><time>2026-04-18T09:09:53.001Z</time></trkpt><trkpt lat="42.95540581012038" lon="13.414202620942334"><ele>453.0</ele><time>2026-04-18T09:09:54.001Z</time></trkpt><trkpt lat="42.955344473925614" lon="13.414137624468609"><ele>453.0</ele><time>2026-04-18T09:09:55.001Z</time></trkpt><trkpt lat="42.95531057540854" lon="13.41406367940018"><ele>453.0</ele><time>2026-04-18T09:09:56.001Z</time></trkpt><trkpt lat="42.95525218970289" lon="13.41398059768426"><ele>453.0</ele><time>2026-04-18T09:09:57.001Z</time></trkpt><trkpt lat="42.955179041184124" lon="13.413883164546933"><ele>453.0</ele><time>2026-04-18T09:09:58.001Z</time></trkpt><trkpt lat="42.95508114205937" lon="13.413790601427486"><ele>453.0</ele><time>2026-04-18T09:09:59.001Z</time></trkpt><trkpt lat="42.95496159816109" lon="13.413689606716527"><ele>452.25</ele><time>2026-04-18T09:10:00.001Z</time></trkpt><trkpt lat="42.95484216986581" lon="13.413598574241128"><ele>451.5</ele><time>2026-04-18T09:10:01.001Z</time></trkpt><trkpt lat="42.95472667364192" lon="13.413521932915147"><ele>450.75</ele><time>2026-04-18T09:10:02.001Z</time></trkpt><trkpt lat="42.954622783206844" lon="13.413445779216348"><ele>450.0</ele><time>2026-04-18T09:10:03.001Z</time></trkpt><trkpt lat="42.9545311533077" lon="13.41337982567159"><ele>450.0</ele><time>2026-04-18T09:10:04.001Z</time></trkpt><trkpt lat="42.95444823588417" lon="13.413306466727148"><ele>450.0</ele><time>2026-04-18T09:10:05.001Z</time></trkpt><trkpt lat="42.954395000704515" lon="13.41320537074086"><ele>450.0</ele><time>2026-04-18T09:10:06.001Z</time></trkpt><trkpt lat="42.95435252642884" lon="13.413107874377356"><ele>450.0</ele><time>2026-04-18T09:10:07.001Z</time></trkpt><trkpt lat="42.95432776451648" lon="13.413005587207437"><ele>450.0</ele><time>2026-04-18T09:10:08.001Z</time></trkpt><trkpt lat="42.954276628162326" lon="13.412873761673863"><ele>449.8</ele><time>2026-04-18T09:10:10.001Z</time></trkpt><trkpt lat="42.95436340174257" lon="13.41276071682154"><ele>449.6</ele><time>2026-04-18T09:10:12.001Z</time></trkpt><trkpt lat="42.95440592814126" lon="13.41268727121228"><ele>449.4</ele><time>2026-04-18T09:10:13.001Z</time></trkpt><trkpt lat="42.954446942053984" lon="13.412616439538308"><ele>449.2</ele><time>2026-04-18T09:10:14.001Z</time></trkpt><trkpt lat="42.954520396467316" lon="13.412483885041226"><ele>449.0</ele><time>2026-04-18T09:10:16.001Z</time></trkpt><trkpt lat="42.95460741421422" lon="13.412377469126296"><ele>448.99999999999994</ele><time>2026-04-18T09:10:18.001Z</time></trkpt><trkpt lat="42.954664807669765" lon="13.412323828540044"><ele>449.0</ele><time>2026-04-18T09:10:20.001Z</time></trkpt><trkpt lat="42.95478909999572" lon="13.41230340100383"><ele>449.0</ele><time>2026-04-18T09:10:23.001Z</time></trkpt><trkpt lat="42.95486478102738" lon="13.412307812779556"><ele>449.0</ele><time>2026-04-18T09:10:24.001Z</time></trkpt><trkpt lat="42.954943102505645" lon="13.41235708915392"><ele>448.99999999999994</ele><time>2026-04-18T09:10:25.001Z</time></trkpt><trkpt lat="42.95500883082122" lon="13.412380910365778"><ele>449.0</ele><time>2026-04-18T09:10:26.001Z</time></trkpt><trkpt lat="42.95508385320381" lon="13.412420238681726"><ele>449.71428571428567</ele><time>2026-04-18T09:10:27.001Z</time></trkpt><trkpt lat="42.95516026617448" lon="13.412455339082147"><ele>450.4285714285714</ele><time>2026-04-18T09:10:28.001Z</time></trkpt><trkpt lat="42.95523060166154" lon="13.412487112520596"><ele>451.1428571428571</ele><time>2026-04-18T09:10:29.001Z</time></trkpt><trkpt lat="42.9552983103262" lon="13.412514861295767"><ele>451.8571428571429</ele><time>2026-04-18T09:10:30.001Z</time></trkpt><trkpt lat="42.95536978055689" lon="13.412544151687719"><ele>452.5714285714286</ele><time>2026-04-18T09:10:31.001Z</time></trkpt><trkpt lat="42.95543786044681" lon="13.41257205261017"><ele>453.28571428571433</ele><time>2026-04-18T09:10:32.001Z</time></trkpt><trkpt lat="42.955507409925985" lon="13.41258476584465"><ele>454.0</ele><time>2026-04-18T09:10:33.001Z</time></trkpt><trkpt lat="42.95556964772901" lon="13.412610117362076"><ele>454.0</ele><time>2026-04-18T09:10:34.001Z</time></trkpt><trkpt lat="42.95563061231221" lon="13.41263252645395"><ele>454.0</ele><time>2026-04-18T09:10:35.002Z</time></trkpt><trkpt lat="42.95573363741059" lon="13.412677903150279"><ele>454.0</ele><time>2026-04-18T09:10:37.002Z</time></trkpt><trkpt lat="42.95579798478766" lon="13.412684533439988"><ele>454.0</ele><time>2026-04-18T09:10:39.002Z</time></trkpt><trkpt lat="42.955801522364595" lon="13.412488424657212"><ele>454.0</ele><time>2026-04-18T09:10:40.002Z</time></trkpt><trkpt lat="42.955819713622795" lon="13.412390003614249"><ele>454.0</ele><time>2026-04-18T09:10:41.002Z</time></trkpt><trkpt lat="42.955851727017794" lon="13.412298193853026"><ele>454.0</ele><time>2026-04-18T09:10:42.002Z</time></trkpt><trkpt lat="42.95585092102554" lon="13.412186536145677"><ele>454.0</ele><time>2026-04-18T09:10:44.002Z</time></trkpt><trkpt lat="42.955852481082296" lon="13.412072299857599"><ele>454.0</ele><time>2026-04-18T09:10:47.002Z</time></trkpt><trkpt lat="42.95591393490676" lon="13.41192360590169"><ele>454.0</ele><time>2026-04-18T09:10:51.002Z</time></trkpt><trkpt lat="42.95594240153102" lon="13.411798446806591"><ele>454.83333333333337</ele><time>2026-04-18T09:10:53.002Z</time></trkpt><trkpt lat="42.95596323109311" lon="13.411714116324248"><ele>455.6666666666667</ele><time>2026-04-18T09:10:54.002Z</time></trkpt><trkpt lat="42.95598692803712" lon="13.411618275019363"><ele>456.5</ele><time>2026-04-18T09:10:55.002Z</time></trkpt><trkpt lat="42.956015801824" lon="13.411449102327207"><ele>457.33333333333337</ele><time>2026-04-18T09:10:57.002Z</time></trkpt><trkpt lat="42.9560415639949" lon="13.41135797546599"><ele>458.1666666666667</ele><time>2026-04-18T09:10:58.002Z</time></trkpt><trkpt lat="42.95606162922821" lon="13.411262897577716"><ele>459.0</ele><time>2026-04-18T09:10:59.002Z</time></trkpt><trkpt lat="42.956095762355375" lon="13.411175583309436"><ele>460.6666666666667</ele><time>2026-04-18T09:11:00.002Z</time></trkpt><trkpt lat="42.956120173472215" lon="13.411074769610089"><ele>462.33333333333337</ele><time>2026-04-18T09:11:01.002Z</time></trkpt><trkpt lat="42.956136261128904" lon="13.410937816219178"><ele>464.0</ele><time>2026-04-18T09:11:02.002Z</time></trkpt><trkpt lat="42.956175641612184" lon="13.410810121798601"><ele>465.6666666666667</ele><time>2026-04-18T09:11:03.002Z</time></trkpt><trkpt lat="42.95620423703985" lon="13.410721592701641"><ele>467.33333333333337</ele><time>2026-04-18T09:11:04.002Z</time></trkpt><trkpt lat="42.956236827775534" lon="13.410625168345957"><ele>469.0</ele><time>2026-04-18T09:11:05.002Z</time></trkpt><trkpt lat="42.956298247737465" lon="13.41056530963959"><ele>469.00000000000006</ele><time>2026-04-18T09:11:06.002Z</time></trkpt><trkpt lat="42.9563571662355" lon="13.410505743748125"><ele>469.0</ele><time>2026-04-18T09:11:07.002Z</time></trkpt><trkpt lat="42.95641435078741" lon="13.410437929293105"><ele>469.0</ele><time>2026-04-18T09:11:08.002Z</time></trkpt><trkpt lat="42.95647994030716" lon="13.410361292834828"><ele>469.0</ele><time>2026-04-18T09:11:09.002Z</time></trkpt><trkpt lat="42.95654477337712" lon="13.410288849459484"><ele>469.00000000000006</ele><time>2026-04-18T09:11:10.002Z</time></trkpt><trkpt lat="42.95659927627086" lon="13.410228497496952"><ele>469.0</ele><time>2026-04-18T09:11:11.002Z</time></trkpt><trkpt lat="42.956644108402536" lon="13.410165503846157"><ele>471.2</ele><time>2026-04-18T09:11:13.002Z</time></trkpt><trkpt lat="42.95653684380035" lon="13.41004778079812"><ele>473.4</ele><time>2026-04-18T09:11:14.002Z</time></trkpt><trkpt lat="42.95647055614249" lon="13.40997601841468"><ele>475.6</ele><time>2026-04-18T09:11:14.999Z</time></trkpt><trkpt lat="42.956405739069375" lon="13.409890399973056"><ele>477.8</ele><time>2026-04-18T09:11:15.999Z</time></trkpt><trkpt lat="42.95631695472291" lon="13.40980735659472"><ele>480.0</ele><time>2026-04-18T09:11:17Z</time></trkpt><trkpt lat="42.95622340331055" lon="13.409727631011272"><ele>480.2</ele><time>2026-04-18T09:11:17.999Z</time></trkpt><trkpt lat="42.95613328404632" lon="13.40964489770148"><ele>480.4</ele><time>2026-04-18T09:11:18.999Z</time></trkpt><trkpt lat="42.95604493740014" lon="13.409562474393727"><ele>480.6</ele><time>2026-04-18T09:11:20Z</time></trkpt><trkpt lat="42.955963860619015" lon="13.40947952124261"><ele>480.8</ele><time>2026-04-18T09:11:21Z</time></trkpt><trkpt lat="42.955872120895044" lon="13.40938649661213"><ele>481.0</ele><time>2026-04-18T09:11:21.999Z</time></trkpt><trkpt lat="42.955772799513326" lon="13.40927379492715"><ele>481.0</ele><time>2026-04-18T09:11:23Z</time></trkpt><trkpt lat="42.95567062031665" lon="13.409135665029117"><ele>481.0</ele><time>2026-04-18T09:11:24Z</time></trkpt><trkpt lat="42.95557706131088" lon="13.40900267185156"><ele>481.0</ele><time>2026-04-18T09:11:25Z</time></trkpt><trkpt lat="42.955483474575956" lon="13.408894448459925"><ele>481.0</ele><time>2026-04-18T09:11:26Z</time></trkpt><trkpt lat="42.955387954822655" lon="13.408775189231012"><ele>482.33333333333337</ele><time>2026-04-18T09:11:27Z</time></trkpt><trkpt lat="42.955283433177655" lon="13.408646342565229"><ele>483.66666666666663</ele><time>2026-04-18T09:11:28Z</time></trkpt><trkpt lat="42.955167067392054" lon="13.408499233521704"><ele>485.0</ele><time>2026-04-18T09:11:29Z</time></trkpt><trkpt lat="42.955031976982944" lon="13.408336409616762"><ele>485.0</ele><time>2026-04-18T09:11:30Z</time></trkpt><trkpt lat="42.95491159652127" lon="13.408179437617529"><ele>485.0</ele><time>2026-04-18T09:11:31Z</time></trkpt><trkpt lat="42.95479461878546" lon="13.408032960402139"><ele>485.0</ele><time>2026-04-18T09:11:32Z</time></trkpt><trkpt lat="42.954683605241236" lon="13.407890777014085"><ele>488.75</ele><time>2026-04-18T09:11:33Z</time></trkpt><trkpt lat="42.954569686579575" lon="13.407745155008783"><ele>492.5</ele><time>2026-04-18T09:11:34Z</time></trkpt><trkpt lat="42.9544636630619" lon="13.407613760157234"><ele>496.25</ele><time>2026-04-18T09:11:35Z</time></trkpt><trkpt lat="42.95436888823187" lon="13.407502943044136"><ele>500.0</ele><time>2026-04-18T09:11:36Z</time></trkpt><trkpt lat="42.95428453797582" lon="13.40739117003363"><ele>500.0</ele><time>2026-04-18T09:11:37Z</time></trkpt><trkpt lat="42.95419641923234" lon="13.407283621651528"><ele>500.0</ele><time>2026-04-18T09:11:38Z</time></trkpt><trkpt lat="42.95411218133397" lon="13.407213663932078"><ele>500.0</ele><time>2026-04-18T09:11:39Z</time></trkpt><trkpt lat="42.95403510020347" lon="13.40713998783068"><ele>500.0</ele><time>2026-04-18T09:11:40Z</time></trkpt><trkpt lat="42.95395699111351" lon="13.40708846644993"><ele>500.0</ele><time>2026-04-18T09:11:41Z</time></trkpt><trkpt lat="42.953878528143655" lon="13.407035880946808"><ele>499.99999999999994</ele><time>2026-04-18T09:11:42Z</time></trkpt><trkpt lat="42.95382141252658" lon="13.406953031607797"><ele>500.0</ele><time>2026-04-18T09:11:43Z</time></trkpt><trkpt lat="42.95376647795128" lon="13.406882882233914"><ele>500.0</ele><time>2026-04-18T09:11:44Z</time></trkpt><trkpt lat="42.9537248726704" lon="13.406805758813107"><ele>500.0</ele><time>2026-04-18T09:11:45Z</time></trkpt><trkpt lat="42.95368767304457" lon="13.406704192901813"><ele>499.99999999999994</ele><time>2026-04-18T09:11:46Z</time></trkpt><trkpt lat="42.953636109310516" lon="13.406601435784863"><ele>500.0</ele><time>2026-04-18T09:11:47Z</time></trkpt><trkpt lat="42.95355114531521" lon="13.40650425729067"><ele>500.0</ele><time>2026-04-18T09:11:48Z</time></trkpt><trkpt lat="42.95343736855589" lon="13.406447091282788"><ele>500.0</ele><time>2026-04-18T09:11:49Z</time></trkpt><trkpt lat="42.95334177388554" lon="13.406388939454391"><ele>500.0</ele><time>2026-04-18T09:11:50Z</time></trkpt><trkpt lat="42.953271311131694" lon="13.406312763991973"><ele>500.0</ele><time>2026-04-18T09:11:51Z</time></trkpt><trkpt lat="42.95320239442542" lon="13.406248012515192"><ele>500.0</ele><time>2026-04-18T09:11:52Z</time></trkpt><trkpt lat="42.95314851437191" lon="13.406185658689601"><ele>500.99999999999994</ele><time>2026-04-18T09:11:53Z</time></trkpt><trkpt lat="42.953101781477564" lon="13.406111760368118"><ele>502.0</ele><time>2026-04-18T09:11:54Z</time></trkpt><trkpt lat="42.953065039798766" lon="13.40603438496798"><ele>503.0</ele><time>2026-04-18T09:11:55Z</time></trkpt><trkpt lat="42.95302798744346" lon="13.405955890696845"><ele>504.0</ele><time>2026-04-18T09:11:56Z</time></trkpt><trkpt lat="42.95303085157988" lon="13.405803917786457"><ele>504.99999999999994</ele><time>2026-04-18T09:11:58Z</time></trkpt><trkpt lat="42.95309288943375" lon="13.405724798761975"><ele>506.0</ele><time>2026-04-18T09:12:00Z</time></trkpt><trkpt lat="42.95318062149525" lon="13.405742001915803"><ele>506.0</ele><time>2026-04-18T09:12:02.001Z</time></trkpt><trkpt lat="42.953266715144174" lon="13.405754993175842"><ele>506.0</ele><time>2026-04-18T09:12:03.001Z</time></trkpt><trkpt lat="42.953352861407595" lon="13.405771616805294"><ele>506.0</ele><time>2026-04-18T09:12:04.001Z</time></trkpt><trkpt lat="42.95345595961248" lon="13.405793575349904"><ele>506.0</ele><time>2026-04-18T09:12:05.001Z</time></trkpt><trkpt lat="42.953572265874705" lon="13.405798095245919"><ele>506.0</ele><time>2026-04-18T09:12:06.001Z</time></trkpt><trkpt lat="42.95368654608225" lon="13.405824699416945"><ele>508.75</ele><time>2026-04-18T09:12:07.001Z</time></trkpt><trkpt lat="42.95381971088066" lon="13.405845466737842"><ele>511.5</ele><time>2026-04-18T09:12:08.001Z</time></trkpt><trkpt lat="42.95396573791651" lon="13.40583986745162"><ele>514.25</ele><time>2026-04-18T09:12:09.001Z</time></trkpt><trkpt lat="42.95411134629032" lon="13.405829435201621"><ele>517.0</ele><time>2026-04-18T09:12:10.001Z</time></trkpt><trkpt lat="42.95423305347136" lon="13.40582532444895"><ele>520.8000000000001</ele><time>2026-04-18T09:12:11.001Z</time></trkpt><trkpt lat="42.95435209591684" lon="13.40586143013734"><ele>524.6</ele><time>2026-04-18T09:12:12.001Z</time></trkpt><trkpt lat="42.954447683083856" lon="13.405906986562998"><ele>528.4000000000001</ele><time>2026-04-18T09:12:13.001Z</time></trkpt><trkpt lat="42.954542007049085" lon="13.405966756226215"><ele>532.2</ele><time>2026-04-18T09:12:14.001Z</time></trkpt><trkpt lat="42.95462886600678" lon="13.406031809607159"><ele>536.0</ele><time>2026-04-18T09:12:15.001Z</time></trkpt><trkpt lat="42.95472394239999" lon="13.406101195383416"><ele>536.0</ele><time>2026-04-18T09:12:16.001Z</time></trkpt><trkpt lat="42.95480851237282" lon="13.406118433267242"><ele>536.0</ele><time>2026-04-18T09:12:17.001Z</time></trkpt><trkpt lat="42.9549070026062" lon="13.406123767913078"><ele>536.0</ele><time>2026-04-18T09:12:19.001Z</time></trkpt><trkpt lat="42.954973252973474" lon="13.406160065358735"><ele>536.0</ele><time>2026-04-18T09:12:20.001Z</time></trkpt><trkpt lat="42.955049905534466" lon="13.406203937391414"><ele>536.0</ele><time>2026-04-18T09:12:21.001Z</time></trkpt><trkpt lat="42.955143472048555" lon="13.406250747870871"><ele>536.0</ele><time>2026-04-18T09:12:22.001Z</time></trkpt><trkpt lat="42.955240906465576" lon="13.406299910905659"><ele>539.25</ele><time>2026-04-18T09:12:23.001Z</time></trkpt><trkpt lat="42.955348048017285" lon="13.406324978742239"><ele>542.5</ele><time>2026-04-18T09:12:24.001Z</time></trkpt><trkpt lat="42.95546936247414" lon="13.406384928186176"><ele>545.75</ele><time>2026-04-18T09:12:25.001Z</time></trkpt><trkpt lat="42.95559280923355" lon="13.40643936286041"><ele>549.0</ele><time>2026-04-18T09:12:26.001Z</time></trkpt><trkpt lat="42.95574161308137" lon="13.406508052956985"><ele>552.6</ele><time>2026-04-18T09:12:27.001Z</time></trkpt><trkpt lat="42.95587526687189" lon="13.406599507732366"><ele>556.2</ele><time>2026-04-18T09:12:28.001Z</time></trkpt><trkpt lat="42.95599290670982" lon="13.40663512580544"><ele>559.8000000000001</ele><time>2026-04-18T09:12:29.001Z</time></trkpt><trkpt lat="42.95607317265927" lon="13.406681870942903"><ele>563.4</ele><time>2026-04-18T09:12:30.001Z</time></trkpt><trkpt lat="42.95615202564276" lon="13.406662818989647"><ele>567.0</ele><time>2026-04-18T09:12:32.001Z</time></trkpt><trkpt lat="42.956155887492955" lon="13.40654156673789"><ele>567.0</ele><time>2026-04-18T09:12:34.001Z</time></trkpt><trkpt lat="42.95612648155375" lon="13.406463709753199"><ele>567.0</ele><time>2026-04-18T09:12:35.001Z</time></trkpt><trkpt lat="42.956061499024756" lon="13.40637838267148"><ele>567.0</ele><time>2026-04-18T09:12:36.001Z</time></trkpt><trkpt lat="42.95599237393465" lon="13.406299827956326"><ele>567.0</ele><time>2026-04-18T09:12:37.001Z</time></trkpt><trkpt lat="42.95589201328477" lon="13.40621302706103"><ele>567.0</ele><time>2026-04-18T09:12:38.001Z</time></trkpt><trkpt lat="42.955839718885706" lon="13.40607704602132"><ele>565.8000000000001</ele><time>2026-04-18T09:12:39.001Z</time></trkpt><trkpt lat="42.95582950285786" lon="13.4059767431282"><ele>564.6</ele><time>2026-04-18T09:12:40.001Z</time></trkpt><trkpt lat="42.955844376739456" lon="13.405886327614544"><ele>563.4000000000001</ele><time>2026-04-18T09:12:41.002Z</time></trkpt><trkpt lat="42.955958551949166" lon="13.405800164695457"><ele>562.2</ele><time>2026-04-18T09:12:42.002Z</time></trkpt><trkpt lat="42.95602776353948" lon="13.405672189982615"><ele>561.0</ele><time>2026-04-18T09:12:43.002Z</time></trkpt><trkpt lat="42.956064160670245" lon="13.405526213839375"><ele>558.8</ele><time>2026-04-18T09:12:44.002Z</time></trkpt><trkpt lat="42.95610400252698" lon="13.405368076256986"><ele>556.6</ele><time>2026-04-18T09:12:45.002Z</time></trkpt><trkpt lat="42.95614979925446" lon="13.405216626084503"><ele>554.4</ele><time>2026-04-18T09:12:46.002Z</time></trkpt><trkpt lat="42.95619030878618" lon="13.405089798262662"><ele>552.2</ele><time>2026-04-18T09:12:47.002Z</time></trkpt><trkpt lat="42.95620088948162" lon="13.404951914790539"><ele>550.0</ele><time>2026-04-18T09:12:48.002Z</time></trkpt><trkpt lat="42.956176490842864" lon="13.404819482365037"><ele>550.0</ele><time>2026-04-18T09:12:49.002Z</time></trkpt><trkpt lat="42.956119309547" lon="13.404683129943091"><ele>550.0</ele><time>2026-04-18T09:12:50.002Z</time></trkpt><trkpt lat="42.95605381399653" lon="13.404564610801092"><ele>550.0</ele><time>2026-04-18T09:12:51.002Z</time></trkpt><trkpt lat="42.955981529483864" lon="13.404462485345906"><ele>550.0</ele><time>2026-04-18T09:12:52.002Z</time></trkpt><trkpt lat="42.955893675675" lon="13.404369496571835"><ele>550.0</ele><time>2026-04-18T09:12:53.002Z</time></trkpt><trkpt lat="42.95577904247674" lon="13.40425429115423"><ele>552.0</ele><time>2026-04-18T09:12:54.002Z</time></trkpt><trkpt lat="42.955648031305316" lon="13.404142731576208"><ele>554.0</ele><time>2026-04-18T09:12:55.002Z</time></trkpt><trkpt lat="42.95551278730801" lon="13.40400413455871"><ele>556.0</ele><time>2026-04-18T09:12:56.002Z</time></trkpt><trkpt lat="42.95535957754337" lon="13.403877959441347"><ele>558.0</ele><time>2026-04-18T09:12:57.002Z</time></trkpt><trkpt lat="42.95519765956938" lon="13.403755367983562"><ele>560.0</ele><time>2026-04-18T09:12:58.002Z</time></trkpt><trkpt lat="42.955057109826484" lon="13.403631265404577"><ele>562.0</ele><time>2026-04-18T09:12:59.002Z</time></trkpt><trkpt lat="42.95492589984253" lon="13.40352282294282"><ele>562.0</ele><time>2026-04-18T09:13:00.002Z</time></trkpt><trkpt lat="42.954821169207946" lon="13.403369706043568"><ele>562.0</ele><time>2026-04-18T09:13:01.002Z</time></trkpt><trkpt lat="42.9547191577102" lon="13.403256304694835"><ele>562.0</ele><time>2026-04-18T09:13:02.002Z</time></trkpt><trkpt lat="42.95461605260621" lon="13.40314989322019"><ele>562.0</ele><time>2026-04-18T09:13:03.002Z</time></trkpt><trkpt lat="42.954504107639316" lon="13.403049518232915"><ele>557.3333333333334</ele><time>2026-04-18T09:13:04.002Z</time></trkpt><trkpt lat="42.954359710982814" lon="13.402977218160936"><ele>552.6666666666666</ele><time>2026-04-18T09:13:05.002Z</time></trkpt><trkpt lat="42.9542194041994" lon="13.4028955005161"><ele>548.0</ele><time>2026-04-18T09:13:06.002Z</time></trkpt><trkpt lat="42.95409419939083" lon="13.402769409686432"><ele>553.6</ele><time>2026-04-18T09:13:07.002Z</time></trkpt><trkpt lat="42.953972906519915" lon="13.402638340557356"><ele>559.1999999999999</ele><time>2026-04-18T09:13:08.002Z</time></trkpt><trkpt lat="42.953883890866436" lon="13.402534353050907"><ele>564.8</ele><time>2026-04-18T09:13:09.002Z</time></trkpt><trkpt lat="42.95382532234342" lon="13.40244404838299"><ele>570.4</ele><time>2026-04-18T09:13:10.002Z</time></trkpt><trkpt lat="42.95379256657056" lon="13.402350204037651"><ele>576.0</ele><time>2026-04-18T09:13:11.002Z</time></trkpt><trkpt lat="42.95381371322438" lon="13.402258315041228"><ele>574.4</ele><time>2026-04-18T09:13:12.002Z</time></trkpt><trkpt lat="42.953812531492666" lon="13.402135475019067"><ele>572.8</ele><time>2026-04-18T09:13:13.002Z</time></trkpt><trkpt lat="42.953804726887384" lon="13.40200036370715"><ele>571.1999999999999</ele><time>2026-04-18T09:13:14.002Z</time></trkpt><trkpt lat="42.95378175218491" lon="13.40188017392389"><ele>569.6</ele><time>2026-04-18T09:13:15.002Z</time></trkpt><trkpt lat="42.95373844831706" lon="13.401776840475572"><ele>568.0</ele><time>2026-04-18T09:13:16.002Z</time></trkpt><trkpt lat="42.953679692545684" lon="13.401672958992055"><ele>568.0</ele><time>2026-04-18T09:13:17.002Z</time></trkpt><trkpt lat="42.953579586929855" lon="13.401569205170041"><ele>568.0</ele><time>2026-04-18T09:13:18.002Z</time></trkpt><trkpt lat="42.95349588851955" lon="13.40146342727441"><ele>568.0</ele><time>2026-04-18T09:13:19.002Z</time></trkpt><trkpt lat="42.953397004892075" lon="13.401345437916705"><ele>568.0</ele><time>2026-04-18T09:13:20.002Z</time></trkpt><trkpt lat="42.95328397385537" lon="13.401224621999694"><ele>574.25</ele><time>2026-04-18T09:13:20.999Z</time></trkpt><trkpt lat="42.953168954144516" lon="13.40110412552307"><ele>580.5</ele><time>2026-04-18T09:13:21.999Z</time></trkpt><trkpt lat="42.953057765426095" lon="13.400973381640602"><ele>586.75</ele><time>2026-04-18T09:13:22.999Z</time></trkpt><trkpt lat="42.95296397497851" lon="13.40081258746749"><ele>593.0</ele><time>2026-04-18T09:13:23.999Z</time></trkpt><trkpt lat="42.95290734037816" lon="13.40067320030033"><ele>593.0</ele><time>2026-04-18T09:13:24.999Z</time></trkpt><trkpt lat="42.95290151621718" lon="13.400547206286126"><ele>593.0</ele><time>2026-04-18T09:13:25.999Z</time></trkpt><trkpt lat="42.95291572603426" lon="13.40043120642975"><ele>593.0</ele><time>2026-04-18T09:13:26.999Z</time></trkpt><trkpt lat="42.95291010543791" lon="13.400303059410826"><ele>593.0</ele><time>2026-04-18T09:13:27.999Z</time></trkpt><trkpt lat="42.95289370326909" lon="13.400196769694247"><ele>593.0</ele><time>2026-04-18T09:13:28.999Z</time></trkpt><trkpt lat="42.95286305918836" lon="13.40011763408417"><ele>593.0</ele><time>2026-04-18T09:13:29.999Z</time></trkpt><trkpt lat="42.95280174314066" lon="13.400061622078328"><ele>592.4</ele><time>2026-04-18T09:13:30.999Z</time></trkpt><trkpt lat="42.95275942785294" lon="13.399977792443503"><ele>591.8</ele><time>2026-04-18T09:13:31.999Z</time></trkpt><trkpt lat="42.95270123917671" lon="13.399888614686162"><ele>591.2</ele><time>2026-04-18T09:13:32.999Z</time></trkpt><trkpt lat="42.95265173163404" lon="13.399768453404338"><ele>590.6</ele><time>2026-04-18T09:13:33.999Z</time></trkpt><trkpt lat="42.95268296835064" lon="13.399622806032495"><ele>590.0</ele><time>2026-04-18T09:13:34.999Z</time></trkpt><trkpt lat="42.95265646045413" lon="13.399481435855105"><ele>587.8333333333333</ele><time>2026-04-18T09:13:35.999Z</time></trkpt><trkpt lat="42.952616303056146" lon="13.399356780501993"><ele>585.6666666666666</ele><time>2026-04-18T09:13:36.999Z</time></trkpt><trkpt lat="42.95258873941735" lon="13.39925828385674"><ele>583.5</ele><time>2026-04-18T09:13:37.999Z</time></trkpt><trkpt lat="42.95255484157237" lon="13.39917139040258"><ele>581.3333333333334</ele><time>2026-04-18T09:13:38.999Z</time></trkpt><trkpt lat="42.952521948894464" lon="13.399077761836491"><ele>579.1666666666667</ele><time>2026-04-18T09:13:39.999Z</time></trkpt><trkpt lat="42.95248421496366" lon="13.398984388101752"><ele>577.0</ele><time>2026-04-18T09:13:41Z</time></trkpt><trkpt lat="42.952442644374656" lon="13.398861016662538"><ele>583.4</ele><time>2026-04-18T09:13:43Z</time></trkpt><trkpt lat="42.952482295642646" lon="13.398730514668468"><ele>589.8000000000001</ele><time>2026-04-18T09:13:46Z</time></trkpt><trkpt lat="42.952504730383" lon="13.398564492343597"><ele>596.2</ele><time>2026-04-18T09:13:48Z</time></trkpt><trkpt lat="42.9525221461058" lon="13.398469088725431"><ele>602.6</ele><time>2026-04-18T09:13:49Z</time></trkpt><trkpt lat="42.95253255308198" lon="13.398323326857618"><ele>609.0</ele><time>2026-04-18T09:13:51Z</time></trkpt><trkpt lat="42.95251667417605" lon="13.398184949915908"><ele>609.0</ele><time>2026-04-18T09:13:53Z</time></trkpt><trkpt lat="42.952476360954535" lon="13.398015910549143"><ele>609.0</ele><time>2026-04-18T09:13:55Z</time></trkpt><trkpt lat="42.95244392984238" lon="13.397909553418105"><ele>609.0</ele><time>2026-04-18T09:13:56Z</time></trkpt><trkpt lat="42.95240955084925" lon="13.397796808314217"><ele>609.0</ele><time>2026-04-18T09:13:57Z</time></trkpt><trkpt lat="42.95237826706445" lon="13.39769162053984"><ele>609.0</ele><time>2026-04-18T09:13:58Z</time></trkpt><trkpt lat="42.95234614757591" lon="13.39757558624573"><ele>607.6</ele><time>2026-04-18T09:13:59Z</time></trkpt><trkpt lat="42.95231120604519" lon="13.397449500757563"><ele>606.2</ele><time>2026-04-18T09:14:00Z</time></trkpt><trkpt lat="42.952272120807336" lon="13.397308462854411"><ele>604.8000000000001</ele><time>2026-04-18T09:14:01Z</time></trkpt><trkpt lat="42.95223854293931" lon="13.397187298103962"><ele>603.4</ele><time>2026-04-18T09:14:02Z</time></trkpt><trkpt lat="42.95219331820587" lon="13.397079869328527"><ele>602.0</ele><time>2026-04-18T09:14:03Z</time></trkpt><trkpt lat="42.952171539887416" lon="13.39696440290372"><ele>599.6</ele><time>2026-04-18T09:14:04Z</time></trkpt><trkpt lat="42.95215348959408" lon="13.396864907342996"><ele>597.2</ele><time>2026-04-18T09:14:05Z</time></trkpt><trkpt lat="42.95213256332014" lon="13.396783361815649"><ele>594.8</ele><time>2026-04-18T09:14:06Z</time></trkpt><trkpt lat="42.95204954271558" lon="13.396674798309345"><ele>592.4</ele><time>2026-04-18T09:14:08Z</time></trkpt><trkpt lat="42.95192156487051" lon="13.396598285459323"><ele>590.0</ele><time>2026-04-18T09:14:10.001Z</time></trkpt><trkpt lat="42.95182977074918" lon="13.39654638955829"><ele>590.0</ele><time>2026-04-18T09:14:11.001Z</time></trkpt><trkpt lat="42.95175239954729" lon="13.396501168129925"><ele>590.0</ele><time>2026-04-18T09:14:12.001Z</time></trkpt><trkpt lat="42.95168159602187" lon="13.396455642947275"><ele>590.0</ele><time>2026-04-18T09:14:13.001Z</time></trkpt><trkpt lat="42.951616110245276" lon="13.396407845005006"><ele>590.0</ele><time>2026-04-18T09:14:14.001Z</time></trkpt><trkpt lat="42.951560541521026" lon="13.396322476335248"><ele>590.0</ele><time>2026-04-18T09:14:15.001Z</time></trkpt><trkpt lat="42.95150441055407" lon="13.396240049661253"><ele>590.0</ele><time>2026-04-18T09:14:16.001Z</time></trkpt><trkpt lat="42.95145859447539" lon="13.396159553650296"><ele>590.1428571428572</ele><time>2026-04-18T09:14:17.001Z</time></trkpt><trkpt lat="42.95142489663251" lon="13.39607767031569"><ele>590.2857142857143</ele><time>2026-04-18T09:14:18.001Z</time></trkpt><trkpt lat="42.95139916090664" lon="13.395996343579874"><ele>590.4285714285714</ele><time>2026-04-18T09:14:19.001Z</time></trkpt><trkpt lat="42.95139304333833" lon="13.395907101464347"><ele>590.5714285714287</ele><time>2026-04-18T09:14:20.001Z</time></trkpt><trkpt lat="42.95141078097378" lon="13.395807554018319"><ele>590.7142857142858</ele><time>2026-04-18T09:14:21.001Z</time></trkpt><trkpt lat="42.95141979094677" lon="13.395690236025018"><ele>590.8571428571429</ele><time>2026-04-18T09:14:22.001Z</time></trkpt><trkpt lat="42.95143501532809" lon="13.395588233595905"><ele>591.0</ele><time>2026-04-18T09:14:23.001Z</time></trkpt><trkpt lat="42.95143856514789" lon="13.39548555879255"><ele>591.3333333333334</ele><time>2026-04-18T09:14:24.001Z</time></trkpt><trkpt lat="42.95148999544213" lon="13.395412257744212"><ele>591.6666666666666</ele><time>2026-04-18T09:14:25.001Z</time></trkpt><trkpt lat="42.951530345901794" lon="13.395337474686965"><ele>592.0</ele><time>2026-04-18T09:14:26.001Z</time></trkpt><trkpt lat="42.951587033249474" lon="13.395254695942606"><ele>592.3333333333333</ele><time>2026-04-18T09:14:27.001Z</time></trkpt><trkpt lat="42.95165789405655" lon="13.395213207356305"><ele>592.6666666666666</ele><time>2026-04-18T09:14:28.001Z</time></trkpt><trkpt lat="42.95174759535241" lon="13.395170045807362"><ele>593.0</ele><time>2026-04-18T09:14:29.001Z</time></trkpt><trkpt lat="42.951839696224404" lon="13.395127898509504"><ele>589.0</ele><time>2026-04-18T09:14:30.001Z</time></trkpt><trkpt lat="42.95193377609617" lon="13.39508619712757"><ele>585.0</ele><time>2026-04-18T09:14:31.001Z</time></trkpt><trkpt lat="42.95201993366872" lon="13.395048007006205"><ele>581.0</ele><time>2026-04-18T09:14:32.001Z</time></trkpt><trkpt lat="42.952089234394045" lon="13.394976082268062"><ele>577.0</ele><time>2026-04-18T09:14:33.001Z</time></trkpt><trkpt lat="42.95216328443113" lon="13.394916580759643"><ele>573.0</ele><time>2026-04-18T09:14:34.001Z</time></trkpt><trkpt lat="42.95223336923762" lon="13.394839375138666"><ele>573.0</ele><time>2026-04-18T09:14:35.001Z</time></trkpt><trkpt lat="42.95230478447547" lon="13.394747076834083"><ele>573.0</ele><time>2026-04-18T09:14:36.001Z</time></trkpt><trkpt lat="42.952383895154945" lon="13.394674497500004"><ele>573.0</ele><time>2026-04-18T09:14:37.001Z</time></trkpt><trkpt lat="42.952469171149914" lon="13.394590886652214"><ele>573.0</ele><time>2026-04-18T09:14:38.001Z</time></trkpt><trkpt lat="42.952554146502635" lon="13.394512198595901"><ele>573.0</ele><time>2026-04-18T09:14:39.001Z</time></trkpt><trkpt lat="42.95261709831944" lon="13.39442159247646"><ele>570.5</ele><time>2026-04-18T09:14:40.001Z</time></trkpt><trkpt lat="42.9527006415252" lon="13.394361938219166"><ele>568.0</ele><time>2026-04-18T09:14:41.001Z</time></trkpt><trkpt lat="42.95275642926354" lon="13.394287222832034"><ele>565.5</ele><time>2026-04-18T09:14:42.001Z</time></trkpt><trkpt lat="42.95281607124073" lon="13.394154007058109"><ele>563.0</ele><time>2026-04-18T09:14:44.002Z</time></trkpt><trkpt lat="42.95280368693957" lon="13.394060712746827"><ele>560.5</ele><time>2026-04-18T09:14:45.002Z</time></trkpt><trkpt lat="42.95279762430887" lon="13.393951565576781"><ele>558.0</ele><time>2026-04-18T09:14:46.002Z</time></trkpt><trkpt lat="42.95278712667821" lon="13.39379929301251"><ele>556.25</ele><time>2026-04-18T09:14:47.002Z</time></trkpt><trkpt lat="42.95276889875347" lon="13.393627771763473"><ele>554.5</ele><time>2026-04-18T09:14:48.002Z</time></trkpt><trkpt lat="42.95277271953661" lon="13.39345647600781"><ele>552.75</ele><time>2026-04-18T09:14:49.002Z</time></trkpt><trkpt lat="42.95277573121" lon="13.393313341572668"><ele>551.0</ele><time>2026-04-18T09:14:50.002Z</time></trkpt><trkpt lat="42.95276823484222" lon="13.393170588762448"><ele>551.0</ele><time>2026-04-18T09:14:51.002Z</time></trkpt><trkpt lat="42.952746869780846" lon="13.393026356263658"><ele>551.0</ele><time>2026-04-18T09:14:52.002Z</time></trkpt><trkpt lat="42.9527154243934" lon="13.39288240734077"><ele>551.0</ele><time>2026-04-18T09:14:53.002Z</time></trkpt><trkpt lat="42.95268555878098" lon="13.392755246098675"><ele>551.0</ele><time>2026-04-18T09:14:54.002Z</time></trkpt><trkpt lat="42.95266250761563" lon="13.392648317799964"><ele>551.0</ele><time>2026-04-18T09:14:55.002Z</time></trkpt><trkpt lat="42.952656994746434" lon="13.392545050298493"><ele>550.8333333333333</ele><time>2026-04-18T09:14:56.002Z</time></trkpt><trkpt lat="42.95268715672121" lon="13.39243039066596"><ele>550.6666666666666</ele><time>2026-04-18T09:14:57.002Z</time></trkpt><trkpt lat="42.95271761097177" lon="13.392316924917651"><ele>550.5</ele><time>2026-04-18T09:14:58.002Z</time></trkpt><trkpt lat="42.9527442767022" lon="13.392203196499548"><ele>550.3333333333334</ele><time>2026-04-18T09:14:59.002Z</time></trkpt><trkpt lat="42.95276461724404" lon="13.392091863978006"><ele>550.1666666666667</ele><time>2026-04-18T09:15:00.002Z</time></trkpt><trkpt lat="42.95278734277613" lon="13.391963660965986"><ele>550.0</ele><time>2026-04-18T09:15:01.002Z</time></trkpt><trkpt lat="42.95280604421389" lon="13.391852164032425"><ele>550.0</ele><time>2026-04-18T09:15:02.002Z</time></trkpt><trkpt lat="42.95282172910326" lon="13.391755418171696"><ele>550.0</ele><time>2026-04-18T09:15:03.002Z</time></trkpt><trkpt lat="42.95284440540281" lon="13.391661208715732"><ele>550.0</ele><time>2026-04-18T09:15:04.002Z</time></trkpt><trkpt lat="42.95287988242942" lon="13.391572230430706"><ele>550.0</ele><time>2026-04-18T09:15:05.002Z</time></trkpt><trkpt lat="42.95291902582056" lon="13.391458956779172"><ele>550.0</ele><time>2026-04-18T09:15:06.002Z</time></trkpt><trkpt lat="42.952966271674356" lon="13.391343171780358"><ele>550.0</ele><time>2026-04-18T09:15:07.002Z</time></trkpt><trkpt lat="42.95301479306662" lon="13.391250114801243"><ele>550.0</ele><time>2026-04-18T09:15:08.002Z</time></trkpt><trkpt lat="42.95305284790134" lon="13.391162893468495"><ele>550.0</ele><time>2026-04-18T09:15:09.002Z</time></trkpt><trkpt lat="42.95309117233279" lon="13.391079769725536"><ele>550.0</ele><time>2026-04-18T09:15:10.002Z</time></trkpt><trkpt lat="42.95313483513575" lon="13.390986126223918"><ele>550.0</ele><time>2026-04-18T09:15:11.002Z</time></trkpt><trkpt lat="42.95318396656847" lon="13.390895495672279"><ele>550.0</ele><time>2026-04-18T09:15:12.002Z</time></trkpt><trkpt lat="42.95324155817785" lon="13.390809614598792"><ele>550.0</ele><time>2026-04-18T09:15:13.002Z</time></trkpt><trkpt lat="42.953321859634684" lon="13.390744571293752"><ele>550.2</ele><time>2026-04-18T09:15:14.002Z</time></trkpt><trkpt lat="42.95340260413724" lon="13.390656987309072"><ele>550.4</ele><time>2026-04-18T09:15:15.002Z</time></trkpt><trkpt lat="42.953473391639655" lon="13.390572795402399"><ele>550.6</ele><time>2026-04-18T09:15:16.002Z</time></trkpt><trkpt lat="42.95354207614334" lon="13.390477568310567"><ele>550.8</ele><time>2026-04-18T09:15:17.002Z</time></trkpt><trkpt lat="42.95359934098636" lon="13.39035153811326"><ele>551.0</ele><time>2026-04-18T09:15:18.002Z</time></trkpt><trkpt lat="42.95366544245017" lon="13.39026359514533"><ele>551.8333333333333</ele><time>2026-04-18T09:15:19.002Z</time></trkpt><trkpt lat="42.95373176029705" lon="13.390187294456133"><ele>552.6666666666666</ele><time>2026-04-18T09:15:20.002Z</time></trkpt><trkpt lat="42.95380109190134" lon="13.390132716217536"><ele>553.5</ele><time>2026-04-18T09:15:21.003Z</time></trkpt><trkpt lat="42.95387071687044" lon="13.390070617623184"><ele>554.3333333333334</ele><time>2026-04-18T09:15:22.003Z</time></trkpt><trkpt lat="42.953948034170274" lon="13.390028914048308"><ele>555.1666666666667</ele><time>2026-04-18T09:15:23.003Z</time></trkpt><trkpt lat="42.954017615418564" lon="13.38994951737098"><ele>556.0</ele><time>2026-04-18T09:15:24.003Z</time></trkpt><trkpt lat="42.95410887081261" lon="13.38988041990075"><ele>556.0</ele><time>2026-04-18T09:15:26.003Z</time></trkpt><trkpt lat="42.95415424420247" lon="13.389786668083739"><ele>556.0</ele><time>2026-04-18T09:15:27.999Z</time></trkpt><trkpt lat="42.95416481307748" lon="13.389688561336998"><ele>556.0</ele><time>2026-04-18T09:15:28.999Z</time></trkpt><trkpt lat="42.95416152572414" lon="13.389596205493357"><ele>556.0</ele><time>2026-04-18T09:15:29.999Z</time></trkpt><trkpt lat="42.95415691187176" lon="13.389480176542813"><ele>556.0</ele><time>2026-04-18T09:15:30.999Z</time></trkpt><trkpt lat="42.954155292371155" lon="13.389319418078609"><ele>556.0</ele><time>2026-04-18T09:15:32Z</time></trkpt><trkpt lat="42.95415865898007" lon="13.38917734834383"><ele>556.4</ele><time>2026-04-18T09:15:33Z</time></trkpt><trkpt lat="42.95416544560336" lon="13.38901201073211"><ele>556.8</ele><time>2026-04-18T09:15:34Z</time></trkpt><trkpt lat="42.954176934713935" lon="13.388875947821246"><ele>557.1999999999999</ele><time>2026-04-18T09:15:35Z</time></trkpt><trkpt lat="42.95419283975324" lon="13.388760464685275"><ele>557.6</ele><time>2026-04-18T09:15:36Z</time></trkpt><trkpt lat="42.95422599711773" lon="13.388672933536764"><ele>558.0</ele><time>2026-04-18T09:15:37Z</time></trkpt><trkpt lat="42.954273816304145" lon="13.388520289953416"><ele>558.0</ele><time>2026-04-18T09:15:39Z</time></trkpt><trkpt lat="42.95431900535854" lon="13.388438478656745"><ele>558.0</ele><time>2026-04-18T09:15:40Z</time></trkpt><trkpt lat="42.954365885819435" lon="13.388345435661734"><ele>558.0</ele><time>2026-04-18T09:15:41Z</time></trkpt><trkpt lat="42.95440810175063" lon="13.38826600333444"><ele>558.0</ele><time>2026-04-18T09:15:42Z</time></trkpt><trkpt lat="42.954510888542195" lon="13.388198380136277"><ele>558.0</ele><time>2026-04-18T09:15:44Z</time></trkpt><trkpt lat="42.95458220238951" lon="13.388225690686848"><ele>558.0</ele><time>2026-04-18T09:15:45Z</time></trkpt><trkpt lat="42.95467963920637" lon="13.388242763810233"><ele>558.0</ele><time>2026-04-18T09:15:46Z</time></trkpt><trkpt lat="42.95477353128683" lon="13.38826047534402"><ele>558.0</ele><time>2026-04-18T09:15:47Z</time></trkpt><trkpt lat="42.95484815232599" lon="13.388284303414368"><ele>558.0</ele><time>2026-04-18T09:15:48Z</time></trkpt><trkpt lat="42.95491442397613" lon="13.38833186931561"><ele>558.0</ele><time>2026-04-18T09:15:49Z</time></trkpt><trkpt lat="42.954989299619434" lon="13.388396736395693"><ele>558.0</ele><time>2026-04-18T09:15:50Z</time></trkpt><trkpt lat="42.95507195436576" lon="13.38846826739648"><ele>558.0</ele><time>2026-04-18T09:15:51Z</time></trkpt><trkpt lat="42.955157530083966" lon="13.38851242472129"><ele>557.8333333333334</ele><time>2026-04-18T09:15:52Z</time></trkpt><trkpt lat="42.9552425672585" lon="13.388558237776337"><ele>557.6666666666666</ele><time>2026-04-18T09:15:53Z</time></trkpt><trkpt lat="42.95533695867905" lon="13.388568222529742"><ele>557.5</ele><time>2026-04-18T09:15:54Z</time></trkpt><trkpt lat="42.95542107205476" lon="13.388588347479992"><ele>557.3333333333333</ele><time>2026-04-18T09:15:55Z</time></trkpt><trkpt lat="42.95549508591085" lon="13.388608547664502"><ele>557.1666666666666</ele><time>2026-04-18T09:15:56Z</time></trkpt><trkpt lat="42.9555449370172" lon="13.388682548023153"><ele>557.0</ele><time>2026-04-18T09:15:57Z</time></trkpt><trkpt lat="42.95556918442029" lon="13.38879706006387"><ele>556.6</ele><time>2026-04-18T09:15:58Z</time></trkpt><trkpt lat="42.955603991722604" lon="13.388933015179644"><ele>556.2</ele><time>2026-04-18T09:15:59Z</time></trkpt><trkpt lat="42.955646241708074" lon="13.389049674231151"><ele>555.8</ele><time>2026-04-18T09:16:00Z</time></trkpt><trkpt lat="42.95570117002096" lon="13.38916001641118"><ele>555.4</ele><time>2026-04-18T09:16:01Z</time></trkpt><trkpt lat="42.955773864220916" lon="13.389236767018202"><ele>555.0</ele><time>2026-04-18T09:16:02Z</time></trkpt><trkpt lat="42.95583901014572" lon="13.389314640803779"><ele>555.2</ele><time>2026-04-18T09:16:03Z</time></trkpt><trkpt lat="42.95591350723527" lon="13.389382501154861"><ele>555.4</ele><time>2026-04-18T09:16:04.001Z</time></trkpt><trkpt lat="42.95601968484947" lon="13.38944404695818"><ele>555.6</ele><time>2026-04-18T09:16:05.001Z</time></trkpt><trkpt lat="42.956124411730364" lon="13.389499546506196"><ele>555.8</ele><time>2026-04-18T09:16:06.001Z</time></trkpt><trkpt lat="42.9562320847263" lon="13.38955914285628"><ele>556.0</ele><time>2026-04-18T09:16:07.001Z</time></trkpt><trkpt lat="42.95634703698646" lon="13.389628580968875"><ele>554.6</ele><time>2026-04-18T09:16:08.001Z</time></trkpt><trkpt lat="42.956453490727064" lon="13.389685363366414"><ele>553.2</ele><time>2026-04-18T09:16:09.001Z</time></trkpt><trkpt lat="42.95654512041121" lon="13.389732044332664"><ele>551.8</ele><time>2026-04-18T09:16:10.001Z</time></trkpt><trkpt lat="42.95662565133248" lon="13.389759568019894"><ele>550.4</ele><time>2026-04-18T09:16:11.001Z</time></trkpt><trkpt lat="42.95670335365005" lon="13.389788498077948"><ele>549.0</ele><time>2026-04-18T09:16:12.001Z</time></trkpt><trkpt lat="42.9567884836313" lon="13.389764834343582"><ele>546.8</ele><time>2026-04-18T09:16:13.001Z</time></trkpt><trkpt lat="42.9568937626184" lon="13.389730893171269"><ele>544.5999999999999</ele><time>2026-04-18T09:16:14.001Z</time></trkpt><trkpt lat="42.956991523224254" lon="13.389719719398874"><ele>542.4</ele><time>2026-04-18T09:16:15.001Z</time></trkpt><trkpt lat="42.957102707884175" lon="13.389725253221563"><ele>540.1999999999999</ele><time>2026-04-18T09:16:16.001Z</time></trkpt><trkpt lat="42.95722155391426" lon="13.389736377593909"><ele>538.0</ele><time>2026-04-18T09:16:17.001Z</time></trkpt><trkpt lat="42.95732561346398" lon="13.389732371818619"><ele>538.0</ele><time>2026-04-18T09:16:18.001Z</time></trkpt><trkpt lat="42.957421680992496" lon="13.389686861937307"><ele>538.0</ele><time>2026-04-18T09:16:19.001Z</time></trkpt><trkpt lat="42.95751538528383" lon="13.38962871121125"><ele>538.0</ele><time>2026-04-18T09:16:20.001Z</time></trkpt><trkpt lat="42.957619306461694" lon="13.389573062825631"><ele>538.0</ele><time>2026-04-18T09:16:21.001Z</time></trkpt><trkpt lat="42.95771606958033" lon="13.3895314181209"><ele>538.0</ele><time>2026-04-18T09:16:22.001Z</time></trkpt><trkpt lat="42.957807319669186" lon="13.389491810982847"><ele>538.8333333333334</ele><time>2026-04-18T09:16:23.001Z</time></trkpt><trkpt lat="42.95789661257323" lon="13.389466774244486"><ele>539.6666666666667</ele><time>2026-04-18T09:16:24.001Z</time></trkpt><trkpt lat="42.95798098896034" lon="13.38944061286793"><ele>540.5</ele><time>2026-04-18T09:16:25.001Z</time></trkpt><trkpt lat="42.95806662286274" lon="13.389408001159318"><ele>541.3333333333334</ele><time>2026-04-18T09:16:26.001Z</time></trkpt><trkpt lat="42.95814120649037" lon="13.389376704110871"><ele>542.1666666666666</ele><time>2026-04-18T09:16:27.001Z</time></trkpt><trkpt lat="42.958212802629355" lon="13.389355219960535"><ele>543.0</ele><time>2026-04-18T09:16:28.001Z</time></trkpt><trkpt lat="42.958283397965175" lon="13.389326860744466"><ele>542.4</ele><time>2026-04-18T09:16:29.001Z</time></trkpt><trkpt lat="42.95837563569002" lon="13.38926738570846"><ele>541.8</ele><time>2026-04-18T09:16:31.001Z</time></trkpt><trkpt lat="42.95843832823927" lon="13.389180743507973"><ele>541.2</ele><time>2026-04-18T09:16:34.001Z</time></trkpt><trkpt lat="42.95842820241584" lon="13.389002419659116"><ele>540.6</ele><time>2026-04-18T09:16:36.001Z</time></trkpt><trkpt lat="42.958391473381596" lon="13.388900569168124"><ele>540.0</ele><time>2026-04-18T09:16:37.002Z</time></trkpt><trkpt lat="42.958340716584594" lon="13.388778459464067"><ele>540.0</ele><time>2026-04-18T09:16:38.002Z</time></trkpt><trkpt lat="42.958310935629775" lon="13.388647851133268"><ele>540.0</ele><time>2026-04-18T09:16:39.002Z</time></trkpt><trkpt lat="42.95829616107583" lon="13.388530881995218"><ele>540.0</ele><time>2026-04-18T09:16:40.002Z</time></trkpt><trkpt lat="42.958288859264385" lon="13.388404598860122"><ele>540.0</ele><time>2026-04-18T09:16:41.002Z</time></trkpt><trkpt lat="42.95827748102771" lon="13.388285491010851"><ele>540.0</ele><time>2026-04-18T09:16:42.002Z</time></trkpt><trkpt lat="42.95826740990041" lon="13.388166942373546"><ele>540.0</ele><time>2026-04-18T09:16:43.002Z</time></trkpt><trkpt lat="42.95826712871938" lon="13.388064082609565"><ele>540.0</ele><time>2026-04-18T09:16:44.002Z</time></trkpt><trkpt lat="42.958364145225154" lon="13.388053625123696"><ele>540.0</ele><time>2026-04-18T09:16:50.002Z</time></trkpt><trkpt lat="42.95831834730523" lon="13.388181638999995"><ele>540.0</ele><time>2026-04-18T09:16:51.002Z</time></trkpt><trkpt lat="42.95832597717404" lon="13.388322638684622"><ele>540.0</ele><time>2026-04-18T09:16:52.002Z</time></trkpt><trkpt lat="42.95833833202478" lon="13.388480059628247"><ele>540.0</ele><time>2026-04-18T09:16:53.002Z</time></trkpt><trkpt lat="42.95836119997753" lon="13.388643510368368"><ele>540.0</ele><time>2026-04-18T09:16:54.002Z</time></trkpt><trkpt lat="42.95839618109807" lon="13.388791794522312"><ele>540.0</ele><time>2026-04-18T09:16:55.002Z</time></trkpt><trkpt lat="42.95845271489613" lon="13.388912971343196"><ele>540.0</ele><time>2026-04-18T09:16:56.002Z</time></trkpt><trkpt lat="42.95849502675182" lon="13.389023083990686"><ele>540.0</ele><time>2026-04-18T09:16:57.002Z</time></trkpt><trkpt lat="42.95855135361266" lon="13.389122811380705"><ele>539.6</ele><time>2026-04-18T09:16:58.002Z</time></trkpt><trkpt lat="42.95861165370818" lon="13.389205568040511"><ele>539.2</ele><time>2026-04-18T09:16:59.002Z</time></trkpt><trkpt lat="42.95869084560326" lon="13.389302563023115"><ele>538.8</ele><time>2026-04-18T09:17:00.002Z</time></trkpt><trkpt lat="42.95879670726438" lon="13.389419300421855"><ele>538.4</ele><time>2026-04-18T09:17:01.002Z</time></trkpt><trkpt lat="42.95888431228725" lon="13.389522766248769"><ele>538.0</ele><time>2026-04-18T09:17:02.002Z</time></trkpt><trkpt lat="42.958965607106414" lon="13.389614843593131"><ele>538.8</ele><time>2026-04-18T09:17:03.002Z</time></trkpt><trkpt lat="42.95902814768796" lon="13.389706759852775"><ele>539.5999999999999</ele><time>2026-04-18T09:17:04.002Z</time></trkpt><trkpt lat="42.95908318090703" lon="13.389787140599658"><ele>540.4000000000001</ele><time>2026-04-18T09:17:05.002Z</time></trkpt><trkpt lat="42.959198538613244" lon="13.389782507167386"><ele>541.2</ele><time>2026-04-18T09:17:06.002Z</time></trkpt><trkpt lat="42.9592924991815" lon="13.389785338534942"><ele>542.0</ele><time>2026-04-18T09:17:07.002Z</time></trkpt><trkpt lat="42.95939426062119" lon="13.389794687542585"><ele>542.6</ele><time>2026-04-18T09:17:08.002Z</time></trkpt><trkpt lat="42.95949381062802" lon="13.389813576048716"><ele>543.2</ele><time>2026-04-18T09:17:09.002Z</time></trkpt><trkpt lat="42.959578984661896" lon="13.389841018067655"><ele>543.8</ele><time>2026-04-18T09:17:10.002Z</time></trkpt><trkpt lat="42.95964214033122" lon="13.389928611304496"><ele>544.4</ele><time>2026-04-18T09:17:11.003Z</time></trkpt><trkpt lat="42.95970877125459" lon="13.390012951240717"><ele>545.0</ele><time>2026-04-18T09:17:12.003Z</time></trkpt><trkpt lat="42.9597866526902" lon="13.390100291339063"><ele>545.0</ele><time>2026-04-18T09:17:13.003Z</time></trkpt><trkpt lat="42.959860026678804" lon="13.390141566853817"><ele>545.0</ele><time>2026-04-18T09:17:14.003Z</time></trkpt><trkpt lat="42.95992301644169" lon="13.390185742105855"><ele>545.0</ele><time>2026-04-18T09:17:15.003Z</time></trkpt><trkpt lat="42.959996078001964" lon="13.390217204588152"><ele>545.0</ele><time>2026-04-18T09:17:16.003Z</time></trkpt><trkpt lat="42.96007543741552" lon="13.390230195540576"><ele>545.0</ele><time>2026-04-18T09:17:17.003Z</time></trkpt><trkpt lat="42.960173956651616" lon="13.39021939444861"><ele>545.0</ele><time>2026-04-18T09:17:18.003Z</time></trkpt><trkpt lat="42.96027901768503" lon="13.390195020001443"><ele>544.8</ele><time>2026-04-18T09:17:19.003Z</time></trkpt><trkpt lat="42.9603924579618" lon="13.39016518161199"><ele>544.6</ele><time>2026-04-18T09:17:20.003Z</time></trkpt><trkpt lat="42.9605101677038" lon="13.390138025528309"><ele>544.4</ele><time>2026-04-18T09:17:21.003Z</time></trkpt><trkpt lat="42.96061514920256" lon="13.390114185754225"><ele>544.2</ele><time>2026-04-18T09:17:22.003Z</time></trkpt><trkpt lat="42.96070194288539" lon="13.39008751964952"><ele>544.0</ele><time>2026-04-18T09:17:23.003Z</time></trkpt><trkpt lat="42.96077778672332" lon="13.390095037161679"><ele>544.0</ele><time>2026-04-18T09:17:24.003Z</time></trkpt><trkpt lat="42.96084374639312" lon="13.390180789189824"><ele>544.0</ele><time>2026-04-18T09:17:25.003Z</time></trkpt><trkpt lat="42.960906744246024" lon="13.390249785938227"><ele>544.0</ele><time>2026-04-18T09:17:26.003Z</time></trkpt><trkpt lat="42.96097323958997" lon="13.390344879786433"><ele>544.0</ele><time>2026-04-18T09:17:27.003Z</time></trkpt><trkpt lat="42.96105115432098" lon="13.390443677657867"><ele>544.0</ele><time>2026-04-18T09:17:28.003Z</time></trkpt><trkpt lat="42.961132919984045" lon="13.390542878245178"><ele>547.0</ele><time>2026-04-18T09:17:29.003Z</time></trkpt><trkpt lat="42.96122680099353" lon="13.390614367597236"><ele>550.0</ele><time>2026-04-18T09:17:30.003Z</time></trkpt><trkpt lat="42.96132370760006" lon="13.390667555924402"><ele>553.0</ele><time>2026-04-18T09:17:31.003Z</time></trkpt><trkpt lat="42.961444043104365" lon="13.39068509299324"><ele>556.0</ele><time>2026-04-18T09:17:32.003Z</time></trkpt><trkpt lat="42.961582952841525" lon="13.390683061346381"><ele>557.6666666666667</ele><time>2026-04-18T09:17:33Z</time></trkpt><trkpt lat="42.961756509611035" lon="13.390672654588528"><ele>559.3333333333334</ele><time>2026-04-18T09:17:34Z</time></trkpt><trkpt lat="42.961913630413314" lon="13.390652699102855"><ele>561.0</ele><time>2026-04-18T09:17:35Z</time></trkpt><trkpt lat="42.96209124462802" lon="13.390624988253881"><ele>561.0</ele><time>2026-04-18T09:17:36Z</time></trkpt><trkpt lat="42.962269030846244" lon="13.390605524657119"><ele>561.0</ele><time>2026-04-18T09:17:37Z</time></trkpt><trkpt lat="42.96242206196958" lon="13.390599590408312"><ele>561.0</ele><time>2026-04-18T09:17:38Z</time></trkpt><trkpt lat="42.96255913439399" lon="13.390586917429774"><ele>562.0</ele><time>2026-04-18T09:17:39Z</time></trkpt><trkpt lat="42.96269273551334" lon="13.390553541854702"><ele>563.0</ele><time>2026-04-18T09:17:40Z</time></trkpt><trkpt lat="42.96283085837105" lon="13.390496543106664"><ele>564.0</ele><time>2026-04-18T09:17:41Z</time></trkpt><trkpt lat="42.96294637063258" lon="13.390442466251786"><ele>565.0</ele><time>2026-04-18T09:17:42Z</time></trkpt><trkpt lat="42.9630495531801" lon="13.390402666472848"><ele>562.5</ele><time>2026-04-18T09:17:43Z</time></trkpt><trkpt lat="42.96316141190379" lon="13.390403951321494"><ele>560.0</ele><time>2026-04-18T09:17:44Z</time></trkpt><trkpt lat="42.96328270773018" lon="13.390398727124479"><ele>557.5</ele><time>2026-04-18T09:17:45Z</time></trkpt><trkpt lat="42.9634068122381" lon="13.39039519344599"><ele>555.0</ele><time>2026-04-18T09:17:46Z</time></trkpt><trkpt lat="42.96351590276102" lon="13.390387248959696"><ele>555.0</ele><time>2026-04-18T09:17:47Z</time></trkpt><trkpt lat="42.96361538861407" lon="13.39037584354707"><ele>555.0</ele><time>2026-04-18T09:17:48Z</time></trkpt><trkpt lat="42.96370497657627" lon="13.390363055469114"><ele>555.0</ele><time>2026-04-18T09:17:49Z</time></trkpt><trkpt lat="42.96379808772766" lon="13.390374922121968"><ele>555.0</ele><time>2026-04-18T09:17:50Z</time></trkpt><trkpt lat="42.96388734690878" lon="13.390382098088423"><ele>555.0</ele><time>2026-04-18T09:17:51Z</time></trkpt><trkpt lat="42.963970513844274" lon="13.390397829416367"><ele>555.0</ele><time>2026-04-18T09:17:52Z</time></trkpt><trkpt lat="42.96405508549593" lon="13.390411223770554"><ele>555.0</ele><time>2026-04-18T09:17:53Z</time></trkpt><trkpt lat="42.96414097235421" lon="13.390418983402668"><ele>555.0</ele><time>2026-04-18T09:17:54Z</time></trkpt><trkpt lat="42.96421589043142" lon="13.390444079392157"><ele>555.0</ele><time>2026-04-18T09:17:55Z</time></trkpt><trkpt lat="42.96428328247722" lon="13.390456817574524"><ele>555.0</ele><time>2026-04-18T09:17:56Z</time></trkpt><trkpt lat="42.96439263228591" lon="13.390440944721478"><ele>555.0</ele><time>2026-04-18T09:17:58Z</time></trkpt><trkpt lat="42.96448377228997" lon="13.390283524422385"><ele>555.4</ele><time>2026-04-18T09:18:00Z</time></trkpt><trkpt lat="42.96453233621579" lon="13.39014663568019"><ele>555.8</ele><time>2026-04-18T09:18:01Z</time></trkpt><trkpt lat="42.96457901108804" lon="13.390014086229625"><ele>556.2</ele><time>2026-04-18T09:18:02Z</time></trkpt><trkpt lat="42.964632535045254" lon="13.389868075998223"><ele>556.6</ele><time>2026-04-18T09:18:03Z</time></trkpt><trkpt lat="42.9646858099604" lon="13.3897433400355"><ele>557.0</ele><time>2026-04-18T09:18:04Z</time></trkpt><trkpt lat="42.964735972966864" lon="13.389631769549236"><ele>557.0</ele><time>2026-04-18T09:18:05.001Z</time></trkpt><trkpt lat="42.96477964606108" lon="13.389518600965287"><ele>557.0</ele><time>2026-04-18T09:18:06.001Z</time></trkpt><trkpt lat="42.9648290066101" lon="13.38940970355796"><ele>557.0</ele><time>2026-04-18T09:18:07.001Z</time></trkpt><trkpt lat="42.964897096597525" lon="13.389312304446582"><ele>557.0</ele><time>2026-04-18T09:18:08.001Z</time></trkpt><trkpt lat="42.965012821865855" lon="13.389184947654906"><ele>557.0</ele><time>2026-04-18T09:18:09.001Z</time></trkpt><trkpt lat="42.96509686582411" lon="13.389032932358452"><ele>560.6</ele><time>2026-04-18T09:18:11.001Z</time></trkpt><trkpt lat="42.965134978933925" lon="13.388928886484292"><ele>564.2</ele><time>2026-04-18T09:18:12.001Z</time></trkpt><trkpt lat="42.96515858084104" lon="13.388798592229415"><ele>567.8</ele><time>2026-04-18T09:18:13.001Z</time></trkpt><trkpt lat="42.96518672494537" lon="13.388650640602226"><ele>571.4</ele><time>2026-04-18T09:18:14.001Z</time></trkpt><trkpt lat="42.96522482764804" lon="13.38849216621604"><ele>575.0</ele><time>2026-04-18T09:18:15.001Z</time></trkpt><trkpt lat="42.96524451482043" lon="13.388352740627184"><ele>576.0</ele><time>2026-04-18T09:18:16.001Z</time></trkpt><trkpt lat="42.965220792305" lon="13.3881886431634"><ele>577.0</ele><time>2026-04-18T09:18:17.001Z</time></trkpt><trkpt lat="42.96518897038551" lon="13.388013138864524"><ele>578.0</ele><time>2026-04-18T09:18:18.001Z</time></trkpt><trkpt lat="42.96515381639911" lon="13.387788138955013"><ele>579.0</ele><time>2026-04-18T09:18:19.001Z</time></trkpt><trkpt lat="42.96511491464601" lon="13.38758362337018"><ele>581.3333333333334</ele><time>2026-04-18T09:18:20.001Z</time></trkpt><trkpt lat="42.96507987065931" lon="13.387394925287204"><ele>583.6666666666667</ele><time>2026-04-18T09:18:21.001Z</time></trkpt><trkpt lat="42.96503881086898" lon="13.387180317233224"><ele>586.0</ele><time>2026-04-18T09:18:22.001Z</time></trkpt><trkpt lat="42.96499862944086" lon="13.38698718584352"><ele>584.25</ele><time>2026-04-18T09:18:23.001Z</time></trkpt><trkpt lat="42.96496629351426" lon="13.386825044548864"><ele>582.5</ele><time>2026-04-18T09:18:24.001Z</time></trkpt><trkpt lat="42.9649564397172" lon="13.386662644348716"><ele>580.75</ele><time>2026-04-18T09:18:25.001Z</time></trkpt><trkpt lat="42.96497810753155" lon="13.386497401075314"><ele>579.0</ele><time>2026-04-18T09:18:26.001Z</time></trkpt><trkpt lat="42.96498994381607" lon="13.386305943320284"><ele>579.0</ele><time>2026-04-18T09:18:27.001Z</time></trkpt><trkpt lat="42.96499167889898" lon="13.386115326559638"><ele>579.0</ele><time>2026-04-18T09:18:28.001Z</time></trkpt><trkpt lat="42.9649727197408" lon="13.385931342802463"><ele>579.0</ele><time>2026-04-18T09:18:29.001Z</time></trkpt><trkpt lat="42.9649355905313" lon="13.385780110745474"><ele>579.0</ele><time>2026-04-18T09:18:30.001Z</time></trkpt><trkpt lat="42.96490311352635" lon="13.385667472756047"><ele>579.0</ele><time>2026-04-18T09:18:31.001Z</time></trkpt><trkpt lat="42.96490218419347" lon="13.385578036203844"><ele>579.0</ele><time>2026-04-18T09:18:32.001Z</time></trkpt><trkpt lat="42.96489432946643" lon="13.385476074796793"><ele>579.0</ele><time>2026-04-18T09:18:33.001Z</time></trkpt><trkpt lat="42.96486646977087" lon="13.385343331464433"><ele>579.0</ele><time>2026-04-18T09:18:34.001Z</time></trkpt><trkpt lat="42.96484943214847" lon="13.38519975197947"><ele>579.0</ele><time>2026-04-18T09:18:35.001Z</time></trkpt><trkpt lat="42.964847400280505" lon="13.385045373634496"><ele>579.6</ele><time>2026-04-18T09:18:36.001Z</time></trkpt><trkpt lat="42.96485533003479" lon="13.384905086283283"><ele>580.2</ele><time>2026-04-18T09:18:37.001Z</time></trkpt><trkpt lat="42.96486802402432" lon="13.384786662326109"><ele>580.8000000000001</ele><time>2026-04-18T09:18:38.001Z</time></trkpt><trkpt lat="42.96486518949722" lon="13.384655436899704"><ele>581.4</ele><time>2026-04-18T09:18:39.001Z</time></trkpt><trkpt lat="42.96488600994832" lon="13.384545143822834"><ele>582.0</ele><time>2026-04-18T09:18:40.002Z</time></trkpt><trkpt lat="42.96490529963943" lon="13.38443853143582"><ele>582.0</ele><time>2026-04-18T09:18:42.002Z</time></trkpt><trkpt lat="42.96497712436823" lon="13.384450213566154"><ele>582.0</ele><time>2026-04-18T09:18:45.002Z</time></trkpt><trkpt lat="42.96500016075969" lon="13.38459122991156"><ele>582.0</ele><time>2026-04-18T09:18:47.002Z</time></trkpt><trkpt lat="42.964958958044704" lon="13.384743747386988"><ele>582.0</ele><time>2026-04-18T09:18:49.002Z</time></trkpt><trkpt lat="42.964980983890335" lon="13.38488051356811"><ele>582.0</ele><time>2026-04-18T09:18:51.002Z</time></trkpt><trkpt lat="42.965032129072036" lon="13.385011625983008"><ele>586.0</ele><time>2026-04-18T09:18:53.002Z</time></trkpt><trkpt lat="42.96511516741421" lon="13.385009184459804"><ele>590.0</ele><time>2026-04-18T09:18:55.002Z</time></trkpt><trkpt lat="42.96518992897628" lon="13.384961049446673"><ele>594.0</ele><time>2026-04-18T09:18:57.002Z</time></trkpt><trkpt lat="42.965225870049466" lon="13.384885211236504"><ele>598.0</ele><time>2026-04-18T09:18:58.002Z</time></trkpt><trkpt lat="42.96526952999388" lon="13.384771847289068"><ele>602.0</ele><time>2026-04-18T09:18:59.002Z</time></trkpt><trkpt lat="42.96530864857809" lon="13.384665865589694"><ele>606.0</ele><time>2026-04-18T09:19:00.002Z</time></trkpt><trkpt lat="42.9653659275992" lon="13.384540096773923"><ele>606.0</ele><time>2026-04-18T09:19:01.002Z</time></trkpt><trkpt lat="42.965449377820704" lon="13.38439805173552"><ele>606.0</ele><time>2026-04-18T09:19:02.002Z</time></trkpt><trkpt lat="42.96552873124537" lon="13.384293397743589"><ele>606.0</ele><time>2026-04-18T09:19:03.002Z</time></trkpt><trkpt lat="42.965609961725406" lon="13.384178337715433"><ele>606.0</ele><time>2026-04-18T09:19:04.002Z</time></trkpt><trkpt lat="42.96568003949913" lon="13.384022721972913"><ele>606.0</ele><time>2026-04-18T09:19:05.002Z</time></trkpt><trkpt lat="42.965737542164625" lon="13.383857943270923"><ele>606.0</ele><time>2026-04-18T09:19:06.002Z</time></trkpt><trkpt lat="42.9657795852806" lon="13.383701698225854"><ele>606.0</ele><time>2026-04-18T09:19:07.002Z</time></trkpt><trkpt lat="42.965822395643166" lon="13.383551804525132"><ele>606.0</ele><time>2026-04-18T09:19:08.002Z</time></trkpt><trkpt lat="42.96586600656748" lon="13.383413660754838"><ele>607.1666666666666</ele><time>2026-04-18T09:19:09.002Z</time></trkpt><trkpt lat="42.965903290302975" lon="13.38331065430407"><ele>608.3333333333334</ele><time>2026-04-18T09:19:10.002Z</time></trkpt><trkpt lat="42.96594809106321" lon="13.383233525091361"><ele>609.5</ele><time>2026-04-18T09:19:11.002Z</time></trkpt><trkpt lat="42.96600588121231" lon="13.383158989978787"><ele>610.6666666666667</ele><time>2026-04-18T09:19:12.002Z</time></trkpt><trkpt lat="42.9660818423026" lon="13.383116564166205"><ele>611.8333333333334</ele><time>2026-04-18T09:19:13.002Z</time></trkpt><trkpt lat="42.96614993011021" lon="13.383050814797217"><ele>613.0</ele><time>2026-04-18T09:19:14.003Z</time></trkpt><trkpt lat="42.96622597652954" lon="13.382994311809652"><ele>613.0</ele><time>2026-04-18T09:19:15.003Z</time></trkpt><trkpt lat="42.96631415872293" lon="13.382946030370096"><ele>613.0</ele><time>2026-04-18T09:19:16.003Z</time></trkpt><trkpt lat="42.96640745515874" lon="13.382916071079569"><ele>613.0</ele><time>2026-04-18T09:19:17.003Z</time></trkpt><trkpt lat="42.96648815457203" lon="13.382878603706038"><ele>613.0</ele><time>2026-04-18T09:19:18.003Z</time></trkpt><trkpt lat="42.966565309979295" lon="13.382835301555136"><ele>613.0</ele><time>2026-04-18T09:19:19.003Z</time></trkpt><trkpt lat="42.96662856657132" lon="13.382763402455138"><ele>613.0</ele><time>2026-04-18T09:19:20.003Z</time></trkpt><trkpt lat="42.96664298254054" lon="13.382644245711464"><ele>613.0</ele><time>2026-04-18T09:19:21.003Z</time></trkpt><trkpt lat="42.96666032745818" lon="13.382550343321418"><ele>613.0</ele><time>2026-04-18T09:19:22.003Z</time></trkpt><trkpt lat="42.96668168388768" lon="13.382457794363548"><ele>613.0</ele><time>2026-04-18T09:19:23.003Z</time></trkpt><trkpt lat="42.96671912734104" lon="13.382369832053394"><ele>613.0</ele><time>2026-04-18T09:19:24.003Z</time></trkpt><trkpt lat="42.96677366893002" lon="13.382294347554913"><ele>613.0</ele><time>2026-04-18T09:19:25.003Z</time></trkpt><trkpt lat="42.96682899285029" lon="13.38222192241458"><ele>613.0</ele><time>2026-04-18T09:19:26.003Z</time></trkpt><trkpt lat="42.96687536270578" lon="13.382149152550758"><ele>613.0</ele><time>2026-04-18T09:19:27.003Z</time></trkpt><trkpt lat="42.96692984282748" lon="13.382081205258798"><ele>616.6666666666667</ele><time>2026-04-18T09:19:28.003Z</time></trkpt><trkpt lat="42.966977634903195" lon="13.38201690235835"><ele>620.3333333333334</ele><time>2026-04-18T09:19:29.003Z</time></trkpt><trkpt lat="42.967060990833915" lon="13.381953049167718"><ele>624.0</ele><time>2026-04-18T09:19:31.003Z</time></trkpt><trkpt lat="42.967115424672514" lon="13.381897764048308"><ele>627.6666666666666</ele><time>2026-04-18T09:19:33.003Z</time></trkpt><trkpt lat="42.96712738444119" lon="13.381807906550039"><ele>631.3333333333333</ele><time>2026-04-18T09:21:23.001Z</time></trkpt><trkpt lat="42.967215240108516" lon="13.381785278087051"><ele>635.0</ele><time>2026-04-18T09:22:05.001Z</time></trkpt><trkpt lat="42.967274003643126" lon="13.38170285441052"><ele>635.0</ele><time>2026-04-18T09:22:06.001Z</time></trkpt><trkpt lat="42.967321339709905" lon="13.381618862648237"><ele>635.0</ele><time>2026-04-18T09:22:07.001Z</time></trkpt><trkpt lat="42.967373762190554" lon="13.381515727838378"><ele>635.0</ele><time>2026-04-18T09:22:08.001Z</time></trkpt><trkpt lat="42.96743631046469" lon="13.381402960764058"><ele>635.0</ele><time>2026-04-18T09:22:09.001Z</time></trkpt><trkpt lat="42.96751690325396" lon="13.381302495869653"><ele>635.0</ele><time>2026-04-18T09:22:10.001Z</time></trkpt><trkpt lat="42.967588973032896" lon="13.381186832810627"><ele>635.1666666666666</ele><time>2026-04-18T09:22:11.001Z</time></trkpt><trkpt lat="42.96763795582916" lon="13.381109227427173"><ele>635.3333333333333</ele><time>2026-04-18T09:22:12.001Z</time></trkpt><trkpt lat="42.96769396854678" lon="13.381021780939516"><ele>635.5</ele><time>2026-04-18T09:22:13.001Z</time></trkpt><trkpt lat="42.967751871828476" lon="13.380920013818821"><ele>635.6666666666666</ele><time>2026-04-18T09:22:14.001Z</time></trkpt><trkpt lat="42.967806517049894" lon="13.380842001935354"><ele>635.8333333333334</ele><time>2026-04-18T09:22:15.001Z</time></trkpt><trkpt lat="42.967869635372836" lon="13.380782184609986"><ele>636.0</ele><time>2026-04-18T09:22:16.001Z</time></trkpt><trkpt lat="42.96792901568345" lon="13.380709235701884"><ele>636.0</ele><time>2026-04-18T09:22:17.001Z</time></trkpt><trkpt lat="42.96798195346599" lon="13.380648014910598"><ele>636.0</ele><time>2026-04-18T09:22:18.001Z</time></trkpt><trkpt lat="42.971654069959186" lon="13.380287762064835"><ele>638.0</ele><time>2026-04-18T09:23:20.003Z</time></trkpt><trkpt lat="42.97161210708327" lon="13.38037155058332"><ele>640.0</ele><time>2026-04-18T09:23:42.001Z</time></trkpt><trkpt lat="42.97160247286049" lon="13.380468523469952"><ele>642.0</ele><time>2026-04-18T09:24:09.001Z</time></trkpt><trkpt lat="42.97158659172801" lon="13.380558368629485"><ele>644.0</ele><time>2026-04-18T09:24:12.001Z</time></trkpt><trkpt lat="42.97156685124641" lon="13.380654949743795"><ele>646.0</ele><time>2026-04-18T09:24:15.001Z</time></trkpt><trkpt lat="42.97154263397796" lon="13.38076771162787"><ele>648.0</ele><time>2026-04-18T09:24:18.001Z</time></trkpt><trkpt lat="42.97290611759537" lon="13.383429764807175"><ele>648.0</ele><time>2026-04-18T09:25:20.003Z</time></trkpt><trkpt lat="42.973013886289145" lon="13.383386699764685"><ele>648.0</ele><time>2026-04-18T09:25:22.003Z</time></trkpt><trkpt lat="42.97312446617628" lon="13.383320946512939"><ele>648.0</ele><time>2026-04-18T09:25:24.003Z</time></trkpt><trkpt lat="42.97319188191934" lon="13.383277683868913"><ele>648.0</ele><time>2026-04-18T09:25:25.003Z</time></trkpt><trkpt lat="42.97327095954824" lon="13.383235507305836"><ele>648.0</ele><time>2026-04-18T09:25:26.003Z</time></trkpt><trkpt lat="42.97334921017061" lon="13.383188290414433"><ele>647.1666666666666</ele><time>2026-04-18T09:25:27.003Z</time></trkpt><trkpt lat="42.97343281833287" lon="13.383139056018958"><ele>646.3333333333334</ele><time>2026-04-18T09:25:28.003Z</time></trkpt><trkpt lat="42.97351255009787" lon="13.383097250084784"><ele>645.5</ele><time>2026-04-18T09:25:29.003Z</time></trkpt><trkpt lat="42.97359518683751" lon="13.38304438081227"><ele>644.6666666666667</ele><time>2026-04-18T09:25:30.003Z</time></trkpt><trkpt lat="42.97367214434864" lon="13.382995235322324"><ele>643.8333333333334</ele><time>2026-04-18T09:25:31.003Z</time></trkpt><trkpt lat="42.973748966492856" lon="13.382952598062637"><ele>643.0</ele><time>2026-04-18T09:25:32.003Z</time></trkpt><trkpt lat="42.97382548189136" lon="13.382915414070657"><ele>639.5</ele><time>2026-04-18T09:25:33.003Z</time></trkpt><trkpt lat="42.97389872342924" lon="13.382889898773143"><ele>636.0</ele><time>2026-04-18T09:25:34.003Z</time></trkpt><trkpt lat="42.97397138119861" lon="13.382856554328722"><ele>632.5</ele><time>2026-04-18T09:25:35.003Z</time></trkpt><trkpt lat="42.974051310399894" lon="13.382827306505124"><ele>629.0</ele><time>2026-04-18T09:25:36.003Z</time></trkpt><trkpt lat="42.9741370839004" lon="13.382794662788548"><ele>625.5</ele><time>2026-04-18T09:25:37.003Z</time></trkpt><trkpt lat="42.974212758606136" lon="13.382768555295685"><ele>622.0</ele><time>2026-04-18T09:25:38Z</time></trkpt><trkpt lat="42.974280966291104" lon="13.38274564574763"><ele>620.6</ele><time>2026-04-18T09:25:39Z</time></trkpt><trkpt lat="42.97434944007704" lon="13.382721746182785"><ele>619.2</ele><time>2026-04-18T09:25:40Z</time></trkpt><trkpt lat="42.974413613361754" lon="13.382701080373709"><ele>617.8</ele><time>2026-04-18T09:25:41Z</time></trkpt><trkpt lat="42.97452352502988" lon="13.382668686796734"><ele>616.4</ele><time>2026-04-18T09:25:43Z</time></trkpt><trkpt lat="42.97463222728177" lon="13.382690166165311"><ele>615.0</ele><time>2026-04-18T09:25:45Z</time></trkpt><trkpt lat="42.97471876190314" lon="13.38276059457568"><ele>615.0</ele><time>2026-04-18T09:25:47Z</time></trkpt><trkpt lat="42.97480930063949" lon="13.382879480705801"><ele>615.0</ele><time>2026-04-18T09:25:49Z</time></trkpt><trkpt lat="42.97487136389754" lon="13.382958416389998"><ele>615.0</ele><time>2026-04-18T09:25:50Z</time></trkpt><trkpt lat="42.974926632064665" lon="13.38302175260495"><ele>615.0</ele><time>2026-04-18T09:25:51Z</time></trkpt><trkpt lat="42.97498697967815" lon="13.383066127484284"><ele>615.0</ele><time>2026-04-18T09:25:52Z</time></trkpt><trkpt lat="42.975095073857" lon="13.383126654176563"><ele>615.1666666666666</ele><time>2026-04-18T09:25:54Z</time></trkpt><trkpt lat="42.97521271454367" lon="13.383111776821035"><ele>615.3333333333334</ele><time>2026-04-18T09:25:56Z</time></trkpt><trkpt lat="42.97531165312269" lon="13.383044038681227"><ele>615.5</ele><time>2026-04-18T09:25:58Z</time></trkpt><trkpt lat="42.9753656887304" lon="13.382996336066482"><ele>615.6666666666667</ele><time>2026-04-18T09:25:59Z</time></trkpt><trkpt lat="42.97543926630902" lon="13.382969686176418"><ele>615.8333333333334</ele><time>2026-04-18T09:26:00Z</time></trkpt><trkpt lat="42.97551569631538" lon="13.38295546125933"><ele>616.0</ele><time>2026-04-18T09:26:01Z</time></trkpt><trkpt lat="42.97559684388977" lon="13.382943124035883"><ele>616.0</ele><time>2026-04-18T09:26:02Z</time></trkpt><trkpt lat="42.975659995409686" lon="13.382896534859904"><ele>616.0</ele><time>2026-04-18T09:26:03Z</time></trkpt><trkpt lat="42.97574244947063" lon="13.38277427548756"><ele>616.0</ele><time>2026-04-18T09:26:05Z</time></trkpt><trkpt lat="42.97581494325945" lon="13.382659298538043"><ele>616.0</ele><time>2026-04-18T09:26:07Z</time></trkpt><trkpt lat="42.97586670697776" lon="13.382565297219267"><ele>616.0</ele><time>2026-04-18T09:26:09Z</time></trkpt><trkpt lat="42.97590833571189" lon="13.382449275594999"><ele>613.6</ele><time>2026-04-18T09:26:11Z</time></trkpt><trkpt lat="42.9759741554509" lon="13.382321115961348"><ele>611.2</ele><time>2026-04-18T09:26:13.001Z</time></trkpt><trkpt lat="42.97604446523445" lon="13.382237415678594"><ele>608.8</ele><time>2026-04-18T09:26:15.001Z</time></trkpt><trkpt lat="42.97611813160465" lon="13.382158670902102"><ele>606.4</ele><time>2026-04-18T09:26:17.001Z</time></trkpt><trkpt lat="42.97619428835904" lon="13.382164042473775"><ele>604.0</ele><time>2026-04-18T09:26:19.001Z</time></trkpt><trkpt lat="42.97849757003681" lon="13.38274590095688"><ele>603.1666666666667</ele><time>2026-04-18T09:27:20.002Z</time></trkpt><trkpt lat="42.978536373413405" lon="13.382818257878146"><ele>602.3333333333334</ele><time>2026-04-18T09:27:21.002Z</time></trkpt><trkpt lat="42.978616011199264" lon="13.382927541798733"><ele>601.5</ele><time>2026-04-18T09:27:23.002Z</time></trkpt><trkpt lat="42.97866936020045" lon="13.382983001556305"><ele>600.6666666666666</ele><time>2026-04-18T09:27:24.002Z</time></trkpt><trkpt lat="42.97872924400267" lon="13.38301909079653"><ele>599.8333333333333</ele><time>2026-04-18T09:27:25.002Z</time></trkpt><trkpt lat="42.97884991928543" lon="13.383037900818787"><ele>599.0</ele><time>2026-04-18T09:27:27.002Z</time></trkpt><trkpt lat="42.978926029429" lon="13.383033563281296"><ele>599.0</ele><time>2026-04-18T09:27:28.002Z</time></trkpt><trkpt lat="42.97901468323007" lon="13.383018739333837"><ele>599.0</ele><time>2026-04-18T09:27:29.003Z</time></trkpt><trkpt lat="42.979203629465516" lon="13.382985713701304"><ele>599.0</ele><time>2026-04-18T09:27:31.003Z</time></trkpt><trkpt lat="42.97931502492989" lon="13.382967100930813"><ele>599.0</ele><time>2026-04-18T09:27:32.003Z</time></trkpt><trkpt lat="42.979417357912226" lon="13.382952316116706"><ele>596.8333333333333</ele><time>2026-04-18T09:27:33.003Z</time></trkpt><trkpt lat="42.97949331590595" lon="13.382937513443697"><ele>594.6666666666666</ele><time>2026-04-18T09:27:34.003Z</time></trkpt><trkpt lat="42.979560322618134" lon="13.382930591220843"><ele>592.5</ele><time>2026-04-18T09:27:35.003Z</time></trkpt><trkpt lat="42.97967412871194" lon="13.38293223401606"><ele>590.3333333333334</ele><time>2026-04-18T09:27:37.003Z</time></trkpt><trkpt lat="42.9797713874274" lon="13.382921191089489"><ele>588.1666666666667</ele><time>2026-04-18T09:27:39.003Z</time></trkpt><trkpt lat="42.979854670658774" lon="13.38288304617278"><ele>586.0</ele><time>2026-04-18T09:27:41.003Z</time></trkpt><trkpt lat="42.979893942599695" lon="13.382749063828882"><ele>586.0</ele><time>2026-04-18T09:27:43.003Z</time></trkpt><trkpt lat="42.979920399446236" lon="13.38263220672483"><ele>586.0</ele><time>2026-04-18T09:27:45Z</time></trkpt><trkpt lat="42.97994307033218" lon="13.382501460471897"><ele>586.0</ele><time>2026-04-18T09:27:47Z</time></trkpt><trkpt lat="42.97997262118891" lon="13.382385202633104"><ele>586.0</ele><time>2026-04-18T09:27:49Z</time></trkpt><trkpt lat="42.980000276573605" lon="13.382260894373752"><ele>586.0</ele><time>2026-04-18T09:27:51Z</time></trkpt><trkpt lat="42.980034409433316" lon="13.382155948791349"><ele>583.6666666666667</ele><time>2026-04-18T09:27:53Z</time></trkpt><trkpt lat="42.98007528293138" lon="13.38205723009554"><ele>581.3333333333334</ele><time>2026-04-18T09:27:55Z</time></trkpt><trkpt lat="42.98012069849849" lon="13.381977901696601"><ele>579.0</ele><time>2026-04-18T09:27:57Z</time></trkpt><trkpt lat="42.98017224869561" lon="13.381898744684783"><ele>576.6666666666666</ele><time>2026-04-18T09:28:00Z</time></trkpt><trkpt lat="42.9802409100167" lon="13.381845354502753"><ele>574.3333333333333</ele><time>2026-04-18T09:28:03Z</time></trkpt><trkpt lat="42.98030638431742" lon="13.381804669880678"><ele>572.0</ele><time>2026-04-18T09:28:05Z</time></trkpt><trkpt lat="42.98037709769201" lon="13.381820735076252"><ele>572.0</ele><time>2026-04-18T09:28:07Z</time></trkpt><trkpt lat="42.980465101055316" lon="13.381800514224949"><ele>572.0</ele><time>2026-04-18T09:28:09Z</time></trkpt><trkpt lat="42.98057103375165" lon="13.38179468962349"><ele>572.0</ele><time>2026-04-18T09:28:11Z</time></trkpt><trkpt lat="42.98066836296271" lon="13.381763530644509"><ele>572.0</ele><time>2026-04-18T09:28:13Z</time></trkpt><trkpt lat="42.98076340152389" lon="13.381701910355869"><ele>572.0</ele><time>2026-04-18T09:28:15Z</time></trkpt><trkpt lat="42.980859497959095" lon="13.381640221706904"><ele>576.5</ele><time>2026-04-18T09:28:17Z</time></trkpt><trkpt lat="42.98094655481914" lon="13.381545984343674"><ele>581.0</ele><time>2026-04-18T09:28:19Z</time></trkpt><trkpt lat="42.98176679834525" lon="13.383273804703164"><ele>581.3333333333333</ele><time>2026-04-18T09:29:20.002Z</time></trkpt><trkpt lat="42.98174099843953" lon="13.383374846908678"><ele>581.6666666666666</ele><time>2026-04-18T09:29:21.002Z</time></trkpt><trkpt lat="42.98176515464858" lon="13.383484979200936"><ele>582.0</ele><time>2026-04-18T09:29:22.002Z</time></trkpt><trkpt lat="42.98178469238973" lon="13.383584674672223"><ele>582.3333333333334</ele><time>2026-04-18T09:29:23.002Z</time></trkpt><trkpt lat="42.981820596313135" lon="13.38367963310429"><ele>582.6666666666667</ele><time>2026-04-18T09:29:24.002Z</time></trkpt><trkpt lat="42.981824931986786" lon="13.383791527238923"><ele>583.0</ele><time>2026-04-18T09:29:25.002Z</time></trkpt><trkpt lat="42.98186383673405" lon="13.383905411417208"><ele>584.1666666666667</ele><time>2026-04-18T09:29:26.002Z</time></trkpt><trkpt lat="42.98189201490936" lon="13.384019055503783"><ele>585.3333333333334</ele><time>2026-04-18T09:29:27.002Z</time></trkpt><trkpt lat="42.98194196854715" lon="13.384092555739025"><ele>586.5</ele><time>2026-04-18T09:29:28.002Z</time></trkpt><trkpt lat="42.98200966668859" lon="13.384193544153698"><ele>587.6666666666666</ele><time>2026-04-18T09:29:30.002Z</time></trkpt><trkpt lat="42.98200710027954" lon="13.38428707885774"><ele>588.8333333333333</ele><time>2026-04-18T09:29:32.003Z</time></trkpt><trkpt lat="42.981944675224355" lon="13.384324623353836"><ele>590.0</ele><time>2026-04-18T09:29:34.003Z</time></trkpt><trkpt lat="42.9818693935965" lon="13.384406662379556"><ele>590.0</ele><time>2026-04-18T09:29:36.003Z</time></trkpt><trkpt lat="42.98181996805582" lon="13.384465710993336"><ele>590.0</ele><time>2026-04-18T09:29:37.003Z</time></trkpt><trkpt lat="42.98179346092611" lon="13.384587041857968"><ele>590.0</ele><time>2026-04-18T09:29:38.003Z</time></trkpt><trkpt lat="42.98176922964187" lon="13.384683613122386"><ele>590.0</ele><time>2026-04-18T09:29:39.003Z</time></trkpt><trkpt lat="42.981737372598275" lon="13.3847993760464"><ele>590.0</ele><time>2026-04-18T09:29:40.003Z</time></trkpt><trkpt lat="42.98170887512744" lon="13.384906069251814"><ele>590.0</ele><time>2026-04-18T09:29:41.003Z</time></trkpt><trkpt lat="42.98164767668452" lon="13.384983590320736"><ele>592.0</ele><time>2026-04-18T09:29:42.003Z</time></trkpt><trkpt lat="42.98160732557985" lon="13.385088603891276"><ele>594.0</ele><time>2026-04-18T09:29:43.003Z</time></trkpt><trkpt lat="42.981556824695794" lon="13.385176153749619"><ele>596.0</ele><time>2026-04-18T09:29:44.003Z</time></trkpt><trkpt lat="42.98151918195836" lon="13.385285334230332"><ele>598.0</ele><time>2026-04-18T09:29:45.003Z</time></trkpt><trkpt lat="42.98149270690886" lon="13.38540531470358"><ele>600.0</ele><time>2026-04-18T09:29:46.003Z</time></trkpt><trkpt lat="42.98148544257257" lon="13.385545273420158"><ele>600.0</ele><time>2026-04-18T09:29:47.003Z</time></trkpt><trkpt lat="42.98149066975344" lon="13.38569313007407"><ele>600.0</ele><time>2026-04-18T09:29:48.003Z</time></trkpt><trkpt lat="42.98151003118831" lon="13.385824717205505"><ele>600.0</ele><time>2026-04-18T09:29:49Z</time></trkpt><trkpt lat="42.98153592797211" lon="13.385955944186316"><ele>600.0</ele><time>2026-04-18T09:29:50Z</time></trkpt><trkpt lat="42.98155465145936" lon="13.386074130209717"><ele>600.0</ele><time>2026-04-18T09:29:51Z</time></trkpt><trkpt lat="42.981537548766674" lon="13.386170719057704"><ele>600.0</ele><time>2026-04-18T09:29:52Z</time></trkpt><trkpt lat="42.981527016618784" lon="13.386270750149688"><ele>600.0</ele><time>2026-04-18T09:29:53Z</time></trkpt><trkpt lat="42.98151793755486" lon="13.386361637096803"><ele>600.0</ele><time>2026-04-18T09:29:54Z</time></trkpt><trkpt lat="42.98150406682709" lon="13.386474205220768"><ele>600.0</ele><time>2026-04-18T09:29:55Z</time></trkpt><trkpt lat="42.98148524106193" lon="13.386587521251945"><ele>600.0</ele><time>2026-04-18T09:29:56Z</time></trkpt><trkpt lat="42.98146163790797" lon="13.386706373221916"><ele>600.0</ele><time>2026-04-18T09:29:57Z</time></trkpt><trkpt lat="42.981438717934374" lon="13.386812711240632"><ele>599.2</ele><time>2026-04-18T09:29:58Z</time></trkpt><trkpt lat="42.981414736437365" lon="13.386922196108642"><ele>598.4</ele><time>2026-04-18T09:29:59Z</time></trkpt><trkpt lat="42.98138836924481" lon="13.387048938382513"><ele>597.6</ele><time>2026-04-18T09:30:00Z</time></trkpt><trkpt lat="42.98136249058712" lon="13.387201338326527"><ele>596.8</ele><time>2026-04-18T09:30:01Z</time></trkpt><trkpt lat="42.981340480814055" lon="13.387334158862378"><ele>596.0</ele><time>2026-04-18T09:30:02Z</time></trkpt><trkpt lat="42.98131732137702" lon="13.387473916877246"><ele>596.0</ele><time>2026-04-18T09:30:03Z</time></trkpt><trkpt lat="42.9813076895949" lon="13.387630300189226"><ele>596.0</ele><time>2026-04-18T09:30:04Z</time></trkpt><trkpt lat="42.98126855466846" lon="13.387785673146562"><ele>596.0</ele><time>2026-04-18T09:30:05Z</time></trkpt><trkpt lat="42.98124074497498" lon="13.387927552459205"><ele>596.0</ele><time>2026-04-18T09:30:06Z</time></trkpt><trkpt lat="42.9812178300032" lon="13.388053007621515"><ele>596.0</ele><time>2026-04-18T09:30:07Z</time></trkpt><trkpt lat="42.98119460287795" lon="13.388176315487383"><ele>597.3333333333333</ele><time>2026-04-18T09:30:08Z</time></trkpt><trkpt lat="42.98116551804651" lon="13.388295730212947"><ele>598.6666666666666</ele><time>2026-04-18T09:30:09Z</time></trkpt><trkpt lat="42.98112181223553" lon="13.388382456262965"><ele>600.0</ele><time>2026-04-18T09:30:10Z</time></trkpt><trkpt lat="42.98108697638446" lon="13.388466630182103"><ele>601.3333333333334</ele><time>2026-04-18T09:30:11Z</time></trkpt><trkpt lat="42.981027186546086" lon="13.388519479091432"><ele>602.6666666666667</ele><time>2026-04-18T09:30:12Z</time></trkpt><trkpt lat="42.98095791486344" lon="13.388665893220388"><ele>604.0</ele><time>2026-04-18T09:30:14Z</time></trkpt><trkpt lat="42.98093540155144" lon="13.388773060527168"><ele>605.8</ele><time>2026-04-18T09:30:15Z</time></trkpt><trkpt lat="42.98091467454946" lon="13.388866268910965"><ele>607.5999999999999</ele><time>2026-04-18T09:30:16Z</time></trkpt><trkpt lat="42.98091312724689" lon="13.388971730303213"><ele>609.4</ele><time>2026-04-18T09:30:17Z</time></trkpt><trkpt lat="42.98092228618847" lon="13.389091946082601"><ele>611.1999999999999</ele><time>2026-04-18T09:30:18Z</time></trkpt><trkpt lat="42.98092139398877" lon="13.38918684092569"><ele>613.0</ele><time>2026-04-18T09:30:19Z</time></trkpt><trkpt lat="42.98096206871514" lon="13.391379248317252"><ele>618.0</ele><time>2026-04-18T09:31:20.002Z</time></trkpt><trkpt lat="42.98104846851298" lon="13.391392280935642"><ele>623.0</ele><time>2026-04-18T09:31:24.002Z</time></trkpt><trkpt lat="42.98116495772283" lon="13.391315347700923"><ele>628.0</ele><time>2026-04-18T09:31:26.002Z</time></trkpt><trkpt lat="42.98122694608744" lon="13.391266721429842"><ele>633.0</ele><time>2026-04-18T09:31:27.002Z</time></trkpt><trkpt lat="42.981308540095554" lon="13.391196344050595"><ele>638.0</ele><time>2026-04-18T09:31:28.002Z</time></trkpt><trkpt lat="42.98139668495938" lon="13.391123379160241"><ele>638.0</ele><time>2026-04-18T09:31:29.002Z</time></trkpt><trkpt lat="42.981479990943384" lon="13.39106287221291"><ele>638.0</ele><time>2026-04-18T09:31:30.002Z</time></trkpt><trkpt lat="42.98156277380287" lon="13.391002429420968"><ele>638.0</ele><time>2026-04-18T09:31:31.002Z</time></trkpt><trkpt lat="42.98163778536976" lon="13.39095931816251"><ele>638.0</ele><time>2026-04-18T09:31:32.002Z</time></trkpt><trkpt lat="42.981710001352745" lon="13.390921557153181"><ele>638.0</ele><time>2026-04-18T09:31:33.002Z</time></trkpt><trkpt lat="42.981776012360775" lon="13.390890537692998"><ele>638.0</ele><time>2026-04-18T09:31:34.003Z</time></trkpt><trkpt lat="42.98188546710806" lon="13.390899017291531"><ele>638.1666666666666</ele><time>2026-04-18T09:31:36.003Z</time></trkpt><trkpt lat="42.98193866255721" lon="13.390961023282884"><ele>638.3333333333333</ele><time>2026-04-18T09:31:38.003Z</time></trkpt><trkpt lat="42.98198257447818" lon="13.391064445919223"><ele>638.5</ele><time>2026-04-18T09:31:40.003Z</time></trkpt><trkpt lat="42.98201030383878" lon="13.391148109629324"><ele>638.6666666666666</ele><time>2026-04-18T09:31:41.003Z</time></trkpt><trkpt lat="42.982042379474564" lon="13.391259491635296"><ele>638.8333333333334</ele><time>2026-04-18T09:31:42.003Z</time></trkpt><trkpt lat="42.98207508690878" lon="13.391362999654856"><ele>639.0</ele><time>2026-04-18T09:31:43.003Z</time></trkpt><trkpt lat="42.982123342130805" lon="13.391478606842151"><ele>639.0</ele><time>2026-04-18T09:31:44.003Z</time></trkpt><trkpt lat="42.98217982984142" lon="13.391566215892638"><ele>639.0</ele><time>2026-04-18T09:31:45.003Z</time></trkpt><trkpt lat="42.982207893297605" lon="13.39167974352744"><ele>639.0</ele><time>2026-04-18T09:31:46.003Z</time></trkpt><trkpt lat="42.982232982835306" lon="13.391780322834839"><ele>639.0</ele><time>2026-04-18T09:31:47.003Z</time></trkpt><trkpt lat="42.982240359787795" lon="13.39186759142419"><ele>639.0</ele><time>2026-04-18T09:31:48.003Z</time></trkpt><trkpt lat="42.98224988128099" lon="13.391971165181584"><ele>639.0</ele><time>2026-04-18T09:31:49.003Z</time></trkpt><trkpt lat="42.9822589066869" lon="13.392093537361914"><ele>641.0</ele><time>2026-04-18T09:31:50.003Z</time></trkpt><trkpt lat="42.982270504323346" lon="13.392230245554783"><ele>643.0</ele><time>2026-04-18T09:31:51.003Z</time></trkpt><trkpt lat="42.982305451688795" lon="13.392381190643146"><ele>645.0</ele><time>2026-04-18T09:31:52.003Z</time></trkpt><trkpt lat="42.98233018438431" lon="13.392536888109387"><ele>647.0</ele><time>2026-04-18T09:31:53.003Z</time></trkpt><trkpt lat="42.9823605732096" lon="13.39267825023264"><ele>649.0</ele><time>2026-04-18T09:31:54.003Z</time></trkpt><trkpt lat="42.982390280737675" lon="13.392813353354324"><ele>649.0</ele><time>2026-04-18T09:31:55.001Z</time></trkpt><trkpt lat="42.982407739546595" lon="13.39294628427342"><ele>649.0</ele><time>2026-04-18T09:31:56.001Z</time></trkpt><trkpt lat="42.98243719677952" lon="13.393058547032075"><ele>649.0</ele><time>2026-04-18T09:31:57.001Z</time></trkpt><trkpt lat="42.9824763637888" lon="13.393148175024264"><ele>649.0</ele><time>2026-04-18T09:31:58.001Z</time></trkpt><trkpt lat="42.98252796102987" lon="13.393233687617618"><ele>649.0</ele><time>2026-04-18T09:31:59.001Z</time></trkpt><trkpt lat="42.98259048439704" lon="13.393318914651868"><ele>649.0</ele><time>2026-04-18T09:32:00.001Z</time></trkpt><trkpt lat="42.98263353284053" lon="13.393394025231862"><ele>649.2</ele><time>2026-04-18T09:32:01.001Z</time></trkpt><trkpt lat="42.9827005002197" lon="13.393529132426952"><ele>649.4000000000001</ele><time>2026-04-18T09:32:03.001Z</time></trkpt><trkpt lat="42.98277549461767" lon="13.393576879369114"><ele>649.6</ele><time>2026-04-18T09:32:05.001Z</time></trkpt><trkpt lat="42.98290225416463" lon="13.393535815223137"><ele>649.8</ele><time>2026-04-18T09:32:07.001Z</time></trkpt><trkpt lat="42.98299221363939" lon="13.393490493121474"><ele>650.0</ele><time>2026-04-18T09:32:08.001Z</time></trkpt><trkpt lat="42.98307627044627" lon="13.393442696880472"><ele>650.0</ele><time>2026-04-18T09:32:09.001Z</time></trkpt><trkpt lat="42.983170928362135" lon="13.393382334365663"><ele>650.0</ele><time>2026-04-18T09:32:10.001Z</time></trkpt><trkpt lat="42.98326386298283" lon="13.393332171404376"><ele>650.0</ele><time>2026-04-18T09:32:11.001Z</time></trkpt><trkpt lat="42.98334290267753" lon="13.393293449345116"><ele>650.0</ele><time>2026-04-18T09:32:12.001Z</time></trkpt><trkpt lat="42.983422601813096" lon="13.39325582415941"><ele>650.0</ele><time>2026-04-18T09:32:13.001Z</time></trkpt><trkpt lat="42.98349246154899" lon="13.393218246321123"><ele>650.0</ele><time>2026-04-18T09:32:14.001Z</time></trkpt><trkpt lat="42.98355941670212" lon="13.393163055442619"><ele>647.4</ele><time>2026-04-18T09:32:15.001Z</time></trkpt><trkpt lat="42.98362571935779" lon="13.393113163257965"><ele>644.8</ele><time>2026-04-18T09:32:16.001Z</time></trkpt><trkpt lat="42.983704957465314" lon="13.393109195698294"><ele>642.2</ele><time>2026-04-18T09:32:17.001Z</time></trkpt><trkpt lat="42.983801651196536" lon="13.393090912464272"><ele>639.6</ele><time>2026-04-18T09:32:18.001Z</time></trkpt><trkpt lat="42.9839074973172" lon="13.39306224610778"><ele>637.0</ele><time>2026-04-18T09:32:19.001Z</time></trkpt><trkpt lat="42.99160426222969" lon="13.39087491727999"><ele>635.4</ele><time>2026-04-18T09:33:20.002Z</time></trkpt><trkpt lat="42.99166729459884" lon="13.390774017361725"><ele>633.8000000000001</ele><time>2026-04-18T09:33:21.002Z</time></trkpt><trkpt lat="42.99171246754029" lon="13.390665211741778"><ele>632.2</ele><time>2026-04-18T09:33:22.002Z</time></trkpt><trkpt lat="42.99174321920961" lon="13.390536961031302"><ele>630.6</ele><time>2026-04-18T09:33:23.002Z</time></trkpt><trkpt lat="42.99177405418339" lon="13.390399728329323"><ele>629.0</ele><time>2026-04-18T09:33:24.002Z</time></trkpt><trkpt lat="42.9918090965982" lon="13.39024629996123"><ele>629.0</ele><time>2026-04-18T09:33:25.002Z</time></trkpt><trkpt lat="42.99185031603167" lon="13.390094021487057"><ele>629.0</ele><time>2026-04-18T09:33:26.002Z</time></trkpt><trkpt lat="42.99189140975802" lon="13.389955618659528"><ele>629.0</ele><time>2026-04-18T09:33:27.002Z</time></trkpt><trkpt lat="42.99193322441181" lon="13.389826320093446"><ele>629.0</ele><time>2026-04-18T09:33:28.002Z</time></trkpt><trkpt lat="42.991971574369614" lon="13.389710259403609"><ele>629.0</ele><time>2026-04-18T09:33:29.002Z</time></trkpt><trkpt lat="42.992005818406625" lon="13.389626014913835"><ele>630.5714285714286</ele><time>2026-04-18T09:33:30.002Z</time></trkpt><trkpt lat="42.99204254327801" lon="13.389547852081638"><ele>632.1428571428572</ele><time>2026-04-18T09:33:31.003Z</time></trkpt><trkpt lat="42.992083983267236" lon="13.389468662413256"><ele>633.7142857142858</ele><time>2026-04-18T09:33:32.003Z</time></trkpt><trkpt lat="42.99212935456696" lon="13.389404035617257"><ele>635.2857142857142</ele><time>2026-04-18T09:33:33.003Z</time></trkpt><trkpt lat="42.99219352343419" lon="13.389376055030498"><ele>636.8571428571429</ele><time>2026-04-18T09:33:34.003Z</time></trkpt><trkpt lat="42.99226181380438" lon="13.389346495899622"><ele>638.4285714285714</ele><time>2026-04-18T09:33:35.003Z</time></trkpt><trkpt lat="42.99233541694207" lon="13.389305912342664"><ele>640.0</ele><time>2026-04-18T09:33:36.003Z</time></trkpt><trkpt lat="42.99240436268955" lon="13.389257414508458"><ele>640.0</ele><time>2026-04-18T09:33:37.003Z</time></trkpt><trkpt lat="42.992502661286345" lon="13.389183992457772"><ele>640.0</ele><time>2026-04-18T09:33:39.003Z</time></trkpt><trkpt lat="42.99256798842695" lon="13.389146105146416"><ele>640.0</ele><time>2026-04-18T09:33:40.003Z</time></trkpt><trkpt lat="42.99263975393378" lon="13.389115224800289"><ele>640.0</ele><time>2026-04-18T09:33:41.003Z</time></trkpt><trkpt lat="42.99272216171772" lon="13.389086843985202"><ele>640.0</ele><time>2026-04-18T09:33:42.003Z</time></trkpt><trkpt lat="42.99279439846422" lon="13.389065368727135"><ele>640.0</ele><time>2026-04-18T09:33:43.003Z</time></trkpt><trkpt lat="42.99285883928644" lon="13.389047910330056"><ele>638.4</ele><time>2026-04-18T09:33:44.003Z</time></trkpt><trkpt lat="42.992990033020774" lon="13.389017084255357"><ele>636.8</ele><time>2026-04-18T09:33:46.003Z</time></trkpt><trkpt lat="42.99306674118185" lon="13.388999060432957"><ele>635.2</ele><time>2026-04-18T09:33:47.003Z</time></trkpt><trkpt lat="42.99314304942885" lon="13.388979804996401"><ele>633.6</ele><time>2026-04-18T09:33:48.003Z</time></trkpt><trkpt lat="42.99323193923313" lon="13.38895416153261"><ele>632.0</ele><time>2026-04-18T09:33:49.003Z</time></trkpt><trkpt lat="42.993313393542316" lon="13.388927574553373"><ele>630.3333333333333</ele><time>2026-04-18T09:33:50.003Z</time></trkpt><trkpt lat="42.99338673373944" lon="13.388896495815152"><ele>628.6666666666666</ele><time>2026-04-18T09:33:51.003Z</time></trkpt><trkpt lat="42.99346624466644" lon="13.388875058102318"><ele>627.0</ele><time>2026-04-18T09:33:52.003Z</time></trkpt><trkpt lat="42.9935554555159" lon="13.388853289948692"><ele>625.3333333333334</ele><time>2026-04-18T09:33:53.003Z</time></trkpt><trkpt lat="42.9936372829059" lon="13.38883563294304"><ele>623.6666666666667</ele><time>2026-04-18T09:33:54.003Z</time></trkpt><trkpt lat="42.99370809621401" lon="13.388819478950635"><ele>622.0</ele><time>2026-04-18T09:33:55.003Z</time></trkpt><trkpt lat="42.993784464654375" lon="13.38880399246206"><ele>622.0</ele><time>2026-04-18T09:33:56.003Z</time></trkpt><trkpt lat="42.99385289086675" lon="13.388786578111654"><ele>622.0</ele><time>2026-04-18T09:33:57.003Z</time></trkpt><trkpt lat="42.993974661706346" lon="13.388762608806237"><ele>622.0</ele><time>2026-04-18T09:33:59.003Z</time></trkpt><trkpt lat="42.99403962770751" lon="13.388752393208634"><ele>622.0</ele><time>2026-04-18T09:34:00.003Z</time></trkpt><trkpt lat="42.99410752258609" lon="13.388747522344204"><ele>622.0</ele><time>2026-04-18T09:34:01.001Z</time></trkpt><trkpt lat="42.99417804073101" lon="13.388741976440096"><ele>622.0</ele><time>2026-04-18T09:34:02.001Z</time></trkpt><trkpt lat="42.99424814266221" lon="13.388732416146963"><ele>620.6666666666667</ele><time>2026-04-18T09:34:03.001Z</time></trkpt><trkpt lat="42.994322526030736" lon="13.388722792080609"><ele>619.3333333333334</ele><time>2026-04-18T09:34:04.001Z</time></trkpt><trkpt lat="42.99439731508124" lon="13.388713917798034"><ele>618.0</ele><time>2026-04-18T09:34:05.001Z</time></trkpt><trkpt lat="42.99447521533371" lon="13.388704969977134"><ele>616.6666666666666</ele><time>2026-04-18T09:34:06.001Z</time></trkpt><trkpt lat="42.99456066914151" lon="13.38869335582106"><ele>615.3333333333333</ele><time>2026-04-18T09:34:07.001Z</time></trkpt><trkpt lat="42.99464029606094" lon="13.388689267401555"><ele>614.0</ele><time>2026-04-18T09:34:08.001Z</time></trkpt><trkpt lat="42.99472163661562" lon="13.388681159454253"><ele>613.9999999999999</ele><time>2026-04-18T09:34:09.001Z</time></trkpt><trkpt lat="42.994799680612765" lon="13.388669556507462"><ele>614.0</ele><time>2026-04-18T09:34:10.001Z</time></trkpt><trkpt lat="42.99486813781796" lon="13.388651838553526"><ele>614.0</ele><time>2026-04-18T09:34:11.001Z</time></trkpt><trkpt lat="42.99493581705118" lon="13.388636561519384"><ele>614.0</ele><time>2026-04-18T09:34:12.001Z</time></trkpt><trkpt lat="42.99500150774669" lon="13.388615126316642"><ele>614.0</ele><time>2026-04-18T09:34:13.001Z</time></trkpt><trkpt lat="42.99506709273974" lon="13.388592610651123"><ele>613.9999999999999</ele><time>2026-04-18T09:34:14.001Z</time></trkpt><trkpt lat="42.99513328582415" lon="13.38856949727929"><ele>614.0</ele><time>2026-04-18T09:34:15.001Z</time></trkpt><trkpt lat="42.995203637174036" lon="13.388548035322353"><ele>610.75</ele><time>2026-04-18T09:34:16.001Z</time></trkpt><trkpt lat="42.99528630345621" lon="13.388522421852214"><ele>607.5</ele><time>2026-04-18T09:34:17.001Z</time></trkpt><trkpt lat="42.99535479533125" lon="13.388496622085617"><ele>604.25</ele><time>2026-04-18T09:34:18.001Z</time></trkpt><trkpt lat="42.99542431007484" lon="13.388474895208502"><ele>601.0</ele><time>2026-04-18T09:34:19.001Z</time></trkpt><trkpt lat="42.9973063197576" lon="13.386983933167373"><ele>594.5</ele><time>2026-04-18T09:35:20.002Z</time></trkpt><trkpt lat="42.9972956336705" lon="13.386882762771041"><ele>588.0</ele><time>2026-04-18T09:35:21.002Z</time></trkpt><trkpt lat="42.997290008773085" lon="13.386790498357545"><ele>581.5</ele><time>2026-04-18T09:35:22.002Z</time></trkpt><trkpt lat="42.997293175818896" lon="13.38665401472711"><ele>575.0</ele><time>2026-04-18T09:35:24.002Z</time></trkpt><trkpt lat="42.99732953305542" lon="13.386550230376773"><ele>568.5</ele><time>2026-04-18T09:35:26.002Z</time></trkpt><trkpt lat="42.99740061553334" lon="13.386472425520525"><ele>562.0</ele><time>2026-04-18T09:35:28.002Z</time></trkpt><trkpt lat="42.99750062721869" lon="13.38642710845537"><ele>559.6</ele><time>2026-04-18T09:35:30.002Z</time></trkpt><trkpt lat="42.99759538816361" lon="13.386349908890946"><ele>557.2</ele><time>2026-04-18T09:35:32.002Z</time></trkpt><trkpt lat="42.99769003147312" lon="13.386284761004466"><ele>554.8</ele><time>2026-04-18T09:35:34.002Z</time></trkpt><trkpt lat="42.99777891688489" lon="13.386221505297089"><ele>552.4</ele><time>2026-04-18T09:35:36.002Z</time></trkpt><trkpt lat="42.997868927983156" lon="13.386148785092251"><ele>550.0</ele><time>2026-04-18T09:35:38.002Z</time></trkpt><trkpt lat="42.99797567061826" lon="13.386039586437432"><ele>549.1666666666667</ele><time>2026-04-18T09:35:40.002Z</time></trkpt><trkpt lat="42.99803556200274" lon="13.385981563262002"><ele>548.3333333333334</ele><time>2026-04-18T09:35:41.002Z</time></trkpt><trkpt lat="42.998089923796414" lon="13.38592582829181"><ele>547.5</ele><time>2026-04-18T09:35:42.002Z</time></trkpt><trkpt lat="42.998134069699866" lon="13.385859321749033"><ele>546.6666666666666</ele><time>2026-04-18T09:35:43.002Z</time></trkpt><trkpt lat="42.99818365235458" lon="13.385791263370988"><ele>545.8333333333333</ele><time>2026-04-18T09:35:44.002Z</time></trkpt><trkpt lat="42.99822834489382" lon="13.385719951838851"><ele>545.0</ele><time>2026-04-18T09:35:45.002Z</time></trkpt><trkpt lat="42.99829572350472" lon="13.385599684661322"><ele>541.8</ele><time>2026-04-18T09:35:47.002Z</time></trkpt><trkpt lat="42.998373999912374" lon="13.385484611909346"><ele>538.6</ele><time>2026-04-18T09:35:49.002Z</time></trkpt><trkpt lat="42.99845031446974" lon="13.385401171594458"><ele>535.4</ele><time>2026-04-18T09:35:51.003Z</time></trkpt><trkpt lat="42.99854906031996" lon="13.385316915018999"><ele>532.2</ele><time>2026-04-18T09:35:53.003Z</time></trkpt><trkpt lat="42.998652662263204" lon="13.385256191192529"><ele>529.0</ele><time>2026-04-18T09:35:55.003Z</time></trkpt><trkpt lat="42.99875190796625" lon="13.38520166226554"><ele>529.0</ele><time>2026-04-18T09:35:57.003Z</time></trkpt><trkpt lat="42.9988573729522" lon="13.385154355180184"><ele>529.0</ele><time>2026-04-18T09:35:59.003Z</time></trkpt><trkpt lat="42.99896479902834" lon="13.385107060704142"><ele>529.0</ele><time>2026-04-18T09:36:01.003Z</time></trkpt><trkpt lat="42.99906256774739" lon="13.38511198957126"><ele>529.0</ele><time>2026-04-18T09:36:03.003Z</time></trkpt><trkpt lat="42.99920307142997" lon="13.385093656968477"><ele>526.6</ele><time>2026-04-18T09:36:05.003Z</time></trkpt><trkpt lat="42.99927956203948" lon="13.3850826144317"><ele>524.2</ele><time>2026-04-18T09:36:06.003Z</time></trkpt><trkpt lat="42.9993655483932" lon="13.385106470754264"><ele>521.8000000000001</ele><time>2026-04-18T09:36:07Z</time></trkpt><trkpt lat="42.99947781109129" lon="13.385144457942896"><ele>519.4</ele><time>2026-04-18T09:36:08Z</time></trkpt><trkpt lat="42.99960284771324" lon="13.385176678487193"><ele>517.0</ele><time>2026-04-18T09:36:09Z</time></trkpt><trkpt lat="42.999728056887605" lon="13.385206997961525"><ele>517.0</ele><time>2026-04-18T09:36:10Z</time></trkpt><trkpt lat="42.99985191046239" lon="13.385239714392032"><ele>517.0</ele><time>2026-04-18T09:36:11Z</time></trkpt><trkpt lat="42.99997116209551" lon="13.385274952725199"><ele>517.0</ele><time>2026-04-18T09:36:12Z</time></trkpt><trkpt lat="43.000091985765685" lon="13.385307223873417"><ele>517.0</ele><time>2026-04-18T09:36:13Z</time></trkpt><trkpt lat="43.00021075587832" lon="13.385352636446417"><ele>517.0</ele><time>2026-04-18T09:36:14Z</time></trkpt><trkpt lat="43.00031650400999" lon="13.385415589902383"><ele>517.0</ele><time>2026-04-18T09:36:15Z</time></trkpt><trkpt lat="43.000421199676616" lon="13.385439701418017"><ele>517.0</ele><time>2026-04-18T09:36:16Z</time></trkpt><trkpt lat="43.00053737860784" lon="13.385435123173957"><ele>517.0</ele><time>2026-04-18T09:36:17Z</time></trkpt><trkpt lat="43.00065111581893" lon="13.385446180748508"><ele>517.0</ele><time>2026-04-18T09:36:18Z</time></trkpt><trkpt lat="43.00076906164039" lon="13.385453660128299"><ele>517.0</ele><time>2026-04-18T09:36:19Z</time></trkpt><trkpt lat="43.00329303956493" lon="13.382481766895864"><ele>504.83333333333337</ele><time>2026-04-18T09:37:20.001Z</time></trkpt><trkpt lat="43.00336263603081" lon="13.382451708070016"><ele>492.6666666666667</ele><time>2026-04-18T09:37:21.001Z</time></trkpt><trkpt lat="43.00347294426361" lon="13.382408071456249"><ele>480.5</ele><time>2026-04-18T09:37:23.001Z</time></trkpt><trkpt lat="43.00354982433854" lon="13.382354558464613"><ele>468.33333333333337</ele><time>2026-04-18T09:37:25.001Z</time></trkpt><trkpt lat="43.003505295906216" lon="13.38227752491005"><ele>456.1666666666667</ele><time>2026-04-18T09:37:27.001Z</time></trkpt><trkpt lat="43.00342591757631" lon="13.382226219420312"><ele>444.0</ele><time>2026-04-18T09:37:29.001Z</time></trkpt><trkpt lat="43.00334341979922" lon="13.382205726017798"><ele>444.0</ele><time>2026-04-18T09:37:30.001Z</time></trkpt><trkpt lat="43.00326679015205" lon="13.382187368218904"><ele>444.0</ele><time>2026-04-18T09:37:31.002Z</time></trkpt><trkpt lat="43.003175573227026" lon="13.382164241479273"><ele>444.0</ele><time>2026-04-18T09:37:32.002Z</time></trkpt><trkpt lat="43.003079713420334" lon="13.382134845161932"><ele>444.0</ele><time>2026-04-18T09:37:33.002Z</time></trkpt><trkpt lat="43.002968303455425" lon="13.382088771561689"><ele>444.0</ele><time>2026-04-18T09:37:34.002Z</time></trkpt><trkpt lat="43.00287011012002" lon="13.382032184339465"><ele>439.79999999999995</ele><time>2026-04-18T09:37:35.002Z</time></trkpt><trkpt lat="43.00278253971011" lon="13.38197652298702"><ele>435.59999999999997</ele><time>2026-04-18T09:37:36.002Z</time></trkpt><trkpt lat="43.002718606710054" lon="13.381928597814706"><ele>431.4</ele><time>2026-04-18T09:37:37.002Z</time></trkpt><trkpt lat="43.00267055077843" lon="13.381790527346933"><ele>427.2</ele><time>2026-04-18T09:37:39.002Z</time></trkpt><trkpt lat="43.00272090043766" lon="13.38166270217378"><ele>423.0</ele><time>2026-04-18T09:37:41.002Z</time></trkpt><trkpt lat="43.002787275627426" lon="13.381642418658064"><ele>423.0</ele><time>2026-04-18T09:37:42.002Z</time></trkpt><trkpt lat="43.00285756577955" lon="13.381631846301007"><ele>423.0</ele><time>2026-04-18T09:37:43.002Z</time></trkpt><trkpt lat="43.00293727625085" lon="13.381600784965142"><ele>423.0</ele><time>2026-04-18T09:37:44.002Z</time></trkpt><trkpt lat="43.00301988477097" lon="13.381567815536691"><ele>423.0</ele><time>2026-04-18T09:37:45.002Z</time></trkpt><trkpt lat="43.00309872680259" lon="13.381506260990403"><ele>423.0</ele><time>2026-04-18T09:37:46.002Z</time></trkpt><trkpt lat="43.003173416870105" lon="13.381469492837976"><ele>423.0</ele><time>2026-04-18T09:37:47.002Z</time></trkpt><trkpt lat="43.00325583895711" lon="13.381433620706249"><ele>423.1666666666667</ele><time>2026-04-18T09:37:48.002Z</time></trkpt><trkpt lat="43.003334255777176" lon="13.381398992906766"><ele>423.33333333333337</ele><time>2026-04-18T09:37:49.002Z</time></trkpt><trkpt lat="43.00341777683637" lon="13.3813703829113"><ele>423.5</ele><time>2026-04-18T09:37:50.002Z</time></trkpt><trkpt lat="43.00349794616752" lon="13.381338873789943"><ele>423.6666666666667</ele><time>2026-04-18T09:37:51.002Z</time></trkpt><trkpt lat="43.00357535402486" lon="13.381299406118602"><ele>423.83333333333337</ele><time>2026-04-18T09:37:52.002Z</time></trkpt><trkpt lat="43.00365436236162" lon="13.381254367114838"><ele>424.0</ele><time>2026-04-18T09:37:53.002Z</time></trkpt><trkpt lat="43.00373312031703" lon="13.381208750086799"><ele>420.33333333333337</ele><time>2026-04-18T09:37:54.002Z</time></trkpt><trkpt lat="43.00381177108126" lon="13.381160479847225"><ele>416.6666666666667</ele><time>2026-04-18T09:37:55.002Z</time></trkpt><trkpt lat="43.003892421909526" lon="13.381111046435151"><ele>413.0</ele><time>2026-04-18T09:37:56.002Z</time></trkpt><trkpt lat="43.003970080978625" lon="13.381058805717492"><ele>409.33333333333337</ele><time>2026-04-18T09:37:57.002Z</time></trkpt><trkpt lat="43.00404673486497" lon="13.381014109224285"><ele>405.6666666666667</ele><time>2026-04-18T09:37:58.002Z</time></trkpt><trkpt lat="43.00411575913707" lon="13.380966230525697"><ele>402.0</ele><time>2026-04-18T09:37:59.002Z</time></trkpt><trkpt lat="43.004175144402375" lon="13.380937629658897"><ele>401.5</ele><time>2026-04-18T09:38:00.002Z</time></trkpt><trkpt lat="43.00428673120155" lon="13.380954324199367"><ele>401.0</ele><time>2026-04-18T09:38:02.002Z</time></trkpt><trkpt lat="43.004372769281325" lon="13.380961590055893"><ele>400.5</ele><time>2026-04-18T09:38:04.002Z</time></trkpt><trkpt lat="43.00443978967981" lon="13.381062435830628"><ele>400.0</ele><time>2026-04-18T09:38:06.002Z</time></trkpt><trkpt lat="43.00451447544853" lon="13.381106735792196"><ele>399.5</ele><time>2026-04-18T09:38:08.002Z</time></trkpt><trkpt lat="43.00455741265216" lon="13.381038720955823"><ele>399.0</ele><time>2026-04-18T09:38:10.002Z</time></trkpt><trkpt lat="43.00451928268878" lon="13.380931472180416"><ele>399.0</ele><time>2026-04-18T09:38:12.002Z</time></trkpt><trkpt lat="43.00446460479601" lon="13.380861351668164"><ele>399.0</ele><time>2026-04-18T09:38:13.999Z</time></trkpt><trkpt lat="43.00724981366946" lon="13.37898905463978"><ele>390.6</ele><time>2026-04-18T09:39:20.001Z</time></trkpt><trkpt lat="43.00729060063772" lon="13.37889825154569"><ele>382.2</ele><time>2026-04-18T09:39:22.001Z</time></trkpt><trkpt lat="43.00727093682791" lon="13.378812380120234"><ele>373.8</ele><time>2026-04-18T09:39:23.001Z</time></trkpt><trkpt lat="43.007292495647235" lon="13.378718851168463"><ele>365.40000000000003</ele><time>2026-04-18T09:39:24.001Z</time></trkpt><trkpt lat="43.00739151124125" lon="13.378537977967097"><ele>357.0</ele><time>2026-04-18T09:39:26.001Z</time></trkpt><trkpt lat="43.00744464665693" lon="13.378463574210052"><ele>357.0</ele><time>2026-04-18T09:39:27.001Z</time></trkpt><trkpt lat="43.00750832747052" lon="13.378379211372446"><ele>357.0</ele><time>2026-04-18T09:39:28.001Z</time></trkpt><trkpt lat="43.00758502608488" lon="13.37828766989655"><ele>357.0</ele><time>2026-04-18T09:39:29.001Z</time></trkpt><trkpt lat="43.00768317258067" lon="13.378224348243599"><ele>357.0</ele><time>2026-04-18T09:39:30.001Z</time></trkpt><trkpt lat="43.007815677638014" lon="13.37810670031551"><ele>357.0</ele><time>2026-04-18T09:39:32.001Z</time></trkpt><trkpt lat="43.00787375678349" lon="13.378064884229973"><ele>357.0</ele><time>2026-04-18T09:39:33.001Z</time></trkpt><trkpt lat="43.007943242594365" lon="13.377990388177071"><ele>357.0</ele><time>2026-04-18T09:39:35.001Z</time></trkpt><trkpt lat="43.00800666500501" lon="13.37797248814279"><ele>357.0</ele><time>2026-04-18T09:39:38.001Z</time></trkpt><trkpt lat="43.00794284304136" lon="13.377968087533782"><ele>357.0</ele><time>2026-04-18T09:40:12.002Z</time></trkpt><trkpt lat="43.00786040222812" lon="13.378030754810643"><ele>357.0</ele><time>2026-04-18T09:40:15.002Z</time></trkpt><trkpt lat="43.00780627654535" lon="13.3780993221381"><ele>357.0</ele><time>2026-04-18T09:40:16.002Z</time></trkpt><trkpt lat="43.0077362429989" lon="13.378172704755926"><ele>357.0</ele><time>2026-04-18T09:40:17.002Z</time></trkpt><trkpt lat="43.0076552985614" lon="13.378194038573135"><ele>357.0</ele><time>2026-04-18T09:40:18.002Z</time></trkpt><trkpt lat="43.00758119337818" lon="13.378260550620109"><ele>357.0</ele><time>2026-04-18T09:40:19Z</time></trkpt><trkpt lat="43.0059237315969" lon="13.373842948011564"><ele>363.6666666666667</ele><time>2026-04-18T09:41:20.001Z</time></trkpt><trkpt lat="43.00590450580462" lon="13.373692975794462"><ele>370.33333333333337</ele><time>2026-04-18T09:41:21.001Z</time></trkpt><trkpt lat="43.005917249360266" lon="13.37356457828215"><ele>377.0</ele><time>2026-04-18T09:41:22.001Z</time></trkpt><trkpt lat="43.00592453597532" lon="13.373444567609338"><ele>383.6666666666667</ele><time>2026-04-18T09:41:23.001Z</time></trkpt><trkpt lat="43.00592712860629" lon="13.373357585282589"><ele>390.33333333333337</ele><time>2026-04-18T09:41:24.001Z</time></trkpt><trkpt lat="43.005902081076684" lon="13.373259860686161"><ele>397.0</ele><time>2026-04-18T09:41:25.001Z</time></trkpt><trkpt lat="43.00589087053465" lon="13.373134057622943"><ele>397.6</ele><time>2026-04-18T09:41:26.001Z</time></trkpt><trkpt lat="43.005873468525856" lon="13.372983646754426"><ele>398.20000000000005</ele><time>2026-04-18T09:41:27.001Z</time></trkpt><trkpt lat="43.00584467018747" lon="13.372853050156314"><ele>398.8</ele><time>2026-04-18T09:41:28.001Z</time></trkpt><trkpt lat="43.00581251023628" lon="13.372689930436401"><ele>399.4</ele><time>2026-04-18T09:41:29.001Z</time></trkpt><trkpt lat="43.005792518763094" lon="13.372538569171342"><ele>400.0</ele><time>2026-04-18T09:41:30.001Z</time></trkpt><trkpt lat="43.0057695500726" lon="13.372400465311063"><ele>400.4</ele><time>2026-04-18T09:41:31.001Z</time></trkpt><trkpt lat="43.005748504449656" lon="13.372261784836795"><ele>400.8</ele><time>2026-04-18T09:41:32.001Z</time></trkpt><trkpt lat="43.00572706032494" lon="13.372121722120047"><ele>401.20000000000005</ele><time>2026-04-18T09:41:33.001Z</time></trkpt><trkpt lat="43.00572086134454" lon="13.371996582889816"><ele>401.6</ele><time>2026-04-18T09:41:34.001Z</time></trkpt><trkpt lat="43.005705397537945" lon="13.371900766743133"><ele>402.0</ele><time>2026-04-18T09:41:35.002Z</time></trkpt><trkpt lat="43.005680788594184" lon="13.371713051259427"><ele>401.5</ele><time>2026-04-18T09:41:37.002Z</time></trkpt><trkpt lat="43.005671395125624" lon="13.371604335354222"><ele>401.0</ele><time>2026-04-18T09:41:39.002Z</time></trkpt><trkpt lat="43.00565731353457" lon="13.371506134239086"><ele>400.5</ele><time>2026-04-18T09:41:41.002Z</time></trkpt><trkpt lat="43.00575439223079" lon="13.371465409550737"><ele>400.0</ele><time>2026-04-18T09:41:42.002Z</time></trkpt><trkpt lat="43.0057910906388" lon="13.371323287288247"><ele>399.5</ele><time>2026-04-18T09:41:44.002Z</time></trkpt><trkpt lat="43.00582063998394" lon="13.37123064381879"><ele>399.0</ele><time>2026-04-18T09:41:45.002Z</time></trkpt><trkpt lat="43.0058488895199" lon="13.371132468149192"><ele>399.0</ele><time>2026-04-18T09:41:46.002Z</time></trkpt><trkpt lat="43.00587194213139" lon="13.37104303672416"><ele>399.0</ele><time>2026-04-18T09:41:47.002Z</time></trkpt><trkpt lat="43.00591776734707" lon="13.370883727529636"><ele>399.0</ele><time>2026-04-18T09:41:49.002Z</time></trkpt><trkpt lat="43.00593882006059" lon="13.370801110259519"><ele>399.0</ele><time>2026-04-18T09:41:50.002Z</time></trkpt><trkpt lat="43.00597908407341" lon="13.370718062829209"><ele>399.0</ele><time>2026-04-18T09:41:51.002Z</time></trkpt><trkpt lat="43.005989268673574" lon="13.370629322137527"><ele>399.0</ele><time>2026-04-18T09:41:52.002Z</time></trkpt><trkpt lat="43.006023819212075" lon="13.370536188890279"><ele>398.4</ele><time>2026-04-18T09:41:53.002Z</time></trkpt><trkpt lat="43.006056036140365" lon="13.370449440165055"><ele>397.79999999999995</ele><time>2026-04-18T09:41:54.002Z</time></trkpt><trkpt lat="43.0061278871206" lon="13.37031486865246"><ele>397.20000000000005</ele><time>2026-04-18T09:41:56.002Z</time></trkpt><trkpt lat="43.00615972295106" lon="13.370238889447243"><ele>396.6</ele><time>2026-04-18T09:41:57.002Z</time></trkpt><trkpt lat="43.006189316303804" lon="13.37007452964802"><ele>396.0</ele><time>2026-04-18T09:41:59.002Z</time></trkpt><trkpt lat="43.00620902198459" lon="13.369933085950672"><ele>396.0</ele><time>2026-04-18T09:42:01.002Z</time></trkpt><trkpt lat="43.0062048943075" lon="13.369843914430621"><ele>396.0</ele><time>2026-04-18T09:42:02.002Z</time></trkpt><trkpt lat="43.00619128653023" lon="13.36969992673574"><ele>396.0</ele><time>2026-04-18T09:42:04.002Z</time></trkpt><trkpt lat="43.006222122098194" lon="13.369614420256147"><ele>396.0</ele><time>2026-04-18T09:42:06.002Z</time></trkpt><trkpt lat="43.00623858008544" lon="13.36952428657471"><ele>396.0</ele><time>2026-04-18T09:42:08.002Z</time></trkpt><trkpt lat="43.006269832413786" lon="13.369404288163784"><ele>396.0</ele><time>2026-04-18T09:42:10.002Z</time></trkpt><trkpt lat="43.00627067457052" lon="13.369288619132584"><ele>396.0</ele><time>2026-04-18T09:42:12.002Z</time></trkpt><trkpt lat="43.006269721626865" lon="13.369194561081152"><ele>396.0</ele><time>2026-04-18T09:42:14.002Z</time></trkpt><trkpt lat="43.00622118223353" lon="13.369063638982174"><ele>396.0</ele><time>2026-04-18T09:42:16.002Z</time></trkpt><trkpt lat="43.00617720563429" lon="13.368941746409496"><ele>396.0</ele><time>2026-04-18T09:42:18.002Z</time></trkpt><trkpt lat="43.0066874878435" lon="13.364078489591433"><ele>407.6666666666667</ele><time>2026-04-18T09:43:20.001Z</time></trkpt><trkpt lat="43.00667284908599" lon="13.363965032447862"><ele>419.33333333333337</ele><time>2026-04-18T09:43:21.001Z</time></trkpt><trkpt lat="43.006657227284535" lon="13.363850912592811"><ele>431.0</ele><time>2026-04-18T09:43:22.001Z</time></trkpt><trkpt lat="43.00664384516552" lon="13.363737798078278"><ele>442.6666666666667</ele><time>2026-04-18T09:43:23.001Z</time></trkpt><trkpt lat="43.006625165783895" lon="13.363636196747326"><ele>454.33333333333337</ele><time>2026-04-18T09:43:24.001Z</time></trkpt><trkpt lat="43.006608449752356" lon="13.363537617895746"><ele>466.0</ele><time>2026-04-18T09:43:25.001Z</time></trkpt><trkpt lat="43.00660087539375" lon="13.363438254597254"><ele>466.00000000000006</ele><time>2026-04-18T09:43:26.001Z</time></trkpt><trkpt lat="43.00660580804717" lon="13.363335221210557"><ele>466.0</ele><time>2026-04-18T09:43:27.001Z</time></trkpt><trkpt lat="43.00661487366493" lon="13.363222903214494"><ele>466.0</ele><time>2026-04-18T09:43:28.001Z</time></trkpt><trkpt lat="43.00662532224157" lon="13.363105945240237"><ele>466.0</ele><time>2026-04-18T09:43:29.001Z</time></trkpt><trkpt lat="43.00663349076485" lon="13.362990277139467"><ele>466.00000000000006</ele><time>2026-04-18T09:43:30.001Z</time></trkpt><trkpt lat="43.00664167313677" lon="13.362870235340894"><ele>466.0</ele><time>2026-04-18T09:43:31.001Z</time></trkpt><trkpt lat="43.006644937926765" lon="13.362748896870105"><ele>468.33333333333337</ele><time>2026-04-18T09:43:32.001Z</time></trkpt><trkpt lat="43.006644773596214" lon="13.362627971028958"><ele>470.6666666666667</ele><time>2026-04-18T09:43:33.001Z</time></trkpt><trkpt lat="43.00664479603262" lon="13.362511184621988"><ele>473.0</ele><time>2026-04-18T09:43:34.001Z</time></trkpt><trkpt lat="43.00663428360281" lon="13.362395448385897"><ele>475.33333333333337</ele><time>2026-04-18T09:43:35.001Z</time></trkpt><trkpt lat="43.006623218087995" lon="13.362280886648328"><ele>477.6666666666667</ele><time>2026-04-18T09:43:36.001Z</time></trkpt><trkpt lat="43.00660913590147" lon="13.362164037151492"><ele>480.0</ele><time>2026-04-18T09:43:37.001Z</time></trkpt><trkpt lat="43.00660048926903" lon="13.36205217095185"><ele>482.6666666666667</ele><time>2026-04-18T09:43:38.001Z</time></trkpt><trkpt lat="43.00659121795145" lon="13.36193984634403"><ele>485.33333333333337</ele><time>2026-04-18T09:43:39.001Z</time></trkpt><trkpt lat="43.00658682763754" lon="13.361825574794949"><ele>488.0</ele><time>2026-04-18T09:43:40.001Z</time></trkpt><trkpt lat="43.006582168487164" lon="13.361710170271097"><ele>490.6666666666667</ele><time>2026-04-18T09:43:41.001Z</time></trkpt><trkpt lat="43.00657209626088" lon="13.361594941579213"><ele>493.33333333333337</ele><time>2026-04-18T09:43:42.001Z</time></trkpt><trkpt lat="43.00655944542555" lon="13.361491141859302"><ele>496.0</ele><time>2026-04-18T09:43:43.001Z</time></trkpt><trkpt lat="43.00655322066335" lon="13.361385467676932"><ele>498.6666666666667</ele><time>2026-04-18T09:43:44.001Z</time></trkpt><trkpt lat="43.00654516986715" lon="13.361286116380597"><ele>501.33333333333337</ele><time>2026-04-18T09:43:45.001Z</time></trkpt><trkpt lat="43.00653678844127" lon="13.361175080994357"><ele>504.0</ele><time>2026-04-18T09:43:46.001Z</time></trkpt><trkpt lat="43.00652936099525" lon="13.361055688712511"><ele>506.66666666666663</ele><time>2026-04-18T09:43:47.001Z</time></trkpt><trkpt lat="43.00651978984246" lon="13.360932437746479"><ele>509.3333333333333</ele><time>2026-04-18T09:43:48.001Z</time></trkpt><trkpt lat="43.00650479947012" lon="13.360810214031742"><ele>512.0</ele><time>2026-04-18T09:43:49.002Z</time></trkpt><trkpt lat="43.0064925147801" lon="13.360700867890971"><ele>512.0</ele><time>2026-04-18T09:43:50.002Z</time></trkpt><trkpt lat="43.00648312477628" lon="13.360581465130496"><ele>512.0</ele><time>2026-04-18T09:43:51.002Z</time></trkpt><trkpt lat="43.006474706670424" lon="13.360449611635236"><ele>512.0</ele><time>2026-04-18T09:43:52.002Z</time></trkpt><trkpt lat="43.006466524194764" lon="13.360316595851515"><ele>512.0</ele><time>2026-04-18T09:43:53.002Z</time></trkpt><trkpt lat="43.006457950673116" lon="13.360192015013094"><ele>512.0</ele><time>2026-04-18T09:43:54.002Z</time></trkpt><trkpt lat="43.00644956767662" lon="13.360068667861247"><ele>513.8571428571429</ele><time>2026-04-18T09:43:55.002Z</time></trkpt><trkpt lat="43.006442691266166" lon="13.35995719660791"><ele>515.7142857142857</ele><time>2026-04-18T09:43:56.002Z</time></trkpt><trkpt lat="43.00643449337926" lon="13.359855671137847"><ele>517.5714285714286</ele><time>2026-04-18T09:43:57.002Z</time></trkpt><trkpt lat="43.00642475908668" lon="13.359757011670004"><ele>519.4285714285714</ele><time>2026-04-18T09:43:58.002Z</time></trkpt><trkpt lat="43.006410027940674" lon="13.359668595345333"><ele>521.2857142857142</ele><time>2026-04-18T09:43:59.002Z</time></trkpt><trkpt lat="43.00639925574604" lon="13.359579500831499"><ele>523.1428571428571</ele><time>2026-04-18T09:44:00.002Z</time></trkpt><trkpt lat="43.00639287594849" lon="13.359492598223985"><ele>525.0</ele><time>2026-04-18T09:44:01.002Z</time></trkpt><trkpt lat="43.006399258858266" lon="13.359336603986527"><ele>527.8333333333334</ele><time>2026-04-18T09:44:03.002Z</time></trkpt><trkpt lat="43.00639995762372" lon="13.359241134651736"><ele>530.6666666666666</ele><time>2026-04-18T09:44:04.002Z</time></trkpt><trkpt lat="43.0063991618891" lon="13.35913327377845"><ele>533.5</ele><time>2026-04-18T09:44:05.002Z</time></trkpt><trkpt lat="43.006399367203095" lon="13.35901265507042"><ele>536.3333333333333</ele><time>2026-04-18T09:44:06.002Z</time></trkpt><trkpt lat="43.006399347125" lon="13.358902310341099"><ele>539.1666666666666</ele><time>2026-04-18T09:44:07.002Z</time></trkpt><trkpt lat="43.00642212352429" lon="13.358780425413476"><ele>542.0</ele><time>2026-04-18T09:44:08.002Z</time></trkpt><trkpt lat="43.006399896613175" lon="13.358684360185116"><ele>544.0</ele><time>2026-04-18T09:44:09.002Z</time></trkpt><trkpt lat="43.0063647567519" lon="13.358596295966459"><ele>546.0</ele><time>2026-04-18T09:44:10.002Z</time></trkpt><trkpt lat="43.00632330062345" lon="13.358504531562746"><ele>548.0</ele><time>2026-04-18T09:44:11.002Z</time></trkpt><trkpt lat="43.00628464962433" lon="13.35841178738065"><ele>550.0</ele><time>2026-04-18T09:44:12.002Z</time></trkpt><trkpt lat="43.00624748076658" lon="13.358320306266782"><ele>552.0</ele><time>2026-04-18T09:44:13.002Z</time></trkpt><trkpt lat="43.006236562049814" lon="13.358221768891363"><ele>554.0</ele><time>2026-04-18T09:44:14.002Z</time></trkpt><trkpt lat="43.006210763445374" lon="13.358129334842268"><ele>554.0</ele><time>2026-04-18T09:44:15.002Z</time></trkpt><trkpt lat="43.00616335087774" lon="13.358045913968665"><ele>554.0</ele><time>2026-04-18T09:44:16.002Z</time></trkpt><trkpt lat="43.00612945587658" lon="13.357953417796544"><ele>554.0</ele><time>2026-04-18T09:44:17.002Z</time></trkpt><trkpt lat="43.00610713308907" lon="13.35785581016929"><ele>554.0</ele><time>2026-04-18T09:44:18.002Z</time></trkpt><trkpt lat="43.00607145251928" lon="13.357756618210507"><ele>554.0</ele><time>2026-04-18T09:44:19.002Z</time></trkpt><trkpt lat="43.00637898240638" lon="13.351810477331242"><ele>568.0</ele><time>2026-04-18T09:45:20.001Z</time></trkpt><trkpt lat="43.00629931372186" lon="13.351656956301083"><ele>582.0</ele><time>2026-04-18T09:45:21.001Z</time></trkpt><trkpt lat="43.0062150574565" lon="13.351474373396337"><ele>596.0</ele><time>2026-04-18T09:45:22.001Z</time></trkpt><trkpt lat="43.0061518049143" lon="13.351298743601925"><ele>610.0</ele><time>2026-04-18T09:45:23.001Z</time></trkpt><trkpt lat="43.00610815648547" lon="13.35110455135874"><ele>613.0</ele><time>2026-04-18T09:45:24.001Z</time></trkpt><trkpt lat="43.006073116620854" lon="13.350907413506745"><ele>616.0</ele><time>2026-04-18T09:45:25.001Z</time></trkpt><trkpt lat="43.006061256164145" lon="13.350696896850454"><ele>619.0</ele><time>2026-04-18T09:45:26.001Z</time></trkpt><trkpt lat="43.00603524398421" lon="13.35048743085835"><ele>621.25</ele><time>2026-04-18T09:45:27.001Z</time></trkpt><trkpt lat="43.00598412101055" lon="13.350299642889848"><ele>623.5</ele><time>2026-04-18T09:45:28.001Z</time></trkpt><trkpt lat="43.00592716821327" lon="13.350125275377945"><ele>625.75</ele><time>2026-04-18T09:45:29.001Z</time></trkpt><trkpt lat="43.005846160718605" lon="13.349989531357958"><ele>628.0</ele><time>2026-04-18T09:45:30.001Z</time></trkpt><trkpt lat="43.00573685332776" lon="13.349898710176953"><ele>628.0</ele><time>2026-04-18T09:45:31.001Z</time></trkpt><trkpt lat="43.00562266004843" lon="13.349881411558751"><ele>628.0</ele><time>2026-04-18T09:45:32.001Z</time></trkpt><trkpt lat="43.005515654624475" lon="13.34987808401124"><ele>628.0</ele><time>2026-04-18T09:45:33.001Z</time></trkpt><trkpt lat="43.00538238544204" lon="13.349870179553454"><ele>628.0</ele><time>2026-04-18T09:45:34.001Z</time></trkpt><trkpt lat="43.0052750102818" lon="13.349855411325466"><ele>628.0</ele><time>2026-04-18T09:45:35.001Z</time></trkpt><trkpt lat="43.00513546526791" lon="13.349823673860328"><ele>628.0</ele><time>2026-04-18T09:45:37.001Z</time></trkpt><trkpt lat="43.00523393761862" lon="13.349827788572764"><ele>628.0</ele><time>2026-04-18T09:45:42.001Z</time></trkpt><trkpt lat="43.0053129286024" lon="13.349827788570035"><ele>628.0</ele><time>2026-04-18T09:45:43.001Z</time></trkpt><trkpt lat="43.00541326175977" lon="13.34980462431474"><ele>628.0</ele><time>2026-04-18T09:45:44.001Z</time></trkpt><trkpt lat="43.005501100099636" lon="13.349737193032881"><ele>630.0</ele><time>2026-04-18T09:45:45.001Z</time></trkpt><trkpt lat="43.005565821751034" lon="13.349648280495154"><ele>632.0</ele><time>2026-04-18T09:45:46.001Z</time></trkpt><trkpt lat="43.005641913203306" lon="13.34954151124488"><ele>634.0</ele><time>2026-04-18T09:45:47.001Z</time></trkpt><trkpt lat="43.00572509206902" lon="13.349427480796903"><ele>636.0</ele><time>2026-04-18T09:45:48.001Z</time></trkpt><trkpt lat="43.00581514534472" lon="13.349329333903244"><ele>638.0</ele><time>2026-04-18T09:45:49.001Z</time></trkpt><trkpt lat="43.00592036878426" lon="13.349221892484413"><ele>638.1999999999999</ele><time>2026-04-18T09:45:50.001Z</time></trkpt><trkpt lat="43.00602866292057" lon="13.349162964841401"><ele>638.4</ele><time>2026-04-18T09:45:51.001Z</time></trkpt><trkpt lat="43.0061192541872" lon="13.349123986522716"><ele>638.5999999999999</ele><time>2026-04-18T09:45:52.001Z</time></trkpt><trkpt lat="43.006219252334745" lon="13.349085748396961"><ele>638.8</ele><time>2026-04-18T09:45:53.001Z</time></trkpt><trkpt lat="43.006332810263736" lon="13.349041165524174"><ele>639.0</ele><time>2026-04-18T09:45:54.001Z</time></trkpt><trkpt lat="43.0064592704905" lon="13.348972052374137"><ele>639.0</ele><time>2026-04-18T09:45:55.001Z</time></trkpt><trkpt lat="43.00657133470698" lon="13.348876265442044"><ele>639.0</ele><time>2026-04-18T09:45:56.001Z</time></trkpt><trkpt lat="43.00669071312849" lon="13.34876741052886"><ele>639.0</ele><time>2026-04-18T09:45:57.001Z</time></trkpt><trkpt lat="43.006787339532664" lon="13.348640117799"><ele>639.0</ele><time>2026-04-18T09:45:58.001Z</time></trkpt><trkpt lat="43.00688383208662" lon="13.348496396904494"><ele>639.0</ele><time>2026-04-18T09:45:59.001Z</time></trkpt><trkpt lat="43.006983220227944" lon="13.348333062864397"><ele>639.0</ele><time>2026-04-18T09:46:00.001Z</time></trkpt><trkpt lat="43.007085400147396" lon="13.348175331221514"><ele>639.0</ele><time>2026-04-18T09:46:01.001Z</time></trkpt><trkpt lat="43.00716001911056" lon="13.348047157821789"><ele>639.0</ele><time>2026-04-18T09:46:02.001Z</time></trkpt><trkpt lat="43.007226512812096" lon="13.347947646684899"><ele>639.2</ele><time>2026-04-18T09:46:03.002Z</time></trkpt><trkpt lat="43.007273983202396" lon="13.34786820972531"><ele>639.4</ele><time>2026-04-18T09:46:04.002Z</time></trkpt><trkpt lat="43.007370500825566" lon="13.347691177222227"><ele>639.6</ele><time>2026-04-18T09:46:06.002Z</time></trkpt><trkpt lat="43.00742002696474" lon="13.347595210122297"><ele>639.8</ele><time>2026-04-18T09:46:07.002Z</time></trkpt><trkpt lat="43.007486260925155" lon="13.347500650038475"><ele>640.0</ele><time>2026-04-18T09:46:08.002Z</time></trkpt><trkpt lat="43.00753511288788" lon="13.347401997531072"><ele>640.0</ele><time>2026-04-18T09:46:09.002Z</time></trkpt><trkpt lat="43.007582952922455" lon="13.347299177418599"><ele>640.0</ele><time>2026-04-18T09:46:10.002Z</time></trkpt><trkpt lat="43.00763647864788" lon="13.347178425798498"><ele>640.0</ele><time>2026-04-18T09:46:11.002Z</time></trkpt><trkpt lat="43.00767441044827" lon="13.347050370161792"><ele>640.0</ele><time>2026-04-18T09:46:12.002Z</time></trkpt><trkpt lat="43.00771814857187" lon="13.346939975145316"><ele>640.0</ele><time>2026-04-18T09:46:13.002Z</time></trkpt><trkpt lat="43.00776070237099" lon="13.346831683137923"><ele>640.3333333333334</ele><time>2026-04-18T09:46:14.002Z</time></trkpt><trkpt lat="43.00779109525624" lon="13.346722786741875"><ele>640.6666666666667</ele><time>2026-04-18T09:46:15.002Z</time></trkpt><trkpt lat="43.00781873436545" lon="13.346621256521038"><ele>641.0</ele><time>2026-04-18T09:46:16.002Z</time></trkpt><trkpt lat="43.007852131661856" lon="13.346527411829376"><ele>641.3333333333334</ele><time>2026-04-18T09:46:17.002Z</time></trkpt><trkpt lat="43.007902532188204" lon="13.346449478969184"><ele>641.6666666666666</ele><time>2026-04-18T09:46:18.002Z</time></trkpt><trkpt lat="43.0079539038939" lon="13.346372624576254"><ele>642.0</ele><time>2026-04-18T09:46:19.002Z</time></trkpt><trkpt lat="43.01245468052798" lon="13.3420530392597"><ele>632.4</ele><time>2026-04-18T09:47:20Z</time></trkpt><trkpt lat="43.01254942955789" lon="13.342035431477617"><ele>622.8000000000001</ele><time>2026-04-18T09:47:21Z</time></trkpt><trkpt lat="43.01264693420891" lon="13.342006019668156"><ele>613.2</ele><time>2026-04-18T09:47:22Z</time></trkpt><trkpt lat="43.01274906982425" lon="13.34199055091849"><ele>603.6</ele><time>2026-04-18T09:47:23Z</time></trkpt><trkpt lat="43.012853513060136" lon="13.341982738283788"><ele>594.0</ele><time>2026-04-18T09:47:24Z</time></trkpt><trkpt lat="43.012960217889116" lon="13.341970722552823"><ele>594.0</ele><time>2026-04-18T09:47:25Z</time></trkpt><trkpt lat="43.01306760355191" lon="13.341972051380528"><ele>594.0</ele><time>2026-04-18T09:47:26Z</time></trkpt><trkpt lat="43.01317603031263" lon="13.341962367798512"><ele>594.0</ele><time>2026-04-18T09:47:27Z</time></trkpt><trkpt lat="43.013282712313796" lon="13.341963547830954"><ele>594.0</ele><time>2026-04-18T09:47:28Z</time></trkpt><trkpt lat="43.01338579179278" lon="13.341960694237006"><ele>594.0</ele><time>2026-04-18T09:47:29.001Z</time></trkpt><trkpt lat="43.013477777278354" lon="13.341952200302645"><ele>595.0</ele><time>2026-04-18T09:47:30.001Z</time></trkpt><trkpt lat="43.01356424600784" lon="13.341940100878347"><ele>596.0</ele><time>2026-04-18T09:47:31.001Z</time></trkpt><trkpt lat="43.013657398386535" lon="13.341927672162996"><ele>597.0</ele><time>2026-04-18T09:47:32.001Z</time></trkpt><trkpt lat="43.013750432068974" lon="13.341911660427938"><ele>598.0</ele><time>2026-04-18T09:47:33.001Z</time></trkpt><trkpt lat="43.01385168193561" lon="13.341884695004987"><ele>599.0</ele><time>2026-04-18T09:47:34.001Z</time></trkpt><trkpt lat="43.01396571502878" lon="13.341856267881761"><ele>599.0</ele><time>2026-04-18T09:47:35.001Z</time></trkpt><trkpt lat="43.014085334806694" lon="13.341844460802951"><ele>599.0</ele><time>2026-04-18T09:47:36.001Z</time></trkpt><trkpt lat="43.01419320502592" lon="13.341819515187154"><ele>599.0</ele><time>2026-04-18T09:47:37.001Z</time></trkpt><trkpt lat="43.01429395717176" lon="13.341794349983168"><ele>599.0</ele><time>2026-04-18T09:47:38.001Z</time></trkpt><trkpt lat="43.01438565131552" lon="13.341773551580097"><ele>599.0</ele><time>2026-04-18T09:47:39.001Z</time></trkpt><trkpt lat="43.014466570756575" lon="13.341759043199119"><ele>598.6666666666666</ele><time>2026-04-18T09:47:40.001Z</time></trkpt><trkpt lat="43.01454704656874" lon="13.341737739686643"><ele>598.3333333333333</ele><time>2026-04-18T09:47:41.001Z</time></trkpt><trkpt lat="43.01461754348891" lon="13.341704133542079"><ele>598.0</ele><time>2026-04-18T09:47:42.001Z</time></trkpt><trkpt lat="43.014677592125416" lon="13.341638360885197"><ele>597.6666666666666</ele><time>2026-04-18T09:47:43.001Z</time></trkpt><trkpt lat="43.014737856131504" lon="13.341569438185662"><ele>597.3333333333334</ele><time>2026-04-18T09:47:44.001Z</time></trkpt><trkpt lat="43.01478743289592" lon="13.341475079847635"><ele>597.0</ele><time>2026-04-18T09:47:45.001Z</time></trkpt><trkpt lat="43.01483669183484" lon="13.341359152364515"><ele>597.0</ele><time>2026-04-18T09:47:46.001Z</time></trkpt><trkpt lat="43.01489383524492" lon="13.341234114131398"><ele>597.0</ele><time>2026-04-18T09:47:47.001Z</time></trkpt><trkpt lat="43.01494792975859" lon="13.341114384563818"><ele>597.0</ele><time>2026-04-18T09:47:48.001Z</time></trkpt><trkpt lat="43.014999889006674" lon="13.340995824139014"><ele>597.0</ele><time>2026-04-18T09:47:49.001Z</time></trkpt><trkpt lat="43.01505700402757" lon="13.340865030562545"><ele>597.0</ele><time>2026-04-18T09:47:50.001Z</time></trkpt><trkpt lat="43.01511602374047" lon="13.340730675796118"><ele>597.5</ele><time>2026-04-18T09:47:51.001Z</time></trkpt><trkpt lat="43.0151832307595" lon="13.340580240161437"><ele>598.0</ele><time>2026-04-18T09:47:52.001Z</time></trkpt><trkpt lat="43.01524601861338" lon="13.340429362887045"><ele>598.5</ele><time>2026-04-18T09:47:53.001Z</time></trkpt><trkpt lat="43.015309035853925" lon="13.340289653722303"><ele>599.0</ele><time>2026-04-18T09:47:54.001Z</time></trkpt><trkpt lat="43.015368324865825" lon="13.340132538671458"><ele>599.0</ele><time>2026-04-18T09:47:55.001Z</time></trkpt><trkpt lat="43.0154241327026" lon="13.340000931957288"><ele>599.0</ele><time>2026-04-18T09:47:56.001Z</time></trkpt><trkpt lat="43.01546069818899" lon="13.339882402645518"><ele>599.0</ele><time>2026-04-18T09:47:57.001Z</time></trkpt><trkpt lat="43.01549175281853" lon="13.33977654229323"><ele>599.0</ele><time>2026-04-18T09:47:58.001Z</time></trkpt><trkpt lat="43.015524304946666" lon="13.33967366375174"><ele>599.0</ele><time>2026-04-18T09:47:59.001Z</time></trkpt><trkpt lat="43.015576067158904" lon="13.339611811306675"><ele>599.0</ele><time>2026-04-18T09:48:00.001Z</time></trkpt><trkpt lat="43.0156248024717" lon="13.339554266438864"><ele>599.3333333333333</ele><time>2026-04-18T09:48:02.001Z</time></trkpt><trkpt lat="43.01569085285344" lon="13.33955616009927"><ele>599.6666666666666</ele><time>2026-04-18T09:48:04.001Z</time></trkpt><trkpt lat="43.015789861859474" lon="13.339604086195331"><ele>600.0</ele><time>2026-04-18T09:48:07.001Z</time></trkpt><trkpt lat="43.01586773380516" lon="13.339663051791238"><ele>600.3333333333334</ele><time>2026-04-18T09:48:09.002Z</time></trkpt><trkpt lat="43.015942432814334" lon="13.339682746117772"><ele>600.6666666666667</ele><time>2026-04-18T09:48:11.002Z</time></trkpt><trkpt lat="43.0160002255001" lon="13.33974226513584"><ele>601.0</ele><time>2026-04-18T09:48:14.002Z</time></trkpt><trkpt lat="43.01605569069744" lon="13.339789334883879"><ele>590.0</ele><time>2026-04-18T09:48:19.002Z</time></trkpt><trkpt lat="43.0179772720563" lon="13.341902347575616"><ele>590.0</ele><time>2026-04-18T09:49:20Z</time></trkpt><trkpt lat="43.01801054028947" lon="13.341993787094596"><ele>590.0</ele><time>2026-04-18T09:50:31.002Z</time></trkpt><trkpt lat="43.01801793196491" lon="13.34208089683163"><ele>590.0</ele><time>2026-04-18T09:50:32.002Z</time></trkpt><trkpt lat="43.01802544704501" lon="13.342238398768677"><ele>590.0</ele><time>2026-04-18T09:50:34.002Z</time></trkpt><trkpt lat="43.018029207418316" lon="13.34239174664639"><ele>590.0</ele><time>2026-04-18T09:50:36.002Z</time></trkpt><trkpt lat="43.01803011971711" lon="13.34253392950964"><ele>588.6</ele><time>2026-04-18T09:50:38.003Z</time></trkpt><trkpt lat="43.018032760309886" lon="13.342674105873726"><ele>587.2</ele><time>2026-04-18T09:50:40.003Z</time></trkpt><trkpt lat="43.01802426536781" lon="13.34281670236126"><ele>585.8</ele><time>2026-04-18T09:50:42.003Z</time></trkpt><trkpt lat="43.01802648515788" lon="13.342957914134336"><ele>584.4</ele><time>2026-04-18T09:50:44.003Z</time></trkpt><trkpt lat="43.01802688544569" lon="13.343095667058279"><ele>583.0</ele><time>2026-04-18T09:50:46.003Z</time></trkpt><trkpt lat="43.0180346420647" lon="13.343231216763883"><ele>580.6</ele><time>2026-04-18T09:50:48.003Z</time></trkpt><trkpt lat="43.01804400233693" lon="13.343371312084717"><ele>578.1999999999999</ele><time>2026-04-18T09:50:49.999Z</time></trkpt><trkpt lat="43.018054203351355" lon="13.34351894632118"><ele>575.8</ele><time>2026-04-18T09:50:51.999Z</time></trkpt><trkpt lat="43.01806321004372" lon="13.343663600211517"><ele>573.4</ele><time>2026-04-18T09:50:53.999Z</time></trkpt><trkpt lat="43.018090592633804" lon="13.343788129665292"><ele>571.0</ele><time>2026-04-18T09:50:55.999Z</time></trkpt><trkpt lat="43.01813683612568" lon="13.343882777955615"><ele>569.8333333333334</ele><time>2026-04-18T09:50:57.999Z</time></trkpt><trkpt lat="43.01822507786626" lon="13.343946839973961"><ele>568.6666666666667</ele><time>2026-04-18T09:50:59.999Z</time></trkpt><trkpt lat="43.0182915913384" lon="13.343961100574"><ele>567.5</ele><time>2026-04-18T09:51:00.999Z</time></trkpt><trkpt lat="43.01836536856831" lon="13.343961792775119"><ele>566.3333333333334</ele><time>2026-04-18T09:51:01.999Z</time></trkpt><trkpt lat="43.01842946468522" lon="13.343956583785056"><ele>565.1666666666666</ele><time>2026-04-18T09:51:02.999Z</time></trkpt><trkpt lat="43.018563374528824" lon="13.343923673145142"><ele>564.0</ele><time>2026-04-18T09:51:04.999Z</time></trkpt><trkpt lat="43.01863389567578" lon="13.343907599849164"><ele>564.0</ele><time>2026-04-18T09:51:05.999Z</time></trkpt><trkpt lat="43.018708730367436" lon="13.343885197418555"><ele>564.0</ele><time>2026-04-18T09:51:06.999Z</time></trkpt><trkpt lat="43.018781936927745" lon="13.343862459588564"><ele>564.0</ele><time>2026-04-18T09:51:08Z</time></trkpt><trkpt lat="43.018855994828115" lon="13.34383900280172"><ele>564.0</ele><time>2026-04-18T09:51:09Z</time></trkpt><trkpt lat="43.018937712375475" lon="13.343805561812903"><ele>564.0</ele><time>2026-04-18T09:51:10Z</time></trkpt><trkpt lat="43.01901626389214" lon="13.343771762629393"><ele>564.0</ele><time>2026-04-18T09:51:11Z</time></trkpt><trkpt lat="43.0191051134006" lon="13.343725741061041"><ele>565.5</ele><time>2026-04-18T09:51:12Z</time></trkpt><trkpt lat="43.019190570556084" lon="13.34368899694495"><ele>567.0</ele><time>2026-04-18T09:51:13Z</time></trkpt><trkpt lat="43.01926666806924" lon="13.34365236958325"><ele>568.5</ele><time>2026-04-18T09:51:14Z</time></trkpt><trkpt lat="43.019343230724594" lon="13.343603809488206"><ele>570.0</ele><time>2026-04-18T09:51:15Z</time></trkpt><trkpt lat="43.01942330315222" lon="13.343552926888918"><ele>571.5</ele><time>2026-04-18T09:51:16Z</time></trkpt><trkpt lat="43.019505722829756" lon="13.343497721425486"><ele>573.0</ele><time>2026-04-18T09:51:17Z</time></trkpt><trkpt lat="43.019584282082434" lon="13.343437602141135"><ele>573.0</ele><time>2026-04-18T09:51:18Z</time></trkpt><trkpt lat="43.01965283509015" lon="13.343383869032277"><ele>573.0</ele><time>2026-04-18T09:51:19Z</time></trkpt><trkpt lat="43.02232263846049" lon="13.344093808350483"><ele>566.3333333333334</ele><time>2026-04-18T09:52:20.002Z</time></trkpt><trkpt lat="43.02241287518137" lon="13.344036682527816"><ele>559.6666666666666</ele><time>2026-04-18T09:52:21.002Z</time></trkpt><trkpt lat="43.022488298708055" lon="13.343983091657389"><ele>553.0</ele><time>2026-04-18T09:52:22.002Z</time></trkpt><trkpt lat="43.02255525172108" lon="13.343936630003764"><ele>546.3333333333333</ele><time>2026-04-18T09:52:23.002Z</time></trkpt><trkpt lat="43.02262340329042" lon="13.343885800022804"><ele>539.6666666666666</ele><time>2026-04-18T09:52:24.002Z</time></trkpt><trkpt lat="43.022690582966085" lon="13.34382744351953"><ele>533.0</ele><time>2026-04-18T09:52:25.002Z</time></trkpt><trkpt lat="43.022748013833514" lon="13.343778125509507"><ele>533.0</ele><time>2026-04-18T09:52:26.002Z</time></trkpt><trkpt lat="43.022854504290095" lon="13.343760524110031"><ele>533.0</ele><time>2026-04-18T09:52:28.002Z</time></trkpt><trkpt lat="43.02291114778176" lon="13.34382123363016"><ele>533.0</ele><time>2026-04-18T09:52:30.002Z</time></trkpt><trkpt lat="43.022988902556875" lon="13.343834517161216"><ele>533.0</ele><time>2026-04-18T09:52:33.002Z</time></trkpt><trkpt lat="43.023081722539374" lon="13.34378626604372"><ele>533.0</ele><time>2026-04-18T09:52:35.002Z</time></trkpt><trkpt lat="43.02314243831975" lon="13.343739999187601"><ele>533.0</ele><time>2026-04-18T09:52:36.002Z</time></trkpt><trkpt lat="43.023198985982795" lon="13.3436878396663"><ele>533.0</ele><time>2026-04-18T09:52:37.002Z</time></trkpt><trkpt lat="43.023256612654286" lon="13.343631553341327"><ele>533.0</ele><time>2026-04-18T09:52:38.002Z</time></trkpt><trkpt lat="43.0233253138337" lon="13.343568166172098"><ele>533.0</ele><time>2026-04-18T09:52:39.002Z</time></trkpt><trkpt lat="43.02340162767386" lon="13.343524508485382"><ele>533.0</ele><time>2026-04-18T09:52:40.002Z</time></trkpt><trkpt lat="43.02347629726285" lon="13.343460578371419"><ele>533.0</ele><time>2026-04-18T09:52:41.002Z</time></trkpt><trkpt lat="43.023534699454366" lon="13.343410575953461"><ele>533.0</ele><time>2026-04-18T09:52:42.002Z</time></trkpt><trkpt lat="43.02363787245345" lon="13.34332224200388"><ele>532.5</ele><time>2026-04-18T09:52:44.003Z</time></trkpt><trkpt lat="43.02374222637497" lon="13.343232896875678"><ele>532.0</ele><time>2026-04-18T09:52:46.003Z</time></trkpt><trkpt lat="43.02386887153237" lon="13.343124470925558"><ele>531.5</ele><time>2026-04-18T09:52:49.003Z</time></trkpt><trkpt lat="43.02396599090451" lon="13.343020323796544"><ele>531.0</ele><time>2026-04-18T09:52:51.003Z</time></trkpt><trkpt lat="43.02403761131234" lon="13.342962181331693"><ele>531.0</ele><time>2026-04-18T09:52:52.003Z</time></trkpt><trkpt lat="43.024121235892814" lon="13.342924467941511"><ele>531.0</ele><time>2026-04-18T09:52:53.003Z</time></trkpt><trkpt lat="43.02418993475329" lon="13.342872863585987"><ele>531.0</ele><time>2026-04-18T09:52:54.003Z</time></trkpt><trkpt lat="43.02425037572217" lon="13.342828300313544"><ele>531.0</ele><time>2026-04-18T09:52:54.999Z</time></trkpt><trkpt lat="43.02434116604308" lon="13.342761360620171"><ele>531.0</ele><time>2026-04-18T09:52:56.999Z</time></trkpt><trkpt lat="43.02441599615605" lon="13.342706188269974"><ele>531.0</ele><time>2026-04-18T09:52:58.999Z</time></trkpt><trkpt lat="43.02448288274659" lon="13.342641533061173"><ele>531.0</ele><time>2026-04-18T09:53:01.999Z</time></trkpt><trkpt lat="43.024413041370586" lon="13.342630142870144"><ele>531.0</ele><time>2026-04-18T09:53:11.999Z</time></trkpt><trkpt lat="43.02431622509102" lon="13.342730308593913"><ele>531.0</ele><time>2026-04-18T09:53:14.999Z</time></trkpt><trkpt lat="43.02424006277607" lon="13.342795219139965"><ele>531.0</ele><time>2026-04-18T09:53:16Z</time></trkpt><trkpt lat="43.024146356220186" lon="13.3428694182143"><ele>531.0</ele><time>2026-04-18T09:53:17Z</time></trkpt><trkpt lat="43.02405160342674" lon="13.342944509949104"><ele>531.0</ele><time>2026-04-18T09:53:18Z</time></trkpt><trkpt lat="43.02396601260331" lon="13.343010318144367"><ele>531.0</ele><time>2026-04-18T09:53:19Z</time></trkpt><trkpt lat="43.02047064021136" lon="13.348278870420021"><ele>523.1666666666666</ele><time>2026-04-18T09:54:20.002Z</time></trkpt><trkpt lat="43.020414536958" lon="13.348319546994524"><ele>515.3333333333334</ele><time>2026-04-18T09:54:21.002Z</time></trkpt><trkpt lat="43.020338008058374" lon="13.348234409049015"><ele>507.5</ele><time>2026-04-18T09:54:23.002Z</time></trkpt><trkpt lat="43.02026500152305" lon="13.348181909093237"><ele>499.6666666666667</ele><time>2026-04-18T09:54:26.002Z</time></trkpt><trkpt lat="43.020263480978834" lon="13.348307845714857"><ele>491.83333333333337</ele><time>2026-04-18T09:54:29.002Z</time></trkpt><trkpt lat="43.02030246745071" lon="13.348442414999875"><ele>484.0</ele><time>2026-04-18T09:54:32.002Z</time></trkpt><trkpt lat="43.020367470063434" lon="13.348483031870002"><ele>484.0</ele><time>2026-04-18T09:54:33.002Z</time></trkpt><trkpt lat="43.02042477959872" lon="13.348570507198664"><ele>484.0</ele><time>2026-04-18T09:54:35.002Z</time></trkpt><trkpt lat="43.02052554917938" lon="13.34859967188752"><ele>484.0</ele><time>2026-04-18T09:54:37.002Z</time></trkpt><trkpt lat="43.02065588603261" lon="13.348613860043766"><ele>484.0</ele><time>2026-04-18T09:54:39.002Z</time></trkpt><trkpt lat="43.02073562138329" lon="13.348572291894222"><ele>484.0</ele><time>2026-04-18T09:54:40.002Z</time></trkpt><trkpt lat="43.02083543336516" lon="13.348525355755285"><ele>484.79999999999995</ele><time>2026-04-18T09:54:41.002Z</time></trkpt><trkpt lat="43.02094398762552" lon="13.348474986164847"><ele>485.59999999999997</ele><time>2026-04-18T09:54:42.002Z</time></trkpt><trkpt lat="43.02105234874738" lon="13.348418438519017"><ele>486.4</ele><time>2026-04-18T09:54:43.002Z</time></trkpt><trkpt lat="43.02114495466219" lon="13.34836739998798"><ele>487.2</ele><time>2026-04-18T09:54:44.002Z</time></trkpt><trkpt lat="43.021229017982094" lon="13.348320965100605"><ele>488.0</ele><time>2026-04-18T09:54:45.002Z</time></trkpt><trkpt lat="43.02130417639283" lon="13.348278941829541"><ele>487.99999999999994</ele><time>2026-04-18T09:54:46.003Z</time></trkpt><trkpt lat="43.02137667056028" lon="13.348231040424642"><ele>488.0</ele><time>2026-04-18T09:54:47.003Z</time></trkpt><trkpt lat="43.02144254536965" lon="13.348195467638838"><ele>488.0</ele><time>2026-04-18T09:54:48.003Z</time></trkpt><trkpt lat="43.02150495121928" lon="13.348177660213446"><ele>488.0</ele><time>2026-04-18T09:54:49.003Z</time></trkpt><trkpt lat="43.021632951708646" lon="13.348143924923699"><ele>487.99999999999994</ele><time>2026-04-18T09:54:51.003Z</time></trkpt><trkpt lat="43.02171154040854" lon="13.348127799133168"><ele>488.0</ele><time>2026-04-18T09:54:52.003Z</time></trkpt><trkpt lat="43.02178354672856" lon="13.348119984379379"><ele>488.49999999999994</ele><time>2026-04-18T09:54:53.003Z</time></trkpt><trkpt lat="43.02185055499018" lon="13.348096529932201"><ele>489.0</ele><time>2026-04-18T09:54:54.003Z</time></trkpt><trkpt lat="43.021919968569954" lon="13.348092083530455"><ele>489.5</ele><time>2026-04-18T09:54:55.003Z</time></trkpt><trkpt lat="43.021984053543086" lon="13.348080387227832"><ele>490.0</ele><time>2026-04-18T09:54:56.003Z</time></trkpt><trkpt lat="43.022086121324946" lon="13.34803704617276"><ele>490.49999999999994</ele><time>2026-04-18T09:54:58.003Z</time></trkpt><trkpt lat="43.02215127890115" lon="13.347997157846853"><ele>491.0</ele><time>2026-04-18T09:55:00.003Z</time></trkpt><trkpt lat="43.02221495356842" lon="13.348082723162753"><ele>488.0</ele><time>2026-04-18T09:55:02Z</time></trkpt><trkpt lat="43.022306713634194" lon="13.348165927296964"><ele>485.0</ele><time>2026-04-18T09:55:04Z</time></trkpt><trkpt lat="43.02239216739315" lon="13.348248887861068"><ele>482.0</ele><time>2026-04-18T09:55:06Z</time></trkpt><trkpt lat="43.022488676355884" lon="13.348361919007788"><ele>479.0</ele><time>2026-04-18T09:55:08Z</time></trkpt><trkpt lat="43.02253039954323" lon="13.348434670612487"><ele>476.0</ele><time>2026-04-18T09:55:09Z</time></trkpt><trkpt lat="43.02256828580067" lon="13.348506784999074"><ele>474.6</ele><time>2026-04-18T09:55:10Z</time></trkpt><trkpt lat="43.02263309103123" lon="13.348618519027193"><ele>473.20000000000005</ele><time>2026-04-18T09:55:12Z</time></trkpt><trkpt lat="43.02270123864138" lon="13.348694438983294"><ele>471.79999999999995</ele><time>2026-04-18T09:55:14Z</time></trkpt><trkpt lat="43.02278964931573" lon="13.34869659472923"><ele>470.4</ele><time>2026-04-18T09:55:16Z</time></trkpt><trkpt lat="43.02287660484429" lon="13.348669268545319"><ele>469.0</ele><time>2026-04-18T09:55:18Z</time></trkpt><trkpt lat="43.026456046980876" lon="13.344257719528391"><ele>469.00000000000006</ele><time>2026-04-18T09:56:20.002Z</time></trkpt><trkpt lat="43.026506050162645" lon="13.344203055649304"><ele>469.0</ele><time>2026-04-18T09:56:21.002Z</time></trkpt><trkpt lat="43.026559364085685" lon="13.344147775597143"><ele>469.0</ele><time>2026-04-18T09:56:22.002Z</time></trkpt><trkpt lat="43.02661574403955" lon="13.344100403585037"><ele>469.0</ele><time>2026-04-18T09:56:23.002Z</time></trkpt><trkpt lat="43.02667346139825" lon="13.344059788745582"><ele>469.00000000000006</ele><time>2026-04-18T09:56:24.002Z</time></trkpt><trkpt lat="43.02677617193477" lon="13.343984543627151"><ele>469.0</ele><time>2026-04-18T09:56:26.002Z</time></trkpt><trkpt lat="43.02686915791033" lon="13.34390115708423"><ele>466.2</ele><time>2026-04-18T09:56:28.002Z</time></trkpt><trkpt lat="43.026955179837145" lon="13.34381864486774"><ele>463.4</ele><time>2026-04-18T09:56:30.002Z</time></trkpt><trkpt lat="43.027038810579235" lon="13.343738241343337"><ele>460.6</ele><time>2026-04-18T09:56:32.002Z</time></trkpt><trkpt lat="43.02711662193202" lon="13.343665860073363"><ele>457.8</ele><time>2026-04-18T09:56:34.002Z</time></trkpt><trkpt lat="43.02719301000692" lon="13.343600086127994"><ele>455.0</ele><time>2026-04-18T09:56:36.002Z</time></trkpt><trkpt lat="43.027291398269874" lon="13.343522601686395"><ele>454.99999999999994</ele><time>2026-04-18T09:56:38.003Z</time></trkpt><trkpt lat="43.02737826371141" lon="13.343454939349852"><ele>455.0</ele><time>2026-04-18T09:56:40.003Z</time></trkpt><trkpt lat="43.027444277935906" lon="13.34337858487977"><ele>455.0</ele><time>2026-04-18T09:56:42.003Z</time></trkpt><trkpt lat="43.02751256264021" lon="13.343322447526276"><ele>455.0</ele><time>2026-04-18T09:56:44.003Z</time></trkpt><trkpt lat="43.02758042706374" lon="13.343273080805986"><ele>454.99999999999994</ele><time>2026-04-18T09:56:46.003Z</time></trkpt><trkpt lat="43.027524419417055" lon="13.343327957253484"><ele>455.0</ele><time>2026-04-18T09:57:05.003Z</time></trkpt><trkpt lat="43.02743152245628" lon="13.343396908145786"><ele>455.0</ele><time>2026-04-18T09:57:07.001Z</time></trkpt><trkpt lat="43.02733073918708" lon="13.343447122693805"><ele>455.0</ele><time>2026-04-18T09:57:09.001Z</time></trkpt><trkpt lat="43.02726862982625" lon="13.3434938057844"><ele>455.0</ele><time>2026-04-18T09:57:10.001Z</time></trkpt><trkpt lat="43.027208764080555" lon="13.3435357873211"><ele>455.0</ele><time>2026-04-18T09:57:11.001Z</time></trkpt><trkpt lat="43.02715120037342" lon="13.343580053012442"><ele>455.0</ele><time>2026-04-18T09:57:12.001Z</time></trkpt><trkpt lat="43.027098339072296" lon="13.34363224710785"><ele>455.0</ele><time>2026-04-18T09:57:13.001Z</time></trkpt><trkpt lat="43.02704339682708" lon="13.343690302550637"><ele>455.0</ele><time>2026-04-18T09:57:14.001Z</time></trkpt><trkpt lat="43.02698885008869" lon="13.343744783713547"><ele>455.0</ele><time>2026-04-18T09:57:15.001Z</time></trkpt><trkpt lat="43.02693441439483" lon="13.343798878189794"><ele>455.0</ele><time>2026-04-18T09:57:16.001Z</time></trkpt><trkpt lat="43.026868723241066" lon="13.343858897050126"><ele>455.0</ele><time>2026-04-18T09:57:17.001Z</time></trkpt><trkpt lat="43.02679190674232" lon="13.343928314187803"><ele>455.0</ele><time>2026-04-18T09:57:18.001Z</time></trkpt><trkpt lat="43.02670802915502" lon="13.343998863371043"><ele>455.0</ele><time>2026-04-18T09:57:19Z</time></trkpt><trkpt lat="43.0229417767574" lon="13.348555803144553"><ele>457.16666666666663</ele><time>2026-04-18T09:58:20.001Z</time></trkpt><trkpt lat="43.022843106424816" lon="13.348634003903573"><ele>459.3333333333333</ele><time>2026-04-18T09:58:22.001Z</time></trkpt><trkpt lat="43.02277025074431" lon="13.34864603919662"><ele>461.5</ele><time>2026-04-18T09:58:24.001Z</time></trkpt><trkpt lat="43.02270440378821" lon="13.348641419830171"><ele>463.66666666666663</ele><time>2026-04-18T09:58:26.002Z</time></trkpt><trkpt lat="43.02265286946228" lon="13.348584241290107"><ele>465.8333333333333</ele><time>2026-04-18T09:58:28.002Z</time></trkpt><trkpt lat="43.02257811554056" lon="13.348450221544894"><ele>468.0</ele><time>2026-04-18T09:58:30.002Z</time></trkpt><trkpt lat="43.022536279046996" lon="13.348371616424604"><ele>469.3333333333333</ele><time>2026-04-18T09:58:31.002Z</time></trkpt><trkpt lat="43.02247285964668" lon="13.348306555328262"><ele>470.66666666666663</ele><time>2026-04-18T09:58:32.002Z</time></trkpt><trkpt lat="43.02240887802123" lon="13.348219405657163"><ele>472.0</ele><time>2026-04-18T09:58:33.002Z</time></trkpt><trkpt lat="43.02233826508628" lon="13.348137056971497"><ele>473.3333333333333</ele><time>2026-04-18T09:58:34.002Z</time></trkpt><trkpt lat="43.0222574361798" lon="13.348062999524675"><ele>474.66666666666663</ele><time>2026-04-18T09:58:35.002Z</time></trkpt><trkpt lat="43.02218894125507" lon="13.348005567517312"><ele>476.0</ele><time>2026-04-18T09:58:36.002Z</time></trkpt><trkpt lat="43.022085483355845" lon="13.347963721638108"><ele>476.0</ele><time>2026-04-18T09:58:38.002Z</time></trkpt><trkpt lat="43.02198259742775" lon="13.348033202733975"><ele>476.0</ele><time>2026-04-18T09:58:40.002Z</time></trkpt><trkpt lat="43.021898624485786" lon="13.348068884325828"><ele>476.0</ele><time>2026-04-18T09:58:41.002Z</time></trkpt><trkpt lat="43.02180177400231" lon="13.348092644858646"><ele>476.0</ele><time>2026-04-18T09:58:42.002Z</time></trkpt><trkpt lat="43.02168705483231" lon="13.34810563488672"><ele>476.0</ele><time>2026-04-18T09:58:43.002Z</time></trkpt><trkpt lat="43.02158394627095" lon="13.348118193599193"><ele>478.4</ele><time>2026-04-18T09:58:44.002Z</time></trkpt><trkpt lat="43.02149165150474" lon="13.348145179875436"><ele>480.8</ele><time>2026-04-18T09:58:45.002Z</time></trkpt><trkpt lat="43.02140305985877" lon="13.348173138501677"><ele>483.19999999999993</ele><time>2026-04-18T09:58:46.002Z</time></trkpt><trkpt lat="43.02131903205686" lon="13.348226875790898"><ele>485.59999999999997</ele><time>2026-04-18T09:58:47.002Z</time></trkpt><trkpt lat="43.02123178276847" lon="13.34828560391811"><ele>488.0</ele><time>2026-04-18T09:58:48.002Z</time></trkpt><trkpt lat="43.02112908748034" lon="13.348348126889503"><ele>488.0</ele><time>2026-04-18T09:58:49.002Z</time></trkpt><trkpt lat="43.02101718356927" lon="13.348410521727116"><ele>487.99999999999994</ele><time>2026-04-18T09:58:50.002Z</time></trkpt><trkpt lat="43.0209137663451" lon="13.3484667420439"><ele>487.99999999999994</ele><time>2026-04-18T09:58:51.002Z</time></trkpt><trkpt lat="43.020816600693415" lon="13.348516012472581"><ele>488.0</ele><time>2026-04-18T09:58:52.002Z</time></trkpt><trkpt lat="43.02072127636701" lon="13.348560189916565"><ele>488.0</ele><time>2026-04-18T09:58:53.002Z</time></trkpt><trkpt lat="43.02063723745046" lon="13.348593938228062"><ele>487.2</ele><time>2026-04-18T09:58:54.002Z</time></trkpt><trkpt lat="43.02056342619092" lon="13.348575438590162"><ele>486.4</ele><time>2026-04-18T09:58:55.002Z</time></trkpt><trkpt lat="43.02050039845503" lon="13.348559914089963"><ele>485.59999999999997</ele><time>2026-04-18T09:58:56.002Z</time></trkpt><trkpt lat="43.02043469596205" lon="13.348538083918825"><ele>484.79999999999995</ele><time>2026-04-18T09:58:57.002Z</time></trkpt><trkpt lat="43.0203640688335" lon="13.348423822946808"><ele>484.0</ele><time>2026-04-18T09:58:59.002Z</time></trkpt><trkpt lat="43.02022915878964" lon="13.348428700726295"><ele>484.0</ele><time>2026-04-18T09:59:01.002Z</time></trkpt><trkpt lat="43.020200149042005" lon="13.348332244196074"><ele>484.0</ele><time>2026-04-18T09:59:03.002Z</time></trkpt><trkpt lat="43.0202872962418" lon="13.348165744022674"><ele>484.0</ele><time>2026-04-18T09:59:05.002Z</time></trkpt><trkpt lat="43.0201532248919" lon="13.348183638015799"><ele>484.0</ele><time>2026-04-18T09:59:10.003Z</time></trkpt><trkpt lat="43.02021809675817" lon="13.34822942531079"><ele>484.0</ele><time>2026-04-18T09:59:16Z</time></trkpt><trkpt lat="43.020333147842855" lon="13.348268421758288"><ele>533.0</ele><time>2026-04-18T09:59:18Z</time></trkpt><trkpt lat="43.02292909830829" lon="13.3438345615442"><ele>533.0</ele><time>2026-04-18T10:00:20.001Z</time></trkpt><trkpt lat="43.02288309356866" lon="13.343751678679029"><ele>533.0</ele><time>2026-04-18T10:00:22.001Z</time></trkpt><trkpt lat="43.02280446023462" lon="13.34372939313781"><ele>533.0</ele><time>2026-04-18T10:00:24.001Z</time></trkpt><trkpt lat="43.02269423343788" lon="13.343771941927582"><ele>533.0</ele><time>2026-04-18T10:00:26.001Z</time></trkpt><trkpt lat="43.022636779175755" lon="13.343820932135207"><ele>533.0</ele><time>2026-04-18T10:00:27.001Z</time></trkpt><trkpt lat="43.022575825505854" lon="13.343869750085432"><ele>533.0</ele><time>2026-04-18T10:00:28.001Z</time></trkpt><trkpt lat="43.02250310338609" lon="13.34393123877723"><ele>532.4</ele><time>2026-04-18T10:00:29.001Z</time></trkpt><trkpt lat="43.02242704683834" lon="13.343999753114614"><ele>531.8</ele><time>2026-04-18T10:00:30.001Z</time></trkpt><trkpt lat="43.02232953075237" lon="13.344067574062734"><ele>531.2</ele><time>2026-04-18T10:00:31.001Z</time></trkpt><trkpt lat="43.02222335099613" lon="13.344110050979682"><ele>530.6</ele><time>2026-04-18T10:00:32.001Z</time></trkpt><trkpt lat="43.022122046148176" lon="13.344176980691392"><ele>530.0</ele><time>2026-04-18T10:00:33.001Z</time></trkpt><trkpt lat="43.0220269088697" lon="13.344265000697792"><ele>530.0</ele><time>2026-04-18T10:00:34.002Z</time></trkpt><trkpt lat="43.02192126865558" lon="13.344332164539612"><ele>530.0</ele><time>2026-04-18T10:00:35.002Z</time></trkpt><trkpt lat="43.02180916187294" lon="13.344400887416318"><ele>530.0</ele><time>2026-04-18T10:00:36.002Z</time></trkpt><trkpt lat="43.02169921193429" lon="13.34447827880541"><ele>530.0</ele><time>2026-04-18T10:00:37.002Z</time></trkpt><trkpt lat="43.02160559309072" lon="13.34456865952799"><ele>530.8</ele><time>2026-04-18T10:00:38.002Z</time></trkpt><trkpt lat="43.02152175125914" lon="13.344654829262788"><ele>531.6</ele><time>2026-04-18T10:00:39.002Z</time></trkpt><trkpt lat="43.02143518700315" lon="13.344738342196976"><ele>532.4</ele><time>2026-04-18T10:00:40.002Z</time></trkpt><trkpt lat="43.02133905284418" lon="13.3447996577675"><ele>533.2</ele><time>2026-04-18T10:00:41.002Z</time></trkpt><trkpt lat="43.021251742051305" lon="13.344864086187682"><ele>534.0</ele><time>2026-04-18T10:00:42.002Z</time></trkpt><trkpt lat="43.02116893863068" lon="13.344899211391894"><ele>534.0</ele><time>2026-04-18T10:00:43.002Z</time></trkpt><trkpt lat="43.021084898229354" lon="13.344921022094312"><ele>534.0</ele><time>2026-04-18T10:00:44.002Z</time></trkpt><trkpt lat="43.02099016367118" lon="13.344936605691696"><ele>534.0</ele><time>2026-04-18T10:00:45.002Z</time></trkpt><trkpt lat="43.02088491289865" lon="13.344949963921927"><ele>534.0</ele><time>2026-04-18T10:00:46.002Z</time></trkpt><trkpt lat="43.02078168404349" lon="13.344949983144291"><ele>534.0</ele><time>2026-04-18T10:00:47.002Z</time></trkpt><trkpt lat="43.02068381517278" lon="13.34493957398191"><ele>533.6666666666666</ele><time>2026-04-18T10:00:48.002Z</time></trkpt><trkpt lat="43.0206032568574" lon="13.344921579729851"><ele>533.3333333333334</ele><time>2026-04-18T10:00:49.002Z</time></trkpt><trkpt lat="43.02053815993642" lon="13.344897277388363"><ele>533.0</ele><time>2026-04-18T10:00:50.002Z</time></trkpt><trkpt lat="43.02045788465916" lon="13.34483007428654"><ele>532.6666666666667</ele><time>2026-04-18T10:00:52.002Z</time></trkpt><trkpt lat="43.02048930229936" lon="13.34471831579965"><ele>532.3333333333334</ele><time>2026-04-18T10:00:55.002Z</time></trkpt><trkpt lat="43.020568608300614" lon="13.344607823255767"><ele>532.0</ele><time>2026-04-18T10:00:57.002Z</time></trkpt><trkpt lat="43.020639721614" lon="13.344518148254847"><ele>534.4</ele><time>2026-04-18T10:00:58.002Z</time></trkpt><trkpt lat="43.02070639607374" lon="13.344428005426035"><ele>536.8000000000001</ele><time>2026-04-18T10:00:59.002Z</time></trkpt><trkpt lat="43.02078640592964" lon="13.344318826985665"><ele>539.2</ele><time>2026-04-18T10:01:00.002Z</time></trkpt><trkpt lat="43.02084671029329" lon="13.344236302959791"><ele>541.6</ele><time>2026-04-18T10:01:01.002Z</time></trkpt><trkpt lat="43.02089517608849" lon="13.3441607870823"><ele>544.0</ele><time>2026-04-18T10:01:02.002Z</time></trkpt><trkpt lat="43.02094153374492" lon="13.344050175182437"><ele>544.2</ele><time>2026-04-18T10:01:04.002Z</time></trkpt><trkpt lat="43.02089246790378" lon="13.343921370905594"><ele>544.4</ele><time>2026-04-18T10:01:06.002Z</time></trkpt><trkpt lat="43.02078354740322" lon="13.343861159548197"><ele>544.6</ele><time>2026-04-18T10:01:08.002Z</time></trkpt><trkpt lat="43.020713617574" lon="13.343859373399658"><ele>544.8</ele><time>2026-04-18T10:01:09.002Z</time></trkpt><trkpt lat="43.02062488892229" lon="13.343861732834204"><ele>545.0</ele><time>2026-04-18T10:01:10.002Z</time></trkpt><trkpt lat="43.0205127886832" lon="13.343864314613954"><ele>547.8333333333333</ele><time>2026-04-18T10:01:11.002Z</time></trkpt><trkpt lat="43.020423220972646" lon="13.343835222412078"><ele>550.6666666666666</ele><time>2026-04-18T10:01:12.002Z</time></trkpt><trkpt lat="43.02035859471167" lon="13.343802485534873"><ele>553.5</ele><time>2026-04-18T10:01:13.002Z</time></trkpt><trkpt lat="43.02030320798254" lon="13.34375581424341"><ele>556.3333333333334</ele><time>2026-04-18T10:01:14.002Z</time></trkpt><trkpt lat="43.0202107575004" lon="13.343651926256992"><ele>559.1666666666667</ele><time>2026-04-18T10:01:16.003Z</time></trkpt><trkpt lat="43.02015237002588" lon="13.34358875021382"><ele>562.0</ele><time>2026-04-18T10:01:17.003Z</time></trkpt><trkpt lat="43.02008156090293" lon="13.343524672577734"><ele>562.0</ele><time>2026-04-18T10:01:18.003Z</time></trkpt><trkpt lat="43.02001346081106" lon="13.343436425368466"><ele>562.0</ele><time>2026-04-18T10:01:19Z</time></trkpt><trkpt lat="43.01736560726067" lon="13.340652271556642"><ele>570.0</ele><time>2026-04-18T10:02:20.001Z</time></trkpt><trkpt lat="43.01724722164411" lon="13.340626635606874"><ele>578.0</ele><time>2026-04-18T10:02:21.001Z</time></trkpt><trkpt lat="43.017133737080705" lon="13.340596641636054"><ele>586.0</ele><time>2026-04-18T10:02:22.001Z</time></trkpt><trkpt lat="43.01701952040391" lon="13.340559405764083"><ele>594.0</ele><time>2026-04-18T10:02:23.001Z</time></trkpt><trkpt lat="43.01691225664149" lon="13.340509316522398"><ele>594.0</ele><time>2026-04-18T10:02:24.001Z</time></trkpt><trkpt lat="43.01681477574889" lon="13.340447610877929"><ele>594.0</ele><time>2026-04-18T10:02:25.001Z</time></trkpt><trkpt lat="43.01672911890408" lon="13.340386383855385"><ele>594.0</ele><time>2026-04-18T10:02:26.001Z</time></trkpt><trkpt lat="43.01664332822015" lon="13.340321246013124"><ele>594.0</ele><time>2026-04-18T10:02:27.001Z</time></trkpt><trkpt lat="43.0165595733871" lon="13.340249885782912"><ele>594.0</ele><time>2026-04-18T10:02:28.001Z</time></trkpt><trkpt lat="43.01647502875588" lon="13.340173455915673"><ele>596.1666666666666</ele><time>2026-04-18T10:02:29.001Z</time></trkpt><trkpt lat="43.016391269569446" lon="13.340096212831712"><ele>598.3333333333334</ele><time>2026-04-18T10:02:30.001Z</time></trkpt><trkpt lat="43.01630331159332" lon="13.340037799817054"><ele>600.5</ele><time>2026-04-18T10:02:31.001Z</time></trkpt><trkpt lat="43.01623526798159" lon="13.339969106223071"><ele>602.6666666666667</ele><time>2026-04-18T10:02:32.001Z</time></trkpt><trkpt lat="43.01617657684436" lon="13.33991581278461"><ele>604.8333333333334</ele><time>2026-04-18T10:02:33.001Z</time></trkpt><trkpt lat="43.01612519726582" lon="13.339854599732147"><ele>607.0</ele><time>2026-04-18T10:02:34.001Z</time></trkpt><trkpt lat="43.01605709629686" lon="13.33977151172748"><ele>607.0</ele><time>2026-04-18T10:02:36.001Z</time></trkpt><trkpt lat="43.01599433971425" lon="13.339740067054075"><ele>607.0</ele><time>2026-04-18T10:02:38.001Z</time></trkpt><trkpt lat="43.01596495266093" lon="13.339649511423428"><ele>607.0</ele><time>2026-04-18T10:02:42.002Z</time></trkpt><trkpt lat="43.016030704567655" lon="13.339667442846121"><ele>607.0</ele><time>2026-04-18T10:03:22.002Z</time></trkpt><trkpt lat="43.01598809967954" lon="13.33973826033722"><ele>607.0</ele><time>2026-04-18T10:04:07.001Z</time></trkpt><trkpt lat="43.01590897446767" lon="13.339699148586757"><ele>607.0</ele><time>2026-04-18T10:04:09.001Z</time></trkpt><trkpt lat="43.01579604945018" lon="13.3396025981577"><ele>604.4</ele><time>2026-04-18T10:04:11.001Z</time></trkpt><trkpt lat="43.01575594227261" lon="13.339532511843414"><ele>601.8000000000001</ele><time>2026-04-18T10:04:12.001Z</time></trkpt><trkpt lat="43.01567648881048" lon="13.33952837941885"><ele>599.2</ele><time>2026-04-18T10:04:14.001Z</time></trkpt><trkpt lat="43.01560939195268" lon="13.33951119111375"><ele>596.6</ele><time>2026-04-18T10:04:16.001Z</time></trkpt><trkpt lat="43.01553514062396" lon="13.339546959246755"><ele>594.0</ele><time>2026-04-18T10:04:19.001Z</time></trkpt><trkpt lat="43.01276002956853" lon="13.341968302423702"><ele>594.0</ele><time>2026-04-18T10:05:20.002Z</time></trkpt><trkpt lat="43.01269203968181" lon="13.341977287186571"><ele>594.0</ele><time>2026-04-18T10:05:21.002Z</time></trkpt><trkpt lat="43.01262834158705" lon="13.34197941078524"><ele>594.0</ele><time>2026-04-18T10:05:22.002Z</time></trkpt><trkpt lat="43.01256102202382" lon="13.341990503909361"><ele>594.0</ele><time>2026-04-18T10:05:23.002Z</time></trkpt><trkpt lat="43.01249182760345" lon="13.342003600736799"><ele>594.0</ele><time>2026-04-18T10:05:24.002Z</time></trkpt><trkpt lat="43.01242853427284" lon="13.342010992974684"><ele>594.0</ele><time>2026-04-18T10:05:25.002Z</time></trkpt><trkpt lat="43.012360717368765" lon="13.342025488473782"><ele>594.0</ele><time>2026-04-18T10:05:26.002Z</time></trkpt><trkpt lat="43.01229043587301" lon="13.342038081246978"><ele>594.8333333333334</ele><time>2026-04-18T10:05:27.003Z</time></trkpt><trkpt lat="43.01221835843121" lon="13.342049244226494"><ele>595.6666666666666</ele><time>2026-04-18T10:05:28.003Z</time></trkpt><trkpt lat="43.01214432166121" lon="13.342060624090006"><ele>596.5</ele><time>2026-04-18T10:05:29.003Z</time></trkpt><trkpt lat="43.012067756483674" lon="13.342075469245156"><ele>597.3333333333333</ele><time>2026-04-18T10:05:30.003Z</time></trkpt><trkpt lat="43.01199146938025" lon="13.342087561491915"><ele>598.1666666666666</ele><time>2026-04-18T10:05:31Z</time></trkpt><trkpt lat="43.011913133266866" lon="13.342105398998015"><ele>599.0</ele><time>2026-04-18T10:05:32Z</time></trkpt><trkpt lat="43.01183602766271" lon="13.342121647822932"><ele>599.0</ele><time>2026-04-18T10:05:33Z</time></trkpt><trkpt lat="43.01175783798249" lon="13.342132197561694"><ele>599.0</ele><time>2026-04-18T10:05:34Z</time></trkpt><trkpt lat="43.01167693571248" lon="13.342147379405084"><ele>599.0</ele><time>2026-04-18T10:05:35Z</time></trkpt><trkpt lat="43.01159442581359" lon="13.342162524205087"><ele>599.0</ele><time>2026-04-18T10:05:36Z</time></trkpt><trkpt lat="43.01150882657618" lon="13.34217708908325"><ele>599.0</ele><time>2026-04-18T10:05:37Z</time></trkpt><trkpt lat="43.011418540688325" lon="13.342194786709268"><ele>599.0</ele><time>2026-04-18T10:05:38Z</time></trkpt><trkpt lat="43.01132757784602" lon="13.342208959694966"><ele>601.2</ele><time>2026-04-18T10:05:39Z</time></trkpt><trkpt lat="43.01123811113791" lon="13.34222435425952"><ele>603.4</ele><time>2026-04-18T10:05:40Z</time></trkpt><trkpt lat="43.01114561149623" lon="13.34223436548273"><ele>605.6</ele><time>2026-04-18T10:05:41Z</time></trkpt><trkpt lat="43.01105310322588" lon="13.342247852526954"><ele>607.8</ele><time>2026-04-18T10:05:42Z</time></trkpt><trkpt lat="43.0109605511136" lon="13.342264564417757"><ele>610.0</ele><time>2026-04-18T10:05:43Z</time></trkpt><trkpt lat="43.01087123933973" lon="13.342288926744617"><ele>611.6</ele><time>2026-04-18T10:05:44Z</time></trkpt><trkpt lat="43.01078745205958" lon="13.342330109495112"><ele>613.2</ele><time>2026-04-18T10:05:45Z</time></trkpt><trkpt lat="43.01070986110398" lon="13.34238613199546"><ele>614.8</ele><time>2026-04-18T10:05:46Z</time></trkpt><trkpt lat="43.010636810973196" lon="13.342467542020321"><ele>616.4</ele><time>2026-04-18T10:05:47Z</time></trkpt><trkpt lat="43.01059232974317" lon="13.342576885566203"><ele>618.0</ele><time>2026-04-18T10:05:48Z</time></trkpt><trkpt lat="43.01053706060618" lon="13.34267330522873"><ele>618.0</ele><time>2026-04-18T10:05:49Z</time></trkpt><trkpt lat="43.0104842804659" lon="13.342783588322536"><ele>618.0</ele><time>2026-04-18T10:05:50Z</time></trkpt><trkpt lat="43.010422212204396" lon="13.34288068444822"><ele>618.0</ele><time>2026-04-18T10:05:51Z</time></trkpt><trkpt lat="43.01037307671395" lon="13.342988324118327"><ele>618.0</ele><time>2026-04-18T10:05:52Z</time></trkpt><trkpt lat="43.0103275181829" lon="13.343097978078479"><ele>618.0</ele><time>2026-04-18T10:05:53Z</time></trkpt><trkpt lat="43.010274786738634" lon="13.343193178872045"><ele>609.0</ele><time>2026-04-18T10:05:54Z</time></trkpt><trkpt lat="43.0094982938423" lon="13.343717248008591"><ele>609.0</ele><time>2026-04-18T10:06:46.001Z</time></trkpt><trkpt lat="43.00958469144071" lon="13.34378262927244"><ele>609.0</ele><time>2026-04-18T10:06:49Z</time></trkpt><trkpt lat="43.00958469144071" lon="13.34378262927244"><ele>609.0</ele><time>2026-04-18T10:06:49Z</time></trkpt></trkseg></trk></gpx>